<?xml version="1.0" encoding="UTF-8" standalone="no" ?>
<gpx xmlns="http://www.topografix.com/GPX/1/1" xmlns:xsi="http://www.w3.org/2001/XMLSchema-instance" xsi:schemaLocation="http://www.topografix.com/GPX/1/1 http://www.topografix.com/GPX/1/1/gpx.xsd" version="1.1" creator="VisuGPX - https://www.visugpx.com">
  <metadata>
    <name>Ugny - traces rando de mercy le bas</name>
    <desc><![CDATA[Dans la vallée de la crusnes, attention parcours assez physique et qques passages techniques]]></desc>
  </metadata>
  <trk>
    <name><![CDATA[230623 Ugny - rando nocturne mercy le bas]]></name>
    <trkseg>
      <trkpt lat="49.467" lon="5.70102">
        <ele>298.79998779297</ele>
        <time>2023-06-23T07:14:25Z</time>
      </trkpt>
      <trkpt lat="49.46692" lon="5.7011">
        <ele>299</ele>
        <time>2023-06-23T07:14:29Z</time>
      </trkpt>
      <trkpt lat="49.46688" lon="5.70114">
        <ele>299</ele>
        <time>2023-06-23T07:14:31Z</time>
      </trkpt>
      <trkpt lat="49.46683" lon="5.70119">
        <ele>299</ele>
        <time>2023-06-23T07:14:33Z</time>
      </trkpt>
      <trkpt lat="49.46679" lon="5.70124">
        <ele>299.20001220703</ele>
        <time>2023-06-23T07:14:35Z</time>
      </trkpt>
      <trkpt lat="49.46674" lon="5.70129">
        <ele>299.20001220703</ele>
        <time>2023-06-23T07:14:37Z</time>
      </trkpt>
      <trkpt lat="49.4667" lon="5.70133">
        <ele>299.39999389648</ele>
        <time>2023-06-23T07:14:39Z</time>
      </trkpt>
      <trkpt lat="49.46665" lon="5.70138">
        <ele>299.60000610352</ele>
        <time>2023-06-23T07:14:41Z</time>
      </trkpt>
      <trkpt lat="49.46661" lon="5.70143">
        <ele>299.79998779297</ele>
        <time>2023-06-23T07:14:43Z</time>
      </trkpt>
      <trkpt lat="49.46659" lon="5.70145">
        <ele>299.79998779297</ele>
        <time>2023-06-23T07:14:44Z</time>
      </trkpt>
      <trkpt lat="49.46656" lon="5.70148">
        <ele>299.79998779297</ele>
        <time>2023-06-23T07:14:45Z</time>
      </trkpt>
      <trkpt lat="49.46652" lon="5.70152">
        <ele>300</ele>
        <time>2023-06-23T07:14:47Z</time>
      </trkpt>
      <trkpt lat="49.46648" lon="5.70156">
        <ele>300.20001220703</ele>
        <time>2023-06-23T07:14:49Z</time>
      </trkpt>
      <trkpt lat="49.46643" lon="5.7016">
        <ele>300.39999389648</ele>
        <time>2023-06-23T07:14:51Z</time>
      </trkpt>
      <trkpt lat="49.46639" lon="5.70165">
        <ele>300.79998779297</ele>
        <time>2023-06-23T07:14:53Z</time>
      </trkpt>
      <trkpt lat="49.46635" lon="5.70169">
        <ele>301</ele>
        <time>2023-06-23T07:14:55Z</time>
      </trkpt>
      <trkpt lat="49.46631" lon="5.70173">
        <ele>301.39999389648</ele>
        <time>2023-06-23T07:14:57Z</time>
      </trkpt>
      <trkpt lat="49.46627" lon="5.70177">
        <ele>301.60000610352</ele>
        <time>2023-06-23T07:14:59Z</time>
      </trkpt>
      <trkpt lat="49.46625" lon="5.70179">
        <ele>301.60000610352</ele>
        <time>2023-06-23T07:15:00Z</time>
      </trkpt>
      <trkpt lat="49.46623" lon="5.70181">
        <ele>302</ele>
        <time>2023-06-23T07:15:01Z</time>
      </trkpt>
      <trkpt lat="49.46618" lon="5.70185">
        <ele>302.39999389648</ele>
        <time>2023-06-23T07:15:03Z</time>
      </trkpt>
      <trkpt lat="49.46614" lon="5.70189">
        <ele>302.79998779297</ele>
        <time>2023-06-23T07:15:05Z</time>
      </trkpt>
      <trkpt lat="49.46612" lon="5.70191">
        <ele>303</ele>
        <time>2023-06-23T07:15:06Z</time>
      </trkpt>
      <trkpt lat="49.4661" lon="5.70193">
        <ele>303.20001220703</ele>
        <time>2023-06-23T07:15:07Z</time>
      </trkpt>
      <trkpt lat="49.46606" lon="5.70196">
        <ele>303.79998779297</ele>
        <time>2023-06-23T07:15:09Z</time>
      </trkpt>
      <trkpt lat="49.46604" lon="5.70198">
        <ele>303.79998779297</ele>
        <time>2023-06-23T07:15:10Z</time>
      </trkpt>
      <trkpt lat="49.46602" lon="5.702">
        <ele>304.20001220703</ele>
        <time>2023-06-23T07:15:11Z</time>
      </trkpt>
      <trkpt lat="49.46598" lon="5.70203">
        <ele>304.60000610352</ele>
        <time>2023-06-23T07:15:13Z</time>
      </trkpt>
      <trkpt lat="49.46595" lon="5.70207">
        <ele>305</ele>
        <time>2023-06-23T07:15:15Z</time>
      </trkpt>
      <trkpt lat="49.46591" lon="5.7021">
        <ele>305.39999389648</ele>
        <time>2023-06-23T07:15:17Z</time>
      </trkpt>
      <trkpt lat="49.46587" lon="5.70214">
        <ele>306</ele>
        <time>2023-06-23T07:15:19Z</time>
      </trkpt>
      <trkpt lat="49.46585" lon="5.70216">
        <ele>306</ele>
        <time>2023-06-23T07:15:20Z</time>
      </trkpt>
      <trkpt lat="49.46583" lon="5.70218">
        <ele>306.20001220703</ele>
        <time>2023-06-23T07:15:21Z</time>
      </trkpt>
      <trkpt lat="49.46579" lon="5.70222">
        <ele>306.39999389648</ele>
        <time>2023-06-23T07:15:23Z</time>
      </trkpt>
      <trkpt lat="49.46576" lon="5.70226">
        <ele>307</ele>
        <time>2023-06-23T07:15:25Z</time>
      </trkpt>
      <trkpt lat="49.46572" lon="5.70229">
        <ele>307.20001220703</ele>
        <time>2023-06-23T07:15:27Z</time>
      </trkpt>
      <trkpt lat="49.4657" lon="5.70231">
        <ele>307.39999389648</ele>
        <time>2023-06-23T07:15:28Z</time>
      </trkpt>
      <trkpt lat="49.46568" lon="5.70234">
        <ele>307.79998779297</ele>
        <time>2023-06-23T07:15:29Z</time>
      </trkpt>
      <trkpt lat="49.46564" lon="5.70237">
        <ele>308</ele>
        <time>2023-06-23T07:15:31Z</time>
      </trkpt>
      <trkpt lat="49.4656" lon="5.70241">
        <ele>308.20001220703</ele>
        <time>2023-06-23T07:15:33Z</time>
      </trkpt>
      <trkpt lat="49.46556" lon="5.70246">
        <ele>308.60000610352</ele>
        <time>2023-06-23T07:15:35Z</time>
      </trkpt>
      <trkpt lat="49.46553" lon="5.7025">
        <ele>309</ele>
        <time>2023-06-23T07:15:37Z</time>
      </trkpt>
      <trkpt lat="49.46551" lon="5.70252">
        <ele>309</ele>
        <time>2023-06-23T07:15:38Z</time>
      </trkpt>
      <trkpt lat="49.46548" lon="5.70254">
        <ele>309.20001220703</ele>
        <time>2023-06-23T07:15:39Z</time>
      </trkpt>
      <trkpt lat="49.46544" lon="5.70258">
        <ele>309.39999389648</ele>
        <time>2023-06-23T07:15:41Z</time>
      </trkpt>
      <trkpt lat="49.4654" lon="5.70262">
        <ele>309.60000610352</ele>
        <time>2023-06-23T07:15:43Z</time>
      </trkpt>
      <trkpt lat="49.46536" lon="5.70266">
        <ele>309.79998779297</ele>
        <time>2023-06-23T07:15:45Z</time>
      </trkpt>
      <trkpt lat="49.46532" lon="5.7027">
        <ele>310</ele>
        <time>2023-06-23T07:15:47Z</time>
      </trkpt>
      <trkpt lat="49.46527" lon="5.70274">
        <ele>310.20001220703</ele>
        <time>2023-06-23T07:15:49Z</time>
      </trkpt>
      <trkpt lat="49.46523" lon="5.70279">
        <ele>310.39999389648</ele>
        <time>2023-06-23T07:15:51Z</time>
      </trkpt>
      <trkpt lat="49.46518" lon="5.70284">
        <ele>310.60000610352</ele>
        <time>2023-06-23T07:15:53Z</time>
      </trkpt>
      <trkpt lat="49.46512" lon="5.70289">
        <ele>310.79998779297</ele>
        <time>2023-06-23T07:15:55Z</time>
      </trkpt>
      <trkpt lat="49.46506" lon="5.70295">
        <ele>310.79998779297</ele>
        <time>2023-06-23T07:15:57Z</time>
      </trkpt>
      <trkpt lat="49.465" lon="5.70301">
        <ele>310.79998779297</ele>
        <time>2023-06-23T07:15:59Z</time>
      </trkpt>
      <trkpt lat="49.46494" lon="5.70306">
        <ele>310.79998779297</ele>
        <time>2023-06-23T07:16:01Z</time>
      </trkpt>
      <trkpt lat="49.46488" lon="5.70312">
        <ele>310.79998779297</ele>
        <time>2023-06-23T07:16:03Z</time>
      </trkpt>
      <trkpt lat="49.46482" lon="5.70317">
        <ele>310.79998779297</ele>
        <time>2023-06-23T07:16:05Z</time>
      </trkpt>
      <trkpt lat="49.46476" lon="5.70323">
        <ele>311</ele>
        <time>2023-06-23T07:16:07Z</time>
      </trkpt>
      <trkpt lat="49.4647" lon="5.70329">
        <ele>311</ele>
        <time>2023-06-23T07:16:09Z</time>
      </trkpt>
      <trkpt lat="49.46464" lon="5.70335">
        <ele>311</ele>
        <time>2023-06-23T07:16:11Z</time>
      </trkpt>
      <trkpt lat="49.46458" lon="5.70339">
        <ele>311</ele>
        <time>2023-06-23T07:16:13Z</time>
      </trkpt>
      <trkpt lat="49.46455" lon="5.70342">
        <ele>311</ele>
        <time>2023-06-23T07:16:14Z</time>
      </trkpt>
      <trkpt lat="49.46452" lon="5.70345">
        <ele>311</ele>
        <time>2023-06-23T07:16:15Z</time>
      </trkpt>
      <trkpt lat="49.46446" lon="5.70351">
        <ele>311</ele>
        <time>2023-06-23T07:16:17Z</time>
      </trkpt>
      <trkpt lat="49.4644" lon="5.70356">
        <ele>311.20001220703</ele>
        <time>2023-06-23T07:16:19Z</time>
      </trkpt>
      <trkpt lat="49.46434" lon="5.70362">
        <ele>311.39999389648</ele>
        <time>2023-06-23T07:16:21Z</time>
      </trkpt>
      <trkpt lat="49.46432" lon="5.70365">
        <ele>311.60000610352</ele>
        <time>2023-06-23T07:16:22Z</time>
      </trkpt>
      <trkpt lat="49.46429" lon="5.70368">
        <ele>311.60000610352</ele>
        <time>2023-06-23T07:16:23Z</time>
      </trkpt>
      <trkpt lat="49.46424" lon="5.70373">
        <ele>311.60000610352</ele>
        <time>2023-06-23T07:16:25Z</time>
      </trkpt>
      <trkpt lat="49.46421" lon="5.70376">
        <ele>311.60000610352</ele>
        <time>2023-06-23T07:16:26Z</time>
      </trkpt>
      <trkpt lat="49.46419" lon="5.70379">
        <ele>311.79998779297</ele>
        <time>2023-06-23T07:16:27Z</time>
      </trkpt>
      <trkpt lat="49.46414" lon="5.70385">
        <ele>312</ele>
        <time>2023-06-23T07:16:29Z</time>
      </trkpt>
      <trkpt lat="49.46408" lon="5.70391">
        <ele>312.20001220703</ele>
        <time>2023-06-23T07:16:31Z</time>
      </trkpt>
      <trkpt lat="49.46403" lon="5.70396">
        <ele>312.39999389648</ele>
        <time>2023-06-23T07:16:33Z</time>
      </trkpt>
      <trkpt lat="49.464" lon="5.70399">
        <ele>312.39999389648</ele>
        <time>2023-06-23T07:16:34Z</time>
      </trkpt>
      <trkpt lat="49.46397" lon="5.70402">
        <ele>312.39999389648</ele>
        <time>2023-06-23T07:16:35Z</time>
      </trkpt>
      <trkpt lat="49.46391" lon="5.70407">
        <ele>312.60000610352</ele>
        <time>2023-06-23T07:16:37Z</time>
      </trkpt>
      <trkpt lat="49.46385" lon="5.70413">
        <ele>312.60000610352</ele>
        <time>2023-06-23T07:16:39Z</time>
      </trkpt>
      <trkpt lat="49.46378" lon="5.7042">
        <ele>312.60000610352</ele>
        <time>2023-06-23T07:16:41Z</time>
      </trkpt>
      <trkpt lat="49.46372" lon="5.70426">
        <ele>312.60000610352</ele>
        <time>2023-06-23T07:16:43Z</time>
      </trkpt>
      <trkpt lat="49.46366" lon="5.70432">
        <ele>312.60000610352</ele>
        <time>2023-06-23T07:16:45Z</time>
      </trkpt>
      <trkpt lat="49.4636" lon="5.70438">
        <ele>312.60000610352</ele>
        <time>2023-06-23T07:16:47Z</time>
      </trkpt>
      <trkpt lat="49.46354" lon="5.70445">
        <ele>312.60000610352</ele>
        <time>2023-06-23T07:16:49Z</time>
      </trkpt>
      <trkpt lat="49.46348" lon="5.70453">
        <ele>312.60000610352</ele>
        <time>2023-06-23T07:16:51Z</time>
      </trkpt>
      <trkpt lat="49.46342" lon="5.70461">
        <ele>312.39999389648</ele>
        <time>2023-06-23T07:16:53Z</time>
      </trkpt>
      <trkpt lat="49.46336" lon="5.7047">
        <ele>312.39999389648</ele>
        <time>2023-06-23T07:16:55Z</time>
      </trkpt>
      <trkpt lat="49.46332" lon="5.70475">
        <ele>312.39999389648</ele>
        <time>2023-06-23T07:16:56Z</time>
      </trkpt>
      <trkpt lat="49.46329" lon="5.70479">
        <ele>312.39999389648</ele>
        <time>2023-06-23T07:16:57Z</time>
      </trkpt>
      <trkpt lat="49.46326" lon="5.70483">
        <ele>312.39999389648</ele>
        <time>2023-06-23T07:16:58Z</time>
      </trkpt>
      <trkpt lat="49.46322" lon="5.70488">
        <ele>312.20001220703</ele>
        <time>2023-06-23T07:16:59Z</time>
      </trkpt>
      <trkpt lat="49.46319" lon="5.70493">
        <ele>312.20001220703</ele>
        <time>2023-06-23T07:17:00Z</time>
      </trkpt>
      <trkpt lat="49.46316" lon="5.70499">
        <ele>312.20001220703</ele>
        <time>2023-06-23T07:17:01Z</time>
      </trkpt>
      <trkpt lat="49.4631" lon="5.7051">
        <ele>311.79998779297</ele>
        <time>2023-06-23T07:17:03Z</time>
      </trkpt>
      <trkpt lat="49.46303" lon="5.70521">
        <ele>311.60000610352</ele>
        <time>2023-06-23T07:17:05Z</time>
      </trkpt>
      <trkpt lat="49.46297" lon="5.70531">
        <ele>311.39999389648</ele>
        <time>2023-06-23T07:17:07Z</time>
      </trkpt>
      <trkpt lat="49.4629" lon="5.70541">
        <ele>311.20001220703</ele>
        <time>2023-06-23T07:17:09Z</time>
      </trkpt>
      <trkpt lat="49.46286" lon="5.70545">
        <ele>311</ele>
        <time>2023-06-23T07:17:10Z</time>
      </trkpt>
      <trkpt lat="49.46283" lon="5.7055">
        <ele>311</ele>
        <time>2023-06-23T07:17:11Z</time>
      </trkpt>
      <trkpt lat="49.46275" lon="5.70559">
        <ele>311</ele>
        <time>2023-06-23T07:17:13Z</time>
      </trkpt>
      <trkpt lat="49.46268" lon="5.70567">
        <ele>311</ele>
        <time>2023-06-23T07:17:15Z</time>
      </trkpt>
      <trkpt lat="49.46261" lon="5.70575">
        <ele>311</ele>
        <time>2023-06-23T07:17:17Z</time>
      </trkpt>
      <trkpt lat="49.46253" lon="5.70583">
        <ele>311</ele>
        <time>2023-06-23T07:17:19Z</time>
      </trkpt>
      <trkpt lat="49.46246" lon="5.7059">
        <ele>311</ele>
        <time>2023-06-23T07:17:21Z</time>
      </trkpt>
      <trkpt lat="49.46238" lon="5.70598">
        <ele>311.20001220703</ele>
        <time>2023-06-23T07:17:23Z</time>
      </trkpt>
      <trkpt lat="49.46231" lon="5.70605">
        <ele>311.39999389648</ele>
        <time>2023-06-23T07:17:25Z</time>
      </trkpt>
      <trkpt lat="49.46223" lon="5.70613">
        <ele>311.39999389648</ele>
        <time>2023-06-23T07:17:27Z</time>
      </trkpt>
      <trkpt lat="49.46215" lon="5.70621">
        <ele>311.60000610352</ele>
        <time>2023-06-23T07:17:29Z</time>
      </trkpt>
      <trkpt lat="49.46211" lon="5.70625">
        <ele>311.60000610352</ele>
        <time>2023-06-23T07:17:30Z</time>
      </trkpt>
      <trkpt lat="49.46207" lon="5.70629">
        <ele>311.60000610352</ele>
        <time>2023-06-23T07:17:31Z</time>
      </trkpt>
      <trkpt lat="49.46198" lon="5.70637">
        <ele>311.60000610352</ele>
        <time>2023-06-23T07:17:33Z</time>
      </trkpt>
      <trkpt lat="49.46189" lon="5.70646">
        <ele>311.60000610352</ele>
        <time>2023-06-23T07:17:35Z</time>
      </trkpt>
      <trkpt lat="49.46184" lon="5.70651">
        <ele>311.60000610352</ele>
        <time>2023-06-23T07:17:36Z</time>
      </trkpt>
      <trkpt lat="49.46179" lon="5.70656">
        <ele>311.60000610352</ele>
        <time>2023-06-23T07:17:37Z</time>
      </trkpt>
      <trkpt lat="49.46168" lon="5.70667">
        <ele>311.39999389648</ele>
        <time>2023-06-23T07:17:39Z</time>
      </trkpt>
      <trkpt lat="49.46156" lon="5.70678">
        <ele>311.20001220703</ele>
        <time>2023-06-23T07:17:41Z</time>
      </trkpt>
      <trkpt lat="49.4615" lon="5.70685">
        <ele>310.79998779297</ele>
        <time>2023-06-23T07:17:42Z</time>
      </trkpt>
      <trkpt lat="49.46143" lon="5.70691">
        <ele>310.60000610352</ele>
        <time>2023-06-23T07:17:43Z</time>
      </trkpt>
      <trkpt lat="49.46129" lon="5.70705">
        <ele>310</ele>
        <time>2023-06-23T07:17:45Z</time>
      </trkpt>
      <trkpt lat="49.46114" lon="5.70723">
        <ele>308.20001220703</ele>
        <time>2023-06-23T07:17:47Z</time>
      </trkpt>
      <trkpt lat="49.461" lon="5.70742">
        <ele>307</ele>
        <time>2023-06-23T07:17:49Z</time>
      </trkpt>
      <trkpt lat="49.46085" lon="5.70764">
        <ele>305.60000610352</ele>
        <time>2023-06-23T07:17:51Z</time>
      </trkpt>
      <trkpt lat="49.46078" lon="5.70776">
        <ele>305</ele>
        <time>2023-06-23T07:17:52Z</time>
      </trkpt>
      <trkpt lat="49.46071" lon="5.70786">
        <ele>304.20001220703</ele>
        <time>2023-06-23T07:17:53Z</time>
      </trkpt>
      <trkpt lat="49.46054" lon="5.70799">
        <ele>302.60000610352</ele>
        <time>2023-06-23T07:17:55Z</time>
      </trkpt>
      <trkpt lat="49.46046" lon="5.70799">
        <ele>301.39999389648</ele>
        <time>2023-06-23T07:17:56Z</time>
      </trkpt>
      <trkpt lat="49.46038" lon="5.70798">
        <ele>300.20001220703</ele>
        <time>2023-06-23T07:17:57Z</time>
      </trkpt>
      <trkpt lat="49.4603" lon="5.70796">
        <ele>299.20001220703</ele>
        <time>2023-06-23T07:17:58Z</time>
      </trkpt>
      <trkpt lat="49.46022" lon="5.70794">
        <ele>298.39999389648</ele>
        <time>2023-06-23T07:17:59Z</time>
      </trkpt>
      <trkpt lat="49.46014" lon="5.70793">
        <ele>298</ele>
        <time>2023-06-23T07:18:00Z</time>
      </trkpt>
      <trkpt lat="49.46007" lon="5.70792">
        <ele>297.79998779297</ele>
        <time>2023-06-23T07:18:01Z</time>
      </trkpt>
      <trkpt lat="49.45992" lon="5.7079">
        <ele>297.60000610352</ele>
        <time>2023-06-23T07:18:03Z</time>
      </trkpt>
      <trkpt lat="49.45986" lon="5.7079">
        <ele>297.60000610352</ele>
        <time>2023-06-23T07:18:04Z</time>
      </trkpt>
      <trkpt lat="49.45979" lon="5.7079">
        <ele>297.60000610352</ele>
        <time>2023-06-23T07:18:05Z</time>
      </trkpt>
      <trkpt lat="49.45968" lon="5.70791">
        <ele>297.60000610352</ele>
        <time>2023-06-23T07:18:07Z</time>
      </trkpt>
      <trkpt lat="49.45958" lon="5.70792">
        <ele>297.60000610352</ele>
        <time>2023-06-23T07:18:09Z</time>
      </trkpt>
      <trkpt lat="49.45949" lon="5.70794">
        <ele>298</ele>
        <time>2023-06-23T07:18:11Z</time>
      </trkpt>
      <trkpt lat="49.4594" lon="5.70797">
        <ele>299</ele>
        <time>2023-06-23T07:18:13Z</time>
      </trkpt>
      <trkpt lat="49.45932" lon="5.708">
        <ele>300.60000610352</ele>
        <time>2023-06-23T07:18:15Z</time>
      </trkpt>
      <trkpt lat="49.45928" lon="5.70803">
        <ele>301</ele>
        <time>2023-06-23T07:18:16Z</time>
      </trkpt>
      <trkpt lat="49.45924" lon="5.70806">
        <ele>301.39999389648</ele>
        <time>2023-06-23T07:18:17Z</time>
      </trkpt>
      <trkpt lat="49.45921" lon="5.70809">
        <ele>301.60000610352</ele>
        <time>2023-06-23T07:18:18Z</time>
      </trkpt>
      <trkpt lat="49.45917" lon="5.70813">
        <ele>301.79998779297</ele>
        <time>2023-06-23T07:18:19Z</time>
      </trkpt>
      <trkpt lat="49.45911" lon="5.70821">
        <ele>302.39999389648</ele>
        <time>2023-06-23T07:18:21Z</time>
      </trkpt>
      <trkpt lat="49.45906" lon="5.70831">
        <ele>302.79998779297</ele>
        <time>2023-06-23T07:18:23Z</time>
      </trkpt>
      <trkpt lat="49.45904" lon="5.70841">
        <ele>303.20001220703</ele>
        <time>2023-06-23T07:18:25Z</time>
      </trkpt>
      <trkpt lat="49.45903" lon="5.70847">
        <ele>303.39999389648</ele>
        <time>2023-06-23T07:18:26Z</time>
      </trkpt>
      <trkpt lat="49.45903" lon="5.70852">
        <ele>303.60000610352</ele>
        <time>2023-06-23T07:18:27Z</time>
      </trkpt>
      <trkpt lat="49.45903" lon="5.70858">
        <ele>303.79998779297</ele>
        <time>2023-06-23T07:18:28Z</time>
      </trkpt>
      <trkpt lat="49.45902" lon="5.70864">
        <ele>304</ele>
        <time>2023-06-23T07:18:29Z</time>
      </trkpt>
      <trkpt lat="49.459" lon="5.70875">
        <ele>304</ele>
        <time>2023-06-23T07:18:31Z</time>
      </trkpt>
      <trkpt lat="49.45898" lon="5.70881">
        <ele>304.20001220703</ele>
        <time>2023-06-23T07:18:32Z</time>
      </trkpt>
      <trkpt lat="49.45897" lon="5.70887">
        <ele>304.20001220703</ele>
        <time>2023-06-23T07:18:33Z</time>
      </trkpt>
      <trkpt lat="49.45893" lon="5.709">
        <ele>304.20001220703</ele>
        <time>2023-06-23T07:18:35Z</time>
      </trkpt>
      <trkpt lat="49.45889" lon="5.70914">
        <ele>304.20001220703</ele>
        <time>2023-06-23T07:18:37Z</time>
      </trkpt>
      <trkpt lat="49.45887" lon="5.70923">
        <ele>304.20001220703</ele>
        <time>2023-06-23T07:18:38Z</time>
      </trkpt>
      <trkpt lat="49.45885" lon="5.70932">
        <ele>304.20001220703</ele>
        <time>2023-06-23T07:18:39Z</time>
      </trkpt>
      <trkpt lat="49.45881" lon="5.7095">
        <ele>304.20001220703</ele>
        <time>2023-06-23T07:18:41Z</time>
      </trkpt>
      <trkpt lat="49.45878" lon="5.70967">
        <ele>303.79998779297</ele>
        <time>2023-06-23T07:18:43Z</time>
      </trkpt>
      <trkpt lat="49.45874" lon="5.70985">
        <ele>303</ele>
        <time>2023-06-23T07:18:45Z</time>
      </trkpt>
      <trkpt lat="49.45873" lon="5.70994">
        <ele>302.60000610352</ele>
        <time>2023-06-23T07:18:46Z</time>
      </trkpt>
      <trkpt lat="49.45872" lon="5.71003">
        <ele>302.39999389648</ele>
        <time>2023-06-23T07:18:47Z</time>
      </trkpt>
      <trkpt lat="49.45871" lon="5.71019">
        <ele>302.20001220703</ele>
        <time>2023-06-23T07:18:49Z</time>
      </trkpt>
      <trkpt lat="49.45871" lon="5.71026">
        <ele>302.20001220703</ele>
        <time>2023-06-23T07:18:50Z</time>
      </trkpt>
      <trkpt lat="49.45871" lon="5.71033">
        <ele>302.20001220703</ele>
        <time>2023-06-23T07:18:51Z</time>
      </trkpt>
      <trkpt lat="49.45871" lon="5.7104">
        <ele>302.20001220703</ele>
        <time>2023-06-23T07:18:52Z</time>
      </trkpt>
      <trkpt lat="49.45872" lon="5.71047">
        <ele>302.20001220703</ele>
        <time>2023-06-23T07:18:53Z</time>
      </trkpt>
      <trkpt lat="49.45872" lon="5.7106">
        <ele>302.20001220703</ele>
        <time>2023-06-23T07:18:55Z</time>
      </trkpt>
      <trkpt lat="49.45873" lon="5.71075">
        <ele>302.60000610352</ele>
        <time>2023-06-23T07:18:57Z</time>
      </trkpt>
      <trkpt lat="49.45873" lon="5.71089">
        <ele>303.39999389648</ele>
        <time>2023-06-23T07:18:59Z</time>
      </trkpt>
      <trkpt lat="49.45874" lon="5.71096">
        <ele>303.79998779297</ele>
        <time>2023-06-23T07:19:00Z</time>
      </trkpt>
      <trkpt lat="49.45874" lon="5.71102">
        <ele>304.20001220703</ele>
        <time>2023-06-23T07:19:01Z</time>
      </trkpt>
      <trkpt lat="49.45875" lon="5.71115">
        <ele>305</ele>
        <time>2023-06-23T07:19:03Z</time>
      </trkpt>
      <trkpt lat="49.45875" lon="5.71126">
        <ele>305.39999389648</ele>
        <time>2023-06-23T07:19:05Z</time>
      </trkpt>
      <trkpt lat="49.45875" lon="5.71138">
        <ele>306.20001220703</ele>
        <time>2023-06-23T07:19:07Z</time>
      </trkpt>
      <trkpt lat="49.45875" lon="5.71149">
        <ele>307</ele>
        <time>2023-06-23T07:19:09Z</time>
      </trkpt>
      <trkpt lat="49.45875" lon="5.71155">
        <ele>307.39999389648</ele>
        <time>2023-06-23T07:19:10Z</time>
      </trkpt>
      <trkpt lat="49.45875" lon="5.7116">
        <ele>307.79998779297</ele>
        <time>2023-06-23T07:19:11Z</time>
      </trkpt>
      <trkpt lat="49.45875" lon="5.71172">
        <ele>308.20001220703</ele>
        <time>2023-06-23T07:19:13Z</time>
      </trkpt>
      <trkpt lat="49.45875" lon="5.71178">
        <ele>308.39999389648</ele>
        <time>2023-06-23T07:19:14Z</time>
      </trkpt>
      <trkpt lat="49.45876" lon="5.71184">
        <ele>308.60000610352</ele>
        <time>2023-06-23T07:19:15Z</time>
      </trkpt>
      <trkpt lat="49.45876" lon="5.71197">
        <ele>309</ele>
        <time>2023-06-23T07:19:17Z</time>
      </trkpt>
      <trkpt lat="49.45877" lon="5.71209">
        <ele>309.39999389648</ele>
        <time>2023-06-23T07:19:19Z</time>
      </trkpt>
      <trkpt lat="49.45877" lon="5.71216">
        <ele>309.60000610352</ele>
        <time>2023-06-23T07:19:20Z</time>
      </trkpt>
      <trkpt lat="49.45877" lon="5.71222">
        <ele>309.60000610352</ele>
        <time>2023-06-23T07:19:21Z</time>
      </trkpt>
      <trkpt lat="49.45878" lon="5.71228">
        <ele>309.60000610352</ele>
        <time>2023-06-23T07:19:22Z</time>
      </trkpt>
      <trkpt lat="49.45878" lon="5.71235">
        <ele>309.60000610352</ele>
        <time>2023-06-23T07:19:23Z</time>
      </trkpt>
      <trkpt lat="49.45879" lon="5.71248">
        <ele>309.79998779297</ele>
        <time>2023-06-23T07:19:25Z</time>
      </trkpt>
      <trkpt lat="49.4588" lon="5.71261">
        <ele>309.79998779297</ele>
        <time>2023-06-23T07:19:27Z</time>
      </trkpt>
      <trkpt lat="49.45882" lon="5.71275">
        <ele>309.79998779297</ele>
        <time>2023-06-23T07:19:29Z</time>
      </trkpt>
      <trkpt lat="49.45883" lon="5.71288">
        <ele>309.79998779297</ele>
        <time>2023-06-23T07:19:31Z</time>
      </trkpt>
      <trkpt lat="49.45886" lon="5.71301">
        <ele>310</ele>
        <time>2023-06-23T07:19:33Z</time>
      </trkpt>
      <trkpt lat="49.45888" lon="5.71314">
        <ele>310</ele>
        <time>2023-06-23T07:19:35Z</time>
      </trkpt>
      <trkpt lat="49.45891" lon="5.71326">
        <ele>310.20001220703</ele>
        <time>2023-06-23T07:19:37Z</time>
      </trkpt>
      <trkpt lat="49.45893" lon="5.71332">
        <ele>310.20001220703</ele>
        <time>2023-06-23T07:19:38Z</time>
      </trkpt>
      <trkpt lat="49.45895" lon="5.71338">
        <ele>310.20001220703</ele>
        <time>2023-06-23T07:19:39Z</time>
      </trkpt>
      <trkpt lat="49.45899" lon="5.7135">
        <ele>310.39999389648</ele>
        <time>2023-06-23T07:19:41Z</time>
      </trkpt>
      <trkpt lat="49.45903" lon="5.71361">
        <ele>310.60000610352</ele>
        <time>2023-06-23T07:19:43Z</time>
      </trkpt>
      <trkpt lat="49.45907" lon="5.71372">
        <ele>310.79998779297</ele>
        <time>2023-06-23T07:19:45Z</time>
      </trkpt>
      <trkpt lat="49.45909" lon="5.71378">
        <ele>310.79998779297</ele>
        <time>2023-06-23T07:19:46Z</time>
      </trkpt>
      <trkpt lat="49.45911" lon="5.71383">
        <ele>311</ele>
        <time>2023-06-23T07:19:47Z</time>
      </trkpt>
      <trkpt lat="49.45916" lon="5.71393">
        <ele>311.20001220703</ele>
        <time>2023-06-23T07:19:49Z</time>
      </trkpt>
      <trkpt lat="49.4592" lon="5.71404">
        <ele>311.39999389648</ele>
        <time>2023-06-23T07:19:51Z</time>
      </trkpt>
      <trkpt lat="49.45925" lon="5.71414">
        <ele>311.60000610352</ele>
        <time>2023-06-23T07:19:53Z</time>
      </trkpt>
      <trkpt lat="49.45929" lon="5.71425">
        <ele>311.79998779297</ele>
        <time>2023-06-23T07:19:55Z</time>
      </trkpt>
      <trkpt lat="49.45933" lon="5.71435">
        <ele>312.20001220703</ele>
        <time>2023-06-23T07:19:57Z</time>
      </trkpt>
      <trkpt lat="49.45937" lon="5.71445">
        <ele>312.39999389648</ele>
        <time>2023-06-23T07:19:59Z</time>
      </trkpt>
      <trkpt lat="49.45939" lon="5.71451">
        <ele>312.39999389648</ele>
        <time>2023-06-23T07:20:00Z</time>
      </trkpt>
      <trkpt lat="49.4594" lon="5.71457">
        <ele>312.39999389648</ele>
        <time>2023-06-23T07:20:01Z</time>
      </trkpt>
      <trkpt lat="49.45943" lon="5.71468">
        <ele>312.60000610352</ele>
        <time>2023-06-23T07:20:03Z</time>
      </trkpt>
      <trkpt lat="49.45944" lon="5.7148">
        <ele>312.60000610352</ele>
        <time>2023-06-23T07:20:05Z</time>
      </trkpt>
      <trkpt lat="49.45945" lon="5.71494">
        <ele>312.60000610352</ele>
        <time>2023-06-23T07:20:07Z</time>
      </trkpt>
      <trkpt lat="49.45945" lon="5.71501">
        <ele>312.60000610352</ele>
        <time>2023-06-23T07:20:08Z</time>
      </trkpt>
      <trkpt lat="49.45946" lon="5.71509">
        <ele>312.60000610352</ele>
        <time>2023-06-23T07:20:09Z</time>
      </trkpt>
      <trkpt lat="49.45949" lon="5.71525">
        <ele>312.60000610352</ele>
        <time>2023-06-23T07:20:11Z</time>
      </trkpt>
      <trkpt lat="49.45956" lon="5.71539">
        <ele>312.60000610352</ele>
        <time>2023-06-23T07:20:13Z</time>
      </trkpt>
      <trkpt lat="49.45959" lon="5.71545">
        <ele>312.39999389648</ele>
        <time>2023-06-23T07:20:14Z</time>
      </trkpt>
      <trkpt lat="49.45962" lon="5.71551">
        <ele>312.20001220703</ele>
        <time>2023-06-23T07:20:15Z</time>
      </trkpt>
      <trkpt lat="49.45966" lon="5.71557">
        <ele>312.20001220703</ele>
        <time>2023-06-23T07:20:16Z</time>
      </trkpt>
      <trkpt lat="49.45969" lon="5.71563">
        <ele>312</ele>
        <time>2023-06-23T07:20:17Z</time>
      </trkpt>
      <trkpt lat="49.45977" lon="5.71574">
        <ele>312</ele>
        <time>2023-06-23T07:20:19Z</time>
      </trkpt>
      <trkpt lat="49.45984" lon="5.71585">
        <ele>312</ele>
        <time>2023-06-23T07:20:21Z</time>
      </trkpt>
      <trkpt lat="49.45991" lon="5.71596">
        <ele>312</ele>
        <time>2023-06-23T07:20:23Z</time>
      </trkpt>
      <trkpt lat="49.45994" lon="5.71601">
        <ele>312</ele>
        <time>2023-06-23T07:20:24Z</time>
      </trkpt>
      <trkpt lat="49.45998" lon="5.71606">
        <ele>312</ele>
        <time>2023-06-23T07:20:25Z</time>
      </trkpt>
      <trkpt lat="49.46005" lon="5.71617">
        <ele>312.20001220703</ele>
        <time>2023-06-23T07:20:27Z</time>
      </trkpt>
      <trkpt lat="49.46012" lon="5.71628">
        <ele>312.39999389648</ele>
        <time>2023-06-23T07:20:29Z</time>
      </trkpt>
      <trkpt lat="49.46019" lon="5.71638">
        <ele>312.60000610352</ele>
        <time>2023-06-23T07:20:31Z</time>
      </trkpt>
      <trkpt lat="49.46026" lon="5.71649">
        <ele>312.60000610352</ele>
        <time>2023-06-23T07:20:33Z</time>
      </trkpt>
      <trkpt lat="49.46033" lon="5.7166">
        <ele>312.60000610352</ele>
        <time>2023-06-23T07:20:35Z</time>
      </trkpt>
      <trkpt lat="49.4604" lon="5.71671">
        <ele>313</ele>
        <time>2023-06-23T07:20:37Z</time>
      </trkpt>
      <trkpt lat="49.46047" lon="5.71682">
        <ele>313.20001220703</ele>
        <time>2023-06-23T07:20:39Z</time>
      </trkpt>
      <trkpt lat="49.46054" lon="5.71693">
        <ele>313.39999389648</ele>
        <time>2023-06-23T07:20:41Z</time>
      </trkpt>
      <trkpt lat="49.46057" lon="5.71699">
        <ele>313.39999389648</ele>
        <time>2023-06-23T07:20:42Z</time>
      </trkpt>
      <trkpt lat="49.46061" lon="5.71705">
        <ele>313.39999389648</ele>
        <time>2023-06-23T07:20:43Z</time>
      </trkpt>
      <trkpt lat="49.46065" lon="5.71711">
        <ele>313.60000610352</ele>
        <time>2023-06-23T07:20:44Z</time>
      </trkpt>
      <trkpt lat="49.46068" lon="5.71717">
        <ele>313.60000610352</ele>
        <time>2023-06-23T07:20:45Z</time>
      </trkpt>
      <trkpt lat="49.46076" lon="5.71728">
        <ele>313.60000610352</ele>
        <time>2023-06-23T07:20:47Z</time>
      </trkpt>
      <trkpt lat="49.46083" lon="5.7174">
        <ele>313.79998779297</ele>
        <time>2023-06-23T07:20:49Z</time>
      </trkpt>
      <trkpt lat="49.4609" lon="5.71751">
        <ele>314.20001220703</ele>
        <time>2023-06-23T07:20:51Z</time>
      </trkpt>
      <trkpt lat="49.46097" lon="5.71762">
        <ele>314.20001220703</ele>
        <time>2023-06-23T07:20:53Z</time>
      </trkpt>
      <trkpt lat="49.46104" lon="5.71773">
        <ele>314.39999389648</ele>
        <time>2023-06-23T07:20:55Z</time>
      </trkpt>
      <trkpt lat="49.46108" lon="5.71779">
        <ele>314.60000610352</ele>
        <time>2023-06-23T07:20:56Z</time>
      </trkpt>
      <trkpt lat="49.46111" lon="5.71784">
        <ele>314.60000610352</ele>
        <time>2023-06-23T07:20:57Z</time>
      </trkpt>
      <trkpt lat="49.46119" lon="5.71796">
        <ele>314.79998779297</ele>
        <time>2023-06-23T07:20:59Z</time>
      </trkpt>
      <trkpt lat="49.46126" lon="5.71808">
        <ele>315</ele>
        <time>2023-06-23T07:21:01Z</time>
      </trkpt>
      <trkpt lat="49.46135" lon="5.71822">
        <ele>315</ele>
        <time>2023-06-23T07:21:03Z</time>
      </trkpt>
      <trkpt lat="49.4614" lon="5.7183">
        <ele>315.60000610352</ele>
        <time>2023-06-23T07:21:04Z</time>
      </trkpt>
      <trkpt lat="49.46144" lon="5.71837">
        <ele>316</ele>
        <time>2023-06-23T07:21:05Z</time>
      </trkpt>
      <trkpt lat="49.46154" lon="5.7185">
        <ele>316.39999389648</ele>
        <time>2023-06-23T07:21:07Z</time>
      </trkpt>
      <trkpt lat="49.46163" lon="5.71862">
        <ele>316.60000610352</ele>
        <time>2023-06-23T07:21:09Z</time>
      </trkpt>
      <trkpt lat="49.4617" lon="5.71876">
        <ele>316.79998779297</ele>
        <time>2023-06-23T07:21:11Z</time>
      </trkpt>
      <trkpt lat="49.46174" lon="5.71883">
        <ele>317</ele>
        <time>2023-06-23T07:21:12Z</time>
      </trkpt>
      <trkpt lat="49.46178" lon="5.7189">
        <ele>317</ele>
        <time>2023-06-23T07:21:13Z</time>
      </trkpt>
      <trkpt lat="49.46186" lon="5.71903">
        <ele>317.39999389648</ele>
        <time>2023-06-23T07:21:15Z</time>
      </trkpt>
      <trkpt lat="49.4619" lon="5.71909">
        <ele>317.79998779297</ele>
        <time>2023-06-23T07:21:16Z</time>
      </trkpt>
      <trkpt lat="49.46194" lon="5.71915">
        <ele>318</ele>
        <time>2023-06-23T07:21:17Z</time>
      </trkpt>
      <trkpt lat="49.46201" lon="5.71926">
        <ele>318.60000610352</ele>
        <time>2023-06-23T07:21:19Z</time>
      </trkpt>
      <trkpt lat="49.46205" lon="5.71933">
        <ele>319</ele>
        <time>2023-06-23T07:21:20Z</time>
      </trkpt>
      <trkpt lat="49.46209" lon="5.71939">
        <ele>319.39999389648</ele>
        <time>2023-06-23T07:21:21Z</time>
      </trkpt>
      <trkpt lat="49.46217" lon="5.71951">
        <ele>319.79998779297</ele>
        <time>2023-06-23T07:21:23Z</time>
      </trkpt>
      <trkpt lat="49.4622" lon="5.71957">
        <ele>320</ele>
        <time>2023-06-23T07:21:24Z</time>
      </trkpt>
      <trkpt lat="49.46224" lon="5.71963">
        <ele>320.20001220703</ele>
        <time>2023-06-23T07:21:25Z</time>
      </trkpt>
      <trkpt lat="49.46231" lon="5.71975">
        <ele>320.79998779297</ele>
        <time>2023-06-23T07:21:27Z</time>
      </trkpt>
      <trkpt lat="49.46238" lon="5.71986">
        <ele>321.39999389648</ele>
        <time>2023-06-23T07:21:29Z</time>
      </trkpt>
      <trkpt lat="49.46245" lon="5.71998">
        <ele>321.60000610352</ele>
        <time>2023-06-23T07:21:31Z</time>
      </trkpt>
      <trkpt lat="49.46252" lon="5.72009">
        <ele>322.20001220703</ele>
        <time>2023-06-23T07:21:33Z</time>
      </trkpt>
      <trkpt lat="49.46255" lon="5.72014">
        <ele>322.79998779297</ele>
        <time>2023-06-23T07:21:34Z</time>
      </trkpt>
      <trkpt lat="49.46259" lon="5.7202">
        <ele>323</ele>
        <time>2023-06-23T07:21:35Z</time>
      </trkpt>
      <trkpt lat="49.46266" lon="5.72031">
        <ele>323.60000610352</ele>
        <time>2023-06-23T07:21:37Z</time>
      </trkpt>
      <trkpt lat="49.46269" lon="5.72036">
        <ele>324</ele>
        <time>2023-06-23T07:21:38Z</time>
      </trkpt>
      <trkpt lat="49.46272" lon="5.72041">
        <ele>324.39999389648</ele>
        <time>2023-06-23T07:21:39Z</time>
      </trkpt>
      <trkpt lat="49.46276" lon="5.72047">
        <ele>324.79998779297</ele>
        <time>2023-06-23T07:21:40Z</time>
      </trkpt>
      <trkpt lat="49.46279" lon="5.72052">
        <ele>325</ele>
        <time>2023-06-23T07:21:41Z</time>
      </trkpt>
      <trkpt lat="49.46286" lon="5.72063">
        <ele>325.20001220703</ele>
        <time>2023-06-23T07:21:43Z</time>
      </trkpt>
      <trkpt lat="49.46293" lon="5.72074">
        <ele>325.20001220703</ele>
        <time>2023-06-23T07:21:45Z</time>
      </trkpt>
      <trkpt lat="49.46299" lon="5.72085">
        <ele>325.39999389648</ele>
        <time>2023-06-23T07:21:47Z</time>
      </trkpt>
      <trkpt lat="49.46306" lon="5.72096">
        <ele>325.60000610352</ele>
        <time>2023-06-23T07:21:49Z</time>
      </trkpt>
      <trkpt lat="49.46312" lon="5.72107">
        <ele>325.79998779297</ele>
        <time>2023-06-23T07:21:51Z</time>
      </trkpt>
      <trkpt lat="49.46319" lon="5.72119">
        <ele>326</ele>
        <time>2023-06-23T07:21:53Z</time>
      </trkpt>
      <trkpt lat="49.46326" lon="5.72131">
        <ele>326.39999389648</ele>
        <time>2023-06-23T07:21:55Z</time>
      </trkpt>
      <trkpt lat="49.46332" lon="5.72144">
        <ele>326.79998779297</ele>
        <time>2023-06-23T07:21:57Z</time>
      </trkpt>
      <trkpt lat="49.46335" lon="5.7215">
        <ele>326.79998779297</ele>
        <time>2023-06-23T07:21:58Z</time>
      </trkpt>
      <trkpt lat="49.46337" lon="5.72156">
        <ele>327</ele>
        <time>2023-06-23T07:21:59Z</time>
      </trkpt>
      <trkpt lat="49.4634" lon="5.72162">
        <ele>327</ele>
        <time>2023-06-23T07:22:00Z</time>
      </trkpt>
      <trkpt lat="49.46343" lon="5.72169">
        <ele>327.20001220703</ele>
        <time>2023-06-23T07:22:01Z</time>
      </trkpt>
      <trkpt lat="49.46348" lon="5.72181">
        <ele>327.39999389648</ele>
        <time>2023-06-23T07:22:03Z</time>
      </trkpt>
      <trkpt lat="49.46352" lon="5.72193">
        <ele>328.20001220703</ele>
        <time>2023-06-23T07:22:05Z</time>
      </trkpt>
      <trkpt lat="49.46354" lon="5.72199">
        <ele>328.39999389648</ele>
        <time>2023-06-23T07:22:06Z</time>
      </trkpt>
      <trkpt lat="49.46354" lon="5.72205">
        <ele>328.60000610352</ele>
        <time>2023-06-23T07:22:07Z</time>
      </trkpt>
      <trkpt lat="49.46349" lon="5.72215">
        <ele>328.79998779297</ele>
        <time>2023-06-23T07:22:09Z</time>
      </trkpt>
      <trkpt lat="49.46346" lon="5.72218">
        <ele>328.79998779297</ele>
        <time>2023-06-23T07:22:10Z</time>
      </trkpt>
      <trkpt lat="49.46342" lon="5.72221">
        <ele>328.79998779297</ele>
        <time>2023-06-23T07:22:11Z</time>
      </trkpt>
      <trkpt lat="49.46337" lon="5.72223">
        <ele>329</ele>
        <time>2023-06-23T07:22:12Z</time>
      </trkpt>
      <trkpt lat="49.46333" lon="5.72225">
        <ele>329</ele>
        <time>2023-06-23T07:22:13Z</time>
      </trkpt>
      <trkpt lat="49.46323" lon="5.7223">
        <ele>329</ele>
        <time>2023-06-23T07:22:15Z</time>
      </trkpt>
      <trkpt lat="49.46313" lon="5.72235">
        <ele>329.20001220703</ele>
        <time>2023-06-23T07:22:17Z</time>
      </trkpt>
      <trkpt lat="49.46303" lon="5.7224">
        <ele>329.20001220703</ele>
        <time>2023-06-23T07:22:19Z</time>
      </trkpt>
      <trkpt lat="49.46293" lon="5.72246">
        <ele>329.20001220703</ele>
        <time>2023-06-23T07:22:21Z</time>
      </trkpt>
      <trkpt lat="49.46288" lon="5.72249">
        <ele>329</ele>
        <time>2023-06-23T07:22:22Z</time>
      </trkpt>
      <trkpt lat="49.46284" lon="5.72251">
        <ele>328.79998779297</ele>
        <time>2023-06-23T07:22:23Z</time>
      </trkpt>
      <trkpt lat="49.46275" lon="5.72256">
        <ele>328.79998779297</ele>
        <time>2023-06-23T07:22:25Z</time>
      </trkpt>
      <trkpt lat="49.46266" lon="5.7226">
        <ele>328.79998779297</ele>
        <time>2023-06-23T07:22:27Z</time>
      </trkpt>
      <trkpt lat="49.46258" lon="5.72264">
        <ele>328.79998779297</ele>
        <time>2023-06-23T07:22:29Z</time>
      </trkpt>
      <trkpt lat="49.46249" lon="5.72269">
        <ele>328.79998779297</ele>
        <time>2023-06-23T07:22:31Z</time>
      </trkpt>
      <trkpt lat="49.4624" lon="5.72274">
        <ele>329</ele>
        <time>2023-06-23T07:22:33Z</time>
      </trkpt>
      <trkpt lat="49.46236" lon="5.72277">
        <ele>329.20001220703</ele>
        <time>2023-06-23T07:22:34Z</time>
      </trkpt>
      <trkpt lat="49.46232" lon="5.72279">
        <ele>329.20001220703</ele>
        <time>2023-06-23T07:22:35Z</time>
      </trkpt>
      <trkpt lat="49.46227" lon="5.72282">
        <ele>329.20001220703</ele>
        <time>2023-06-23T07:22:36Z</time>
      </trkpt>
      <trkpt lat="49.46222" lon="5.72284">
        <ele>329.20001220703</ele>
        <time>2023-06-23T07:22:37Z</time>
      </trkpt>
      <trkpt lat="49.46212" lon="5.7229">
        <ele>329.20001220703</ele>
        <time>2023-06-23T07:22:39Z</time>
      </trkpt>
      <trkpt lat="49.46201" lon="5.72297">
        <ele>329.20001220703</ele>
        <time>2023-06-23T07:22:41Z</time>
      </trkpt>
      <trkpt lat="49.46195" lon="5.723">
        <ele>329.20001220703</ele>
        <time>2023-06-23T07:22:42Z</time>
      </trkpt>
      <trkpt lat="49.46189" lon="5.72304">
        <ele>329.20001220703</ele>
        <time>2023-06-23T07:22:43Z</time>
      </trkpt>
      <trkpt lat="49.46177" lon="5.72313">
        <ele>329.20001220703</ele>
        <time>2023-06-23T07:22:45Z</time>
      </trkpt>
      <trkpt lat="49.46163" lon="5.72322">
        <ele>328.79998779297</ele>
        <time>2023-06-23T07:22:47Z</time>
      </trkpt>
      <trkpt lat="49.46148" lon="5.72325">
        <ele>328</ele>
        <time>2023-06-23T07:22:49Z</time>
      </trkpt>
      <trkpt lat="49.46139" lon="5.72325">
        <ele>327.60000610352</ele>
        <time>2023-06-23T07:22:50Z</time>
      </trkpt>
      <trkpt lat="49.4613" lon="5.72327">
        <ele>327.20001220703</ele>
        <time>2023-06-23T07:22:51Z</time>
      </trkpt>
      <trkpt lat="49.46121" lon="5.72331">
        <ele>326.79998779297</ele>
        <time>2023-06-23T07:22:52Z</time>
      </trkpt>
      <trkpt lat="49.46112" lon="5.72334">
        <ele>326.39999389648</ele>
        <time>2023-06-23T07:22:53Z</time>
      </trkpt>
      <trkpt lat="49.46103" lon="5.72339">
        <ele>326</ele>
        <time>2023-06-23T07:22:54Z</time>
      </trkpt>
      <trkpt lat="49.46094" lon="5.72343">
        <ele>325.39999389648</ele>
        <time>2023-06-23T07:22:55Z</time>
      </trkpt>
      <trkpt lat="49.46076" lon="5.72352">
        <ele>322.60000610352</ele>
        <time>2023-06-23T07:22:57Z</time>
      </trkpt>
      <trkpt lat="49.46068" lon="5.72356">
        <ele>321.20001220703</ele>
        <time>2023-06-23T07:22:58Z</time>
      </trkpt>
      <trkpt lat="49.46059" lon="5.7236">
        <ele>320.39999389648</ele>
        <time>2023-06-23T07:22:59Z</time>
      </trkpt>
      <trkpt lat="49.46051" lon="5.72363">
        <ele>319.60000610352</ele>
        <time>2023-06-23T07:23:00Z</time>
      </trkpt>
      <trkpt lat="49.46043" lon="5.72366">
        <ele>318.79998779297</ele>
        <time>2023-06-23T07:23:01Z</time>
      </trkpt>
      <trkpt lat="49.46035" lon="5.72368">
        <ele>318.20001220703</ele>
        <time>2023-06-23T07:23:02Z</time>
      </trkpt>
      <trkpt lat="49.46028" lon="5.72371">
        <ele>317.79998779297</ele>
        <time>2023-06-23T07:23:03Z</time>
      </trkpt>
      <trkpt lat="49.46014" lon="5.72376">
        <ele>317.60000610352</ele>
        <time>2023-06-23T07:23:05Z</time>
      </trkpt>
      <trkpt lat="49.46007" lon="5.72379">
        <ele>317.60000610352</ele>
        <time>2023-06-23T07:23:06Z</time>
      </trkpt>
      <trkpt lat="49.46001" lon="5.72382">
        <ele>317.60000610352</ele>
        <time>2023-06-23T07:23:07Z</time>
      </trkpt>
      <trkpt lat="49.45989" lon="5.72387">
        <ele>317.60000610352</ele>
        <time>2023-06-23T07:23:09Z</time>
      </trkpt>
      <trkpt lat="49.45978" lon="5.72392">
        <ele>317.60000610352</ele>
        <time>2023-06-23T07:23:11Z</time>
      </trkpt>
      <trkpt lat="49.45974" lon="5.72394">
        <ele>317.60000610352</ele>
        <time>2023-06-23T07:23:12Z</time>
      </trkpt>
      <trkpt lat="49.45969" lon="5.72396">
        <ele>317.60000610352</ele>
        <time>2023-06-23T07:23:13Z</time>
      </trkpt>
      <trkpt lat="49.45962" lon="5.72399">
        <ele>318</ele>
        <time>2023-06-23T07:23:15Z</time>
      </trkpt>
      <trkpt lat="49.45955" lon="5.72404">
        <ele>318.20001220703</ele>
        <time>2023-06-23T07:23:17Z</time>
      </trkpt>
      <trkpt lat="49.45948" lon="5.72408">
        <ele>318.79998779297</ele>
        <time>2023-06-23T07:23:19Z</time>
      </trkpt>
      <trkpt lat="49.45944" lon="5.7241">
        <ele>319.20001220703</ele>
        <time>2023-06-23T07:23:20Z</time>
      </trkpt>
      <trkpt lat="49.45941" lon="5.72412">
        <ele>319.60000610352</ele>
        <time>2023-06-23T07:23:21Z</time>
      </trkpt>
      <trkpt lat="49.45934" lon="5.72417">
        <ele>321</ele>
        <time>2023-06-23T07:23:23Z</time>
      </trkpt>
      <trkpt lat="49.45928" lon="5.72421">
        <ele>321.79998779297</ele>
        <time>2023-06-23T07:23:25Z</time>
      </trkpt>
      <trkpt lat="49.45924" lon="5.72423">
        <ele>322.39999389648</ele>
        <time>2023-06-23T07:23:26Z</time>
      </trkpt>
      <trkpt lat="49.45921" lon="5.72425">
        <ele>322.79998779297</ele>
        <time>2023-06-23T07:23:27Z</time>
      </trkpt>
      <trkpt lat="49.45915" lon="5.72429">
        <ele>323.39999389648</ele>
        <time>2023-06-23T07:23:29Z</time>
      </trkpt>
      <trkpt lat="49.45911" lon="5.72432">
        <ele>323.79998779297</ele>
        <time>2023-06-23T07:23:30Z</time>
      </trkpt>
      <trkpt lat="49.45908" lon="5.72434">
        <ele>324.20001220703</ele>
        <time>2023-06-23T07:23:31Z</time>
      </trkpt>
      <trkpt lat="49.45901" lon="5.72438">
        <ele>324.79998779297</ele>
        <time>2023-06-23T07:23:33Z</time>
      </trkpt>
      <trkpt lat="49.45898" lon="5.72441">
        <ele>325.20001220703</ele>
        <time>2023-06-23T07:23:34Z</time>
      </trkpt>
      <trkpt lat="49.45894" lon="5.72443">
        <ele>325.39999389648</ele>
        <time>2023-06-23T07:23:35Z</time>
      </trkpt>
      <trkpt lat="49.45888" lon="5.72448">
        <ele>325.60000610352</ele>
        <time>2023-06-23T07:23:37Z</time>
      </trkpt>
      <trkpt lat="49.45881" lon="5.72452">
        <ele>326</ele>
        <time>2023-06-23T07:23:39Z</time>
      </trkpt>
      <trkpt lat="49.45878" lon="5.72454">
        <ele>326.20001220703</ele>
        <time>2023-06-23T07:23:40Z</time>
      </trkpt>
      <trkpt lat="49.45875" lon="5.72457">
        <ele>326.39999389648</ele>
        <time>2023-06-23T07:23:41Z</time>
      </trkpt>
      <trkpt lat="49.45868" lon="5.72462">
        <ele>326.60000610352</ele>
        <time>2023-06-23T07:23:43Z</time>
      </trkpt>
      <trkpt lat="49.45864" lon="5.72465">
        <ele>326.79998779297</ele>
        <time>2023-06-23T07:23:44Z</time>
      </trkpt>
      <trkpt lat="49.45861" lon="5.72467">
        <ele>327</ele>
        <time>2023-06-23T07:23:45Z</time>
      </trkpt>
      <trkpt lat="49.45858" lon="5.72471">
        <ele>327.20001220703</ele>
        <time>2023-06-23T07:23:46Z</time>
      </trkpt>
      <trkpt lat="49.45854" lon="5.72474">
        <ele>327.20001220703</ele>
        <time>2023-06-23T07:23:47Z</time>
      </trkpt>
      <trkpt lat="49.45847" lon="5.7248">
        <ele>327.39999389648</ele>
        <time>2023-06-23T07:23:49Z</time>
      </trkpt>
      <trkpt lat="49.4584" lon="5.72486">
        <ele>327.79998779297</ele>
        <time>2023-06-23T07:23:51Z</time>
      </trkpt>
      <trkpt lat="49.45832" lon="5.72492">
        <ele>327.79998779297</ele>
        <time>2023-06-23T07:23:53Z</time>
      </trkpt>
      <trkpt lat="49.45824" lon="5.72499">
        <ele>327.79998779297</ele>
        <time>2023-06-23T07:23:55Z</time>
      </trkpt>
      <trkpt lat="49.45815" lon="5.72506">
        <ele>327.79998779297</ele>
        <time>2023-06-23T07:23:57Z</time>
      </trkpt>
      <trkpt lat="49.45806" lon="5.72514">
        <ele>327.79998779297</ele>
        <time>2023-06-23T07:23:59Z</time>
      </trkpt>
      <trkpt lat="49.45797" lon="5.72521">
        <ele>327.79998779297</ele>
        <time>2023-06-23T07:24:01Z</time>
      </trkpt>
      <trkpt lat="49.45793" lon="5.72524">
        <ele>327.79998779297</ele>
        <time>2023-06-23T07:24:02Z</time>
      </trkpt>
      <trkpt lat="49.45788" lon="5.72527">
        <ele>327.79998779297</ele>
        <time>2023-06-23T07:24:03Z</time>
      </trkpt>
      <trkpt lat="49.45779" lon="5.72533">
        <ele>327.60000610352</ele>
        <time>2023-06-23T07:24:05Z</time>
      </trkpt>
      <trkpt lat="49.4577" lon="5.7254">
        <ele>327.60000610352</ele>
        <time>2023-06-23T07:24:07Z</time>
      </trkpt>
      <trkpt lat="49.45761" lon="5.72547">
        <ele>327.60000610352</ele>
        <time>2023-06-23T07:24:09Z</time>
      </trkpt>
      <trkpt lat="49.45757" lon="5.7255">
        <ele>327.60000610352</ele>
        <time>2023-06-23T07:24:10Z</time>
      </trkpt>
      <trkpt lat="49.45752" lon="5.72554">
        <ele>327.60000610352</ele>
        <time>2023-06-23T07:24:11Z</time>
      </trkpt>
      <trkpt lat="49.45745" lon="5.72563">
        <ele>327.60000610352</ele>
        <time>2023-06-23T07:24:13Z</time>
      </trkpt>
      <trkpt lat="49.45737" lon="5.72571">
        <ele>327.60000610352</ele>
        <time>2023-06-23T07:24:15Z</time>
      </trkpt>
      <trkpt lat="49.45734" lon="5.72575">
        <ele>327.60000610352</ele>
        <time>2023-06-23T07:24:16Z</time>
      </trkpt>
      <trkpt lat="49.45731" lon="5.7258">
        <ele>327.60000610352</ele>
        <time>2023-06-23T07:24:17Z</time>
      </trkpt>
      <trkpt lat="49.45725" lon="5.72588">
        <ele>327.79998779297</ele>
        <time>2023-06-23T07:24:19Z</time>
      </trkpt>
      <trkpt lat="49.45718" lon="5.72596">
        <ele>328</ele>
        <time>2023-06-23T07:24:21Z</time>
      </trkpt>
      <trkpt lat="49.45715" lon="5.72601">
        <ele>328.39999389648</ele>
        <time>2023-06-23T07:24:22Z</time>
      </trkpt>
      <trkpt lat="49.45711" lon="5.72605">
        <ele>328.60000610352</ele>
        <time>2023-06-23T07:24:23Z</time>
      </trkpt>
      <trkpt lat="49.45708" lon="5.72609">
        <ele>328.79998779297</ele>
        <time>2023-06-23T07:24:24Z</time>
      </trkpt>
      <trkpt lat="49.45704" lon="5.72613">
        <ele>329.20001220703</ele>
        <time>2023-06-23T07:24:25Z</time>
      </trkpt>
      <trkpt lat="49.45696" lon="5.72622">
        <ele>329.20001220703</ele>
        <time>2023-06-23T07:24:27Z</time>
      </trkpt>
      <trkpt lat="49.45689" lon="5.7263">
        <ele>329.39999389648</ele>
        <time>2023-06-23T07:24:29Z</time>
      </trkpt>
      <trkpt lat="49.45681" lon="5.72638">
        <ele>329.39999389648</ele>
        <time>2023-06-23T07:24:31Z</time>
      </trkpt>
      <trkpt lat="49.45673" lon="5.72647">
        <ele>329.39999389648</ele>
        <time>2023-06-23T07:24:33Z</time>
      </trkpt>
      <trkpt lat="49.45666" lon="5.72655">
        <ele>329.60000610352</ele>
        <time>2023-06-23T07:24:35Z</time>
      </trkpt>
      <trkpt lat="49.45658" lon="5.72664">
        <ele>329.60000610352</ele>
        <time>2023-06-23T07:24:37Z</time>
      </trkpt>
      <trkpt lat="49.45649" lon="5.72672">
        <ele>329.39999389648</ele>
        <time>2023-06-23T07:24:39Z</time>
      </trkpt>
      <trkpt lat="49.45641" lon="5.72681">
        <ele>329.20001220703</ele>
        <time>2023-06-23T07:24:41Z</time>
      </trkpt>
      <trkpt lat="49.45634" lon="5.72689">
        <ele>329.20001220703</ele>
        <time>2023-06-23T07:24:43Z</time>
      </trkpt>
      <trkpt lat="49.45626" lon="5.72697">
        <ele>329.20001220703</ele>
        <time>2023-06-23T07:24:45Z</time>
      </trkpt>
      <trkpt lat="49.45618" lon="5.72705">
        <ele>329.20001220703</ele>
        <time>2023-06-23T07:24:47Z</time>
      </trkpt>
      <trkpt lat="49.45611" lon="5.72712">
        <ele>329</ele>
        <time>2023-06-23T07:24:49Z</time>
      </trkpt>
      <trkpt lat="49.45604" lon="5.7272">
        <ele>329</ele>
        <time>2023-06-23T07:24:51Z</time>
      </trkpt>
      <trkpt lat="49.45597" lon="5.72727">
        <ele>329</ele>
        <time>2023-06-23T07:24:53Z</time>
      </trkpt>
      <trkpt lat="49.45593" lon="5.72731">
        <ele>329</ele>
        <time>2023-06-23T07:24:54Z</time>
      </trkpt>
      <trkpt lat="49.45589" lon="5.72735">
        <ele>329</ele>
        <time>2023-06-23T07:24:55Z</time>
      </trkpt>
      <trkpt lat="49.45582" lon="5.72743">
        <ele>329</ele>
        <time>2023-06-23T07:24:57Z</time>
      </trkpt>
      <trkpt lat="49.45574" lon="5.72751">
        <ele>329</ele>
        <time>2023-06-23T07:24:59Z</time>
      </trkpt>
      <trkpt lat="49.45566" lon="5.72759">
        <ele>329</ele>
        <time>2023-06-23T07:25:01Z</time>
      </trkpt>
      <trkpt lat="49.45559" lon="5.72767">
        <ele>329</ele>
        <time>2023-06-23T07:25:03Z</time>
      </trkpt>
      <trkpt lat="49.45551" lon="5.72776">
        <ele>329</ele>
        <time>2023-06-23T07:25:05Z</time>
      </trkpt>
      <trkpt lat="49.45543" lon="5.72784">
        <ele>329</ele>
        <time>2023-06-23T07:25:07Z</time>
      </trkpt>
      <trkpt lat="49.45535" lon="5.72792">
        <ele>329</ele>
        <time>2023-06-23T07:25:09Z</time>
      </trkpt>
      <trkpt lat="49.45527" lon="5.72801">
        <ele>328.79998779297</ele>
        <time>2023-06-23T07:25:11Z</time>
      </trkpt>
      <trkpt lat="49.45519" lon="5.7281">
        <ele>328.79998779297</ele>
        <time>2023-06-23T07:25:13Z</time>
      </trkpt>
      <trkpt lat="49.45515" lon="5.72815">
        <ele>328.79998779297</ele>
        <time>2023-06-23T07:25:14Z</time>
      </trkpt>
      <trkpt lat="49.45512" lon="5.7282">
        <ele>328.79998779297</ele>
        <time>2023-06-23T07:25:15Z</time>
      </trkpt>
      <trkpt lat="49.45509" lon="5.72826">
        <ele>328.79998779297</ele>
        <time>2023-06-23T07:25:16Z</time>
      </trkpt>
      <trkpt lat="49.45506" lon="5.72832">
        <ele>328.79998779297</ele>
        <time>2023-06-23T07:25:17Z</time>
      </trkpt>
      <trkpt lat="49.45499" lon="5.72842">
        <ele>328.60000610352</ele>
        <time>2023-06-23T07:25:19Z</time>
      </trkpt>
      <trkpt lat="49.45492" lon="5.72852">
        <ele>328.39999389648</ele>
        <time>2023-06-23T07:25:21Z</time>
      </trkpt>
      <trkpt lat="49.45485" lon="5.72863">
        <ele>328.20001220703</ele>
        <time>2023-06-23T07:25:23Z</time>
      </trkpt>
      <trkpt lat="49.45479" lon="5.72874">
        <ele>328.20001220703</ele>
        <time>2023-06-23T07:25:25Z</time>
      </trkpt>
      <trkpt lat="49.45472" lon="5.72883">
        <ele>328.20001220703</ele>
        <time>2023-06-23T07:25:27Z</time>
      </trkpt>
      <trkpt lat="49.45466" lon="5.72893">
        <ele>328</ele>
        <time>2023-06-23T07:25:29Z</time>
      </trkpt>
      <trkpt lat="49.45459" lon="5.72903">
        <ele>328</ele>
        <time>2023-06-23T07:25:31Z</time>
      </trkpt>
      <trkpt lat="49.45453" lon="5.72912">
        <ele>328.20001220703</ele>
        <time>2023-06-23T07:25:33Z</time>
      </trkpt>
      <trkpt lat="49.45447" lon="5.72921">
        <ele>328.20001220703</ele>
        <time>2023-06-23T07:25:35Z</time>
      </trkpt>
      <trkpt lat="49.45444" lon="5.72926">
        <ele>328.20001220703</ele>
        <time>2023-06-23T07:25:36Z</time>
      </trkpt>
      <trkpt lat="49.4544" lon="5.72931">
        <ele>328</ele>
        <time>2023-06-23T07:25:37Z</time>
      </trkpt>
      <trkpt lat="49.45433" lon="5.72941">
        <ele>328</ele>
        <time>2023-06-23T07:25:39Z</time>
      </trkpt>
      <trkpt lat="49.45426" lon="5.72951">
        <ele>328</ele>
        <time>2023-06-23T07:25:41Z</time>
      </trkpt>
      <trkpt lat="49.45419" lon="5.72962">
        <ele>328</ele>
        <time>2023-06-23T07:25:43Z</time>
      </trkpt>
      <trkpt lat="49.45411" lon="5.72972">
        <ele>328</ele>
        <time>2023-06-23T07:25:45Z</time>
      </trkpt>
      <trkpt lat="49.45404" lon="5.72983">
        <ele>327.79998779297</ele>
        <time>2023-06-23T07:25:47Z</time>
      </trkpt>
      <trkpt lat="49.45396" lon="5.72993">
        <ele>327.60000610352</ele>
        <time>2023-06-23T07:25:49Z</time>
      </trkpt>
      <trkpt lat="49.45389" lon="5.73003">
        <ele>327.39999389648</ele>
        <time>2023-06-23T07:25:51Z</time>
      </trkpt>
      <trkpt lat="49.45381" lon="5.73012">
        <ele>327.39999389648</ele>
        <time>2023-06-23T07:25:53Z</time>
      </trkpt>
      <trkpt lat="49.45377" lon="5.73016">
        <ele>327.20001220703</ele>
        <time>2023-06-23T07:25:54Z</time>
      </trkpt>
      <trkpt lat="49.45373" lon="5.7302">
        <ele>327.20001220703</ele>
        <time>2023-06-23T07:25:55Z</time>
      </trkpt>
      <trkpt lat="49.45369" lon="5.73023">
        <ele>327</ele>
        <time>2023-06-23T07:25:56Z</time>
      </trkpt>
      <trkpt lat="49.45365" lon="5.73028">
        <ele>327</ele>
        <time>2023-06-23T07:25:57Z</time>
      </trkpt>
      <trkpt lat="49.45357" lon="5.73036">
        <ele>326.79998779297</ele>
        <time>2023-06-23T07:25:59Z</time>
      </trkpt>
      <trkpt lat="49.45353" lon="5.73041">
        <ele>326.60000610352</ele>
        <time>2023-06-23T07:26:00Z</time>
      </trkpt>
      <trkpt lat="49.45348" lon="5.73045">
        <ele>326.60000610352</ele>
        <time>2023-06-23T07:26:01Z</time>
      </trkpt>
      <trkpt lat="49.45339" lon="5.73052">
        <ele>326.60000610352</ele>
        <time>2023-06-23T07:26:03Z</time>
      </trkpt>
      <trkpt lat="49.45329" lon="5.7306">
        <ele>326.39999389648</ele>
        <time>2023-06-23T07:26:05Z</time>
      </trkpt>
      <trkpt lat="49.45319" lon="5.73069">
        <ele>326.20001220703</ele>
        <time>2023-06-23T07:26:07Z</time>
      </trkpt>
      <trkpt lat="49.45307" lon="5.73076">
        <ele>325.79998779297</ele>
        <time>2023-06-23T07:26:09Z</time>
      </trkpt>
      <trkpt lat="49.45296" lon="5.73082">
        <ele>325.60000610352</ele>
        <time>2023-06-23T07:26:11Z</time>
      </trkpt>
      <trkpt lat="49.45285" lon="5.73086">
        <ele>325</ele>
        <time>2023-06-23T07:26:13Z</time>
      </trkpt>
      <trkpt lat="49.4528" lon="5.73088">
        <ele>324.79998779297</ele>
        <time>2023-06-23T07:26:14Z</time>
      </trkpt>
      <trkpt lat="49.45275" lon="5.73089">
        <ele>324</ele>
        <time>2023-06-23T07:26:15Z</time>
      </trkpt>
      <trkpt lat="49.45264" lon="5.7309">
        <ele>323.79998779297</ele>
        <time>2023-06-23T07:26:17Z</time>
      </trkpt>
      <trkpt lat="49.45254" lon="5.73092">
        <ele>323.79998779297</ele>
        <time>2023-06-23T07:26:19Z</time>
      </trkpt>
      <trkpt lat="49.45245" lon="5.73092">
        <ele>323.79998779297</ele>
        <time>2023-06-23T07:26:21Z</time>
      </trkpt>
      <trkpt lat="49.45237" lon="5.73092">
        <ele>323.79998779297</ele>
        <time>2023-06-23T07:26:23Z</time>
      </trkpt>
      <trkpt lat="49.4523" lon="5.73092">
        <ele>323.79998779297</ele>
        <time>2023-06-23T07:26:25Z</time>
      </trkpt>
      <trkpt lat="49.45223" lon="5.73091">
        <ele>323.79998779297</ele>
        <time>2023-06-23T07:26:27Z</time>
      </trkpt>
      <trkpt lat="49.45217" lon="5.73091">
        <ele>324.39999389648</ele>
        <time>2023-06-23T07:26:29Z</time>
      </trkpt>
      <trkpt lat="49.45212" lon="5.73091">
        <ele>325.20001220703</ele>
        <time>2023-06-23T07:26:31Z</time>
      </trkpt>
      <trkpt lat="49.45206" lon="5.73091">
        <ele>325.39999389648</ele>
        <time>2023-06-23T07:26:33Z</time>
      </trkpt>
      <trkpt lat="49.45201" lon="5.73091">
        <ele>325.79998779297</ele>
        <time>2023-06-23T07:26:35Z</time>
      </trkpt>
      <trkpt lat="49.45196" lon="5.73092">
        <ele>326.20001220703</ele>
        <time>2023-06-23T07:26:37Z</time>
      </trkpt>
      <trkpt lat="49.45191" lon="5.73092">
        <ele>326.79998779297</ele>
        <time>2023-06-23T07:26:39Z</time>
      </trkpt>
      <trkpt lat="49.45188" lon="5.73092">
        <ele>327</ele>
        <time>2023-06-23T07:26:40Z</time>
      </trkpt>
      <trkpt lat="49.45186" lon="5.73092">
        <ele>327.20001220703</ele>
        <time>2023-06-23T07:26:41Z</time>
      </trkpt>
      <trkpt lat="49.45183" lon="5.73092">
        <ele>327.20001220703</ele>
        <time>2023-06-23T07:26:42Z</time>
      </trkpt>
      <trkpt lat="49.45181" lon="5.73092">
        <ele>327.79998779297</ele>
        <time>2023-06-23T07:26:43Z</time>
      </trkpt>
      <trkpt lat="49.45178" lon="5.73093">
        <ele>328</ele>
        <time>2023-06-23T07:26:44Z</time>
      </trkpt>
      <trkpt lat="49.45176" lon="5.73094">
        <ele>328.39999389648</ele>
        <time>2023-06-23T07:26:45Z</time>
      </trkpt>
      <trkpt lat="49.45171" lon="5.73095">
        <ele>328.79998779297</ele>
        <time>2023-06-23T07:26:47Z</time>
      </trkpt>
      <trkpt lat="49.45167" lon="5.73098">
        <ele>329.20001220703</ele>
        <time>2023-06-23T07:26:49Z</time>
      </trkpt>
      <trkpt lat="49.45163" lon="5.731">
        <ele>329.60000610352</ele>
        <time>2023-06-23T07:26:51Z</time>
      </trkpt>
      <trkpt lat="49.4516" lon="5.73102">
        <ele>330</ele>
        <time>2023-06-23T07:26:53Z</time>
      </trkpt>
      <trkpt lat="49.45158" lon="5.73103">
        <ele>330.20001220703</ele>
        <time>2023-06-23T07:26:54Z</time>
      </trkpt>
      <trkpt lat="49.45156" lon="5.73105">
        <ele>330.39999389648</ele>
        <time>2023-06-23T07:26:55Z</time>
      </trkpt>
      <trkpt lat="49.45152" lon="5.73108">
        <ele>330.79998779297</ele>
        <time>2023-06-23T07:26:57Z</time>
      </trkpt>
      <trkpt lat="49.45151" lon="5.7311">
        <ele>331</ele>
        <time>2023-06-23T07:26:58Z</time>
      </trkpt>
      <trkpt lat="49.45149" lon="5.73112">
        <ele>331.20001220703</ele>
        <time>2023-06-23T07:26:59Z</time>
      </trkpt>
      <trkpt lat="49.45147" lon="5.73117">
        <ele>331.79998779297</ele>
        <time>2023-06-23T07:27:01Z</time>
      </trkpt>
      <trkpt lat="49.45146" lon="5.73123">
        <ele>332.20001220703</ele>
        <time>2023-06-23T07:27:03Z</time>
      </trkpt>
      <trkpt lat="49.45145" lon="5.73126">
        <ele>332.39999389648</ele>
        <time>2023-06-23T07:27:04Z</time>
      </trkpt>
      <trkpt lat="49.45144" lon="5.73129">
        <ele>332.60000610352</ele>
        <time>2023-06-23T07:27:05Z</time>
      </trkpt>
      <trkpt lat="49.45144" lon="5.73136">
        <ele>332.79998779297</ele>
        <time>2023-06-23T07:27:07Z</time>
      </trkpt>
      <trkpt lat="49.45142" lon="5.73142">
        <ele>333.39999389648</ele>
        <time>2023-06-23T07:27:09Z</time>
      </trkpt>
      <trkpt lat="49.45141" lon="5.73149">
        <ele>334</ele>
        <time>2023-06-23T07:27:11Z</time>
      </trkpt>
      <trkpt lat="49.4514" lon="5.73155">
        <ele>334.20001220703</ele>
        <time>2023-06-23T07:27:13Z</time>
      </trkpt>
      <trkpt lat="49.45139" lon="5.73161">
        <ele>334.39999389648</ele>
        <time>2023-06-23T07:27:15Z</time>
      </trkpt>
      <trkpt lat="49.45138" lon="5.73164">
        <ele>334.60000610352</ele>
        <time>2023-06-23T07:27:16Z</time>
      </trkpt>
      <trkpt lat="49.45138" lon="5.73167">
        <ele>334.79998779297</ele>
        <time>2023-06-23T07:27:17Z</time>
      </trkpt>
      <trkpt lat="49.45137" lon="5.7317">
        <ele>335</ele>
        <time>2023-06-23T07:27:18Z</time>
      </trkpt>
      <trkpt lat="49.45136" lon="5.73174">
        <ele>335.20001220703</ele>
        <time>2023-06-23T07:27:19Z</time>
      </trkpt>
      <trkpt lat="49.45135" lon="5.7318">
        <ele>335.39999389648</ele>
        <time>2023-06-23T07:27:21Z</time>
      </trkpt>
      <trkpt lat="49.45135" lon="5.73183">
        <ele>335.60000610352</ele>
        <time>2023-06-23T07:27:22Z</time>
      </trkpt>
      <trkpt lat="49.45134" lon="5.73186">
        <ele>336</ele>
        <time>2023-06-23T07:27:23Z</time>
      </trkpt>
      <trkpt lat="49.45133" lon="5.73193">
        <ele>336.39999389648</ele>
        <time>2023-06-23T07:27:25Z</time>
      </trkpt>
      <trkpt lat="49.45132" lon="5.73199">
        <ele>336.60000610352</ele>
        <time>2023-06-23T07:27:27Z</time>
      </trkpt>
      <trkpt lat="49.45131" lon="5.73202">
        <ele>336.79998779297</ele>
        <time>2023-06-23T07:27:28Z</time>
      </trkpt>
      <trkpt lat="49.45131" lon="5.73205">
        <ele>336.79998779297</ele>
        <time>2023-06-23T07:27:29Z</time>
      </trkpt>
      <trkpt lat="49.4513" lon="5.73212">
        <ele>337.39999389648</ele>
        <time>2023-06-23T07:27:31Z</time>
      </trkpt>
      <trkpt lat="49.45128" lon="5.73218">
        <ele>337.60000610352</ele>
        <time>2023-06-23T07:27:33Z</time>
      </trkpt>
      <trkpt lat="49.45127" lon="5.73222">
        <ele>337.79998779297</ele>
        <time>2023-06-23T07:27:34Z</time>
      </trkpt>
      <trkpt lat="49.45127" lon="5.73225">
        <ele>337.79998779297</ele>
        <time>2023-06-23T07:27:35Z</time>
      </trkpt>
      <trkpt lat="49.45125" lon="5.73231">
        <ele>338.20001220703</ele>
        <time>2023-06-23T07:27:37Z</time>
      </trkpt>
      <trkpt lat="49.45124" lon="5.73238">
        <ele>338.60000610352</ele>
        <time>2023-06-23T07:27:39Z</time>
      </trkpt>
      <trkpt lat="49.45123" lon="5.73241">
        <ele>338.79998779297</ele>
        <time>2023-06-23T07:27:40Z</time>
      </trkpt>
      <trkpt lat="49.45122" lon="5.73244">
        <ele>339</ele>
        <time>2023-06-23T07:27:41Z</time>
      </trkpt>
      <trkpt lat="49.45121" lon="5.7325">
        <ele>339.20001220703</ele>
        <time>2023-06-23T07:27:43Z</time>
      </trkpt>
      <trkpt lat="49.45119" lon="5.73256">
        <ele>339.60000610352</ele>
        <time>2023-06-23T07:27:45Z</time>
      </trkpt>
      <trkpt lat="49.45117" lon="5.73262">
        <ele>339.79998779297</ele>
        <time>2023-06-23T07:27:47Z</time>
      </trkpt>
      <trkpt lat="49.45116" lon="5.73268">
        <ele>340</ele>
        <time>2023-06-23T07:27:49Z</time>
      </trkpt>
      <trkpt lat="49.45114" lon="5.73274">
        <ele>340.39999389648</ele>
        <time>2023-06-23T07:27:51Z</time>
      </trkpt>
      <trkpt lat="49.45112" lon="5.7328">
        <ele>340.79998779297</ele>
        <time>2023-06-23T07:27:53Z</time>
      </trkpt>
      <trkpt lat="49.45112" lon="5.73283">
        <ele>341</ele>
        <time>2023-06-23T07:27:54Z</time>
      </trkpt>
      <trkpt lat="49.45111" lon="5.73286">
        <ele>341.20001220703</ele>
        <time>2023-06-23T07:27:55Z</time>
      </trkpt>
      <trkpt lat="49.45109" lon="5.73291">
        <ele>341.60000610352</ele>
        <time>2023-06-23T07:27:57Z</time>
      </trkpt>
      <trkpt lat="49.45107" lon="5.73297">
        <ele>341.79998779297</ele>
        <time>2023-06-23T07:27:59Z</time>
      </trkpt>
      <trkpt lat="49.45106" lon="5.73302">
        <ele>342.20001220703</ele>
        <time>2023-06-23T07:28:01Z</time>
      </trkpt>
      <trkpt lat="49.45104" lon="5.73308">
        <ele>342.20001220703</ele>
        <time>2023-06-23T07:28:03Z</time>
      </trkpt>
      <trkpt lat="49.45103" lon="5.73311">
        <ele>342.39999389648</ele>
        <time>2023-06-23T07:28:04Z</time>
      </trkpt>
      <trkpt lat="49.45102" lon="5.73313">
        <ele>342.60000610352</ele>
        <time>2023-06-23T07:28:05Z</time>
      </trkpt>
      <trkpt lat="49.45102" lon="5.73316">
        <ele>343</ele>
        <time>2023-06-23T07:28:06Z</time>
      </trkpt>
      <trkpt lat="49.45101" lon="5.73319">
        <ele>343.20001220703</ele>
        <time>2023-06-23T07:28:07Z</time>
      </trkpt>
      <trkpt lat="49.45099" lon="5.73324">
        <ele>343.60000610352</ele>
        <time>2023-06-23T07:28:09Z</time>
      </trkpt>
      <trkpt lat="49.45097" lon="5.73329">
        <ele>343.79998779297</ele>
        <time>2023-06-23T07:28:11Z</time>
      </trkpt>
      <trkpt lat="49.45096" lon="5.73332">
        <ele>344</ele>
        <time>2023-06-23T07:28:12Z</time>
      </trkpt>
      <trkpt lat="49.45095" lon="5.73335">
        <ele>344.20001220703</ele>
        <time>2023-06-23T07:28:13Z</time>
      </trkpt>
      <trkpt lat="49.45094" lon="5.73338">
        <ele>344.39999389648</ele>
        <time>2023-06-23T07:28:14Z</time>
      </trkpt>
      <trkpt lat="49.45093" lon="5.73341">
        <ele>344.60000610352</ele>
        <time>2023-06-23T07:28:15Z</time>
      </trkpt>
      <trkpt lat="49.4509" lon="5.73348">
        <ele>344.60000610352</ele>
        <time>2023-06-23T07:28:17Z</time>
      </trkpt>
      <trkpt lat="49.45087" lon="5.73355">
        <ele>344.60000610352</ele>
        <time>2023-06-23T07:28:19Z</time>
      </trkpt>
      <trkpt lat="49.45083" lon="5.73364">
        <ele>344.79998779297</ele>
        <time>2023-06-23T07:28:21Z</time>
      </trkpt>
      <trkpt lat="49.45078" lon="5.73375">
        <ele>344.79998779297</ele>
        <time>2023-06-23T07:28:23Z</time>
      </trkpt>
      <trkpt lat="49.45071" lon="5.73389">
        <ele>344.79998779297</ele>
        <time>2023-06-23T07:28:25Z</time>
      </trkpt>
      <trkpt lat="49.45068" lon="5.73396">
        <ele>344.60000610352</ele>
        <time>2023-06-23T07:28:26Z</time>
      </trkpt>
      <trkpt lat="49.45064" lon="5.73405">
        <ele>344.60000610352</ele>
        <time>2023-06-23T07:28:27Z</time>
      </trkpt>
      <trkpt lat="49.45056" lon="5.73424">
        <ele>344.39999389648</ele>
        <time>2023-06-23T07:28:29Z</time>
      </trkpt>
      <trkpt lat="49.45053" lon="5.73434">
        <ele>344.20001220703</ele>
        <time>2023-06-23T07:28:30Z</time>
      </trkpt>
      <trkpt lat="49.45051" lon="5.73441">
        <ele>343.79998779297</ele>
        <time>2023-06-23T07:28:31Z</time>
      </trkpt>
      <trkpt lat="49.45043" lon="5.73448">
        <ele>342.60000610352</ele>
        <time>2023-06-23T07:28:33Z</time>
      </trkpt>
      <trkpt lat="49.45036" lon="5.73441">
        <ele>340.39999389648</ele>
        <time>2023-06-23T07:28:35Z</time>
      </trkpt>
      <trkpt lat="49.45034" lon="5.73435">
        <ele>339.79998779297</ele>
        <time>2023-06-23T07:28:36Z</time>
      </trkpt>
      <trkpt lat="49.45033" lon="5.73428">
        <ele>339.39999389648</ele>
        <time>2023-06-23T07:28:37Z</time>
      </trkpt>
      <trkpt lat="49.45031" lon="5.73421">
        <ele>338.79998779297</ele>
        <time>2023-06-23T07:28:38Z</time>
      </trkpt>
      <trkpt lat="49.4503" lon="5.73414">
        <ele>338.39999389648</ele>
        <time>2023-06-23T07:28:39Z</time>
      </trkpt>
      <trkpt lat="49.45028" lon="5.73406">
        <ele>338</ele>
        <time>2023-06-23T07:28:40Z</time>
      </trkpt>
      <trkpt lat="49.45027" lon="5.73399">
        <ele>337.60000610352</ele>
        <time>2023-06-23T07:28:41Z</time>
      </trkpt>
      <trkpt lat="49.45025" lon="5.73385">
        <ele>336.79998779297</ele>
        <time>2023-06-23T07:28:43Z</time>
      </trkpt>
      <trkpt lat="49.45022" lon="5.73372">
        <ele>336</ele>
        <time>2023-06-23T07:28:45Z</time>
      </trkpt>
      <trkpt lat="49.45021" lon="5.73358">
        <ele>335.79998779297</ele>
        <time>2023-06-23T07:28:47Z</time>
      </trkpt>
      <trkpt lat="49.45019" lon="5.73345">
        <ele>335.60000610352</ele>
        <time>2023-06-23T07:28:49Z</time>
      </trkpt>
      <trkpt lat="49.45018" lon="5.73332">
        <ele>335.60000610352</ele>
        <time>2023-06-23T07:28:51Z</time>
      </trkpt>
      <trkpt lat="49.45017" lon="5.73325">
        <ele>335.60000610352</ele>
        <time>2023-06-23T07:28:52Z</time>
      </trkpt>
      <trkpt lat="49.45016" lon="5.73318">
        <ele>335.60000610352</ele>
        <time>2023-06-23T07:28:53Z</time>
      </trkpt>
      <trkpt lat="49.45015" lon="5.73305">
        <ele>335.60000610352</ele>
        <time>2023-06-23T07:28:55Z</time>
      </trkpt>
      <trkpt lat="49.45013" lon="5.73292">
        <ele>335.60000610352</ele>
        <time>2023-06-23T07:28:57Z</time>
      </trkpt>
      <trkpt lat="49.45012" lon="5.73279">
        <ele>335.60000610352</ele>
        <time>2023-06-23T07:28:59Z</time>
      </trkpt>
      <trkpt lat="49.4501" lon="5.73266">
        <ele>335.60000610352</ele>
        <time>2023-06-23T07:29:01Z</time>
      </trkpt>
      <trkpt lat="49.45007" lon="5.73253">
        <ele>335.60000610352</ele>
        <time>2023-06-23T07:29:03Z</time>
      </trkpt>
      <trkpt lat="49.45005" lon="5.7324">
        <ele>335.60000610352</ele>
        <time>2023-06-23T07:29:05Z</time>
      </trkpt>
      <trkpt lat="49.45002" lon="5.73227">
        <ele>335.60000610352</ele>
        <time>2023-06-23T07:29:07Z</time>
      </trkpt>
      <trkpt lat="49.44999" lon="5.73215">
        <ele>335.60000610352</ele>
        <time>2023-06-23T07:29:09Z</time>
      </trkpt>
      <trkpt lat="49.44996" lon="5.73204">
        <ele>335.39999389648</ele>
        <time>2023-06-23T07:29:11Z</time>
      </trkpt>
      <trkpt lat="49.44994" lon="5.73198">
        <ele>335.39999389648</ele>
        <time>2023-06-23T07:29:12Z</time>
      </trkpt>
      <trkpt lat="49.44993" lon="5.73192">
        <ele>335.39999389648</ele>
        <time>2023-06-23T07:29:13Z</time>
      </trkpt>
      <trkpt lat="49.4499" lon="5.73181">
        <ele>335.39999389648</ele>
        <time>2023-06-23T07:29:15Z</time>
      </trkpt>
      <trkpt lat="49.44986" lon="5.73169">
        <ele>335.20001220703</ele>
        <time>2023-06-23T07:29:17Z</time>
      </trkpt>
      <trkpt lat="49.44982" lon="5.73157">
        <ele>335</ele>
        <time>2023-06-23T07:29:19Z</time>
      </trkpt>
      <trkpt lat="49.44978" lon="5.73145">
        <ele>335</ele>
        <time>2023-06-23T07:29:21Z</time>
      </trkpt>
      <trkpt lat="49.44973" lon="5.73132">
        <ele>334.79998779297</ele>
        <time>2023-06-23T07:29:23Z</time>
      </trkpt>
      <trkpt lat="49.4497" lon="5.73127">
        <ele>334.79998779297</ele>
        <time>2023-06-23T07:29:24Z</time>
      </trkpt>
      <trkpt lat="49.44967" lon="5.73121">
        <ele>334.79998779297</ele>
        <time>2023-06-23T07:29:25Z</time>
      </trkpt>
      <trkpt lat="49.44961" lon="5.7311">
        <ele>334.79998779297</ele>
        <time>2023-06-23T07:29:27Z</time>
      </trkpt>
      <trkpt lat="49.44958" lon="5.73105">
        <ele>334.79998779297</ele>
        <time>2023-06-23T07:29:28Z</time>
      </trkpt>
      <trkpt lat="49.44955" lon="5.731">
        <ele>334.79998779297</ele>
        <time>2023-06-23T07:29:29Z</time>
      </trkpt>
      <trkpt lat="49.44947" lon="5.73091">
        <ele>334.79998779297</ele>
        <time>2023-06-23T07:29:31Z</time>
      </trkpt>
      <trkpt lat="49.44939" lon="5.73082">
        <ele>335</ele>
        <time>2023-06-23T07:29:33Z</time>
      </trkpt>
      <trkpt lat="49.44935" lon="5.73078">
        <ele>335</ele>
        <time>2023-06-23T07:29:34Z</time>
      </trkpt>
      <trkpt lat="49.44931" lon="5.73073">
        <ele>335</ele>
        <time>2023-06-23T07:29:35Z</time>
      </trkpt>
      <trkpt lat="49.44924" lon="5.73066">
        <ele>335.20001220703</ele>
        <time>2023-06-23T07:29:37Z</time>
      </trkpt>
      <trkpt lat="49.44915" lon="5.7306">
        <ele>335.20001220703</ele>
        <time>2023-06-23T07:29:39Z</time>
      </trkpt>
      <trkpt lat="49.44906" lon="5.73055">
        <ele>335.20001220703</ele>
        <time>2023-06-23T07:29:41Z</time>
      </trkpt>
      <trkpt lat="49.44901" lon="5.73053">
        <ele>335.20001220703</ele>
        <time>2023-06-23T07:29:42Z</time>
      </trkpt>
      <trkpt lat="49.44897" lon="5.73053">
        <ele>335.20001220703</ele>
        <time>2023-06-23T07:29:43Z</time>
      </trkpt>
      <trkpt lat="49.44887" lon="5.73052">
        <ele>335.20001220703</ele>
        <time>2023-06-23T07:29:45Z</time>
      </trkpt>
      <trkpt lat="49.44883" lon="5.73053">
        <ele>335.20001220703</ele>
        <time>2023-06-23T07:29:46Z</time>
      </trkpt>
      <trkpt lat="49.44878" lon="5.73053">
        <ele>335.20001220703</ele>
        <time>2023-06-23T07:29:47Z</time>
      </trkpt>
      <trkpt lat="49.44868" lon="5.73055">
        <ele>335.20001220703</ele>
        <time>2023-06-23T07:29:49Z</time>
      </trkpt>
      <trkpt lat="49.44858" lon="5.73058">
        <ele>335</ele>
        <time>2023-06-23T07:29:51Z</time>
      </trkpt>
      <trkpt lat="49.44849" lon="5.73061">
        <ele>335</ele>
        <time>2023-06-23T07:29:53Z</time>
      </trkpt>
      <trkpt lat="49.44844" lon="5.73064">
        <ele>335</ele>
        <time>2023-06-23T07:29:54Z</time>
      </trkpt>
      <trkpt lat="49.4484" lon="5.73066">
        <ele>335</ele>
        <time>2023-06-23T07:29:55Z</time>
      </trkpt>
      <trkpt lat="49.44831" lon="5.7307">
        <ele>335</ele>
        <time>2023-06-23T07:29:57Z</time>
      </trkpt>
      <trkpt lat="49.44822" lon="5.73074">
        <ele>335</ele>
        <time>2023-06-23T07:29:59Z</time>
      </trkpt>
      <trkpt lat="49.44813" lon="5.73081">
        <ele>335</ele>
        <time>2023-06-23T07:30:01Z</time>
      </trkpt>
      <trkpt lat="49.44809" lon="5.73084">
        <ele>335</ele>
        <time>2023-06-23T07:30:02Z</time>
      </trkpt>
      <trkpt lat="49.44805" lon="5.73087">
        <ele>335</ele>
        <time>2023-06-23T07:30:03Z</time>
      </trkpt>
      <trkpt lat="49.44796" lon="5.73093">
        <ele>335</ele>
        <time>2023-06-23T07:30:05Z</time>
      </trkpt>
      <trkpt lat="49.44787" lon="5.73098">
        <ele>335.20001220703</ele>
        <time>2023-06-23T07:30:07Z</time>
      </trkpt>
      <trkpt lat="49.44779" lon="5.73102">
        <ele>335.20001220703</ele>
        <time>2023-06-23T07:30:09Z</time>
      </trkpt>
      <trkpt lat="49.44774" lon="5.73103">
        <ele>335.20001220703</ele>
        <time>2023-06-23T07:30:10Z</time>
      </trkpt>
      <trkpt lat="49.44769" lon="5.73105">
        <ele>335.39999389648</ele>
        <time>2023-06-23T07:30:11Z</time>
      </trkpt>
      <trkpt lat="49.4476" lon="5.73107">
        <ele>335.39999389648</ele>
        <time>2023-06-23T07:30:13Z</time>
      </trkpt>
      <trkpt lat="49.44751" lon="5.73109">
        <ele>335.39999389648</ele>
        <time>2023-06-23T07:30:15Z</time>
      </trkpt>
      <trkpt lat="49.44741" lon="5.7311">
        <ele>335.60000610352</ele>
        <time>2023-06-23T07:30:17Z</time>
      </trkpt>
      <trkpt lat="49.44732" lon="5.73113">
        <ele>335.60000610352</ele>
        <time>2023-06-23T07:30:19Z</time>
      </trkpt>
      <trkpt lat="49.44723" lon="5.73115">
        <ele>335.79998779297</ele>
        <time>2023-06-23T07:30:21Z</time>
      </trkpt>
      <trkpt lat="49.44714" lon="5.73119">
        <ele>335.79998779297</ele>
        <time>2023-06-23T07:30:23Z</time>
      </trkpt>
      <trkpt lat="49.44705" lon="5.73121">
        <ele>335.79998779297</ele>
        <time>2023-06-23T07:30:25Z</time>
      </trkpt>
      <trkpt lat="49.44697" lon="5.73123">
        <ele>335.79998779297</ele>
        <time>2023-06-23T07:30:27Z</time>
      </trkpt>
      <trkpt lat="49.44688" lon="5.73124">
        <ele>336</ele>
        <time>2023-06-23T07:30:29Z</time>
      </trkpt>
      <trkpt lat="49.44684" lon="5.73124">
        <ele>336</ele>
        <time>2023-06-23T07:30:30Z</time>
      </trkpt>
      <trkpt lat="49.44679" lon="5.73124">
        <ele>336</ele>
        <time>2023-06-23T07:30:31Z</time>
      </trkpt>
      <trkpt lat="49.44672" lon="5.73124">
        <ele>336</ele>
        <time>2023-06-23T07:30:33Z</time>
      </trkpt>
      <trkpt lat="49.44664" lon="5.73124">
        <ele>336.20001220703</ele>
        <time>2023-06-23T07:30:35Z</time>
      </trkpt>
      <trkpt lat="49.44657" lon="5.73126">
        <ele>336.39999389648</ele>
        <time>2023-06-23T07:30:37Z</time>
      </trkpt>
      <trkpt lat="49.44653" lon="5.73127">
        <ele>336.60000610352</ele>
        <time>2023-06-23T07:30:38Z</time>
      </trkpt>
      <trkpt lat="49.44649" lon="5.73128">
        <ele>336.60000610352</ele>
        <time>2023-06-23T07:30:39Z</time>
      </trkpt>
      <trkpt lat="49.44645" lon="5.7313">
        <ele>336.79998779297</ele>
        <time>2023-06-23T07:30:40Z</time>
      </trkpt>
      <trkpt lat="49.44641" lon="5.73131">
        <ele>337</ele>
        <time>2023-06-23T07:30:41Z</time>
      </trkpt>
      <trkpt lat="49.44633" lon="5.73134">
        <ele>337</ele>
        <time>2023-06-23T07:30:43Z</time>
      </trkpt>
      <trkpt lat="49.44626" lon="5.73139">
        <ele>337.39999389648</ele>
        <time>2023-06-23T07:30:45Z</time>
      </trkpt>
      <trkpt lat="49.44618" lon="5.73144">
        <ele>337.39999389648</ele>
        <time>2023-06-23T07:30:47Z</time>
      </trkpt>
      <trkpt lat="49.44614" lon="5.73147">
        <ele>337.39999389648</ele>
        <time>2023-06-23T07:30:48Z</time>
      </trkpt>
      <trkpt lat="49.4461" lon="5.7315">
        <ele>337.60000610352</ele>
        <time>2023-06-23T07:30:49Z</time>
      </trkpt>
      <trkpt lat="49.44603" lon="5.73157">
        <ele>338.20001220703</ele>
        <time>2023-06-23T07:30:51Z</time>
      </trkpt>
      <trkpt lat="49.44596" lon="5.73163">
        <ele>338.20001220703</ele>
        <time>2023-06-23T07:30:53Z</time>
      </trkpt>
      <trkpt lat="49.44588" lon="5.7317">
        <ele>338.79998779297</ele>
        <time>2023-06-23T07:30:55Z</time>
      </trkpt>
      <trkpt lat="49.44581" lon="5.73177">
        <ele>338.79998779297</ele>
        <time>2023-06-23T07:30:57Z</time>
      </trkpt>
      <trkpt lat="49.44574" lon="5.73182">
        <ele>339.20001220703</ele>
        <time>2023-06-23T07:30:59Z</time>
      </trkpt>
      <trkpt lat="49.44567" lon="5.73188">
        <ele>339.20001220703</ele>
        <time>2023-06-23T07:31:01Z</time>
      </trkpt>
      <trkpt lat="49.4456" lon="5.73194">
        <ele>339.39999389648</ele>
        <time>2023-06-23T07:31:03Z</time>
      </trkpt>
      <trkpt lat="49.44554" lon="5.73201">
        <ele>339.39999389648</ele>
        <time>2023-06-23T07:31:05Z</time>
      </trkpt>
      <trkpt lat="49.44547" lon="5.73207">
        <ele>339.60000610352</ele>
        <time>2023-06-23T07:31:07Z</time>
      </trkpt>
      <trkpt lat="49.44544" lon="5.7321">
        <ele>339.60000610352</ele>
        <time>2023-06-23T07:31:08Z</time>
      </trkpt>
      <trkpt lat="49.4454" lon="5.73213">
        <ele>340</ele>
        <time>2023-06-23T07:31:09Z</time>
      </trkpt>
      <trkpt lat="49.44534" lon="5.73219">
        <ele>340</ele>
        <time>2023-06-23T07:31:11Z</time>
      </trkpt>
      <trkpt lat="49.44527" lon="5.73225">
        <ele>340.20001220703</ele>
        <time>2023-06-23T07:31:13Z</time>
      </trkpt>
      <trkpt lat="49.44521" lon="5.7323">
        <ele>340.60000610352</ele>
        <time>2023-06-23T07:31:15Z</time>
      </trkpt>
      <trkpt lat="49.44517" lon="5.73233">
        <ele>340.79998779297</ele>
        <time>2023-06-23T07:31:16Z</time>
      </trkpt>
      <trkpt lat="49.44514" lon="5.73236">
        <ele>340.79998779297</ele>
        <time>2023-06-23T07:31:17Z</time>
      </trkpt>
      <trkpt lat="49.44508" lon="5.73242">
        <ele>341.20001220703</ele>
        <time>2023-06-23T07:31:19Z</time>
      </trkpt>
      <trkpt lat="49.44501" lon="5.73247">
        <ele>341.39999389648</ele>
        <time>2023-06-23T07:31:21Z</time>
      </trkpt>
      <trkpt lat="49.44494" lon="5.73252">
        <ele>342</ele>
        <time>2023-06-23T07:31:23Z</time>
      </trkpt>
      <trkpt lat="49.44488" lon="5.73259">
        <ele>342</ele>
        <time>2023-06-23T07:31:25Z</time>
      </trkpt>
      <trkpt lat="49.44481" lon="5.73265">
        <ele>342.39999389648</ele>
        <time>2023-06-23T07:31:27Z</time>
      </trkpt>
      <trkpt lat="49.44472" lon="5.73269">
        <ele>342.79998779297</ele>
        <time>2023-06-23T07:31:29Z</time>
      </trkpt>
      <trkpt lat="49.44464" lon="5.73274">
        <ele>342.79998779297</ele>
        <time>2023-06-23T07:31:31Z</time>
      </trkpt>
      <trkpt lat="49.44457" lon="5.73278">
        <ele>343.20001220703</ele>
        <time>2023-06-23T07:31:33Z</time>
      </trkpt>
      <trkpt lat="49.44449" lon="5.73281">
        <ele>343.39999389648</ele>
        <time>2023-06-23T07:31:35Z</time>
      </trkpt>
      <trkpt lat="49.44445" lon="5.73283">
        <ele>343.60000610352</ele>
        <time>2023-06-23T07:31:36Z</time>
      </trkpt>
      <trkpt lat="49.44441" lon="5.73284">
        <ele>343.60000610352</ele>
        <time>2023-06-23T07:31:37Z</time>
      </trkpt>
      <trkpt lat="49.44437" lon="5.73285">
        <ele>343.79998779297</ele>
        <time>2023-06-23T07:31:38Z</time>
      </trkpt>
      <trkpt lat="49.44432" lon="5.73286">
        <ele>343.79998779297</ele>
        <time>2023-06-23T07:31:39Z</time>
      </trkpt>
      <trkpt lat="49.44423" lon="5.73288">
        <ele>344</ele>
        <time>2023-06-23T07:31:41Z</time>
      </trkpt>
      <trkpt lat="49.44414" lon="5.73289">
        <ele>344</ele>
        <time>2023-06-23T07:31:43Z</time>
      </trkpt>
      <trkpt lat="49.44404" lon="5.7329">
        <ele>344.20001220703</ele>
        <time>2023-06-23T07:31:45Z</time>
      </trkpt>
      <trkpt lat="49.44395" lon="5.7329">
        <ele>344.39999389648</ele>
        <time>2023-06-23T07:31:47Z</time>
      </trkpt>
      <trkpt lat="49.44385" lon="5.73289">
        <ele>344.39999389648</ele>
        <time>2023-06-23T07:31:49Z</time>
      </trkpt>
      <trkpt lat="49.44376" lon="5.73287">
        <ele>344.39999389648</ele>
        <time>2023-06-23T07:31:51Z</time>
      </trkpt>
      <trkpt lat="49.44367" lon="5.73285">
        <ele>344.39999389648</ele>
        <time>2023-06-23T07:31:53Z</time>
      </trkpt>
      <trkpt lat="49.44357" lon="5.73283">
        <ele>344.39999389648</ele>
        <time>2023-06-23T07:31:55Z</time>
      </trkpt>
      <trkpt lat="49.44348" lon="5.73281">
        <ele>344.39999389648</ele>
        <time>2023-06-23T07:31:57Z</time>
      </trkpt>
      <trkpt lat="49.44343" lon="5.7328">
        <ele>344.39999389648</ele>
        <time>2023-06-23T07:31:58Z</time>
      </trkpt>
      <trkpt lat="49.44338" lon="5.73279">
        <ele>344.39999389648</ele>
        <time>2023-06-23T07:31:59Z</time>
      </trkpt>
      <trkpt lat="49.44329" lon="5.73275">
        <ele>344.39999389648</ele>
        <time>2023-06-23T07:32:01Z</time>
      </trkpt>
      <trkpt lat="49.44319" lon="5.73273">
        <ele>344.39999389648</ele>
        <time>2023-06-23T07:32:03Z</time>
      </trkpt>
      <trkpt lat="49.44315" lon="5.73273">
        <ele>344.39999389648</ele>
        <time>2023-06-23T07:32:04Z</time>
      </trkpt>
      <trkpt lat="49.4431" lon="5.73272">
        <ele>344.20001220703</ele>
        <time>2023-06-23T07:32:05Z</time>
      </trkpt>
      <trkpt lat="49.44302" lon="5.73269">
        <ele>344.20001220703</ele>
        <time>2023-06-23T07:32:07Z</time>
      </trkpt>
      <trkpt lat="49.44293" lon="5.73264">
        <ele>344.20001220703</ele>
        <time>2023-06-23T07:32:09Z</time>
      </trkpt>
      <trkpt lat="49.44286" lon="5.73256">
        <ele>344.20001220703</ele>
        <time>2023-06-23T07:32:11Z</time>
      </trkpt>
      <trkpt lat="49.4428" lon="5.73245">
        <ele>344.20001220703</ele>
        <time>2023-06-23T07:32:13Z</time>
      </trkpt>
      <trkpt lat="49.44274" lon="5.73234">
        <ele>344.20001220703</ele>
        <time>2023-06-23T07:32:15Z</time>
      </trkpt>
      <trkpt lat="49.44271" lon="5.73228">
        <ele>344.20001220703</ele>
        <time>2023-06-23T07:32:16Z</time>
      </trkpt>
      <trkpt lat="49.44269" lon="5.73222">
        <ele>344.39999389648</ele>
        <time>2023-06-23T07:32:17Z</time>
      </trkpt>
      <trkpt lat="49.44267" lon="5.73217">
        <ele>344.39999389648</ele>
        <time>2023-06-23T07:32:18Z</time>
      </trkpt>
      <trkpt lat="49.44265" lon="5.73211">
        <ele>344.39999389648</ele>
        <time>2023-06-23T07:32:19Z</time>
      </trkpt>
      <trkpt lat="49.44261" lon="5.73199">
        <ele>344.39999389648</ele>
        <time>2023-06-23T07:32:21Z</time>
      </trkpt>
      <trkpt lat="49.44257" lon="5.73187">
        <ele>344.60000610352</ele>
        <time>2023-06-23T07:32:23Z</time>
      </trkpt>
      <trkpt lat="49.44254" lon="5.73175">
        <ele>344.79998779297</ele>
        <time>2023-06-23T07:32:25Z</time>
      </trkpt>
      <trkpt lat="49.4425" lon="5.73162">
        <ele>345</ele>
        <time>2023-06-23T07:32:27Z</time>
      </trkpt>
      <trkpt lat="49.44246" lon="5.73149">
        <ele>345</ele>
        <time>2023-06-23T07:32:29Z</time>
      </trkpt>
      <trkpt lat="49.44242" lon="5.73136">
        <ele>345.39999389648</ele>
        <time>2023-06-23T07:32:31Z</time>
      </trkpt>
      <trkpt lat="49.44238" lon="5.73124">
        <ele>345.60000610352</ele>
        <time>2023-06-23T07:32:33Z</time>
      </trkpt>
      <trkpt lat="49.44233" lon="5.73113">
        <ele>345.60000610352</ele>
        <time>2023-06-23T07:32:35Z</time>
      </trkpt>
      <trkpt lat="49.44228" lon="5.73102">
        <ele>345.79998779297</ele>
        <time>2023-06-23T07:32:37Z</time>
      </trkpt>
      <trkpt lat="49.44222" lon="5.7309">
        <ele>345.79998779297</ele>
        <time>2023-06-23T07:32:39Z</time>
      </trkpt>
      <trkpt lat="49.44219" lon="5.73085">
        <ele>345.79998779297</ele>
        <time>2023-06-23T07:32:40Z</time>
      </trkpt>
      <trkpt lat="49.44216" lon="5.73079">
        <ele>345.79998779297</ele>
        <time>2023-06-23T07:32:41Z</time>
      </trkpt>
      <trkpt lat="49.44208" lon="5.73067">
        <ele>345.79998779297</ele>
        <time>2023-06-23T07:32:43Z</time>
      </trkpt>
      <trkpt lat="49.44201" lon="5.73055">
        <ele>346</ele>
        <time>2023-06-23T07:32:45Z</time>
      </trkpt>
      <trkpt lat="49.44194" lon="5.73043">
        <ele>346.20001220703</ele>
        <time>2023-06-23T07:32:47Z</time>
      </trkpt>
      <trkpt lat="49.44186" lon="5.73031">
        <ele>346.20001220703</ele>
        <time>2023-06-23T07:32:49Z</time>
      </trkpt>
      <trkpt lat="49.44182" lon="5.73025">
        <ele>346.20001220703</ele>
        <time>2023-06-23T07:32:50Z</time>
      </trkpt>
      <trkpt lat="49.44178" lon="5.73019">
        <ele>346.20001220703</ele>
        <time>2023-06-23T07:32:51Z</time>
      </trkpt>
      <trkpt lat="49.44171" lon="5.73008">
        <ele>346.20001220703</ele>
        <time>2023-06-23T07:32:53Z</time>
      </trkpt>
      <trkpt lat="49.44163" lon="5.72996">
        <ele>346</ele>
        <time>2023-06-23T07:32:55Z</time>
      </trkpt>
      <trkpt lat="49.44155" lon="5.72985">
        <ele>345.60000610352</ele>
        <time>2023-06-23T07:32:57Z</time>
      </trkpt>
      <trkpt lat="49.44147" lon="5.72974">
        <ele>345.60000610352</ele>
        <time>2023-06-23T07:32:59Z</time>
      </trkpt>
      <trkpt lat="49.44143" lon="5.72969">
        <ele>345.60000610352</ele>
        <time>2023-06-23T07:33:00Z</time>
      </trkpt>
      <trkpt lat="49.44139" lon="5.72964">
        <ele>345.39999389648</ele>
        <time>2023-06-23T07:33:01Z</time>
      </trkpt>
      <trkpt lat="49.44132" lon="5.72954">
        <ele>345.20001220703</ele>
        <time>2023-06-23T07:33:03Z</time>
      </trkpt>
      <trkpt lat="49.44126" lon="5.72943">
        <ele>345.20001220703</ele>
        <time>2023-06-23T07:33:05Z</time>
      </trkpt>
      <trkpt lat="49.44121" lon="5.72931">
        <ele>345.20001220703</ele>
        <time>2023-06-23T07:33:07Z</time>
      </trkpt>
      <trkpt lat="49.44117" lon="5.72919">
        <ele>345</ele>
        <time>2023-06-23T07:33:09Z</time>
      </trkpt>
      <trkpt lat="49.4411" lon="5.72914">
        <ele>344.79998779297</ele>
        <time>2023-06-23T07:33:11Z</time>
      </trkpt>
      <trkpt lat="49.44103" lon="5.72922">
        <ele>344.60000610352</ele>
        <time>2023-06-23T07:33:13Z</time>
      </trkpt>
      <trkpt lat="49.44101" lon="5.7293">
        <ele>344.39999389648</ele>
        <time>2023-06-23T07:33:14Z</time>
      </trkpt>
      <trkpt lat="49.44098" lon="5.72938">
        <ele>344.39999389648</ele>
        <time>2023-06-23T07:33:15Z</time>
      </trkpt>
      <trkpt lat="49.44092" lon="5.72956">
        <ele>344.20001220703</ele>
        <time>2023-06-23T07:33:17Z</time>
      </trkpt>
      <trkpt lat="49.44086" lon="5.72976">
        <ele>344</ele>
        <time>2023-06-23T07:33:19Z</time>
      </trkpt>
      <trkpt lat="49.44079" lon="5.72999">
        <ele>343.79998779297</ele>
        <time>2023-06-23T07:33:21Z</time>
      </trkpt>
      <trkpt lat="49.44075" lon="5.73011">
        <ele>343.60000610352</ele>
        <time>2023-06-23T07:33:22Z</time>
      </trkpt>
      <trkpt lat="49.44071" lon="5.73023">
        <ele>343.39999389648</ele>
        <time>2023-06-23T07:33:23Z</time>
      </trkpt>
      <trkpt lat="49.44063" lon="5.73049">
        <ele>342.20001220703</ele>
        <time>2023-06-23T07:33:25Z</time>
      </trkpt>
      <trkpt lat="49.44055" lon="5.73076">
        <ele>340.79998779297</ele>
        <time>2023-06-23T07:33:27Z</time>
      </trkpt>
      <trkpt lat="49.44051" lon="5.7309">
        <ele>340.39999389648</ele>
        <time>2023-06-23T07:33:28Z</time>
      </trkpt>
      <trkpt lat="49.44047" lon="5.73105">
        <ele>340.20001220703</ele>
        <time>2023-06-23T07:33:29Z</time>
      </trkpt>
      <trkpt lat="49.44043" lon="5.73121">
        <ele>339.20001220703</ele>
        <time>2023-06-23T07:33:30Z</time>
      </trkpt>
      <trkpt lat="49.4404" lon="5.73137">
        <ele>338.20001220703</ele>
        <time>2023-06-23T07:33:31Z</time>
      </trkpt>
      <trkpt lat="49.44033" lon="5.73169">
        <ele>336</ele>
        <time>2023-06-23T07:33:33Z</time>
      </trkpt>
      <trkpt lat="49.44027" lon="5.73201">
        <ele>334.39999389648</ele>
        <time>2023-06-23T07:33:35Z</time>
      </trkpt>
      <trkpt lat="49.44023" lon="5.73217">
        <ele>333.20001220703</ele>
        <time>2023-06-23T07:33:36Z</time>
      </trkpt>
      <trkpt lat="49.4402" lon="5.73232">
        <ele>331.39999389648</ele>
        <time>2023-06-23T07:33:37Z</time>
      </trkpt>
      <trkpt lat="49.44017" lon="5.73247">
        <ele>330.39999389648</ele>
        <time>2023-06-23T07:33:38Z</time>
      </trkpt>
      <trkpt lat="49.44014" lon="5.73262">
        <ele>329</ele>
        <time>2023-06-23T07:33:39Z</time>
      </trkpt>
      <trkpt lat="49.44011" lon="5.73276">
        <ele>328</ele>
        <time>2023-06-23T07:33:40Z</time>
      </trkpt>
      <trkpt lat="49.44008" lon="5.7329">
        <ele>326.60000610352</ele>
        <time>2023-06-23T07:33:41Z</time>
      </trkpt>
      <trkpt lat="49.44006" lon="5.73303">
        <ele>325.39999389648</ele>
        <time>2023-06-23T07:33:42Z</time>
      </trkpt>
      <trkpt lat="49.44003" lon="5.73316">
        <ele>324.39999389648</ele>
        <time>2023-06-23T07:33:43Z</time>
      </trkpt>
      <trkpt lat="49.44001" lon="5.73329">
        <ele>323.39999389648</ele>
        <time>2023-06-23T07:33:44Z</time>
      </trkpt>
      <trkpt lat="49.43999" lon="5.73341">
        <ele>323</ele>
        <time>2023-06-23T07:33:45Z</time>
      </trkpt>
      <trkpt lat="49.43995" lon="5.73365">
        <ele>322.79998779297</ele>
        <time>2023-06-23T07:33:47Z</time>
      </trkpt>
      <trkpt lat="49.4399" lon="5.73388">
        <ele>322.60000610352</ele>
        <time>2023-06-23T07:33:49Z</time>
      </trkpt>
      <trkpt lat="49.43988" lon="5.73399">
        <ele>322.60000610352</ele>
        <time>2023-06-23T07:33:50Z</time>
      </trkpt>
      <trkpt lat="49.43986" lon="5.73409">
        <ele>322.60000610352</ele>
        <time>2023-06-23T07:33:51Z</time>
      </trkpt>
      <trkpt lat="49.43981" lon="5.73429">
        <ele>322.60000610352</ele>
        <time>2023-06-23T07:33:53Z</time>
      </trkpt>
      <trkpt lat="49.43977" lon="5.73449">
        <ele>322.79998779297</ele>
        <time>2023-06-23T07:33:55Z</time>
      </trkpt>
      <trkpt lat="49.43975" lon="5.73458">
        <ele>323</ele>
        <time>2023-06-23T07:33:56Z</time>
      </trkpt>
      <trkpt lat="49.43973" lon="5.73467">
        <ele>323</ele>
        <time>2023-06-23T07:33:57Z</time>
      </trkpt>
      <trkpt lat="49.43969" lon="5.73484">
        <ele>323.60000610352</ele>
        <time>2023-06-23T07:33:59Z</time>
      </trkpt>
      <trkpt lat="49.43965" lon="5.73502">
        <ele>324</ele>
        <time>2023-06-23T07:34:01Z</time>
      </trkpt>
      <trkpt lat="49.43963" lon="5.7351">
        <ele>324.20001220703</ele>
        <time>2023-06-23T07:34:02Z</time>
      </trkpt>
      <trkpt lat="49.43962" lon="5.73519">
        <ele>324.39999389648</ele>
        <time>2023-06-23T07:34:03Z</time>
      </trkpt>
      <trkpt lat="49.43959" lon="5.73535">
        <ele>324.60000610352</ele>
        <time>2023-06-23T07:34:05Z</time>
      </trkpt>
      <trkpt lat="49.43955" lon="5.73551">
        <ele>324.79998779297</ele>
        <time>2023-06-23T07:34:07Z</time>
      </trkpt>
      <trkpt lat="49.43952" lon="5.73566">
        <ele>324.79998779297</ele>
        <time>2023-06-23T07:34:09Z</time>
      </trkpt>
      <trkpt lat="49.43951" lon="5.73573">
        <ele>324.79998779297</ele>
        <time>2023-06-23T07:34:10Z</time>
      </trkpt>
      <trkpt lat="49.4395" lon="5.73581">
        <ele>324.79998779297</ele>
        <time>2023-06-23T07:34:11Z</time>
      </trkpt>
      <trkpt lat="49.43947" lon="5.73596">
        <ele>324.79998779297</ele>
        <time>2023-06-23T07:34:13Z</time>
      </trkpt>
      <trkpt lat="49.43944" lon="5.73612">
        <ele>324.79998779297</ele>
        <time>2023-06-23T07:34:15Z</time>
      </trkpt>
      <trkpt lat="49.43941" lon="5.73628">
        <ele>324.39999389648</ele>
        <time>2023-06-23T07:34:17Z</time>
      </trkpt>
      <trkpt lat="49.43937" lon="5.73645">
        <ele>324.20001220703</ele>
        <time>2023-06-23T07:34:19Z</time>
      </trkpt>
      <trkpt lat="49.43934" lon="5.73664">
        <ele>324</ele>
        <time>2023-06-23T07:34:21Z</time>
      </trkpt>
      <trkpt lat="49.43929" lon="5.73685">
        <ele>323.39999389648</ele>
        <time>2023-06-23T07:34:23Z</time>
      </trkpt>
      <trkpt lat="49.43925" lon="5.73708">
        <ele>322.79998779297</ele>
        <time>2023-06-23T07:34:25Z</time>
      </trkpt>
      <trkpt lat="49.4392" lon="5.73732">
        <ele>322.60000610352</ele>
        <time>2023-06-23T07:34:27Z</time>
      </trkpt>
      <trkpt lat="49.43915" lon="5.73758">
        <ele>321.79998779297</ele>
        <time>2023-06-23T07:34:29Z</time>
      </trkpt>
      <trkpt lat="49.43913" lon="5.73771">
        <ele>321.20001220703</ele>
        <time>2023-06-23T07:34:30Z</time>
      </trkpt>
      <trkpt lat="49.4391" lon="5.73784">
        <ele>320.39999389648</ele>
        <time>2023-06-23T07:34:31Z</time>
      </trkpt>
      <trkpt lat="49.43908" lon="5.73796">
        <ele>319.79998779297</ele>
        <time>2023-06-23T07:34:32Z</time>
      </trkpt>
      <trkpt lat="49.43905" lon="5.73809">
        <ele>319.39999389648</ele>
        <time>2023-06-23T07:34:33Z</time>
      </trkpt>
      <trkpt lat="49.43903" lon="5.73821">
        <ele>318.60000610352</ele>
        <time>2023-06-23T07:34:34Z</time>
      </trkpt>
      <trkpt lat="49.439" lon="5.73833">
        <ele>317.60000610352</ele>
        <time>2023-06-23T07:34:35Z</time>
      </trkpt>
      <trkpt lat="49.43898" lon="5.73845">
        <ele>316.79998779297</ele>
        <time>2023-06-23T07:34:36Z</time>
      </trkpt>
      <trkpt lat="49.43896" lon="5.73858">
        <ele>316.20001220703</ele>
        <time>2023-06-23T07:34:37Z</time>
      </trkpt>
      <trkpt lat="49.43892" lon="5.73881">
        <ele>315.39999389648</ele>
        <time>2023-06-23T07:34:39Z</time>
      </trkpt>
      <trkpt lat="49.43886" lon="5.73902">
        <ele>313.79998779297</ele>
        <time>2023-06-23T07:34:41Z</time>
      </trkpt>
      <trkpt lat="49.43881" lon="5.73922">
        <ele>313.20001220703</ele>
        <time>2023-06-23T07:34:43Z</time>
      </trkpt>
      <trkpt lat="49.43876" lon="5.73941">
        <ele>313</ele>
        <time>2023-06-23T07:34:45Z</time>
      </trkpt>
      <trkpt lat="49.43874" lon="5.73951">
        <ele>312.39999389648</ele>
        <time>2023-06-23T07:34:46Z</time>
      </trkpt>
      <trkpt lat="49.43872" lon="5.7396">
        <ele>312</ele>
        <time>2023-06-23T07:34:47Z</time>
      </trkpt>
      <trkpt lat="49.4387" lon="5.7397">
        <ele>311.79998779297</ele>
        <time>2023-06-23T07:34:48Z</time>
      </trkpt>
      <trkpt lat="49.43868" lon="5.73979">
        <ele>311.60000610352</ele>
        <time>2023-06-23T07:34:49Z</time>
      </trkpt>
      <trkpt lat="49.43863" lon="5.73997">
        <ele>311.60000610352</ele>
        <time>2023-06-23T07:34:51Z</time>
      </trkpt>
      <trkpt lat="49.43859" lon="5.74016">
        <ele>311.60000610352</ele>
        <time>2023-06-23T07:34:53Z</time>
      </trkpt>
      <trkpt lat="49.43855" lon="5.74035">
        <ele>311.39999389648</ele>
        <time>2023-06-23T07:34:55Z</time>
      </trkpt>
      <trkpt lat="49.43852" lon="5.74044">
        <ele>311.39999389648</ele>
        <time>2023-06-23T07:34:56Z</time>
      </trkpt>
      <trkpt lat="49.4385" lon="5.74054">
        <ele>311.39999389648</ele>
        <time>2023-06-23T07:34:57Z</time>
      </trkpt>
      <trkpt lat="49.43845" lon="5.74074">
        <ele>311.20001220703</ele>
        <time>2023-06-23T07:34:59Z</time>
      </trkpt>
      <trkpt lat="49.4384" lon="5.74095">
        <ele>310.79998779297</ele>
        <time>2023-06-23T07:35:01Z</time>
      </trkpt>
      <trkpt lat="49.43836" lon="5.74106">
        <ele>310.60000610352</ele>
        <time>2023-06-23T07:35:02Z</time>
      </trkpt>
      <trkpt lat="49.43831" lon="5.74117">
        <ele>310.60000610352</ele>
        <time>2023-06-23T07:35:03Z</time>
      </trkpt>
      <trkpt lat="49.43825" lon="5.74126">
        <ele>310.39999389648</ele>
        <time>2023-06-23T07:35:04Z</time>
      </trkpt>
      <trkpt lat="49.43818" lon="5.74135">
        <ele>310.39999389648</ele>
        <time>2023-06-23T07:35:05Z</time>
      </trkpt>
      <trkpt lat="49.43811" lon="5.74143">
        <ele>310</ele>
        <time>2023-06-23T07:35:06Z</time>
      </trkpt>
      <trkpt lat="49.43803" lon="5.74151">
        <ele>309.39999389648</ele>
        <time>2023-06-23T07:35:07Z</time>
      </trkpt>
      <trkpt lat="49.43795" lon="5.74158">
        <ele>308.79998779297</ele>
        <time>2023-06-23T07:35:08Z</time>
      </trkpt>
      <trkpt lat="49.43788" lon="5.74165">
        <ele>307.20001220703</ele>
        <time>2023-06-23T07:35:09Z</time>
      </trkpt>
      <trkpt lat="49.43782" lon="5.74172">
        <ele>306</ele>
        <time>2023-06-23T07:35:10Z</time>
      </trkpt>
      <trkpt lat="49.43776" lon="5.74181">
        <ele>304.79998779297</ele>
        <time>2023-06-23T07:35:11Z</time>
      </trkpt>
      <trkpt lat="49.43772" lon="5.74193">
        <ele>303.79998779297</ele>
        <time>2023-06-23T07:35:12Z</time>
      </trkpt>
      <trkpt lat="49.43768" lon="5.74205">
        <ele>302.60000610352</ele>
        <time>2023-06-23T07:35:13Z</time>
      </trkpt>
      <trkpt lat="49.43765" lon="5.74216">
        <ele>301.60000610352</ele>
        <time>2023-06-23T07:35:14Z</time>
      </trkpt>
      <trkpt lat="49.43762" lon="5.74225">
        <ele>300.79998779297</ele>
        <time>2023-06-23T07:35:15Z</time>
      </trkpt>
      <trkpt lat="49.43759" lon="5.74231">
        <ele>300.39999389648</ele>
        <time>2023-06-23T07:35:16Z</time>
      </trkpt>
      <trkpt lat="49.43756" lon="5.74235">
        <ele>299.79998779297</ele>
        <time>2023-06-23T07:35:17Z</time>
      </trkpt>
      <trkpt lat="49.43753" lon="5.74235">
        <ele>299.20001220703</ele>
        <time>2023-06-23T07:35:18Z</time>
      </trkpt>
      <trkpt lat="49.4375" lon="5.74233">
        <ele>298.39999389648</ele>
        <time>2023-06-23T07:35:19Z</time>
      </trkpt>
      <trkpt lat="49.43747" lon="5.74229">
        <ele>297.20001220703</ele>
        <time>2023-06-23T07:35:20Z</time>
      </trkpt>
      <trkpt lat="49.43744" lon="5.74226">
        <ele>295.79998779297</ele>
        <time>2023-06-23T07:35:21Z</time>
      </trkpt>
      <trkpt lat="49.4374" lon="5.74223">
        <ele>295.20001220703</ele>
        <time>2023-06-23T07:35:22Z</time>
      </trkpt>
      <trkpt lat="49.43737" lon="5.74221">
        <ele>294.79998779297</ele>
        <time>2023-06-23T07:35:23Z</time>
      </trkpt>
      <trkpt lat="49.4373" lon="5.74219">
        <ele>294.39999389648</ele>
        <time>2023-06-23T07:35:25Z</time>
      </trkpt>
      <trkpt lat="49.43726" lon="5.7422">
        <ele>294.39999389648</ele>
        <time>2023-06-23T07:35:26Z</time>
      </trkpt>
      <trkpt lat="49.43722" lon="5.74224">
        <ele>294.39999389648</ele>
        <time>2023-06-23T07:35:27Z</time>
      </trkpt>
      <trkpt lat="49.43712" lon="5.74235">
        <ele>294</ele>
        <time>2023-06-23T07:35:29Z</time>
      </trkpt>
      <trkpt lat="49.43701" lon="5.74247">
        <ele>294</ele>
        <time>2023-06-23T07:35:31Z</time>
      </trkpt>
      <trkpt lat="49.43688" lon="5.74259">
        <ele>293.79998779297</ele>
        <time>2023-06-23T07:35:33Z</time>
      </trkpt>
      <trkpt lat="49.43673" lon="5.7427">
        <ele>293.79998779297</ele>
        <time>2023-06-23T07:35:35Z</time>
      </trkpt>
      <trkpt lat="49.43666" lon="5.74276">
        <ele>293.79998779297</ele>
        <time>2023-06-23T07:35:36Z</time>
      </trkpt>
      <trkpt lat="49.43658" lon="5.74281">
        <ele>293.20001220703</ele>
        <time>2023-06-23T07:35:37Z</time>
      </trkpt>
      <trkpt lat="49.4365" lon="5.74286">
        <ele>292.39999389648</ele>
        <time>2023-06-23T07:35:38Z</time>
      </trkpt>
      <trkpt lat="49.43643" lon="5.7429">
        <ele>291.60000610352</ele>
        <time>2023-06-23T07:35:39Z</time>
      </trkpt>
      <trkpt lat="49.43635" lon="5.74294">
        <ele>290.79998779297</ele>
        <time>2023-06-23T07:35:40Z</time>
      </trkpt>
      <trkpt lat="49.43627" lon="5.74298">
        <ele>290.39999389648</ele>
        <time>2023-06-23T07:35:41Z</time>
      </trkpt>
      <trkpt lat="49.43619" lon="5.74301">
        <ele>290</ele>
        <time>2023-06-23T07:35:42Z</time>
      </trkpt>
      <trkpt lat="49.43612" lon="5.74303">
        <ele>289.60000610352</ele>
        <time>2023-06-23T07:35:43Z</time>
      </trkpt>
      <trkpt lat="49.43597" lon="5.74307">
        <ele>289</ele>
        <time>2023-06-23T07:35:45Z</time>
      </trkpt>
      <trkpt lat="49.43582" lon="5.7431">
        <ele>288.60000610352</ele>
        <time>2023-06-23T07:35:47Z</time>
      </trkpt>
      <trkpt lat="49.43567" lon="5.74314">
        <ele>288.60000610352</ele>
        <time>2023-06-23T07:35:49Z</time>
      </trkpt>
      <trkpt lat="49.43554" lon="5.7432">
        <ele>288.39999389648</ele>
        <time>2023-06-23T07:35:51Z</time>
      </trkpt>
      <trkpt lat="49.43548" lon="5.74324">
        <ele>288.20001220703</ele>
        <time>2023-06-23T07:35:52Z</time>
      </trkpt>
      <trkpt lat="49.43542" lon="5.74328">
        <ele>288</ele>
        <time>2023-06-23T07:35:53Z</time>
      </trkpt>
      <trkpt lat="49.43529" lon="5.74335">
        <ele>287.39999389648</ele>
        <time>2023-06-23T07:35:55Z</time>
      </trkpt>
      <trkpt lat="49.43518" lon="5.74343">
        <ele>287</ele>
        <time>2023-06-23T07:35:57Z</time>
      </trkpt>
      <trkpt lat="49.43513" lon="5.74347">
        <ele>286.79998779297</ele>
        <time>2023-06-23T07:35:58Z</time>
      </trkpt>
      <trkpt lat="49.43508" lon="5.7435">
        <ele>286.79998779297</ele>
        <time>2023-06-23T07:35:59Z</time>
      </trkpt>
      <trkpt lat="49.43498" lon="5.74359">
        <ele>286.79998779297</ele>
        <time>2023-06-23T07:36:01Z</time>
      </trkpt>
      <trkpt lat="49.43493" lon="5.74361">
        <ele>286.60000610352</ele>
        <time>2023-06-23T07:36:02Z</time>
      </trkpt>
      <trkpt lat="49.43488" lon="5.74363">
        <ele>286.60000610352</ele>
        <time>2023-06-23T07:36:03Z</time>
      </trkpt>
      <trkpt lat="49.43484" lon="5.74365">
        <ele>286.39999389648</ele>
        <time>2023-06-23T07:36:04Z</time>
      </trkpt>
      <trkpt lat="49.4348" lon="5.74368">
        <ele>286.39999389648</ele>
        <time>2023-06-23T07:36:05Z</time>
      </trkpt>
      <trkpt lat="49.43471" lon="5.74374">
        <ele>286.20001220703</ele>
        <time>2023-06-23T07:36:07Z</time>
      </trkpt>
      <trkpt lat="49.43467" lon="5.74377">
        <ele>286.20001220703</ele>
        <time>2023-06-23T07:36:08Z</time>
      </trkpt>
      <trkpt lat="49.43462" lon="5.7438">
        <ele>286.20001220703</ele>
        <time>2023-06-23T07:36:09Z</time>
      </trkpt>
      <trkpt lat="49.43452" lon="5.74386">
        <ele>286.20001220703</ele>
        <time>2023-06-23T07:36:11Z</time>
      </trkpt>
      <trkpt lat="49.43447" lon="5.74393">
        <ele>286.20001220703</ele>
        <time>2023-06-23T07:36:12Z</time>
      </trkpt>
      <trkpt lat="49.43443" lon="5.74401">
        <ele>286</ele>
        <time>2023-06-23T07:36:13Z</time>
      </trkpt>
      <trkpt lat="49.43434" lon="5.7441">
        <ele>285.79998779297</ele>
        <time>2023-06-23T07:36:15Z</time>
      </trkpt>
      <trkpt lat="49.43424" lon="5.74412">
        <ele>285.20001220703</ele>
        <time>2023-06-23T07:36:17Z</time>
      </trkpt>
      <trkpt lat="49.4342" lon="5.74412">
        <ele>285.20001220703</ele>
        <time>2023-06-23T07:36:18Z</time>
      </trkpt>
      <trkpt lat="49.43414" lon="5.74412">
        <ele>285</ele>
        <time>2023-06-23T07:36:19Z</time>
      </trkpt>
      <trkpt lat="49.43401" lon="5.74416">
        <ele>283.79998779297</ele>
        <time>2023-06-23T07:36:21Z</time>
      </trkpt>
      <trkpt lat="49.43389" lon="5.74421">
        <ele>283</ele>
        <time>2023-06-23T07:36:23Z</time>
      </trkpt>
      <trkpt lat="49.43375" lon="5.74431">
        <ele>282.79998779297</ele>
        <time>2023-06-23T07:36:25Z</time>
      </trkpt>
      <trkpt lat="49.43359" lon="5.74438">
        <ele>282.39999389648</ele>
        <time>2023-06-23T07:36:27Z</time>
      </trkpt>
      <trkpt lat="49.43352" lon="5.74444">
        <ele>282.39999389648</ele>
        <time>2023-06-23T07:36:28Z</time>
      </trkpt>
      <trkpt lat="49.43345" lon="5.74448">
        <ele>282.20001220703</ele>
        <time>2023-06-23T07:36:29Z</time>
      </trkpt>
      <trkpt lat="49.43332" lon="5.74456">
        <ele>281.20001220703</ele>
        <time>2023-06-23T07:36:31Z</time>
      </trkpt>
      <trkpt lat="49.43318" lon="5.74465">
        <ele>278.39999389648</ele>
        <time>2023-06-23T07:36:33Z</time>
      </trkpt>
      <trkpt lat="49.43305" lon="5.74475">
        <ele>277</ele>
        <time>2023-06-23T07:36:35Z</time>
      </trkpt>
      <trkpt lat="49.43293" lon="5.74488">
        <ele>276</ele>
        <time>2023-06-23T07:36:37Z</time>
      </trkpt>
      <trkpt lat="49.43287" lon="5.74494">
        <ele>275.79998779297</ele>
        <time>2023-06-23T07:36:38Z</time>
      </trkpt>
      <trkpt lat="49.43279" lon="5.74501">
        <ele>275.20001220703</ele>
        <time>2023-06-23T07:36:39Z</time>
      </trkpt>
      <trkpt lat="49.43264" lon="5.74514">
        <ele>274.60000610352</ele>
        <time>2023-06-23T07:36:41Z</time>
      </trkpt>
      <trkpt lat="49.43256" lon="5.74519">
        <ele>274.20001220703</ele>
        <time>2023-06-23T07:36:42Z</time>
      </trkpt>
      <trkpt lat="49.43243" lon="5.74534">
        <ele>273.79998779297</ele>
        <time>2023-06-23T07:36:43Z</time>
      </trkpt>
      <trkpt lat="49.43234" lon="5.74541">
        <ele>273.20001220703</ele>
        <time>2023-06-23T07:36:44Z</time>
      </trkpt>
      <trkpt lat="49.43226" lon="5.74548">
        <ele>272.60000610352</ele>
        <time>2023-06-23T07:36:45Z</time>
      </trkpt>
      <trkpt lat="49.43218" lon="5.74553">
        <ele>272.20001220703</ele>
        <time>2023-06-23T07:36:46Z</time>
      </trkpt>
      <trkpt lat="49.43211" lon="5.7456">
        <ele>271.60000610352</ele>
        <time>2023-06-23T07:36:47Z</time>
      </trkpt>
      <trkpt lat="49.43203" lon="5.74568">
        <ele>271</ele>
        <time>2023-06-23T07:36:48Z</time>
      </trkpt>
      <trkpt lat="49.43195" lon="5.74575">
        <ele>270.60000610352</ele>
        <time>2023-06-23T07:36:49Z</time>
      </trkpt>
      <trkpt lat="49.43179" lon="5.74593">
        <ele>269.60000610352</ele>
        <time>2023-06-23T07:36:51Z</time>
      </trkpt>
      <trkpt lat="49.43165" lon="5.74611">
        <ele>268.79998779297</ele>
        <time>2023-06-23T07:36:53Z</time>
      </trkpt>
      <trkpt lat="49.43159" lon="5.74621">
        <ele>268.60000610352</ele>
        <time>2023-06-23T07:36:54Z</time>
      </trkpt>
      <trkpt lat="49.43153" lon="5.74631">
        <ele>268.39999389648</ele>
        <time>2023-06-23T07:36:55Z</time>
      </trkpt>
      <trkpt lat="49.43137" lon="5.74649">
        <ele>267.20001220703</ele>
        <time>2023-06-23T07:36:57Z</time>
      </trkpt>
      <trkpt lat="49.43129" lon="5.74658">
        <ele>266.20001220703</ele>
        <time>2023-06-23T07:36:58Z</time>
      </trkpt>
      <trkpt lat="49.43122" lon="5.7467">
        <ele>265.20001220703</ele>
        <time>2023-06-23T07:36:59Z</time>
      </trkpt>
      <trkpt lat="49.43111" lon="5.74681">
        <ele>263.79998779297</ele>
        <time>2023-06-23T07:37:01Z</time>
      </trkpt>
      <trkpt lat="49.43106" lon="5.74682">
        <ele>263.60000610352</ele>
        <time>2023-06-23T07:37:02Z</time>
      </trkpt>
      <trkpt lat="49.43099" lon="5.74689">
        <ele>263.39999389648</ele>
        <time>2023-06-23T07:37:03Z</time>
      </trkpt>
      <trkpt lat="49.43085" lon="5.74699">
        <ele>263.20001220703</ele>
        <time>2023-06-23T07:37:05Z</time>
      </trkpt>
      <trkpt lat="49.43081" lon="5.74704">
        <ele>263.20001220703</ele>
        <time>2023-06-23T07:37:06Z</time>
      </trkpt>
      <trkpt lat="49.43076" lon="5.74708">
        <ele>263.20001220703</ele>
        <time>2023-06-23T07:37:07Z</time>
      </trkpt>
      <trkpt lat="49.4307" lon="5.74718">
        <ele>263.20001220703</ele>
        <time>2023-06-23T07:37:09Z</time>
      </trkpt>
      <trkpt lat="49.43066" lon="5.74726">
        <ele>263.20001220703</ele>
        <time>2023-06-23T07:37:10Z</time>
      </trkpt>
      <trkpt lat="49.43062" lon="5.74733">
        <ele>263.20001220703</ele>
        <time>2023-06-23T07:37:11Z</time>
      </trkpt>
      <trkpt lat="49.43055" lon="5.74743">
        <ele>263</ele>
        <time>2023-06-23T07:37:13Z</time>
      </trkpt>
      <trkpt lat="49.43052" lon="5.74745">
        <ele>263</ele>
        <time>2023-06-23T07:37:14Z</time>
      </trkpt>
      <trkpt lat="49.43049" lon="5.74751">
        <ele>262.79998779297</ele>
        <time>2023-06-23T07:37:15Z</time>
      </trkpt>
      <trkpt lat="49.43044" lon="5.74755">
        <ele>261.20001220703</ele>
        <time>2023-06-23T07:37:17Z</time>
      </trkpt>
      <trkpt lat="49.43042" lon="5.74757">
        <ele>259.79998779297</ele>
        <time>2023-06-23T07:37:18Z</time>
      </trkpt>
      <trkpt lat="49.43041" lon="5.74759">
        <ele>258</ele>
        <time>2023-06-23T07:37:19Z</time>
      </trkpt>
      <trkpt lat="49.43039" lon="5.7476">
        <ele>257</ele>
        <time>2023-06-23T07:37:20Z</time>
      </trkpt>
      <trkpt lat="49.43038" lon="5.74761">
        <ele>256.39999389648</ele>
        <time>2023-06-23T07:37:21Z</time>
      </trkpt>
      <trkpt lat="49.43035" lon="5.74763">
        <ele>255.80000305176</ele>
        <time>2023-06-23T07:37:23Z</time>
      </trkpt>
      <trkpt lat="49.43034" lon="5.74765">
        <ele>255.60000610352</ele>
        <time>2023-06-23T07:37:25Z</time>
      </trkpt>
      <trkpt lat="49.43033" lon="5.74766">
        <ele>255.60000610352</ele>
        <time>2023-06-23T07:37:26Z</time>
      </trkpt>
      <trkpt lat="49.43032" lon="5.74767">
        <ele>255.60000610352</ele>
        <time>2023-06-23T07:37:27Z</time>
      </trkpt>
      <trkpt lat="49.43029" lon="5.74769">
        <ele>255.39999389648</ele>
        <time>2023-06-23T07:37:29Z</time>
      </trkpt>
      <trkpt lat="49.43027" lon="5.74773">
        <ele>255.19999694824</ele>
        <time>2023-06-23T07:37:31Z</time>
      </trkpt>
      <trkpt lat="49.43026" lon="5.74775">
        <ele>255</ele>
        <time>2023-06-23T07:37:32Z</time>
      </trkpt>
      <trkpt lat="49.43012" lon="5.7479">
        <ele>254.60000610352</ele>
        <time>2023-06-23T07:37:40Z</time>
      </trkpt>
      <trkpt lat="49.4301" lon="5.74791">
        <ele>254.39999389648</ele>
        <time>2023-06-23T07:37:41Z</time>
      </trkpt>
      <trkpt lat="49.43004" lon="5.74795">
        <ele>254.39999389648</ele>
        <time>2023-06-23T07:37:43Z</time>
      </trkpt>
      <trkpt lat="49.43001" lon="5.74796">
        <ele>254.39999389648</ele>
        <time>2023-06-23T07:37:44Z</time>
      </trkpt>
      <trkpt lat="49.42997" lon="5.74798">
        <ele>254.39999389648</ele>
        <time>2023-06-23T07:37:45Z</time>
      </trkpt>
      <trkpt lat="49.42988" lon="5.748">
        <ele>254.19999694824</ele>
        <time>2023-06-23T07:37:47Z</time>
      </trkpt>
      <trkpt lat="49.42978" lon="5.74802">
        <ele>253.80000305176</ele>
        <time>2023-06-23T07:37:49Z</time>
      </trkpt>
      <trkpt lat="49.42973" lon="5.74803">
        <ele>253.60000610352</ele>
        <time>2023-06-23T07:37:50Z</time>
      </trkpt>
      <trkpt lat="49.42968" lon="5.74804">
        <ele>253.60000610352</ele>
        <time>2023-06-23T07:37:51Z</time>
      </trkpt>
      <trkpt lat="49.42959" lon="5.74805">
        <ele>252.80000305176</ele>
        <time>2023-06-23T07:37:53Z</time>
      </trkpt>
      <trkpt lat="49.42954" lon="5.74806">
        <ele>252.60000610352</ele>
        <time>2023-06-23T07:37:54Z</time>
      </trkpt>
      <trkpt lat="49.42949" lon="5.74806">
        <ele>252.39999389648</ele>
        <time>2023-06-23T07:37:55Z</time>
      </trkpt>
      <trkpt lat="49.4294" lon="5.74807">
        <ele>252.19999694824</ele>
        <time>2023-06-23T07:37:57Z</time>
      </trkpt>
      <trkpt lat="49.42931" lon="5.74809">
        <ele>252.19999694824</ele>
        <time>2023-06-23T07:37:59Z</time>
      </trkpt>
      <trkpt lat="49.42923" lon="5.74811">
        <ele>252</ele>
        <time>2023-06-23T07:38:01Z</time>
      </trkpt>
      <trkpt lat="49.42915" lon="5.74814">
        <ele>252</ele>
        <time>2023-06-23T07:38:03Z</time>
      </trkpt>
      <trkpt lat="49.42908" lon="5.74816">
        <ele>252.19999694824</ele>
        <time>2023-06-23T07:38:05Z</time>
      </trkpt>
      <trkpt lat="49.42904" lon="5.74818">
        <ele>252.19999694824</ele>
        <time>2023-06-23T07:38:06Z</time>
      </trkpt>
      <trkpt lat="49.42901" lon="5.7482">
        <ele>252.19999694824</ele>
        <time>2023-06-23T07:38:07Z</time>
      </trkpt>
      <trkpt lat="49.42895" lon="5.74824">
        <ele>252.39999389648</ele>
        <time>2023-06-23T07:38:09Z</time>
      </trkpt>
      <trkpt lat="49.42888" lon="5.7483">
        <ele>252.39999389648</ele>
        <time>2023-06-23T07:38:11Z</time>
      </trkpt>
      <trkpt lat="49.42885" lon="5.74833">
        <ele>252.39999389648</ele>
        <time>2023-06-23T07:38:12Z</time>
      </trkpt>
      <trkpt lat="49.42882" lon="5.74838">
        <ele>252.39999389648</ele>
        <time>2023-06-23T07:38:13Z</time>
      </trkpt>
      <trkpt lat="49.42878" lon="5.74848">
        <ele>252.19999694824</ele>
        <time>2023-06-23T07:38:15Z</time>
      </trkpt>
      <trkpt lat="49.42872" lon="5.74857">
        <ele>252.19999694824</ele>
        <time>2023-06-23T07:38:17Z</time>
      </trkpt>
      <trkpt lat="49.42865" lon="5.74863">
        <ele>252</ele>
        <time>2023-06-23T07:38:19Z</time>
      </trkpt>
      <trkpt lat="49.42861" lon="5.74869">
        <ele>251</ele>
        <time>2023-06-23T07:38:21Z</time>
      </trkpt>
      <trkpt lat="49.4286" lon="5.74875">
        <ele>250.60000610352</ele>
        <time>2023-06-23T07:38:23Z</time>
      </trkpt>
      <trkpt lat="49.4286" lon="5.74882">
        <ele>250</ele>
        <time>2023-06-23T07:38:25Z</time>
      </trkpt>
      <trkpt lat="49.4286" lon="5.74885">
        <ele>250</ele>
        <time>2023-06-23T07:38:26Z</time>
      </trkpt>
      <trkpt lat="49.4286" lon="5.74889">
        <ele>250</ele>
        <time>2023-06-23T07:38:27Z</time>
      </trkpt>
      <trkpt lat="49.42859" lon="5.74896">
        <ele>249.80000305176</ele>
        <time>2023-06-23T07:38:29Z</time>
      </trkpt>
      <trkpt lat="49.42859" lon="5.74902">
        <ele>249.80000305176</ele>
        <time>2023-06-23T07:38:31Z</time>
      </trkpt>
      <trkpt lat="49.42859" lon="5.74908">
        <ele>250</ele>
        <time>2023-06-23T07:38:33Z</time>
      </trkpt>
      <trkpt lat="49.42858" lon="5.74914">
        <ele>250.39999389648</ele>
        <time>2023-06-23T07:38:35Z</time>
      </trkpt>
      <trkpt lat="49.42858" lon="5.74919">
        <ele>250.80000305176</ele>
        <time>2023-06-23T07:38:37Z</time>
      </trkpt>
      <trkpt lat="49.42857" lon="5.74925">
        <ele>251</ele>
        <time>2023-06-23T07:38:39Z</time>
      </trkpt>
      <trkpt lat="49.42856" lon="5.74931">
        <ele>251</ele>
        <time>2023-06-23T07:38:41Z</time>
      </trkpt>
      <trkpt lat="49.42856" lon="5.74937">
        <ele>251</ele>
        <time>2023-06-23T07:38:43Z</time>
      </trkpt>
      <trkpt lat="49.42855" lon="5.74943">
        <ele>251</ele>
        <time>2023-06-23T07:38:45Z</time>
      </trkpt>
      <trkpt lat="49.42854" lon="5.74949">
        <ele>251</ele>
        <time>2023-06-23T07:38:47Z</time>
      </trkpt>
      <trkpt lat="49.42853" lon="5.74951">
        <ele>251</ele>
        <time>2023-06-23T07:38:48Z</time>
      </trkpt>
      <trkpt lat="49.42853" lon="5.74954">
        <ele>251</ele>
        <time>2023-06-23T07:38:49Z</time>
      </trkpt>
      <trkpt lat="49.42852" lon="5.7496">
        <ele>251.19999694824</ele>
        <time>2023-06-23T07:38:51Z</time>
      </trkpt>
      <trkpt lat="49.42851" lon="5.74967">
        <ele>251.39999389648</ele>
        <time>2023-06-23T07:38:53Z</time>
      </trkpt>
      <trkpt lat="49.4285" lon="5.74973">
        <ele>251.39999389648</ele>
        <time>2023-06-23T07:38:55Z</time>
      </trkpt>
      <trkpt lat="49.42849" lon="5.74978">
        <ele>251.39999389648</ele>
        <time>2023-06-23T07:38:57Z</time>
      </trkpt>
      <trkpt lat="49.42848" lon="5.74985">
        <ele>251.39999389648</ele>
        <time>2023-06-23T07:38:59Z</time>
      </trkpt>
      <trkpt lat="49.42846" lon="5.74992">
        <ele>251.39999389648</ele>
        <time>2023-06-23T07:39:01Z</time>
      </trkpt>
      <trkpt lat="49.42845" lon="5.74995">
        <ele>251.39999389648</ele>
        <time>2023-06-23T07:39:02Z</time>
      </trkpt>
      <trkpt lat="49.42844" lon="5.75002">
        <ele>251.60000610352</ele>
        <time>2023-06-23T07:39:04Z</time>
      </trkpt>
      <trkpt lat="49.42842" lon="5.7501">
        <ele>251.80000305176</ele>
        <time>2023-06-23T07:39:06Z</time>
      </trkpt>
      <trkpt lat="49.42841" lon="5.75017">
        <ele>252</ele>
        <time>2023-06-23T07:39:08Z</time>
      </trkpt>
      <trkpt lat="49.4284" lon="5.75025">
        <ele>252</ele>
        <time>2023-06-23T07:39:10Z</time>
      </trkpt>
      <trkpt lat="49.42839" lon="5.75033">
        <ele>252</ele>
        <time>2023-06-23T07:39:12Z</time>
      </trkpt>
      <trkpt lat="49.42837" lon="5.7504">
        <ele>252.60000610352</ele>
        <time>2023-06-23T07:39:14Z</time>
      </trkpt>
      <trkpt lat="49.42836" lon="5.75048">
        <ele>253</ele>
        <time>2023-06-23T07:39:16Z</time>
      </trkpt>
      <trkpt lat="49.42836" lon="5.75052">
        <ele>253.19999694824</ele>
        <time>2023-06-23T07:39:17Z</time>
      </trkpt>
      <trkpt lat="49.42835" lon="5.75056">
        <ele>253.19999694824</ele>
        <time>2023-06-23T07:39:18Z</time>
      </trkpt>
      <trkpt lat="49.42834" lon="5.7506">
        <ele>253.39999389648</ele>
        <time>2023-06-23T07:39:19Z</time>
      </trkpt>
      <trkpt lat="49.42834" lon="5.75065">
        <ele>253.60000610352</ele>
        <time>2023-06-23T07:39:20Z</time>
      </trkpt>
      <trkpt lat="49.42833" lon="5.75073">
        <ele>253.80000305176</ele>
        <time>2023-06-23T07:39:22Z</time>
      </trkpt>
      <trkpt lat="49.42833" lon="5.75078">
        <ele>254</ele>
        <time>2023-06-23T07:39:23Z</time>
      </trkpt>
      <trkpt lat="49.42832" lon="5.75082">
        <ele>254.19999694824</ele>
        <time>2023-06-23T07:39:24Z</time>
      </trkpt>
      <trkpt lat="49.42832" lon="5.7509">
        <ele>254.60000610352</ele>
        <time>2023-06-23T07:39:26Z</time>
      </trkpt>
      <trkpt lat="49.42832" lon="5.75099">
        <ele>254.80000305176</ele>
        <time>2023-06-23T07:39:28Z</time>
      </trkpt>
      <trkpt lat="49.42832" lon="5.75103">
        <ele>255</ele>
        <time>2023-06-23T07:39:29Z</time>
      </trkpt>
      <trkpt lat="49.42832" lon="5.75107">
        <ele>255.19999694824</ele>
        <time>2023-06-23T07:39:30Z</time>
      </trkpt>
      <trkpt lat="49.42832" lon="5.75115">
        <ele>255.39999389648</ele>
        <time>2023-06-23T07:39:32Z</time>
      </trkpt>
      <trkpt lat="49.42833" lon="5.75122">
        <ele>255.60000610352</ele>
        <time>2023-06-23T07:39:34Z</time>
      </trkpt>
      <trkpt lat="49.42832" lon="5.75129">
        <ele>256</ele>
        <time>2023-06-23T07:39:36Z</time>
      </trkpt>
      <trkpt lat="49.42832" lon="5.75132">
        <ele>256.20001220703</ele>
        <time>2023-06-23T07:39:37Z</time>
      </trkpt>
      <trkpt lat="49.42832" lon="5.75136">
        <ele>256.39999389648</ele>
        <time>2023-06-23T07:39:38Z</time>
      </trkpt>
      <trkpt lat="49.42831" lon="5.75145">
        <ele>256.60000610352</ele>
        <time>2023-06-23T07:39:40Z</time>
      </trkpt>
      <trkpt lat="49.42832" lon="5.75155">
        <ele>256.79998779297</ele>
        <time>2023-06-23T07:39:42Z</time>
      </trkpt>
      <trkpt lat="49.42833" lon="5.7516">
        <ele>256.79998779297</ele>
        <time>2023-06-23T07:39:43Z</time>
      </trkpt>
      <trkpt lat="49.42834" lon="5.75167">
        <ele>256.79998779297</ele>
        <time>2023-06-23T07:39:44Z</time>
      </trkpt>
      <trkpt lat="49.42835" lon="5.7518">
        <ele>256.79998779297</ele>
        <time>2023-06-23T07:39:46Z</time>
      </trkpt>
      <trkpt lat="49.42832" lon="5.75193">
        <ele>256.79998779297</ele>
        <time>2023-06-23T07:39:48Z</time>
      </trkpt>
      <trkpt lat="49.42825" lon="5.75205">
        <ele>256.60000610352</ele>
        <time>2023-06-23T07:39:50Z</time>
      </trkpt>
      <trkpt lat="49.42819" lon="5.75216">
        <ele>255.80000305176</ele>
        <time>2023-06-23T07:39:52Z</time>
      </trkpt>
      <trkpt lat="49.42816" lon="5.75229">
        <ele>255.19999694824</ele>
        <time>2023-06-23T07:39:54Z</time>
      </trkpt>
      <trkpt lat="49.42815" lon="5.75237">
        <ele>255</ele>
        <time>2023-06-23T07:39:55Z</time>
      </trkpt>
      <trkpt lat="49.42815" lon="5.75245">
        <ele>254.80000305176</ele>
        <time>2023-06-23T07:39:56Z</time>
      </trkpt>
      <trkpt lat="49.42815" lon="5.75254">
        <ele>254.19999694824</ele>
        <time>2023-06-23T07:39:57Z</time>
      </trkpt>
      <trkpt lat="49.42815" lon="5.75263">
        <ele>253.80000305176</ele>
        <time>2023-06-23T07:39:58Z</time>
      </trkpt>
      <trkpt lat="49.42816" lon="5.75271">
        <ele>253.60000610352</ele>
        <time>2023-06-23T07:39:59Z</time>
      </trkpt>
      <trkpt lat="49.42817" lon="5.7528">
        <ele>253.39999389648</ele>
        <time>2023-06-23T07:40:00Z</time>
      </trkpt>
      <trkpt lat="49.42819" lon="5.75297">
        <ele>253.19999694824</ele>
        <time>2023-06-23T07:40:02Z</time>
      </trkpt>
      <trkpt lat="49.42818" lon="5.75314">
        <ele>252.80000305176</ele>
        <time>2023-06-23T07:40:04Z</time>
      </trkpt>
      <trkpt lat="49.42814" lon="5.7533">
        <ele>251.39999389648</ele>
        <time>2023-06-23T07:40:06Z</time>
      </trkpt>
      <trkpt lat="49.42808" lon="5.75341">
        <ele>250.60000610352</ele>
        <time>2023-06-23T07:40:08Z</time>
      </trkpt>
      <trkpt lat="49.42805" lon="5.75346">
        <ele>250.39999389648</ele>
        <time>2023-06-23T07:40:09Z</time>
      </trkpt>
      <trkpt lat="49.42803" lon="5.75351">
        <ele>250.19999694824</ele>
        <time>2023-06-23T07:40:10Z</time>
      </trkpt>
      <trkpt lat="49.42798" lon="5.75359">
        <ele>250</ele>
        <time>2023-06-23T07:40:12Z</time>
      </trkpt>
      <trkpt lat="49.42793" lon="5.75365">
        <ele>250</ele>
        <time>2023-06-23T07:40:14Z</time>
      </trkpt>
      <trkpt lat="49.42789" lon="5.75373">
        <ele>250</ele>
        <time>2023-06-23T07:40:16Z</time>
      </trkpt>
      <trkpt lat="49.42785" lon="5.75379">
        <ele>250</ele>
        <time>2023-06-23T07:40:18Z</time>
      </trkpt>
      <trkpt lat="49.42783" lon="5.75382">
        <ele>250.39999389648</ele>
        <time>2023-06-23T07:40:19Z</time>
      </trkpt>
      <trkpt lat="49.42782" lon="5.75385">
        <ele>250.80000305176</ele>
        <time>2023-06-23T07:40:20Z</time>
      </trkpt>
      <trkpt lat="49.4278" lon="5.75392">
        <ele>251.19999694824</ele>
        <time>2023-06-23T07:40:22Z</time>
      </trkpt>
      <trkpt lat="49.42779" lon="5.75398">
        <ele>251.39999389648</ele>
        <time>2023-06-23T07:40:24Z</time>
      </trkpt>
      <trkpt lat="49.42779" lon="5.75401">
        <ele>251.39999389648</ele>
        <time>2023-06-23T07:40:25Z</time>
      </trkpt>
      <trkpt lat="49.42779" lon="5.75405">
        <ele>251.39999389648</ele>
        <time>2023-06-23T07:40:26Z</time>
      </trkpt>
      <trkpt lat="49.42779" lon="5.7541">
        <ele>251.60000610352</ele>
        <time>2023-06-23T07:40:28Z</time>
      </trkpt>
      <trkpt lat="49.42778" lon="5.75415">
        <ele>251.80000305176</ele>
        <time>2023-06-23T07:40:30Z</time>
      </trkpt>
      <trkpt lat="49.42777" lon="5.75421">
        <ele>252.39999389648</ele>
        <time>2023-06-23T07:40:32Z</time>
      </trkpt>
      <trkpt lat="49.42776" lon="5.75426">
        <ele>252.60000610352</ele>
        <time>2023-06-23T07:40:34Z</time>
      </trkpt>
      <trkpt lat="49.42776" lon="5.75428">
        <ele>253</ele>
        <time>2023-06-23T07:40:35Z</time>
      </trkpt>
      <trkpt lat="49.42775" lon="5.75429">
        <ele>253.19999694824</ele>
        <time>2023-06-23T07:40:36Z</time>
      </trkpt>
      <trkpt lat="49.42774" lon="5.75434">
        <ele>253.60000610352</ele>
        <time>2023-06-23T07:40:38Z</time>
      </trkpt>
      <trkpt lat="49.42772" lon="5.75438">
        <ele>254</ele>
        <time>2023-06-23T07:40:40Z</time>
      </trkpt>
      <trkpt lat="49.42772" lon="5.7544">
        <ele>254.60000610352</ele>
        <time>2023-06-23T07:40:41Z</time>
      </trkpt>
      <trkpt lat="49.42771" lon="5.75442">
        <ele>254.80000305176</ele>
        <time>2023-06-23T07:40:42Z</time>
      </trkpt>
      <trkpt lat="49.42769" lon="5.75445">
        <ele>255.19999694824</ele>
        <time>2023-06-23T07:40:44Z</time>
      </trkpt>
      <trkpt lat="49.42769" lon="5.75448">
        <ele>255.60000610352</ele>
        <time>2023-06-23T07:40:46Z</time>
      </trkpt>
      <trkpt lat="49.42769" lon="5.75449">
        <ele>255.80000305176</ele>
        <time>2023-06-23T07:40:47Z</time>
      </trkpt>
      <trkpt lat="49.42768" lon="5.75451">
        <ele>256.20001220703</ele>
        <time>2023-06-23T07:40:48Z</time>
      </trkpt>
      <trkpt lat="49.42768" lon="5.75455">
        <ele>256.79998779297</ele>
        <time>2023-06-23T07:40:50Z</time>
      </trkpt>
      <trkpt lat="49.42768" lon="5.75456">
        <ele>257.20001220703</ele>
        <time>2023-06-23T07:40:51Z</time>
      </trkpt>
      <trkpt lat="49.42767" lon="5.75458">
        <ele>257.60000610352</ele>
        <time>2023-06-23T07:40:52Z</time>
      </trkpt>
      <trkpt lat="49.42766" lon="5.75461">
        <ele>258.20001220703</ele>
        <time>2023-06-23T07:40:54Z</time>
      </trkpt>
      <trkpt lat="49.42765" lon="5.75465">
        <ele>258.79998779297</ele>
        <time>2023-06-23T07:40:56Z</time>
      </trkpt>
      <trkpt lat="49.42765" lon="5.75469">
        <ele>259.39999389648</ele>
        <time>2023-06-23T07:40:58Z</time>
      </trkpt>
      <trkpt lat="49.42766" lon="5.75471">
        <ele>259.79998779297</ele>
        <time>2023-06-23T07:41:00Z</time>
      </trkpt>
      <trkpt lat="49.42765" lon="5.75475">
        <ele>260.39999389648</ele>
        <time>2023-06-23T07:41:02Z</time>
      </trkpt>
      <trkpt lat="49.42764" lon="5.75478">
        <ele>260.79998779297</ele>
        <time>2023-06-23T07:41:04Z</time>
      </trkpt>
      <trkpt lat="49.42763" lon="5.75482">
        <ele>261.20001220703</ele>
        <time>2023-06-23T07:41:06Z</time>
      </trkpt>
      <trkpt lat="49.42763" lon="5.75484">
        <ele>261.60000610352</ele>
        <time>2023-06-23T07:41:07Z</time>
      </trkpt>
      <trkpt lat="49.42762" lon="5.75486">
        <ele>262</ele>
        <time>2023-06-23T07:41:08Z</time>
      </trkpt>
      <trkpt lat="49.42761" lon="5.75489">
        <ele>262.60000610352</ele>
        <time>2023-06-23T07:41:10Z</time>
      </trkpt>
      <trkpt lat="49.4276" lon="5.75493">
        <ele>263.20001220703</ele>
        <time>2023-06-23T07:41:12Z</time>
      </trkpt>
      <trkpt lat="49.42759" lon="5.75496">
        <ele>263.60000610352</ele>
        <time>2023-06-23T07:41:14Z</time>
      </trkpt>
      <trkpt lat="49.42758" lon="5.75497">
        <ele>263.79998779297</ele>
        <time>2023-06-23T07:41:15Z</time>
      </trkpt>
      <trkpt lat="49.42758" lon="5.75499">
        <ele>264</ele>
        <time>2023-06-23T07:41:16Z</time>
      </trkpt>
      <trkpt lat="49.42757" lon="5.75503">
        <ele>264.60000610352</ele>
        <time>2023-06-23T07:41:18Z</time>
      </trkpt>
      <trkpt lat="49.42757" lon="5.75504">
        <ele>264.79998779297</ele>
        <time>2023-06-23T07:41:19Z</time>
      </trkpt>
      <trkpt lat="49.42757" lon="5.75507">
        <ele>265.20001220703</ele>
        <time>2023-06-23T07:41:20Z</time>
      </trkpt>
      <trkpt lat="49.42756" lon="5.7551">
        <ele>265.60000610352</ele>
        <time>2023-06-23T07:41:22Z</time>
      </trkpt>
      <trkpt lat="49.42758" lon="5.75514">
        <ele>266</ele>
        <time>2023-06-23T07:41:24Z</time>
      </trkpt>
      <trkpt lat="49.42757" lon="5.75517">
        <ele>266.39999389648</ele>
        <time>2023-06-23T07:41:26Z</time>
      </trkpt>
      <trkpt lat="49.42757" lon="5.7552">
        <ele>267</ele>
        <time>2023-06-23T07:41:28Z</time>
      </trkpt>
      <trkpt lat="49.42756" lon="5.75523">
        <ele>267.79998779297</ele>
        <time>2023-06-23T07:41:30Z</time>
      </trkpt>
      <trkpt lat="49.42756" lon="5.75525">
        <ele>268.39999389648</ele>
        <time>2023-06-23T07:41:32Z</time>
      </trkpt>
      <trkpt lat="49.42756" lon="5.75528">
        <ele>268.79998779297</ele>
        <time>2023-06-23T07:41:34Z</time>
      </trkpt>
      <trkpt lat="49.42756" lon="5.7553">
        <ele>269.39999389648</ele>
        <time>2023-06-23T07:41:35Z</time>
      </trkpt>
      <trkpt lat="49.42755" lon="5.75532">
        <ele>269.60000610352</ele>
        <time>2023-06-23T07:41:36Z</time>
      </trkpt>
      <trkpt lat="49.42753" lon="5.75535">
        <ele>270.20001220703</ele>
        <time>2023-06-23T07:41:38Z</time>
      </trkpt>
      <trkpt lat="49.42754" lon="5.75537">
        <ele>270.60000610352</ele>
        <time>2023-06-23T07:41:39Z</time>
      </trkpt>
      <trkpt lat="49.42753" lon="5.75539">
        <ele>270.79998779297</ele>
        <time>2023-06-23T07:41:40Z</time>
      </trkpt>
      <trkpt lat="49.42754" lon="5.75543">
        <ele>271.39999389648</ele>
        <time>2023-06-23T07:41:42Z</time>
      </trkpt>
      <trkpt lat="49.42754" lon="5.75545">
        <ele>271.60000610352</ele>
        <time>2023-06-23T07:41:43Z</time>
      </trkpt>
      <trkpt lat="49.42754" lon="5.75546">
        <ele>271.79998779297</ele>
        <time>2023-06-23T07:41:44Z</time>
      </trkpt>
      <trkpt lat="49.42752" lon="5.75549">
        <ele>272.20001220703</ele>
        <time>2023-06-23T07:41:46Z</time>
      </trkpt>
      <trkpt lat="49.42751" lon="5.75551">
        <ele>273</ele>
        <time>2023-06-23T07:41:48Z</time>
      </trkpt>
      <trkpt lat="49.4275" lon="5.75553">
        <ele>273.20001220703</ele>
        <time>2023-06-23T07:41:50Z</time>
      </trkpt>
      <trkpt lat="49.4275" lon="5.75554">
        <ele>273.39999389648</ele>
        <time>2023-06-23T07:41:51Z</time>
      </trkpt>
      <trkpt lat="49.42749" lon="5.75555">
        <ele>273.79998779297</ele>
        <time>2023-06-23T07:41:52Z</time>
      </trkpt>
      <trkpt lat="49.42748" lon="5.75556">
        <ele>274.20001220703</ele>
        <time>2023-06-23T07:41:53Z</time>
      </trkpt>
      <trkpt lat="49.42748" lon="5.75557">
        <ele>274.39999389648</ele>
        <time>2023-06-23T07:41:54Z</time>
      </trkpt>
      <trkpt lat="49.42746" lon="5.75558">
        <ele>274.79998779297</ele>
        <time>2023-06-23T07:41:56Z</time>
      </trkpt>
      <trkpt lat="49.42745" lon="5.75559">
        <ele>275.39999389648</ele>
        <time>2023-06-23T07:41:58Z</time>
      </trkpt>
      <trkpt lat="49.42745" lon="5.75561">
        <ele>276</ele>
        <time>2023-06-23T07:42:00Z</time>
      </trkpt>
      <trkpt lat="49.42745" lon="5.75561">
        <ele>276.79998779297</ele>
        <time>2023-06-23T07:42:02Z</time>
      </trkpt>
      <trkpt lat="49.42745" lon="5.75561">
        <ele>277.20001220703</ele>
        <time>2023-06-23T07:42:04Z</time>
      </trkpt>
      <trkpt lat="49.42744" lon="5.7556">
        <ele>277.60000610352</ele>
        <time>2023-06-23T07:42:06Z</time>
      </trkpt>
      <trkpt lat="49.42744" lon="5.7556">
        <ele>277.79998779297</ele>
        <time>2023-06-23T07:42:07Z</time>
      </trkpt>
      <trkpt lat="49.42744" lon="5.7556">
        <ele>277.79998779297</ele>
        <time>2023-06-23T07:42:08Z</time>
      </trkpt>
      <trkpt lat="49.42744" lon="5.7556">
        <ele>278</ele>
        <time>2023-06-23T07:42:10Z</time>
      </trkpt>
      <trkpt lat="49.42744" lon="5.7556">
        <ele>278</ele>
        <time>2023-06-23T07:42:12Z</time>
      </trkpt>
      <trkpt lat="49.42744" lon="5.7556">
        <ele>278</ele>
        <time>2023-06-23T07:42:14Z</time>
      </trkpt>
      <trkpt lat="49.42744" lon="5.7556">
        <ele>278</ele>
        <time>2023-06-23T07:42:16Z</time>
      </trkpt>
      <trkpt lat="49.42744" lon="5.7556">
        <ele>278</ele>
        <time>2023-06-23T07:42:18Z</time>
      </trkpt>
      <trkpt lat="49.42744" lon="5.7556">
        <ele>278</ele>
        <time>2023-06-23T07:42:20Z</time>
      </trkpt>
      <trkpt lat="49.42744" lon="5.7556">
        <ele>277.79998779297</ele>
        <time>2023-06-23T07:42:22Z</time>
      </trkpt>
      <trkpt lat="49.42743" lon="5.7556">
        <ele>277.79998779297</ele>
        <time>2023-06-23T07:42:24Z</time>
      </trkpt>
      <trkpt lat="49.42742" lon="5.7556">
        <ele>277.79998779297</ele>
        <time>2023-06-23T07:42:26Z</time>
      </trkpt>
      <trkpt lat="49.42741" lon="5.75559">
        <ele>277.79998779297</ele>
        <time>2023-06-23T07:42:28Z</time>
      </trkpt>
      <trkpt lat="49.4274" lon="5.75559">
        <ele>277.79998779297</ele>
        <time>2023-06-23T07:42:29Z</time>
      </trkpt>
      <trkpt lat="49.4274" lon="5.75559">
        <ele>277.79998779297</ele>
        <time>2023-06-23T07:42:30Z</time>
      </trkpt>
      <trkpt lat="49.42738" lon="5.75559">
        <ele>278</ele>
        <time>2023-06-23T07:42:32Z</time>
      </trkpt>
      <trkpt lat="49.42736" lon="5.75558">
        <ele>278.20001220703</ele>
        <time>2023-06-23T07:42:34Z</time>
      </trkpt>
      <trkpt lat="49.42734" lon="5.75556">
        <ele>278.60000610352</ele>
        <time>2023-06-23T07:42:36Z</time>
      </trkpt>
      <trkpt lat="49.42732" lon="5.75555">
        <ele>278.79998779297</ele>
        <time>2023-06-23T07:42:38Z</time>
      </trkpt>
      <trkpt lat="49.4273" lon="5.75553">
        <ele>279.39999389648</ele>
        <time>2023-06-23T07:42:40Z</time>
      </trkpt>
      <trkpt lat="49.42729" lon="5.75553">
        <ele>279.79998779297</ele>
        <time>2023-06-23T07:42:41Z</time>
      </trkpt>
      <trkpt lat="49.42727" lon="5.75552">
        <ele>280</ele>
        <time>2023-06-23T07:42:42Z</time>
      </trkpt>
      <trkpt lat="49.42726" lon="5.7555">
        <ele>280.39999389648</ele>
        <time>2023-06-23T07:42:44Z</time>
      </trkpt>
      <trkpt lat="49.42724" lon="5.75549">
        <ele>281</ele>
        <time>2023-06-23T07:42:46Z</time>
      </trkpt>
      <trkpt lat="49.42722" lon="5.75548">
        <ele>281.20001220703</ele>
        <time>2023-06-23T07:42:47Z</time>
      </trkpt>
      <trkpt lat="49.42721" lon="5.75547">
        <ele>281.60000610352</ele>
        <time>2023-06-23T07:42:48Z</time>
      </trkpt>
      <trkpt lat="49.42719" lon="5.75545">
        <ele>282</ele>
        <time>2023-06-23T07:42:50Z</time>
      </trkpt>
      <trkpt lat="49.42717" lon="5.75543">
        <ele>282.39999389648</ele>
        <time>2023-06-23T07:42:52Z</time>
      </trkpt>
      <trkpt lat="49.42715" lon="5.75542">
        <ele>283</ele>
        <time>2023-06-23T07:42:54Z</time>
      </trkpt>
      <trkpt lat="49.42715" lon="5.75541">
        <ele>283.39999389648</ele>
        <time>2023-06-23T07:42:55Z</time>
      </trkpt>
      <trkpt lat="49.42714" lon="5.7554">
        <ele>283.60000610352</ele>
        <time>2023-06-23T07:42:56Z</time>
      </trkpt>
      <trkpt lat="49.42713" lon="5.75538">
        <ele>284.39999389648</ele>
        <time>2023-06-23T07:42:58Z</time>
      </trkpt>
      <trkpt lat="49.42712" lon="5.75535">
        <ele>284.79998779297</ele>
        <time>2023-06-23T07:43:00Z</time>
      </trkpt>
      <trkpt lat="49.42711" lon="5.75533">
        <ele>285</ele>
        <time>2023-06-23T07:43:02Z</time>
      </trkpt>
      <trkpt lat="49.4271" lon="5.75531">
        <ele>285.20001220703</ele>
        <time>2023-06-23T07:43:04Z</time>
      </trkpt>
      <trkpt lat="49.4271" lon="5.75531">
        <ele>285.60000610352</ele>
        <time>2023-06-23T07:43:06Z</time>
      </trkpt>
      <trkpt lat="49.42709" lon="5.75529">
        <ele>285.60000610352</ele>
        <time>2023-06-23T07:43:07Z</time>
      </trkpt>
      <trkpt lat="49.42709" lon="5.75529">
        <ele>285.79998779297</ele>
        <time>2023-06-23T07:43:08Z</time>
      </trkpt>
      <trkpt lat="49.42707" lon="5.75527">
        <ele>286</ele>
        <time>2023-06-23T07:43:10Z</time>
      </trkpt>
      <trkpt lat="49.42706" lon="5.75524">
        <ele>286.20001220703</ele>
        <time>2023-06-23T07:43:12Z</time>
      </trkpt>
      <trkpt lat="49.42705" lon="5.75521">
        <ele>286.39999389648</ele>
        <time>2023-06-23T07:43:14Z</time>
      </trkpt>
      <trkpt lat="49.42703" lon="5.75518">
        <ele>286.39999389648</ele>
        <time>2023-06-23T07:43:15Z</time>
      </trkpt>
      <trkpt lat="49.42701" lon="5.75516">
        <ele>286.39999389648</ele>
        <time>2023-06-23T07:43:16Z</time>
      </trkpt>
      <trkpt lat="49.42699" lon="5.75512">
        <ele>286.60000610352</ele>
        <time>2023-06-23T07:43:18Z</time>
      </trkpt>
      <trkpt lat="49.42697" lon="5.75508">
        <ele>286.79998779297</ele>
        <time>2023-06-23T07:43:20Z</time>
      </trkpt>
      <trkpt lat="49.42695" lon="5.75504">
        <ele>287</ele>
        <time>2023-06-23T07:43:22Z</time>
      </trkpt>
      <trkpt lat="49.42693" lon="5.75499">
        <ele>287</ele>
        <time>2023-06-23T07:43:24Z</time>
      </trkpt>
      <trkpt lat="49.42691" lon="5.75494">
        <ele>287.20001220703</ele>
        <time>2023-06-23T07:43:26Z</time>
      </trkpt>
      <trkpt lat="49.4269" lon="5.75489">
        <ele>287.20001220703</ele>
        <time>2023-06-23T07:43:28Z</time>
      </trkpt>
      <trkpt lat="49.42688" lon="5.75486">
        <ele>287.39999389648</ele>
        <time>2023-06-23T07:43:30Z</time>
      </trkpt>
      <trkpt lat="49.42687" lon="5.75484">
        <ele>287.39999389648</ele>
        <time>2023-06-23T07:43:31Z</time>
      </trkpt>
      <trkpt lat="49.42686" lon="5.75482">
        <ele>287.39999389648</ele>
        <time>2023-06-23T07:43:32Z</time>
      </trkpt>
      <trkpt lat="49.42684" lon="5.75479">
        <ele>287.60000610352</ele>
        <time>2023-06-23T07:43:34Z</time>
      </trkpt>
      <trkpt lat="49.42682" lon="5.75476">
        <ele>287.79998779297</ele>
        <time>2023-06-23T07:43:36Z</time>
      </trkpt>
      <trkpt lat="49.4268" lon="5.75472">
        <ele>288</ele>
        <time>2023-06-23T07:43:38Z</time>
      </trkpt>
      <trkpt lat="49.42678" lon="5.75469">
        <ele>288.39999389648</ele>
        <time>2023-06-23T07:43:40Z</time>
      </trkpt>
      <trkpt lat="49.42676" lon="5.75465">
        <ele>288.39999389648</ele>
        <time>2023-06-23T07:43:42Z</time>
      </trkpt>
      <trkpt lat="49.42675" lon="5.75464">
        <ele>288.39999389648</ele>
        <time>2023-06-23T07:43:43Z</time>
      </trkpt>
      <trkpt lat="49.42673" lon="5.75463">
        <ele>288.60000610352</ele>
        <time>2023-06-23T07:43:44Z</time>
      </trkpt>
      <trkpt lat="49.42671" lon="5.75461">
        <ele>288.79998779297</ele>
        <time>2023-06-23T07:43:46Z</time>
      </trkpt>
      <trkpt lat="49.4267" lon="5.7546">
        <ele>288.79998779297</ele>
        <time>2023-06-23T07:43:47Z</time>
      </trkpt>
      <trkpt lat="49.42669" lon="5.75459">
        <ele>289</ele>
        <time>2023-06-23T07:43:48Z</time>
      </trkpt>
      <trkpt lat="49.42666" lon="5.75458">
        <ele>289.20001220703</ele>
        <time>2023-06-23T07:43:50Z</time>
      </trkpt>
      <trkpt lat="49.42664" lon="5.75456">
        <ele>289.79998779297</ele>
        <time>2023-06-23T07:43:52Z</time>
      </trkpt>
      <trkpt lat="49.42663" lon="5.75454">
        <ele>290</ele>
        <time>2023-06-23T07:43:53Z</time>
      </trkpt>
      <trkpt lat="49.42661" lon="5.75452">
        <ele>290.20001220703</ele>
        <time>2023-06-23T07:43:54Z</time>
      </trkpt>
      <trkpt lat="49.42659" lon="5.75448">
        <ele>290.60000610352</ele>
        <time>2023-06-23T07:43:56Z</time>
      </trkpt>
      <trkpt lat="49.42657" lon="5.75446">
        <ele>291</ele>
        <time>2023-06-23T07:43:58Z</time>
      </trkpt>
      <trkpt lat="49.42655" lon="5.75443">
        <ele>291.79998779297</ele>
        <time>2023-06-23T07:44:00Z</time>
      </trkpt>
      <trkpt lat="49.42654" lon="5.75443">
        <ele>292</ele>
        <time>2023-06-23T07:44:01Z</time>
      </trkpt>
      <trkpt lat="49.42653" lon="5.75442">
        <ele>292.20001220703</ele>
        <time>2023-06-23T07:44:02Z</time>
      </trkpt>
      <trkpt lat="49.42651" lon="5.7544">
        <ele>292.60000610352</ele>
        <time>2023-06-23T07:44:04Z</time>
      </trkpt>
      <trkpt lat="49.4265" lon="5.75438">
        <ele>292.60000610352</ele>
        <time>2023-06-23T07:44:06Z</time>
      </trkpt>
      <trkpt lat="49.42648" lon="5.75435">
        <ele>293</ele>
        <time>2023-06-23T07:44:08Z</time>
      </trkpt>
      <trkpt lat="49.42646" lon="5.75433">
        <ele>293.39999389648</ele>
        <time>2023-06-23T07:44:10Z</time>
      </trkpt>
      <trkpt lat="49.42644" lon="5.75431">
        <ele>293.60000610352</ele>
        <time>2023-06-23T07:44:12Z</time>
      </trkpt>
      <trkpt lat="49.42642" lon="5.75428">
        <ele>294</ele>
        <time>2023-06-23T07:44:14Z</time>
      </trkpt>
      <trkpt lat="49.42641" lon="5.75428">
        <ele>294.20001220703</ele>
        <time>2023-06-23T07:44:15Z</time>
      </trkpt>
      <trkpt lat="49.42639" lon="5.75426">
        <ele>294.20001220703</ele>
        <time>2023-06-23T07:44:16Z</time>
      </trkpt>
      <trkpt lat="49.42637" lon="5.75425">
        <ele>294.60000610352</ele>
        <time>2023-06-23T07:44:18Z</time>
      </trkpt>
      <trkpt lat="49.42635" lon="5.75423">
        <ele>295.20001220703</ele>
        <time>2023-06-23T07:44:20Z</time>
      </trkpt>
      <trkpt lat="49.42634" lon="5.7542">
        <ele>295.79998779297</ele>
        <time>2023-06-23T07:44:22Z</time>
      </trkpt>
      <trkpt lat="49.42632" lon="5.75416">
        <ele>296.39999389648</ele>
        <time>2023-06-23T07:44:24Z</time>
      </trkpt>
      <trkpt lat="49.4263" lon="5.75414">
        <ele>296.79998779297</ele>
        <time>2023-06-23T07:44:26Z</time>
      </trkpt>
      <trkpt lat="49.42628" lon="5.7541">
        <ele>297.20001220703</ele>
        <time>2023-06-23T07:44:28Z</time>
      </trkpt>
      <trkpt lat="49.42627" lon="5.75409">
        <ele>297.39999389648</ele>
        <time>2023-06-23T07:44:29Z</time>
      </trkpt>
      <trkpt lat="49.42626" lon="5.75408">
        <ele>297.79998779297</ele>
        <time>2023-06-23T07:44:30Z</time>
      </trkpt>
      <trkpt lat="49.42624" lon="5.75405">
        <ele>298.20001220703</ele>
        <time>2023-06-23T07:44:32Z</time>
      </trkpt>
      <trkpt lat="49.42623" lon="5.75404">
        <ele>298.60000610352</ele>
        <time>2023-06-23T07:44:33Z</time>
      </trkpt>
      <trkpt lat="49.42621" lon="5.75401">
        <ele>298.60000610352</ele>
        <time>2023-06-23T07:44:34Z</time>
      </trkpt>
      <trkpt lat="49.4262" lon="5.75399">
        <ele>298.79998779297</ele>
        <time>2023-06-23T07:44:35Z</time>
      </trkpt>
      <trkpt lat="49.42619" lon="5.75398">
        <ele>299</ele>
        <time>2023-06-23T07:44:36Z</time>
      </trkpt>
      <trkpt lat="49.42618" lon="5.75395">
        <ele>299.60000610352</ele>
        <time>2023-06-23T07:44:38Z</time>
      </trkpt>
      <trkpt lat="49.42617" lon="5.75392">
        <ele>299.79998779297</ele>
        <time>2023-06-23T07:44:40Z</time>
      </trkpt>
      <trkpt lat="49.42615" lon="5.75388">
        <ele>300</ele>
        <time>2023-06-23T07:44:42Z</time>
      </trkpt>
      <trkpt lat="49.42613" lon="5.75384">
        <ele>300.20001220703</ele>
        <time>2023-06-23T07:44:44Z</time>
      </trkpt>
      <trkpt lat="49.42612" lon="5.75381">
        <ele>300.20001220703</ele>
        <time>2023-06-23T07:44:45Z</time>
      </trkpt>
      <trkpt lat="49.42611" lon="5.75378">
        <ele>300.20001220703</ele>
        <time>2023-06-23T07:44:46Z</time>
      </trkpt>
      <trkpt lat="49.42608" lon="5.75373">
        <ele>300.39999389648</ele>
        <time>2023-06-23T07:44:48Z</time>
      </trkpt>
      <trkpt lat="49.42607" lon="5.75367">
        <ele>300.39999389648</ele>
        <time>2023-06-23T07:44:50Z</time>
      </trkpt>
      <trkpt lat="49.42606" lon="5.75363">
        <ele>300.39999389648</ele>
        <time>2023-06-23T07:44:52Z</time>
      </trkpt>
      <trkpt lat="49.42605" lon="5.75359">
        <ele>300.60000610352</ele>
        <time>2023-06-23T07:44:54Z</time>
      </trkpt>
      <trkpt lat="49.42604" lon="5.75354">
        <ele>301</ele>
        <time>2023-06-23T07:44:56Z</time>
      </trkpt>
      <trkpt lat="49.42604" lon="5.75353">
        <ele>301</ele>
        <time>2023-06-23T07:44:57Z</time>
      </trkpt>
      <trkpt lat="49.42604" lon="5.7535">
        <ele>301.20001220703</ele>
        <time>2023-06-23T07:44:58Z</time>
      </trkpt>
      <trkpt lat="49.42603" lon="5.75345">
        <ele>301.20001220703</ele>
        <time>2023-06-23T07:45:00Z</time>
      </trkpt>
      <trkpt lat="49.42601" lon="5.75338">
        <ele>301.39999389648</ele>
        <time>2023-06-23T07:45:02Z</time>
      </trkpt>
      <trkpt lat="49.42599" lon="5.75332">
        <ele>301.79998779297</ele>
        <time>2023-06-23T07:45:04Z</time>
      </trkpt>
      <trkpt lat="49.42598" lon="5.75326">
        <ele>301.79998779297</ele>
        <time>2023-06-23T07:45:06Z</time>
      </trkpt>
      <trkpt lat="49.42598" lon="5.7532">
        <ele>302.20001220703</ele>
        <time>2023-06-23T07:45:08Z</time>
      </trkpt>
      <trkpt lat="49.42596" lon="5.75314">
        <ele>302.39999389648</ele>
        <time>2023-06-23T07:45:10Z</time>
      </trkpt>
      <trkpt lat="49.42596" lon="5.75308">
        <ele>302.79998779297</ele>
        <time>2023-06-23T07:45:12Z</time>
      </trkpt>
      <trkpt lat="49.42596" lon="5.75305">
        <ele>302.79998779297</ele>
        <time>2023-06-23T07:45:13Z</time>
      </trkpt>
      <trkpt lat="49.42596" lon="5.75302">
        <ele>303.20001220703</ele>
        <time>2023-06-23T07:45:14Z</time>
      </trkpt>
      <trkpt lat="49.42595" lon="5.75297">
        <ele>303.39999389648</ele>
        <time>2023-06-23T07:45:16Z</time>
      </trkpt>
      <trkpt lat="49.42594" lon="5.75292">
        <ele>303.60000610352</ele>
        <time>2023-06-23T07:45:18Z</time>
      </trkpt>
      <trkpt lat="49.42594" lon="5.7529">
        <ele>303.60000610352</ele>
        <time>2023-06-23T07:45:19Z</time>
      </trkpt>
      <trkpt lat="49.42594" lon="5.75288">
        <ele>303.60000610352</ele>
        <time>2023-06-23T07:45:20Z</time>
      </trkpt>
      <trkpt lat="49.42593" lon="5.75283">
        <ele>303.79998779297</ele>
        <time>2023-06-23T07:45:22Z</time>
      </trkpt>
      <trkpt lat="49.42592" lon="5.75281">
        <ele>304</ele>
        <time>2023-06-23T07:45:23Z</time>
      </trkpt>
      <trkpt lat="49.42592" lon="5.75279">
        <ele>304.20001220703</ele>
        <time>2023-06-23T07:45:24Z</time>
      </trkpt>
      <trkpt lat="49.42589" lon="5.75273">
        <ele>304.39999389648</ele>
        <time>2023-06-23T07:45:26Z</time>
      </trkpt>
      <trkpt lat="49.42588" lon="5.75267">
        <ele>304.60000610352</ele>
        <time>2023-06-23T07:45:28Z</time>
      </trkpt>
      <trkpt lat="49.42585" lon="5.7526">
        <ele>304.79998779297</ele>
        <time>2023-06-23T07:45:30Z</time>
      </trkpt>
      <trkpt lat="49.42584" lon="5.75257">
        <ele>305</ele>
        <time>2023-06-23T07:45:31Z</time>
      </trkpt>
      <trkpt lat="49.42583" lon="5.75254">
        <ele>305.20001220703</ele>
        <time>2023-06-23T07:45:32Z</time>
      </trkpt>
      <trkpt lat="49.42583" lon="5.75248">
        <ele>305.60000610352</ele>
        <time>2023-06-23T07:45:34Z</time>
      </trkpt>
      <trkpt lat="49.42582" lon="5.75243">
        <ele>306</ele>
        <time>2023-06-23T07:45:36Z</time>
      </trkpt>
      <trkpt lat="49.42582" lon="5.75241">
        <ele>306.20001220703</ele>
        <time>2023-06-23T07:45:37Z</time>
      </trkpt>
      <trkpt lat="49.42581" lon="5.75238">
        <ele>306.20001220703</ele>
        <time>2023-06-23T07:45:38Z</time>
      </trkpt>
      <trkpt lat="49.42581" lon="5.75236">
        <ele>306.39999389648</ele>
        <time>2023-06-23T07:45:39Z</time>
      </trkpt>
      <trkpt lat="49.4258" lon="5.75233">
        <ele>306.60000610352</ele>
        <time>2023-06-23T07:45:40Z</time>
      </trkpt>
      <trkpt lat="49.4258" lon="5.75228">
        <ele>307</ele>
        <time>2023-06-23T07:45:42Z</time>
      </trkpt>
      <trkpt lat="49.4258" lon="5.75225">
        <ele>307.20001220703</ele>
        <time>2023-06-23T07:45:43Z</time>
      </trkpt>
      <trkpt lat="49.4258" lon="5.75223">
        <ele>307.39999389648</ele>
        <time>2023-06-23T07:45:44Z</time>
      </trkpt>
      <trkpt lat="49.42579" lon="5.75219">
        <ele>307.60000610352</ele>
        <time>2023-06-23T07:45:46Z</time>
      </trkpt>
      <trkpt lat="49.42578" lon="5.75214">
        <ele>307.79998779297</ele>
        <time>2023-06-23T07:45:48Z</time>
      </trkpt>
      <trkpt lat="49.42578" lon="5.75211">
        <ele>308</ele>
        <time>2023-06-23T07:45:49Z</time>
      </trkpt>
      <trkpt lat="49.42577" lon="5.75209">
        <ele>308.20001220703</ele>
        <time>2023-06-23T07:45:50Z</time>
      </trkpt>
      <trkpt lat="49.42577" lon="5.75207">
        <ele>308.39999389648</ele>
        <time>2023-06-23T07:45:51Z</time>
      </trkpt>
      <trkpt lat="49.42577" lon="5.75205">
        <ele>308.60000610352</ele>
        <time>2023-06-23T07:45:52Z</time>
      </trkpt>
      <trkpt lat="49.42576" lon="5.75203">
        <ele>308.79998779297</ele>
        <time>2023-06-23T07:45:53Z</time>
      </trkpt>
      <trkpt lat="49.42575" lon="5.75201">
        <ele>309.20001220703</ele>
        <time>2023-06-23T07:45:54Z</time>
      </trkpt>
      <trkpt lat="49.42574" lon="5.75199">
        <ele>309.60000610352</ele>
        <time>2023-06-23T07:45:55Z</time>
      </trkpt>
      <trkpt lat="49.42574" lon="5.75197">
        <ele>309.79998779297</ele>
        <time>2023-06-23T07:45:56Z</time>
      </trkpt>
      <trkpt lat="49.42573" lon="5.75194">
        <ele>310.39999389648</ele>
        <time>2023-06-23T07:45:58Z</time>
      </trkpt>
      <trkpt lat="49.42572" lon="5.75193">
        <ele>310.60000610352</ele>
        <time>2023-06-23T07:45:59Z</time>
      </trkpt>
      <trkpt lat="49.42572" lon="5.75192">
        <ele>311</ele>
        <time>2023-06-23T07:46:00Z</time>
      </trkpt>
      <trkpt lat="49.42571" lon="5.75188">
        <ele>311.39999389648</ele>
        <time>2023-06-23T07:46:02Z</time>
      </trkpt>
      <trkpt lat="49.42571" lon="5.75186">
        <ele>311.79998779297</ele>
        <time>2023-06-23T07:46:04Z</time>
      </trkpt>
      <trkpt lat="49.42569" lon="5.75183">
        <ele>312.20001220703</ele>
        <time>2023-06-23T07:46:06Z</time>
      </trkpt>
      <trkpt lat="49.42568" lon="5.7518">
        <ele>312.60000610352</ele>
        <time>2023-06-23T07:46:08Z</time>
      </trkpt>
      <trkpt lat="49.42568" lon="5.75178">
        <ele>312.79998779297</ele>
        <time>2023-06-23T07:46:09Z</time>
      </trkpt>
      <trkpt lat="49.42567" lon="5.75175">
        <ele>313</ele>
        <time>2023-06-23T07:46:10Z</time>
      </trkpt>
      <trkpt lat="49.42566" lon="5.75171">
        <ele>313.39999389648</ele>
        <time>2023-06-23T07:46:12Z</time>
      </trkpt>
      <trkpt lat="49.42565" lon="5.75169">
        <ele>313.60000610352</ele>
        <time>2023-06-23T07:46:13Z</time>
      </trkpt>
      <trkpt lat="49.42565" lon="5.75165">
        <ele>313.79998779297</ele>
        <time>2023-06-23T07:46:14Z</time>
      </trkpt>
      <trkpt lat="49.42563" lon="5.75161">
        <ele>314</ele>
        <time>2023-06-23T07:46:16Z</time>
      </trkpt>
      <trkpt lat="49.42563" lon="5.75156">
        <ele>314</ele>
        <time>2023-06-23T07:46:18Z</time>
      </trkpt>
      <trkpt lat="49.4256" lon="5.7515">
        <ele>314.20001220703</ele>
        <time>2023-06-23T07:46:20Z</time>
      </trkpt>
      <trkpt lat="49.42558" lon="5.75145">
        <ele>314.20001220703</ele>
        <time>2023-06-23T07:46:22Z</time>
      </trkpt>
      <trkpt lat="49.42557" lon="5.7514">
        <ele>314.20001220703</ele>
        <time>2023-06-23T07:46:24Z</time>
      </trkpt>
      <trkpt lat="49.42555" lon="5.75136">
        <ele>314.60000610352</ele>
        <time>2023-06-23T07:46:26Z</time>
      </trkpt>
      <trkpt lat="49.42553" lon="5.75132">
        <ele>314.79998779297</ele>
        <time>2023-06-23T07:46:28Z</time>
      </trkpt>
      <trkpt lat="49.42552" lon="5.75131">
        <ele>315</ele>
        <time>2023-06-23T07:46:29Z</time>
      </trkpt>
      <trkpt lat="49.42551" lon="5.75129">
        <ele>315</ele>
        <time>2023-06-23T07:46:30Z</time>
      </trkpt>
      <trkpt lat="49.4255" lon="5.75127">
        <ele>315.20001220703</ele>
        <time>2023-06-23T07:46:32Z</time>
      </trkpt>
      <trkpt lat="49.42549" lon="5.75124">
        <ele>315.60000610352</ele>
        <time>2023-06-23T07:46:34Z</time>
      </trkpt>
      <trkpt lat="49.42548" lon="5.75121">
        <ele>316.20001220703</ele>
        <time>2023-06-23T07:46:36Z</time>
      </trkpt>
      <trkpt lat="49.42547" lon="5.75118">
        <ele>316.60000610352</ele>
        <time>2023-06-23T07:46:38Z</time>
      </trkpt>
      <trkpt lat="49.42545" lon="5.75113">
        <ele>316.79998779297</ele>
        <time>2023-06-23T07:46:40Z</time>
      </trkpt>
      <trkpt lat="49.42544" lon="5.75108">
        <ele>317.20001220703</ele>
        <time>2023-06-23T07:46:42Z</time>
      </trkpt>
      <trkpt lat="49.42542" lon="5.75106">
        <ele>317.39999389648</ele>
        <time>2023-06-23T07:46:43Z</time>
      </trkpt>
      <trkpt lat="49.42541" lon="5.75104">
        <ele>317.39999389648</ele>
        <time>2023-06-23T07:46:44Z</time>
      </trkpt>
      <trkpt lat="49.42539" lon="5.75099">
        <ele>317.39999389648</ele>
        <time>2023-06-23T07:46:46Z</time>
      </trkpt>
      <trkpt lat="49.42537" lon="5.75094">
        <ele>317.39999389648</ele>
        <time>2023-06-23T07:46:48Z</time>
      </trkpt>
      <trkpt lat="49.42536" lon="5.7509">
        <ele>317.60000610352</ele>
        <time>2023-06-23T07:46:50Z</time>
      </trkpt>
      <trkpt lat="49.42533" lon="5.75085">
        <ele>317.60000610352</ele>
        <time>2023-06-23T07:46:52Z</time>
      </trkpt>
      <trkpt lat="49.42532" lon="5.75082">
        <ele>317.79998779297</ele>
        <time>2023-06-23T07:46:54Z</time>
      </trkpt>
      <trkpt lat="49.4253" lon="5.75078">
        <ele>317.79998779297</ele>
        <time>2023-06-23T07:46:56Z</time>
      </trkpt>
      <trkpt lat="49.42528" lon="5.75072">
        <ele>318</ele>
        <time>2023-06-23T07:46:58Z</time>
      </trkpt>
      <trkpt lat="49.42526" lon="5.75067">
        <ele>318</ele>
        <time>2023-06-23T07:47:00Z</time>
      </trkpt>
      <trkpt lat="49.42523" lon="5.75061">
        <ele>318</ele>
        <time>2023-06-23T07:47:02Z</time>
      </trkpt>
      <trkpt lat="49.42522" lon="5.75058">
        <ele>318.20001220703</ele>
        <time>2023-06-23T07:47:03Z</time>
      </trkpt>
      <trkpt lat="49.4252" lon="5.75055">
        <ele>318.39999389648</ele>
        <time>2023-06-23T07:47:04Z</time>
      </trkpt>
      <trkpt lat="49.42517" lon="5.75046">
        <ele>318.39999389648</ele>
        <time>2023-06-23T07:47:06Z</time>
      </trkpt>
      <trkpt lat="49.42515" lon="5.75039">
        <ele>318.39999389648</ele>
        <time>2023-06-23T07:47:08Z</time>
      </trkpt>
      <trkpt lat="49.42513" lon="5.75033">
        <ele>318.60000610352</ele>
        <time>2023-06-23T07:47:10Z</time>
      </trkpt>
      <trkpt lat="49.42511" lon="5.75028">
        <ele>318.60000610352</ele>
        <time>2023-06-23T07:47:12Z</time>
      </trkpt>
      <trkpt lat="49.42509" lon="5.75021">
        <ele>318.60000610352</ele>
        <time>2023-06-23T07:47:14Z</time>
      </trkpt>
      <trkpt lat="49.42506" lon="5.75014">
        <ele>318.60000610352</ele>
        <time>2023-06-23T07:47:16Z</time>
      </trkpt>
      <trkpt lat="49.42505" lon="5.75012">
        <ele>318.60000610352</ele>
        <time>2023-06-23T07:47:17Z</time>
      </trkpt>
      <trkpt lat="49.42504" lon="5.7501">
        <ele>318.60000610352</ele>
        <time>2023-06-23T07:47:18Z</time>
      </trkpt>
      <trkpt lat="49.42503" lon="5.75006">
        <ele>318.79998779297</ele>
        <time>2023-06-23T07:47:20Z</time>
      </trkpt>
      <trkpt lat="49.425" lon="5.74999">
        <ele>318.79998779297</ele>
        <time>2023-06-23T07:47:22Z</time>
      </trkpt>
      <trkpt lat="49.42498" lon="5.74997">
        <ele>318.79998779297</ele>
        <time>2023-06-23T07:47:23Z</time>
      </trkpt>
      <trkpt lat="49.42495" lon="5.74995">
        <ele>318.79998779297</ele>
        <time>2023-06-23T07:47:24Z</time>
      </trkpt>
      <trkpt lat="49.42493" lon="5.74997">
        <ele>318.79998779297</ele>
        <time>2023-06-23T07:47:26Z</time>
      </trkpt>
      <trkpt lat="49.42489" lon="5.74998">
        <ele>319</ele>
        <time>2023-06-23T07:47:28Z</time>
      </trkpt>
      <trkpt lat="49.42486" lon="5.75">
        <ele>319</ele>
        <time>2023-06-23T07:47:30Z</time>
      </trkpt>
      <trkpt lat="49.42484" lon="5.75003">
        <ele>319</ele>
        <time>2023-06-23T07:47:32Z</time>
      </trkpt>
      <trkpt lat="49.42482" lon="5.75009">
        <ele>319.39999389648</ele>
        <time>2023-06-23T07:47:34Z</time>
      </trkpt>
      <trkpt lat="49.4248" lon="5.75014">
        <ele>319.60000610352</ele>
        <time>2023-06-23T07:47:36Z</time>
      </trkpt>
      <trkpt lat="49.42478" lon="5.75017">
        <ele>319.60000610352</ele>
        <time>2023-06-23T07:47:37Z</time>
      </trkpt>
      <trkpt lat="49.42477" lon="5.7502">
        <ele>319.79998779297</ele>
        <time>2023-06-23T07:47:38Z</time>
      </trkpt>
      <trkpt lat="49.42474" lon="5.75027">
        <ele>319.79998779297</ele>
        <time>2023-06-23T07:47:40Z</time>
      </trkpt>
      <trkpt lat="49.42474" lon="5.7503">
        <ele>319.79998779297</ele>
        <time>2023-06-23T07:47:41Z</time>
      </trkpt>
      <trkpt lat="49.42474" lon="5.75033">
        <ele>320</ele>
        <time>2023-06-23T07:47:42Z</time>
      </trkpt>
      <trkpt lat="49.42472" lon="5.75039">
        <ele>320</ele>
        <time>2023-06-23T07:47:44Z</time>
      </trkpt>
      <trkpt lat="49.4247" lon="5.75044">
        <ele>320.20001220703</ele>
        <time>2023-06-23T07:47:46Z</time>
      </trkpt>
      <trkpt lat="49.42468" lon="5.7505">
        <ele>320.39999389648</ele>
        <time>2023-06-23T07:47:48Z</time>
      </trkpt>
      <trkpt lat="49.42467" lon="5.75056">
        <ele>320.39999389648</ele>
        <time>2023-06-23T07:47:50Z</time>
      </trkpt>
      <trkpt lat="49.42465" lon="5.75064">
        <ele>320.79998779297</ele>
        <time>2023-06-23T07:47:52Z</time>
      </trkpt>
      <trkpt lat="49.42462" lon="5.75072">
        <ele>320.79998779297</ele>
        <time>2023-06-23T07:47:54Z</time>
      </trkpt>
      <trkpt lat="49.4246" lon="5.75078">
        <ele>321</ele>
        <time>2023-06-23T07:47:56Z</time>
      </trkpt>
      <trkpt lat="49.4246" lon="5.75081">
        <ele>321.20001220703</ele>
        <time>2023-06-23T07:47:57Z</time>
      </trkpt>
      <trkpt lat="49.42459" lon="5.75086">
        <ele>321.20001220703</ele>
        <time>2023-06-23T07:47:58Z</time>
      </trkpt>
      <trkpt lat="49.42456" lon="5.75093">
        <ele>321.39999389648</ele>
        <time>2023-06-23T07:48:00Z</time>
      </trkpt>
      <trkpt lat="49.42455" lon="5.75096">
        <ele>321.39999389648</ele>
        <time>2023-06-23T07:48:01Z</time>
      </trkpt>
      <trkpt lat="49.42454" lon="5.751">
        <ele>321.60000610352</ele>
        <time>2023-06-23T07:48:02Z</time>
      </trkpt>
      <trkpt lat="49.42452" lon="5.75107">
        <ele>321.79998779297</ele>
        <time>2023-06-23T07:48:04Z</time>
      </trkpt>
      <trkpt lat="49.42452" lon="5.75113">
        <ele>322</ele>
        <time>2023-06-23T07:48:06Z</time>
      </trkpt>
      <trkpt lat="49.42449" lon="5.7512">
        <ele>322</ele>
        <time>2023-06-23T07:48:08Z</time>
      </trkpt>
      <trkpt lat="49.42448" lon="5.75127">
        <ele>322</ele>
        <time>2023-06-23T07:48:10Z</time>
      </trkpt>
      <trkpt lat="49.42444" lon="5.75134">
        <ele>322.20001220703</ele>
        <time>2023-06-23T07:48:12Z</time>
      </trkpt>
      <trkpt lat="49.42442" lon="5.75136">
        <ele>322.20001220703</ele>
        <time>2023-06-23T07:48:13Z</time>
      </trkpt>
      <trkpt lat="49.42441" lon="5.75138">
        <ele>322.20001220703</ele>
        <time>2023-06-23T07:48:14Z</time>
      </trkpt>
      <trkpt lat="49.42437" lon="5.75141">
        <ele>322.20001220703</ele>
        <time>2023-06-23T07:48:16Z</time>
      </trkpt>
      <trkpt lat="49.42433" lon="5.75144">
        <ele>322.20001220703</ele>
        <time>2023-06-23T07:48:18Z</time>
      </trkpt>
      <trkpt lat="49.42431" lon="5.75146">
        <ele>322.39999389648</ele>
        <time>2023-06-23T07:48:19Z</time>
      </trkpt>
      <trkpt lat="49.42428" lon="5.75149">
        <ele>322.39999389648</ele>
        <time>2023-06-23T07:48:20Z</time>
      </trkpt>
      <trkpt lat="49.42424" lon="5.75151">
        <ele>322.39999389648</ele>
        <time>2023-06-23T07:48:22Z</time>
      </trkpt>
      <trkpt lat="49.42422" lon="5.75151">
        <ele>322.39999389648</ele>
        <time>2023-06-23T07:48:23Z</time>
      </trkpt>
      <trkpt lat="49.42421" lon="5.75151">
        <ele>322.39999389648</ele>
        <time>2023-06-23T07:48:24Z</time>
      </trkpt>
      <trkpt lat="49.42417" lon="5.7515">
        <ele>322.60000610352</ele>
        <time>2023-06-23T07:48:26Z</time>
      </trkpt>
      <trkpt lat="49.42415" lon="5.75148">
        <ele>322.60000610352</ele>
        <time>2023-06-23T07:48:28Z</time>
      </trkpt>
      <trkpt lat="49.42413" lon="5.75146">
        <ele>322.60000610352</ele>
        <time>2023-06-23T07:48:30Z</time>
      </trkpt>
      <trkpt lat="49.42412" lon="5.75144">
        <ele>322.60000610352</ele>
        <time>2023-06-23T07:48:32Z</time>
      </trkpt>
      <trkpt lat="49.42411" lon="5.75144">
        <ele>322.60000610352</ele>
        <time>2023-06-23T07:48:33Z</time>
      </trkpt>
      <trkpt lat="49.4241" lon="5.75143">
        <ele>322.60000610352</ele>
        <time>2023-06-23T07:48:34Z</time>
      </trkpt>
      <trkpt lat="49.42408" lon="5.75143">
        <ele>322.60000610352</ele>
        <time>2023-06-23T07:48:36Z</time>
      </trkpt>
      <trkpt lat="49.42407" lon="5.75141">
        <ele>322.60000610352</ele>
        <time>2023-06-23T07:48:38Z</time>
      </trkpt>
      <trkpt lat="49.42406" lon="5.7514">
        <ele>322.60000610352</ele>
        <time>2023-06-23T07:48:40Z</time>
      </trkpt>
      <trkpt lat="49.42406" lon="5.7514">
        <ele>322.60000610352</ele>
        <time>2023-06-23T07:48:42Z</time>
      </trkpt>
      <trkpt lat="49.42405" lon="5.75138">
        <ele>322.60000610352</ele>
        <time>2023-06-23T07:48:44Z</time>
      </trkpt>
      <trkpt lat="49.42404" lon="5.75136">
        <ele>322.60000610352</ele>
        <time>2023-06-23T07:48:46Z</time>
      </trkpt>
      <trkpt lat="49.42403" lon="5.75134">
        <ele>322.60000610352</ele>
        <time>2023-06-23T07:48:47Z</time>
      </trkpt>
      <trkpt lat="49.424" lon="5.75128">
        <ele>322.60000610352</ele>
        <time>2023-06-23T07:48:50Z</time>
      </trkpt>
      <trkpt lat="49.42399" lon="5.75126">
        <ele>322.60000610352</ele>
        <time>2023-06-23T07:48:51Z</time>
      </trkpt>
      <trkpt lat="49.42396" lon="5.75118">
        <ele>322.39999389648</ele>
        <time>2023-06-23T07:48:53Z</time>
      </trkpt>
      <trkpt lat="49.42395" lon="5.75115">
        <ele>322.39999389648</ele>
        <time>2023-06-23T07:48:54Z</time>
      </trkpt>
      <trkpt lat="49.42394" lon="5.75112">
        <ele>322.20001220703</ele>
        <time>2023-06-23T07:48:55Z</time>
      </trkpt>
      <trkpt lat="49.42391" lon="5.75105">
        <ele>322.20001220703</ele>
        <time>2023-06-23T07:48:57Z</time>
      </trkpt>
      <trkpt lat="49.42388" lon="5.75098">
        <ele>321.79998779297</ele>
        <time>2023-06-23T07:48:59Z</time>
      </trkpt>
      <trkpt lat="49.42386" lon="5.75093">
        <ele>321.39999389648</ele>
        <time>2023-06-23T07:49:01Z</time>
      </trkpt>
      <trkpt lat="49.42384" lon="5.75089">
        <ele>321.39999389648</ele>
        <time>2023-06-23T07:49:02Z</time>
      </trkpt>
      <trkpt lat="49.42383" lon="5.75087">
        <ele>321.20001220703</ele>
        <time>2023-06-23T07:49:03Z</time>
      </trkpt>
      <trkpt lat="49.42379" lon="5.75078">
        <ele>321</ele>
        <time>2023-06-23T07:49:05Z</time>
      </trkpt>
      <trkpt lat="49.42376" lon="5.75073">
        <ele>321</ele>
        <time>2023-06-23T07:49:06Z</time>
      </trkpt>
      <trkpt lat="49.42374" lon="5.75069">
        <ele>321</ele>
        <time>2023-06-23T07:49:07Z</time>
      </trkpt>
      <trkpt lat="49.4237" lon="5.75058">
        <ele>320.39999389648</ele>
        <time>2023-06-23T07:49:09Z</time>
      </trkpt>
      <trkpt lat="49.42367" lon="5.75047">
        <ele>320.39999389648</ele>
        <time>2023-06-23T07:49:11Z</time>
      </trkpt>
      <trkpt lat="49.42366" lon="5.75042">
        <ele>320.20001220703</ele>
        <time>2023-06-23T07:49:12Z</time>
      </trkpt>
      <trkpt lat="49.42363" lon="5.75037">
        <ele>320</ele>
        <time>2023-06-23T07:49:13Z</time>
      </trkpt>
      <trkpt lat="49.42358" lon="5.75027">
        <ele>319.39999389648</ele>
        <time>2023-06-23T07:49:15Z</time>
      </trkpt>
      <trkpt lat="49.42352" lon="5.75011">
        <ele>319.39999389648</ele>
        <time>2023-06-23T07:49:17Z</time>
      </trkpt>
      <trkpt lat="49.42347" lon="5.75001">
        <ele>319.20001220703</ele>
        <time>2023-06-23T07:49:19Z</time>
      </trkpt>
      <trkpt lat="49.42342" lon="5.74993">
        <ele>319.20001220703</ele>
        <time>2023-06-23T07:49:21Z</time>
      </trkpt>
      <trkpt lat="49.42336" lon="5.74984">
        <ele>319.20001220703</ele>
        <time>2023-06-23T07:49:23Z</time>
      </trkpt>
      <trkpt lat="49.42331" lon="5.74974">
        <ele>319</ele>
        <time>2023-06-23T07:49:25Z</time>
      </trkpt>
      <trkpt lat="49.42326" lon="5.74962">
        <ele>319</ele>
        <time>2023-06-23T07:49:27Z</time>
      </trkpt>
      <trkpt lat="49.42321" lon="5.7495">
        <ele>319</ele>
        <time>2023-06-23T07:49:29Z</time>
      </trkpt>
      <trkpt lat="49.42318" lon="5.74942">
        <ele>319</ele>
        <time>2023-06-23T07:49:31Z</time>
      </trkpt>
      <trkpt lat="49.42316" lon="5.74938">
        <ele>319</ele>
        <time>2023-06-23T07:49:32Z</time>
      </trkpt>
      <trkpt lat="49.42314" lon="5.74932">
        <ele>318.79998779297</ele>
        <time>2023-06-23T07:49:33Z</time>
      </trkpt>
      <trkpt lat="49.42309" lon="5.74919">
        <ele>318.79998779297</ele>
        <time>2023-06-23T07:49:35Z</time>
      </trkpt>
      <trkpt lat="49.42307" lon="5.74913">
        <ele>318.79998779297</ele>
        <time>2023-06-23T07:49:37Z</time>
      </trkpt>
      <trkpt lat="49.42303" lon="5.74903">
        <ele>318.79998779297</ele>
        <time>2023-06-23T07:49:39Z</time>
      </trkpt>
      <trkpt lat="49.42298" lon="5.74891">
        <ele>318.79998779297</ele>
        <time>2023-06-23T07:49:41Z</time>
      </trkpt>
      <trkpt lat="49.42294" lon="5.74883">
        <ele>318.79998779297</ele>
        <time>2023-06-23T07:49:42Z</time>
      </trkpt>
      <trkpt lat="49.4229" lon="5.74875">
        <ele>318.60000610352</ele>
        <time>2023-06-23T07:49:43Z</time>
      </trkpt>
      <trkpt lat="49.42287" lon="5.74867">
        <ele>318.60000610352</ele>
        <time>2023-06-23T07:49:45Z</time>
      </trkpt>
      <trkpt lat="49.42282" lon="5.74857">
        <ele>318.60000610352</ele>
        <time>2023-06-23T07:49:47Z</time>
      </trkpt>
      <trkpt lat="49.42275" lon="5.74844">
        <ele>318.39999389648</ele>
        <time>2023-06-23T07:49:49Z</time>
      </trkpt>
      <trkpt lat="49.42267" lon="5.74829">
        <ele>318.20001220703</ele>
        <time>2023-06-23T07:49:51Z</time>
      </trkpt>
      <trkpt lat="49.42265" lon="5.74823">
        <ele>318.20001220703</ele>
        <time>2023-06-23T07:49:52Z</time>
      </trkpt>
      <trkpt lat="49.42263" lon="5.74817">
        <ele>318.20001220703</ele>
        <time>2023-06-23T07:49:53Z</time>
      </trkpt>
      <trkpt lat="49.42261" lon="5.74807">
        <ele>318</ele>
        <time>2023-06-23T07:49:55Z</time>
      </trkpt>
      <trkpt lat="49.4226" lon="5.74801">
        <ele>318</ele>
        <time>2023-06-23T07:49:56Z</time>
      </trkpt>
      <trkpt lat="49.42258" lon="5.74796">
        <ele>317.79998779297</ele>
        <time>2023-06-23T07:49:57Z</time>
      </trkpt>
      <trkpt lat="49.42254" lon="5.74786">
        <ele>317.79998779297</ele>
        <time>2023-06-23T07:49:59Z</time>
      </trkpt>
      <trkpt lat="49.4225" lon="5.74775">
        <ele>317.79998779297</ele>
        <time>2023-06-23T07:50:01Z</time>
      </trkpt>
      <trkpt lat="49.42249" lon="5.74771">
        <ele>317.79998779297</ele>
        <time>2023-06-23T07:50:02Z</time>
      </trkpt>
      <trkpt lat="49.42247" lon="5.74766">
        <ele>317.79998779297</ele>
        <time>2023-06-23T07:50:03Z</time>
      </trkpt>
      <trkpt lat="49.42242" lon="5.74754">
        <ele>317.60000610352</ele>
        <time>2023-06-23T07:50:05Z</time>
      </trkpt>
      <trkpt lat="49.42236" lon="5.74741">
        <ele>317.39999389648</ele>
        <time>2023-06-23T07:50:07Z</time>
      </trkpt>
      <trkpt lat="49.42228" lon="5.74724">
        <ele>317.39999389648</ele>
        <time>2023-06-23T07:50:09Z</time>
      </trkpt>
      <trkpt lat="49.42222" lon="5.7471">
        <ele>317</ele>
        <time>2023-06-23T07:50:11Z</time>
      </trkpt>
      <trkpt lat="49.4222" lon="5.74704">
        <ele>316.79998779297</ele>
        <time>2023-06-23T07:50:12Z</time>
      </trkpt>
      <trkpt lat="49.42217" lon="5.74697">
        <ele>316.79998779297</ele>
        <time>2023-06-23T07:50:13Z</time>
      </trkpt>
      <trkpt lat="49.4221" lon="5.74682">
        <ele>316.20001220703</ele>
        <time>2023-06-23T07:50:15Z</time>
      </trkpt>
      <trkpt lat="49.42202" lon="5.74666">
        <ele>316</ele>
        <time>2023-06-23T07:50:17Z</time>
      </trkpt>
      <trkpt lat="49.42197" lon="5.74659">
        <ele>315.79998779297</ele>
        <time>2023-06-23T07:50:18Z</time>
      </trkpt>
      <trkpt lat="49.42193" lon="5.74651">
        <ele>315.60000610352</ele>
        <time>2023-06-23T07:50:19Z</time>
      </trkpt>
      <trkpt lat="49.42186" lon="5.74634">
        <ele>315.20001220703</ele>
        <time>2023-06-23T07:50:21Z</time>
      </trkpt>
      <trkpt lat="49.42179" lon="5.74617">
        <ele>314.79998779297</ele>
        <time>2023-06-23T07:50:23Z</time>
      </trkpt>
      <trkpt lat="49.42176" lon="5.7461">
        <ele>314.79998779297</ele>
        <time>2023-06-23T07:50:24Z</time>
      </trkpt>
      <trkpt lat="49.42173" lon="5.74602">
        <ele>314.60000610352</ele>
        <time>2023-06-23T07:50:25Z</time>
      </trkpt>
      <trkpt lat="49.42167" lon="5.74589">
        <ele>314.39999389648</ele>
        <time>2023-06-23T07:50:27Z</time>
      </trkpt>
      <trkpt lat="49.42161" lon="5.74576">
        <ele>314.39999389648</ele>
        <time>2023-06-23T07:50:29Z</time>
      </trkpt>
      <trkpt lat="49.42156" lon="5.74564">
        <ele>314</ele>
        <time>2023-06-23T07:50:31Z</time>
      </trkpt>
      <trkpt lat="49.4215" lon="5.74552">
        <ele>313.60000610352</ele>
        <time>2023-06-23T07:50:33Z</time>
      </trkpt>
      <trkpt lat="49.42145" lon="5.74539">
        <ele>313.20001220703</ele>
        <time>2023-06-23T07:50:35Z</time>
      </trkpt>
      <trkpt lat="49.4214" lon="5.74527">
        <ele>313</ele>
        <time>2023-06-23T07:50:37Z</time>
      </trkpt>
      <trkpt lat="49.42138" lon="5.74521">
        <ele>313</ele>
        <time>2023-06-23T07:50:38Z</time>
      </trkpt>
      <trkpt lat="49.42135" lon="5.74515">
        <ele>312.79998779297</ele>
        <time>2023-06-23T07:50:39Z</time>
      </trkpt>
      <trkpt lat="49.42132" lon="5.74509">
        <ele>312.79998779297</ele>
        <time>2023-06-23T07:50:40Z</time>
      </trkpt>
      <trkpt lat="49.42129" lon="5.74503">
        <ele>312.79998779297</ele>
        <time>2023-06-23T07:50:41Z</time>
      </trkpt>
      <trkpt lat="49.42126" lon="5.74498">
        <ele>312.60000610352</ele>
        <time>2023-06-23T07:50:42Z</time>
      </trkpt>
      <trkpt lat="49.42123" lon="5.74491">
        <ele>312.60000610352</ele>
        <time>2023-06-23T07:50:43Z</time>
      </trkpt>
      <trkpt lat="49.42121" lon="5.74485">
        <ele>312.39999389648</ele>
        <time>2023-06-23T07:50:44Z</time>
      </trkpt>
      <trkpt lat="49.42117" lon="5.74478">
        <ele>312.20001220703</ele>
        <time>2023-06-23T07:50:45Z</time>
      </trkpt>
      <trkpt lat="49.42115" lon="5.74473">
        <ele>312</ele>
        <time>2023-06-23T07:50:46Z</time>
      </trkpt>
      <trkpt lat="49.42112" lon="5.74468">
        <ele>312</ele>
        <time>2023-06-23T07:50:47Z</time>
      </trkpt>
      <trkpt lat="49.42106" lon="5.74456">
        <ele>311.79998779297</ele>
        <time>2023-06-23T07:50:49Z</time>
      </trkpt>
      <trkpt lat="49.42103" lon="5.74446">
        <ele>311.60000610352</ele>
        <time>2023-06-23T07:50:51Z</time>
      </trkpt>
      <trkpt lat="49.42102" lon="5.74441">
        <ele>311.39999389648</ele>
        <time>2023-06-23T07:50:52Z</time>
      </trkpt>
      <trkpt lat="49.421" lon="5.74435">
        <ele>311.39999389648</ele>
        <time>2023-06-23T07:50:53Z</time>
      </trkpt>
      <trkpt lat="49.42099" lon="5.74429">
        <ele>311.20001220703</ele>
        <time>2023-06-23T07:50:54Z</time>
      </trkpt>
      <trkpt lat="49.42097" lon="5.74421">
        <ele>311.20001220703</ele>
        <time>2023-06-23T07:50:55Z</time>
      </trkpt>
      <trkpt lat="49.42093" lon="5.74407">
        <ele>311.20001220703</ele>
        <time>2023-06-23T07:50:57Z</time>
      </trkpt>
      <trkpt lat="49.42089" lon="5.74393">
        <ele>311.20001220703</ele>
        <time>2023-06-23T07:50:59Z</time>
      </trkpt>
      <trkpt lat="49.42086" lon="5.74381">
        <ele>311</ele>
        <time>2023-06-23T07:51:01Z</time>
      </trkpt>
      <trkpt lat="49.42082" lon="5.74368">
        <ele>311</ele>
        <time>2023-06-23T07:51:03Z</time>
      </trkpt>
      <trkpt lat="49.42078" lon="5.74356">
        <ele>311</ele>
        <time>2023-06-23T07:51:05Z</time>
      </trkpt>
      <trkpt lat="49.42074" lon="5.74343">
        <ele>311</ele>
        <time>2023-06-23T07:51:07Z</time>
      </trkpt>
      <trkpt lat="49.42073" lon="5.74337">
        <ele>310.79998779297</ele>
        <time>2023-06-23T07:51:08Z</time>
      </trkpt>
      <trkpt lat="49.42071" lon="5.7433">
        <ele>310.79998779297</ele>
        <time>2023-06-23T07:51:09Z</time>
      </trkpt>
      <trkpt lat="49.42066" lon="5.74316">
        <ele>310.39999389648</ele>
        <time>2023-06-23T07:51:11Z</time>
      </trkpt>
      <trkpt lat="49.42063" lon="5.74308">
        <ele>310.20001220703</ele>
        <time>2023-06-23T07:51:12Z</time>
      </trkpt>
      <trkpt lat="49.4206" lon="5.74302">
        <ele>310</ele>
        <time>2023-06-23T07:51:13Z</time>
      </trkpt>
      <trkpt lat="49.42054" lon="5.74289">
        <ele>309.79998779297</ele>
        <time>2023-06-23T07:51:15Z</time>
      </trkpt>
      <trkpt lat="49.42052" lon="5.74283">
        <ele>309.60000610352</ele>
        <time>2023-06-23T07:51:16Z</time>
      </trkpt>
      <trkpt lat="49.42049" lon="5.74277">
        <ele>309.60000610352</ele>
        <time>2023-06-23T07:51:17Z</time>
      </trkpt>
      <trkpt lat="49.42044" lon="5.74265">
        <ele>309.39999389648</ele>
        <time>2023-06-23T07:51:19Z</time>
      </trkpt>
      <trkpt lat="49.42043" lon="5.74254">
        <ele>309.20001220703</ele>
        <time>2023-06-23T07:51:21Z</time>
      </trkpt>
      <trkpt lat="49.42043" lon="5.74242">
        <ele>308.79998779297</ele>
        <time>2023-06-23T07:51:23Z</time>
      </trkpt>
      <trkpt lat="49.42042" lon="5.7423">
        <ele>308.79998779297</ele>
        <time>2023-06-23T07:51:25Z</time>
      </trkpt>
      <trkpt lat="49.42039" lon="5.74223">
        <ele>308.60000610352</ele>
        <time>2023-06-23T07:51:26Z</time>
      </trkpt>
      <trkpt lat="49.42036" lon="5.74217">
        <ele>308.60000610352</ele>
        <time>2023-06-23T07:51:27Z</time>
      </trkpt>
      <trkpt lat="49.42033" lon="5.74214">
        <ele>308.39999389648</ele>
        <time>2023-06-23T07:51:28Z</time>
      </trkpt>
      <trkpt lat="49.4203" lon="5.74213">
        <ele>308.39999389648</ele>
        <time>2023-06-23T07:51:29Z</time>
      </trkpt>
      <trkpt lat="49.42026" lon="5.74216">
        <ele>308.20001220703</ele>
        <time>2023-06-23T07:51:31Z</time>
      </trkpt>
      <trkpt lat="49.42025" lon="5.74219">
        <ele>308.20001220703</ele>
        <time>2023-06-23T07:51:32Z</time>
      </trkpt>
      <trkpt lat="49.42023" lon="5.74221">
        <ele>308.20001220703</ele>
        <time>2023-06-23T07:51:33Z</time>
      </trkpt>
      <trkpt lat="49.42018" lon="5.74226">
        <ele>308.20001220703</ele>
        <time>2023-06-23T07:51:35Z</time>
      </trkpt>
      <trkpt lat="49.42013" lon="5.74232">
        <ele>308.20001220703</ele>
        <time>2023-06-23T07:51:37Z</time>
      </trkpt>
      <trkpt lat="49.42007" lon="5.7424">
        <ele>308.20001220703</ele>
        <time>2023-06-23T07:51:39Z</time>
      </trkpt>
      <trkpt lat="49.42002" lon="5.74247">
        <ele>308.39999389648</ele>
        <time>2023-06-23T07:51:41Z</time>
      </trkpt>
      <trkpt lat="49.41996" lon="5.74255">
        <ele>308.60000610352</ele>
        <time>2023-06-23T07:51:43Z</time>
      </trkpt>
      <trkpt lat="49.41991" lon="5.74263">
        <ele>308.79998779297</ele>
        <time>2023-06-23T07:51:45Z</time>
      </trkpt>
      <trkpt lat="49.41986" lon="5.74271">
        <ele>309</ele>
        <time>2023-06-23T07:51:47Z</time>
      </trkpt>
      <trkpt lat="49.41984" lon="5.74275">
        <ele>309.20001220703</ele>
        <time>2023-06-23T07:51:48Z</time>
      </trkpt>
      <trkpt lat="49.41982" lon="5.74279">
        <ele>309.20001220703</ele>
        <time>2023-06-23T07:51:49Z</time>
      </trkpt>
      <trkpt lat="49.41979" lon="5.74282">
        <ele>309.20001220703</ele>
        <time>2023-06-23T07:51:50Z</time>
      </trkpt>
      <trkpt lat="49.41977" lon="5.74286">
        <ele>309.20001220703</ele>
        <time>2023-06-23T07:51:51Z</time>
      </trkpt>
      <trkpt lat="49.41973" lon="5.74294">
        <ele>309.39999389648</ele>
        <time>2023-06-23T07:51:53Z</time>
      </trkpt>
      <trkpt lat="49.41968" lon="5.743">
        <ele>309.39999389648</ele>
        <time>2023-06-23T07:51:55Z</time>
      </trkpt>
      <trkpt lat="49.41963" lon="5.74306">
        <ele>309.79998779297</ele>
        <time>2023-06-23T07:51:57Z</time>
      </trkpt>
      <trkpt lat="49.41958" lon="5.74311">
        <ele>310</ele>
        <time>2023-06-23T07:51:59Z</time>
      </trkpt>
      <trkpt lat="49.41956" lon="5.74314">
        <ele>310.20001220703</ele>
        <time>2023-06-23T07:52:00Z</time>
      </trkpt>
      <trkpt lat="49.41953" lon="5.74318">
        <ele>310.20001220703</ele>
        <time>2023-06-23T07:52:01Z</time>
      </trkpt>
      <trkpt lat="49.41949" lon="5.74324">
        <ele>310.39999389648</ele>
        <time>2023-06-23T07:52:03Z</time>
      </trkpt>
      <trkpt lat="49.41944" lon="5.7433">
        <ele>310.60000610352</ele>
        <time>2023-06-23T07:52:05Z</time>
      </trkpt>
      <trkpt lat="49.41939" lon="5.74337">
        <ele>311</ele>
        <time>2023-06-23T07:52:07Z</time>
      </trkpt>
      <trkpt lat="49.41935" lon="5.74344">
        <ele>311.20001220703</ele>
        <time>2023-06-23T07:52:09Z</time>
      </trkpt>
      <trkpt lat="49.41931" lon="5.7435">
        <ele>311.20001220703</ele>
        <time>2023-06-23T07:52:11Z</time>
      </trkpt>
      <trkpt lat="49.41928" lon="5.74353">
        <ele>311.20001220703</ele>
        <time>2023-06-23T07:52:12Z</time>
      </trkpt>
      <trkpt lat="49.41926" lon="5.74356">
        <ele>311.39999389648</ele>
        <time>2023-06-23T07:52:13Z</time>
      </trkpt>
      <trkpt lat="49.41922" lon="5.74362">
        <ele>311.60000610352</ele>
        <time>2023-06-23T07:52:15Z</time>
      </trkpt>
      <trkpt lat="49.41917" lon="5.74367">
        <ele>311.79998779297</ele>
        <time>2023-06-23T07:52:17Z</time>
      </trkpt>
      <trkpt lat="49.41913" lon="5.74373">
        <ele>312</ele>
        <time>2023-06-23T07:52:19Z</time>
      </trkpt>
      <trkpt lat="49.41908" lon="5.74379">
        <ele>312</ele>
        <time>2023-06-23T07:52:21Z</time>
      </trkpt>
      <trkpt lat="49.41906" lon="5.74382">
        <ele>312.20001220703</ele>
        <time>2023-06-23T07:52:22Z</time>
      </trkpt>
      <trkpt lat="49.41904" lon="5.74384">
        <ele>312.20001220703</ele>
        <time>2023-06-23T07:52:23Z</time>
      </trkpt>
      <trkpt lat="49.41899" lon="5.7439">
        <ele>312.39999389648</ele>
        <time>2023-06-23T07:52:25Z</time>
      </trkpt>
      <trkpt lat="49.41895" lon="5.74396">
        <ele>312.39999389648</ele>
        <time>2023-06-23T07:52:27Z</time>
      </trkpt>
      <trkpt lat="49.41891" lon="5.74401">
        <ele>312.60000610352</ele>
        <time>2023-06-23T07:52:29Z</time>
      </trkpt>
      <trkpt lat="49.41886" lon="5.74406">
        <ele>312.60000610352</ele>
        <time>2023-06-23T07:52:31Z</time>
      </trkpt>
      <trkpt lat="49.41882" lon="5.74412">
        <ele>312.79998779297</ele>
        <time>2023-06-23T07:52:33Z</time>
      </trkpt>
      <trkpt lat="49.41878" lon="5.74417">
        <ele>313</ele>
        <time>2023-06-23T07:52:35Z</time>
      </trkpt>
      <trkpt lat="49.41873" lon="5.74423">
        <ele>313.20001220703</ele>
        <time>2023-06-23T07:52:37Z</time>
      </trkpt>
      <trkpt lat="49.41869" lon="5.74428">
        <ele>313.20001220703</ele>
        <time>2023-06-23T07:52:39Z</time>
      </trkpt>
      <trkpt lat="49.41867" lon="5.74431">
        <ele>313.39999389648</ele>
        <time>2023-06-23T07:52:40Z</time>
      </trkpt>
      <trkpt lat="49.41865" lon="5.74433">
        <ele>313.39999389648</ele>
        <time>2023-06-23T07:52:41Z</time>
      </trkpt>
      <trkpt lat="49.41861" lon="5.74439">
        <ele>313.60000610352</ele>
        <time>2023-06-23T07:52:43Z</time>
      </trkpt>
      <trkpt lat="49.41856" lon="5.74444">
        <ele>313.60000610352</ele>
        <time>2023-06-23T07:52:45Z</time>
      </trkpt>
      <trkpt lat="49.41852" lon="5.74449">
        <ele>313.60000610352</ele>
        <time>2023-06-23T07:52:47Z</time>
      </trkpt>
      <trkpt lat="49.41848" lon="5.74455">
        <ele>313.79998779297</ele>
        <time>2023-06-23T07:52:49Z</time>
      </trkpt>
      <trkpt lat="49.41843" lon="5.7446">
        <ele>313.79998779297</ele>
        <time>2023-06-23T07:52:51Z</time>
      </trkpt>
      <trkpt lat="49.41839" lon="5.74464">
        <ele>314</ele>
        <time>2023-06-23T07:52:53Z</time>
      </trkpt>
      <trkpt lat="49.41835" lon="5.7447">
        <ele>314</ele>
        <time>2023-06-23T07:52:55Z</time>
      </trkpt>
      <trkpt lat="49.41831" lon="5.74475">
        <ele>314</ele>
        <time>2023-06-23T07:52:57Z</time>
      </trkpt>
      <trkpt lat="49.41826" lon="5.7448">
        <ele>314.39999389648</ele>
        <time>2023-06-23T07:52:59Z</time>
      </trkpt>
      <trkpt lat="49.41824" lon="5.74483">
        <ele>314.39999389648</ele>
        <time>2023-06-23T07:53:00Z</time>
      </trkpt>
      <trkpt lat="49.41822" lon="5.74485">
        <ele>314.39999389648</ele>
        <time>2023-06-23T07:53:01Z</time>
      </trkpt>
      <trkpt lat="49.41817" lon="5.74491">
        <ele>314.39999389648</ele>
        <time>2023-06-23T07:53:03Z</time>
      </trkpt>
      <trkpt lat="49.41813" lon="5.74496">
        <ele>314.39999389648</ele>
        <time>2023-06-23T07:53:05Z</time>
      </trkpt>
      <trkpt lat="49.41808" lon="5.74502">
        <ele>314.39999389648</ele>
        <time>2023-06-23T07:53:07Z</time>
      </trkpt>
      <trkpt lat="49.41805" lon="5.74505">
        <ele>314.39999389648</ele>
        <time>2023-06-23T07:53:08Z</time>
      </trkpt>
      <trkpt lat="49.41803" lon="5.74508">
        <ele>314.39999389648</ele>
        <time>2023-06-23T07:53:09Z</time>
      </trkpt>
      <trkpt lat="49.41798" lon="5.74513">
        <ele>314.39999389648</ele>
        <time>2023-06-23T07:53:11Z</time>
      </trkpt>
      <trkpt lat="49.41793" lon="5.74519">
        <ele>314.39999389648</ele>
        <time>2023-06-23T07:53:13Z</time>
      </trkpt>
      <trkpt lat="49.41789" lon="5.74524">
        <ele>314.39999389648</ele>
        <time>2023-06-23T07:53:15Z</time>
      </trkpt>
      <trkpt lat="49.41784" lon="5.74529">
        <ele>314.39999389648</ele>
        <time>2023-06-23T07:53:17Z</time>
      </trkpt>
      <trkpt lat="49.4178" lon="5.74535">
        <ele>314.39999389648</ele>
        <time>2023-06-23T07:53:19Z</time>
      </trkpt>
      <trkpt lat="49.41776" lon="5.7454">
        <ele>314.39999389648</ele>
        <time>2023-06-23T07:53:21Z</time>
      </trkpt>
      <trkpt lat="49.41771" lon="5.74545">
        <ele>314.39999389648</ele>
        <time>2023-06-23T07:53:23Z</time>
      </trkpt>
      <trkpt lat="49.41767" lon="5.7455">
        <ele>314.60000610352</ele>
        <time>2023-06-23T07:53:25Z</time>
      </trkpt>
      <trkpt lat="49.41762" lon="5.74555">
        <ele>314.79998779297</ele>
        <time>2023-06-23T07:53:27Z</time>
      </trkpt>
      <trkpt lat="49.41758" lon="5.7456">
        <ele>314.60000610352</ele>
        <time>2023-06-23T07:53:29Z</time>
      </trkpt>
      <trkpt lat="49.41753" lon="5.74564">
        <ele>314.79998779297</ele>
        <time>2023-06-23T07:53:31Z</time>
      </trkpt>
      <trkpt lat="49.41749" lon="5.74569">
        <ele>315</ele>
        <time>2023-06-23T07:53:33Z</time>
      </trkpt>
      <trkpt lat="49.41747" lon="5.74571">
        <ele>315.20001220703</ele>
        <time>2023-06-23T07:53:34Z</time>
      </trkpt>
      <trkpt lat="49.41745" lon="5.74573">
        <ele>315.39999389648</ele>
        <time>2023-06-23T07:53:35Z</time>
      </trkpt>
      <trkpt lat="49.4174" lon="5.74577">
        <ele>315.39999389648</ele>
        <time>2023-06-23T07:53:37Z</time>
      </trkpt>
      <trkpt lat="49.41736" lon="5.74581">
        <ele>315.60000610352</ele>
        <time>2023-06-23T07:53:39Z</time>
      </trkpt>
      <trkpt lat="49.41732" lon="5.74586">
        <ele>315.60000610352</ele>
        <time>2023-06-23T07:53:41Z</time>
      </trkpt>
      <trkpt lat="49.41728" lon="5.74589">
        <ele>315.60000610352</ele>
        <time>2023-06-23T07:53:43Z</time>
      </trkpt>
      <trkpt lat="49.41723" lon="5.74593">
        <ele>315.79998779297</ele>
        <time>2023-06-23T07:53:45Z</time>
      </trkpt>
      <trkpt lat="49.41719" lon="5.74597">
        <ele>316</ele>
        <time>2023-06-23T07:53:47Z</time>
      </trkpt>
      <trkpt lat="49.41716" lon="5.74598">
        <ele>316.20001220703</ele>
        <time>2023-06-23T07:53:48Z</time>
      </trkpt>
      <trkpt lat="49.41714" lon="5.746">
        <ele>316.20001220703</ele>
        <time>2023-06-23T07:53:49Z</time>
      </trkpt>
      <trkpt lat="49.41709" lon="5.74603">
        <ele>316.39999389648</ele>
        <time>2023-06-23T07:53:51Z</time>
      </trkpt>
      <trkpt lat="49.41705" lon="5.74607">
        <ele>316.60000610352</ele>
        <time>2023-06-23T07:53:53Z</time>
      </trkpt>
      <trkpt lat="49.41701" lon="5.7461">
        <ele>316.60000610352</ele>
        <time>2023-06-23T07:53:55Z</time>
      </trkpt>
      <trkpt lat="49.41699" lon="5.7461">
        <ele>316.60000610352</ele>
        <time>2023-06-23T07:53:56Z</time>
      </trkpt>
      <trkpt lat="49.41697" lon="5.74611">
        <ele>316.60000610352</ele>
        <time>2023-06-23T07:53:57Z</time>
      </trkpt>
      <trkpt lat="49.41693" lon="5.74613">
        <ele>316.79998779297</ele>
        <time>2023-06-23T07:53:59Z</time>
      </trkpt>
      <trkpt lat="49.41689" lon="5.74615">
        <ele>316.79998779297</ele>
        <time>2023-06-23T07:54:01Z</time>
      </trkpt>
      <trkpt lat="49.41685" lon="5.74618">
        <ele>317</ele>
        <time>2023-06-23T07:54:03Z</time>
      </trkpt>
      <trkpt lat="49.41681" lon="5.7462">
        <ele>317.20001220703</ele>
        <time>2023-06-23T07:54:05Z</time>
      </trkpt>
      <trkpt lat="49.41677" lon="5.74622">
        <ele>317.39999389648</ele>
        <time>2023-06-23T07:54:07Z</time>
      </trkpt>
      <trkpt lat="49.41673" lon="5.74624">
        <ele>317.60000610352</ele>
        <time>2023-06-23T07:54:09Z</time>
      </trkpt>
      <trkpt lat="49.4167" lon="5.74626">
        <ele>317.79998779297</ele>
        <time>2023-06-23T07:54:11Z</time>
      </trkpt>
      <trkpt lat="49.41668" lon="5.74627">
        <ele>318</ele>
        <time>2023-06-23T07:54:12Z</time>
      </trkpt>
      <trkpt lat="49.41666" lon="5.74628">
        <ele>318.20001220703</ele>
        <time>2023-06-23T07:54:13Z</time>
      </trkpt>
      <trkpt lat="49.41664" lon="5.74629">
        <ele>318.39999389648</ele>
        <time>2023-06-23T07:54:14Z</time>
      </trkpt>
      <trkpt lat="49.41662" lon="5.74631">
        <ele>318.60000610352</ele>
        <time>2023-06-23T07:54:15Z</time>
      </trkpt>
      <trkpt lat="49.41659" lon="5.74633">
        <ele>318.79998779297</ele>
        <time>2023-06-23T07:54:17Z</time>
      </trkpt>
      <trkpt lat="49.41655" lon="5.74635">
        <ele>319.20001220703</ele>
        <time>2023-06-23T07:54:19Z</time>
      </trkpt>
      <trkpt lat="49.41654" lon="5.74636">
        <ele>319.60000610352</ele>
        <time>2023-06-23T07:54:20Z</time>
      </trkpt>
      <trkpt lat="49.41652" lon="5.74637">
        <ele>319.79998779297</ele>
        <time>2023-06-23T07:54:21Z</time>
      </trkpt>
      <trkpt lat="49.41649" lon="5.74639">
        <ele>320.20001220703</ele>
        <time>2023-06-23T07:54:23Z</time>
      </trkpt>
      <trkpt lat="49.41646" lon="5.7464">
        <ele>320.60000610352</ele>
        <time>2023-06-23T07:54:25Z</time>
      </trkpt>
      <trkpt lat="49.41642" lon="5.74643">
        <ele>321.20001220703</ele>
        <time>2023-06-23T07:54:27Z</time>
      </trkpt>
      <trkpt lat="49.41639" lon="5.74645">
        <ele>321.60000610352</ele>
        <time>2023-06-23T07:54:29Z</time>
      </trkpt>
      <trkpt lat="49.41637" lon="5.74646">
        <ele>321.79998779297</ele>
        <time>2023-06-23T07:54:30Z</time>
      </trkpt>
      <trkpt lat="49.41636" lon="5.74647">
        <ele>322</ele>
        <time>2023-06-23T07:54:31Z</time>
      </trkpt>
      <trkpt lat="49.41632" lon="5.74649">
        <ele>322.39999389648</ele>
        <time>2023-06-23T07:54:33Z</time>
      </trkpt>
      <trkpt lat="49.41629" lon="5.74651">
        <ele>322.60000610352</ele>
        <time>2023-06-23T07:54:35Z</time>
      </trkpt>
      <trkpt lat="49.41627" lon="5.74652">
        <ele>322.79998779297</ele>
        <time>2023-06-23T07:54:36Z</time>
      </trkpt>
      <trkpt lat="49.41625" lon="5.74653">
        <ele>323</ele>
        <time>2023-06-23T07:54:37Z</time>
      </trkpt>
      <trkpt lat="49.41622" lon="5.74655">
        <ele>323.39999389648</ele>
        <time>2023-06-23T07:54:39Z</time>
      </trkpt>
      <trkpt lat="49.41618" lon="5.74657">
        <ele>323.79998779297</ele>
        <time>2023-06-23T07:54:41Z</time>
      </trkpt>
      <trkpt lat="49.41616" lon="5.74657">
        <ele>324</ele>
        <time>2023-06-23T07:54:42Z</time>
      </trkpt>
      <trkpt lat="49.41615" lon="5.74658">
        <ele>324.20001220703</ele>
        <time>2023-06-23T07:54:43Z</time>
      </trkpt>
      <trkpt lat="49.41612" lon="5.7466">
        <ele>324.60000610352</ele>
        <time>2023-06-23T07:54:45Z</time>
      </trkpt>
      <trkpt lat="49.41609" lon="5.74661">
        <ele>325</ele>
        <time>2023-06-23T07:54:47Z</time>
      </trkpt>
      <trkpt lat="49.41607" lon="5.74662">
        <ele>325.39999389648</ele>
        <time>2023-06-23T07:54:48Z</time>
      </trkpt>
      <trkpt lat="49.41605" lon="5.74663">
        <ele>325.79998779297</ele>
        <time>2023-06-23T07:54:49Z</time>
      </trkpt>
      <trkpt lat="49.41602" lon="5.74665">
        <ele>326</ele>
        <time>2023-06-23T07:54:51Z</time>
      </trkpt>
      <trkpt lat="49.41599" lon="5.74667">
        <ele>326.60000610352</ele>
        <time>2023-06-23T07:54:53Z</time>
      </trkpt>
      <trkpt lat="49.41595" lon="5.74669">
        <ele>326.79998779297</ele>
        <time>2023-06-23T07:54:55Z</time>
      </trkpt>
      <trkpt lat="49.41592" lon="5.7467">
        <ele>327.20001220703</ele>
        <time>2023-06-23T07:54:57Z</time>
      </trkpt>
      <trkpt lat="49.41589" lon="5.74673">
        <ele>327.39999389648</ele>
        <time>2023-06-23T07:54:59Z</time>
      </trkpt>
      <trkpt lat="49.41586" lon="5.74675">
        <ele>327.79998779297</ele>
        <time>2023-06-23T07:55:01Z</time>
      </trkpt>
      <trkpt lat="49.41583" lon="5.74676">
        <ele>328.20001220703</ele>
        <time>2023-06-23T07:55:03Z</time>
      </trkpt>
      <trkpt lat="49.41582" lon="5.74677">
        <ele>328.39999389648</ele>
        <time>2023-06-23T07:55:04Z</time>
      </trkpt>
      <trkpt lat="49.4158" lon="5.74678">
        <ele>328.60000610352</ele>
        <time>2023-06-23T07:55:05Z</time>
      </trkpt>
      <trkpt lat="49.41577" lon="5.7468">
        <ele>328.79998779297</ele>
        <time>2023-06-23T07:55:07Z</time>
      </trkpt>
      <trkpt lat="49.41574" lon="5.74682">
        <ele>329.20001220703</ele>
        <time>2023-06-23T07:55:09Z</time>
      </trkpt>
      <trkpt lat="49.4157" lon="5.74684">
        <ele>329.39999389648</ele>
        <time>2023-06-23T07:55:11Z</time>
      </trkpt>
      <trkpt lat="49.41569" lon="5.74686">
        <ele>329.39999389648</ele>
        <time>2023-06-23T07:55:12Z</time>
      </trkpt>
      <trkpt lat="49.41567" lon="5.74687">
        <ele>329.60000610352</ele>
        <time>2023-06-23T07:55:13Z</time>
      </trkpt>
      <trkpt lat="49.41564" lon="5.74689">
        <ele>330.20001220703</ele>
        <time>2023-06-23T07:55:15Z</time>
      </trkpt>
      <trkpt lat="49.4156" lon="5.74691">
        <ele>330.39999389648</ele>
        <time>2023-06-23T07:55:17Z</time>
      </trkpt>
      <trkpt lat="49.41557" lon="5.74694">
        <ele>330.60000610352</ele>
        <time>2023-06-23T07:55:19Z</time>
      </trkpt>
      <trkpt lat="49.41556" lon="5.74695">
        <ele>330.79998779297</ele>
        <time>2023-06-23T07:55:20Z</time>
      </trkpt>
      <trkpt lat="49.41554" lon="5.74697">
        <ele>330.79998779297</ele>
        <time>2023-06-23T07:55:21Z</time>
      </trkpt>
      <trkpt lat="49.4155" lon="5.74699">
        <ele>331</ele>
        <time>2023-06-23T07:55:23Z</time>
      </trkpt>
      <trkpt lat="49.41549" lon="5.74701">
        <ele>331.20001220703</ele>
        <time>2023-06-23T07:55:24Z</time>
      </trkpt>
      <trkpt lat="49.41547" lon="5.74702">
        <ele>331</ele>
        <time>2023-06-23T07:55:25Z</time>
      </trkpt>
      <trkpt lat="49.41544" lon="5.74706">
        <ele>331.60000610352</ele>
        <time>2023-06-23T07:55:27Z</time>
      </trkpt>
      <trkpt lat="49.41541" lon="5.7471">
        <ele>331.79998779297</ele>
        <time>2023-06-23T07:55:29Z</time>
      </trkpt>
      <trkpt lat="49.41538" lon="5.74713">
        <ele>332</ele>
        <time>2023-06-23T07:55:31Z</time>
      </trkpt>
      <trkpt lat="49.41535" lon="5.74717">
        <ele>332.20001220703</ele>
        <time>2023-06-23T07:55:33Z</time>
      </trkpt>
      <trkpt lat="49.41532" lon="5.74721">
        <ele>332.20001220703</ele>
        <time>2023-06-23T07:55:35Z</time>
      </trkpt>
      <trkpt lat="49.4153" lon="5.74723">
        <ele>332.20001220703</ele>
        <time>2023-06-23T07:55:36Z</time>
      </trkpt>
      <trkpt lat="49.41528" lon="5.74725">
        <ele>332.39999389648</ele>
        <time>2023-06-23T07:55:37Z</time>
      </trkpt>
      <trkpt lat="49.41525" lon="5.7473">
        <ele>332.39999389648</ele>
        <time>2023-06-23T07:55:39Z</time>
      </trkpt>
      <trkpt lat="49.41522" lon="5.74735">
        <ele>332.39999389648</ele>
        <time>2023-06-23T07:55:41Z</time>
      </trkpt>
      <trkpt lat="49.41518" lon="5.74741">
        <ele>332.39999389648</ele>
        <time>2023-06-23T07:55:43Z</time>
      </trkpt>
      <trkpt lat="49.41517" lon="5.74744">
        <ele>332.39999389648</ele>
        <time>2023-06-23T07:55:44Z</time>
      </trkpt>
      <trkpt lat="49.41515" lon="5.74747">
        <ele>332.39999389648</ele>
        <time>2023-06-23T07:55:45Z</time>
      </trkpt>
      <trkpt lat="49.41512" lon="5.74752">
        <ele>332.39999389648</ele>
        <time>2023-06-23T07:55:47Z</time>
      </trkpt>
      <trkpt lat="49.41509" lon="5.74757">
        <ele>332.39999389648</ele>
        <time>2023-06-23T07:55:49Z</time>
      </trkpt>
      <trkpt lat="49.41506" lon="5.74762">
        <ele>332.39999389648</ele>
        <time>2023-06-23T07:55:51Z</time>
      </trkpt>
      <trkpt lat="49.41502" lon="5.74768">
        <ele>332.39999389648</ele>
        <time>2023-06-23T07:55:53Z</time>
      </trkpt>
      <trkpt lat="49.41498" lon="5.74773">
        <ele>332.39999389648</ele>
        <time>2023-06-23T07:55:55Z</time>
      </trkpt>
      <trkpt lat="49.41493" lon="5.74778">
        <ele>332.39999389648</ele>
        <time>2023-06-23T07:55:57Z</time>
      </trkpt>
      <trkpt lat="49.41488" lon="5.74781">
        <ele>332.39999389648</ele>
        <time>2023-06-23T07:55:59Z</time>
      </trkpt>
      <trkpt lat="49.41482" lon="5.74786">
        <ele>332.20001220703</ele>
        <time>2023-06-23T07:56:01Z</time>
      </trkpt>
      <trkpt lat="49.41475" lon="5.74793">
        <ele>332</ele>
        <time>2023-06-23T07:56:03Z</time>
      </trkpt>
      <trkpt lat="49.41472" lon="5.74796">
        <ele>332</ele>
        <time>2023-06-23T07:56:04Z</time>
      </trkpt>
      <trkpt lat="49.41468" lon="5.74798">
        <ele>331.79998779297</ele>
        <time>2023-06-23T07:56:05Z</time>
      </trkpt>
      <trkpt lat="49.4146" lon="5.74804">
        <ele>331.60000610352</ele>
        <time>2023-06-23T07:56:07Z</time>
      </trkpt>
      <trkpt lat="49.4145" lon="5.74811">
        <ele>331</ele>
        <time>2023-06-23T07:56:09Z</time>
      </trkpt>
      <trkpt lat="49.41445" lon="5.74814">
        <ele>330.60000610352</ele>
        <time>2023-06-23T07:56:10Z</time>
      </trkpt>
      <trkpt lat="49.4144" lon="5.74819">
        <ele>330.20001220703</ele>
        <time>2023-06-23T07:56:11Z</time>
      </trkpt>
      <trkpt lat="49.41434" lon="5.74823">
        <ele>329.79998779297</ele>
        <time>2023-06-23T07:56:12Z</time>
      </trkpt>
      <trkpt lat="49.41428" lon="5.74827">
        <ele>329.60000610352</ele>
        <time>2023-06-23T07:56:13Z</time>
      </trkpt>
      <trkpt lat="49.41417" lon="5.74835">
        <ele>328.60000610352</ele>
        <time>2023-06-23T07:56:15Z</time>
      </trkpt>
      <trkpt lat="49.41411" lon="5.74839">
        <ele>328.20001220703</ele>
        <time>2023-06-23T07:56:16Z</time>
      </trkpt>
      <trkpt lat="49.41405" lon="5.74842">
        <ele>327.60000610352</ele>
        <time>2023-06-23T07:56:17Z</time>
      </trkpt>
      <trkpt lat="49.41392" lon="5.74851">
        <ele>326.39999389648</ele>
        <time>2023-06-23T07:56:19Z</time>
      </trkpt>
      <trkpt lat="49.4138" lon="5.74859">
        <ele>325.39999389648</ele>
        <time>2023-06-23T07:56:21Z</time>
      </trkpt>
      <trkpt lat="49.41368" lon="5.74867">
        <ele>323.60000610352</ele>
        <time>2023-06-23T07:56:23Z</time>
      </trkpt>
      <trkpt lat="49.41356" lon="5.74875">
        <ele>322.20001220703</ele>
        <time>2023-06-23T07:56:25Z</time>
      </trkpt>
      <trkpt lat="49.41346" lon="5.74883">
        <ele>320.79998779297</ele>
        <time>2023-06-23T07:56:27Z</time>
      </trkpt>
      <trkpt lat="49.41336" lon="5.7489">
        <ele>319.79998779297</ele>
        <time>2023-06-23T07:56:29Z</time>
      </trkpt>
      <trkpt lat="49.41326" lon="5.74897">
        <ele>319.39999389648</ele>
        <time>2023-06-23T07:56:31Z</time>
      </trkpt>
      <trkpt lat="49.41316" lon="5.74904">
        <ele>319</ele>
        <time>2023-06-23T07:56:33Z</time>
      </trkpt>
      <trkpt lat="49.41307" lon="5.74911">
        <ele>318.79998779297</ele>
        <time>2023-06-23T07:56:35Z</time>
      </trkpt>
      <trkpt lat="49.41303" lon="5.74914">
        <ele>318.60000610352</ele>
        <time>2023-06-23T07:56:36Z</time>
      </trkpt>
      <trkpt lat="49.41299" lon="5.74917">
        <ele>318.39999389648</ele>
        <time>2023-06-23T07:56:37Z</time>
      </trkpt>
      <trkpt lat="49.41291" lon="5.74924">
        <ele>317.79998779297</ele>
        <time>2023-06-23T07:56:39Z</time>
      </trkpt>
      <trkpt lat="49.41288" lon="5.74927">
        <ele>317.39999389648</ele>
        <time>2023-06-23T07:56:40Z</time>
      </trkpt>
      <trkpt lat="49.41284" lon="5.7493">
        <ele>317.20001220703</ele>
        <time>2023-06-23T07:56:41Z</time>
      </trkpt>
      <trkpt lat="49.41275" lon="5.74937">
        <ele>317</ele>
        <time>2023-06-23T07:56:43Z</time>
      </trkpt>
      <trkpt lat="49.41266" lon="5.74942">
        <ele>316.79998779297</ele>
        <time>2023-06-23T07:56:45Z</time>
      </trkpt>
      <trkpt lat="49.41257" lon="5.74949">
        <ele>316.60000610352</ele>
        <time>2023-06-23T07:56:47Z</time>
      </trkpt>
      <trkpt lat="49.41248" lon="5.74956">
        <ele>316.39999389648</ele>
        <time>2023-06-23T07:56:49Z</time>
      </trkpt>
      <trkpt lat="49.41244" lon="5.74959">
        <ele>316.20001220703</ele>
        <time>2023-06-23T07:56:50Z</time>
      </trkpt>
      <trkpt lat="49.41239" lon="5.74962">
        <ele>316.20001220703</ele>
        <time>2023-06-23T07:56:51Z</time>
      </trkpt>
      <trkpt lat="49.41229" lon="5.74969">
        <ele>315.79998779297</ele>
        <time>2023-06-23T07:56:53Z</time>
      </trkpt>
      <trkpt lat="49.41219" lon="5.74976">
        <ele>315.39999389648</ele>
        <time>2023-06-23T07:56:55Z</time>
      </trkpt>
      <trkpt lat="49.41214" lon="5.7498">
        <ele>315.20001220703</ele>
        <time>2023-06-23T07:56:56Z</time>
      </trkpt>
      <trkpt lat="49.41209" lon="5.74984">
        <ele>315</ele>
        <time>2023-06-23T07:56:57Z</time>
      </trkpt>
      <trkpt lat="49.412" lon="5.74991">
        <ele>314.39999389648</ele>
        <time>2023-06-23T07:56:59Z</time>
      </trkpt>
      <trkpt lat="49.41195" lon="5.74994">
        <ele>314.20001220703</ele>
        <time>2023-06-23T07:57:00Z</time>
      </trkpt>
      <trkpt lat="49.4119" lon="5.74998">
        <ele>314.20001220703</ele>
        <time>2023-06-23T07:57:01Z</time>
      </trkpt>
      <trkpt lat="49.41181" lon="5.75004">
        <ele>314</ele>
        <time>2023-06-23T07:57:03Z</time>
      </trkpt>
      <trkpt lat="49.41173" lon="5.7501">
        <ele>313.79998779297</ele>
        <time>2023-06-23T07:57:05Z</time>
      </trkpt>
      <trkpt lat="49.41166" lon="5.75015">
        <ele>313.79998779297</ele>
        <time>2023-06-23T07:57:07Z</time>
      </trkpt>
      <trkpt lat="49.41158" lon="5.7502">
        <ele>313.79998779297</ele>
        <time>2023-06-23T07:57:09Z</time>
      </trkpt>
      <trkpt lat="49.41152" lon="5.75025">
        <ele>313.79998779297</ele>
        <time>2023-06-23T07:57:11Z</time>
      </trkpt>
      <trkpt lat="49.41145" lon="5.75029">
        <ele>314</ele>
        <time>2023-06-23T07:57:13Z</time>
      </trkpt>
      <trkpt lat="49.41142" lon="5.75031">
        <ele>314.20001220703</ele>
        <time>2023-06-23T07:57:14Z</time>
      </trkpt>
      <trkpt lat="49.41139" lon="5.75033">
        <ele>314.39999389648</ele>
        <time>2023-06-23T07:57:15Z</time>
      </trkpt>
      <trkpt lat="49.41133" lon="5.75037">
        <ele>314.79998779297</ele>
        <time>2023-06-23T07:57:17Z</time>
      </trkpt>
      <trkpt lat="49.41125" lon="5.75043">
        <ele>315</ele>
        <time>2023-06-23T07:57:19Z</time>
      </trkpt>
      <trkpt lat="49.41121" lon="5.75046">
        <ele>315</ele>
        <time>2023-06-23T07:57:20Z</time>
      </trkpt>
      <trkpt lat="49.41117" lon="5.75049">
        <ele>315</ele>
        <time>2023-06-23T07:57:21Z</time>
      </trkpt>
      <trkpt lat="49.41108" lon="5.75056">
        <ele>315</ele>
        <time>2023-06-23T07:57:23Z</time>
      </trkpt>
      <trkpt lat="49.41099" lon="5.75062">
        <ele>315</ele>
        <time>2023-06-23T07:57:25Z</time>
      </trkpt>
      <trkpt lat="49.41095" lon="5.75066">
        <ele>315</ele>
        <time>2023-06-23T07:57:26Z</time>
      </trkpt>
      <trkpt lat="49.4109" lon="5.75069">
        <ele>315</ele>
        <time>2023-06-23T07:57:27Z</time>
      </trkpt>
      <trkpt lat="49.41082" lon="5.75075">
        <ele>314.60000610352</ele>
        <time>2023-06-23T07:57:29Z</time>
      </trkpt>
      <trkpt lat="49.41074" lon="5.75081">
        <ele>314.20001220703</ele>
        <time>2023-06-23T07:57:31Z</time>
      </trkpt>
      <trkpt lat="49.41066" lon="5.75087">
        <ele>314.20001220703</ele>
        <time>2023-06-23T07:57:33Z</time>
      </trkpt>
      <trkpt lat="49.41057" lon="5.75092">
        <ele>314.20001220703</ele>
        <time>2023-06-23T07:57:35Z</time>
      </trkpt>
      <trkpt lat="49.41053" lon="5.75095">
        <ele>314.20001220703</ele>
        <time>2023-06-23T07:57:36Z</time>
      </trkpt>
      <trkpt lat="49.41049" lon="5.75098">
        <ele>314.20001220703</ele>
        <time>2023-06-23T07:57:37Z</time>
      </trkpt>
      <trkpt lat="49.41042" lon="5.75104">
        <ele>314.20001220703</ele>
        <time>2023-06-23T07:57:39Z</time>
      </trkpt>
      <trkpt lat="49.41034" lon="5.75109">
        <ele>314.20001220703</ele>
        <time>2023-06-23T07:57:41Z</time>
      </trkpt>
      <trkpt lat="49.41027" lon="5.75115">
        <ele>314.39999389648</ele>
        <time>2023-06-23T07:57:43Z</time>
      </trkpt>
      <trkpt lat="49.41019" lon="5.75121">
        <ele>314.60000610352</ele>
        <time>2023-06-23T07:57:45Z</time>
      </trkpt>
      <trkpt lat="49.41015" lon="5.75124">
        <ele>314.60000610352</ele>
        <time>2023-06-23T07:57:46Z</time>
      </trkpt>
      <trkpt lat="49.41012" lon="5.75126">
        <ele>314.60000610352</ele>
        <time>2023-06-23T07:57:47Z</time>
      </trkpt>
      <trkpt lat="49.41004" lon="5.75132">
        <ele>314.79998779297</ele>
        <time>2023-06-23T07:57:49Z</time>
      </trkpt>
      <trkpt lat="49.40996" lon="5.75137">
        <ele>314.79998779297</ele>
        <time>2023-06-23T07:57:51Z</time>
      </trkpt>
      <trkpt lat="49.40989" lon="5.75142">
        <ele>314.79998779297</ele>
        <time>2023-06-23T07:57:53Z</time>
      </trkpt>
      <trkpt lat="49.40981" lon="5.75148">
        <ele>314.79998779297</ele>
        <time>2023-06-23T07:57:55Z</time>
      </trkpt>
      <trkpt lat="49.40974" lon="5.75153">
        <ele>314.79998779297</ele>
        <time>2023-06-23T07:57:57Z</time>
      </trkpt>
      <trkpt lat="49.40966" lon="5.75158">
        <ele>315</ele>
        <time>2023-06-23T07:57:59Z</time>
      </trkpt>
      <trkpt lat="49.40959" lon="5.75163">
        <ele>315</ele>
        <time>2023-06-23T07:58:01Z</time>
      </trkpt>
      <trkpt lat="49.40952" lon="5.75168">
        <ele>315</ele>
        <time>2023-06-23T07:58:03Z</time>
      </trkpt>
      <trkpt lat="49.40948" lon="5.75171">
        <ele>315.20001220703</ele>
        <time>2023-06-23T07:58:04Z</time>
      </trkpt>
      <trkpt lat="49.40945" lon="5.75174">
        <ele>315.39999389648</ele>
        <time>2023-06-23T07:58:05Z</time>
      </trkpt>
      <trkpt lat="49.40941" lon="5.75176">
        <ele>315.39999389648</ele>
        <time>2023-06-23T07:58:06Z</time>
      </trkpt>
      <trkpt lat="49.40927" lon="5.75187">
        <ele>316</ele>
        <time>2023-06-23T07:58:11Z</time>
      </trkpt>
      <trkpt lat="49.4092" lon="5.75192">
        <ele>316.20001220703</ele>
        <time>2023-06-23T07:58:13Z</time>
      </trkpt>
      <trkpt lat="49.40917" lon="5.75195">
        <ele>316.39999389648</ele>
        <time>2023-06-23T07:58:14Z</time>
      </trkpt>
      <trkpt lat="49.40914" lon="5.75197">
        <ele>316.39999389648</ele>
        <time>2023-06-23T07:58:15Z</time>
      </trkpt>
      <trkpt lat="49.4091" lon="5.752">
        <ele>316.60000610352</ele>
        <time>2023-06-23T07:58:16Z</time>
      </trkpt>
      <trkpt lat="49.40907" lon="5.75202">
        <ele>316.79998779297</ele>
        <time>2023-06-23T07:58:17Z</time>
      </trkpt>
      <trkpt lat="49.409" lon="5.75207">
        <ele>317</ele>
        <time>2023-06-23T07:58:19Z</time>
      </trkpt>
      <trkpt lat="49.40893" lon="5.75213">
        <ele>317.20001220703</ele>
        <time>2023-06-23T07:58:21Z</time>
      </trkpt>
      <trkpt lat="49.40885" lon="5.75217">
        <ele>317.39999389648</ele>
        <time>2023-06-23T07:58:23Z</time>
      </trkpt>
      <trkpt lat="49.40881" lon="5.7522">
        <ele>317.39999389648</ele>
        <time>2023-06-23T07:58:24Z</time>
      </trkpt>
      <trkpt lat="49.40878" lon="5.75223">
        <ele>317.39999389648</ele>
        <time>2023-06-23T07:58:25Z</time>
      </trkpt>
      <trkpt lat="49.40874" lon="5.75226">
        <ele>317.60000610352</ele>
        <time>2023-06-23T07:58:26Z</time>
      </trkpt>
      <trkpt lat="49.40871" lon="5.75228">
        <ele>317.60000610352</ele>
        <time>2023-06-23T07:58:27Z</time>
      </trkpt>
      <trkpt lat="49.40863" lon="5.75234">
        <ele>317.60000610352</ele>
        <time>2023-06-23T07:58:29Z</time>
      </trkpt>
      <trkpt lat="49.40856" lon="5.75238">
        <ele>317.60000610352</ele>
        <time>2023-06-23T07:58:31Z</time>
      </trkpt>
      <trkpt lat="49.40849" lon="5.75244">
        <ele>317.79998779297</ele>
        <time>2023-06-23T07:58:33Z</time>
      </trkpt>
      <trkpt lat="49.40841" lon="5.75249">
        <ele>318</ele>
        <time>2023-06-23T07:58:35Z</time>
      </trkpt>
      <trkpt lat="49.40834" lon="5.75255">
        <ele>318</ele>
        <time>2023-06-23T07:58:37Z</time>
      </trkpt>
      <trkpt lat="49.40827" lon="5.75261">
        <ele>318</ele>
        <time>2023-06-23T07:58:39Z</time>
      </trkpt>
      <trkpt lat="49.40824" lon="5.75263">
        <ele>318</ele>
        <time>2023-06-23T07:58:40Z</time>
      </trkpt>
      <trkpt lat="49.4082" lon="5.75266">
        <ele>318</ele>
        <time>2023-06-23T07:58:41Z</time>
      </trkpt>
      <trkpt lat="49.40814" lon="5.7527">
        <ele>318</ele>
        <time>2023-06-23T07:58:43Z</time>
      </trkpt>
      <trkpt lat="49.40807" lon="5.75275">
        <ele>318</ele>
        <time>2023-06-23T07:58:45Z</time>
      </trkpt>
      <trkpt lat="49.408" lon="5.75279">
        <ele>317.79998779297</ele>
        <time>2023-06-23T07:58:47Z</time>
      </trkpt>
      <trkpt lat="49.40794" lon="5.75284">
        <ele>317.79998779297</ele>
        <time>2023-06-23T07:58:49Z</time>
      </trkpt>
      <trkpt lat="49.4079" lon="5.75287">
        <ele>317.79998779297</ele>
        <time>2023-06-23T07:58:50Z</time>
      </trkpt>
      <trkpt lat="49.40786" lon="5.75289">
        <ele>317.60000610352</ele>
        <time>2023-06-23T07:58:51Z</time>
      </trkpt>
      <trkpt lat="49.40779" lon="5.75295">
        <ele>317.39999389648</ele>
        <time>2023-06-23T07:58:53Z</time>
      </trkpt>
      <trkpt lat="49.40771" lon="5.75301">
        <ele>317.39999389648</ele>
        <time>2023-06-23T07:58:55Z</time>
      </trkpt>
      <trkpt lat="49.40763" lon="5.75307">
        <ele>317.20001220703</ele>
        <time>2023-06-23T07:58:57Z</time>
      </trkpt>
      <trkpt lat="49.40758" lon="5.75308">
        <ele>317</ele>
        <time>2023-06-23T07:58:58Z</time>
      </trkpt>
      <trkpt lat="49.40755" lon="5.75309">
        <ele>317</ele>
        <time>2023-06-23T07:58:59Z</time>
      </trkpt>
      <trkpt lat="49.40749" lon="5.75304">
        <ele>316.79998779297</ele>
        <time>2023-06-23T07:59:01Z</time>
      </trkpt>
      <trkpt lat="49.40748" lon="5.75299">
        <ele>316.60000610352</ele>
        <time>2023-06-23T07:59:02Z</time>
      </trkpt>
      <trkpt lat="49.40749" lon="5.75293">
        <ele>316.60000610352</ele>
        <time>2023-06-23T07:59:03Z</time>
      </trkpt>
      <trkpt lat="49.4075" lon="5.75287">
        <ele>316.39999389648</ele>
        <time>2023-06-23T07:59:04Z</time>
      </trkpt>
      <trkpt lat="49.4075" lon="5.7528">
        <ele>316.39999389648</ele>
        <time>2023-06-23T07:59:05Z</time>
      </trkpt>
      <trkpt lat="49.4075" lon="5.75273">
        <ele>316.20001220703</ele>
        <time>2023-06-23T07:59:06Z</time>
      </trkpt>
      <trkpt lat="49.4075" lon="5.75266">
        <ele>316</ele>
        <time>2023-06-23T07:59:07Z</time>
      </trkpt>
      <trkpt lat="49.4075" lon="5.75251">
        <ele>315.79998779297</ele>
        <time>2023-06-23T07:59:09Z</time>
      </trkpt>
      <trkpt lat="49.4075" lon="5.75236">
        <ele>315.39999389648</ele>
        <time>2023-06-23T07:59:11Z</time>
      </trkpt>
      <trkpt lat="49.4075" lon="5.7522">
        <ele>315</ele>
        <time>2023-06-23T07:59:13Z</time>
      </trkpt>
      <trkpt lat="49.4075" lon="5.75204">
        <ele>314.60000610352</ele>
        <time>2023-06-23T07:59:15Z</time>
      </trkpt>
      <trkpt lat="49.4075" lon="5.75189">
        <ele>314.39999389648</ele>
        <time>2023-06-23T07:59:17Z</time>
      </trkpt>
      <trkpt lat="49.4075" lon="5.75172">
        <ele>314.20001220703</ele>
        <time>2023-06-23T07:59:19Z</time>
      </trkpt>
      <trkpt lat="49.4075" lon="5.75164">
        <ele>313.79998779297</ele>
        <time>2023-06-23T07:59:20Z</time>
      </trkpt>
      <trkpt lat="49.4075" lon="5.75156">
        <ele>313.79998779297</ele>
        <time>2023-06-23T07:59:21Z</time>
      </trkpt>
      <trkpt lat="49.4075" lon="5.75139">
        <ele>313.60000610352</ele>
        <time>2023-06-23T07:59:23Z</time>
      </trkpt>
      <trkpt lat="49.4075" lon="5.75122">
        <ele>313.39999389648</ele>
        <time>2023-06-23T07:59:25Z</time>
      </trkpt>
      <trkpt lat="49.4075" lon="5.75104">
        <ele>313.39999389648</ele>
        <time>2023-06-23T07:59:27Z</time>
      </trkpt>
      <trkpt lat="49.4075" lon="5.75087">
        <ele>313.20001220703</ele>
        <time>2023-06-23T07:59:29Z</time>
      </trkpt>
      <trkpt lat="49.4075" lon="5.75069">
        <ele>313</ele>
        <time>2023-06-23T07:59:31Z</time>
      </trkpt>
      <trkpt lat="49.4075" lon="5.75051">
        <ele>313</ele>
        <time>2023-06-23T07:59:33Z</time>
      </trkpt>
      <trkpt lat="49.4075" lon="5.75032">
        <ele>313</ele>
        <time>2023-06-23T07:59:35Z</time>
      </trkpt>
      <trkpt lat="49.4075" lon="5.75014">
        <ele>313</ele>
        <time>2023-06-23T07:59:37Z</time>
      </trkpt>
      <trkpt lat="49.4075" lon="5.74995">
        <ele>312.79998779297</ele>
        <time>2023-06-23T07:59:39Z</time>
      </trkpt>
      <trkpt lat="49.4075" lon="5.74976">
        <ele>312.60000610352</ele>
        <time>2023-06-23T07:59:41Z</time>
      </trkpt>
      <trkpt lat="49.40751" lon="5.74957">
        <ele>312.39999389648</ele>
        <time>2023-06-23T07:59:43Z</time>
      </trkpt>
      <trkpt lat="49.40751" lon="5.74938">
        <ele>312.20001220703</ele>
        <time>2023-06-23T07:59:45Z</time>
      </trkpt>
      <trkpt lat="49.40751" lon="5.74919">
        <ele>312</ele>
        <time>2023-06-23T07:59:47Z</time>
      </trkpt>
      <trkpt lat="49.40751" lon="5.74899">
        <ele>311.79998779297</ele>
        <time>2023-06-23T07:59:49Z</time>
      </trkpt>
      <trkpt lat="49.40751" lon="5.7488">
        <ele>311.20001220703</ele>
        <time>2023-06-23T07:59:51Z</time>
      </trkpt>
      <trkpt lat="49.40751" lon="5.74861">
        <ele>310.79998779297</ele>
        <time>2023-06-23T07:59:53Z</time>
      </trkpt>
      <trkpt lat="49.40751" lon="5.74851">
        <ele>310.79998779297</ele>
        <time>2023-06-23T07:59:54Z</time>
      </trkpt>
      <trkpt lat="49.40751" lon="5.74842">
        <ele>310.60000610352</ele>
        <time>2023-06-23T07:59:55Z</time>
      </trkpt>
      <trkpt lat="49.40751" lon="5.74822">
        <ele>310.60000610352</ele>
        <time>2023-06-23T07:59:57Z</time>
      </trkpt>
      <trkpt lat="49.40751" lon="5.74803">
        <ele>310.39999389648</ele>
        <time>2023-06-23T07:59:59Z</time>
      </trkpt>
      <trkpt lat="49.40751" lon="5.74783">
        <ele>310.20001220703</ele>
        <time>2023-06-23T08:00:01Z</time>
      </trkpt>
      <trkpt lat="49.40751" lon="5.74764">
        <ele>309.79998779297</ele>
        <time>2023-06-23T08:00:03Z</time>
      </trkpt>
      <trkpt lat="49.40751" lon="5.74755">
        <ele>309.79998779297</ele>
        <time>2023-06-23T08:00:04Z</time>
      </trkpt>
      <trkpt lat="49.4075" lon="5.74745">
        <ele>309.60000610352</ele>
        <time>2023-06-23T08:00:05Z</time>
      </trkpt>
      <trkpt lat="49.4075" lon="5.74727">
        <ele>309.39999389648</ele>
        <time>2023-06-23T08:00:07Z</time>
      </trkpt>
      <trkpt lat="49.40749" lon="5.74718">
        <ele>309.39999389648</ele>
        <time>2023-06-23T08:00:08Z</time>
      </trkpt>
      <trkpt lat="49.40748" lon="5.7471">
        <ele>309.39999389648</ele>
        <time>2023-06-23T08:00:09Z</time>
      </trkpt>
      <trkpt lat="49.40745" lon="5.74703">
        <ele>309.20001220703</ele>
        <time>2023-06-23T08:00:10Z</time>
      </trkpt>
      <trkpt lat="49.4074" lon="5.74703">
        <ele>309.20001220703</ele>
        <time>2023-06-23T08:00:11Z</time>
      </trkpt>
      <trkpt lat="49.40735" lon="5.74704">
        <ele>309.20001220703</ele>
        <time>2023-06-23T08:00:12Z</time>
      </trkpt>
      <trkpt lat="49.4073" lon="5.74707">
        <ele>309.20001220703</ele>
        <time>2023-06-23T08:00:13Z</time>
      </trkpt>
      <trkpt lat="49.4072" lon="5.74712">
        <ele>309.20001220703</ele>
        <time>2023-06-23T08:00:15Z</time>
      </trkpt>
      <trkpt lat="49.4071" lon="5.74717">
        <ele>309.39999389648</ele>
        <time>2023-06-23T08:00:17Z</time>
      </trkpt>
      <trkpt lat="49.407" lon="5.74722">
        <ele>309.39999389648</ele>
        <time>2023-06-23T08:00:19Z</time>
      </trkpt>
      <trkpt lat="49.4069" lon="5.74728">
        <ele>309.39999389648</ele>
        <time>2023-06-23T08:00:21Z</time>
      </trkpt>
      <trkpt lat="49.40685" lon="5.7473">
        <ele>309.39999389648</ele>
        <time>2023-06-23T08:00:22Z</time>
      </trkpt>
      <trkpt lat="49.40679" lon="5.74733">
        <ele>309.39999389648</ele>
        <time>2023-06-23T08:00:23Z</time>
      </trkpt>
      <trkpt lat="49.40668" lon="5.74738">
        <ele>309.20001220703</ele>
        <time>2023-06-23T08:00:25Z</time>
      </trkpt>
      <trkpt lat="49.40657" lon="5.74743">
        <ele>309.20001220703</ele>
        <time>2023-06-23T08:00:27Z</time>
      </trkpt>
      <trkpt lat="49.40647" lon="5.74749">
        <ele>309</ele>
        <time>2023-06-23T08:00:29Z</time>
      </trkpt>
      <trkpt lat="49.40637" lon="5.74754">
        <ele>308.60000610352</ele>
        <time>2023-06-23T08:00:31Z</time>
      </trkpt>
      <trkpt lat="49.40632" lon="5.74757">
        <ele>308.60000610352</ele>
        <time>2023-06-23T08:00:32Z</time>
      </trkpt>
      <trkpt lat="49.40627" lon="5.74759">
        <ele>308.39999389648</ele>
        <time>2023-06-23T08:00:33Z</time>
      </trkpt>
      <trkpt lat="49.40617" lon="5.74764">
        <ele>308.20001220703</ele>
        <time>2023-06-23T08:00:35Z</time>
      </trkpt>
      <trkpt lat="49.40607" lon="5.74769">
        <ele>308</ele>
        <time>2023-06-23T08:00:37Z</time>
      </trkpt>
      <trkpt lat="49.40597" lon="5.74774">
        <ele>308</ele>
        <time>2023-06-23T08:00:39Z</time>
      </trkpt>
      <trkpt lat="49.40587" lon="5.74779">
        <ele>308</ele>
        <time>2023-06-23T08:00:41Z</time>
      </trkpt>
      <trkpt lat="49.40582" lon="5.74782">
        <ele>308</ele>
        <time>2023-06-23T08:00:42Z</time>
      </trkpt>
      <trkpt lat="49.40577" lon="5.74784">
        <ele>308</ele>
        <time>2023-06-23T08:00:43Z</time>
      </trkpt>
      <trkpt lat="49.40568" lon="5.74789">
        <ele>308</ele>
        <time>2023-06-23T08:00:45Z</time>
      </trkpt>
      <trkpt lat="49.40558" lon="5.74795">
        <ele>308</ele>
        <time>2023-06-23T08:00:47Z</time>
      </trkpt>
      <trkpt lat="49.40554" lon="5.74797">
        <ele>308</ele>
        <time>2023-06-23T08:00:48Z</time>
      </trkpt>
      <trkpt lat="49.40549" lon="5.748">
        <ele>308</ele>
        <time>2023-06-23T08:00:49Z</time>
      </trkpt>
      <trkpt lat="49.40538" lon="5.74804">
        <ele>307.79998779297</ele>
        <time>2023-06-23T08:00:51Z</time>
      </trkpt>
      <trkpt lat="49.40528" lon="5.7481">
        <ele>307.60000610352</ele>
        <time>2023-06-23T08:00:53Z</time>
      </trkpt>
      <trkpt lat="49.40517" lon="5.74815">
        <ele>307.60000610352</ele>
        <time>2023-06-23T08:00:55Z</time>
      </trkpt>
      <trkpt lat="49.40512" lon="5.74818">
        <ele>307.60000610352</ele>
        <time>2023-06-23T08:00:56Z</time>
      </trkpt>
      <trkpt lat="49.40506" lon="5.74821">
        <ele>307.39999389648</ele>
        <time>2023-06-23T08:00:57Z</time>
      </trkpt>
      <trkpt lat="49.40495" lon="5.74826">
        <ele>307.39999389648</ele>
        <time>2023-06-23T08:00:59Z</time>
      </trkpt>
      <trkpt lat="49.40485" lon="5.74831">
        <ele>307</ele>
        <time>2023-06-23T08:01:01Z</time>
      </trkpt>
      <trkpt lat="49.40474" lon="5.74836">
        <ele>306.79998779297</ele>
        <time>2023-06-23T08:01:03Z</time>
      </trkpt>
      <trkpt lat="49.40463" lon="5.74841">
        <ele>306.20001220703</ele>
        <time>2023-06-23T08:01:05Z</time>
      </trkpt>
      <trkpt lat="49.40457" lon="5.74844">
        <ele>305.79998779297</ele>
        <time>2023-06-23T08:01:06Z</time>
      </trkpt>
      <trkpt lat="49.40445" lon="5.74849">
        <ele>305.60000610352</ele>
        <time>2023-06-23T08:01:08Z</time>
      </trkpt>
      <trkpt lat="49.40434" lon="5.74855">
        <ele>305.20001220703</ele>
        <time>2023-06-23T08:01:10Z</time>
      </trkpt>
      <trkpt lat="49.40428" lon="5.74857">
        <ele>305</ele>
        <time>2023-06-23T08:01:11Z</time>
      </trkpt>
      <trkpt lat="49.40422" lon="5.7486">
        <ele>304.79998779297</ele>
        <time>2023-06-23T08:01:12Z</time>
      </trkpt>
      <trkpt lat="49.4041" lon="5.74865">
        <ele>304.20001220703</ele>
        <time>2023-06-23T08:01:14Z</time>
      </trkpt>
      <trkpt lat="49.40405" lon="5.74868">
        <ele>304</ele>
        <time>2023-06-23T08:01:15Z</time>
      </trkpt>
      <trkpt lat="49.40399" lon="5.7487">
        <ele>303.79998779297</ele>
        <time>2023-06-23T08:01:16Z</time>
      </trkpt>
      <trkpt lat="49.40388" lon="5.74875">
        <ele>303.39999389648</ele>
        <time>2023-06-23T08:01:18Z</time>
      </trkpt>
      <trkpt lat="49.40382" lon="5.74878">
        <ele>303</ele>
        <time>2023-06-23T08:01:19Z</time>
      </trkpt>
      <trkpt lat="49.40376" lon="5.7488">
        <ele>302.79998779297</ele>
        <time>2023-06-23T08:01:20Z</time>
      </trkpt>
      <trkpt lat="49.40365" lon="5.74885">
        <ele>302.60000610352</ele>
        <time>2023-06-23T08:01:22Z</time>
      </trkpt>
      <trkpt lat="49.40353" lon="5.7489">
        <ele>302.39999389648</ele>
        <time>2023-06-23T08:01:24Z</time>
      </trkpt>
      <trkpt lat="49.4034" lon="5.74896">
        <ele>302.20001220703</ele>
        <time>2023-06-23T08:01:26Z</time>
      </trkpt>
      <trkpt lat="49.40327" lon="5.74901">
        <ele>302</ele>
        <time>2023-06-23T08:01:28Z</time>
      </trkpt>
      <trkpt lat="49.40313" lon="5.74907">
        <ele>301.60000610352</ele>
        <time>2023-06-23T08:01:30Z</time>
      </trkpt>
      <trkpt lat="49.40299" lon="5.74914">
        <ele>300.79998779297</ele>
        <time>2023-06-23T08:01:32Z</time>
      </trkpt>
      <trkpt lat="49.40293" lon="5.74916">
        <ele>300.60000610352</ele>
        <time>2023-06-23T08:01:33Z</time>
      </trkpt>
      <trkpt lat="49.40287" lon="5.74916">
        <ele>300.20001220703</ele>
        <time>2023-06-23T08:01:34Z</time>
      </trkpt>
      <trkpt lat="49.4028" lon="5.74906">
        <ele>298.79998779297</ele>
        <time>2023-06-23T08:01:36Z</time>
      </trkpt>
      <trkpt lat="49.40278" lon="5.74899">
        <ele>298</ele>
        <time>2023-06-23T08:01:37Z</time>
      </trkpt>
      <trkpt lat="49.40277" lon="5.74892">
        <ele>297.39999389648</ele>
        <time>2023-06-23T08:01:38Z</time>
      </trkpt>
      <trkpt lat="49.40273" lon="5.74876">
        <ele>296.60000610352</ele>
        <time>2023-06-23T08:01:40Z</time>
      </trkpt>
      <trkpt lat="49.40271" lon="5.74868">
        <ele>296.20001220703</ele>
        <time>2023-06-23T08:01:41Z</time>
      </trkpt>
      <trkpt lat="49.4027" lon="5.7486">
        <ele>296.20001220703</ele>
        <time>2023-06-23T08:01:42Z</time>
      </trkpt>
      <trkpt lat="49.40266" lon="5.74844">
        <ele>295.39999389648</ele>
        <time>2023-06-23T08:01:44Z</time>
      </trkpt>
      <trkpt lat="49.40265" lon="5.74836">
        <ele>295.20001220703</ele>
        <time>2023-06-23T08:01:45Z</time>
      </trkpt>
      <trkpt lat="49.40263" lon="5.74827">
        <ele>295.20001220703</ele>
        <time>2023-06-23T08:01:46Z</time>
      </trkpt>
      <trkpt lat="49.40259" lon="5.7481">
        <ele>295</ele>
        <time>2023-06-23T08:01:48Z</time>
      </trkpt>
      <trkpt lat="49.40256" lon="5.74793">
        <ele>294.79998779297</ele>
        <time>2023-06-23T08:01:50Z</time>
      </trkpt>
      <trkpt lat="49.40248" lon="5.74781">
        <ele>294.39999389648</ele>
        <time>2023-06-23T08:01:52Z</time>
      </trkpt>
      <trkpt lat="49.40242" lon="5.74781">
        <ele>294.20001220703</ele>
        <time>2023-06-23T08:01:53Z</time>
      </trkpt>
      <trkpt lat="49.40234" lon="5.74784">
        <ele>294.20001220703</ele>
        <time>2023-06-23T08:01:54Z</time>
      </trkpt>
      <trkpt lat="49.40219" lon="5.74794">
        <ele>293.79998779297</ele>
        <time>2023-06-23T08:01:56Z</time>
      </trkpt>
      <trkpt lat="49.40202" lon="5.74802">
        <ele>293.20001220703</ele>
        <time>2023-06-23T08:01:58Z</time>
      </trkpt>
      <trkpt lat="49.40185" lon="5.7481">
        <ele>292.79998779297</ele>
        <time>2023-06-23T08:02:00Z</time>
      </trkpt>
      <trkpt lat="49.40169" lon="5.74818">
        <ele>290.79998779297</ele>
        <time>2023-06-23T08:02:02Z</time>
      </trkpt>
      <trkpt lat="49.40153" lon="5.74826">
        <ele>289.20001220703</ele>
        <time>2023-06-23T08:02:04Z</time>
      </trkpt>
      <trkpt lat="49.40135" lon="5.74833">
        <ele>287.60000610352</ele>
        <time>2023-06-23T08:02:06Z</time>
      </trkpt>
      <trkpt lat="49.40126" lon="5.74838">
        <ele>286.39999389648</ele>
        <time>2023-06-23T08:02:07Z</time>
      </trkpt>
      <trkpt lat="49.40117" lon="5.74842">
        <ele>285.39999389648</ele>
        <time>2023-06-23T08:02:08Z</time>
      </trkpt>
      <trkpt lat="49.40109" lon="5.74846">
        <ele>284.39999389648</ele>
        <time>2023-06-23T08:02:09Z</time>
      </trkpt>
      <trkpt lat="49.40099" lon="5.7485">
        <ele>283.60000610352</ele>
        <time>2023-06-23T08:02:10Z</time>
      </trkpt>
      <trkpt lat="49.4009" lon="5.74853">
        <ele>282.79998779297</ele>
        <time>2023-06-23T08:02:11Z</time>
      </trkpt>
      <trkpt lat="49.40081" lon="5.74856">
        <ele>282.20001220703</ele>
        <time>2023-06-23T08:02:12Z</time>
      </trkpt>
      <trkpt lat="49.40072" lon="5.74859">
        <ele>281.60000610352</ele>
        <time>2023-06-23T08:02:13Z</time>
      </trkpt>
      <trkpt lat="49.40063" lon="5.74862">
        <ele>280.79998779297</ele>
        <time>2023-06-23T08:02:14Z</time>
      </trkpt>
      <trkpt lat="49.40053" lon="5.74865">
        <ele>280</ele>
        <time>2023-06-23T08:02:15Z</time>
      </trkpt>
      <trkpt lat="49.40044" lon="5.74868">
        <ele>279.39999389648</ele>
        <time>2023-06-23T08:02:16Z</time>
      </trkpt>
      <trkpt lat="49.40035" lon="5.74869">
        <ele>278.60000610352</ele>
        <time>2023-06-23T08:02:17Z</time>
      </trkpt>
      <trkpt lat="49.40026" lon="5.74869">
        <ele>278</ele>
        <time>2023-06-23T08:02:18Z</time>
      </trkpt>
      <trkpt lat="49.40016" lon="5.74867">
        <ele>277.20001220703</ele>
        <time>2023-06-23T08:02:19Z</time>
      </trkpt>
      <trkpt lat="49.40007" lon="5.74863">
        <ele>276.60000610352</ele>
        <time>2023-06-23T08:02:20Z</time>
      </trkpt>
      <trkpt lat="49.39998" lon="5.74859">
        <ele>276</ele>
        <time>2023-06-23T08:02:21Z</time>
      </trkpt>
      <trkpt lat="49.39988" lon="5.74853">
        <ele>275.20001220703</ele>
        <time>2023-06-23T08:02:22Z</time>
      </trkpt>
      <trkpt lat="49.39979" lon="5.74847">
        <ele>274.79998779297</ele>
        <time>2023-06-23T08:02:23Z</time>
      </trkpt>
      <trkpt lat="49.3997" lon="5.7484">
        <ele>274</ele>
        <time>2023-06-23T08:02:24Z</time>
      </trkpt>
      <trkpt lat="49.3996" lon="5.74833">
        <ele>273.60000610352</ele>
        <time>2023-06-23T08:02:25Z</time>
      </trkpt>
      <trkpt lat="49.3995" lon="5.74825">
        <ele>272.79998779297</ele>
        <time>2023-06-23T08:02:26Z</time>
      </trkpt>
      <trkpt lat="49.3993" lon="5.74809">
        <ele>272.39999389648</ele>
        <time>2023-06-23T08:02:28Z</time>
      </trkpt>
      <trkpt lat="49.3992" lon="5.74802">
        <ele>271.60000610352</ele>
        <time>2023-06-23T08:02:29Z</time>
      </trkpt>
      <trkpt lat="49.39909" lon="5.74796">
        <ele>271</ele>
        <time>2023-06-23T08:02:30Z</time>
      </trkpt>
      <trkpt lat="49.39887" lon="5.74795">
        <ele>269.20001220703</ele>
        <time>2023-06-23T08:02:32Z</time>
      </trkpt>
      <trkpt lat="49.39876" lon="5.74801">
        <ele>268.20001220703</ele>
        <time>2023-06-23T08:02:33Z</time>
      </trkpt>
      <trkpt lat="49.39866" lon="5.74811">
        <ele>267</ele>
        <time>2023-06-23T08:02:34Z</time>
      </trkpt>
      <trkpt lat="49.39857" lon="5.74822">
        <ele>265.60000610352</ele>
        <time>2023-06-23T08:02:35Z</time>
      </trkpt>
      <trkpt lat="49.39848" lon="5.74835">
        <ele>264.20001220703</ele>
        <time>2023-06-23T08:02:36Z</time>
      </trkpt>
      <trkpt lat="49.39841" lon="5.74849">
        <ele>263.20001220703</ele>
        <time>2023-06-23T08:02:37Z</time>
      </trkpt>
      <trkpt lat="49.39835" lon="5.74863">
        <ele>262.39999389648</ele>
        <time>2023-06-23T08:02:38Z</time>
      </trkpt>
      <trkpt lat="49.39831" lon="5.74876">
        <ele>261.60000610352</ele>
        <time>2023-06-23T08:02:39Z</time>
      </trkpt>
      <trkpt lat="49.39827" lon="5.74887">
        <ele>260.60000610352</ele>
        <time>2023-06-23T08:02:40Z</time>
      </trkpt>
      <trkpt lat="49.39823" lon="5.74894">
        <ele>259.60000610352</ele>
        <time>2023-06-23T08:02:41Z</time>
      </trkpt>
      <trkpt lat="49.39818" lon="5.74898">
        <ele>258.60000610352</ele>
        <time>2023-06-23T08:02:42Z</time>
      </trkpt>
      <trkpt lat="49.39814" lon="5.74902">
        <ele>258</ele>
        <time>2023-06-23T08:02:43Z</time>
      </trkpt>
      <trkpt lat="49.39811" lon="5.74908">
        <ele>257.60000610352</ele>
        <time>2023-06-23T08:02:44Z</time>
      </trkpt>
      <trkpt lat="49.39808" lon="5.74923">
        <ele>257.39999389648</ele>
        <time>2023-06-23T08:02:46Z</time>
      </trkpt>
      <trkpt lat="49.39807" lon="5.7493">
        <ele>257.39999389648</ele>
        <time>2023-06-23T08:02:47Z</time>
      </trkpt>
      <trkpt lat="49.39807" lon="5.74938">
        <ele>257.39999389648</ele>
        <time>2023-06-23T08:02:48Z</time>
      </trkpt>
      <trkpt lat="49.39806" lon="5.74953">
        <ele>257.20001220703</ele>
        <time>2023-06-23T08:02:50Z</time>
      </trkpt>
      <trkpt lat="49.39804" lon="5.74966">
        <ele>257.20001220703</ele>
        <time>2023-06-23T08:02:52Z</time>
      </trkpt>
      <trkpt lat="49.39803" lon="5.74972">
        <ele>257.20001220703</ele>
        <time>2023-06-23T08:02:53Z</time>
      </trkpt>
      <trkpt lat="49.39803" lon="5.74978">
        <ele>257.39999389648</ele>
        <time>2023-06-23T08:02:54Z</time>
      </trkpt>
      <trkpt lat="49.39801" lon="5.7499">
        <ele>257.60000610352</ele>
        <time>2023-06-23T08:02:56Z</time>
      </trkpt>
      <trkpt lat="49.39799" lon="5.75001">
        <ele>258</ele>
        <time>2023-06-23T08:02:58Z</time>
      </trkpt>
      <trkpt lat="49.39798" lon="5.75012">
        <ele>258.39999389648</ele>
        <time>2023-06-23T08:03:00Z</time>
      </trkpt>
      <trkpt lat="49.39796" lon="5.75023">
        <ele>258.79998779297</ele>
        <time>2023-06-23T08:03:02Z</time>
      </trkpt>
      <trkpt lat="49.39794" lon="5.75033">
        <ele>259.20001220703</ele>
        <time>2023-06-23T08:03:04Z</time>
      </trkpt>
      <trkpt lat="49.39793" lon="5.75044">
        <ele>259.20001220703</ele>
        <time>2023-06-23T08:03:06Z</time>
      </trkpt>
      <trkpt lat="49.39791" lon="5.75054">
        <ele>259.39999389648</ele>
        <time>2023-06-23T08:03:08Z</time>
      </trkpt>
      <trkpt lat="49.39789" lon="5.75064">
        <ele>259.60000610352</ele>
        <time>2023-06-23T08:03:10Z</time>
      </trkpt>
      <trkpt lat="49.39787" lon="5.75074">
        <ele>259.79998779297</ele>
        <time>2023-06-23T08:03:12Z</time>
      </trkpt>
      <trkpt lat="49.39786" lon="5.75084">
        <ele>260</ele>
        <time>2023-06-23T08:03:14Z</time>
      </trkpt>
      <trkpt lat="49.39785" lon="5.75089">
        <ele>260.20001220703</ele>
        <time>2023-06-23T08:03:15Z</time>
      </trkpt>
      <trkpt lat="49.39784" lon="5.75094">
        <ele>260.20001220703</ele>
        <time>2023-06-23T08:03:16Z</time>
      </trkpt>
      <trkpt lat="49.39783" lon="5.75103">
        <ele>260.60000610352</ele>
        <time>2023-06-23T08:03:18Z</time>
      </trkpt>
      <trkpt lat="49.3978" lon="5.75113">
        <ele>261</ele>
        <time>2023-06-23T08:03:20Z</time>
      </trkpt>
      <trkpt lat="49.39778" lon="5.75123">
        <ele>261.20001220703</ele>
        <time>2023-06-23T08:03:22Z</time>
      </trkpt>
      <trkpt lat="49.39775" lon="5.75132">
        <ele>262</ele>
        <time>2023-06-23T08:03:24Z</time>
      </trkpt>
      <trkpt lat="49.39772" lon="5.75142">
        <ele>262.20001220703</ele>
        <time>2023-06-23T08:03:26Z</time>
      </trkpt>
      <trkpt lat="49.39771" lon="5.75146">
        <ele>262.39999389648</ele>
        <time>2023-06-23T08:03:27Z</time>
      </trkpt>
      <trkpt lat="49.39769" lon="5.75151">
        <ele>262.60000610352</ele>
        <time>2023-06-23T08:03:28Z</time>
      </trkpt>
      <trkpt lat="49.39766" lon="5.7516">
        <ele>262.79998779297</ele>
        <time>2023-06-23T08:03:30Z</time>
      </trkpt>
      <trkpt lat="49.39763" lon="5.75168">
        <ele>263</ele>
        <time>2023-06-23T08:03:32Z</time>
      </trkpt>
      <trkpt lat="49.3976" lon="5.75178">
        <ele>263.39999389648</ele>
        <time>2023-06-23T08:03:34Z</time>
      </trkpt>
      <trkpt lat="49.39758" lon="5.75182">
        <ele>263.39999389648</ele>
        <time>2023-06-23T08:03:35Z</time>
      </trkpt>
      <trkpt lat="49.39756" lon="5.75186">
        <ele>263.60000610352</ele>
        <time>2023-06-23T08:03:36Z</time>
      </trkpt>
      <trkpt lat="49.39754" lon="5.75191">
        <ele>263.79998779297</ele>
        <time>2023-06-23T08:03:37Z</time>
      </trkpt>
      <trkpt lat="49.39752" lon="5.75195">
        <ele>264</ele>
        <time>2023-06-23T08:03:38Z</time>
      </trkpt>
      <trkpt lat="49.39749" lon="5.75205">
        <ele>264.20001220703</ele>
        <time>2023-06-23T08:03:40Z</time>
      </trkpt>
      <trkpt lat="49.39745" lon="5.75214">
        <ele>264.60000610352</ele>
        <time>2023-06-23T08:03:42Z</time>
      </trkpt>
      <trkpt lat="49.39741" lon="5.75223">
        <ele>264.60000610352</ele>
        <time>2023-06-23T08:03:44Z</time>
      </trkpt>
      <trkpt lat="49.39737" lon="5.75232">
        <ele>264.60000610352</ele>
        <time>2023-06-23T08:03:46Z</time>
      </trkpt>
      <trkpt lat="49.39735" lon="5.75236">
        <ele>264.79998779297</ele>
        <time>2023-06-23T08:03:47Z</time>
      </trkpt>
      <trkpt lat="49.39733" lon="5.75241">
        <ele>265</ele>
        <time>2023-06-23T08:03:48Z</time>
      </trkpt>
      <trkpt lat="49.39729" lon="5.7525">
        <ele>265.39999389648</ele>
        <time>2023-06-23T08:03:50Z</time>
      </trkpt>
      <trkpt lat="49.39725" lon="5.75259">
        <ele>265.60000610352</ele>
        <time>2023-06-23T08:03:52Z</time>
      </trkpt>
      <trkpt lat="49.39721" lon="5.75269">
        <ele>265.79998779297</ele>
        <time>2023-06-23T08:03:54Z</time>
      </trkpt>
      <trkpt lat="49.39717" lon="5.75278">
        <ele>266.20001220703</ele>
        <time>2023-06-23T08:03:56Z</time>
      </trkpt>
      <trkpt lat="49.39713" lon="5.75287">
        <ele>266.60000610352</ele>
        <time>2023-06-23T08:03:58Z</time>
      </trkpt>
      <trkpt lat="49.39708" lon="5.75296">
        <ele>267</ele>
        <time>2023-06-23T08:04:00Z</time>
      </trkpt>
      <trkpt lat="49.39704" lon="5.75305">
        <ele>267.39999389648</ele>
        <time>2023-06-23T08:04:02Z</time>
      </trkpt>
      <trkpt lat="49.39699" lon="5.75314">
        <ele>267.60000610352</ele>
        <time>2023-06-23T08:04:04Z</time>
      </trkpt>
      <trkpt lat="49.39697" lon="5.75318">
        <ele>267.79998779297</ele>
        <time>2023-06-23T08:04:05Z</time>
      </trkpt>
      <trkpt lat="49.39695" lon="5.75322">
        <ele>267.79998779297</ele>
        <time>2023-06-23T08:04:06Z</time>
      </trkpt>
      <trkpt lat="49.39691" lon="5.75331">
        <ele>268.20001220703</ele>
        <time>2023-06-23T08:04:08Z</time>
      </trkpt>
      <trkpt lat="49.39686" lon="5.7534">
        <ele>268.39999389648</ele>
        <time>2023-06-23T08:04:10Z</time>
      </trkpt>
      <trkpt lat="49.39682" lon="5.75349">
        <ele>268.60000610352</ele>
        <time>2023-06-23T08:04:12Z</time>
      </trkpt>
      <trkpt lat="49.3968" lon="5.75353">
        <ele>268.79998779297</ele>
        <time>2023-06-23T08:04:13Z</time>
      </trkpt>
      <trkpt lat="49.39678" lon="5.75358">
        <ele>269</ele>
        <time>2023-06-23T08:04:14Z</time>
      </trkpt>
      <trkpt lat="49.39676" lon="5.75363">
        <ele>269</ele>
        <time>2023-06-23T08:04:15Z</time>
      </trkpt>
      <trkpt lat="49.39673" lon="5.75367">
        <ele>269.20001220703</ele>
        <time>2023-06-23T08:04:16Z</time>
      </trkpt>
      <trkpt lat="49.39668" lon="5.75376">
        <ele>269.60000610352</ele>
        <time>2023-06-23T08:04:18Z</time>
      </trkpt>
      <trkpt lat="49.39663" lon="5.75385">
        <ele>269.79998779297</ele>
        <time>2023-06-23T08:04:20Z</time>
      </trkpt>
      <trkpt lat="49.39658" lon="5.75393">
        <ele>270.20001220703</ele>
        <time>2023-06-23T08:04:22Z</time>
      </trkpt>
      <trkpt lat="49.39656" lon="5.75398">
        <ele>270.39999389648</ele>
        <time>2023-06-23T08:04:23Z</time>
      </trkpt>
      <trkpt lat="49.39653" lon="5.75402">
        <ele>270.60000610352</ele>
        <time>2023-06-23T08:04:24Z</time>
      </trkpt>
      <trkpt lat="49.39649" lon="5.7541">
        <ele>270.79998779297</ele>
        <time>2023-06-23T08:04:26Z</time>
      </trkpt>
      <trkpt lat="49.39643" lon="5.75418">
        <ele>271.20001220703</ele>
        <time>2023-06-23T08:04:28Z</time>
      </trkpt>
      <trkpt lat="49.39638" lon="5.75426">
        <ele>271.60000610352</ele>
        <time>2023-06-23T08:04:30Z</time>
      </trkpt>
      <trkpt lat="49.39633" lon="5.75434">
        <ele>271.60000610352</ele>
        <time>2023-06-23T08:04:32Z</time>
      </trkpt>
      <trkpt lat="49.3963" lon="5.75438">
        <ele>271.79998779297</ele>
        <time>2023-06-23T08:04:33Z</time>
      </trkpt>
      <trkpt lat="49.39627" lon="5.75441">
        <ele>271.79998779297</ele>
        <time>2023-06-23T08:04:34Z</time>
      </trkpt>
      <trkpt lat="49.39624" lon="5.75445">
        <ele>272</ele>
        <time>2023-06-23T08:04:35Z</time>
      </trkpt>
      <trkpt lat="49.39621" lon="5.75449">
        <ele>272.20001220703</ele>
        <time>2023-06-23T08:04:36Z</time>
      </trkpt>
      <trkpt lat="49.39616" lon="5.75455">
        <ele>272.79998779297</ele>
        <time>2023-06-23T08:04:38Z</time>
      </trkpt>
      <trkpt lat="49.39611" lon="5.75462">
        <ele>273.20001220703</ele>
        <time>2023-06-23T08:04:40Z</time>
      </trkpt>
      <trkpt lat="49.39605" lon="5.75468">
        <ele>273.39999389648</ele>
        <time>2023-06-23T08:04:42Z</time>
      </trkpt>
      <trkpt lat="49.39603" lon="5.75472">
        <ele>273.39999389648</ele>
        <time>2023-06-23T08:04:43Z</time>
      </trkpt>
      <trkpt lat="49.396" lon="5.75475">
        <ele>273.39999389648</ele>
        <time>2023-06-23T08:04:44Z</time>
      </trkpt>
      <trkpt lat="49.39594" lon="5.75481">
        <ele>273.79998779297</ele>
        <time>2023-06-23T08:04:46Z</time>
      </trkpt>
      <trkpt lat="49.39588" lon="5.75487">
        <ele>274.20001220703</ele>
        <time>2023-06-23T08:04:48Z</time>
      </trkpt>
      <trkpt lat="49.39586" lon="5.7549">
        <ele>274.20001220703</ele>
        <time>2023-06-23T08:04:49Z</time>
      </trkpt>
      <trkpt lat="49.39583" lon="5.75493">
        <ele>274.60000610352</ele>
        <time>2023-06-23T08:04:50Z</time>
      </trkpt>
      <trkpt lat="49.39577" lon="5.75499">
        <ele>274.79998779297</ele>
        <time>2023-06-23T08:04:52Z</time>
      </trkpt>
      <trkpt lat="49.39571" lon="5.75505">
        <ele>275</ele>
        <time>2023-06-23T08:04:54Z</time>
      </trkpt>
      <trkpt lat="49.39566" lon="5.75511">
        <ele>275.20001220703</ele>
        <time>2023-06-23T08:04:56Z</time>
      </trkpt>
      <trkpt lat="49.39564" lon="5.75514">
        <ele>275.39999389648</ele>
        <time>2023-06-23T08:04:57Z</time>
      </trkpt>
      <trkpt lat="49.39561" lon="5.75516">
        <ele>275.39999389648</ele>
        <time>2023-06-23T08:04:58Z</time>
      </trkpt>
      <trkpt lat="49.39556" lon="5.75521">
        <ele>276</ele>
        <time>2023-06-23T08:05:00Z</time>
      </trkpt>
      <trkpt lat="49.39551" lon="5.75526">
        <ele>276.39999389648</ele>
        <time>2023-06-23T08:05:02Z</time>
      </trkpt>
      <trkpt lat="49.39546" lon="5.75531">
        <ele>276.60000610352</ele>
        <time>2023-06-23T08:05:04Z</time>
      </trkpt>
      <trkpt lat="49.39541" lon="5.75536">
        <ele>277.20001220703</ele>
        <time>2023-06-23T08:05:06Z</time>
      </trkpt>
      <trkpt lat="49.39539" lon="5.75538">
        <ele>277.39999389648</ele>
        <time>2023-06-23T08:05:07Z</time>
      </trkpt>
      <trkpt lat="49.39536" lon="5.7554">
        <ele>277.60000610352</ele>
        <time>2023-06-23T08:05:08Z</time>
      </trkpt>
      <trkpt lat="49.39531" lon="5.75545">
        <ele>278</ele>
        <time>2023-06-23T08:05:10Z</time>
      </trkpt>
      <trkpt lat="49.39526" lon="5.75549">
        <ele>278.60000610352</ele>
        <time>2023-06-23T08:05:12Z</time>
      </trkpt>
      <trkpt lat="49.39522" lon="5.75555">
        <ele>278.79998779297</ele>
        <time>2023-06-23T08:05:14Z</time>
      </trkpt>
      <trkpt lat="49.39518" lon="5.75562">
        <ele>279.20001220703</ele>
        <time>2023-06-23T08:05:16Z</time>
      </trkpt>
      <trkpt lat="49.39514" lon="5.75568">
        <ele>279.39999389648</ele>
        <time>2023-06-23T08:05:18Z</time>
      </trkpt>
      <trkpt lat="49.39509" lon="5.75574">
        <ele>279.79998779297</ele>
        <time>2023-06-23T08:05:20Z</time>
      </trkpt>
      <trkpt lat="49.39503" lon="5.75579">
        <ele>280</ele>
        <time>2023-06-23T08:05:22Z</time>
      </trkpt>
      <trkpt lat="49.39498" lon="5.75585">
        <ele>280.20001220703</ele>
        <time>2023-06-23T08:05:24Z</time>
      </trkpt>
      <trkpt lat="49.39494" lon="5.75591">
        <ele>280.60000610352</ele>
        <time>2023-06-23T08:05:26Z</time>
      </trkpt>
      <trkpt lat="49.39491" lon="5.75594">
        <ele>280.79998779297</ele>
        <time>2023-06-23T08:05:27Z</time>
      </trkpt>
      <trkpt lat="49.39489" lon="5.75597">
        <ele>281</ele>
        <time>2023-06-23T08:05:28Z</time>
      </trkpt>
      <trkpt lat="49.39487" lon="5.756">
        <ele>281.20001220703</ele>
        <time>2023-06-23T08:05:29Z</time>
      </trkpt>
      <trkpt lat="49.39486" lon="5.75604">
        <ele>281.20001220703</ele>
        <time>2023-06-23T08:05:30Z</time>
      </trkpt>
      <trkpt lat="49.39482" lon="5.75611">
        <ele>281.39999389648</ele>
        <time>2023-06-23T08:05:32Z</time>
      </trkpt>
      <trkpt lat="49.39479" lon="5.75618">
        <ele>281.79998779297</ele>
        <time>2023-06-23T08:05:34Z</time>
      </trkpt>
      <trkpt lat="49.39477" lon="5.75621">
        <ele>282</ele>
        <time>2023-06-23T08:05:35Z</time>
      </trkpt>
      <trkpt lat="49.39475" lon="5.75625">
        <ele>282.20001220703</ele>
        <time>2023-06-23T08:05:36Z</time>
      </trkpt>
      <trkpt lat="49.39472" lon="5.75632">
        <ele>282.39999389648</ele>
        <time>2023-06-23T08:05:38Z</time>
      </trkpt>
      <trkpt lat="49.39468" lon="5.75639">
        <ele>283.20001220703</ele>
        <time>2023-06-23T08:05:40Z</time>
      </trkpt>
      <trkpt lat="49.39465" lon="5.75646">
        <ele>283.60000610352</ele>
        <time>2023-06-23T08:05:42Z</time>
      </trkpt>
      <trkpt lat="49.39461" lon="5.75653">
        <ele>284.20001220703</ele>
        <time>2023-06-23T08:05:44Z</time>
      </trkpt>
      <trkpt lat="49.39458" lon="5.7566">
        <ele>285</ele>
        <time>2023-06-23T08:05:46Z</time>
      </trkpt>
      <trkpt lat="49.39455" lon="5.75667">
        <ele>285.60000610352</ele>
        <time>2023-06-23T08:05:48Z</time>
      </trkpt>
      <trkpt lat="49.39453" lon="5.75671">
        <ele>285.79998779297</ele>
        <time>2023-06-23T08:05:49Z</time>
      </trkpt>
      <trkpt lat="49.39451" lon="5.75674">
        <ele>286</ele>
        <time>2023-06-23T08:05:50Z</time>
      </trkpt>
      <trkpt lat="49.39448" lon="5.75681">
        <ele>286.60000610352</ele>
        <time>2023-06-23T08:05:52Z</time>
      </trkpt>
      <trkpt lat="49.39444" lon="5.75688">
        <ele>287</ele>
        <time>2023-06-23T08:05:54Z</time>
      </trkpt>
      <trkpt lat="49.39441" lon="5.75695">
        <ele>287.60000610352</ele>
        <time>2023-06-23T08:05:56Z</time>
      </trkpt>
      <trkpt lat="49.39439" lon="5.75699">
        <ele>287.79998779297</ele>
        <time>2023-06-23T08:05:57Z</time>
      </trkpt>
      <trkpt lat="49.39437" lon="5.75703">
        <ele>288</ele>
        <time>2023-06-23T08:05:58Z</time>
      </trkpt>
      <trkpt lat="49.39433" lon="5.75711">
        <ele>288.39999389648</ele>
        <time>2023-06-23T08:06:00Z</time>
      </trkpt>
      <trkpt lat="49.3943" lon="5.75719">
        <ele>288.60000610352</ele>
        <time>2023-06-23T08:06:02Z</time>
      </trkpt>
      <trkpt lat="49.39426" lon="5.75727">
        <ele>288.79998779297</ele>
        <time>2023-06-23T08:06:04Z</time>
      </trkpt>
      <trkpt lat="49.39422" lon="5.75736">
        <ele>288.79998779297</ele>
        <time>2023-06-23T08:06:06Z</time>
      </trkpt>
      <trkpt lat="49.39418" lon="5.75744">
        <ele>288.79998779297</ele>
        <time>2023-06-23T08:06:08Z</time>
      </trkpt>
      <trkpt lat="49.39414" lon="5.75753">
        <ele>289</ele>
        <time>2023-06-23T08:06:10Z</time>
      </trkpt>
      <trkpt lat="49.3941" lon="5.75762">
        <ele>289.20001220703</ele>
        <time>2023-06-23T08:06:12Z</time>
      </trkpt>
      <trkpt lat="49.39406" lon="5.75771">
        <ele>289.39999389648</ele>
        <time>2023-06-23T08:06:14Z</time>
      </trkpt>
      <trkpt lat="49.39401" lon="5.7578">
        <ele>289.60000610352</ele>
        <time>2023-06-23T08:06:16Z</time>
      </trkpt>
      <trkpt lat="49.39396" lon="5.7579">
        <ele>289.60000610352</ele>
        <time>2023-06-23T08:06:18Z</time>
      </trkpt>
      <trkpt lat="49.39392" lon="5.75799">
        <ele>289.79998779297</ele>
        <time>2023-06-23T08:06:20Z</time>
      </trkpt>
      <trkpt lat="49.39389" lon="5.75804">
        <ele>289.79998779297</ele>
        <time>2023-06-23T08:06:21Z</time>
      </trkpt>
      <trkpt lat="49.39386" lon="5.75808">
        <ele>289.79998779297</ele>
        <time>2023-06-23T08:06:22Z</time>
      </trkpt>
      <trkpt lat="49.39382" lon="5.75818">
        <ele>290</ele>
        <time>2023-06-23T08:06:24Z</time>
      </trkpt>
      <trkpt lat="49.39378" lon="5.75829">
        <ele>290.20001220703</ele>
        <time>2023-06-23T08:06:26Z</time>
      </trkpt>
      <trkpt lat="49.39376" lon="5.75834">
        <ele>290.20001220703</ele>
        <time>2023-06-23T08:06:27Z</time>
      </trkpt>
      <trkpt lat="49.39374" lon="5.75839">
        <ele>290.39999389648</ele>
        <time>2023-06-23T08:06:28Z</time>
      </trkpt>
      <trkpt lat="49.39372" lon="5.75845">
        <ele>290.39999389648</ele>
        <time>2023-06-23T08:06:29Z</time>
      </trkpt>
      <trkpt lat="49.3937" lon="5.7585">
        <ele>290.39999389648</ele>
        <time>2023-06-23T08:06:30Z</time>
      </trkpt>
      <trkpt lat="49.39366" lon="5.7586">
        <ele>290.60000610352</ele>
        <time>2023-06-23T08:06:32Z</time>
      </trkpt>
      <trkpt lat="49.39364" lon="5.75871">
        <ele>290.79998779297</ele>
        <time>2023-06-23T08:06:34Z</time>
      </trkpt>
      <trkpt lat="49.39364" lon="5.75876">
        <ele>290.79998779297</ele>
        <time>2023-06-23T08:06:35Z</time>
      </trkpt>
      <trkpt lat="49.39365" lon="5.75882">
        <ele>291</ele>
        <time>2023-06-23T08:06:36Z</time>
      </trkpt>
      <trkpt lat="49.39368" lon="5.75893">
        <ele>291.20001220703</ele>
        <time>2023-06-23T08:06:38Z</time>
      </trkpt>
      <trkpt lat="49.39372" lon="5.75904">
        <ele>291.39999389648</ele>
        <time>2023-06-23T08:06:40Z</time>
      </trkpt>
      <trkpt lat="49.39373" lon="5.7591">
        <ele>291.39999389648</ele>
        <time>2023-06-23T08:06:41Z</time>
      </trkpt>
      <trkpt lat="49.39375" lon="5.75915">
        <ele>291.39999389648</ele>
        <time>2023-06-23T08:06:42Z</time>
      </trkpt>
      <trkpt lat="49.39379" lon="5.75927">
        <ele>291.60000610352</ele>
        <time>2023-06-23T08:06:44Z</time>
      </trkpt>
      <trkpt lat="49.39383" lon="5.75939">
        <ele>291.60000610352</ele>
        <time>2023-06-23T08:06:46Z</time>
      </trkpt>
      <trkpt lat="49.39387" lon="5.7595">
        <ele>291.60000610352</ele>
        <time>2023-06-23T08:06:48Z</time>
      </trkpt>
      <trkpt lat="49.39391" lon="5.75962">
        <ele>291.60000610352</ele>
        <time>2023-06-23T08:06:50Z</time>
      </trkpt>
      <trkpt lat="49.39394" lon="5.75974">
        <ele>291.79998779297</ele>
        <time>2023-06-23T08:06:52Z</time>
      </trkpt>
      <trkpt lat="49.39398" lon="5.75986">
        <ele>291.79998779297</ele>
        <time>2023-06-23T08:06:54Z</time>
      </trkpt>
      <trkpt lat="49.39402" lon="5.75999">
        <ele>291.79998779297</ele>
        <time>2023-06-23T08:06:56Z</time>
      </trkpt>
      <trkpt lat="49.39405" lon="5.76012">
        <ele>291.79998779297</ele>
        <time>2023-06-23T08:06:58Z</time>
      </trkpt>
      <trkpt lat="49.39409" lon="5.76025">
        <ele>291.79998779297</ele>
        <time>2023-06-23T08:07:00Z</time>
      </trkpt>
      <trkpt lat="49.39411" lon="5.76031">
        <ele>291.79998779297</ele>
        <time>2023-06-23T08:07:01Z</time>
      </trkpt>
      <trkpt lat="49.39413" lon="5.76037">
        <ele>291.79998779297</ele>
        <time>2023-06-23T08:07:02Z</time>
      </trkpt>
      <trkpt lat="49.39417" lon="5.76051">
        <ele>291.60000610352</ele>
        <time>2023-06-23T08:07:04Z</time>
      </trkpt>
      <trkpt lat="49.39421" lon="5.76063">
        <ele>291.60000610352</ele>
        <time>2023-06-23T08:07:06Z</time>
      </trkpt>
      <trkpt lat="49.39425" lon="5.76076">
        <ele>291.60000610352</ele>
        <time>2023-06-23T08:07:08Z</time>
      </trkpt>
      <trkpt lat="49.39428" lon="5.76089">
        <ele>291.60000610352</ele>
        <time>2023-06-23T08:07:10Z</time>
      </trkpt>
      <trkpt lat="49.3943" lon="5.76096">
        <ele>291.60000610352</ele>
        <time>2023-06-23T08:07:11Z</time>
      </trkpt>
      <trkpt lat="49.39432" lon="5.76102">
        <ele>291.60000610352</ele>
        <time>2023-06-23T08:07:12Z</time>
      </trkpt>
      <trkpt lat="49.39435" lon="5.76116">
        <ele>291.60000610352</ele>
        <time>2023-06-23T08:07:14Z</time>
      </trkpt>
      <trkpt lat="49.39439" lon="5.76128">
        <ele>291.60000610352</ele>
        <time>2023-06-23T08:07:16Z</time>
      </trkpt>
      <trkpt lat="49.39444" lon="5.76141">
        <ele>291.60000610352</ele>
        <time>2023-06-23T08:07:18Z</time>
      </trkpt>
      <trkpt lat="49.39448" lon="5.76155">
        <ele>291.60000610352</ele>
        <time>2023-06-23T08:07:20Z</time>
      </trkpt>
      <trkpt lat="49.39453" lon="5.76169">
        <ele>291.60000610352</ele>
        <time>2023-06-23T08:07:22Z</time>
      </trkpt>
      <trkpt lat="49.39455" lon="5.76176">
        <ele>291.60000610352</ele>
        <time>2023-06-23T08:07:23Z</time>
      </trkpt>
      <trkpt lat="49.39457" lon="5.76183">
        <ele>291.60000610352</ele>
        <time>2023-06-23T08:07:24Z</time>
      </trkpt>
      <trkpt lat="49.39462" lon="5.76198">
        <ele>291.60000610352</ele>
        <time>2023-06-23T08:07:26Z</time>
      </trkpt>
      <trkpt lat="49.39466" lon="5.76213">
        <ele>291.60000610352</ele>
        <time>2023-06-23T08:07:28Z</time>
      </trkpt>
      <trkpt lat="49.3947" lon="5.76228">
        <ele>291.60000610352</ele>
        <time>2023-06-23T08:07:30Z</time>
      </trkpt>
      <trkpt lat="49.39474" lon="5.76243">
        <ele>291.60000610352</ele>
        <time>2023-06-23T08:07:32Z</time>
      </trkpt>
      <trkpt lat="49.39479" lon="5.76257">
        <ele>291.60000610352</ele>
        <time>2023-06-23T08:07:34Z</time>
      </trkpt>
      <trkpt lat="49.39483" lon="5.7627">
        <ele>291.60000610352</ele>
        <time>2023-06-23T08:07:36Z</time>
      </trkpt>
      <trkpt lat="49.39488" lon="5.76282">
        <ele>291.79998779297</ele>
        <time>2023-06-23T08:07:38Z</time>
      </trkpt>
      <trkpt lat="49.39491" lon="5.76296">
        <ele>292</ele>
        <time>2023-06-23T08:07:40Z</time>
      </trkpt>
      <trkpt lat="49.39494" lon="5.76309">
        <ele>292.39999389648</ele>
        <time>2023-06-23T08:07:42Z</time>
      </trkpt>
      <trkpt lat="49.39498" lon="5.76322">
        <ele>292.60000610352</ele>
        <time>2023-06-23T08:07:44Z</time>
      </trkpt>
      <trkpt lat="49.395" lon="5.76329">
        <ele>292.79998779297</ele>
        <time>2023-06-23T08:07:45Z</time>
      </trkpt>
      <trkpt lat="49.39501" lon="5.76335">
        <ele>292.79998779297</ele>
        <time>2023-06-23T08:07:46Z</time>
      </trkpt>
      <trkpt lat="49.39505" lon="5.76347">
        <ele>292.79998779297</ele>
        <time>2023-06-23T08:07:48Z</time>
      </trkpt>
      <trkpt lat="49.39509" lon="5.76358">
        <ele>293</ele>
        <time>2023-06-23T08:07:50Z</time>
      </trkpt>
      <trkpt lat="49.39511" lon="5.76364">
        <ele>293.20001220703</ele>
        <time>2023-06-23T08:07:51Z</time>
      </trkpt>
      <trkpt lat="49.39512" lon="5.7637">
        <ele>293.20001220703</ele>
        <time>2023-06-23T08:07:52Z</time>
      </trkpt>
      <trkpt lat="49.39512" lon="5.76375">
        <ele>293.20001220703</ele>
        <time>2023-06-23T08:07:53Z</time>
      </trkpt>
      <trkpt lat="49.39509" lon="5.76379">
        <ele>293.20001220703</ele>
        <time>2023-06-23T08:07:54Z</time>
      </trkpt>
      <trkpt lat="49.39502" lon="5.76379">
        <ele>293.39999389648</ele>
        <time>2023-06-23T08:07:56Z</time>
      </trkpt>
      <trkpt lat="49.39494" lon="5.76378">
        <ele>293.39999389648</ele>
        <time>2023-06-23T08:07:58Z</time>
      </trkpt>
      <trkpt lat="49.39485" lon="5.76377">
        <ele>293.79998779297</ele>
        <time>2023-06-23T08:08:00Z</time>
      </trkpt>
      <trkpt lat="49.39475" lon="5.76375">
        <ele>294.20001220703</ele>
        <time>2023-06-23T08:08:02Z</time>
      </trkpt>
      <trkpt lat="49.3947" lon="5.76375">
        <ele>294.39999389648</ele>
        <time>2023-06-23T08:08:03Z</time>
      </trkpt>
      <trkpt lat="49.39465" lon="5.76374">
        <ele>294.39999389648</ele>
        <time>2023-06-23T08:08:04Z</time>
      </trkpt>
      <trkpt lat="49.39456" lon="5.76374">
        <ele>294.39999389648</ele>
        <time>2023-06-23T08:08:06Z</time>
      </trkpt>
      <trkpt lat="49.39447" lon="5.76374">
        <ele>294.39999389648</ele>
        <time>2023-06-23T08:08:08Z</time>
      </trkpt>
      <trkpt lat="49.3944" lon="5.76375">
        <ele>294.39999389648</ele>
        <time>2023-06-23T08:08:10Z</time>
      </trkpt>
      <trkpt lat="49.39436" lon="5.76376">
        <ele>294.39999389648</ele>
        <time>2023-06-23T08:08:11Z</time>
      </trkpt>
      <trkpt lat="49.39432" lon="5.76379">
        <ele>294.39999389648</ele>
        <time>2023-06-23T08:08:12Z</time>
      </trkpt>
      <trkpt lat="49.39425" lon="5.76385">
        <ele>294.39999389648</ele>
        <time>2023-06-23T08:08:14Z</time>
      </trkpt>
      <trkpt lat="49.39419" lon="5.76393">
        <ele>294.39999389648</ele>
        <time>2023-06-23T08:08:16Z</time>
      </trkpt>
      <trkpt lat="49.39413" lon="5.76402">
        <ele>294.39999389648</ele>
        <time>2023-06-23T08:08:18Z</time>
      </trkpt>
      <trkpt lat="49.39409" lon="5.76412">
        <ele>294.39999389648</ele>
        <time>2023-06-23T08:08:20Z</time>
      </trkpt>
      <trkpt lat="49.39404" lon="5.76421">
        <ele>294.60000610352</ele>
        <time>2023-06-23T08:08:22Z</time>
      </trkpt>
      <trkpt lat="49.394" lon="5.76431">
        <ele>294.79998779297</ele>
        <time>2023-06-23T08:08:24Z</time>
      </trkpt>
      <trkpt lat="49.39397" lon="5.76441">
        <ele>294.79998779297</ele>
        <time>2023-06-23T08:08:26Z</time>
      </trkpt>
      <trkpt lat="49.39393" lon="5.76451">
        <ele>294.79998779297</ele>
        <time>2023-06-23T08:08:28Z</time>
      </trkpt>
      <trkpt lat="49.39389" lon="5.76458">
        <ele>295</ele>
        <time>2023-06-23T08:08:30Z</time>
      </trkpt>
      <trkpt lat="49.39384" lon="5.76465">
        <ele>295</ele>
        <time>2023-06-23T08:08:32Z</time>
      </trkpt>
      <trkpt lat="49.39379" lon="5.76472">
        <ele>295.20001220703</ele>
        <time>2023-06-23T08:08:34Z</time>
      </trkpt>
      <trkpt lat="49.39373" lon="5.76478">
        <ele>295.39999389648</ele>
        <time>2023-06-23T08:08:36Z</time>
      </trkpt>
      <trkpt lat="49.39367" lon="5.76483">
        <ele>295.60000610352</ele>
        <time>2023-06-23T08:08:38Z</time>
      </trkpt>
      <trkpt lat="49.39362" lon="5.76488">
        <ele>295.60000610352</ele>
        <time>2023-06-23T08:08:40Z</time>
      </trkpt>
      <trkpt lat="49.39356" lon="5.76493">
        <ele>295.79998779297</ele>
        <time>2023-06-23T08:08:42Z</time>
      </trkpt>
      <trkpt lat="49.39349" lon="5.76497">
        <ele>295.79998779297</ele>
        <time>2023-06-23T08:08:44Z</time>
      </trkpt>
      <trkpt lat="49.39344" lon="5.76502">
        <ele>295.79998779297</ele>
        <time>2023-06-23T08:08:46Z</time>
      </trkpt>
      <trkpt lat="49.3934" lon="5.76509">
        <ele>295.79998779297</ele>
        <time>2023-06-23T08:08:48Z</time>
      </trkpt>
      <trkpt lat="49.39338" lon="5.76518">
        <ele>296</ele>
        <time>2023-06-23T08:08:50Z</time>
      </trkpt>
      <trkpt lat="49.39337" lon="5.76527">
        <ele>296</ele>
        <time>2023-06-23T08:08:52Z</time>
      </trkpt>
      <trkpt lat="49.39337" lon="5.76531">
        <ele>296</ele>
        <time>2023-06-23T08:08:53Z</time>
      </trkpt>
      <trkpt lat="49.39336" lon="5.76536">
        <ele>296</ele>
        <time>2023-06-23T08:08:54Z</time>
      </trkpt>
      <trkpt lat="49.39335" lon="5.76545">
        <ele>296.39999389648</ele>
        <time>2023-06-23T08:08:56Z</time>
      </trkpt>
      <trkpt lat="49.39333" lon="5.76553">
        <ele>296.60000610352</ele>
        <time>2023-06-23T08:08:58Z</time>
      </trkpt>
      <trkpt lat="49.39331" lon="5.7656">
        <ele>296.60000610352</ele>
        <time>2023-06-23T08:09:00Z</time>
      </trkpt>
      <trkpt lat="49.39329" lon="5.76566">
        <ele>296.79998779297</ele>
        <time>2023-06-23T08:09:02Z</time>
      </trkpt>
      <trkpt lat="49.39328" lon="5.76569">
        <ele>296.79998779297</ele>
        <time>2023-06-23T08:09:03Z</time>
      </trkpt>
      <trkpt lat="49.39327" lon="5.76571">
        <ele>297</ele>
        <time>2023-06-23T08:09:04Z</time>
      </trkpt>
      <trkpt lat="49.39324" lon="5.76576">
        <ele>297</ele>
        <time>2023-06-23T08:09:06Z</time>
      </trkpt>
      <trkpt lat="49.39323" lon="5.76578">
        <ele>297.20001220703</ele>
        <time>2023-06-23T08:09:07Z</time>
      </trkpt>
      <trkpt lat="49.39322" lon="5.7658">
        <ele>297.20001220703</ele>
        <time>2023-06-23T08:09:08Z</time>
      </trkpt>
      <trkpt lat="49.3932" lon="5.76582">
        <ele>297.20001220703</ele>
        <time>2023-06-23T08:09:09Z</time>
      </trkpt>
      <trkpt lat="49.39319" lon="5.76584">
        <ele>297.20001220703</ele>
        <time>2023-06-23T08:09:10Z</time>
      </trkpt>
      <trkpt lat="49.39317" lon="5.76588">
        <ele>297.20001220703</ele>
        <time>2023-06-23T08:09:12Z</time>
      </trkpt>
      <trkpt lat="49.39316" lon="5.76591">
        <ele>297.39999389648</ele>
        <time>2023-06-23T08:09:14Z</time>
      </trkpt>
      <trkpt lat="49.39316" lon="5.76591">
        <ele>297.39999389648</ele>
        <time>2023-06-23T08:09:15Z</time>
      </trkpt>
      <trkpt lat="49.39316" lon="5.76592">
        <ele>297.39999389648</ele>
        <time>2023-06-23T08:09:16Z</time>
      </trkpt>
      <trkpt lat="49.39315" lon="5.76592">
        <ele>297.39999389648</ele>
        <time>2023-06-23T08:09:18Z</time>
      </trkpt>
      <trkpt lat="49.39315" lon="5.76592">
        <ele>297.39999389648</ele>
        <time>2023-06-23T08:09:20Z</time>
      </trkpt>
      <trkpt lat="49.39315" lon="5.76592">
        <ele>297.60000610352</ele>
        <time>2023-06-23T08:09:22Z</time>
      </trkpt>
      <trkpt lat="49.39314" lon="5.76592">
        <ele>297.60000610352</ele>
        <time>2023-06-23T08:09:24Z</time>
      </trkpt>
      <trkpt lat="49.39314" lon="5.76592">
        <ele>297.60000610352</ele>
        <time>2023-06-23T08:09:26Z</time>
      </trkpt>
      <trkpt lat="49.39314" lon="5.76592">
        <ele>297.60000610352</ele>
        <time>2023-06-23T08:09:28Z</time>
      </trkpt>
      <trkpt lat="49.39314" lon="5.76592">
        <ele>297.79998779297</ele>
        <time>2023-06-23T08:09:30Z</time>
      </trkpt>
      <trkpt lat="49.39314" lon="5.76592">
        <ele>297.79998779297</ele>
        <time>2023-06-23T08:09:32Z</time>
      </trkpt>
      <trkpt lat="49.39314" lon="5.76592">
        <ele>297.79998779297</ele>
        <time>2023-06-23T08:09:34Z</time>
      </trkpt>
      <trkpt lat="49.39314" lon="5.76592">
        <ele>297.79998779297</ele>
        <time>2023-06-23T08:09:35Z</time>
      </trkpt>
      <trkpt lat="49.39314" lon="5.76592">
        <ele>297.79998779297</ele>
        <time>2023-06-23T08:09:36Z</time>
      </trkpt>
      <trkpt lat="49.39314" lon="5.76592">
        <ele>297.60000610352</ele>
        <time>2023-06-23T08:09:38Z</time>
      </trkpt>
      <trkpt lat="49.39314" lon="5.76592">
        <ele>297.60000610352</ele>
        <time>2023-06-23T08:09:40Z</time>
      </trkpt>
      <trkpt lat="49.39314" lon="5.76592">
        <ele>297.60000610352</ele>
        <time>2023-06-23T08:09:42Z</time>
      </trkpt>
      <trkpt lat="49.39314" lon="5.76592">
        <ele>297.60000610352</ele>
        <time>2023-06-23T08:09:44Z</time>
      </trkpt>
      <trkpt lat="49.39314" lon="5.76592">
        <ele>297.60000610352</ele>
        <time>2023-06-23T08:09:46Z</time>
      </trkpt>
      <trkpt lat="49.39314" lon="5.76592">
        <ele>297.60000610352</ele>
        <time>2023-06-23T08:09:48Z</time>
      </trkpt>
      <trkpt lat="49.39314" lon="5.76593">
        <ele>297.60000610352</ele>
        <time>2023-06-23T08:09:49Z</time>
      </trkpt>
      <trkpt lat="49.39314" lon="5.76593">
        <ele>297.60000610352</ele>
        <time>2023-06-23T08:09:50Z</time>
      </trkpt>
      <trkpt lat="49.39314" lon="5.76593">
        <ele>297.60000610352</ele>
        <time>2023-06-23T08:09:52Z</time>
      </trkpt>
      <trkpt lat="49.39314" lon="5.76592">
        <ele>297.60000610352</ele>
        <time>2023-06-23T08:09:54Z</time>
      </trkpt>
      <trkpt lat="49.39314" lon="5.76592">
        <ele>297.60000610352</ele>
        <time>2023-06-23T08:09:56Z</time>
      </trkpt>
      <trkpt lat="49.39314" lon="5.76592">
        <ele>297.60000610352</ele>
        <time>2023-06-23T08:09:58Z</time>
      </trkpt>
      <trkpt lat="49.39314" lon="5.76592">
        <ele>297.60000610352</ele>
        <time>2023-06-23T08:09:59Z</time>
      </trkpt>
      <trkpt lat="49.39314" lon="5.76591">
        <ele>297.60000610352</ele>
        <time>2023-06-23T08:10:00Z</time>
      </trkpt>
      <trkpt lat="49.39314" lon="5.76592">
        <ele>297.60000610352</ele>
        <time>2023-06-23T08:10:02Z</time>
      </trkpt>
      <trkpt lat="49.39314" lon="5.76592">
        <ele>297.60000610352</ele>
        <time>2023-06-23T08:10:04Z</time>
      </trkpt>
      <trkpt lat="49.39314" lon="5.76592">
        <ele>297.60000610352</ele>
        <time>2023-06-23T08:10:06Z</time>
      </trkpt>
      <trkpt lat="49.39314" lon="5.76592">
        <ele>297.60000610352</ele>
        <time>2023-06-23T08:10:08Z</time>
      </trkpt>
      <trkpt lat="49.39314" lon="5.76592">
        <ele>297.60000610352</ele>
        <time>2023-06-23T08:10:10Z</time>
      </trkpt>
      <trkpt lat="49.39314" lon="5.76592">
        <ele>297.60000610352</ele>
        <time>2023-06-23T08:10:12Z</time>
      </trkpt>
      <trkpt lat="49.39313" lon="5.76592">
        <ele>297.60000610352</ele>
        <time>2023-06-23T08:10:14Z</time>
      </trkpt>
      <trkpt lat="49.39313" lon="5.76592">
        <ele>297.39999389648</ele>
        <time>2023-06-23T08:10:16Z</time>
      </trkpt>
      <trkpt lat="49.39313" lon="5.76592">
        <ele>297.39999389648</ele>
        <time>2023-06-23T08:10:17Z</time>
      </trkpt>
      <trkpt lat="49.39313" lon="5.76592">
        <ele>297.39999389648</ele>
        <time>2023-06-23T08:10:18Z</time>
      </trkpt>
      <trkpt lat="49.39313" lon="5.76592">
        <ele>297.39999389648</ele>
        <time>2023-06-23T08:10:20Z</time>
      </trkpt>
      <trkpt lat="49.39313" lon="5.76592">
        <ele>297.39999389648</ele>
        <time>2023-06-23T08:10:22Z</time>
      </trkpt>
      <trkpt lat="49.39313" lon="5.76592">
        <ele>297.39999389648</ele>
        <time>2023-06-23T08:10:24Z</time>
      </trkpt>
      <trkpt lat="49.39313" lon="5.76592">
        <ele>297.39999389648</ele>
        <time>2023-06-23T08:10:26Z</time>
      </trkpt>
      <trkpt lat="49.39313" lon="5.76591">
        <ele>297.39999389648</ele>
        <time>2023-06-23T08:10:28Z</time>
      </trkpt>
      <trkpt lat="49.39313" lon="5.76592">
        <ele>297.39999389648</ele>
        <time>2023-06-23T08:10:30Z</time>
      </trkpt>
      <trkpt lat="49.39313" lon="5.76592">
        <ele>297.39999389648</ele>
        <time>2023-06-23T08:10:32Z</time>
      </trkpt>
      <trkpt lat="49.39313" lon="5.76592">
        <ele>297.39999389648</ele>
        <time>2023-06-23T08:10:34Z</time>
      </trkpt>
      <trkpt lat="49.39313" lon="5.76591">
        <ele>297.39999389648</ele>
        <time>2023-06-23T08:10:36Z</time>
      </trkpt>
      <trkpt lat="49.39314" lon="5.76591">
        <ele>297.39999389648</ele>
        <time>2023-06-23T08:10:38Z</time>
      </trkpt>
      <trkpt lat="49.39314" lon="5.76591">
        <ele>297.39999389648</ele>
        <time>2023-06-23T08:10:40Z</time>
      </trkpt>
      <trkpt lat="49.39313" lon="5.76591">
        <ele>297.39999389648</ele>
        <time>2023-06-23T08:10:42Z</time>
      </trkpt>
      <trkpt lat="49.39313" lon="5.76591">
        <ele>297.39999389648</ele>
        <time>2023-06-23T08:10:44Z</time>
      </trkpt>
      <trkpt lat="49.39313" lon="5.76591">
        <ele>297.39999389648</ele>
        <time>2023-06-23T08:10:46Z</time>
      </trkpt>
      <trkpt lat="49.39313" lon="5.76591">
        <ele>297.39999389648</ele>
        <time>2023-06-23T08:10:47Z</time>
      </trkpt>
      <trkpt lat="49.39312" lon="5.76591">
        <ele>297.39999389648</ele>
        <time>2023-06-23T08:10:48Z</time>
      </trkpt>
      <trkpt lat="49.39312" lon="5.76591">
        <ele>297.39999389648</ele>
        <time>2023-06-23T08:10:50Z</time>
      </trkpt>
      <trkpt lat="49.39312" lon="5.76591">
        <ele>297.39999389648</ele>
        <time>2023-06-23T08:10:52Z</time>
      </trkpt>
      <trkpt lat="49.39312" lon="5.76592">
        <ele>297.39999389648</ele>
        <time>2023-06-23T08:10:54Z</time>
      </trkpt>
      <trkpt lat="49.39312" lon="5.76592">
        <ele>297.39999389648</ele>
        <time>2023-06-23T08:10:56Z</time>
      </trkpt>
      <trkpt lat="49.39312" lon="5.76592">
        <ele>297.39999389648</ele>
        <time>2023-06-23T08:10:58Z</time>
      </trkpt>
      <trkpt lat="49.39312" lon="5.76593">
        <ele>297.39999389648</ele>
        <time>2023-06-23T08:11:00Z</time>
      </trkpt>
      <trkpt lat="49.39312" lon="5.76593">
        <ele>297.39999389648</ele>
        <time>2023-06-23T08:11:02Z</time>
      </trkpt>
      <trkpt lat="49.39312" lon="5.76593">
        <ele>297.60000610352</ele>
        <time>2023-06-23T08:11:04Z</time>
      </trkpt>
      <trkpt lat="49.39312" lon="5.76594">
        <ele>297.60000610352</ele>
        <time>2023-06-23T08:11:06Z</time>
      </trkpt>
      <trkpt lat="49.39312" lon="5.76594">
        <ele>297.60000610352</ele>
        <time>2023-06-23T08:11:08Z</time>
      </trkpt>
      <trkpt lat="49.39313" lon="5.76594">
        <ele>297.60000610352</ele>
        <time>2023-06-23T08:11:10Z</time>
      </trkpt>
      <trkpt lat="49.39313" lon="5.76594">
        <ele>297.60000610352</ele>
        <time>2023-06-23T08:11:12Z</time>
      </trkpt>
      <trkpt lat="49.39313" lon="5.76594">
        <ele>297.60000610352</ele>
        <time>2023-06-23T08:11:14Z</time>
      </trkpt>
      <trkpt lat="49.39313" lon="5.76594">
        <ele>297.60000610352</ele>
        <time>2023-06-23T08:11:16Z</time>
      </trkpt>
      <trkpt lat="49.39313" lon="5.76594">
        <ele>297.60000610352</ele>
        <time>2023-06-23T08:11:18Z</time>
      </trkpt>
      <trkpt lat="49.39313" lon="5.76594">
        <ele>297.60000610352</ele>
        <time>2023-06-23T08:11:20Z</time>
      </trkpt>
      <trkpt lat="49.39313" lon="5.76594">
        <ele>297.60000610352</ele>
        <time>2023-06-23T08:11:21Z</time>
      </trkpt>
      <trkpt lat="49.39313" lon="5.76594">
        <ele>297.60000610352</ele>
        <time>2023-06-23T08:11:22Z</time>
      </trkpt>
      <trkpt lat="49.39313" lon="5.76595">
        <ele>297.60000610352</ele>
        <time>2023-06-23T08:11:24Z</time>
      </trkpt>
      <trkpt lat="49.39314" lon="5.76597">
        <ele>297.60000610352</ele>
        <time>2023-06-23T08:11:26Z</time>
      </trkpt>
      <trkpt lat="49.39314" lon="5.76598">
        <ele>297.60000610352</ele>
        <time>2023-06-23T08:11:28Z</time>
      </trkpt>
      <trkpt lat="49.39313" lon="5.76599">
        <ele>297.60000610352</ele>
        <time>2023-06-23T08:11:30Z</time>
      </trkpt>
      <trkpt lat="49.39314" lon="5.766">
        <ele>297.60000610352</ele>
        <time>2023-06-23T08:11:32Z</time>
      </trkpt>
      <trkpt lat="49.39314" lon="5.76601">
        <ele>297.60000610352</ele>
        <time>2023-06-23T08:11:34Z</time>
      </trkpt>
      <trkpt lat="49.39314" lon="5.76602">
        <ele>297.79998779297</ele>
        <time>2023-06-23T08:11:36Z</time>
      </trkpt>
      <trkpt lat="49.39314" lon="5.76602">
        <ele>297.79998779297</ele>
        <time>2023-06-23T08:11:37Z</time>
      </trkpt>
      <trkpt lat="49.39314" lon="5.76602">
        <ele>297.79998779297</ele>
        <time>2023-06-23T08:11:38Z</time>
      </trkpt>
      <trkpt lat="49.39314" lon="5.76602">
        <ele>297.79998779297</ele>
        <time>2023-06-23T08:11:40Z</time>
      </trkpt>
      <trkpt lat="49.39314" lon="5.76602">
        <ele>297.79998779297</ele>
        <time>2023-06-23T08:11:42Z</time>
      </trkpt>
      <trkpt lat="49.39314" lon="5.76602">
        <ele>297.79998779297</ele>
        <time>2023-06-23T08:11:44Z</time>
      </trkpt>
      <trkpt lat="49.39313" lon="5.76603">
        <ele>297.79998779297</ele>
        <time>2023-06-23T08:11:46Z</time>
      </trkpt>
      <trkpt lat="49.39313" lon="5.76603">
        <ele>297.79998779297</ele>
        <time>2023-06-23T08:11:48Z</time>
      </trkpt>
      <trkpt lat="49.39313" lon="5.76603">
        <ele>297.79998779297</ele>
        <time>2023-06-23T08:11:50Z</time>
      </trkpt>
      <trkpt lat="49.39313" lon="5.76603">
        <ele>297.79998779297</ele>
        <time>2023-06-23T08:11:52Z</time>
      </trkpt>
      <trkpt lat="49.39313" lon="5.76603">
        <ele>297.79998779297</ele>
        <time>2023-06-23T08:11:54Z</time>
      </trkpt>
      <trkpt lat="49.39313" lon="5.76603">
        <ele>297.79998779297</ele>
        <time>2023-06-23T08:11:55Z</time>
      </trkpt>
      <trkpt lat="49.39313" lon="5.76603">
        <ele>297.79998779297</ele>
        <time>2023-06-23T08:11:56Z</time>
      </trkpt>
      <trkpt lat="49.39313" lon="5.76604">
        <ele>297.79998779297</ele>
        <time>2023-06-23T08:11:58Z</time>
      </trkpt>
      <trkpt lat="49.39313" lon="5.76604">
        <ele>297.79998779297</ele>
        <time>2023-06-23T08:12:00Z</time>
      </trkpt>
      <trkpt lat="49.39312" lon="5.76604">
        <ele>297.79998779297</ele>
        <time>2023-06-23T08:12:02Z</time>
      </trkpt>
      <trkpt lat="49.39312" lon="5.76604">
        <ele>297.79998779297</ele>
        <time>2023-06-23T08:12:04Z</time>
      </trkpt>
      <trkpt lat="49.39312" lon="5.76605">
        <ele>297.79998779297</ele>
        <time>2023-06-23T08:12:06Z</time>
      </trkpt>
      <trkpt lat="49.39312" lon="5.76605">
        <ele>297.79998779297</ele>
        <time>2023-06-23T08:12:08Z</time>
      </trkpt>
      <trkpt lat="49.39312" lon="5.76605">
        <ele>297.79998779297</ele>
        <time>2023-06-23T08:12:10Z</time>
      </trkpt>
      <trkpt lat="49.39312" lon="5.76605">
        <ele>297.79998779297</ele>
        <time>2023-06-23T08:12:12Z</time>
      </trkpt>
      <trkpt lat="49.39312" lon="5.76605">
        <ele>297.79998779297</ele>
        <time>2023-06-23T08:12:14Z</time>
      </trkpt>
      <trkpt lat="49.39312" lon="5.76606">
        <ele>297.79998779297</ele>
        <time>2023-06-23T08:12:15Z</time>
      </trkpt>
      <trkpt lat="49.39312" lon="5.76606">
        <ele>297.79998779297</ele>
        <time>2023-06-23T08:12:16Z</time>
      </trkpt>
      <trkpt lat="49.39311" lon="5.76607">
        <ele>297.79998779297</ele>
        <time>2023-06-23T08:12:18Z</time>
      </trkpt>
      <trkpt lat="49.39311" lon="5.76607">
        <ele>297.79998779297</ele>
        <time>2023-06-23T08:12:20Z</time>
      </trkpt>
      <trkpt lat="49.39311" lon="5.76607">
        <ele>297.79998779297</ele>
        <time>2023-06-23T08:12:22Z</time>
      </trkpt>
      <trkpt lat="49.39311" lon="5.76607">
        <ele>297.79998779297</ele>
        <time>2023-06-23T08:12:24Z</time>
      </trkpt>
      <trkpt lat="49.39311" lon="5.76607">
        <ele>297.79998779297</ele>
        <time>2023-06-23T08:12:26Z</time>
      </trkpt>
      <trkpt lat="49.39311" lon="5.76607">
        <ele>297.79998779297</ele>
        <time>2023-06-23T08:12:27Z</time>
      </trkpt>
      <trkpt lat="49.39312" lon="5.76607">
        <ele>297.79998779297</ele>
        <time>2023-06-23T08:12:28Z</time>
      </trkpt>
      <trkpt lat="49.39312" lon="5.76607">
        <ele>297.79998779297</ele>
        <time>2023-06-23T08:12:30Z</time>
      </trkpt>
      <trkpt lat="49.39312" lon="5.76607">
        <ele>297.79998779297</ele>
        <time>2023-06-23T08:12:32Z</time>
      </trkpt>
      <trkpt lat="49.39312" lon="5.76607">
        <ele>297.79998779297</ele>
        <time>2023-06-23T08:12:34Z</time>
      </trkpt>
      <trkpt lat="49.39312" lon="5.76607">
        <ele>297.79998779297</ele>
        <time>2023-06-23T08:12:36Z</time>
      </trkpt>
      <trkpt lat="49.39311" lon="5.76607">
        <ele>297.79998779297</ele>
        <time>2023-06-23T08:12:38Z</time>
      </trkpt>
      <trkpt lat="49.39311" lon="5.76607">
        <ele>297.79998779297</ele>
        <time>2023-06-23T08:12:40Z</time>
      </trkpt>
      <trkpt lat="49.39311" lon="5.76607">
        <ele>297.79998779297</ele>
        <time>2023-06-23T08:12:42Z</time>
      </trkpt>
      <trkpt lat="49.39312" lon="5.76607">
        <ele>297.79998779297</ele>
        <time>2023-06-23T08:12:44Z</time>
      </trkpt>
      <trkpt lat="49.39312" lon="5.76607">
        <ele>297.79998779297</ele>
        <time>2023-06-23T08:12:45Z</time>
      </trkpt>
      <trkpt lat="49.39312" lon="5.76607">
        <ele>297.79998779297</ele>
        <time>2023-06-23T08:12:46Z</time>
      </trkpt>
      <trkpt lat="49.39311" lon="5.76607">
        <ele>297.60000610352</ele>
        <time>2023-06-23T08:12:48Z</time>
      </trkpt>
      <trkpt lat="49.39311" lon="5.76608">
        <ele>297.60000610352</ele>
        <time>2023-06-23T08:12:50Z</time>
      </trkpt>
      <trkpt lat="49.39311" lon="5.76608">
        <ele>297.60000610352</ele>
        <time>2023-06-23T08:12:52Z</time>
      </trkpt>
      <trkpt lat="49.39311" lon="5.76608">
        <ele>297.60000610352</ele>
        <time>2023-06-23T08:12:54Z</time>
      </trkpt>
      <trkpt lat="49.39311" lon="5.76608">
        <ele>297.60000610352</ele>
        <time>2023-06-23T08:12:56Z</time>
      </trkpt>
      <trkpt lat="49.39311" lon="5.76608">
        <ele>297.60000610352</ele>
        <time>2023-06-23T08:12:58Z</time>
      </trkpt>
      <trkpt lat="49.39311" lon="5.76608">
        <ele>297.60000610352</ele>
        <time>2023-06-23T08:12:59Z</time>
      </trkpt>
      <trkpt lat="49.39311" lon="5.76608">
        <ele>297.60000610352</ele>
        <time>2023-06-23T08:13:00Z</time>
      </trkpt>
      <trkpt lat="49.39311" lon="5.76608">
        <ele>297.60000610352</ele>
        <time>2023-06-23T08:13:02Z</time>
      </trkpt>
      <trkpt lat="49.39311" lon="5.76607">
        <ele>297.60000610352</ele>
        <time>2023-06-23T08:13:04Z</time>
      </trkpt>
      <trkpt lat="49.3931" lon="5.76607">
        <ele>297.60000610352</ele>
        <time>2023-06-23T08:13:06Z</time>
      </trkpt>
      <trkpt lat="49.3931" lon="5.76608">
        <ele>297.60000610352</ele>
        <time>2023-06-23T08:13:08Z</time>
      </trkpt>
      <trkpt lat="49.3931" lon="5.76608">
        <ele>297.60000610352</ele>
        <time>2023-06-23T08:13:10Z</time>
      </trkpt>
      <trkpt lat="49.3931" lon="5.76608">
        <ele>297.60000610352</ele>
        <time>2023-06-23T08:13:12Z</time>
      </trkpt>
      <trkpt lat="49.3931" lon="5.76608">
        <ele>297.60000610352</ele>
        <time>2023-06-23T08:13:14Z</time>
      </trkpt>
      <trkpt lat="49.3931" lon="5.76608">
        <ele>297.60000610352</ele>
        <time>2023-06-23T08:13:16Z</time>
      </trkpt>
      <trkpt lat="49.3931" lon="5.76608">
        <ele>297.60000610352</ele>
        <time>2023-06-23T08:13:18Z</time>
      </trkpt>
      <trkpt lat="49.39309" lon="5.76608">
        <ele>297.60000610352</ele>
        <time>2023-06-23T08:13:19Z</time>
      </trkpt>
      <trkpt lat="49.39309" lon="5.76607">
        <ele>297.60000610352</ele>
        <time>2023-06-23T08:13:20Z</time>
      </trkpt>
      <trkpt lat="49.39309" lon="5.76607">
        <ele>297.60000610352</ele>
        <time>2023-06-23T08:13:22Z</time>
      </trkpt>
      <trkpt lat="49.39309" lon="5.76607">
        <ele>297.60000610352</ele>
        <time>2023-06-23T08:13:24Z</time>
      </trkpt>
      <trkpt lat="49.39309" lon="5.76607">
        <ele>297.60000610352</ele>
        <time>2023-06-23T08:13:26Z</time>
      </trkpt>
      <trkpt lat="49.39309" lon="5.76607">
        <ele>297.60000610352</ele>
        <time>2023-06-23T08:13:28Z</time>
      </trkpt>
      <trkpt lat="49.39309" lon="5.76607">
        <ele>297.60000610352</ele>
        <time>2023-06-23T08:13:29Z</time>
      </trkpt>
      <trkpt lat="49.39309" lon="5.76607">
        <ele>297.60000610352</ele>
        <time>2023-06-23T08:13:30Z</time>
      </trkpt>
      <trkpt lat="49.39309" lon="5.76607">
        <ele>297.60000610352</ele>
        <time>2023-06-23T08:13:32Z</time>
      </trkpt>
      <trkpt lat="49.39309" lon="5.76606">
        <ele>297.60000610352</ele>
        <time>2023-06-23T08:13:34Z</time>
      </trkpt>
      <trkpt lat="49.39309" lon="5.76606">
        <ele>297.60000610352</ele>
        <time>2023-06-23T08:13:36Z</time>
      </trkpt>
      <trkpt lat="49.39309" lon="5.76605">
        <ele>297.79998779297</ele>
        <time>2023-06-23T08:13:38Z</time>
      </trkpt>
      <trkpt lat="49.39309" lon="5.76605">
        <ele>297.79998779297</ele>
        <time>2023-06-23T08:13:40Z</time>
      </trkpt>
      <trkpt lat="49.39309" lon="5.76605">
        <ele>297.60000610352</ele>
        <time>2023-06-23T08:13:42Z</time>
      </trkpt>
      <trkpt lat="49.39309" lon="5.76604">
        <ele>297.60000610352</ele>
        <time>2023-06-23T08:13:44Z</time>
      </trkpt>
      <trkpt lat="49.3931" lon="5.76604">
        <ele>297.39999389648</ele>
        <time>2023-06-23T08:13:46Z</time>
      </trkpt>
      <trkpt lat="49.3931" lon="5.76603">
        <ele>297.39999389648</ele>
        <time>2023-06-23T08:13:48Z</time>
      </trkpt>
      <trkpt lat="49.3931" lon="5.76603">
        <ele>297.39999389648</ele>
        <time>2023-06-23T08:13:50Z</time>
      </trkpt>
      <trkpt lat="49.3931" lon="5.76603">
        <ele>297.39999389648</ele>
        <time>2023-06-23T08:13:52Z</time>
      </trkpt>
      <trkpt lat="49.3931" lon="5.76603">
        <ele>297.39999389648</ele>
        <time>2023-06-23T08:13:54Z</time>
      </trkpt>
      <trkpt lat="49.3931" lon="5.76604">
        <ele>297.39999389648</ele>
        <time>2023-06-23T08:13:55Z</time>
      </trkpt>
      <trkpt lat="49.3931" lon="5.76604">
        <ele>297.39999389648</ele>
        <time>2023-06-23T08:13:56Z</time>
      </trkpt>
      <trkpt lat="49.39311" lon="5.76605">
        <ele>297.39999389648</ele>
        <time>2023-06-23T08:13:58Z</time>
      </trkpt>
      <trkpt lat="49.39311" lon="5.76604">
        <ele>297.39999389648</ele>
        <time>2023-06-23T08:14:00Z</time>
      </trkpt>
      <trkpt lat="49.39312" lon="5.76604">
        <ele>297.39999389648</ele>
        <time>2023-06-23T08:14:02Z</time>
      </trkpt>
      <trkpt lat="49.39312" lon="5.76605">
        <ele>297.39999389648</ele>
        <time>2023-06-23T08:14:04Z</time>
      </trkpt>
      <trkpt lat="49.39313" lon="5.76605">
        <ele>297.39999389648</ele>
        <time>2023-06-23T08:14:06Z</time>
      </trkpt>
      <trkpt lat="49.39313" lon="5.76605">
        <ele>297.39999389648</ele>
        <time>2023-06-23T08:14:07Z</time>
      </trkpt>
      <trkpt lat="49.39312" lon="5.76606">
        <ele>297.39999389648</ele>
        <time>2023-06-23T08:14:08Z</time>
      </trkpt>
      <trkpt lat="49.39313" lon="5.76606">
        <ele>297.39999389648</ele>
        <time>2023-06-23T08:14:10Z</time>
      </trkpt>
      <trkpt lat="49.39313" lon="5.76606">
        <ele>297.39999389648</ele>
        <time>2023-06-23T08:14:12Z</time>
      </trkpt>
      <trkpt lat="49.39313" lon="5.76606">
        <ele>297.39999389648</ele>
        <time>2023-06-23T08:14:14Z</time>
      </trkpt>
      <trkpt lat="49.39314" lon="5.76606">
        <ele>297.39999389648</ele>
        <time>2023-06-23T08:14:16Z</time>
      </trkpt>
      <trkpt lat="49.39314" lon="5.76606">
        <ele>297.39999389648</ele>
        <time>2023-06-23T08:14:18Z</time>
      </trkpt>
      <trkpt lat="49.39315" lon="5.76606">
        <ele>297.39999389648</ele>
        <time>2023-06-23T08:14:20Z</time>
      </trkpt>
      <trkpt lat="49.39315" lon="5.76606">
        <ele>297.39999389648</ele>
        <time>2023-06-23T08:14:22Z</time>
      </trkpt>
      <trkpt lat="49.39315" lon="5.76606">
        <ele>297.39999389648</ele>
        <time>2023-06-23T08:14:24Z</time>
      </trkpt>
      <trkpt lat="49.39314" lon="5.76607">
        <ele>297.39999389648</ele>
        <time>2023-06-23T08:14:26Z</time>
      </trkpt>
      <trkpt lat="49.39315" lon="5.76607">
        <ele>297.39999389648</ele>
        <time>2023-06-23T08:14:28Z</time>
      </trkpt>
      <trkpt lat="49.39315" lon="5.76608">
        <ele>297.39999389648</ele>
        <time>2023-06-23T08:14:30Z</time>
      </trkpt>
      <trkpt lat="49.39316" lon="5.76608">
        <ele>297.39999389648</ele>
        <time>2023-06-23T08:14:32Z</time>
      </trkpt>
      <trkpt lat="49.39316" lon="5.76608">
        <ele>297.39999389648</ele>
        <time>2023-06-23T08:14:34Z</time>
      </trkpt>
      <trkpt lat="49.39315" lon="5.76608">
        <ele>297.39999389648</ele>
        <time>2023-06-23T08:14:36Z</time>
      </trkpt>
      <trkpt lat="49.39316" lon="5.76607">
        <ele>297.39999389648</ele>
        <time>2023-06-23T08:14:38Z</time>
      </trkpt>
      <trkpt lat="49.39315" lon="5.76607">
        <ele>297.20001220703</ele>
        <time>2023-06-23T08:14:40Z</time>
      </trkpt>
      <trkpt lat="49.39315" lon="5.76607">
        <ele>297.20001220703</ele>
        <time>2023-06-23T08:14:41Z</time>
      </trkpt>
      <trkpt lat="49.39315" lon="5.76606">
        <ele>297.20001220703</ele>
        <time>2023-06-23T08:14:42Z</time>
      </trkpt>
      <trkpt lat="49.39315" lon="5.76604">
        <ele>297.20001220703</ele>
        <time>2023-06-23T08:14:44Z</time>
      </trkpt>
      <trkpt lat="49.39316" lon="5.76604">
        <ele>297.20001220703</ele>
        <time>2023-06-23T08:14:46Z</time>
      </trkpt>
      <trkpt lat="49.39316" lon="5.76604">
        <ele>297.20001220703</ele>
        <time>2023-06-23T08:14:48Z</time>
      </trkpt>
      <trkpt lat="49.39317" lon="5.76603">
        <ele>297.20001220703</ele>
        <time>2023-06-23T08:14:50Z</time>
      </trkpt>
      <trkpt lat="49.39317" lon="5.76603">
        <ele>297.39999389648</ele>
        <time>2023-06-23T08:14:52Z</time>
      </trkpt>
      <trkpt lat="49.39317" lon="5.76603">
        <ele>297.39999389648</ele>
        <time>2023-06-23T08:14:54Z</time>
      </trkpt>
      <trkpt lat="49.39317" lon="5.76602">
        <ele>297.39999389648</ele>
        <time>2023-06-23T08:14:56Z</time>
      </trkpt>
      <trkpt lat="49.39317" lon="5.76601">
        <ele>297.39999389648</ele>
        <time>2023-06-23T08:14:58Z</time>
      </trkpt>
      <trkpt lat="49.39316" lon="5.766">
        <ele>297.39999389648</ele>
        <time>2023-06-23T08:15:00Z</time>
      </trkpt>
      <trkpt lat="49.39315" lon="5.76599">
        <ele>297.39999389648</ele>
        <time>2023-06-23T08:15:02Z</time>
      </trkpt>
      <trkpt lat="49.39315" lon="5.76599">
        <ele>297.39999389648</ele>
        <time>2023-06-23T08:15:04Z</time>
      </trkpt>
      <trkpt lat="49.39315" lon="5.76599">
        <ele>297.39999389648</ele>
        <time>2023-06-23T08:15:06Z</time>
      </trkpt>
      <trkpt lat="49.39315" lon="5.76599">
        <ele>297.39999389648</ele>
        <time>2023-06-23T08:15:07Z</time>
      </trkpt>
      <trkpt lat="49.39315" lon="5.76599">
        <ele>297.39999389648</ele>
        <time>2023-06-23T08:15:08Z</time>
      </trkpt>
      <trkpt lat="49.39315" lon="5.76598">
        <ele>297.39999389648</ele>
        <time>2023-06-23T08:15:10Z</time>
      </trkpt>
      <trkpt lat="49.39315" lon="5.76598">
        <ele>297.39999389648</ele>
        <time>2023-06-23T08:15:12Z</time>
      </trkpt>
      <trkpt lat="49.39315" lon="5.76598">
        <ele>297.39999389648</ele>
        <time>2023-06-23T08:15:14Z</time>
      </trkpt>
      <trkpt lat="49.39315" lon="5.76598">
        <ele>297.39999389648</ele>
        <time>2023-06-23T08:15:16Z</time>
      </trkpt>
      <trkpt lat="49.39315" lon="5.76598">
        <ele>297.39999389648</ele>
        <time>2023-06-23T08:15:18Z</time>
      </trkpt>
      <trkpt lat="49.39315" lon="5.76598">
        <ele>297.39999389648</ele>
        <time>2023-06-23T08:15:20Z</time>
      </trkpt>
      <trkpt lat="49.39315" lon="5.76598">
        <ele>297.39999389648</ele>
        <time>2023-06-23T08:15:22Z</time>
      </trkpt>
      <trkpt lat="49.39315" lon="5.76598">
        <ele>297.39999389648</ele>
        <time>2023-06-23T08:15:24Z</time>
      </trkpt>
      <trkpt lat="49.39315" lon="5.76598">
        <ele>297.39999389648</ele>
        <time>2023-06-23T08:15:26Z</time>
      </trkpt>
      <trkpt lat="49.39315" lon="5.76598">
        <ele>297.39999389648</ele>
        <time>2023-06-23T08:15:28Z</time>
      </trkpt>
      <trkpt lat="49.39315" lon="5.76598">
        <ele>297.39999389648</ele>
        <time>2023-06-23T08:15:30Z</time>
      </trkpt>
      <trkpt lat="49.39314" lon="5.76598">
        <ele>297.39999389648</ele>
        <time>2023-06-23T08:15:32Z</time>
      </trkpt>
      <trkpt lat="49.39314" lon="5.76598">
        <ele>297.39999389648</ele>
        <time>2023-06-23T08:15:34Z</time>
      </trkpt>
      <trkpt lat="49.39314" lon="5.76597">
        <ele>297.39999389648</ele>
        <time>2023-06-23T08:15:35Z</time>
      </trkpt>
      <trkpt lat="49.39314" lon="5.76598">
        <ele>297.39999389648</ele>
        <time>2023-06-23T08:15:36Z</time>
      </trkpt>
      <trkpt lat="49.39314" lon="5.76599">
        <ele>297.39999389648</ele>
        <time>2023-06-23T08:15:38Z</time>
      </trkpt>
      <trkpt lat="49.39314" lon="5.76601">
        <ele>297.39999389648</ele>
        <time>2023-06-23T08:15:40Z</time>
      </trkpt>
      <trkpt lat="49.39312" lon="5.76604">
        <ele>297.39999389648</ele>
        <time>2023-06-23T08:15:42Z</time>
      </trkpt>
      <trkpt lat="49.39311" lon="5.76607">
        <ele>297.39999389648</ele>
        <time>2023-06-23T08:15:44Z</time>
      </trkpt>
      <trkpt lat="49.3931" lon="5.76609">
        <ele>297.39999389648</ele>
        <time>2023-06-23T08:15:46Z</time>
      </trkpt>
      <trkpt lat="49.39308" lon="5.76614">
        <ele>297.39999389648</ele>
        <time>2023-06-23T08:15:48Z</time>
      </trkpt>
      <trkpt lat="49.39306" lon="5.76618">
        <ele>297.39999389648</ele>
        <time>2023-06-23T08:15:50Z</time>
      </trkpt>
      <trkpt lat="49.39304" lon="5.76621">
        <ele>297.39999389648</ele>
        <time>2023-06-23T08:15:51Z</time>
      </trkpt>
      <trkpt lat="49.39303" lon="5.76624">
        <ele>297.39999389648</ele>
        <time>2023-06-23T08:15:52Z</time>
      </trkpt>
      <trkpt lat="49.39303" lon="5.76626">
        <ele>297.39999389648</ele>
        <time>2023-06-23T08:15:53Z</time>
      </trkpt>
      <trkpt lat="49.39303" lon="5.76629">
        <ele>297.39999389648</ele>
        <time>2023-06-23T08:15:54Z</time>
      </trkpt>
      <trkpt lat="49.39306" lon="5.76632">
        <ele>297.39999389648</ele>
        <time>2023-06-23T08:15:56Z</time>
      </trkpt>
      <trkpt lat="49.39307" lon="5.76633">
        <ele>297.39999389648</ele>
        <time>2023-06-23T08:15:57Z</time>
      </trkpt>
      <trkpt lat="49.39309" lon="5.76634">
        <ele>297.39999389648</ele>
        <time>2023-06-23T08:15:58Z</time>
      </trkpt>
      <trkpt lat="49.39313" lon="5.76637">
        <ele>297.20001220703</ele>
        <time>2023-06-23T08:16:00Z</time>
      </trkpt>
      <trkpt lat="49.39317" lon="5.76639">
        <ele>297.20001220703</ele>
        <time>2023-06-23T08:16:02Z</time>
      </trkpt>
      <trkpt lat="49.39322" lon="5.76643">
        <ele>297.20001220703</ele>
        <time>2023-06-23T08:16:04Z</time>
      </trkpt>
      <trkpt lat="49.39327" lon="5.76646">
        <ele>297.20001220703</ele>
        <time>2023-06-23T08:16:06Z</time>
      </trkpt>
      <trkpt lat="49.39333" lon="5.7665">
        <ele>297.20001220703</ele>
        <time>2023-06-23T08:16:08Z</time>
      </trkpt>
      <trkpt lat="49.39339" lon="5.76652">
        <ele>297</ele>
        <time>2023-06-23T08:16:10Z</time>
      </trkpt>
      <trkpt lat="49.39343" lon="5.76654">
        <ele>296.79998779297</ele>
        <time>2023-06-23T08:16:12Z</time>
      </trkpt>
      <trkpt lat="49.39345" lon="5.76655">
        <ele>296.79998779297</ele>
        <time>2023-06-23T08:16:13Z</time>
      </trkpt>
      <trkpt lat="49.39346" lon="5.76655">
        <ele>296.60000610352</ele>
        <time>2023-06-23T08:16:14Z</time>
      </trkpt>
      <trkpt lat="49.39349" lon="5.76656">
        <ele>296.60000610352</ele>
        <time>2023-06-23T08:16:16Z</time>
      </trkpt>
      <trkpt lat="49.39352" lon="5.76658">
        <ele>296.39999389648</ele>
        <time>2023-06-23T08:16:18Z</time>
      </trkpt>
      <trkpt lat="49.39353" lon="5.76659">
        <ele>296.39999389648</ele>
        <time>2023-06-23T08:16:19Z</time>
      </trkpt>
      <trkpt lat="49.39355" lon="5.7666">
        <ele>296.39999389648</ele>
        <time>2023-06-23T08:16:20Z</time>
      </trkpt>
      <trkpt lat="49.39356" lon="5.76661">
        <ele>296.39999389648</ele>
        <time>2023-06-23T08:16:22Z</time>
      </trkpt>
      <trkpt lat="49.39359" lon="5.76663">
        <ele>296.39999389648</ele>
        <time>2023-06-23T08:16:24Z</time>
      </trkpt>
      <trkpt lat="49.3936" lon="5.76664">
        <ele>296.39999389648</ele>
        <time>2023-06-23T08:16:25Z</time>
      </trkpt>
      <trkpt lat="49.3936" lon="5.76665">
        <ele>296.39999389648</ele>
        <time>2023-06-23T08:16:26Z</time>
      </trkpt>
      <trkpt lat="49.39363" lon="5.76668">
        <ele>296.39999389648</ele>
        <time>2023-06-23T08:16:28Z</time>
      </trkpt>
      <trkpt lat="49.39365" lon="5.76672">
        <ele>296.39999389648</ele>
        <time>2023-06-23T08:16:30Z</time>
      </trkpt>
      <trkpt lat="49.39367" lon="5.76676">
        <ele>296.20001220703</ele>
        <time>2023-06-23T08:16:32Z</time>
      </trkpt>
      <trkpt lat="49.39369" lon="5.76679">
        <ele>296.20001220703</ele>
        <time>2023-06-23T08:16:34Z</time>
      </trkpt>
      <trkpt lat="49.3937" lon="5.7668">
        <ele>296.20001220703</ele>
        <time>2023-06-23T08:16:35Z</time>
      </trkpt>
      <trkpt lat="49.39372" lon="5.76682">
        <ele>296</ele>
        <time>2023-06-23T08:16:36Z</time>
      </trkpt>
      <trkpt lat="49.39376" lon="5.76685">
        <ele>296</ele>
        <time>2023-06-23T08:16:38Z</time>
      </trkpt>
      <trkpt lat="49.3938" lon="5.76687">
        <ele>296</ele>
        <time>2023-06-23T08:16:40Z</time>
      </trkpt>
      <trkpt lat="49.39384" lon="5.76687">
        <ele>296</ele>
        <time>2023-06-23T08:16:42Z</time>
      </trkpt>
      <trkpt lat="49.39385" lon="5.76687">
        <ele>296</ele>
        <time>2023-06-23T08:16:43Z</time>
      </trkpt>
      <trkpt lat="49.39387" lon="5.76686">
        <ele>296</ele>
        <time>2023-06-23T08:16:44Z</time>
      </trkpt>
      <trkpt lat="49.39392" lon="5.76685">
        <ele>296</ele>
        <time>2023-06-23T08:16:46Z</time>
      </trkpt>
      <trkpt lat="49.39395" lon="5.76683">
        <ele>296</ele>
        <time>2023-06-23T08:16:47Z</time>
      </trkpt>
      <trkpt lat="49.39397" lon="5.76683">
        <ele>296</ele>
        <time>2023-06-23T08:16:48Z</time>
      </trkpt>
      <trkpt lat="49.394" lon="5.76683">
        <ele>296</ele>
        <time>2023-06-23T08:16:49Z</time>
      </trkpt>
      <trkpt lat="49.39402" lon="5.76682">
        <ele>295.79998779297</ele>
        <time>2023-06-23T08:16:50Z</time>
      </trkpt>
      <trkpt lat="49.39407" lon="5.7668">
        <ele>295.79998779297</ele>
        <time>2023-06-23T08:16:52Z</time>
      </trkpt>
      <trkpt lat="49.3941" lon="5.76679">
        <ele>295.60000610352</ele>
        <time>2023-06-23T08:16:54Z</time>
      </trkpt>
      <trkpt lat="49.39412" lon="5.76679">
        <ele>295.39999389648</ele>
        <time>2023-06-23T08:16:56Z</time>
      </trkpt>
      <trkpt lat="49.39413" lon="5.76677">
        <ele>295.39999389648</ele>
        <time>2023-06-23T08:16:58Z</time>
      </trkpt>
      <trkpt lat="49.39412" lon="5.76676">
        <ele>295.39999389648</ele>
        <time>2023-06-23T08:17:00Z</time>
      </trkpt>
      <trkpt lat="49.39412" lon="5.76675">
        <ele>295.39999389648</ele>
        <time>2023-06-23T08:17:02Z</time>
      </trkpt>
      <trkpt lat="49.39412" lon="5.76673">
        <ele>295.39999389648</ele>
        <time>2023-06-23T08:17:04Z</time>
      </trkpt>
      <trkpt lat="49.39412" lon="5.76671">
        <ele>295.60000610352</ele>
        <time>2023-06-23T08:17:06Z</time>
      </trkpt>
      <trkpt lat="49.39412" lon="5.7667">
        <ele>295.60000610352</ele>
        <time>2023-06-23T08:17:07Z</time>
      </trkpt>
      <trkpt lat="49.39412" lon="5.76668">
        <ele>295.60000610352</ele>
        <time>2023-06-23T08:17:08Z</time>
      </trkpt>
      <trkpt lat="49.39413" lon="5.76665">
        <ele>295.60000610352</ele>
        <time>2023-06-23T08:17:10Z</time>
      </trkpt>
      <trkpt lat="49.39414" lon="5.76665">
        <ele>295.79998779297</ele>
        <time>2023-06-23T08:17:12Z</time>
      </trkpt>
      <trkpt lat="49.39414" lon="5.76666">
        <ele>295.79998779297</ele>
        <time>2023-06-23T08:17:14Z</time>
      </trkpt>
      <trkpt lat="49.39414" lon="5.7667">
        <ele>295.79998779297</ele>
        <time>2023-06-23T08:17:16Z</time>
      </trkpt>
      <trkpt lat="49.39415" lon="5.76674">
        <ele>295.79998779297</ele>
        <time>2023-06-23T08:17:18Z</time>
      </trkpt>
      <trkpt lat="49.39416" lon="5.76675">
        <ele>295.79998779297</ele>
        <time>2023-06-23T08:17:19Z</time>
      </trkpt>
      <trkpt lat="49.39417" lon="5.76677">
        <ele>295.79998779297</ele>
        <time>2023-06-23T08:17:20Z</time>
      </trkpt>
      <trkpt lat="49.39419" lon="5.7668">
        <ele>295.79998779297</ele>
        <time>2023-06-23T08:17:22Z</time>
      </trkpt>
      <trkpt lat="49.39421" lon="5.76679">
        <ele>295.79998779297</ele>
        <time>2023-06-23T08:17:24Z</time>
      </trkpt>
      <trkpt lat="49.39423" lon="5.76678">
        <ele>295.79998779297</ele>
        <time>2023-06-23T08:17:26Z</time>
      </trkpt>
      <trkpt lat="49.39425" lon="5.76677">
        <ele>295.60000610352</ele>
        <time>2023-06-23T08:17:28Z</time>
      </trkpt>
      <trkpt lat="49.39427" lon="5.76675">
        <ele>295.60000610352</ele>
        <time>2023-06-23T08:17:30Z</time>
      </trkpt>
      <trkpt lat="49.39429" lon="5.76674">
        <ele>295.60000610352</ele>
        <time>2023-06-23T08:17:31Z</time>
      </trkpt>
      <trkpt lat="49.39431" lon="5.76673">
        <ele>295.60000610352</ele>
        <time>2023-06-23T08:17:32Z</time>
      </trkpt>
      <trkpt lat="49.39436" lon="5.7667">
        <ele>295.39999389648</ele>
        <time>2023-06-23T08:17:34Z</time>
      </trkpt>
      <trkpt lat="49.39441" lon="5.76666">
        <ele>295.39999389648</ele>
        <time>2023-06-23T08:17:36Z</time>
      </trkpt>
      <trkpt lat="49.39446" lon="5.76663">
        <ele>295.39999389648</ele>
        <time>2023-06-23T08:17:38Z</time>
      </trkpt>
      <trkpt lat="49.39451" lon="5.76659">
        <ele>295.20001220703</ele>
        <time>2023-06-23T08:17:40Z</time>
      </trkpt>
      <trkpt lat="49.39457" lon="5.76655">
        <ele>295.20001220703</ele>
        <time>2023-06-23T08:17:42Z</time>
      </trkpt>
      <trkpt lat="49.39462" lon="5.76652">
        <ele>295.20001220703</ele>
        <time>2023-06-23T08:17:44Z</time>
      </trkpt>
      <trkpt lat="49.39467" lon="5.7665">
        <ele>295.20001220703</ele>
        <time>2023-06-23T08:17:46Z</time>
      </trkpt>
      <trkpt lat="49.39473" lon="5.76647">
        <ele>295</ele>
        <time>2023-06-23T08:17:48Z</time>
      </trkpt>
      <trkpt lat="49.39476" lon="5.76645">
        <ele>295</ele>
        <time>2023-06-23T08:17:49Z</time>
      </trkpt>
      <trkpt lat="49.39479" lon="5.76643">
        <ele>295</ele>
        <time>2023-06-23T08:17:50Z</time>
      </trkpt>
      <trkpt lat="49.39484" lon="5.76639">
        <ele>295</ele>
        <time>2023-06-23T08:17:52Z</time>
      </trkpt>
      <trkpt lat="49.39489" lon="5.76635">
        <ele>295</ele>
        <time>2023-06-23T08:17:54Z</time>
      </trkpt>
      <trkpt lat="49.39491" lon="5.76633">
        <ele>295</ele>
        <time>2023-06-23T08:17:55Z</time>
      </trkpt>
      <trkpt lat="49.39494" lon="5.76631">
        <ele>295</ele>
        <time>2023-06-23T08:17:56Z</time>
      </trkpt>
      <trkpt lat="49.39496" lon="5.76629">
        <ele>294.79998779297</ele>
        <time>2023-06-23T08:17:57Z</time>
      </trkpt>
      <trkpt lat="49.39499" lon="5.76627">
        <ele>294.79998779297</ele>
        <time>2023-06-23T08:17:58Z</time>
      </trkpt>
      <trkpt lat="49.39504" lon="5.76625">
        <ele>294.79998779297</ele>
        <time>2023-06-23T08:18:00Z</time>
      </trkpt>
      <trkpt lat="49.39509" lon="5.76621">
        <ele>294.79998779297</ele>
        <time>2023-06-23T08:18:02Z</time>
      </trkpt>
      <trkpt lat="49.39514" lon="5.76617">
        <ele>294.79998779297</ele>
        <time>2023-06-23T08:18:04Z</time>
      </trkpt>
      <trkpt lat="49.3952" lon="5.76613">
        <ele>294.79998779297</ele>
        <time>2023-06-23T08:18:06Z</time>
      </trkpt>
      <trkpt lat="49.39524" lon="5.76609">
        <ele>294.60000610352</ele>
        <time>2023-06-23T08:18:08Z</time>
      </trkpt>
      <trkpt lat="49.39529" lon="5.76606">
        <ele>294.60000610352</ele>
        <time>2023-06-23T08:18:10Z</time>
      </trkpt>
      <trkpt lat="49.39534" lon="5.76602">
        <ele>294.60000610352</ele>
        <time>2023-06-23T08:18:12Z</time>
      </trkpt>
      <trkpt lat="49.39536" lon="5.76601">
        <ele>294.60000610352</ele>
        <time>2023-06-23T08:18:13Z</time>
      </trkpt>
      <trkpt lat="49.39539" lon="5.76599">
        <ele>294.60000610352</ele>
        <time>2023-06-23T08:18:14Z</time>
      </trkpt>
      <trkpt lat="49.39545" lon="5.76596">
        <ele>294.60000610352</ele>
        <time>2023-06-23T08:18:16Z</time>
      </trkpt>
      <trkpt lat="49.39549" lon="5.76591">
        <ele>294.60000610352</ele>
        <time>2023-06-23T08:18:18Z</time>
      </trkpt>
      <trkpt lat="49.39555" lon="5.76586">
        <ele>294.39999389648</ele>
        <time>2023-06-23T08:18:20Z</time>
      </trkpt>
      <trkpt lat="49.39561" lon="5.76581">
        <ele>294.39999389648</ele>
        <time>2023-06-23T08:18:22Z</time>
      </trkpt>
      <trkpt lat="49.39567" lon="5.76578">
        <ele>294.20001220703</ele>
        <time>2023-06-23T08:18:24Z</time>
      </trkpt>
      <trkpt lat="49.39573" lon="5.76575">
        <ele>294.20001220703</ele>
        <time>2023-06-23T08:18:26Z</time>
      </trkpt>
      <trkpt lat="49.39578" lon="5.76571">
        <ele>294.20001220703</ele>
        <time>2023-06-23T08:18:28Z</time>
      </trkpt>
      <trkpt lat="49.39582" lon="5.76567">
        <ele>294.20001220703</ele>
        <time>2023-06-23T08:18:30Z</time>
      </trkpt>
      <trkpt lat="49.39584" lon="5.76564">
        <ele>294</ele>
        <time>2023-06-23T08:18:31Z</time>
      </trkpt>
      <trkpt lat="49.39587" lon="5.76562">
        <ele>294</ele>
        <time>2023-06-23T08:18:32Z</time>
      </trkpt>
      <trkpt lat="49.39592" lon="5.76559">
        <ele>294</ele>
        <time>2023-06-23T08:18:34Z</time>
      </trkpt>
      <trkpt lat="49.39598" lon="5.76554">
        <ele>294</ele>
        <time>2023-06-23T08:18:36Z</time>
      </trkpt>
      <trkpt lat="49.39604" lon="5.76549">
        <ele>293.79998779297</ele>
        <time>2023-06-23T08:18:38Z</time>
      </trkpt>
      <trkpt lat="49.39609" lon="5.76544">
        <ele>293.79998779297</ele>
        <time>2023-06-23T08:18:40Z</time>
      </trkpt>
      <trkpt lat="49.39613" lon="5.76541">
        <ele>293.60000610352</ele>
        <time>2023-06-23T08:18:42Z</time>
      </trkpt>
      <trkpt lat="49.39615" lon="5.7654">
        <ele>293.60000610352</ele>
        <time>2023-06-23T08:18:43Z</time>
      </trkpt>
      <trkpt lat="49.39617" lon="5.76541">
        <ele>293.60000610352</ele>
        <time>2023-06-23T08:18:44Z</time>
      </trkpt>
      <trkpt lat="49.39622" lon="5.76542">
        <ele>293.39999389648</ele>
        <time>2023-06-23T08:18:46Z</time>
      </trkpt>
      <trkpt lat="49.39626" lon="5.76546">
        <ele>293.39999389648</ele>
        <time>2023-06-23T08:18:48Z</time>
      </trkpt>
      <trkpt lat="49.39628" lon="5.76548">
        <ele>293.20001220703</ele>
        <time>2023-06-23T08:18:50Z</time>
      </trkpt>
      <trkpt lat="49.3963" lon="5.76549">
        <ele>293</ele>
        <time>2023-06-23T08:18:52Z</time>
      </trkpt>
      <trkpt lat="49.39631" lon="5.7655">
        <ele>292.79998779297</ele>
        <time>2023-06-23T08:18:54Z</time>
      </trkpt>
      <trkpt lat="49.39633" lon="5.7655">
        <ele>292.79998779297</ele>
        <time>2023-06-23T08:18:56Z</time>
      </trkpt>
      <trkpt lat="49.39634" lon="5.7655">
        <ele>292.60000610352</ele>
        <time>2023-06-23T08:18:58Z</time>
      </trkpt>
      <trkpt lat="49.39635" lon="5.76552">
        <ele>292.60000610352</ele>
        <time>2023-06-23T08:19:00Z</time>
      </trkpt>
      <trkpt lat="49.39635" lon="5.76553">
        <ele>292.60000610352</ele>
        <time>2023-06-23T08:19:02Z</time>
      </trkpt>
      <trkpt lat="49.39635" lon="5.76553">
        <ele>292.39999389648</ele>
        <time>2023-06-23T08:19:04Z</time>
      </trkpt>
      <trkpt lat="49.39635" lon="5.76553">
        <ele>292.39999389648</ele>
        <time>2023-06-23T08:19:06Z</time>
      </trkpt>
      <trkpt lat="49.39635" lon="5.76553">
        <ele>292.39999389648</ele>
        <time>2023-06-23T08:19:08Z</time>
      </trkpt>
      <trkpt lat="49.39635" lon="5.76554">
        <ele>292.39999389648</ele>
        <time>2023-06-23T08:19:10Z</time>
      </trkpt>
      <trkpt lat="49.39634" lon="5.76558">
        <ele>292.39999389648</ele>
        <time>2023-06-23T08:19:12Z</time>
      </trkpt>
      <trkpt lat="49.39634" lon="5.7656">
        <ele>292.39999389648</ele>
        <time>2023-06-23T08:19:13Z</time>
      </trkpt>
      <trkpt lat="49.39633" lon="5.76564">
        <ele>292.39999389648</ele>
        <time>2023-06-23T08:19:14Z</time>
      </trkpt>
      <trkpt lat="49.39632" lon="5.76571">
        <ele>292.39999389648</ele>
        <time>2023-06-23T08:19:16Z</time>
      </trkpt>
      <trkpt lat="49.39632" lon="5.76578">
        <ele>292.39999389648</ele>
        <time>2023-06-23T08:19:18Z</time>
      </trkpt>
      <trkpt lat="49.39632" lon="5.76584">
        <ele>292.39999389648</ele>
        <time>2023-06-23T08:19:20Z</time>
      </trkpt>
      <trkpt lat="49.39633" lon="5.76589">
        <ele>292</ele>
        <time>2023-06-23T08:19:22Z</time>
      </trkpt>
      <trkpt lat="49.39634" lon="5.76595">
        <ele>291.79998779297</ele>
        <time>2023-06-23T08:19:24Z</time>
      </trkpt>
      <trkpt lat="49.39638" lon="5.766">
        <ele>291.60000610352</ele>
        <time>2023-06-23T08:19:26Z</time>
      </trkpt>
      <trkpt lat="49.39642" lon="5.766">
        <ele>291.60000610352</ele>
        <time>2023-06-23T08:19:27Z</time>
      </trkpt>
      <trkpt lat="49.39646" lon="5.766">
        <ele>291.60000610352</ele>
        <time>2023-06-23T08:19:28Z</time>
      </trkpt>
      <trkpt lat="49.39654" lon="5.766">
        <ele>291.20001220703</ele>
        <time>2023-06-23T08:19:30Z</time>
      </trkpt>
      <trkpt lat="49.39662" lon="5.76597">
        <ele>291</ele>
        <time>2023-06-23T08:19:32Z</time>
      </trkpt>
      <trkpt lat="49.39668" lon="5.76593">
        <ele>290.39999389648</ele>
        <time>2023-06-23T08:19:34Z</time>
      </trkpt>
      <trkpt lat="49.39672" lon="5.76589">
        <ele>289</ele>
        <time>2023-06-23T08:19:36Z</time>
      </trkpt>
      <trkpt lat="49.39676" lon="5.76589">
        <ele>287.79998779297</ele>
        <time>2023-06-23T08:19:38Z</time>
      </trkpt>
      <trkpt lat="49.3968" lon="5.76592">
        <ele>287.39999389648</ele>
        <time>2023-06-23T08:19:40Z</time>
      </trkpt>
      <trkpt lat="49.39683" lon="5.76596">
        <ele>287.20001220703</ele>
        <time>2023-06-23T08:19:42Z</time>
      </trkpt>
      <trkpt lat="49.39685" lon="5.76598">
        <ele>287</ele>
        <time>2023-06-23T08:19:44Z</time>
      </trkpt>
      <trkpt lat="49.39687" lon="5.76601">
        <ele>286.60000610352</ele>
        <time>2023-06-23T08:19:46Z</time>
      </trkpt>
      <trkpt lat="49.39689" lon="5.76603">
        <ele>286.20001220703</ele>
        <time>2023-06-23T08:19:48Z</time>
      </trkpt>
      <trkpt lat="49.3969" lon="5.76604">
        <ele>285.79998779297</ele>
        <time>2023-06-23T08:19:50Z</time>
      </trkpt>
      <trkpt lat="49.3969" lon="5.76606">
        <ele>285.60000610352</ele>
        <time>2023-06-23T08:19:51Z</time>
      </trkpt>
      <trkpt lat="49.39691" lon="5.76607">
        <ele>285.20001220703</ele>
        <time>2023-06-23T08:19:52Z</time>
      </trkpt>
      <trkpt lat="49.39693" lon="5.76609">
        <ele>284.79998779297</ele>
        <time>2023-06-23T08:19:54Z</time>
      </trkpt>
      <trkpt lat="49.39693" lon="5.76609">
        <ele>284.39999389648</ele>
        <time>2023-06-23T08:19:55Z</time>
      </trkpt>
      <trkpt lat="49.39695" lon="5.7661">
        <ele>284.20001220703</ele>
        <time>2023-06-23T08:19:56Z</time>
      </trkpt>
      <trkpt lat="49.39698" lon="5.76611">
        <ele>283.79998779297</ele>
        <time>2023-06-23T08:19:58Z</time>
      </trkpt>
      <trkpt lat="49.397" lon="5.76611">
        <ele>283.60000610352</ele>
        <time>2023-06-23T08:19:59Z</time>
      </trkpt>
      <trkpt lat="49.39703" lon="5.76613">
        <ele>283.20001220703</ele>
        <time>2023-06-23T08:20:00Z</time>
      </trkpt>
      <trkpt lat="49.39708" lon="5.76616">
        <ele>282.79998779297</ele>
        <time>2023-06-23T08:20:02Z</time>
      </trkpt>
      <trkpt lat="49.39713" lon="5.76621">
        <ele>282.20001220703</ele>
        <time>2023-06-23T08:20:04Z</time>
      </trkpt>
      <trkpt lat="49.39715" lon="5.76623">
        <ele>281.20001220703</ele>
        <time>2023-06-23T08:20:05Z</time>
      </trkpt>
      <trkpt lat="49.39718" lon="5.76626">
        <ele>280.39999389648</ele>
        <time>2023-06-23T08:20:06Z</time>
      </trkpt>
      <trkpt lat="49.39719" lon="5.76628">
        <ele>279.79998779297</ele>
        <time>2023-06-23T08:20:07Z</time>
      </trkpt>
      <trkpt lat="49.39721" lon="5.76631">
        <ele>279.20001220703</ele>
        <time>2023-06-23T08:20:08Z</time>
      </trkpt>
      <trkpt lat="49.39723" lon="5.76634">
        <ele>278.79998779297</ele>
        <time>2023-06-23T08:20:09Z</time>
      </trkpt>
      <trkpt lat="49.39724" lon="5.76637">
        <ele>278.20001220703</ele>
        <time>2023-06-23T08:20:10Z</time>
      </trkpt>
      <trkpt lat="49.39726" lon="5.7664">
        <ele>277.60000610352</ele>
        <time>2023-06-23T08:20:11Z</time>
      </trkpt>
      <trkpt lat="49.39728" lon="5.76642">
        <ele>277</ele>
        <time>2023-06-23T08:20:12Z</time>
      </trkpt>
      <trkpt lat="49.39731" lon="5.76643">
        <ele>276.20001220703</ele>
        <time>2023-06-23T08:20:13Z</time>
      </trkpt>
      <trkpt lat="49.39732" lon="5.76645">
        <ele>275.60000610352</ele>
        <time>2023-06-23T08:20:14Z</time>
      </trkpt>
      <trkpt lat="49.39733" lon="5.76646">
        <ele>275</ele>
        <time>2023-06-23T08:20:15Z</time>
      </trkpt>
      <trkpt lat="49.39733" lon="5.76649">
        <ele>274.39999389648</ele>
        <time>2023-06-23T08:20:16Z</time>
      </trkpt>
      <trkpt lat="49.39733" lon="5.76653">
        <ele>273.60000610352</ele>
        <time>2023-06-23T08:20:17Z</time>
      </trkpt>
      <trkpt lat="49.39735" lon="5.76657">
        <ele>273</ele>
        <time>2023-06-23T08:20:18Z</time>
      </trkpt>
      <trkpt lat="49.39737" lon="5.7666">
        <ele>272.39999389648</ele>
        <time>2023-06-23T08:20:19Z</time>
      </trkpt>
      <trkpt lat="49.39739" lon="5.76663">
        <ele>271.60000610352</ele>
        <time>2023-06-23T08:20:20Z</time>
      </trkpt>
      <trkpt lat="49.39741" lon="5.76666">
        <ele>270.79998779297</ele>
        <time>2023-06-23T08:20:21Z</time>
      </trkpt>
      <trkpt lat="49.39743" lon="5.76667">
        <ele>270.20001220703</ele>
        <time>2023-06-23T08:20:22Z</time>
      </trkpt>
      <trkpt lat="49.39745" lon="5.76669">
        <ele>269.60000610352</ele>
        <time>2023-06-23T08:20:23Z</time>
      </trkpt>
      <trkpt lat="49.39746" lon="5.76671">
        <ele>269.20001220703</ele>
        <time>2023-06-23T08:20:24Z</time>
      </trkpt>
      <trkpt lat="49.3975" lon="5.76675">
        <ele>268.20001220703</ele>
        <time>2023-06-23T08:20:26Z</time>
      </trkpt>
      <trkpt lat="49.39754" lon="5.7668">
        <ele>267</ele>
        <time>2023-06-23T08:20:28Z</time>
      </trkpt>
      <trkpt lat="49.39755" lon="5.76682">
        <ele>266.20001220703</ele>
        <time>2023-06-23T08:20:29Z</time>
      </trkpt>
      <trkpt lat="49.39756" lon="5.76683">
        <ele>265.60000610352</ele>
        <time>2023-06-23T08:20:30Z</time>
      </trkpt>
      <trkpt lat="49.39756" lon="5.76685">
        <ele>264.60000610352</ele>
        <time>2023-06-23T08:20:32Z</time>
      </trkpt>
      <trkpt lat="49.39756" lon="5.76686">
        <ele>264.20001220703</ele>
        <time>2023-06-23T08:20:33Z</time>
      </trkpt>
      <trkpt lat="49.39756" lon="5.76687">
        <ele>263.60000610352</ele>
        <time>2023-06-23T08:20:34Z</time>
      </trkpt>
      <trkpt lat="49.39755" lon="5.76688">
        <ele>262.60000610352</ele>
        <time>2023-06-23T08:20:35Z</time>
      </trkpt>
      <trkpt lat="49.39755" lon="5.76689">
        <ele>262</ele>
        <time>2023-06-23T08:20:36Z</time>
      </trkpt>
      <trkpt lat="49.39755" lon="5.7669">
        <ele>261.20001220703</ele>
        <time>2023-06-23T08:20:37Z</time>
      </trkpt>
      <trkpt lat="49.39755" lon="5.76691">
        <ele>260.79998779297</ele>
        <time>2023-06-23T08:20:38Z</time>
      </trkpt>
      <trkpt lat="49.39755" lon="5.76692">
        <ele>260.39999389648</ele>
        <time>2023-06-23T08:20:40Z</time>
      </trkpt>
      <trkpt lat="49.39755" lon="5.76693">
        <ele>260.20001220703</ele>
        <time>2023-06-23T08:20:41Z</time>
      </trkpt>
      <trkpt lat="49.39755" lon="5.76693">
        <ele>260</ele>
        <time>2023-06-23T08:20:42Z</time>
      </trkpt>
      <trkpt lat="49.39755" lon="5.76693">
        <ele>260</ele>
        <time>2023-06-23T08:20:43Z</time>
      </trkpt>
      <trkpt lat="49.39755" lon="5.76693">
        <ele>260</ele>
        <time>2023-06-23T08:20:44Z</time>
      </trkpt>
      <trkpt lat="49.39755" lon="5.76693">
        <ele>259.79998779297</ele>
        <time>2023-06-23T08:20:46Z</time>
      </trkpt>
      <trkpt lat="49.39755" lon="5.76694">
        <ele>259.79998779297</ele>
        <time>2023-06-23T08:20:48Z</time>
      </trkpt>
      <trkpt lat="49.39754" lon="5.76695">
        <ele>259.79998779297</ele>
        <time>2023-06-23T08:20:50Z</time>
      </trkpt>
      <trkpt lat="49.39751" lon="5.76698">
        <ele>259.79998779297</ele>
        <time>2023-06-23T08:20:52Z</time>
      </trkpt>
      <trkpt lat="49.39747" lon="5.76702">
        <ele>259.79998779297</ele>
        <time>2023-06-23T08:20:54Z</time>
      </trkpt>
      <trkpt lat="49.39742" lon="5.76707">
        <ele>259.79998779297</ele>
        <time>2023-06-23T08:20:56Z</time>
      </trkpt>
      <trkpt lat="49.39739" lon="5.7671">
        <ele>259.79998779297</ele>
        <time>2023-06-23T08:20:57Z</time>
      </trkpt>
      <trkpt lat="49.39736" lon="5.76714">
        <ele>259.79998779297</ele>
        <time>2023-06-23T08:20:58Z</time>
      </trkpt>
      <trkpt lat="49.39731" lon="5.76722">
        <ele>259.39999389648</ele>
        <time>2023-06-23T08:21:00Z</time>
      </trkpt>
      <trkpt lat="49.39727" lon="5.76731">
        <ele>259.20001220703</ele>
        <time>2023-06-23T08:21:02Z</time>
      </trkpt>
      <trkpt lat="49.39726" lon="5.76735">
        <ele>259</ele>
        <time>2023-06-23T08:21:03Z</time>
      </trkpt>
      <trkpt lat="49.39724" lon="5.7674">
        <ele>259</ele>
        <time>2023-06-23T08:21:04Z</time>
      </trkpt>
      <trkpt lat="49.39722" lon="5.76751">
        <ele>258.79998779297</ele>
        <time>2023-06-23T08:21:06Z</time>
      </trkpt>
      <trkpt lat="49.39719" lon="5.76763">
        <ele>258.60000610352</ele>
        <time>2023-06-23T08:21:08Z</time>
      </trkpt>
      <trkpt lat="49.39717" lon="5.76769">
        <ele>258.39999389648</ele>
        <time>2023-06-23T08:21:09Z</time>
      </trkpt>
      <trkpt lat="49.39715" lon="5.76772">
        <ele>258.39999389648</ele>
        <time>2023-06-23T08:21:10Z</time>
      </trkpt>
      <trkpt lat="49.39711" lon="5.76779">
        <ele>258.20001220703</ele>
        <time>2023-06-23T08:21:12Z</time>
      </trkpt>
      <trkpt lat="49.39709" lon="5.76784">
        <ele>258.20001220703</ele>
        <time>2023-06-23T08:21:13Z</time>
      </trkpt>
      <trkpt lat="49.39707" lon="5.76789">
        <ele>258.20001220703</ele>
        <time>2023-06-23T08:21:14Z</time>
      </trkpt>
      <trkpt lat="49.39706" lon="5.76794">
        <ele>258</ele>
        <time>2023-06-23T08:21:15Z</time>
      </trkpt>
      <trkpt lat="49.39703" lon="5.76799">
        <ele>257.60000610352</ele>
        <time>2023-06-23T08:21:16Z</time>
      </trkpt>
      <trkpt lat="49.39701" lon="5.76805">
        <ele>257.60000610352</ele>
        <time>2023-06-23T08:21:17Z</time>
      </trkpt>
      <trkpt lat="49.39699" lon="5.7681">
        <ele>257.39999389648</ele>
        <time>2023-06-23T08:21:18Z</time>
      </trkpt>
      <trkpt lat="49.39695" lon="5.76822">
        <ele>257.20001220703</ele>
        <time>2023-06-23T08:21:20Z</time>
      </trkpt>
      <trkpt lat="49.3969" lon="5.76832">
        <ele>257.20001220703</ele>
        <time>2023-06-23T08:21:22Z</time>
      </trkpt>
      <trkpt lat="49.39688" lon="5.76837">
        <ele>257.20001220703</ele>
        <time>2023-06-23T08:21:23Z</time>
      </trkpt>
      <trkpt lat="49.39686" lon="5.76841">
        <ele>257</ele>
        <time>2023-06-23T08:21:24Z</time>
      </trkpt>
      <trkpt lat="49.39682" lon="5.76848">
        <ele>257</ele>
        <time>2023-06-23T08:21:26Z</time>
      </trkpt>
      <trkpt lat="49.39678" lon="5.76855">
        <ele>257.20001220703</ele>
        <time>2023-06-23T08:21:28Z</time>
      </trkpt>
      <trkpt lat="49.39674" lon="5.76864">
        <ele>257</ele>
        <time>2023-06-23T08:21:30Z</time>
      </trkpt>
      <trkpt lat="49.3967" lon="5.76869">
        <ele>257</ele>
        <time>2023-06-23T08:21:31Z</time>
      </trkpt>
      <trkpt lat="49.39666" lon="5.76873">
        <ele>257</ele>
        <time>2023-06-23T08:21:32Z</time>
      </trkpt>
      <trkpt lat="49.39658" lon="5.76878">
        <ele>257</ele>
        <time>2023-06-23T08:21:34Z</time>
      </trkpt>
      <trkpt lat="49.39654" lon="5.7688">
        <ele>257</ele>
        <time>2023-06-23T08:21:35Z</time>
      </trkpt>
      <trkpt lat="49.3965" lon="5.76881">
        <ele>256.79998779297</ele>
        <time>2023-06-23T08:21:36Z</time>
      </trkpt>
      <trkpt lat="49.39646" lon="5.76883">
        <ele>256.79998779297</ele>
        <time>2023-06-23T08:21:37Z</time>
      </trkpt>
      <trkpt lat="49.39642" lon="5.76885">
        <ele>256.79998779297</ele>
        <time>2023-06-23T08:21:38Z</time>
      </trkpt>
      <trkpt lat="49.39633" lon="5.76887">
        <ele>256.79998779297</ele>
        <time>2023-06-23T08:21:40Z</time>
      </trkpt>
      <trkpt lat="49.39625" lon="5.76889">
        <ele>256.79998779297</ele>
        <time>2023-06-23T08:21:42Z</time>
      </trkpt>
      <trkpt lat="49.39618" lon="5.7689">
        <ele>256.79998779297</ele>
        <time>2023-06-23T08:21:44Z</time>
      </trkpt>
      <trkpt lat="49.39613" lon="5.76889">
        <ele>256.79998779297</ele>
        <time>2023-06-23T08:21:46Z</time>
      </trkpt>
      <trkpt lat="49.39612" lon="5.76889">
        <ele>256.79998779297</ele>
        <time>2023-06-23T08:21:47Z</time>
      </trkpt>
      <trkpt lat="49.39611" lon="5.76888">
        <ele>256.79998779297</ele>
        <time>2023-06-23T08:21:48Z</time>
      </trkpt>
      <trkpt lat="49.39608" lon="5.76886">
        <ele>257</ele>
        <time>2023-06-23T08:21:50Z</time>
      </trkpt>
      <trkpt lat="49.39606" lon="5.76883">
        <ele>257</ele>
        <time>2023-06-23T08:21:52Z</time>
      </trkpt>
      <trkpt lat="49.39606" lon="5.76882">
        <ele>257.20001220703</ele>
        <time>2023-06-23T08:21:53Z</time>
      </trkpt>
      <trkpt lat="49.39605" lon="5.76881">
        <ele>257.39999389648</ele>
        <time>2023-06-23T08:21:54Z</time>
      </trkpt>
      <trkpt lat="49.39604" lon="5.76879">
        <ele>257.60000610352</ele>
        <time>2023-06-23T08:21:56Z</time>
      </trkpt>
      <trkpt lat="49.39603" lon="5.7688">
        <ele>257.79998779297</ele>
        <time>2023-06-23T08:21:58Z</time>
      </trkpt>
      <trkpt lat="49.39603" lon="5.7688">
        <ele>258</ele>
        <time>2023-06-23T08:22:00Z</time>
      </trkpt>
      <trkpt lat="49.39603" lon="5.7688">
        <ele>258.20001220703</ele>
        <time>2023-06-23T08:22:02Z</time>
      </trkpt>
      <trkpt lat="49.39603" lon="5.7688">
        <ele>258.20001220703</ele>
        <time>2023-06-23T08:22:04Z</time>
      </trkpt>
      <trkpt lat="49.39602" lon="5.7688">
        <ele>258.39999389648</ele>
        <time>2023-06-23T08:22:06Z</time>
      </trkpt>
      <trkpt lat="49.39602" lon="5.7688">
        <ele>258.39999389648</ele>
        <time>2023-06-23T08:22:07Z</time>
      </trkpt>
      <trkpt lat="49.39602" lon="5.76881">
        <ele>258.39999389648</ele>
        <time>2023-06-23T08:22:08Z</time>
      </trkpt>
      <trkpt lat="49.39602" lon="5.76881">
        <ele>258.39999389648</ele>
        <time>2023-06-23T08:22:10Z</time>
      </trkpt>
      <trkpt lat="49.39602" lon="5.76881">
        <ele>258.39999389648</ele>
        <time>2023-06-23T08:22:12Z</time>
      </trkpt>
      <trkpt lat="49.39602" lon="5.76881">
        <ele>258.39999389648</ele>
        <time>2023-06-23T08:22:14Z</time>
      </trkpt>
      <trkpt lat="49.39602" lon="5.76881">
        <ele>258.39999389648</ele>
        <time>2023-06-23T08:22:16Z</time>
      </trkpt>
      <trkpt lat="49.39602" lon="5.76881">
        <ele>258.20001220703</ele>
        <time>2023-06-23T08:22:18Z</time>
      </trkpt>
      <trkpt lat="49.39602" lon="5.76881">
        <ele>258.20001220703</ele>
        <time>2023-06-23T08:22:20Z</time>
      </trkpt>
      <trkpt lat="49.39602" lon="5.76881">
        <ele>258.20001220703</ele>
        <time>2023-06-23T08:22:22Z</time>
      </trkpt>
      <trkpt lat="49.39602" lon="5.76881">
        <ele>258.20001220703</ele>
        <time>2023-06-23T08:22:24Z</time>
      </trkpt>
      <trkpt lat="49.39602" lon="5.76881">
        <ele>258.39999389648</ele>
        <time>2023-06-23T08:22:26Z</time>
      </trkpt>
      <trkpt lat="49.39602" lon="5.76881">
        <ele>258.39999389648</ele>
        <time>2023-06-23T08:22:28Z</time>
      </trkpt>
      <trkpt lat="49.39602" lon="5.76881">
        <ele>258.60000610352</ele>
        <time>2023-06-23T08:22:30Z</time>
      </trkpt>
      <trkpt lat="49.39602" lon="5.76881">
        <ele>258.60000610352</ele>
        <time>2023-06-23T08:22:32Z</time>
      </trkpt>
      <trkpt lat="49.39602" lon="5.76881">
        <ele>258.60000610352</ele>
        <time>2023-06-23T08:22:34Z</time>
      </trkpt>
      <trkpt lat="49.39602" lon="5.76881">
        <ele>258.60000610352</ele>
        <time>2023-06-23T08:22:36Z</time>
      </trkpt>
      <trkpt lat="49.39602" lon="5.76881">
        <ele>258.60000610352</ele>
        <time>2023-06-23T08:22:38Z</time>
      </trkpt>
      <trkpt lat="49.39602" lon="5.76881">
        <ele>258.60000610352</ele>
        <time>2023-06-23T08:22:39Z</time>
      </trkpt>
      <trkpt lat="49.39603" lon="5.76882">
        <ele>258.60000610352</ele>
        <time>2023-06-23T08:22:40Z</time>
      </trkpt>
      <trkpt lat="49.39606" lon="5.76886">
        <ele>258.60000610352</ele>
        <time>2023-06-23T08:22:42Z</time>
      </trkpt>
      <trkpt lat="49.39607" lon="5.76889">
        <ele>258.60000610352</ele>
        <time>2023-06-23T08:22:43Z</time>
      </trkpt>
      <trkpt lat="49.39609" lon="5.76893">
        <ele>258.60000610352</ele>
        <time>2023-06-23T08:22:44Z</time>
      </trkpt>
      <trkpt lat="49.39612" lon="5.76903">
        <ele>258.60000610352</ele>
        <time>2023-06-23T08:22:46Z</time>
      </trkpt>
      <trkpt lat="49.39613" lon="5.76909">
        <ele>258.60000610352</ele>
        <time>2023-06-23T08:22:47Z</time>
      </trkpt>
      <trkpt lat="49.39613" lon="5.76915">
        <ele>258.39999389648</ele>
        <time>2023-06-23T08:22:48Z</time>
      </trkpt>
      <trkpt lat="49.39615" lon="5.76928">
        <ele>258.20001220703</ele>
        <time>2023-06-23T08:22:50Z</time>
      </trkpt>
      <trkpt lat="49.39615" lon="5.7694">
        <ele>257.60000610352</ele>
        <time>2023-06-23T08:22:52Z</time>
      </trkpt>
      <trkpt lat="49.39615" lon="5.7695">
        <ele>257.39999389648</ele>
        <time>2023-06-23T08:22:54Z</time>
      </trkpt>
      <trkpt lat="49.39614" lon="5.76959">
        <ele>257.20001220703</ele>
        <time>2023-06-23T08:22:56Z</time>
      </trkpt>
      <trkpt lat="49.39613" lon="5.76965">
        <ele>257</ele>
        <time>2023-06-23T08:22:58Z</time>
      </trkpt>
      <trkpt lat="49.39613" lon="5.76968">
        <ele>257</ele>
        <time>2023-06-23T08:22:59Z</time>
      </trkpt>
      <trkpt lat="49.39612" lon="5.76971">
        <ele>257</ele>
        <time>2023-06-23T08:23:00Z</time>
      </trkpt>
      <trkpt lat="49.39611" lon="5.76973">
        <ele>257</ele>
        <time>2023-06-23T08:23:01Z</time>
      </trkpt>
      <trkpt lat="49.39609" lon="5.76976">
        <ele>257</ele>
        <time>2023-06-23T08:23:02Z</time>
      </trkpt>
      <trkpt lat="49.39605" lon="5.76981">
        <ele>257.20001220703</ele>
        <time>2023-06-23T08:23:04Z</time>
      </trkpt>
      <trkpt lat="49.39602" lon="5.76983">
        <ele>257.60000610352</ele>
        <time>2023-06-23T08:23:06Z</time>
      </trkpt>
      <trkpt lat="49.39599" lon="5.76985">
        <ele>258</ele>
        <time>2023-06-23T08:23:08Z</time>
      </trkpt>
      <trkpt lat="49.39595" lon="5.76988">
        <ele>258.39999389648</ele>
        <time>2023-06-23T08:23:10Z</time>
      </trkpt>
      <trkpt lat="49.39592" lon="5.76989">
        <ele>258.39999389648</ele>
        <time>2023-06-23T08:23:12Z</time>
      </trkpt>
      <trkpt lat="49.39591" lon="5.7699">
        <ele>258.60000610352</ele>
        <time>2023-06-23T08:23:13Z</time>
      </trkpt>
      <trkpt lat="49.39589" lon="5.76992">
        <ele>258.79998779297</ele>
        <time>2023-06-23T08:23:14Z</time>
      </trkpt>
      <trkpt lat="49.39586" lon="5.76994">
        <ele>259.39999389648</ele>
        <time>2023-06-23T08:23:16Z</time>
      </trkpt>
      <trkpt lat="49.39584" lon="5.76997">
        <ele>260</ele>
        <time>2023-06-23T08:23:18Z</time>
      </trkpt>
      <trkpt lat="49.39581" lon="5.76999">
        <ele>260.39999389648</ele>
        <time>2023-06-23T08:23:20Z</time>
      </trkpt>
      <trkpt lat="49.3958" lon="5.77">
        <ele>260.79998779297</ele>
        <time>2023-06-23T08:23:22Z</time>
      </trkpt>
      <trkpt lat="49.39581" lon="5.77001">
        <ele>261</ele>
        <time>2023-06-23T08:23:23Z</time>
      </trkpt>
      <trkpt lat="49.39581" lon="5.77001">
        <ele>261</ele>
        <time>2023-06-23T08:23:24Z</time>
      </trkpt>
      <trkpt lat="49.3958" lon="5.77003">
        <ele>261.39999389648</ele>
        <time>2023-06-23T08:23:26Z</time>
      </trkpt>
      <trkpt lat="49.39579" lon="5.77003">
        <ele>261.79998779297</ele>
        <time>2023-06-23T08:23:28Z</time>
      </trkpt>
      <trkpt lat="49.39579" lon="5.77004">
        <ele>262</ele>
        <time>2023-06-23T08:23:30Z</time>
      </trkpt>
      <trkpt lat="49.39579" lon="5.77004">
        <ele>262</ele>
        <time>2023-06-23T08:23:32Z</time>
      </trkpt>
      <trkpt lat="49.39581" lon="5.77002">
        <ele>262</ele>
        <time>2023-06-23T08:23:34Z</time>
      </trkpt>
      <trkpt lat="49.39584" lon="5.77">
        <ele>262</ele>
        <time>2023-06-23T08:23:36Z</time>
      </trkpt>
      <trkpt lat="49.39589" lon="5.76995">
        <ele>262</ele>
        <time>2023-06-23T08:23:38Z</time>
      </trkpt>
      <trkpt lat="49.39594" lon="5.7699">
        <ele>262</ele>
        <time>2023-06-23T08:23:40Z</time>
      </trkpt>
      <trkpt lat="49.39599" lon="5.76983">
        <ele>261.79998779297</ele>
        <time>2023-06-23T08:23:42Z</time>
      </trkpt>
      <trkpt lat="49.39604" lon="5.76979">
        <ele>261.60000610352</ele>
        <time>2023-06-23T08:23:43Z</time>
      </trkpt>
      <trkpt lat="49.39608" lon="5.76973">
        <ele>261.39999389648</ele>
        <time>2023-06-23T08:23:44Z</time>
      </trkpt>
      <trkpt lat="49.39612" lon="5.76958">
        <ele>260.60000610352</ele>
        <time>2023-06-23T08:23:46Z</time>
      </trkpt>
      <trkpt lat="49.39612" lon="5.76941">
        <ele>259.79998779297</ele>
        <time>2023-06-23T08:23:48Z</time>
      </trkpt>
      <trkpt lat="49.39612" lon="5.76933">
        <ele>259.39999389648</ele>
        <time>2023-06-23T08:23:49Z</time>
      </trkpt>
      <trkpt lat="49.39609" lon="5.76917">
        <ele>258.79998779297</ele>
        <time>2023-06-23T08:23:50Z</time>
      </trkpt>
      <trkpt lat="49.39609" lon="5.76917">
        <ele>258.79998779297</ele>
        <time>2023-06-23T08:23:51Z</time>
      </trkpt>
      <trkpt lat="49.39608" lon="5.76911">
        <ele>258.39999389648</ele>
        <time>2023-06-23T08:23:52Z</time>
      </trkpt>
      <trkpt lat="49.39607" lon="5.76905">
        <ele>258.20001220703</ele>
        <time>2023-06-23T08:23:53Z</time>
      </trkpt>
      <trkpt lat="49.39606" lon="5.769">
        <ele>258.20001220703</ele>
        <time>2023-06-23T08:23:54Z</time>
      </trkpt>
      <trkpt lat="49.39603" lon="5.76891">
        <ele>258.20001220703</ele>
        <time>2023-06-23T08:23:56Z</time>
      </trkpt>
      <trkpt lat="49.396" lon="5.76885">
        <ele>258</ele>
        <time>2023-06-23T08:23:58Z</time>
      </trkpt>
      <trkpt lat="49.39597" lon="5.76882">
        <ele>258</ele>
        <time>2023-06-23T08:24:00Z</time>
      </trkpt>
      <trkpt lat="49.39596" lon="5.7688">
        <ele>258</ele>
        <time>2023-06-23T08:24:01Z</time>
      </trkpt>
      <trkpt lat="49.39594" lon="5.76877">
        <ele>258</ele>
        <time>2023-06-23T08:24:02Z</time>
      </trkpt>
      <trkpt lat="49.39592" lon="5.76873">
        <ele>258.39999389648</ele>
        <time>2023-06-23T08:24:04Z</time>
      </trkpt>
      <trkpt lat="49.3959" lon="5.76872">
        <ele>258.60000610352</ele>
        <time>2023-06-23T08:24:06Z</time>
      </trkpt>
      <trkpt lat="49.39589" lon="5.76871">
        <ele>258.79998779297</ele>
        <time>2023-06-23T08:24:07Z</time>
      </trkpt>
      <trkpt lat="49.39588" lon="5.76871">
        <ele>259</ele>
        <time>2023-06-23T08:24:08Z</time>
      </trkpt>
      <trkpt lat="49.39585" lon="5.76871">
        <ele>259.20001220703</ele>
        <time>2023-06-23T08:24:10Z</time>
      </trkpt>
      <trkpt lat="49.39584" lon="5.7687">
        <ele>259.39999389648</ele>
        <time>2023-06-23T08:24:11Z</time>
      </trkpt>
      <trkpt lat="49.39583" lon="5.7687">
        <ele>259.39999389648</ele>
        <time>2023-06-23T08:24:12Z</time>
      </trkpt>
      <trkpt lat="49.39581" lon="5.7687">
        <ele>259.60000610352</ele>
        <time>2023-06-23T08:24:14Z</time>
      </trkpt>
      <trkpt lat="49.39579" lon="5.7687">
        <ele>260</ele>
        <time>2023-06-23T08:24:16Z</time>
      </trkpt>
      <trkpt lat="49.39578" lon="5.7687">
        <ele>260.20001220703</ele>
        <time>2023-06-23T08:24:18Z</time>
      </trkpt>
      <trkpt lat="49.39577" lon="5.7687">
        <ele>260.39999389648</ele>
        <time>2023-06-23T08:24:20Z</time>
      </trkpt>
      <trkpt lat="49.39577" lon="5.7687">
        <ele>260.60000610352</ele>
        <time>2023-06-23T08:24:22Z</time>
      </trkpt>
      <trkpt lat="49.39577" lon="5.7687">
        <ele>260.79998779297</ele>
        <time>2023-06-23T08:24:24Z</time>
      </trkpt>
      <trkpt lat="49.39577" lon="5.7687">
        <ele>261</ele>
        <time>2023-06-23T08:24:26Z</time>
      </trkpt>
      <trkpt lat="49.39577" lon="5.7687">
        <ele>261</ele>
        <time>2023-06-23T08:24:28Z</time>
      </trkpt>
      <trkpt lat="49.39577" lon="5.7687">
        <ele>261</ele>
        <time>2023-06-23T08:24:30Z</time>
      </trkpt>
      <trkpt lat="49.39577" lon="5.7687">
        <ele>261.20001220703</ele>
        <time>2023-06-23T08:24:32Z</time>
      </trkpt>
      <trkpt lat="49.39577" lon="5.7687">
        <ele>261.20001220703</ele>
        <time>2023-06-23T08:24:34Z</time>
      </trkpt>
      <trkpt lat="49.39577" lon="5.7687">
        <ele>261.20001220703</ele>
        <time>2023-06-23T08:24:36Z</time>
      </trkpt>
      <trkpt lat="49.39577" lon="5.7687">
        <ele>261.20001220703</ele>
        <time>2023-06-23T08:24:38Z</time>
      </trkpt>
      <trkpt lat="49.39577" lon="5.7687">
        <ele>261.20001220703</ele>
        <time>2023-06-23T08:24:40Z</time>
      </trkpt>
      <trkpt lat="49.39577" lon="5.7687">
        <ele>261.20001220703</ele>
        <time>2023-06-23T08:24:42Z</time>
      </trkpt>
      <trkpt lat="49.39577" lon="5.7687">
        <ele>261.20001220703</ele>
        <time>2023-06-23T08:24:44Z</time>
      </trkpt>
      <trkpt lat="49.39577" lon="5.7687">
        <ele>261.20001220703</ele>
        <time>2023-06-23T08:24:46Z</time>
      </trkpt>
      <trkpt lat="49.39577" lon="5.7687">
        <ele>261.20001220703</ele>
        <time>2023-06-23T08:24:48Z</time>
      </trkpt>
      <trkpt lat="49.39577" lon="5.7687">
        <ele>261.20001220703</ele>
        <time>2023-06-23T08:24:50Z</time>
      </trkpt>
      <trkpt lat="49.39577" lon="5.7687">
        <ele>261.20001220703</ele>
        <time>2023-06-23T08:24:51Z</time>
      </trkpt>
      <trkpt lat="49.39577" lon="5.7687">
        <ele>261.20001220703</ele>
        <time>2023-06-23T08:24:52Z</time>
      </trkpt>
      <trkpt lat="49.39577" lon="5.7687">
        <ele>261.20001220703</ele>
        <time>2023-06-23T08:24:54Z</time>
      </trkpt>
      <trkpt lat="49.39577" lon="5.76869">
        <ele>261</ele>
        <time>2023-06-23T08:24:56Z</time>
      </trkpt>
      <trkpt lat="49.39577" lon="5.76869">
        <ele>261</ele>
        <time>2023-06-23T08:24:58Z</time>
      </trkpt>
      <trkpt lat="49.39577" lon="5.76869">
        <ele>261</ele>
        <time>2023-06-23T08:25:00Z</time>
      </trkpt>
      <trkpt lat="49.39577" lon="5.76869">
        <ele>261</ele>
        <time>2023-06-23T08:25:02Z</time>
      </trkpt>
      <trkpt lat="49.39577" lon="5.76869">
        <ele>261</ele>
        <time>2023-06-23T08:25:04Z</time>
      </trkpt>
      <trkpt lat="49.39577" lon="5.76869">
        <ele>261</ele>
        <time>2023-06-23T08:25:06Z</time>
      </trkpt>
      <trkpt lat="49.39576" lon="5.76869">
        <ele>261</ele>
        <time>2023-06-23T08:25:08Z</time>
      </trkpt>
      <trkpt lat="49.39576" lon="5.76869">
        <ele>261</ele>
        <time>2023-06-23T08:25:09Z</time>
      </trkpt>
      <trkpt lat="49.39576" lon="5.76869">
        <ele>260.79998779297</ele>
        <time>2023-06-23T08:25:10Z</time>
      </trkpt>
      <trkpt lat="49.39576" lon="5.76868">
        <ele>260.79998779297</ele>
        <time>2023-06-23T08:25:12Z</time>
      </trkpt>
      <trkpt lat="49.39576" lon="5.76868">
        <ele>261</ele>
        <time>2023-06-23T08:25:14Z</time>
      </trkpt>
      <trkpt lat="49.39576" lon="5.76868">
        <ele>261</ele>
        <time>2023-06-23T08:25:16Z</time>
      </trkpt>
      <trkpt lat="49.39576" lon="5.76868">
        <ele>260.79998779297</ele>
        <time>2023-06-23T08:25:18Z</time>
      </trkpt>
      <trkpt lat="49.39576" lon="5.76868">
        <ele>260.79998779297</ele>
        <time>2023-06-23T08:25:20Z</time>
      </trkpt>
      <trkpt lat="49.39575" lon="5.76867">
        <ele>260.79998779297</ele>
        <time>2023-06-23T08:25:22Z</time>
      </trkpt>
      <trkpt lat="49.39576" lon="5.76867">
        <ele>260.79998779297</ele>
        <time>2023-06-23T08:25:24Z</time>
      </trkpt>
      <trkpt lat="49.39577" lon="5.76868">
        <ele>260.79998779297</ele>
        <time>2023-06-23T08:25:26Z</time>
      </trkpt>
      <trkpt lat="49.39579" lon="5.76867">
        <ele>260.79998779297</ele>
        <time>2023-06-23T08:25:27Z</time>
      </trkpt>
      <trkpt lat="49.39581" lon="5.76867">
        <ele>260.79998779297</ele>
        <time>2023-06-23T08:25:28Z</time>
      </trkpt>
      <trkpt lat="49.39586" lon="5.76868">
        <ele>260.60000610352</ele>
        <time>2023-06-23T08:25:30Z</time>
      </trkpt>
      <trkpt lat="49.39593" lon="5.76873">
        <ele>260.60000610352</ele>
        <time>2023-06-23T08:25:32Z</time>
      </trkpt>
      <trkpt lat="49.39599" lon="5.76882">
        <ele>260.60000610352</ele>
        <time>2023-06-23T08:25:34Z</time>
      </trkpt>
      <trkpt lat="49.39605" lon="5.76887">
        <ele>260.20001220703</ele>
        <time>2023-06-23T08:25:36Z</time>
      </trkpt>
      <trkpt lat="49.39609" lon="5.76888">
        <ele>259.79998779297</ele>
        <time>2023-06-23T08:25:38Z</time>
      </trkpt>
      <trkpt lat="49.39614" lon="5.76888">
        <ele>259</ele>
        <time>2023-06-23T08:25:40Z</time>
      </trkpt>
      <trkpt lat="49.39616" lon="5.76888">
        <ele>258.39999389648</ele>
        <time>2023-06-23T08:25:41Z</time>
      </trkpt>
      <trkpt lat="49.39619" lon="5.76887">
        <ele>258</ele>
        <time>2023-06-23T08:25:42Z</time>
      </trkpt>
      <trkpt lat="49.39622" lon="5.76887">
        <ele>257.79998779297</ele>
        <time>2023-06-23T08:25:43Z</time>
      </trkpt>
      <trkpt lat="49.39625" lon="5.76887">
        <ele>257.79998779297</ele>
        <time>2023-06-23T08:25:44Z</time>
      </trkpt>
      <trkpt lat="49.3963" lon="5.76887">
        <ele>257.60000610352</ele>
        <time>2023-06-23T08:25:46Z</time>
      </trkpt>
      <trkpt lat="49.39632" lon="5.76886">
        <ele>257.60000610352</ele>
        <time>2023-06-23T08:25:47Z</time>
      </trkpt>
      <trkpt lat="49.39635" lon="5.76886">
        <ele>257.60000610352</ele>
        <time>2023-06-23T08:25:48Z</time>
      </trkpt>
      <trkpt lat="49.3964" lon="5.76884">
        <ele>257.39999389648</ele>
        <time>2023-06-23T08:25:50Z</time>
      </trkpt>
      <trkpt lat="49.39646" lon="5.76883">
        <ele>257.20001220703</ele>
        <time>2023-06-23T08:25:52Z</time>
      </trkpt>
      <trkpt lat="49.39652" lon="5.76881">
        <ele>257.20001220703</ele>
        <time>2023-06-23T08:25:54Z</time>
      </trkpt>
      <trkpt lat="49.39655" lon="5.7688">
        <ele>257.20001220703</ele>
        <time>2023-06-23T08:25:55Z</time>
      </trkpt>
      <trkpt lat="49.39658" lon="5.76879">
        <ele>257.20001220703</ele>
        <time>2023-06-23T08:25:56Z</time>
      </trkpt>
      <trkpt lat="49.39663" lon="5.76875">
        <ele>257.20001220703</ele>
        <time>2023-06-23T08:25:58Z</time>
      </trkpt>
      <trkpt lat="49.39668" lon="5.7687">
        <ele>257.20001220703</ele>
        <time>2023-06-23T08:26:00Z</time>
      </trkpt>
      <trkpt lat="49.39669" lon="5.76868">
        <ele>257.20001220703</ele>
        <time>2023-06-23T08:26:01Z</time>
      </trkpt>
      <trkpt lat="49.39671" lon="5.76866">
        <ele>257.20001220703</ele>
        <time>2023-06-23T08:26:02Z</time>
      </trkpt>
      <trkpt lat="49.39672" lon="5.76862">
        <ele>257.20001220703</ele>
        <time>2023-06-23T08:26:04Z</time>
      </trkpt>
      <trkpt lat="49.39674" lon="5.76859">
        <ele>257.39999389648</ele>
        <time>2023-06-23T08:26:06Z</time>
      </trkpt>
      <trkpt lat="49.39674" lon="5.76859">
        <ele>257.39999389648</ele>
        <time>2023-06-23T08:26:07Z</time>
      </trkpt>
      <trkpt lat="49.39674" lon="5.76859">
        <ele>257.60000610352</ele>
        <time>2023-06-23T08:26:08Z</time>
      </trkpt>
      <trkpt lat="49.39674" lon="5.76858">
        <ele>258</ele>
        <time>2023-06-23T08:26:10Z</time>
      </trkpt>
      <trkpt lat="49.39675" lon="5.76858">
        <ele>258.20001220703</ele>
        <time>2023-06-23T08:26:12Z</time>
      </trkpt>
      <trkpt lat="49.39675" lon="5.76858">
        <ele>258.39999389648</ele>
        <time>2023-06-23T08:26:14Z</time>
      </trkpt>
      <trkpt lat="49.39675" lon="5.76857">
        <ele>258.39999389648</ele>
        <time>2023-06-23T08:26:16Z</time>
      </trkpt>
      <trkpt lat="49.39675" lon="5.76856">
        <ele>258.39999389648</ele>
        <time>2023-06-23T08:26:18Z</time>
      </trkpt>
      <trkpt lat="49.39675" lon="5.76856">
        <ele>258.39999389648</ele>
        <time>2023-06-23T08:26:19Z</time>
      </trkpt>
      <trkpt lat="49.39675" lon="5.76855">
        <ele>258.39999389648</ele>
        <time>2023-06-23T08:26:20Z</time>
      </trkpt>
      <trkpt lat="49.39675" lon="5.76855">
        <ele>258.39999389648</ele>
        <time>2023-06-23T08:26:22Z</time>
      </trkpt>
      <trkpt lat="49.39675" lon="5.76855">
        <ele>258.39999389648</ele>
        <time>2023-06-23T08:26:24Z</time>
      </trkpt>
      <trkpt lat="49.39676" lon="5.76855">
        <ele>258.39999389648</ele>
        <time>2023-06-23T08:26:26Z</time>
      </trkpt>
      <trkpt lat="49.39678" lon="5.76853">
        <ele>258.39999389648</ele>
        <time>2023-06-23T08:26:28Z</time>
      </trkpt>
      <trkpt lat="49.3968" lon="5.76851">
        <ele>258.39999389648</ele>
        <time>2023-06-23T08:26:29Z</time>
      </trkpt>
      <trkpt lat="49.39681" lon="5.76848">
        <ele>258.20001220703</ele>
        <time>2023-06-23T08:26:30Z</time>
      </trkpt>
      <trkpt lat="49.39685" lon="5.76842">
        <ele>258.20001220703</ele>
        <time>2023-06-23T08:26:32Z</time>
      </trkpt>
      <trkpt lat="49.39689" lon="5.76835">
        <ele>258.20001220703</ele>
        <time>2023-06-23T08:26:34Z</time>
      </trkpt>
      <trkpt lat="49.39693" lon="5.76828">
        <ele>258.20001220703</ele>
        <time>2023-06-23T08:26:36Z</time>
      </trkpt>
      <trkpt lat="49.39697" lon="5.7682">
        <ele>258.20001220703</ele>
        <time>2023-06-23T08:26:38Z</time>
      </trkpt>
      <trkpt lat="49.397" lon="5.76812">
        <ele>258.20001220703</ele>
        <time>2023-06-23T08:26:40Z</time>
      </trkpt>
      <trkpt lat="49.39704" lon="5.76805">
        <ele>258.20001220703</ele>
        <time>2023-06-23T08:26:42Z</time>
      </trkpt>
      <trkpt lat="49.39707" lon="5.76799">
        <ele>258.20001220703</ele>
        <time>2023-06-23T08:26:44Z</time>
      </trkpt>
      <trkpt lat="49.39708" lon="5.76796">
        <ele>258.20001220703</ele>
        <time>2023-06-23T08:26:45Z</time>
      </trkpt>
      <trkpt lat="49.3971" lon="5.76793">
        <ele>258.20001220703</ele>
        <time>2023-06-23T08:26:46Z</time>
      </trkpt>
      <trkpt lat="49.39713" lon="5.76786">
        <ele>258.20001220703</ele>
        <time>2023-06-23T08:26:48Z</time>
      </trkpt>
      <trkpt lat="49.39716" lon="5.76777">
        <ele>258.20001220703</ele>
        <time>2023-06-23T08:26:50Z</time>
      </trkpt>
      <trkpt lat="49.39716" lon="5.76768">
        <ele>258.20001220703</ele>
        <time>2023-06-23T08:26:52Z</time>
      </trkpt>
      <trkpt lat="49.39719" lon="5.76759">
        <ele>258.39999389648</ele>
        <time>2023-06-23T08:26:54Z</time>
      </trkpt>
      <trkpt lat="49.39722" lon="5.7675">
        <ele>258.39999389648</ele>
        <time>2023-06-23T08:26:56Z</time>
      </trkpt>
      <trkpt lat="49.39725" lon="5.76741">
        <ele>258.60000610352</ele>
        <time>2023-06-23T08:26:58Z</time>
      </trkpt>
      <trkpt lat="49.3973" lon="5.76733">
        <ele>258.60000610352</ele>
        <time>2023-06-23T08:27:00Z</time>
      </trkpt>
      <trkpt lat="49.39734" lon="5.76726">
        <ele>258.60000610352</ele>
        <time>2023-06-23T08:27:02Z</time>
      </trkpt>
      <trkpt lat="49.39739" lon="5.7672">
        <ele>258.79998779297</ele>
        <time>2023-06-23T08:27:04Z</time>
      </trkpt>
      <trkpt lat="49.39744" lon="5.76713">
        <ele>258.79998779297</ele>
        <time>2023-06-23T08:27:06Z</time>
      </trkpt>
      <trkpt lat="49.39746" lon="5.76711">
        <ele>259</ele>
        <time>2023-06-23T08:27:07Z</time>
      </trkpt>
      <trkpt lat="49.39748" lon="5.76708">
        <ele>259</ele>
        <time>2023-06-23T08:27:08Z</time>
      </trkpt>
      <trkpt lat="49.39753" lon="5.76703">
        <ele>259.20001220703</ele>
        <time>2023-06-23T08:27:10Z</time>
      </trkpt>
      <trkpt lat="49.39759" lon="5.76697">
        <ele>259</ele>
        <time>2023-06-23T08:27:12Z</time>
      </trkpt>
      <trkpt lat="49.39764" lon="5.76692">
        <ele>259.20001220703</ele>
        <time>2023-06-23T08:27:14Z</time>
      </trkpt>
      <trkpt lat="49.39768" lon="5.76687">
        <ele>259.60000610352</ele>
        <time>2023-06-23T08:27:16Z</time>
      </trkpt>
      <trkpt lat="49.39771" lon="5.76684">
        <ele>259.79998779297</ele>
        <time>2023-06-23T08:27:17Z</time>
      </trkpt>
      <trkpt lat="49.39773" lon="5.76683">
        <ele>259.79998779297</ele>
        <time>2023-06-23T08:27:18Z</time>
      </trkpt>
      <trkpt lat="49.39776" lon="5.76678">
        <ele>260</ele>
        <time>2023-06-23T08:27:20Z</time>
      </trkpt>
      <trkpt lat="49.39776" lon="5.76676">
        <ele>260</ele>
        <time>2023-06-23T08:27:21Z</time>
      </trkpt>
      <trkpt lat="49.39777" lon="5.76675">
        <ele>260</ele>
        <time>2023-06-23T08:27:22Z</time>
      </trkpt>
      <trkpt lat="49.39778" lon="5.76674">
        <ele>260</ele>
        <time>2023-06-23T08:27:24Z</time>
      </trkpt>
      <trkpt lat="49.39778" lon="5.76674">
        <ele>260.39999389648</ele>
        <time>2023-06-23T08:27:26Z</time>
      </trkpt>
      <trkpt lat="49.39779" lon="5.76674">
        <ele>260.60000610352</ele>
        <time>2023-06-23T08:27:28Z</time>
      </trkpt>
      <trkpt lat="49.3978" lon="5.76674">
        <ele>260.60000610352</ele>
        <time>2023-06-23T08:27:30Z</time>
      </trkpt>
      <trkpt lat="49.39781" lon="5.76677">
        <ele>260.60000610352</ele>
        <time>2023-06-23T08:27:32Z</time>
      </trkpt>
      <trkpt lat="49.3978" lon="5.7668">
        <ele>260.60000610352</ele>
        <time>2023-06-23T08:27:34Z</time>
      </trkpt>
      <trkpt lat="49.3978" lon="5.76681">
        <ele>260.60000610352</ele>
        <time>2023-06-23T08:27:35Z</time>
      </trkpt>
      <trkpt lat="49.39779" lon="5.76683">
        <ele>260.60000610352</ele>
        <time>2023-06-23T08:27:36Z</time>
      </trkpt>
      <trkpt lat="49.39781" lon="5.76687">
        <ele>260.60000610352</ele>
        <time>2023-06-23T08:27:38Z</time>
      </trkpt>
      <trkpt lat="49.39784" lon="5.76691">
        <ele>260</ele>
        <time>2023-06-23T08:27:40Z</time>
      </trkpt>
      <trkpt lat="49.39787" lon="5.76699">
        <ele>259.20001220703</ele>
        <time>2023-06-23T08:27:42Z</time>
      </trkpt>
      <trkpt lat="49.3979" lon="5.76707">
        <ele>258.60000610352</ele>
        <time>2023-06-23T08:27:44Z</time>
      </trkpt>
      <trkpt lat="49.39792" lon="5.76717">
        <ele>258.20001220703</ele>
        <time>2023-06-23T08:27:46Z</time>
      </trkpt>
      <trkpt lat="49.39796" lon="5.76726">
        <ele>258</ele>
        <time>2023-06-23T08:27:48Z</time>
      </trkpt>
      <trkpt lat="49.39798" lon="5.76736">
        <ele>257.79998779297</ele>
        <time>2023-06-23T08:27:50Z</time>
      </trkpt>
      <trkpt lat="49.39799" lon="5.7674">
        <ele>257.60000610352</ele>
        <time>2023-06-23T08:27:51Z</time>
      </trkpt>
      <trkpt lat="49.39801" lon="5.76744">
        <ele>257.60000610352</ele>
        <time>2023-06-23T08:27:52Z</time>
      </trkpt>
      <trkpt lat="49.39804" lon="5.76752">
        <ele>257.60000610352</ele>
        <time>2023-06-23T08:27:54Z</time>
      </trkpt>
      <trkpt lat="49.39805" lon="5.76756">
        <ele>257.60000610352</ele>
        <time>2023-06-23T08:27:55Z</time>
      </trkpt>
      <trkpt lat="49.39806" lon="5.76761">
        <ele>257.60000610352</ele>
        <time>2023-06-23T08:27:56Z</time>
      </trkpt>
      <trkpt lat="49.39807" lon="5.76766">
        <ele>257.39999389648</ele>
        <time>2023-06-23T08:27:57Z</time>
      </trkpt>
      <trkpt lat="49.39808" lon="5.76771">
        <ele>257.39999389648</ele>
        <time>2023-06-23T08:27:58Z</time>
      </trkpt>
      <trkpt lat="49.39811" lon="5.76782">
        <ele>257.20001220703</ele>
        <time>2023-06-23T08:28:00Z</time>
      </trkpt>
      <trkpt lat="49.39813" lon="5.76792">
        <ele>257.20001220703</ele>
        <time>2023-06-23T08:28:02Z</time>
      </trkpt>
      <trkpt lat="49.39816" lon="5.76799">
        <ele>257.20001220703</ele>
        <time>2023-06-23T08:28:04Z</time>
      </trkpt>
      <trkpt lat="49.39819" lon="5.76808">
        <ele>257.20001220703</ele>
        <time>2023-06-23T08:28:06Z</time>
      </trkpt>
      <trkpt lat="49.3982" lon="5.76811">
        <ele>257.20001220703</ele>
        <time>2023-06-23T08:28:08Z</time>
      </trkpt>
      <trkpt lat="49.3982" lon="5.7681">
        <ele>257.20001220703</ele>
        <time>2023-06-23T08:28:09Z</time>
      </trkpt>
      <trkpt lat="49.3982" lon="5.76811">
        <ele>257.20001220703</ele>
        <time>2023-06-23T08:28:10Z</time>
      </trkpt>
      <trkpt lat="49.39821" lon="5.76812">
        <ele>257</ele>
        <time>2023-06-23T08:28:12Z</time>
      </trkpt>
      <trkpt lat="49.39822" lon="5.76814">
        <ele>257</ele>
        <time>2023-06-23T08:28:14Z</time>
      </trkpt>
      <trkpt lat="49.39823" lon="5.76817">
        <ele>257</ele>
        <time>2023-06-23T08:28:16Z</time>
      </trkpt>
      <trkpt lat="49.39823" lon="5.76817">
        <ele>257</ele>
        <time>2023-06-23T08:28:17Z</time>
      </trkpt>
      <trkpt lat="49.39823" lon="5.76818">
        <ele>257</ele>
        <time>2023-06-23T08:28:18Z</time>
      </trkpt>
      <trkpt lat="49.39823" lon="5.76818">
        <ele>257</ele>
        <time>2023-06-23T08:28:20Z</time>
      </trkpt>
      <trkpt lat="49.39823" lon="5.76819">
        <ele>257</ele>
        <time>2023-06-23T08:28:22Z</time>
      </trkpt>
      <trkpt lat="49.39823" lon="5.76821">
        <ele>257</ele>
        <time>2023-06-23T08:28:24Z</time>
      </trkpt>
      <trkpt lat="49.39823" lon="5.76822">
        <ele>257</ele>
        <time>2023-06-23T08:28:26Z</time>
      </trkpt>
      <trkpt lat="49.39823" lon="5.76823">
        <ele>257</ele>
        <time>2023-06-23T08:28:28Z</time>
      </trkpt>
      <trkpt lat="49.39824" lon="5.76825">
        <ele>257</ele>
        <time>2023-06-23T08:28:30Z</time>
      </trkpt>
      <trkpt lat="49.39826" lon="5.76826">
        <ele>257</ele>
        <time>2023-06-23T08:28:32Z</time>
      </trkpt>
      <trkpt lat="49.39828" lon="5.76826">
        <ele>257</ele>
        <time>2023-06-23T08:28:34Z</time>
      </trkpt>
      <trkpt lat="49.39829" lon="5.76827">
        <ele>257</ele>
        <time>2023-06-23T08:28:35Z</time>
      </trkpt>
      <trkpt lat="49.3983" lon="5.76828">
        <ele>257</ele>
        <time>2023-06-23T08:28:36Z</time>
      </trkpt>
      <trkpt lat="49.39832" lon="5.7683">
        <ele>257</ele>
        <time>2023-06-23T08:28:38Z</time>
      </trkpt>
      <trkpt lat="49.39832" lon="5.76832">
        <ele>257</ele>
        <time>2023-06-23T08:28:40Z</time>
      </trkpt>
      <trkpt lat="49.39832" lon="5.76835">
        <ele>257.20001220703</ele>
        <time>2023-06-23T08:28:42Z</time>
      </trkpt>
      <trkpt lat="49.39832" lon="5.76837">
        <ele>257.39999389648</ele>
        <time>2023-06-23T08:28:43Z</time>
      </trkpt>
      <trkpt lat="49.39832" lon="5.76839">
        <ele>257.60000610352</ele>
        <time>2023-06-23T08:28:44Z</time>
      </trkpt>
      <trkpt lat="49.39832" lon="5.76842">
        <ele>258.39999389648</ele>
        <time>2023-06-23T08:28:46Z</time>
      </trkpt>
      <trkpt lat="49.39832" lon="5.76844">
        <ele>258.79998779297</ele>
        <time>2023-06-23T08:28:47Z</time>
      </trkpt>
      <trkpt lat="49.39832" lon="5.76846">
        <ele>259.20001220703</ele>
        <time>2023-06-23T08:28:48Z</time>
      </trkpt>
      <trkpt lat="49.39832" lon="5.76849">
        <ele>260.20001220703</ele>
        <time>2023-06-23T08:28:50Z</time>
      </trkpt>
      <trkpt lat="49.39832" lon="5.76853">
        <ele>261</ele>
        <time>2023-06-23T08:28:52Z</time>
      </trkpt>
      <trkpt lat="49.39832" lon="5.76855">
        <ele>261.39999389648</ele>
        <time>2023-06-23T08:28:53Z</time>
      </trkpt>
      <trkpt lat="49.39831" lon="5.76856">
        <ele>261.60000610352</ele>
        <time>2023-06-23T08:28:54Z</time>
      </trkpt>
      <trkpt lat="49.39831" lon="5.7686">
        <ele>261.79998779297</ele>
        <time>2023-06-23T08:28:56Z</time>
      </trkpt>
      <trkpt lat="49.3983" lon="5.76865">
        <ele>262.20001220703</ele>
        <time>2023-06-23T08:28:58Z</time>
      </trkpt>
      <trkpt lat="49.3983" lon="5.76867">
        <ele>262.60000610352</ele>
        <time>2023-06-23T08:28:59Z</time>
      </trkpt>
      <trkpt lat="49.39829" lon="5.7687">
        <ele>262.60000610352</ele>
        <time>2023-06-23T08:29:00Z</time>
      </trkpt>
      <trkpt lat="49.39829" lon="5.76875">
        <ele>262.79998779297</ele>
        <time>2023-06-23T08:29:02Z</time>
      </trkpt>
      <trkpt lat="49.39829" lon="5.76879">
        <ele>263.20001220703</ele>
        <time>2023-06-23T08:29:04Z</time>
      </trkpt>
      <trkpt lat="49.3983" lon="5.76883">
        <ele>263.60000610352</ele>
        <time>2023-06-23T08:29:06Z</time>
      </trkpt>
      <trkpt lat="49.3983" lon="5.76887">
        <ele>264.60000610352</ele>
        <time>2023-06-23T08:29:08Z</time>
      </trkpt>
      <trkpt lat="49.3983" lon="5.7689">
        <ele>264.79998779297</ele>
        <time>2023-06-23T08:29:09Z</time>
      </trkpt>
      <trkpt lat="49.3983" lon="5.76892">
        <ele>265</ele>
        <time>2023-06-23T08:29:10Z</time>
      </trkpt>
      <trkpt lat="49.39831" lon="5.76896">
        <ele>265.39999389648</ele>
        <time>2023-06-23T08:29:12Z</time>
      </trkpt>
      <trkpt lat="49.39831" lon="5.769">
        <ele>265.60000610352</ele>
        <time>2023-06-23T08:29:14Z</time>
      </trkpt>
      <trkpt lat="49.39831" lon="5.76904">
        <ele>266</ele>
        <time>2023-06-23T08:29:16Z</time>
      </trkpt>
      <trkpt lat="49.39831" lon="5.76907">
        <ele>266.39999389648</ele>
        <time>2023-06-23T08:29:18Z</time>
      </trkpt>
      <trkpt lat="49.39831" lon="5.7691">
        <ele>267</ele>
        <time>2023-06-23T08:29:20Z</time>
      </trkpt>
      <trkpt lat="49.39831" lon="5.76912">
        <ele>267.20001220703</ele>
        <time>2023-06-23T08:29:21Z</time>
      </trkpt>
      <trkpt lat="49.39831" lon="5.76915">
        <ele>267.39999389648</ele>
        <time>2023-06-23T08:29:22Z</time>
      </trkpt>
      <trkpt lat="49.39831" lon="5.76919">
        <ele>268.20001220703</ele>
        <time>2023-06-23T08:29:24Z</time>
      </trkpt>
      <trkpt lat="49.39831" lon="5.7692">
        <ele>268.39999389648</ele>
        <time>2023-06-23T08:29:25Z</time>
      </trkpt>
      <trkpt lat="49.39831" lon="5.76922">
        <ele>268.60000610352</ele>
        <time>2023-06-23T08:29:26Z</time>
      </trkpt>
      <trkpt lat="49.39832" lon="5.76926">
        <ele>269</ele>
        <time>2023-06-23T08:29:28Z</time>
      </trkpt>
      <trkpt lat="49.39832" lon="5.76929">
        <ele>269.39999389648</ele>
        <time>2023-06-23T08:29:30Z</time>
      </trkpt>
      <trkpt lat="49.39832" lon="5.7693">
        <ele>269.60000610352</ele>
        <time>2023-06-23T08:29:31Z</time>
      </trkpt>
      <trkpt lat="49.39831" lon="5.76932">
        <ele>269.79998779297</ele>
        <time>2023-06-23T08:29:32Z</time>
      </trkpt>
      <trkpt lat="49.3983" lon="5.76937">
        <ele>270.79998779297</ele>
        <time>2023-06-23T08:29:34Z</time>
      </trkpt>
      <trkpt lat="49.39829" lon="5.76938">
        <ele>271</ele>
        <time>2023-06-23T08:29:35Z</time>
      </trkpt>
      <trkpt lat="49.39829" lon="5.7694">
        <ele>271</ele>
        <time>2023-06-23T08:29:36Z</time>
      </trkpt>
      <trkpt lat="49.39828" lon="5.76944">
        <ele>271.39999389648</ele>
        <time>2023-06-23T08:29:38Z</time>
      </trkpt>
      <trkpt lat="49.39828" lon="5.76947">
        <ele>272</ele>
        <time>2023-06-23T08:29:40Z</time>
      </trkpt>
      <trkpt lat="49.39827" lon="5.7695">
        <ele>272.39999389648</ele>
        <time>2023-06-23T08:29:42Z</time>
      </trkpt>
      <trkpt lat="49.39826" lon="5.76953">
        <ele>272.79998779297</ele>
        <time>2023-06-23T08:29:44Z</time>
      </trkpt>
      <trkpt lat="49.39826" lon="5.76954">
        <ele>273</ele>
        <time>2023-06-23T08:29:45Z</time>
      </trkpt>
      <trkpt lat="49.39826" lon="5.76955">
        <ele>273.20001220703</ele>
        <time>2023-06-23T08:29:46Z</time>
      </trkpt>
      <trkpt lat="49.39825" lon="5.76959">
        <ele>273.60000610352</ele>
        <time>2023-06-23T08:29:48Z</time>
      </trkpt>
      <trkpt lat="49.39824" lon="5.76962">
        <ele>274</ele>
        <time>2023-06-23T08:29:50Z</time>
      </trkpt>
      <trkpt lat="49.39824" lon="5.76963">
        <ele>274.20001220703</ele>
        <time>2023-06-23T08:29:51Z</time>
      </trkpt>
      <trkpt lat="49.39823" lon="5.76964">
        <ele>274.39999389648</ele>
        <time>2023-06-23T08:29:52Z</time>
      </trkpt>
      <trkpt lat="49.39822" lon="5.76967">
        <ele>275</ele>
        <time>2023-06-23T08:29:54Z</time>
      </trkpt>
      <trkpt lat="49.3982" lon="5.76971">
        <ele>275.39999389648</ele>
        <time>2023-06-23T08:29:56Z</time>
      </trkpt>
      <trkpt lat="49.39819" lon="5.76972">
        <ele>275.60000610352</ele>
        <time>2023-06-23T08:29:57Z</time>
      </trkpt>
      <trkpt lat="49.39817" lon="5.76974">
        <ele>275.79998779297</ele>
        <time>2023-06-23T08:29:58Z</time>
      </trkpt>
      <trkpt lat="49.39815" lon="5.76978">
        <ele>276.39999389648</ele>
        <time>2023-06-23T08:30:00Z</time>
      </trkpt>
      <trkpt lat="49.39812" lon="5.76981">
        <ele>276.79998779297</ele>
        <time>2023-06-23T08:30:02Z</time>
      </trkpt>
      <trkpt lat="49.39809" lon="5.76982">
        <ele>277</ele>
        <time>2023-06-23T08:30:04Z</time>
      </trkpt>
      <trkpt lat="49.39807" lon="5.76983">
        <ele>277.20001220703</ele>
        <time>2023-06-23T08:30:06Z</time>
      </trkpt>
      <trkpt lat="49.39806" lon="5.76984">
        <ele>277.39999389648</ele>
        <time>2023-06-23T08:30:07Z</time>
      </trkpt>
      <trkpt lat="49.39805" lon="5.76985">
        <ele>277.79998779297</ele>
        <time>2023-06-23T08:30:08Z</time>
      </trkpt>
      <trkpt lat="49.39804" lon="5.76986">
        <ele>278.39999389648</ele>
        <time>2023-06-23T08:30:10Z</time>
      </trkpt>
      <trkpt lat="49.39803" lon="5.76986">
        <ele>278.60000610352</ele>
        <time>2023-06-23T08:30:11Z</time>
      </trkpt>
      <trkpt lat="49.39802" lon="5.76987">
        <ele>279</ele>
        <time>2023-06-23T08:30:12Z</time>
      </trkpt>
      <trkpt lat="49.39799" lon="5.7699">
        <ele>279.79998779297</ele>
        <time>2023-06-23T08:30:14Z</time>
      </trkpt>
      <trkpt lat="49.39798" lon="5.76991">
        <ele>280</ele>
        <time>2023-06-23T08:30:15Z</time>
      </trkpt>
      <trkpt lat="49.39796" lon="5.76991">
        <ele>280</ele>
        <time>2023-06-23T08:30:16Z</time>
      </trkpt>
      <trkpt lat="49.39793" lon="5.76992">
        <ele>280</ele>
        <time>2023-06-23T08:30:18Z</time>
      </trkpt>
      <trkpt lat="49.39789" lon="5.76995">
        <ele>280.20001220703</ele>
        <time>2023-06-23T08:30:20Z</time>
      </trkpt>
      <trkpt lat="49.39787" lon="5.76998">
        <ele>280.20001220703</ele>
        <time>2023-06-23T08:30:22Z</time>
      </trkpt>
      <trkpt lat="49.39784" lon="5.77001">
        <ele>280</ele>
        <time>2023-06-23T08:30:24Z</time>
      </trkpt>
      <trkpt lat="49.39782" lon="5.77002">
        <ele>280</ele>
        <time>2023-06-23T08:30:25Z</time>
      </trkpt>
      <trkpt lat="49.39781" lon="5.77003">
        <ele>280</ele>
        <time>2023-06-23T08:30:26Z</time>
      </trkpt>
      <trkpt lat="49.39779" lon="5.77003">
        <ele>280</ele>
        <time>2023-06-23T08:30:27Z</time>
      </trkpt>
      <trkpt lat="49.39777" lon="5.77004">
        <ele>280</ele>
        <time>2023-06-23T08:30:28Z</time>
      </trkpt>
      <trkpt lat="49.39775" lon="5.77006">
        <ele>280</ele>
        <time>2023-06-23T08:30:30Z</time>
      </trkpt>
      <trkpt lat="49.39773" lon="5.77011">
        <ele>280</ele>
        <time>2023-06-23T08:30:32Z</time>
      </trkpt>
      <trkpt lat="49.3977" lon="5.77015">
        <ele>280</ele>
        <time>2023-06-23T08:30:34Z</time>
      </trkpt>
      <trkpt lat="49.39767" lon="5.77021">
        <ele>280.20001220703</ele>
        <time>2023-06-23T08:30:36Z</time>
      </trkpt>
      <trkpt lat="49.39763" lon="5.77025">
        <ele>280.20001220703</ele>
        <time>2023-06-23T08:30:38Z</time>
      </trkpt>
      <trkpt lat="49.3976" lon="5.77028">
        <ele>280.39999389648</ele>
        <time>2023-06-23T08:30:40Z</time>
      </trkpt>
      <trkpt lat="49.39758" lon="5.77031">
        <ele>280.79998779297</ele>
        <time>2023-06-23T08:30:42Z</time>
      </trkpt>
      <trkpt lat="49.39756" lon="5.77033">
        <ele>281</ele>
        <time>2023-06-23T08:30:44Z</time>
      </trkpt>
      <trkpt lat="49.39753" lon="5.77037">
        <ele>281.39999389648</ele>
        <time>2023-06-23T08:30:46Z</time>
      </trkpt>
      <trkpt lat="49.39749" lon="5.77041">
        <ele>281.79998779297</ele>
        <time>2023-06-23T08:30:48Z</time>
      </trkpt>
      <trkpt lat="49.39745" lon="5.77045">
        <ele>282</ele>
        <time>2023-06-23T08:30:50Z</time>
      </trkpt>
      <trkpt lat="49.3974" lon="5.77047">
        <ele>282</ele>
        <time>2023-06-23T08:30:52Z</time>
      </trkpt>
      <trkpt lat="49.39733" lon="5.77051">
        <ele>282</ele>
        <time>2023-06-23T08:30:54Z</time>
      </trkpt>
      <trkpt lat="49.39729" lon="5.77056">
        <ele>282</ele>
        <time>2023-06-23T08:30:56Z</time>
      </trkpt>
      <trkpt lat="49.39727" lon="5.77059">
        <ele>282</ele>
        <time>2023-06-23T08:30:58Z</time>
      </trkpt>
      <trkpt lat="49.39726" lon="5.77062">
        <ele>282</ele>
        <time>2023-06-23T08:31:00Z</time>
      </trkpt>
      <trkpt lat="49.39726" lon="5.77064">
        <ele>282</ele>
        <time>2023-06-23T08:31:01Z</time>
      </trkpt>
      <trkpt lat="49.39727" lon="5.77066">
        <ele>282</ele>
        <time>2023-06-23T08:31:02Z</time>
      </trkpt>
      <trkpt lat="49.39727" lon="5.7707">
        <ele>282</ele>
        <time>2023-06-23T08:31:04Z</time>
      </trkpt>
      <trkpt lat="49.39727" lon="5.77074">
        <ele>282</ele>
        <time>2023-06-23T08:31:06Z</time>
      </trkpt>
      <trkpt lat="49.39728" lon="5.77075">
        <ele>282</ele>
        <time>2023-06-23T08:31:07Z</time>
      </trkpt>
      <trkpt lat="49.39728" lon="5.77077">
        <ele>282</ele>
        <time>2023-06-23T08:31:08Z</time>
      </trkpt>
      <trkpt lat="49.39729" lon="5.7708">
        <ele>282.20001220703</ele>
        <time>2023-06-23T08:31:09Z</time>
      </trkpt>
      <trkpt lat="49.39729" lon="5.77082">
        <ele>282.20001220703</ele>
        <time>2023-06-23T08:31:10Z</time>
      </trkpt>
      <trkpt lat="49.3973" lon="5.77085">
        <ele>282.20001220703</ele>
        <time>2023-06-23T08:31:11Z</time>
      </trkpt>
      <trkpt lat="49.3973" lon="5.77088">
        <ele>282.20001220703</ele>
        <time>2023-06-23T08:31:12Z</time>
      </trkpt>
      <trkpt lat="49.3973" lon="5.77094">
        <ele>282.20001220703</ele>
        <time>2023-06-23T08:31:14Z</time>
      </trkpt>
      <trkpt lat="49.39731" lon="5.771">
        <ele>282.20001220703</ele>
        <time>2023-06-23T08:31:16Z</time>
      </trkpt>
      <trkpt lat="49.39732" lon="5.77108">
        <ele>282.20001220703</ele>
        <time>2023-06-23T08:31:18Z</time>
      </trkpt>
      <trkpt lat="49.39731" lon="5.77112">
        <ele>282.20001220703</ele>
        <time>2023-06-23T08:31:19Z</time>
      </trkpt>
      <trkpt lat="49.39731" lon="5.77118">
        <ele>282.20001220703</ele>
        <time>2023-06-23T08:31:20Z</time>
      </trkpt>
      <trkpt lat="49.39729" lon="5.77132">
        <ele>282.20001220703</ele>
        <time>2023-06-23T08:31:22Z</time>
      </trkpt>
      <trkpt lat="49.39728" lon="5.7714">
        <ele>282.20001220703</ele>
        <time>2023-06-23T08:31:23Z</time>
      </trkpt>
      <trkpt lat="49.39727" lon="5.77148">
        <ele>282.20001220703</ele>
        <time>2023-06-23T08:31:24Z</time>
      </trkpt>
      <trkpt lat="49.39725" lon="5.77165">
        <ele>281.60000610352</ele>
        <time>2023-06-23T08:31:26Z</time>
      </trkpt>
      <trkpt lat="49.39721" lon="5.77183">
        <ele>281</ele>
        <time>2023-06-23T08:31:28Z</time>
      </trkpt>
      <trkpt lat="49.39717" lon="5.77205">
        <ele>279.79998779297</ele>
        <time>2023-06-23T08:31:30Z</time>
      </trkpt>
      <trkpt lat="49.39714" lon="5.77226">
        <ele>278.60000610352</ele>
        <time>2023-06-23T08:31:32Z</time>
      </trkpt>
      <trkpt lat="49.39712" lon="5.77234">
        <ele>278.20001220703</ele>
        <time>2023-06-23T08:31:33Z</time>
      </trkpt>
      <trkpt lat="49.3971" lon="5.77242">
        <ele>277.39999389648</ele>
        <time>2023-06-23T08:31:34Z</time>
      </trkpt>
      <trkpt lat="49.39708" lon="5.7725">
        <ele>275.79998779297</ele>
        <time>2023-06-23T08:31:36Z</time>
      </trkpt>
      <trkpt lat="49.39707" lon="5.77252">
        <ele>274.39999389648</ele>
        <time>2023-06-23T08:31:37Z</time>
      </trkpt>
      <trkpt lat="49.39707" lon="5.77254">
        <ele>273.39999389648</ele>
        <time>2023-06-23T08:31:38Z</time>
      </trkpt>
      <trkpt lat="49.39707" lon="5.77256">
        <ele>272.20001220703</ele>
        <time>2023-06-23T08:31:39Z</time>
      </trkpt>
      <trkpt lat="49.39707" lon="5.77258">
        <ele>271.60000610352</ele>
        <time>2023-06-23T08:31:40Z</time>
      </trkpt>
      <trkpt lat="49.39707" lon="5.77261">
        <ele>271</ele>
        <time>2023-06-23T08:31:41Z</time>
      </trkpt>
      <trkpt lat="49.39707" lon="5.77261">
        <ele>270.79998779297</ele>
        <time>2023-06-23T08:31:42Z</time>
      </trkpt>
      <trkpt lat="49.39706" lon="5.77261">
        <ele>270.60000610352</ele>
        <time>2023-06-23T08:31:44Z</time>
      </trkpt>
      <trkpt lat="49.39706" lon="5.77259">
        <ele>270.60000610352</ele>
        <time>2023-06-23T08:31:46Z</time>
      </trkpt>
      <trkpt lat="49.39706" lon="5.77258">
        <ele>270.60000610352</ele>
        <time>2023-06-23T08:31:47Z</time>
      </trkpt>
      <trkpt lat="49.39706" lon="5.77256">
        <ele>270.60000610352</ele>
        <time>2023-06-23T08:31:48Z</time>
      </trkpt>
      <trkpt lat="49.39707" lon="5.77254">
        <ele>270.60000610352</ele>
        <time>2023-06-23T08:31:50Z</time>
      </trkpt>
      <trkpt lat="49.39708" lon="5.77252">
        <ele>270.60000610352</ele>
        <time>2023-06-23T08:31:52Z</time>
      </trkpt>
      <trkpt lat="49.39709" lon="5.7725">
        <ele>270.60000610352</ele>
        <time>2023-06-23T08:31:54Z</time>
      </trkpt>
      <trkpt lat="49.39709" lon="5.77247">
        <ele>270.60000610352</ele>
        <time>2023-06-23T08:31:56Z</time>
      </trkpt>
      <trkpt lat="49.3971" lon="5.77242">
        <ele>271</ele>
        <time>2023-06-23T08:31:58Z</time>
      </trkpt>
      <trkpt lat="49.39711" lon="5.77237">
        <ele>271.39999389648</ele>
        <time>2023-06-23T08:32:00Z</time>
      </trkpt>
      <trkpt lat="49.39711" lon="5.77232">
        <ele>271.60000610352</ele>
        <time>2023-06-23T08:32:02Z</time>
      </trkpt>
      <trkpt lat="49.39712" lon="5.77227">
        <ele>271.79998779297</ele>
        <time>2023-06-23T08:32:04Z</time>
      </trkpt>
      <trkpt lat="49.39713" lon="5.77222">
        <ele>272.20001220703</ele>
        <time>2023-06-23T08:32:06Z</time>
      </trkpt>
      <trkpt lat="49.39714" lon="5.77216">
        <ele>272.79998779297</ele>
        <time>2023-06-23T08:32:08Z</time>
      </trkpt>
      <trkpt lat="49.39715" lon="5.77211">
        <ele>273.39999389648</ele>
        <time>2023-06-23T08:32:10Z</time>
      </trkpt>
      <trkpt lat="49.39716" lon="5.77206">
        <ele>274</ele>
        <time>2023-06-23T08:32:12Z</time>
      </trkpt>
      <trkpt lat="49.39717" lon="5.77201">
        <ele>274.39999389648</ele>
        <time>2023-06-23T08:32:14Z</time>
      </trkpt>
      <trkpt lat="49.39718" lon="5.77197">
        <ele>275.20001220703</ele>
        <time>2023-06-23T08:32:16Z</time>
      </trkpt>
      <trkpt lat="49.39718" lon="5.77194">
        <ele>275.79998779297</ele>
        <time>2023-06-23T08:32:17Z</time>
      </trkpt>
      <trkpt lat="49.39718" lon="5.77192">
        <ele>276.20001220703</ele>
        <time>2023-06-23T08:32:18Z</time>
      </trkpt>
      <trkpt lat="49.39719" lon="5.77187">
        <ele>276.60000610352</ele>
        <time>2023-06-23T08:32:20Z</time>
      </trkpt>
      <trkpt lat="49.39719" lon="5.77185">
        <ele>276.79998779297</ele>
        <time>2023-06-23T08:32:21Z</time>
      </trkpt>
      <trkpt lat="49.39719" lon="5.77182">
        <ele>277</ele>
        <time>2023-06-23T08:32:22Z</time>
      </trkpt>
      <trkpt lat="49.39719" lon="5.7718">
        <ele>277.39999389648</ele>
        <time>2023-06-23T08:32:24Z</time>
      </trkpt>
      <trkpt lat="49.39718" lon="5.77179">
        <ele>277.60000610352</ele>
        <time>2023-06-23T08:32:25Z</time>
      </trkpt>
      <trkpt lat="49.39717" lon="5.77179">
        <ele>277.79998779297</ele>
        <time>2023-06-23T08:32:26Z</time>
      </trkpt>
      <trkpt lat="49.39716" lon="5.77178">
        <ele>278.20001220703</ele>
        <time>2023-06-23T08:32:28Z</time>
      </trkpt>
      <trkpt lat="49.39714" lon="5.77178">
        <ele>278.60000610352</ele>
        <time>2023-06-23T08:32:30Z</time>
      </trkpt>
      <trkpt lat="49.39712" lon="5.77179">
        <ele>279</ele>
        <time>2023-06-23T08:32:32Z</time>
      </trkpt>
      <trkpt lat="49.39711" lon="5.7718">
        <ele>279.39999389648</ele>
        <time>2023-06-23T08:32:33Z</time>
      </trkpt>
      <trkpt lat="49.3971" lon="5.77182">
        <ele>279.60000610352</ele>
        <time>2023-06-23T08:32:34Z</time>
      </trkpt>
      <trkpt lat="49.39709" lon="5.77186">
        <ele>279.79998779297</ele>
        <time>2023-06-23T08:32:36Z</time>
      </trkpt>
      <trkpt lat="49.39708" lon="5.77189">
        <ele>280.20001220703</ele>
        <time>2023-06-23T08:32:38Z</time>
      </trkpt>
      <trkpt lat="49.39706" lon="5.77193">
        <ele>280.39999389648</ele>
        <time>2023-06-23T08:32:40Z</time>
      </trkpt>
      <trkpt lat="49.39704" lon="5.77197">
        <ele>280.39999389648</ele>
        <time>2023-06-23T08:32:42Z</time>
      </trkpt>
      <trkpt lat="49.39702" lon="5.772">
        <ele>280.39999389648</ele>
        <time>2023-06-23T08:32:44Z</time>
      </trkpt>
      <trkpt lat="49.397" lon="5.77204">
        <ele>280.39999389648</ele>
        <time>2023-06-23T08:32:46Z</time>
      </trkpt>
      <trkpt lat="49.39699" lon="5.77206">
        <ele>280.39999389648</ele>
        <time>2023-06-23T08:32:47Z</time>
      </trkpt>
      <trkpt lat="49.39698" lon="5.77208">
        <ele>280.39999389648</ele>
        <time>2023-06-23T08:32:48Z</time>
      </trkpt>
      <trkpt lat="49.39695" lon="5.77212">
        <ele>280.60000610352</ele>
        <time>2023-06-23T08:32:50Z</time>
      </trkpt>
      <trkpt lat="49.39693" lon="5.77216">
        <ele>280.60000610352</ele>
        <time>2023-06-23T08:32:52Z</time>
      </trkpt>
      <trkpt lat="49.39691" lon="5.77221">
        <ele>280.79998779297</ele>
        <time>2023-06-23T08:32:54Z</time>
      </trkpt>
      <trkpt lat="49.39688" lon="5.77226">
        <ele>281</ele>
        <time>2023-06-23T08:32:56Z</time>
      </trkpt>
      <trkpt lat="49.39687" lon="5.77228">
        <ele>281</ele>
        <time>2023-06-23T08:32:57Z</time>
      </trkpt>
      <trkpt lat="49.39686" lon="5.77231">
        <ele>281</ele>
        <time>2023-06-23T08:32:58Z</time>
      </trkpt>
      <trkpt lat="49.39683" lon="5.77235">
        <ele>281</ele>
        <time>2023-06-23T08:33:00Z</time>
      </trkpt>
      <trkpt lat="49.39681" lon="5.7724">
        <ele>281.20001220703</ele>
        <time>2023-06-23T08:33:02Z</time>
      </trkpt>
      <trkpt lat="49.3968" lon="5.77242">
        <ele>281.20001220703</ele>
        <time>2023-06-23T08:33:03Z</time>
      </trkpt>
      <trkpt lat="49.39679" lon="5.77245">
        <ele>281.20001220703</ele>
        <time>2023-06-23T08:33:04Z</time>
      </trkpt>
      <trkpt lat="49.39677" lon="5.7725">
        <ele>281.20001220703</ele>
        <time>2023-06-23T08:33:06Z</time>
      </trkpt>
      <trkpt lat="49.39676" lon="5.77253">
        <ele>281.39999389648</ele>
        <time>2023-06-23T08:33:07Z</time>
      </trkpt>
      <trkpt lat="49.39675" lon="5.77255">
        <ele>281.39999389648</ele>
        <time>2023-06-23T08:33:08Z</time>
      </trkpt>
      <trkpt lat="49.39673" lon="5.7726">
        <ele>281.60000610352</ele>
        <time>2023-06-23T08:33:10Z</time>
      </trkpt>
      <trkpt lat="49.39671" lon="5.77265">
        <ele>281.60000610352</ele>
        <time>2023-06-23T08:33:12Z</time>
      </trkpt>
      <trkpt lat="49.39668" lon="5.77269">
        <ele>281.79998779297</ele>
        <time>2023-06-23T08:33:14Z</time>
      </trkpt>
      <trkpt lat="49.39668" lon="5.77271">
        <ele>281.79998779297</ele>
        <time>2023-06-23T08:33:15Z</time>
      </trkpt>
      <trkpt lat="49.39667" lon="5.77274">
        <ele>281.79998779297</ele>
        <time>2023-06-23T08:33:16Z</time>
      </trkpt>
      <trkpt lat="49.39665" lon="5.77278">
        <ele>281.79998779297</ele>
        <time>2023-06-23T08:33:18Z</time>
      </trkpt>
      <trkpt lat="49.39662" lon="5.77283">
        <ele>282</ele>
        <time>2023-06-23T08:33:20Z</time>
      </trkpt>
      <trkpt lat="49.3966" lon="5.77288">
        <ele>282.20001220703</ele>
        <time>2023-06-23T08:33:22Z</time>
      </trkpt>
      <trkpt lat="49.39658" lon="5.77293">
        <ele>282.39999389648</ele>
        <time>2023-06-23T08:33:24Z</time>
      </trkpt>
      <trkpt lat="49.39656" lon="5.77297">
        <ele>282.79998779297</ele>
        <time>2023-06-23T08:33:26Z</time>
      </trkpt>
      <trkpt lat="49.39654" lon="5.77303">
        <ele>283</ele>
        <time>2023-06-23T08:33:28Z</time>
      </trkpt>
      <trkpt lat="49.39652" lon="5.77308">
        <ele>283.39999389648</ele>
        <time>2023-06-23T08:33:30Z</time>
      </trkpt>
      <trkpt lat="49.39651" lon="5.77313">
        <ele>283.60000610352</ele>
        <time>2023-06-23T08:33:32Z</time>
      </trkpt>
      <trkpt lat="49.3965" lon="5.77316">
        <ele>283.79998779297</ele>
        <time>2023-06-23T08:33:33Z</time>
      </trkpt>
      <trkpt lat="49.39649" lon="5.77318">
        <ele>283.79998779297</ele>
        <time>2023-06-23T08:33:34Z</time>
      </trkpt>
      <trkpt lat="49.39648" lon="5.77324">
        <ele>284.20001220703</ele>
        <time>2023-06-23T08:33:36Z</time>
      </trkpt>
      <trkpt lat="49.39646" lon="5.77329">
        <ele>284.39999389648</ele>
        <time>2023-06-23T08:33:38Z</time>
      </trkpt>
      <trkpt lat="49.39645" lon="5.77335">
        <ele>284.39999389648</ele>
        <time>2023-06-23T08:33:40Z</time>
      </trkpt>
      <trkpt lat="49.39644" lon="5.77342">
        <ele>284.60000610352</ele>
        <time>2023-06-23T08:33:42Z</time>
      </trkpt>
      <trkpt lat="49.39642" lon="5.77349">
        <ele>284.79998779297</ele>
        <time>2023-06-23T08:33:44Z</time>
      </trkpt>
      <trkpt lat="49.39641" lon="5.77356">
        <ele>285</ele>
        <time>2023-06-23T08:33:46Z</time>
      </trkpt>
      <trkpt lat="49.39639" lon="5.77363">
        <ele>285</ele>
        <time>2023-06-23T08:33:48Z</time>
      </trkpt>
      <trkpt lat="49.39638" lon="5.7737">
        <ele>285</ele>
        <time>2023-06-23T08:33:50Z</time>
      </trkpt>
      <trkpt lat="49.39637" lon="5.77374">
        <ele>285</ele>
        <time>2023-06-23T08:33:51Z</time>
      </trkpt>
      <trkpt lat="49.39637" lon="5.77378">
        <ele>285</ele>
        <time>2023-06-23T08:33:52Z</time>
      </trkpt>
      <trkpt lat="49.39635" lon="5.77385">
        <ele>285</ele>
        <time>2023-06-23T08:33:54Z</time>
      </trkpt>
      <trkpt lat="49.39634" lon="5.77392">
        <ele>285</ele>
        <time>2023-06-23T08:33:56Z</time>
      </trkpt>
      <trkpt lat="49.39634" lon="5.77399">
        <ele>285</ele>
        <time>2023-06-23T08:33:58Z</time>
      </trkpt>
      <trkpt lat="49.39634" lon="5.77403">
        <ele>285</ele>
        <time>2023-06-23T08:33:59Z</time>
      </trkpt>
      <trkpt lat="49.39634" lon="5.77407">
        <ele>285</ele>
        <time>2023-06-23T08:34:00Z</time>
      </trkpt>
      <trkpt lat="49.39634" lon="5.77413">
        <ele>285</ele>
        <time>2023-06-23T08:34:02Z</time>
      </trkpt>
      <trkpt lat="49.39634" lon="5.77421">
        <ele>285</ele>
        <time>2023-06-23T08:34:04Z</time>
      </trkpt>
      <trkpt lat="49.39633" lon="5.77429">
        <ele>285</ele>
        <time>2023-06-23T08:34:06Z</time>
      </trkpt>
      <trkpt lat="49.39633" lon="5.77437">
        <ele>285</ele>
        <time>2023-06-23T08:34:08Z</time>
      </trkpt>
      <trkpt lat="49.39633" lon="5.77445">
        <ele>285</ele>
        <time>2023-06-23T08:34:10Z</time>
      </trkpt>
      <trkpt lat="49.39633" lon="5.77454">
        <ele>284.79998779297</ele>
        <time>2023-06-23T08:34:12Z</time>
      </trkpt>
      <trkpt lat="49.39633" lon="5.77463">
        <ele>284.79998779297</ele>
        <time>2023-06-23T08:34:14Z</time>
      </trkpt>
      <trkpt lat="49.39633" lon="5.77472">
        <ele>284.60000610352</ele>
        <time>2023-06-23T08:34:16Z</time>
      </trkpt>
      <trkpt lat="49.39633" lon="5.77481">
        <ele>284.60000610352</ele>
        <time>2023-06-23T08:34:18Z</time>
      </trkpt>
      <trkpt lat="49.39634" lon="5.7749">
        <ele>284.39999389648</ele>
        <time>2023-06-23T08:34:20Z</time>
      </trkpt>
      <trkpt lat="49.39635" lon="5.775">
        <ele>284.39999389648</ele>
        <time>2023-06-23T08:34:22Z</time>
      </trkpt>
      <trkpt lat="49.39635" lon="5.77504">
        <ele>284.39999389648</ele>
        <time>2023-06-23T08:34:23Z</time>
      </trkpt>
      <trkpt lat="49.39635" lon="5.77509">
        <ele>284.39999389648</ele>
        <time>2023-06-23T08:34:24Z</time>
      </trkpt>
      <trkpt lat="49.39635" lon="5.77518">
        <ele>284.39999389648</ele>
        <time>2023-06-23T08:34:26Z</time>
      </trkpt>
      <trkpt lat="49.39637" lon="5.77527">
        <ele>284.39999389648</ele>
        <time>2023-06-23T08:34:28Z</time>
      </trkpt>
      <trkpt lat="49.39637" lon="5.77536">
        <ele>284.20001220703</ele>
        <time>2023-06-23T08:34:30Z</time>
      </trkpt>
      <trkpt lat="49.39638" lon="5.77545">
        <ele>284.20001220703</ele>
        <time>2023-06-23T08:34:32Z</time>
      </trkpt>
      <trkpt lat="49.39639" lon="5.77554">
        <ele>284.20001220703</ele>
        <time>2023-06-23T08:34:34Z</time>
      </trkpt>
      <trkpt lat="49.3964" lon="5.77563">
        <ele>284.20001220703</ele>
        <time>2023-06-23T08:34:36Z</time>
      </trkpt>
      <trkpt lat="49.3964" lon="5.77571">
        <ele>284.20001220703</ele>
        <time>2023-06-23T08:34:38Z</time>
      </trkpt>
      <trkpt lat="49.39641" lon="5.7758">
        <ele>284.39999389648</ele>
        <time>2023-06-23T08:34:40Z</time>
      </trkpt>
      <trkpt lat="49.39642" lon="5.77584">
        <ele>284.39999389648</ele>
        <time>2023-06-23T08:34:41Z</time>
      </trkpt>
      <trkpt lat="49.39642" lon="5.77589">
        <ele>284.60000610352</ele>
        <time>2023-06-23T08:34:42Z</time>
      </trkpt>
      <trkpt lat="49.39643" lon="5.77597">
        <ele>284.60000610352</ele>
        <time>2023-06-23T08:34:44Z</time>
      </trkpt>
      <trkpt lat="49.39644" lon="5.77606">
        <ele>284.79998779297</ele>
        <time>2023-06-23T08:34:46Z</time>
      </trkpt>
      <trkpt lat="49.39645" lon="5.77615">
        <ele>285</ele>
        <time>2023-06-23T08:34:48Z</time>
      </trkpt>
      <trkpt lat="49.39646" lon="5.77624">
        <ele>285.20001220703</ele>
        <time>2023-06-23T08:34:50Z</time>
      </trkpt>
      <trkpt lat="49.39646" lon="5.77629">
        <ele>285.39999389648</ele>
        <time>2023-06-23T08:34:51Z</time>
      </trkpt>
      <trkpt lat="49.39647" lon="5.77633">
        <ele>285.60000610352</ele>
        <time>2023-06-23T08:34:52Z</time>
      </trkpt>
      <trkpt lat="49.39647" lon="5.77642">
        <ele>285.60000610352</ele>
        <time>2023-06-23T08:34:54Z</time>
      </trkpt>
      <trkpt lat="49.39648" lon="5.77651">
        <ele>285.79998779297</ele>
        <time>2023-06-23T08:34:56Z</time>
      </trkpt>
      <trkpt lat="49.39649" lon="5.77661">
        <ele>286</ele>
        <time>2023-06-23T08:34:58Z</time>
      </trkpt>
      <trkpt lat="49.3965" lon="5.7767">
        <ele>286</ele>
        <time>2023-06-23T08:35:00Z</time>
      </trkpt>
      <trkpt lat="49.3965" lon="5.77674">
        <ele>286</ele>
        <time>2023-06-23T08:35:01Z</time>
      </trkpt>
      <trkpt lat="49.39651" lon="5.77679">
        <ele>286</ele>
        <time>2023-06-23T08:35:02Z</time>
      </trkpt>
      <trkpt lat="49.39652" lon="5.77688">
        <ele>286.20001220703</ele>
        <time>2023-06-23T08:35:04Z</time>
      </trkpt>
      <trkpt lat="49.39653" lon="5.77697">
        <ele>286.39999389648</ele>
        <time>2023-06-23T08:35:06Z</time>
      </trkpt>
      <trkpt lat="49.39653" lon="5.77706">
        <ele>286.60000610352</ele>
        <time>2023-06-23T08:35:08Z</time>
      </trkpt>
      <trkpt lat="49.39654" lon="5.77711">
        <ele>286.60000610352</ele>
        <time>2023-06-23T08:35:09Z</time>
      </trkpt>
      <trkpt lat="49.39654" lon="5.77715">
        <ele>286.79998779297</ele>
        <time>2023-06-23T08:35:10Z</time>
      </trkpt>
      <trkpt lat="49.39654" lon="5.7772">
        <ele>286.79998779297</ele>
        <time>2023-06-23T08:35:11Z</time>
      </trkpt>
      <trkpt lat="49.39655" lon="5.77724">
        <ele>286.79998779297</ele>
        <time>2023-06-23T08:35:12Z</time>
      </trkpt>
      <trkpt lat="49.39655" lon="5.77733">
        <ele>287.20001220703</ele>
        <time>2023-06-23T08:35:14Z</time>
      </trkpt>
      <trkpt lat="49.39656" lon="5.77741">
        <ele>287.39999389648</ele>
        <time>2023-06-23T08:35:16Z</time>
      </trkpt>
      <trkpt lat="49.39657" lon="5.77749">
        <ele>287.60000610352</ele>
        <time>2023-06-23T08:35:18Z</time>
      </trkpt>
      <trkpt lat="49.39657" lon="5.77753">
        <ele>287.79998779297</ele>
        <time>2023-06-23T08:35:19Z</time>
      </trkpt>
      <trkpt lat="49.39657" lon="5.77757">
        <ele>287.79998779297</ele>
        <time>2023-06-23T08:35:20Z</time>
      </trkpt>
      <trkpt lat="49.39658" lon="5.77766">
        <ele>288</ele>
        <time>2023-06-23T08:35:22Z</time>
      </trkpt>
      <trkpt lat="49.39658" lon="5.77775">
        <ele>288.20001220703</ele>
        <time>2023-06-23T08:35:24Z</time>
      </trkpt>
      <trkpt lat="49.39658" lon="5.77783">
        <ele>288.39999389648</ele>
        <time>2023-06-23T08:35:26Z</time>
      </trkpt>
      <trkpt lat="49.39658" lon="5.77787">
        <ele>288.60000610352</ele>
        <time>2023-06-23T08:35:27Z</time>
      </trkpt>
      <trkpt lat="49.39658" lon="5.77791">
        <ele>288.60000610352</ele>
        <time>2023-06-23T08:35:28Z</time>
      </trkpt>
      <trkpt lat="49.39658" lon="5.77799">
        <ele>288.60000610352</ele>
        <time>2023-06-23T08:35:30Z</time>
      </trkpt>
      <trkpt lat="49.39658" lon="5.77807">
        <ele>288.79998779297</ele>
        <time>2023-06-23T08:35:32Z</time>
      </trkpt>
      <trkpt lat="49.39658" lon="5.77813">
        <ele>289</ele>
        <time>2023-06-23T08:35:34Z</time>
      </trkpt>
      <trkpt lat="49.39658" lon="5.77816">
        <ele>289.20001220703</ele>
        <time>2023-06-23T08:35:35Z</time>
      </trkpt>
      <trkpt lat="49.39657" lon="5.7782">
        <ele>289.39999389648</ele>
        <time>2023-06-23T08:35:36Z</time>
      </trkpt>
      <trkpt lat="49.39656" lon="5.77826">
        <ele>289.60000610352</ele>
        <time>2023-06-23T08:35:38Z</time>
      </trkpt>
      <trkpt lat="49.39656" lon="5.7783">
        <ele>289.60000610352</ele>
        <time>2023-06-23T08:35:39Z</time>
      </trkpt>
      <trkpt lat="49.39656" lon="5.77833">
        <ele>289.79998779297</ele>
        <time>2023-06-23T08:35:40Z</time>
      </trkpt>
      <trkpt lat="49.39656" lon="5.7784">
        <ele>290.20001220703</ele>
        <time>2023-06-23T08:35:42Z</time>
      </trkpt>
      <trkpt lat="49.39655" lon="5.77847">
        <ele>290.39999389648</ele>
        <time>2023-06-23T08:35:44Z</time>
      </trkpt>
      <trkpt lat="49.39655" lon="5.77853">
        <ele>290.79998779297</ele>
        <time>2023-06-23T08:35:46Z</time>
      </trkpt>
      <trkpt lat="49.39655" lon="5.7786">
        <ele>291</ele>
        <time>2023-06-23T08:35:48Z</time>
      </trkpt>
      <trkpt lat="49.39654" lon="5.77866">
        <ele>291.20001220703</ele>
        <time>2023-06-23T08:35:50Z</time>
      </trkpt>
      <trkpt lat="49.39654" lon="5.77873">
        <ele>291.39999389648</ele>
        <time>2023-06-23T08:35:52Z</time>
      </trkpt>
      <trkpt lat="49.39654" lon="5.77879">
        <ele>291.60000610352</ele>
        <time>2023-06-23T08:35:54Z</time>
      </trkpt>
      <trkpt lat="49.39654" lon="5.77886">
        <ele>291.79998779297</ele>
        <time>2023-06-23T08:35:56Z</time>
      </trkpt>
      <trkpt lat="49.39653" lon="5.7789">
        <ele>292</ele>
        <time>2023-06-23T08:35:57Z</time>
      </trkpt>
      <trkpt lat="49.39653" lon="5.77894">
        <ele>292.20001220703</ele>
        <time>2023-06-23T08:35:58Z</time>
      </trkpt>
      <trkpt lat="49.39654" lon="5.77901">
        <ele>292.20001220703</ele>
        <time>2023-06-23T08:36:00Z</time>
      </trkpt>
      <trkpt lat="49.39654" lon="5.77908">
        <ele>292.20001220703</ele>
        <time>2023-06-23T08:36:02Z</time>
      </trkpt>
      <trkpt lat="49.39654" lon="5.77915">
        <ele>292.39999389648</ele>
        <time>2023-06-23T08:36:04Z</time>
      </trkpt>
      <trkpt lat="49.39654" lon="5.77922">
        <ele>292.39999389648</ele>
        <time>2023-06-23T08:36:06Z</time>
      </trkpt>
      <trkpt lat="49.39653" lon="5.7793">
        <ele>292.60000610352</ele>
        <time>2023-06-23T08:36:08Z</time>
      </trkpt>
      <trkpt lat="49.39653" lon="5.77937">
        <ele>292.60000610352</ele>
        <time>2023-06-23T08:36:10Z</time>
      </trkpt>
      <trkpt lat="49.39653" lon="5.77945">
        <ele>292.60000610352</ele>
        <time>2023-06-23T08:36:12Z</time>
      </trkpt>
      <trkpt lat="49.39653" lon="5.77952">
        <ele>292.79998779297</ele>
        <time>2023-06-23T08:36:14Z</time>
      </trkpt>
      <trkpt lat="49.39653" lon="5.77956">
        <ele>292.79998779297</ele>
        <time>2023-06-23T08:36:15Z</time>
      </trkpt>
      <trkpt lat="49.39653" lon="5.77959">
        <ele>293</ele>
        <time>2023-06-23T08:36:16Z</time>
      </trkpt>
      <trkpt lat="49.39653" lon="5.77967">
        <ele>293.20001220703</ele>
        <time>2023-06-23T08:36:18Z</time>
      </trkpt>
      <trkpt lat="49.39652" lon="5.77974">
        <ele>293.39999389648</ele>
        <time>2023-06-23T08:36:20Z</time>
      </trkpt>
      <trkpt lat="49.39652" lon="5.77981">
        <ele>293.60000610352</ele>
        <time>2023-06-23T08:36:22Z</time>
      </trkpt>
      <trkpt lat="49.39652" lon="5.77989">
        <ele>293.60000610352</ele>
        <time>2023-06-23T08:36:24Z</time>
      </trkpt>
      <trkpt lat="49.39651" lon="5.77996">
        <ele>293.79998779297</ele>
        <time>2023-06-23T08:36:26Z</time>
      </trkpt>
      <trkpt lat="49.39651" lon="5.78003">
        <ele>293.79998779297</ele>
        <time>2023-06-23T08:36:28Z</time>
      </trkpt>
      <trkpt lat="49.39651" lon="5.78007">
        <ele>294</ele>
        <time>2023-06-23T08:36:29Z</time>
      </trkpt>
      <trkpt lat="49.39651" lon="5.78011">
        <ele>294.20001220703</ele>
        <time>2023-06-23T08:36:30Z</time>
      </trkpt>
      <trkpt lat="49.39651" lon="5.78015">
        <ele>294.20001220703</ele>
        <time>2023-06-23T08:36:31Z</time>
      </trkpt>
      <trkpt lat="49.3965" lon="5.78018">
        <ele>294.20001220703</ele>
        <time>2023-06-23T08:36:32Z</time>
      </trkpt>
      <trkpt lat="49.3965" lon="5.78026">
        <ele>294.60000610352</ele>
        <time>2023-06-23T08:36:34Z</time>
      </trkpt>
      <trkpt lat="49.3965" lon="5.78034">
        <ele>294.79998779297</ele>
        <time>2023-06-23T08:36:36Z</time>
      </trkpt>
      <trkpt lat="49.3965" lon="5.78041">
        <ele>295</ele>
        <time>2023-06-23T08:36:38Z</time>
      </trkpt>
      <trkpt lat="49.3965" lon="5.78049">
        <ele>295</ele>
        <time>2023-06-23T08:36:40Z</time>
      </trkpt>
      <trkpt lat="49.3965" lon="5.78056">
        <ele>295</ele>
        <time>2023-06-23T08:36:42Z</time>
      </trkpt>
      <trkpt lat="49.3965" lon="5.78059">
        <ele>295</ele>
        <time>2023-06-23T08:36:43Z</time>
      </trkpt>
      <trkpt lat="49.3965" lon="5.78063">
        <ele>295</ele>
        <time>2023-06-23T08:36:44Z</time>
      </trkpt>
      <trkpt lat="49.39649" lon="5.7807">
        <ele>295.20001220703</ele>
        <time>2023-06-23T08:36:46Z</time>
      </trkpt>
      <trkpt lat="49.39649" lon="5.78076">
        <ele>295.39999389648</ele>
        <time>2023-06-23T08:36:48Z</time>
      </trkpt>
      <trkpt lat="49.3965" lon="5.78083">
        <ele>295.39999389648</ele>
        <time>2023-06-23T08:36:50Z</time>
      </trkpt>
      <trkpt lat="49.39651" lon="5.78091">
        <ele>295.60000610352</ele>
        <time>2023-06-23T08:36:52Z</time>
      </trkpt>
      <trkpt lat="49.39651" lon="5.78095">
        <ele>295.60000610352</ele>
        <time>2023-06-23T08:36:53Z</time>
      </trkpt>
      <trkpt lat="49.39651" lon="5.78099">
        <ele>295.60000610352</ele>
        <time>2023-06-23T08:36:54Z</time>
      </trkpt>
      <trkpt lat="49.39652" lon="5.78106">
        <ele>295.60000610352</ele>
        <time>2023-06-23T08:36:56Z</time>
      </trkpt>
      <trkpt lat="49.39652" lon="5.78114">
        <ele>295.79998779297</ele>
        <time>2023-06-23T08:36:58Z</time>
      </trkpt>
      <trkpt lat="49.39652" lon="5.78122">
        <ele>295.79998779297</ele>
        <time>2023-06-23T08:37:00Z</time>
      </trkpt>
      <trkpt lat="49.39651" lon="5.78126">
        <ele>295.79998779297</ele>
        <time>2023-06-23T08:37:01Z</time>
      </trkpt>
      <trkpt lat="49.39651" lon="5.78129">
        <ele>295.79998779297</ele>
        <time>2023-06-23T08:37:02Z</time>
      </trkpt>
      <trkpt lat="49.39651" lon="5.78137">
        <ele>296</ele>
        <time>2023-06-23T08:37:04Z</time>
      </trkpt>
      <trkpt lat="49.39652" lon="5.78145">
        <ele>296</ele>
        <time>2023-06-23T08:37:06Z</time>
      </trkpt>
      <trkpt lat="49.39652" lon="5.78153">
        <ele>296</ele>
        <time>2023-06-23T08:37:08Z</time>
      </trkpt>
      <trkpt lat="49.39652" lon="5.78157">
        <ele>296</ele>
        <time>2023-06-23T08:37:09Z</time>
      </trkpt>
      <trkpt lat="49.39652" lon="5.78161">
        <ele>296</ele>
        <time>2023-06-23T08:37:10Z</time>
      </trkpt>
      <trkpt lat="49.39652" lon="5.78165">
        <ele>296</ele>
        <time>2023-06-23T08:37:11Z</time>
      </trkpt>
      <trkpt lat="49.39652" lon="5.78169">
        <ele>296.20001220703</ele>
        <time>2023-06-23T08:37:12Z</time>
      </trkpt>
      <trkpt lat="49.39652" lon="5.78176">
        <ele>296.39999389648</ele>
        <time>2023-06-23T08:37:14Z</time>
      </trkpt>
      <trkpt lat="49.39652" lon="5.78183">
        <ele>296.60000610352</ele>
        <time>2023-06-23T08:37:16Z</time>
      </trkpt>
      <trkpt lat="49.39652" lon="5.78191">
        <ele>296.79998779297</ele>
        <time>2023-06-23T08:37:18Z</time>
      </trkpt>
      <trkpt lat="49.39652" lon="5.78199">
        <ele>297</ele>
        <time>2023-06-23T08:37:20Z</time>
      </trkpt>
      <trkpt lat="49.39652" lon="5.78207">
        <ele>297</ele>
        <time>2023-06-23T08:37:22Z</time>
      </trkpt>
      <trkpt lat="49.39651" lon="5.78214">
        <ele>297</ele>
        <time>2023-06-23T08:37:24Z</time>
      </trkpt>
      <trkpt lat="49.39651" lon="5.78222">
        <ele>297.20001220703</ele>
        <time>2023-06-23T08:37:26Z</time>
      </trkpt>
      <trkpt lat="49.39651" lon="5.78229">
        <ele>297.20001220703</ele>
        <time>2023-06-23T08:37:28Z</time>
      </trkpt>
      <trkpt lat="49.39651" lon="5.78236">
        <ele>297.39999389648</ele>
        <time>2023-06-23T08:37:30Z</time>
      </trkpt>
      <trkpt lat="49.39652" lon="5.78242">
        <ele>297.39999389648</ele>
        <time>2023-06-23T08:37:32Z</time>
      </trkpt>
      <trkpt lat="49.39653" lon="5.78244">
        <ele>297.39999389648</ele>
        <time>2023-06-23T08:37:34Z</time>
      </trkpt>
      <trkpt lat="49.39653" lon="5.78244">
        <ele>297.39999389648</ele>
        <time>2023-06-23T08:37:36Z</time>
      </trkpt>
      <trkpt lat="49.39653" lon="5.78244">
        <ele>297.39999389648</ele>
        <time>2023-06-23T08:37:38Z</time>
      </trkpt>
      <trkpt lat="49.39653" lon="5.78245">
        <ele>297.39999389648</ele>
        <time>2023-06-23T08:37:40Z</time>
      </trkpt>
      <trkpt lat="49.39653" lon="5.78245">
        <ele>297.39999389648</ele>
        <time>2023-06-23T08:37:42Z</time>
      </trkpt>
      <trkpt lat="49.39653" lon="5.78245">
        <ele>297.20001220703</ele>
        <time>2023-06-23T08:37:44Z</time>
      </trkpt>
      <trkpt lat="49.39653" lon="5.78245">
        <ele>297.20001220703</ele>
        <time>2023-06-23T08:37:46Z</time>
      </trkpt>
      <trkpt lat="49.39652" lon="5.78245">
        <ele>297</ele>
        <time>2023-06-23T08:37:48Z</time>
      </trkpt>
      <trkpt lat="49.39652" lon="5.78245">
        <ele>297</ele>
        <time>2023-06-23T08:37:49Z</time>
      </trkpt>
      <trkpt lat="49.39652" lon="5.78245">
        <ele>297</ele>
        <time>2023-06-23T08:37:50Z</time>
      </trkpt>
      <trkpt lat="49.39652" lon="5.78245">
        <ele>297</ele>
        <time>2023-06-23T08:37:52Z</time>
      </trkpt>
      <trkpt lat="49.39652" lon="5.78246">
        <ele>297</ele>
        <time>2023-06-23T08:37:54Z</time>
      </trkpt>
      <trkpt lat="49.39652" lon="5.78246">
        <ele>297</ele>
        <time>2023-06-23T08:37:56Z</time>
      </trkpt>
      <trkpt lat="49.39652" lon="5.78246">
        <ele>297</ele>
        <time>2023-06-23T08:37:57Z</time>
      </trkpt>
      <trkpt lat="49.39652" lon="5.78246">
        <ele>297</ele>
        <time>2023-06-23T08:37:58Z</time>
      </trkpt>
      <trkpt lat="49.39652" lon="5.78246">
        <ele>297</ele>
        <time>2023-06-23T08:38:00Z</time>
      </trkpt>
      <trkpt lat="49.39652" lon="5.78246">
        <ele>297</ele>
        <time>2023-06-23T08:38:02Z</time>
      </trkpt>
      <trkpt lat="49.39652" lon="5.78246">
        <ele>297</ele>
        <time>2023-06-23T08:38:03Z</time>
      </trkpt>
      <trkpt lat="49.39652" lon="5.78246">
        <ele>297</ele>
        <time>2023-06-23T08:38:04Z</time>
      </trkpt>
      <trkpt lat="49.39652" lon="5.78246">
        <ele>297</ele>
        <time>2023-06-23T08:38:06Z</time>
      </trkpt>
      <trkpt lat="49.39652" lon="5.78246">
        <ele>297</ele>
        <time>2023-06-23T08:38:08Z</time>
      </trkpt>
      <trkpt lat="49.39652" lon="5.78246">
        <ele>296.79998779297</ele>
        <time>2023-06-23T08:38:10Z</time>
      </trkpt>
      <trkpt lat="49.39652" lon="5.78246">
        <ele>296.79998779297</ele>
        <time>2023-06-23T08:38:11Z</time>
      </trkpt>
      <trkpt lat="49.39652" lon="5.78246">
        <ele>296.79998779297</ele>
        <time>2023-06-23T08:38:12Z</time>
      </trkpt>
      <trkpt lat="49.39652" lon="5.78246">
        <ele>296.79998779297</ele>
        <time>2023-06-23T08:38:14Z</time>
      </trkpt>
      <trkpt lat="49.39652" lon="5.78246">
        <ele>296.79998779297</ele>
        <time>2023-06-23T08:38:16Z</time>
      </trkpt>
      <trkpt lat="49.39652" lon="5.78246">
        <ele>296.79998779297</ele>
        <time>2023-06-23T08:38:18Z</time>
      </trkpt>
      <trkpt lat="49.39652" lon="5.78246">
        <ele>296.79998779297</ele>
        <time>2023-06-23T08:38:20Z</time>
      </trkpt>
      <trkpt lat="49.39651" lon="5.78246">
        <ele>296.79998779297</ele>
        <time>2023-06-23T08:38:22Z</time>
      </trkpt>
      <trkpt lat="49.39652" lon="5.78246">
        <ele>296.79998779297</ele>
        <time>2023-06-23T08:38:24Z</time>
      </trkpt>
      <trkpt lat="49.39651" lon="5.78246">
        <ele>296.79998779297</ele>
        <time>2023-06-23T08:38:26Z</time>
      </trkpt>
      <trkpt lat="49.39651" lon="5.78246">
        <ele>296.79998779297</ele>
        <time>2023-06-23T08:38:28Z</time>
      </trkpt>
      <trkpt lat="49.39651" lon="5.78246">
        <ele>296.79998779297</ele>
        <time>2023-06-23T08:38:30Z</time>
      </trkpt>
      <trkpt lat="49.39651" lon="5.78246">
        <ele>296.79998779297</ele>
        <time>2023-06-23T08:38:32Z</time>
      </trkpt>
      <trkpt lat="49.39651" lon="5.78246">
        <ele>296.79998779297</ele>
        <time>2023-06-23T08:38:34Z</time>
      </trkpt>
      <trkpt lat="49.39651" lon="5.78246">
        <ele>296.79998779297</ele>
        <time>2023-06-23T08:38:36Z</time>
      </trkpt>
      <trkpt lat="49.39651" lon="5.78246">
        <ele>296.79998779297</ele>
        <time>2023-06-23T08:38:38Z</time>
      </trkpt>
      <trkpt lat="49.39651" lon="5.78246">
        <ele>296.79998779297</ele>
        <time>2023-06-23T08:38:40Z</time>
      </trkpt>
      <trkpt lat="49.39651" lon="5.78246">
        <ele>296.79998779297</ele>
        <time>2023-06-23T08:38:42Z</time>
      </trkpt>
      <trkpt lat="49.39651" lon="5.78246">
        <ele>296.79998779297</ele>
        <time>2023-06-23T08:38:44Z</time>
      </trkpt>
      <trkpt lat="49.39651" lon="5.78246">
        <ele>296.79998779297</ele>
        <time>2023-06-23T08:38:46Z</time>
      </trkpt>
      <trkpt lat="49.39651" lon="5.78246">
        <ele>296.79998779297</ele>
        <time>2023-06-23T08:38:48Z</time>
      </trkpt>
      <trkpt lat="49.39651" lon="5.78246">
        <ele>296.79998779297</ele>
        <time>2023-06-23T08:38:50Z</time>
      </trkpt>
      <trkpt lat="49.39651" lon="5.78246">
        <ele>296.79998779297</ele>
        <time>2023-06-23T08:38:52Z</time>
      </trkpt>
      <trkpt lat="49.39651" lon="5.78246">
        <ele>296.79998779297</ele>
        <time>2023-06-23T08:38:53Z</time>
      </trkpt>
      <trkpt lat="49.39651" lon="5.78246">
        <ele>296.79998779297</ele>
        <time>2023-06-23T08:38:54Z</time>
      </trkpt>
      <trkpt lat="49.39651" lon="5.78246">
        <ele>296.60000610352</ele>
        <time>2023-06-23T08:38:56Z</time>
      </trkpt>
      <trkpt lat="49.3965" lon="5.78246">
        <ele>296.60000610352</ele>
        <time>2023-06-23T08:38:58Z</time>
      </trkpt>
      <trkpt lat="49.3965" lon="5.78246">
        <ele>296.60000610352</ele>
        <time>2023-06-23T08:39:00Z</time>
      </trkpt>
      <trkpt lat="49.3965" lon="5.78246">
        <ele>296.60000610352</ele>
        <time>2023-06-23T08:39:02Z</time>
      </trkpt>
      <trkpt lat="49.3965" lon="5.78247">
        <ele>296.60000610352</ele>
        <time>2023-06-23T08:39:04Z</time>
      </trkpt>
      <trkpt lat="49.39649" lon="5.78247">
        <ele>296.60000610352</ele>
        <time>2023-06-23T08:39:06Z</time>
      </trkpt>
      <trkpt lat="49.39649" lon="5.78247">
        <ele>296.79998779297</ele>
        <time>2023-06-23T08:39:08Z</time>
      </trkpt>
      <trkpt lat="49.39649" lon="5.78248">
        <ele>296.79998779297</ele>
        <time>2023-06-23T08:39:10Z</time>
      </trkpt>
      <trkpt lat="49.39649" lon="5.78249">
        <ele>296.79998779297</ele>
        <time>2023-06-23T08:39:12Z</time>
      </trkpt>
      <trkpt lat="49.39649" lon="5.78252">
        <ele>297.20001220703</ele>
        <time>2023-06-23T08:39:14Z</time>
      </trkpt>
      <trkpt lat="49.3965" lon="5.78256">
        <ele>297.39999389648</ele>
        <time>2023-06-23T08:39:16Z</time>
      </trkpt>
      <trkpt lat="49.3965" lon="5.7826">
        <ele>297.39999389648</ele>
        <time>2023-06-23T08:39:17Z</time>
      </trkpt>
      <trkpt lat="49.3965" lon="5.78263">
        <ele>297.39999389648</ele>
        <time>2023-06-23T08:39:18Z</time>
      </trkpt>
      <trkpt lat="49.3965" lon="5.78271">
        <ele>297.60000610352</ele>
        <time>2023-06-23T08:39:20Z</time>
      </trkpt>
      <trkpt lat="49.3965" lon="5.78279">
        <ele>297.60000610352</ele>
        <time>2023-06-23T08:39:22Z</time>
      </trkpt>
      <trkpt lat="49.3965" lon="5.78287">
        <ele>297.60000610352</ele>
        <time>2023-06-23T08:39:24Z</time>
      </trkpt>
      <trkpt lat="49.3965" lon="5.78296">
        <ele>297.60000610352</ele>
        <time>2023-06-23T08:39:26Z</time>
      </trkpt>
      <trkpt lat="49.3965" lon="5.78305">
        <ele>297.60000610352</ele>
        <time>2023-06-23T08:39:28Z</time>
      </trkpt>
      <trkpt lat="49.3965" lon="5.78313">
        <ele>297.60000610352</ele>
        <time>2023-06-23T08:39:30Z</time>
      </trkpt>
      <trkpt lat="49.3965" lon="5.78322">
        <ele>297.60000610352</ele>
        <time>2023-06-23T08:39:32Z</time>
      </trkpt>
      <trkpt lat="49.39651" lon="5.78331">
        <ele>297.79998779297</ele>
        <time>2023-06-23T08:39:34Z</time>
      </trkpt>
      <trkpt lat="49.39651" lon="5.78339">
        <ele>297.79998779297</ele>
        <time>2023-06-23T08:39:36Z</time>
      </trkpt>
      <trkpt lat="49.39651" lon="5.78347">
        <ele>297.79998779297</ele>
        <time>2023-06-23T08:39:38Z</time>
      </trkpt>
      <trkpt lat="49.39652" lon="5.78355">
        <ele>298</ele>
        <time>2023-06-23T08:39:40Z</time>
      </trkpt>
      <trkpt lat="49.39652" lon="5.78359">
        <ele>298</ele>
        <time>2023-06-23T08:39:41Z</time>
      </trkpt>
      <trkpt lat="49.39652" lon="5.78363">
        <ele>298</ele>
        <time>2023-06-23T08:39:42Z</time>
      </trkpt>
      <trkpt lat="49.39652" lon="5.78371">
        <ele>298</ele>
        <time>2023-06-23T08:39:44Z</time>
      </trkpt>
      <trkpt lat="49.39652" lon="5.78379">
        <ele>298</ele>
        <time>2023-06-23T08:39:46Z</time>
      </trkpt>
      <trkpt lat="49.39653" lon="5.78387">
        <ele>298.20001220703</ele>
        <time>2023-06-23T08:39:48Z</time>
      </trkpt>
      <trkpt lat="49.39653" lon="5.78391">
        <ele>298.20001220703</ele>
        <time>2023-06-23T08:39:49Z</time>
      </trkpt>
      <trkpt lat="49.39653" lon="5.78395">
        <ele>298.20001220703</ele>
        <time>2023-06-23T08:39:50Z</time>
      </trkpt>
      <trkpt lat="49.39653" lon="5.78402">
        <ele>298.39999389648</ele>
        <time>2023-06-23T08:39:52Z</time>
      </trkpt>
      <trkpt lat="49.39653" lon="5.78409">
        <ele>298.39999389648</ele>
        <time>2023-06-23T08:39:54Z</time>
      </trkpt>
      <trkpt lat="49.39654" lon="5.78416">
        <ele>298.60000610352</ele>
        <time>2023-06-23T08:39:56Z</time>
      </trkpt>
      <trkpt lat="49.39654" lon="5.78422">
        <ele>298.60000610352</ele>
        <time>2023-06-23T08:39:58Z</time>
      </trkpt>
      <trkpt lat="49.39655" lon="5.78423">
        <ele>298.60000610352</ele>
        <time>2023-06-23T08:40:00Z</time>
      </trkpt>
      <trkpt lat="49.39657" lon="5.78423">
        <ele>298.60000610352</ele>
        <time>2023-06-23T08:40:02Z</time>
      </trkpt>
      <trkpt lat="49.3966" lon="5.78423">
        <ele>298.79998779297</ele>
        <time>2023-06-23T08:40:04Z</time>
      </trkpt>
      <trkpt lat="49.39661" lon="5.78423">
        <ele>298.79998779297</ele>
        <time>2023-06-23T08:40:06Z</time>
      </trkpt>
      <trkpt lat="49.39661" lon="5.78423">
        <ele>298.79998779297</ele>
        <time>2023-06-23T08:40:07Z</time>
      </trkpt>
      <trkpt lat="49.39661" lon="5.78423">
        <ele>298.79998779297</ele>
        <time>2023-06-23T08:40:08Z</time>
      </trkpt>
      <trkpt lat="49.39661" lon="5.78424">
        <ele>298.79998779297</ele>
        <time>2023-06-23T08:40:10Z</time>
      </trkpt>
      <trkpt lat="49.39662" lon="5.78425">
        <ele>298.60000610352</ele>
        <time>2023-06-23T08:40:12Z</time>
      </trkpt>
      <trkpt lat="49.39662" lon="5.78426">
        <ele>298.39999389648</ele>
        <time>2023-06-23T08:40:14Z</time>
      </trkpt>
      <trkpt lat="49.39662" lon="5.78426">
        <ele>298.39999389648</ele>
        <time>2023-06-23T08:40:16Z</time>
      </trkpt>
      <trkpt lat="49.39662" lon="5.78426">
        <ele>298.39999389648</ele>
        <time>2023-06-23T08:40:18Z</time>
      </trkpt>
      <trkpt lat="49.39662" lon="5.78425">
        <ele>298.39999389648</ele>
        <time>2023-06-23T08:40:20Z</time>
      </trkpt>
      <trkpt lat="49.39662" lon="5.78425">
        <ele>298.39999389648</ele>
        <time>2023-06-23T08:40:22Z</time>
      </trkpt>
      <trkpt lat="49.39662" lon="5.78424">
        <ele>298.39999389648</ele>
        <time>2023-06-23T08:40:24Z</time>
      </trkpt>
      <trkpt lat="49.39662" lon="5.78424">
        <ele>298.39999389648</ele>
        <time>2023-06-23T08:40:26Z</time>
      </trkpt>
      <trkpt lat="49.39661" lon="5.78424">
        <ele>298.39999389648</ele>
        <time>2023-06-23T08:40:28Z</time>
      </trkpt>
      <trkpt lat="49.39661" lon="5.78424">
        <ele>298.39999389648</ele>
        <time>2023-06-23T08:40:30Z</time>
      </trkpt>
      <trkpt lat="49.39661" lon="5.78424">
        <ele>298.39999389648</ele>
        <time>2023-06-23T08:40:32Z</time>
      </trkpt>
      <trkpt lat="49.39661" lon="5.78423">
        <ele>298.39999389648</ele>
        <time>2023-06-23T08:40:34Z</time>
      </trkpt>
      <trkpt lat="49.39661" lon="5.78423">
        <ele>298.60000610352</ele>
        <time>2023-06-23T08:40:36Z</time>
      </trkpt>
      <trkpt lat="49.39661" lon="5.78423">
        <ele>298.60000610352</ele>
        <time>2023-06-23T08:40:38Z</time>
      </trkpt>
      <trkpt lat="49.39661" lon="5.78423">
        <ele>298.60000610352</ele>
        <time>2023-06-23T08:40:40Z</time>
      </trkpt>
      <trkpt lat="49.39661" lon="5.78423">
        <ele>298.60000610352</ele>
        <time>2023-06-23T08:40:42Z</time>
      </trkpt>
      <trkpt lat="49.39661" lon="5.78423">
        <ele>298.60000610352</ele>
        <time>2023-06-23T08:40:44Z</time>
      </trkpt>
      <trkpt lat="49.39661" lon="5.78423">
        <ele>298.60000610352</ele>
        <time>2023-06-23T08:40:46Z</time>
      </trkpt>
      <trkpt lat="49.39661" lon="5.78423">
        <ele>298.60000610352</ele>
        <time>2023-06-23T08:40:48Z</time>
      </trkpt>
      <trkpt lat="49.39661" lon="5.78423">
        <ele>298.60000610352</ele>
        <time>2023-06-23T08:40:50Z</time>
      </trkpt>
      <trkpt lat="49.39661" lon="5.78424">
        <ele>298.60000610352</ele>
        <time>2023-06-23T08:40:52Z</time>
      </trkpt>
      <trkpt lat="49.39661" lon="5.78424">
        <ele>298.60000610352</ele>
        <time>2023-06-23T08:40:54Z</time>
      </trkpt>
      <trkpt lat="49.39662" lon="5.78424">
        <ele>298.60000610352</ele>
        <time>2023-06-23T08:40:56Z</time>
      </trkpt>
      <trkpt lat="49.39662" lon="5.78424">
        <ele>298.60000610352</ele>
        <time>2023-06-23T08:40:58Z</time>
      </trkpt>
      <trkpt lat="49.39662" lon="5.78424">
        <ele>298.60000610352</ele>
        <time>2023-06-23T08:41:00Z</time>
      </trkpt>
      <trkpt lat="49.39662" lon="5.78424">
        <ele>298.60000610352</ele>
        <time>2023-06-23T08:41:02Z</time>
      </trkpt>
      <trkpt lat="49.39662" lon="5.78424">
        <ele>298.60000610352</ele>
        <time>2023-06-23T08:41:04Z</time>
      </trkpt>
      <trkpt lat="49.39662" lon="5.78424">
        <ele>298.60000610352</ele>
        <time>2023-06-23T08:41:05Z</time>
      </trkpt>
      <trkpt lat="49.39662" lon="5.78424">
        <ele>298.60000610352</ele>
        <time>2023-06-23T08:41:06Z</time>
      </trkpt>
      <trkpt lat="49.39662" lon="5.78425">
        <ele>298.60000610352</ele>
        <time>2023-06-23T08:41:08Z</time>
      </trkpt>
      <trkpt lat="49.39663" lon="5.78428">
        <ele>298.60000610352</ele>
        <time>2023-06-23T08:41:10Z</time>
      </trkpt>
      <trkpt lat="49.39664" lon="5.78431">
        <ele>298.60000610352</ele>
        <time>2023-06-23T08:41:12Z</time>
      </trkpt>
      <trkpt lat="49.39664" lon="5.78436">
        <ele>298.60000610352</ele>
        <time>2023-06-23T08:41:14Z</time>
      </trkpt>
      <trkpt lat="49.39664" lon="5.78442">
        <ele>298.39999389648</ele>
        <time>2023-06-23T08:41:16Z</time>
      </trkpt>
      <trkpt lat="49.39664" lon="5.78445">
        <ele>298.20001220703</ele>
        <time>2023-06-23T08:41:17Z</time>
      </trkpt>
      <trkpt lat="49.39664" lon="5.78449">
        <ele>298</ele>
        <time>2023-06-23T08:41:18Z</time>
      </trkpt>
      <trkpt lat="49.39664" lon="5.78455">
        <ele>297.79998779297</ele>
        <time>2023-06-23T08:41:20Z</time>
      </trkpt>
      <trkpt lat="49.39664" lon="5.78461">
        <ele>297.79998779297</ele>
        <time>2023-06-23T08:41:22Z</time>
      </trkpt>
      <trkpt lat="49.39664" lon="5.78464">
        <ele>297.79998779297</ele>
        <time>2023-06-23T08:41:23Z</time>
      </trkpt>
      <trkpt lat="49.39664" lon="5.78467">
        <ele>297.79998779297</ele>
        <time>2023-06-23T08:41:24Z</time>
      </trkpt>
      <trkpt lat="49.39665" lon="5.78475">
        <ele>297.79998779297</ele>
        <time>2023-06-23T08:41:26Z</time>
      </trkpt>
      <trkpt lat="49.39665" lon="5.78483">
        <ele>297.79998779297</ele>
        <time>2023-06-23T08:41:28Z</time>
      </trkpt>
      <trkpt lat="49.39665" lon="5.78492">
        <ele>298</ele>
        <time>2023-06-23T08:41:30Z</time>
      </trkpt>
      <trkpt lat="49.39665" lon="5.785">
        <ele>298.20001220703</ele>
        <time>2023-06-23T08:41:32Z</time>
      </trkpt>
      <trkpt lat="49.39664" lon="5.78505">
        <ele>298.39999389648</ele>
        <time>2023-06-23T08:41:34Z</time>
      </trkpt>
      <trkpt lat="49.39663" lon="5.7851">
        <ele>298.39999389648</ele>
        <time>2023-06-23T08:41:36Z</time>
      </trkpt>
      <trkpt lat="49.39663" lon="5.78515">
        <ele>298.60000610352</ele>
        <time>2023-06-23T08:41:38Z</time>
      </trkpt>
      <trkpt lat="49.39663" lon="5.78518">
        <ele>298.60000610352</ele>
        <time>2023-06-23T08:41:39Z</time>
      </trkpt>
      <trkpt lat="49.39662" lon="5.78521">
        <ele>298.79998779297</ele>
        <time>2023-06-23T08:41:40Z</time>
      </trkpt>
      <trkpt lat="49.39661" lon="5.78527">
        <ele>298.79998779297</ele>
        <time>2023-06-23T08:41:42Z</time>
      </trkpt>
      <trkpt lat="49.39661" lon="5.78536">
        <ele>299</ele>
        <time>2023-06-23T08:41:44Z</time>
      </trkpt>
      <trkpt lat="49.39662" lon="5.78543">
        <ele>299</ele>
        <time>2023-06-23T08:41:46Z</time>
      </trkpt>
      <trkpt lat="49.39664" lon="5.78553">
        <ele>299.39999389648</ele>
        <time>2023-06-23T08:41:48Z</time>
      </trkpt>
      <trkpt lat="49.39665" lon="5.78562">
        <ele>299.39999389648</ele>
        <time>2023-06-23T08:41:50Z</time>
      </trkpt>
      <trkpt lat="49.39667" lon="5.78574">
        <ele>299.60000610352</ele>
        <time>2023-06-23T08:41:52Z</time>
      </trkpt>
      <trkpt lat="49.39667" lon="5.78579">
        <ele>299.60000610352</ele>
        <time>2023-06-23T08:41:53Z</time>
      </trkpt>
      <trkpt lat="49.39666" lon="5.78584">
        <ele>299.60000610352</ele>
        <time>2023-06-23T08:41:54Z</time>
      </trkpt>
      <trkpt lat="49.39666" lon="5.78588">
        <ele>299.60000610352</ele>
        <time>2023-06-23T08:41:55Z</time>
      </trkpt>
      <trkpt lat="49.39666" lon="5.78592">
        <ele>299.60000610352</ele>
        <time>2023-06-23T08:41:56Z</time>
      </trkpt>
      <trkpt lat="49.39665" lon="5.786">
        <ele>299.60000610352</ele>
        <time>2023-06-23T08:41:58Z</time>
      </trkpt>
      <trkpt lat="49.39664" lon="5.78608">
        <ele>299</ele>
        <time>2023-06-23T08:42:00Z</time>
      </trkpt>
      <trkpt lat="49.39664" lon="5.78612">
        <ele>298.79998779297</ele>
        <time>2023-06-23T08:42:01Z</time>
      </trkpt>
      <trkpt lat="49.39663" lon="5.78616">
        <ele>298.60000610352</ele>
        <time>2023-06-23T08:42:02Z</time>
      </trkpt>
      <trkpt lat="49.39662" lon="5.78625">
        <ele>298.39999389648</ele>
        <time>2023-06-23T08:42:04Z</time>
      </trkpt>
      <trkpt lat="49.39662" lon="5.78633">
        <ele>298.39999389648</ele>
        <time>2023-06-23T08:42:06Z</time>
      </trkpt>
      <trkpt lat="49.39661" lon="5.78637">
        <ele>298.20001220703</ele>
        <time>2023-06-23T08:42:07Z</time>
      </trkpt>
      <trkpt lat="49.39661" lon="5.78642">
        <ele>298.20001220703</ele>
        <time>2023-06-23T08:42:08Z</time>
      </trkpt>
      <trkpt lat="49.39659" lon="5.78654">
        <ele>298.20001220703</ele>
        <time>2023-06-23T08:42:10Z</time>
      </trkpt>
      <trkpt lat="49.39657" lon="5.78662">
        <ele>297.79998779297</ele>
        <time>2023-06-23T08:42:12Z</time>
      </trkpt>
      <trkpt lat="49.39656" lon="5.78666">
        <ele>297.60000610352</ele>
        <time>2023-06-23T08:42:13Z</time>
      </trkpt>
      <trkpt lat="49.39655" lon="5.78671">
        <ele>297.60000610352</ele>
        <time>2023-06-23T08:42:14Z</time>
      </trkpt>
      <trkpt lat="49.39655" lon="5.78677">
        <ele>297.20001220703</ele>
        <time>2023-06-23T08:42:15Z</time>
      </trkpt>
      <trkpt lat="49.39654" lon="5.78683">
        <ele>296.60000610352</ele>
        <time>2023-06-23T08:42:16Z</time>
      </trkpt>
      <trkpt lat="49.39654" lon="5.78688">
        <ele>295.60000610352</ele>
        <time>2023-06-23T08:42:17Z</time>
      </trkpt>
      <trkpt lat="49.39653" lon="5.78693">
        <ele>295.20001220703</ele>
        <time>2023-06-23T08:42:18Z</time>
      </trkpt>
      <trkpt lat="49.39652" lon="5.78704">
        <ele>294.79998779297</ele>
        <time>2023-06-23T08:42:20Z</time>
      </trkpt>
      <trkpt lat="49.39653" lon="5.78709">
        <ele>294.60000610352</ele>
        <time>2023-06-23T08:42:21Z</time>
      </trkpt>
      <trkpt lat="49.39653" lon="5.78716">
        <ele>294.60000610352</ele>
        <time>2023-06-23T08:42:22Z</time>
      </trkpt>
      <trkpt lat="49.3965" lon="5.78733">
        <ele>293.79998779297</ele>
        <time>2023-06-23T08:42:24Z</time>
      </trkpt>
      <trkpt lat="49.39648" lon="5.78741">
        <ele>293.20001220703</ele>
        <time>2023-06-23T08:42:25Z</time>
      </trkpt>
      <trkpt lat="49.39645" lon="5.7875">
        <ele>292.39999389648</ele>
        <time>2023-06-23T08:42:26Z</time>
      </trkpt>
      <trkpt lat="49.39642" lon="5.78759">
        <ele>292</ele>
        <time>2023-06-23T08:42:27Z</time>
      </trkpt>
      <trkpt lat="49.3964" lon="5.78768">
        <ele>291.60000610352</ele>
        <time>2023-06-23T08:42:28Z</time>
      </trkpt>
      <trkpt lat="49.39637" lon="5.78775">
        <ele>290.60000610352</ele>
        <time>2023-06-23T08:42:29Z</time>
      </trkpt>
      <trkpt lat="49.39635" lon="5.78782">
        <ele>289.20001220703</ele>
        <time>2023-06-23T08:42:30Z</time>
      </trkpt>
      <trkpt lat="49.39634" lon="5.78787">
        <ele>287.79998779297</ele>
        <time>2023-06-23T08:42:31Z</time>
      </trkpt>
      <trkpt lat="49.39632" lon="5.78792">
        <ele>287.20001220703</ele>
        <time>2023-06-23T08:42:32Z</time>
      </trkpt>
      <trkpt lat="49.3963" lon="5.788">
        <ele>286.79998779297</ele>
        <time>2023-06-23T08:42:33Z</time>
      </trkpt>
      <trkpt lat="49.39628" lon="5.78806">
        <ele>286.60000610352</ele>
        <time>2023-06-23T08:42:34Z</time>
      </trkpt>
      <trkpt lat="49.39627" lon="5.78811">
        <ele>286.39999389648</ele>
        <time>2023-06-23T08:42:35Z</time>
      </trkpt>
      <trkpt lat="49.39627" lon="5.78814">
        <ele>286.39999389648</ele>
        <time>2023-06-23T08:42:36Z</time>
      </trkpt>
      <trkpt lat="49.39627" lon="5.7882">
        <ele>286.39999389648</ele>
        <time>2023-06-23T08:42:38Z</time>
      </trkpt>
      <trkpt lat="49.39626" lon="5.78829">
        <ele>286.20001220703</ele>
        <time>2023-06-23T08:42:40Z</time>
      </trkpt>
      <trkpt lat="49.39623" lon="5.78841">
        <ele>286</ele>
        <time>2023-06-23T08:42:42Z</time>
      </trkpt>
      <trkpt lat="49.39623" lon="5.78851">
        <ele>286</ele>
        <time>2023-06-23T08:42:44Z</time>
      </trkpt>
      <trkpt lat="49.3962" lon="5.78863">
        <ele>286</ele>
        <time>2023-06-23T08:42:46Z</time>
      </trkpt>
      <trkpt lat="49.39618" lon="5.78874">
        <ele>286</ele>
        <time>2023-06-23T08:42:48Z</time>
      </trkpt>
      <trkpt lat="49.39615" lon="5.78886">
        <ele>286</ele>
        <time>2023-06-23T08:42:50Z</time>
      </trkpt>
      <trkpt lat="49.39614" lon="5.78897">
        <ele>285.60000610352</ele>
        <time>2023-06-23T08:42:52Z</time>
      </trkpt>
      <trkpt lat="49.39613" lon="5.78906">
        <ele>285.60000610352</ele>
        <time>2023-06-23T08:42:54Z</time>
      </trkpt>
      <trkpt lat="49.39611" lon="5.78916">
        <ele>285.60000610352</ele>
        <time>2023-06-23T08:42:56Z</time>
      </trkpt>
      <trkpt lat="49.3961" lon="5.78921">
        <ele>285.60000610352</ele>
        <time>2023-06-23T08:42:57Z</time>
      </trkpt>
      <trkpt lat="49.39607" lon="5.78927">
        <ele>285.60000610352</ele>
        <time>2023-06-23T08:42:58Z</time>
      </trkpt>
      <trkpt lat="49.39603" lon="5.7894">
        <ele>285.60000610352</ele>
        <time>2023-06-23T08:43:00Z</time>
      </trkpt>
      <trkpt lat="49.39601" lon="5.78948">
        <ele>285.79998779297</ele>
        <time>2023-06-23T08:43:02Z</time>
      </trkpt>
      <trkpt lat="49.39601" lon="5.78959">
        <ele>285.79998779297</ele>
        <time>2023-06-23T08:43:04Z</time>
      </trkpt>
      <trkpt lat="49.39604" lon="5.78974">
        <ele>285.79998779297</ele>
        <time>2023-06-23T08:43:06Z</time>
      </trkpt>
      <trkpt lat="49.39605" lon="5.78994">
        <ele>285.79998779297</ele>
        <time>2023-06-23T08:43:08Z</time>
      </trkpt>
      <trkpt lat="49.39604" lon="5.79004">
        <ele>285.79998779297</ele>
        <time>2023-06-23T08:43:09Z</time>
      </trkpt>
      <trkpt lat="49.39604" lon="5.7901">
        <ele>285.79998779297</ele>
        <time>2023-06-23T08:43:10Z</time>
      </trkpt>
      <trkpt lat="49.39607" lon="5.79012">
        <ele>285.79998779297</ele>
        <time>2023-06-23T08:43:12Z</time>
      </trkpt>
      <trkpt lat="49.39615" lon="5.79008">
        <ele>285.20001220703</ele>
        <time>2023-06-23T08:43:14Z</time>
      </trkpt>
      <trkpt lat="49.39622" lon="5.79004">
        <ele>284.79998779297</ele>
        <time>2023-06-23T08:43:15Z</time>
      </trkpt>
      <trkpt lat="49.39628" lon="5.78998">
        <ele>284.60000610352</ele>
        <time>2023-06-23T08:43:16Z</time>
      </trkpt>
      <trkpt lat="49.39639" lon="5.78984">
        <ele>284.20001220703</ele>
        <time>2023-06-23T08:43:18Z</time>
      </trkpt>
      <trkpt lat="49.39648" lon="5.78966">
        <ele>283.60000610352</ele>
        <time>2023-06-23T08:43:20Z</time>
      </trkpt>
      <trkpt lat="49.39651" lon="5.78958">
        <ele>282.39999389648</ele>
        <time>2023-06-23T08:43:21Z</time>
      </trkpt>
      <trkpt lat="49.39655" lon="5.78953">
        <ele>281</ele>
        <time>2023-06-23T08:43:22Z</time>
      </trkpt>
      <trkpt lat="49.39657" lon="5.78951">
        <ele>279.39999389648</ele>
        <time>2023-06-23T08:43:23Z</time>
      </trkpt>
      <trkpt lat="49.3966" lon="5.78952">
        <ele>277.79998779297</ele>
        <time>2023-06-23T08:43:24Z</time>
      </trkpt>
      <trkpt lat="49.39661" lon="5.78956">
        <ele>276.20001220703</ele>
        <time>2023-06-23T08:43:25Z</time>
      </trkpt>
      <trkpt lat="49.39661" lon="5.78962">
        <ele>274.39999389648</ele>
        <time>2023-06-23T08:43:26Z</time>
      </trkpt>
      <trkpt lat="49.3966" lon="5.78967">
        <ele>272.79998779297</ele>
        <time>2023-06-23T08:43:27Z</time>
      </trkpt>
      <trkpt lat="49.39659" lon="5.78974">
        <ele>271.39999389648</ele>
        <time>2023-06-23T08:43:28Z</time>
      </trkpt>
      <trkpt lat="49.39655" lon="5.7899">
        <ele>270.39999389648</ele>
        <time>2023-06-23T08:43:30Z</time>
      </trkpt>
      <trkpt lat="49.39652" lon="5.79011">
        <ele>269.79998779297</ele>
        <time>2023-06-23T08:43:32Z</time>
      </trkpt>
      <trkpt lat="49.39649" lon="5.79023">
        <ele>269.20001220703</ele>
        <time>2023-06-23T08:43:33Z</time>
      </trkpt>
      <trkpt lat="49.39648" lon="5.79036">
        <ele>268.60000610352</ele>
        <time>2023-06-23T08:43:34Z</time>
      </trkpt>
      <trkpt lat="49.39646" lon="5.7905">
        <ele>267.39999389648</ele>
        <time>2023-06-23T08:43:35Z</time>
      </trkpt>
      <trkpt lat="49.39642" lon="5.79062">
        <ele>266.60000610352</ele>
        <time>2023-06-23T08:43:36Z</time>
      </trkpt>
      <trkpt lat="49.39638" lon="5.79073">
        <ele>266</ele>
        <time>2023-06-23T08:43:37Z</time>
      </trkpt>
      <trkpt lat="49.39633" lon="5.79084">
        <ele>265</ele>
        <time>2023-06-23T08:43:38Z</time>
      </trkpt>
      <trkpt lat="49.39628" lon="5.79094">
        <ele>263.39999389648</ele>
        <time>2023-06-23T08:43:39Z</time>
      </trkpt>
      <trkpt lat="49.39623" lon="5.79104">
        <ele>262</ele>
        <time>2023-06-23T08:43:40Z</time>
      </trkpt>
      <trkpt lat="49.39619" lon="5.79113">
        <ele>260.39999389648</ele>
        <time>2023-06-23T08:43:41Z</time>
      </trkpt>
      <trkpt lat="49.39616" lon="5.79122">
        <ele>259.39999389648</ele>
        <time>2023-06-23T08:43:42Z</time>
      </trkpt>
      <trkpt lat="49.39612" lon="5.7913">
        <ele>258</ele>
        <time>2023-06-23T08:43:43Z</time>
      </trkpt>
      <trkpt lat="49.39608" lon="5.79139">
        <ele>257</ele>
        <time>2023-06-23T08:43:44Z</time>
      </trkpt>
      <trkpt lat="49.39601" lon="5.79155">
        <ele>255.80000305176</ele>
        <time>2023-06-23T08:43:46Z</time>
      </trkpt>
      <trkpt lat="49.39596" lon="5.79171">
        <ele>255.39999389648</ele>
        <time>2023-06-23T08:43:48Z</time>
      </trkpt>
      <trkpt lat="49.39593" lon="5.79178">
        <ele>255.39999389648</ele>
        <time>2023-06-23T08:43:49Z</time>
      </trkpt>
      <trkpt lat="49.3959" lon="5.79184">
        <ele>255.39999389648</ele>
        <time>2023-06-23T08:43:50Z</time>
      </trkpt>
      <trkpt lat="49.39588" lon="5.79192">
        <ele>255.39999389648</ele>
        <time>2023-06-23T08:43:51Z</time>
      </trkpt>
      <trkpt lat="49.39585" lon="5.79199">
        <ele>255.39999389648</ele>
        <time>2023-06-23T08:43:52Z</time>
      </trkpt>
      <trkpt lat="49.3958" lon="5.79213">
        <ele>255.39999389648</ele>
        <time>2023-06-23T08:43:54Z</time>
      </trkpt>
      <trkpt lat="49.39577" lon="5.79219">
        <ele>255.60000610352</ele>
        <time>2023-06-23T08:43:55Z</time>
      </trkpt>
      <trkpt lat="49.39575" lon="5.79225">
        <ele>255.60000610352</ele>
        <time>2023-06-23T08:43:56Z</time>
      </trkpt>
      <trkpt lat="49.39571" lon="5.79238">
        <ele>256.20001220703</ele>
        <time>2023-06-23T08:43:58Z</time>
      </trkpt>
      <trkpt lat="49.39567" lon="5.79249">
        <ele>256.39999389648</ele>
        <time>2023-06-23T08:44:00Z</time>
      </trkpt>
      <trkpt lat="49.39564" lon="5.79259">
        <ele>256.60000610352</ele>
        <time>2023-06-23T08:44:02Z</time>
      </trkpt>
      <trkpt lat="49.39562" lon="5.79264">
        <ele>257</ele>
        <time>2023-06-23T08:44:03Z</time>
      </trkpt>
      <trkpt lat="49.39561" lon="5.79269">
        <ele>257.20001220703</ele>
        <time>2023-06-23T08:44:04Z</time>
      </trkpt>
      <trkpt lat="49.3956" lon="5.7928">
        <ele>257.39999389648</ele>
        <time>2023-06-23T08:44:06Z</time>
      </trkpt>
      <trkpt lat="49.39558" lon="5.79292">
        <ele>257.79998779297</ele>
        <time>2023-06-23T08:44:08Z</time>
      </trkpt>
      <trkpt lat="49.39556" lon="5.79304">
        <ele>258</ele>
        <time>2023-06-23T08:44:10Z</time>
      </trkpt>
      <trkpt lat="49.39556" lon="5.7931">
        <ele>258</ele>
        <time>2023-06-23T08:44:11Z</time>
      </trkpt>
      <trkpt lat="49.39555" lon="5.79316">
        <ele>258.20001220703</ele>
        <time>2023-06-23T08:44:12Z</time>
      </trkpt>
      <trkpt lat="49.39553" lon="5.79327">
        <ele>258.20001220703</ele>
        <time>2023-06-23T08:44:14Z</time>
      </trkpt>
      <trkpt lat="49.39552" lon="5.79339">
        <ele>258.20001220703</ele>
        <time>2023-06-23T08:44:16Z</time>
      </trkpt>
      <trkpt lat="49.39552" lon="5.79352">
        <ele>258.60000610352</ele>
        <time>2023-06-23T08:44:18Z</time>
      </trkpt>
      <trkpt lat="49.39551" lon="5.79363">
        <ele>258.79998779297</ele>
        <time>2023-06-23T08:44:20Z</time>
      </trkpt>
      <trkpt lat="49.39551" lon="5.79373">
        <ele>259</ele>
        <time>2023-06-23T08:44:22Z</time>
      </trkpt>
      <trkpt lat="49.39551" lon="5.79379">
        <ele>259</ele>
        <time>2023-06-23T08:44:23Z</time>
      </trkpt>
      <trkpt lat="49.39551" lon="5.79384">
        <ele>259.20001220703</ele>
        <time>2023-06-23T08:44:24Z</time>
      </trkpt>
      <trkpt lat="49.39552" lon="5.79397">
        <ele>260</ele>
        <time>2023-06-23T08:44:26Z</time>
      </trkpt>
      <trkpt lat="49.39553" lon="5.79411">
        <ele>260.20001220703</ele>
        <time>2023-06-23T08:44:28Z</time>
      </trkpt>
      <trkpt lat="49.39554" lon="5.79423">
        <ele>260.39999389648</ele>
        <time>2023-06-23T08:44:30Z</time>
      </trkpt>
      <trkpt lat="49.39555" lon="5.79436">
        <ele>260.39999389648</ele>
        <time>2023-06-23T08:44:32Z</time>
      </trkpt>
      <trkpt lat="49.39557" lon="5.79443">
        <ele>260.39999389648</ele>
        <time>2023-06-23T08:44:33Z</time>
      </trkpt>
      <trkpt lat="49.39558" lon="5.79449">
        <ele>260.39999389648</ele>
        <time>2023-06-23T08:44:34Z</time>
      </trkpt>
      <trkpt lat="49.39559" lon="5.79456">
        <ele>260.39999389648</ele>
        <time>2023-06-23T08:44:35Z</time>
      </trkpt>
      <trkpt lat="49.3956" lon="5.79462">
        <ele>260.39999389648</ele>
        <time>2023-06-23T08:44:36Z</time>
      </trkpt>
      <trkpt lat="49.39561" lon="5.79474">
        <ele>260.39999389648</ele>
        <time>2023-06-23T08:44:38Z</time>
      </trkpt>
      <trkpt lat="49.39563" lon="5.79485">
        <ele>260.20001220703</ele>
        <time>2023-06-23T08:44:40Z</time>
      </trkpt>
      <trkpt lat="49.39564" lon="5.7949">
        <ele>260</ele>
        <time>2023-06-23T08:44:41Z</time>
      </trkpt>
      <trkpt lat="49.39566" lon="5.79496">
        <ele>259.39999389648</ele>
        <time>2023-06-23T08:44:42Z</time>
      </trkpt>
      <trkpt lat="49.39569" lon="5.79506">
        <ele>259.20001220703</ele>
        <time>2023-06-23T08:44:44Z</time>
      </trkpt>
      <trkpt lat="49.39572" lon="5.79517">
        <ele>259</ele>
        <time>2023-06-23T08:44:46Z</time>
      </trkpt>
      <trkpt lat="49.39575" lon="5.79528">
        <ele>259</ele>
        <time>2023-06-23T08:44:48Z</time>
      </trkpt>
      <trkpt lat="49.39579" lon="5.79539">
        <ele>258.79998779297</ele>
        <time>2023-06-23T08:44:50Z</time>
      </trkpt>
      <trkpt lat="49.39582" lon="5.7955">
        <ele>258.60000610352</ele>
        <time>2023-06-23T08:44:52Z</time>
      </trkpt>
      <trkpt lat="49.39583" lon="5.79555">
        <ele>258.60000610352</ele>
        <time>2023-06-23T08:44:53Z</time>
      </trkpt>
      <trkpt lat="49.39585" lon="5.79561">
        <ele>258.60000610352</ele>
        <time>2023-06-23T08:44:54Z</time>
      </trkpt>
      <trkpt lat="49.39589" lon="5.79572">
        <ele>258.39999389648</ele>
        <time>2023-06-23T08:44:56Z</time>
      </trkpt>
      <trkpt lat="49.39594" lon="5.79579">
        <ele>258</ele>
        <time>2023-06-23T08:44:58Z</time>
      </trkpt>
      <trkpt lat="49.39598" lon="5.79589">
        <ele>258</ele>
        <time>2023-06-23T08:45:00Z</time>
      </trkpt>
      <trkpt lat="49.39601" lon="5.79593">
        <ele>258</ele>
        <time>2023-06-23T08:45:01Z</time>
      </trkpt>
      <trkpt lat="49.39603" lon="5.79597">
        <ele>258</ele>
        <time>2023-06-23T08:45:02Z</time>
      </trkpt>
      <trkpt lat="49.39608" lon="5.79608">
        <ele>257.79998779297</ele>
        <time>2023-06-23T08:45:04Z</time>
      </trkpt>
      <trkpt lat="49.39613" lon="5.79619">
        <ele>257.60000610352</ele>
        <time>2023-06-23T08:45:06Z</time>
      </trkpt>
      <trkpt lat="49.39618" lon="5.79631">
        <ele>257.60000610352</ele>
        <time>2023-06-23T08:45:08Z</time>
      </trkpt>
      <trkpt lat="49.39619" lon="5.79637">
        <ele>257.60000610352</ele>
        <time>2023-06-23T08:45:09Z</time>
      </trkpt>
      <trkpt lat="49.39622" lon="5.79643">
        <ele>257.39999389648</ele>
        <time>2023-06-23T08:45:10Z</time>
      </trkpt>
      <trkpt lat="49.39626" lon="5.79656">
        <ele>257.39999389648</ele>
        <time>2023-06-23T08:45:12Z</time>
      </trkpt>
      <trkpt lat="49.39629" lon="5.79666">
        <ele>257.39999389648</ele>
        <time>2023-06-23T08:45:14Z</time>
      </trkpt>
      <trkpt lat="49.39632" lon="5.79675">
        <ele>257.39999389648</ele>
        <time>2023-06-23T08:45:16Z</time>
      </trkpt>
      <trkpt lat="49.39635" lon="5.79683">
        <ele>257.39999389648</ele>
        <time>2023-06-23T08:45:18Z</time>
      </trkpt>
      <trkpt lat="49.39636" lon="5.7969">
        <ele>257.60000610352</ele>
        <time>2023-06-23T08:45:20Z</time>
      </trkpt>
      <trkpt lat="49.39639" lon="5.79697">
        <ele>257.79998779297</ele>
        <time>2023-06-23T08:45:22Z</time>
      </trkpt>
      <trkpt lat="49.39642" lon="5.79704">
        <ele>258.79998779297</ele>
        <time>2023-06-23T08:45:24Z</time>
      </trkpt>
      <trkpt lat="49.39643" lon="5.79707">
        <ele>259</ele>
        <time>2023-06-23T08:45:25Z</time>
      </trkpt>
      <trkpt lat="49.39644" lon="5.7971">
        <ele>259.39999389648</ele>
        <time>2023-06-23T08:45:26Z</time>
      </trkpt>
      <trkpt lat="49.39647" lon="5.79717">
        <ele>260.20001220703</ele>
        <time>2023-06-23T08:45:28Z</time>
      </trkpt>
      <trkpt lat="49.39648" lon="5.79726">
        <ele>260.60000610352</ele>
        <time>2023-06-23T08:45:30Z</time>
      </trkpt>
      <trkpt lat="49.39649" lon="5.79734">
        <ele>261.20001220703</ele>
        <time>2023-06-23T08:45:32Z</time>
      </trkpt>
      <trkpt lat="49.39651" lon="5.79741">
        <ele>261.79998779297</ele>
        <time>2023-06-23T08:45:34Z</time>
      </trkpt>
      <trkpt lat="49.39652" lon="5.79748">
        <ele>262.20001220703</ele>
        <time>2023-06-23T08:45:36Z</time>
      </trkpt>
      <trkpt lat="49.39653" lon="5.79756">
        <ele>262.79998779297</ele>
        <time>2023-06-23T08:45:38Z</time>
      </trkpt>
      <trkpt lat="49.39654" lon="5.79763">
        <ele>263.39999389648</ele>
        <time>2023-06-23T08:45:40Z</time>
      </trkpt>
      <trkpt lat="49.39656" lon="5.7977">
        <ele>263.79998779297</ele>
        <time>2023-06-23T08:45:42Z</time>
      </trkpt>
      <trkpt lat="49.39658" lon="5.79778">
        <ele>264.20001220703</ele>
        <time>2023-06-23T08:45:44Z</time>
      </trkpt>
      <trkpt lat="49.39659" lon="5.79784">
        <ele>264.79998779297</ele>
        <time>2023-06-23T08:45:46Z</time>
      </trkpt>
      <trkpt lat="49.3966" lon="5.79786">
        <ele>265</ele>
        <time>2023-06-23T08:45:47Z</time>
      </trkpt>
      <trkpt lat="49.3966" lon="5.79789">
        <ele>265.39999389648</ele>
        <time>2023-06-23T08:45:48Z</time>
      </trkpt>
      <trkpt lat="49.3966" lon="5.79795">
        <ele>265.79998779297</ele>
        <time>2023-06-23T08:45:50Z</time>
      </trkpt>
      <trkpt lat="49.39661" lon="5.798">
        <ele>266.39999389648</ele>
        <time>2023-06-23T08:45:52Z</time>
      </trkpt>
      <trkpt lat="49.39661" lon="5.79803">
        <ele>266.60000610352</ele>
        <time>2023-06-23T08:45:53Z</time>
      </trkpt>
      <trkpt lat="49.39661" lon="5.79806">
        <ele>267</ele>
        <time>2023-06-23T08:45:54Z</time>
      </trkpt>
      <trkpt lat="49.39661" lon="5.79808">
        <ele>267.39999389648</ele>
        <time>2023-06-23T08:45:55Z</time>
      </trkpt>
      <trkpt lat="49.39662" lon="5.79811">
        <ele>267.79998779297</ele>
        <time>2023-06-23T08:45:56Z</time>
      </trkpt>
      <trkpt lat="49.39662" lon="5.79816">
        <ele>268.39999389648</ele>
        <time>2023-06-23T08:45:58Z</time>
      </trkpt>
      <trkpt lat="49.39662" lon="5.79818">
        <ele>268.39999389648</ele>
        <time>2023-06-23T08:45:59Z</time>
      </trkpt>
      <trkpt lat="49.39663" lon="5.79822">
        <ele>268.60000610352</ele>
        <time>2023-06-23T08:46:00Z</time>
      </trkpt>
      <trkpt lat="49.39663" lon="5.79827">
        <ele>269</ele>
        <time>2023-06-23T08:46:02Z</time>
      </trkpt>
      <trkpt lat="49.39664" lon="5.79832">
        <ele>269.20001220703</ele>
        <time>2023-06-23T08:46:04Z</time>
      </trkpt>
      <trkpt lat="49.39664" lon="5.79834">
        <ele>269.39999389648</ele>
        <time>2023-06-23T08:46:05Z</time>
      </trkpt>
      <trkpt lat="49.39663" lon="5.79836">
        <ele>269.60000610352</ele>
        <time>2023-06-23T08:46:06Z</time>
      </trkpt>
      <trkpt lat="49.39663" lon="5.7984">
        <ele>270</ele>
        <time>2023-06-23T08:46:08Z</time>
      </trkpt>
      <trkpt lat="49.39661" lon="5.79844">
        <ele>270.20001220703</ele>
        <time>2023-06-23T08:46:10Z</time>
      </trkpt>
      <trkpt lat="49.39659" lon="5.79847">
        <ele>270.20001220703</ele>
        <time>2023-06-23T08:46:11Z</time>
      </trkpt>
      <trkpt lat="49.39656" lon="5.79851">
        <ele>270.20001220703</ele>
        <time>2023-06-23T08:46:12Z</time>
      </trkpt>
      <trkpt lat="49.39649" lon="5.79859">
        <ele>270.20001220703</ele>
        <time>2023-06-23T08:46:14Z</time>
      </trkpt>
      <trkpt lat="49.39644" lon="5.79863">
        <ele>270.20001220703</ele>
        <time>2023-06-23T08:46:15Z</time>
      </trkpt>
      <trkpt lat="49.39638" lon="5.79868">
        <ele>270.20001220703</ele>
        <time>2023-06-23T08:46:16Z</time>
      </trkpt>
      <trkpt lat="49.39627" lon="5.79878">
        <ele>270.20001220703</ele>
        <time>2023-06-23T08:46:18Z</time>
      </trkpt>
      <trkpt lat="49.39621" lon="5.79884">
        <ele>269.79998779297</ele>
        <time>2023-06-23T08:46:19Z</time>
      </trkpt>
      <trkpt lat="49.39614" lon="5.7989">
        <ele>269.39999389648</ele>
        <time>2023-06-23T08:46:20Z</time>
      </trkpt>
      <trkpt lat="49.396" lon="5.79902">
        <ele>268.39999389648</ele>
        <time>2023-06-23T08:46:22Z</time>
      </trkpt>
      <trkpt lat="49.39586" lon="5.79914">
        <ele>266.60000610352</ele>
        <time>2023-06-23T08:46:24Z</time>
      </trkpt>
      <trkpt lat="49.39574" lon="5.79929">
        <ele>265.20001220703</ele>
        <time>2023-06-23T08:46:26Z</time>
      </trkpt>
      <trkpt lat="49.39562" lon="5.79942">
        <ele>263.39999389648</ele>
        <time>2023-06-23T08:46:28Z</time>
      </trkpt>
      <trkpt lat="49.39556" lon="5.79947">
        <ele>262</ele>
        <time>2023-06-23T08:46:29Z</time>
      </trkpt>
      <trkpt lat="49.39551" lon="5.79952">
        <ele>260.79998779297</ele>
        <time>2023-06-23T08:46:30Z</time>
      </trkpt>
      <trkpt lat="49.39546" lon="5.79956">
        <ele>259.79998779297</ele>
        <time>2023-06-23T08:46:31Z</time>
      </trkpt>
      <trkpt lat="49.3954" lon="5.79959">
        <ele>259.39999389648</ele>
        <time>2023-06-23T08:46:32Z</time>
      </trkpt>
      <trkpt lat="49.39533" lon="5.79967">
        <ele>259</ele>
        <time>2023-06-23T08:46:34Z</time>
      </trkpt>
      <trkpt lat="49.39526" lon="5.79973">
        <ele>258.79998779297</ele>
        <time>2023-06-23T08:46:36Z</time>
      </trkpt>
      <trkpt lat="49.3952" lon="5.79979">
        <ele>258.79998779297</ele>
        <time>2023-06-23T08:46:38Z</time>
      </trkpt>
      <trkpt lat="49.39515" lon="5.79984">
        <ele>258.79998779297</ele>
        <time>2023-06-23T08:46:40Z</time>
      </trkpt>
      <trkpt lat="49.39513" lon="5.79987">
        <ele>258.79998779297</ele>
        <time>2023-06-23T08:46:41Z</time>
      </trkpt>
      <trkpt lat="49.39511" lon="5.79989">
        <ele>259</ele>
        <time>2023-06-23T08:46:42Z</time>
      </trkpt>
      <trkpt lat="49.39506" lon="5.79997">
        <ele>259.39999389648</ele>
        <time>2023-06-23T08:46:44Z</time>
      </trkpt>
      <trkpt lat="49.395" lon="5.80005">
        <ele>259.60000610352</ele>
        <time>2023-06-23T08:46:46Z</time>
      </trkpt>
      <trkpt lat="49.39498" lon="5.8001">
        <ele>259.60000610352</ele>
        <time>2023-06-23T08:46:47Z</time>
      </trkpt>
      <trkpt lat="49.39496" lon="5.80017">
        <ele>259.60000610352</ele>
        <time>2023-06-23T08:46:48Z</time>
      </trkpt>
      <trkpt lat="49.39491" lon="5.80027">
        <ele>259.60000610352</ele>
        <time>2023-06-23T08:46:50Z</time>
      </trkpt>
      <trkpt lat="49.39486" lon="5.80038">
        <ele>259.60000610352</ele>
        <time>2023-06-23T08:46:52Z</time>
      </trkpt>
      <trkpt lat="49.39481" lon="5.8005">
        <ele>259.79998779297</ele>
        <time>2023-06-23T08:46:54Z</time>
      </trkpt>
      <trkpt lat="49.39478" lon="5.80056">
        <ele>259.79998779297</ele>
        <time>2023-06-23T08:46:55Z</time>
      </trkpt>
      <trkpt lat="49.39476" lon="5.80062">
        <ele>259.79998779297</ele>
        <time>2023-06-23T08:46:56Z</time>
      </trkpt>
      <trkpt lat="49.39473" lon="5.80073">
        <ele>259.60000610352</ele>
        <time>2023-06-23T08:46:58Z</time>
      </trkpt>
      <trkpt lat="49.39469" lon="5.80086">
        <ele>259.60000610352</ele>
        <time>2023-06-23T08:47:00Z</time>
      </trkpt>
      <trkpt lat="49.39465" lon="5.80097">
        <ele>259.60000610352</ele>
        <time>2023-06-23T08:47:02Z</time>
      </trkpt>
      <trkpt lat="49.39462" lon="5.80107">
        <ele>259.60000610352</ele>
        <time>2023-06-23T08:47:04Z</time>
      </trkpt>
      <trkpt lat="49.39458" lon="5.80117">
        <ele>259.60000610352</ele>
        <time>2023-06-23T08:47:06Z</time>
      </trkpt>
      <trkpt lat="49.39455" lon="5.80127">
        <ele>259.79998779297</ele>
        <time>2023-06-23T08:47:08Z</time>
      </trkpt>
      <trkpt lat="49.39454" lon="5.80139">
        <ele>259.79998779297</ele>
        <time>2023-06-23T08:47:10Z</time>
      </trkpt>
      <trkpt lat="49.39453" lon="5.80144">
        <ele>259.79998779297</ele>
        <time>2023-06-23T08:47:11Z</time>
      </trkpt>
      <trkpt lat="49.39452" lon="5.80149">
        <ele>259.79998779297</ele>
        <time>2023-06-23T08:47:12Z</time>
      </trkpt>
      <trkpt lat="49.39451" lon="5.80161">
        <ele>260</ele>
        <time>2023-06-23T08:47:14Z</time>
      </trkpt>
      <trkpt lat="49.39451" lon="5.80173">
        <ele>260</ele>
        <time>2023-06-23T08:47:16Z</time>
      </trkpt>
      <trkpt lat="49.3945" lon="5.80182">
        <ele>260.20001220703</ele>
        <time>2023-06-23T08:47:18Z</time>
      </trkpt>
      <trkpt lat="49.39449" lon="5.80192">
        <ele>260.20001220703</ele>
        <time>2023-06-23T08:47:20Z</time>
      </trkpt>
      <trkpt lat="49.39449" lon="5.80203">
        <ele>260.20001220703</ele>
        <time>2023-06-23T08:47:22Z</time>
      </trkpt>
      <trkpt lat="49.39449" lon="5.80214">
        <ele>260.20001220703</ele>
        <time>2023-06-23T08:47:24Z</time>
      </trkpt>
      <trkpt lat="49.39449" lon="5.80225">
        <ele>260.39999389648</ele>
        <time>2023-06-23T08:47:26Z</time>
      </trkpt>
      <trkpt lat="49.39448" lon="5.80236">
        <ele>260.39999389648</ele>
        <time>2023-06-23T08:47:28Z</time>
      </trkpt>
      <trkpt lat="49.39447" lon="5.80245">
        <ele>260.39999389648</ele>
        <time>2023-06-23T08:47:30Z</time>
      </trkpt>
      <trkpt lat="49.39447" lon="5.80254">
        <ele>260.60000610352</ele>
        <time>2023-06-23T08:47:32Z</time>
      </trkpt>
      <trkpt lat="49.39446" lon="5.80264">
        <ele>260.79998779297</ele>
        <time>2023-06-23T08:47:34Z</time>
      </trkpt>
      <trkpt lat="49.39446" lon="5.80269">
        <ele>261</ele>
        <time>2023-06-23T08:47:35Z</time>
      </trkpt>
      <trkpt lat="49.39445" lon="5.80274">
        <ele>261.20001220703</ele>
        <time>2023-06-23T08:47:36Z</time>
      </trkpt>
      <trkpt lat="49.39445" lon="5.80279">
        <ele>261.39999389648</ele>
        <time>2023-06-23T08:47:37Z</time>
      </trkpt>
      <trkpt lat="49.39445" lon="5.80284">
        <ele>261.60000610352</ele>
        <time>2023-06-23T08:47:38Z</time>
      </trkpt>
      <trkpt lat="49.39445" lon="5.80293">
        <ele>261.60000610352</ele>
        <time>2023-06-23T08:47:40Z</time>
      </trkpt>
      <trkpt lat="49.39444" lon="5.80301">
        <ele>262</ele>
        <time>2023-06-23T08:47:42Z</time>
      </trkpt>
      <trkpt lat="49.39443" lon="5.80305">
        <ele>262</ele>
        <time>2023-06-23T08:47:43Z</time>
      </trkpt>
      <trkpt lat="49.39443" lon="5.80309">
        <ele>262.20001220703</ele>
        <time>2023-06-23T08:47:44Z</time>
      </trkpt>
      <trkpt lat="49.39443" lon="5.80318">
        <ele>263</ele>
        <time>2023-06-23T08:47:46Z</time>
      </trkpt>
      <trkpt lat="49.39442" lon="5.80322">
        <ele>262.79998779297</ele>
        <time>2023-06-23T08:47:47Z</time>
      </trkpt>
      <trkpt lat="49.39442" lon="5.80327">
        <ele>263</ele>
        <time>2023-06-23T08:47:48Z</time>
      </trkpt>
      <trkpt lat="49.39441" lon="5.80335">
        <ele>263.20001220703</ele>
        <time>2023-06-23T08:47:50Z</time>
      </trkpt>
      <trkpt lat="49.39441" lon="5.80343">
        <ele>263.60000610352</ele>
        <time>2023-06-23T08:47:52Z</time>
      </trkpt>
      <trkpt lat="49.3944" lon="5.80352">
        <ele>263.60000610352</ele>
        <time>2023-06-23T08:47:54Z</time>
      </trkpt>
      <trkpt lat="49.39439" lon="5.80359">
        <ele>264</ele>
        <time>2023-06-23T08:47:56Z</time>
      </trkpt>
      <trkpt lat="49.39439" lon="5.80363">
        <ele>264.20001220703</ele>
        <time>2023-06-23T08:47:57Z</time>
      </trkpt>
      <trkpt lat="49.39438" lon="5.80366">
        <ele>264.60000610352</ele>
        <time>2023-06-23T08:47:58Z</time>
      </trkpt>
      <trkpt lat="49.39437" lon="5.80373">
        <ele>264.79998779297</ele>
        <time>2023-06-23T08:48:00Z</time>
      </trkpt>
      <trkpt lat="49.39437" lon="5.80376">
        <ele>265</ele>
        <time>2023-06-23T08:48:01Z</time>
      </trkpt>
      <trkpt lat="49.39436" lon="5.80378">
        <ele>265.20001220703</ele>
        <time>2023-06-23T08:48:02Z</time>
      </trkpt>
      <trkpt lat="49.39436" lon="5.80385">
        <ele>265.79998779297</ele>
        <time>2023-06-23T08:48:04Z</time>
      </trkpt>
      <trkpt lat="49.39435" lon="5.80391">
        <ele>266.20001220703</ele>
        <time>2023-06-23T08:48:06Z</time>
      </trkpt>
      <trkpt lat="49.39434" lon="5.80396">
        <ele>266.79998779297</ele>
        <time>2023-06-23T08:48:08Z</time>
      </trkpt>
      <trkpt lat="49.39434" lon="5.80399">
        <ele>267.20001220703</ele>
        <time>2023-06-23T08:48:09Z</time>
      </trkpt>
      <trkpt lat="49.39434" lon="5.80401">
        <ele>267.60000610352</ele>
        <time>2023-06-23T08:48:10Z</time>
      </trkpt>
      <trkpt lat="49.39434" lon="5.80407">
        <ele>268.20001220703</ele>
        <time>2023-06-23T08:48:12Z</time>
      </trkpt>
      <trkpt lat="49.39434" lon="5.8041">
        <ele>268.39999389648</ele>
        <time>2023-06-23T08:48:13Z</time>
      </trkpt>
      <trkpt lat="49.39433" lon="5.80413">
        <ele>268.60000610352</ele>
        <time>2023-06-23T08:48:14Z</time>
      </trkpt>
      <trkpt lat="49.39433" lon="5.8042">
        <ele>269</ele>
        <time>2023-06-23T08:48:16Z</time>
      </trkpt>
      <trkpt lat="49.39433" lon="5.80426">
        <ele>269.39999389648</ele>
        <time>2023-06-23T08:48:18Z</time>
      </trkpt>
      <trkpt lat="49.39432" lon="5.80433">
        <ele>269.79998779297</ele>
        <time>2023-06-23T08:48:20Z</time>
      </trkpt>
      <trkpt lat="49.39431" lon="5.80439">
        <ele>270</ele>
        <time>2023-06-23T08:48:22Z</time>
      </trkpt>
      <trkpt lat="49.3943" lon="5.80446">
        <ele>270.39999389648</ele>
        <time>2023-06-23T08:48:24Z</time>
      </trkpt>
      <trkpt lat="49.39429" lon="5.80452">
        <ele>270.79998779297</ele>
        <time>2023-06-23T08:48:26Z</time>
      </trkpt>
      <trkpt lat="49.39428" lon="5.80459">
        <ele>271.20001220703</ele>
        <time>2023-06-23T08:48:28Z</time>
      </trkpt>
      <trkpt lat="49.39428" lon="5.80461">
        <ele>271.39999389648</ele>
        <time>2023-06-23T08:48:29Z</time>
      </trkpt>
      <trkpt lat="49.39428" lon="5.80465">
        <ele>271.60000610352</ele>
        <time>2023-06-23T08:48:30Z</time>
      </trkpt>
      <trkpt lat="49.39426" lon="5.80471">
        <ele>272</ele>
        <time>2023-06-23T08:48:32Z</time>
      </trkpt>
      <trkpt lat="49.39426" lon="5.80477">
        <ele>272.39999389648</ele>
        <time>2023-06-23T08:48:34Z</time>
      </trkpt>
      <trkpt lat="49.39425" lon="5.8048">
        <ele>272.60000610352</ele>
        <time>2023-06-23T08:48:35Z</time>
      </trkpt>
      <trkpt lat="49.39425" lon="5.80484">
        <ele>273</ele>
        <time>2023-06-23T08:48:36Z</time>
      </trkpt>
      <trkpt lat="49.39425" lon="5.80486">
        <ele>273.20001220703</ele>
        <time>2023-06-23T08:48:37Z</time>
      </trkpt>
      <trkpt lat="49.39424" lon="5.80489">
        <ele>273.20001220703</ele>
        <time>2023-06-23T08:48:38Z</time>
      </trkpt>
      <trkpt lat="49.39424" lon="5.80495">
        <ele>273.79998779297</ele>
        <time>2023-06-23T08:48:40Z</time>
      </trkpt>
      <trkpt lat="49.39423" lon="5.80501">
        <ele>274.20001220703</ele>
        <time>2023-06-23T08:48:42Z</time>
      </trkpt>
      <trkpt lat="49.39422" lon="5.80508">
        <ele>274.79998779297</ele>
        <time>2023-06-23T08:48:44Z</time>
      </trkpt>
      <trkpt lat="49.39422" lon="5.80511">
        <ele>275</ele>
        <time>2023-06-23T08:48:45Z</time>
      </trkpt>
      <trkpt lat="49.39421" lon="5.80514">
        <ele>275.20001220703</ele>
        <time>2023-06-23T08:48:46Z</time>
      </trkpt>
      <trkpt lat="49.3942" lon="5.80521">
        <ele>275.39999389648</ele>
        <time>2023-06-23T08:48:48Z</time>
      </trkpt>
      <trkpt lat="49.39418" lon="5.80527">
        <ele>275.60000610352</ele>
        <time>2023-06-23T08:48:50Z</time>
      </trkpt>
      <trkpt lat="49.39417" lon="5.80534">
        <ele>276</ele>
        <time>2023-06-23T08:48:52Z</time>
      </trkpt>
      <trkpt lat="49.39416" lon="5.80537">
        <ele>276.20001220703</ele>
        <time>2023-06-23T08:48:53Z</time>
      </trkpt>
      <trkpt lat="49.39415" lon="5.80541">
        <ele>276.39999389648</ele>
        <time>2023-06-23T08:48:54Z</time>
      </trkpt>
      <trkpt lat="49.39413" lon="5.80547">
        <ele>276.79998779297</ele>
        <time>2023-06-23T08:48:56Z</time>
      </trkpt>
      <trkpt lat="49.39411" lon="5.80553">
        <ele>277</ele>
        <time>2023-06-23T08:48:58Z</time>
      </trkpt>
      <trkpt lat="49.39409" lon="5.80559">
        <ele>277.20001220703</ele>
        <time>2023-06-23T08:49:00Z</time>
      </trkpt>
      <trkpt lat="49.39406" lon="5.80565">
        <ele>277.39999389648</ele>
        <time>2023-06-23T08:49:02Z</time>
      </trkpt>
      <trkpt lat="49.39404" lon="5.80568">
        <ele>278</ele>
        <time>2023-06-23T08:49:03Z</time>
      </trkpt>
      <trkpt lat="49.39403" lon="5.8057">
        <ele>278</ele>
        <time>2023-06-23T08:49:04Z</time>
      </trkpt>
      <trkpt lat="49.39399" lon="5.80575">
        <ele>278.20001220703</ele>
        <time>2023-06-23T08:49:06Z</time>
      </trkpt>
      <trkpt lat="49.39396" lon="5.8058">
        <ele>278.60000610352</ele>
        <time>2023-06-23T08:49:08Z</time>
      </trkpt>
      <trkpt lat="49.39393" lon="5.80584">
        <ele>278.79998779297</ele>
        <time>2023-06-23T08:49:10Z</time>
      </trkpt>
      <trkpt lat="49.39389" lon="5.80587">
        <ele>279.20001220703</ele>
        <time>2023-06-23T08:49:12Z</time>
      </trkpt>
      <trkpt lat="49.39385" lon="5.80591">
        <ele>279.39999389648</ele>
        <time>2023-06-23T08:49:14Z</time>
      </trkpt>
      <trkpt lat="49.39381" lon="5.80595">
        <ele>280</ele>
        <time>2023-06-23T08:49:16Z</time>
      </trkpt>
      <trkpt lat="49.39379" lon="5.80597">
        <ele>280</ele>
        <time>2023-06-23T08:49:17Z</time>
      </trkpt>
      <trkpt lat="49.39377" lon="5.80599">
        <ele>280.20001220703</ele>
        <time>2023-06-23T08:49:18Z</time>
      </trkpt>
      <trkpt lat="49.39374" lon="5.80603">
        <ele>280.39999389648</ele>
        <time>2023-06-23T08:49:20Z</time>
      </trkpt>
      <trkpt lat="49.3937" lon="5.80607">
        <ele>280.39999389648</ele>
        <time>2023-06-23T08:49:22Z</time>
      </trkpt>
      <trkpt lat="49.39366" lon="5.8061">
        <ele>280.60000610352</ele>
        <time>2023-06-23T08:49:24Z</time>
      </trkpt>
      <trkpt lat="49.39362" lon="5.80614">
        <ele>281</ele>
        <time>2023-06-23T08:49:26Z</time>
      </trkpt>
      <trkpt lat="49.3936" lon="5.80616">
        <ele>281.20001220703</ele>
        <time>2023-06-23T08:49:27Z</time>
      </trkpt>
      <trkpt lat="49.39358" lon="5.80618">
        <ele>281.60000610352</ele>
        <time>2023-06-23T08:49:28Z</time>
      </trkpt>
      <trkpt lat="49.39354" lon="5.80621">
        <ele>282</ele>
        <time>2023-06-23T08:49:30Z</time>
      </trkpt>
      <trkpt lat="49.3935" lon="5.80623">
        <ele>282.20001220703</ele>
        <time>2023-06-23T08:49:32Z</time>
      </trkpt>
      <trkpt lat="49.39347" lon="5.80626">
        <ele>282.39999389648</ele>
        <time>2023-06-23T08:49:34Z</time>
      </trkpt>
      <trkpt lat="49.39343" lon="5.80629">
        <ele>282.60000610352</ele>
        <time>2023-06-23T08:49:36Z</time>
      </trkpt>
      <trkpt lat="49.39339" lon="5.80631">
        <ele>283</ele>
        <time>2023-06-23T08:49:38Z</time>
      </trkpt>
      <trkpt lat="49.39338" lon="5.80632">
        <ele>283.39999389648</ele>
        <time>2023-06-23T08:49:39Z</time>
      </trkpt>
      <trkpt lat="49.39336" lon="5.80634">
        <ele>283.60000610352</ele>
        <time>2023-06-23T08:49:40Z</time>
      </trkpt>
      <trkpt lat="49.39332" lon="5.80637">
        <ele>283.79998779297</ele>
        <time>2023-06-23T08:49:42Z</time>
      </trkpt>
      <trkpt lat="49.39327" lon="5.80639">
        <ele>284</ele>
        <time>2023-06-23T08:49:44Z</time>
      </trkpt>
      <trkpt lat="49.39325" lon="5.80641">
        <ele>284.39999389648</ele>
        <time>2023-06-23T08:49:45Z</time>
      </trkpt>
      <trkpt lat="49.39323" lon="5.80642">
        <ele>284.39999389648</ele>
        <time>2023-06-23T08:49:46Z</time>
      </trkpt>
      <trkpt lat="49.3932" lon="5.80645">
        <ele>284.79998779297</ele>
        <time>2023-06-23T08:49:48Z</time>
      </trkpt>
      <trkpt lat="49.39318" lon="5.80646">
        <ele>285.20001220703</ele>
        <time>2023-06-23T08:49:49Z</time>
      </trkpt>
      <trkpt lat="49.39316" lon="5.80648">
        <ele>285.39999389648</ele>
        <time>2023-06-23T08:49:50Z</time>
      </trkpt>
      <trkpt lat="49.39314" lon="5.80649">
        <ele>285.60000610352</ele>
        <time>2023-06-23T08:49:51Z</time>
      </trkpt>
      <trkpt lat="49.39312" lon="5.8065">
        <ele>285.79998779297</ele>
        <time>2023-06-23T08:49:52Z</time>
      </trkpt>
      <trkpt lat="49.39309" lon="5.80653">
        <ele>286.20001220703</ele>
        <time>2023-06-23T08:49:54Z</time>
      </trkpt>
      <trkpt lat="49.39306" lon="5.80654">
        <ele>286.60000610352</ele>
        <time>2023-06-23T08:49:56Z</time>
      </trkpt>
      <trkpt lat="49.39305" lon="5.80655">
        <ele>286.79998779297</ele>
        <time>2023-06-23T08:49:57Z</time>
      </trkpt>
      <trkpt lat="49.39304" lon="5.80656">
        <ele>287.20001220703</ele>
        <time>2023-06-23T08:49:58Z</time>
      </trkpt>
      <trkpt lat="49.39301" lon="5.80657">
        <ele>287.79998779297</ele>
        <time>2023-06-23T08:50:00Z</time>
      </trkpt>
      <trkpt lat="49.39299" lon="5.80658">
        <ele>288</ele>
        <time>2023-06-23T08:50:01Z</time>
      </trkpt>
      <trkpt lat="49.39298" lon="5.80659">
        <ele>288.20001220703</ele>
        <time>2023-06-23T08:50:02Z</time>
      </trkpt>
      <trkpt lat="49.39297" lon="5.8066">
        <ele>288.39999389648</ele>
        <time>2023-06-23T08:50:03Z</time>
      </trkpt>
      <trkpt lat="49.39295" lon="5.80661">
        <ele>288.60000610352</ele>
        <time>2023-06-23T08:50:04Z</time>
      </trkpt>
      <trkpt lat="49.39293" lon="5.80662">
        <ele>289</ele>
        <time>2023-06-23T08:50:06Z</time>
      </trkpt>
      <trkpt lat="49.39291" lon="5.80663">
        <ele>289.20001220703</ele>
        <time>2023-06-23T08:50:07Z</time>
      </trkpt>
      <trkpt lat="49.3929" lon="5.80663">
        <ele>289.20001220703</ele>
        <time>2023-06-23T08:50:08Z</time>
      </trkpt>
      <trkpt lat="49.39287" lon="5.80664">
        <ele>289.79998779297</ele>
        <time>2023-06-23T08:50:10Z</time>
      </trkpt>
      <trkpt lat="49.39284" lon="5.80661">
        <ele>290.20001220703</ele>
        <time>2023-06-23T08:50:12Z</time>
      </trkpt>
      <trkpt lat="49.39282" lon="5.80658">
        <ele>290.79998779297</ele>
        <time>2023-06-23T08:50:14Z</time>
      </trkpt>
      <trkpt lat="49.39281" lon="5.80656">
        <ele>291</ele>
        <time>2023-06-23T08:50:15Z</time>
      </trkpt>
      <trkpt lat="49.39281" lon="5.80654">
        <ele>291.39999389648</ele>
        <time>2023-06-23T08:50:16Z</time>
      </trkpt>
      <trkpt lat="49.39281" lon="5.8065">
        <ele>291.79998779297</ele>
        <time>2023-06-23T08:50:18Z</time>
      </trkpt>
      <trkpt lat="49.39282" lon="5.80646">
        <ele>292.20001220703</ele>
        <time>2023-06-23T08:50:20Z</time>
      </trkpt>
      <trkpt lat="49.39283" lon="5.80643">
        <ele>292.39999389648</ele>
        <time>2023-06-23T08:50:21Z</time>
      </trkpt>
      <trkpt lat="49.39284" lon="5.8064">
        <ele>292.60000610352</ele>
        <time>2023-06-23T08:50:22Z</time>
      </trkpt>
      <trkpt lat="49.39285" lon="5.80634">
        <ele>293</ele>
        <time>2023-06-23T08:50:24Z</time>
      </trkpt>
      <trkpt lat="49.39286" lon="5.80627">
        <ele>293.39999389648</ele>
        <time>2023-06-23T08:50:26Z</time>
      </trkpt>
      <trkpt lat="49.39288" lon="5.80619">
        <ele>293.60000610352</ele>
        <time>2023-06-23T08:50:28Z</time>
      </trkpt>
      <trkpt lat="49.39288" lon="5.80615">
        <ele>293.79998779297</ele>
        <time>2023-06-23T08:50:29Z</time>
      </trkpt>
      <trkpt lat="49.39289" lon="5.80612">
        <ele>293.79998779297</ele>
        <time>2023-06-23T08:50:30Z</time>
      </trkpt>
      <trkpt lat="49.3929" lon="5.80604">
        <ele>294.20001220703</ele>
        <time>2023-06-23T08:50:32Z</time>
      </trkpt>
      <trkpt lat="49.39292" lon="5.80598">
        <ele>294.39999389648</ele>
        <time>2023-06-23T08:50:34Z</time>
      </trkpt>
      <trkpt lat="49.39293" lon="5.8059">
        <ele>294.60000610352</ele>
        <time>2023-06-23T08:50:36Z</time>
      </trkpt>
      <trkpt lat="49.39293" lon="5.80582">
        <ele>295</ele>
        <time>2023-06-23T08:50:38Z</time>
      </trkpt>
      <trkpt lat="49.39293" lon="5.80574">
        <ele>295.39999389648</ele>
        <time>2023-06-23T08:50:40Z</time>
      </trkpt>
      <trkpt lat="49.39292" lon="5.80566">
        <ele>295.60000610352</ele>
        <time>2023-06-23T08:50:42Z</time>
      </trkpt>
      <trkpt lat="49.39291" lon="5.80559">
        <ele>295.79998779297</ele>
        <time>2023-06-23T08:50:44Z</time>
      </trkpt>
      <trkpt lat="49.39288" lon="5.80553">
        <ele>296</ele>
        <time>2023-06-23T08:50:46Z</time>
      </trkpt>
      <trkpt lat="49.39284" lon="5.80547">
        <ele>296</ele>
        <time>2023-06-23T08:50:48Z</time>
      </trkpt>
      <trkpt lat="49.3928" lon="5.80544">
        <ele>296.39999389648</ele>
        <time>2023-06-23T08:50:50Z</time>
      </trkpt>
      <trkpt lat="49.39277" lon="5.80542">
        <ele>296.60000610352</ele>
        <time>2023-06-23T08:50:51Z</time>
      </trkpt>
      <trkpt lat="49.39274" lon="5.80542">
        <ele>296.79998779297</ele>
        <time>2023-06-23T08:50:52Z</time>
      </trkpt>
      <trkpt lat="49.39268" lon="5.80541">
        <ele>297</ele>
        <time>2023-06-23T08:50:54Z</time>
      </trkpt>
      <trkpt lat="49.39263" lon="5.80543">
        <ele>297.79998779297</ele>
        <time>2023-06-23T08:50:56Z</time>
      </trkpt>
      <trkpt lat="49.39261" lon="5.80544">
        <ele>298</ele>
        <time>2023-06-23T08:50:57Z</time>
      </trkpt>
      <trkpt lat="49.39258" lon="5.80545">
        <ele>298.39999389648</ele>
        <time>2023-06-23T08:50:58Z</time>
      </trkpt>
      <trkpt lat="49.39254" lon="5.80548">
        <ele>299</ele>
        <time>2023-06-23T08:51:00Z</time>
      </trkpt>
      <trkpt lat="49.39252" lon="5.8055">
        <ele>299.20001220703</ele>
        <time>2023-06-23T08:51:01Z</time>
      </trkpt>
      <trkpt lat="49.3925" lon="5.80551">
        <ele>299.39999389648</ele>
        <time>2023-06-23T08:51:02Z</time>
      </trkpt>
      <trkpt lat="49.39248" lon="5.80553">
        <ele>299.60000610352</ele>
        <time>2023-06-23T08:51:03Z</time>
      </trkpt>
      <trkpt lat="49.39246" lon="5.80555">
        <ele>299.79998779297</ele>
        <time>2023-06-23T08:51:04Z</time>
      </trkpt>
      <trkpt lat="49.39244" lon="5.80557">
        <ele>300.20001220703</ele>
        <time>2023-06-23T08:51:05Z</time>
      </trkpt>
      <trkpt lat="49.39243" lon="5.80559">
        <ele>300.39999389648</ele>
        <time>2023-06-23T08:51:06Z</time>
      </trkpt>
      <trkpt lat="49.39239" lon="5.80562">
        <ele>301.20001220703</ele>
        <time>2023-06-23T08:51:08Z</time>
      </trkpt>
      <trkpt lat="49.39237" lon="5.80564">
        <ele>301.39999389648</ele>
        <time>2023-06-23T08:51:09Z</time>
      </trkpt>
      <trkpt lat="49.39235" lon="5.80566">
        <ele>301.79998779297</ele>
        <time>2023-06-23T08:51:10Z</time>
      </trkpt>
      <trkpt lat="49.39231" lon="5.8057">
        <ele>302.20001220703</ele>
        <time>2023-06-23T08:51:12Z</time>
      </trkpt>
      <trkpt lat="49.39229" lon="5.80572">
        <ele>302.20001220703</ele>
        <time>2023-06-23T08:51:13Z</time>
      </trkpt>
      <trkpt lat="49.39227" lon="5.80574">
        <ele>302.39999389648</ele>
        <time>2023-06-23T08:51:14Z</time>
      </trkpt>
      <trkpt lat="49.39226" lon="5.80576">
        <ele>302.60000610352</ele>
        <time>2023-06-23T08:51:15Z</time>
      </trkpt>
      <trkpt lat="49.39224" lon="5.80578">
        <ele>302.79998779297</ele>
        <time>2023-06-23T08:51:16Z</time>
      </trkpt>
      <trkpt lat="49.3922" lon="5.80582">
        <ele>303.20001220703</ele>
        <time>2023-06-23T08:51:18Z</time>
      </trkpt>
      <trkpt lat="49.39216" lon="5.80586">
        <ele>303.60000610352</ele>
        <time>2023-06-23T08:51:20Z</time>
      </trkpt>
      <trkpt lat="49.39214" lon="5.80588">
        <ele>303.79998779297</ele>
        <time>2023-06-23T08:51:21Z</time>
      </trkpt>
      <trkpt lat="49.39213" lon="5.8059">
        <ele>303.79998779297</ele>
        <time>2023-06-23T08:51:22Z</time>
      </trkpt>
      <trkpt lat="49.39209" lon="5.80595">
        <ele>304.20001220703</ele>
        <time>2023-06-23T08:51:24Z</time>
      </trkpt>
      <trkpt lat="49.39205" lon="5.80599">
        <ele>304.39999389648</ele>
        <time>2023-06-23T08:51:26Z</time>
      </trkpt>
      <trkpt lat="49.39201" lon="5.80603">
        <ele>304.79998779297</ele>
        <time>2023-06-23T08:51:28Z</time>
      </trkpt>
      <trkpt lat="49.39197" lon="5.80608">
        <ele>305</ele>
        <time>2023-06-23T08:51:30Z</time>
      </trkpt>
      <trkpt lat="49.39195" lon="5.8061">
        <ele>305.20001220703</ele>
        <time>2023-06-23T08:51:31Z</time>
      </trkpt>
      <trkpt lat="49.39193" lon="5.80612">
        <ele>305.39999389648</ele>
        <time>2023-06-23T08:51:32Z</time>
      </trkpt>
      <trkpt lat="49.39189" lon="5.80616">
        <ele>305.60000610352</ele>
        <time>2023-06-23T08:51:34Z</time>
      </trkpt>
      <trkpt lat="49.39185" lon="5.8062">
        <ele>305.79998779297</ele>
        <time>2023-06-23T08:51:36Z</time>
      </trkpt>
      <trkpt lat="49.39181" lon="5.80623">
        <ele>306.39999389648</ele>
        <time>2023-06-23T08:51:38Z</time>
      </trkpt>
      <trkpt lat="49.39177" lon="5.80627">
        <ele>306.79998779297</ele>
        <time>2023-06-23T08:51:40Z</time>
      </trkpt>
      <trkpt lat="49.39175" lon="5.80629">
        <ele>307</ele>
        <time>2023-06-23T08:51:41Z</time>
      </trkpt>
      <trkpt lat="49.39173" lon="5.8063">
        <ele>307.20001220703</ele>
        <time>2023-06-23T08:51:42Z</time>
      </trkpt>
      <trkpt lat="49.39169" lon="5.80633">
        <ele>307.60000610352</ele>
        <time>2023-06-23T08:51:44Z</time>
      </trkpt>
      <trkpt lat="49.39164" lon="5.80636">
        <ele>308</ele>
        <time>2023-06-23T08:51:46Z</time>
      </trkpt>
      <trkpt lat="49.39162" lon="5.80637">
        <ele>308.20001220703</ele>
        <time>2023-06-23T08:51:47Z</time>
      </trkpt>
      <trkpt lat="49.3916" lon="5.80638">
        <ele>308.39999389648</ele>
        <time>2023-06-23T08:51:48Z</time>
      </trkpt>
      <trkpt lat="49.39157" lon="5.80638">
        <ele>308.79998779297</ele>
        <time>2023-06-23T08:51:50Z</time>
      </trkpt>
      <trkpt lat="49.39154" lon="5.80641">
        <ele>309.20001220703</ele>
        <time>2023-06-23T08:51:52Z</time>
      </trkpt>
      <trkpt lat="49.39154" lon="5.80643">
        <ele>309.39999389648</ele>
        <time>2023-06-23T08:51:53Z</time>
      </trkpt>
      <trkpt lat="49.39154" lon="5.80645">
        <ele>309.60000610352</ele>
        <time>2023-06-23T08:51:54Z</time>
      </trkpt>
      <trkpt lat="49.39154" lon="5.80649">
        <ele>310</ele>
        <time>2023-06-23T08:51:56Z</time>
      </trkpt>
      <trkpt lat="49.39155" lon="5.80654">
        <ele>310.39999389648</ele>
        <time>2023-06-23T08:51:58Z</time>
      </trkpt>
      <trkpt lat="49.39156" lon="5.80658">
        <ele>310.39999389648</ele>
        <time>2023-06-23T08:51:59Z</time>
      </trkpt>
      <trkpt lat="49.39156" lon="5.80663">
        <ele>310.39999389648</ele>
        <time>2023-06-23T08:52:00Z</time>
      </trkpt>
      <trkpt lat="49.39158" lon="5.80674">
        <ele>310.60000610352</ele>
        <time>2023-06-23T08:52:02Z</time>
      </trkpt>
      <trkpt lat="49.3916" lon="5.80687">
        <ele>310.60000610352</ele>
        <time>2023-06-23T08:52:04Z</time>
      </trkpt>
      <trkpt lat="49.3916" lon="5.807">
        <ele>310.60000610352</ele>
        <time>2023-06-23T08:52:06Z</time>
      </trkpt>
      <trkpt lat="49.39159" lon="5.80707">
        <ele>310.60000610352</ele>
        <time>2023-06-23T08:52:07Z</time>
      </trkpt>
      <trkpt lat="49.39158" lon="5.80713">
        <ele>310.39999389648</ele>
        <time>2023-06-23T08:52:08Z</time>
      </trkpt>
      <trkpt lat="49.39156" lon="5.80723">
        <ele>310</ele>
        <time>2023-06-23T08:52:10Z</time>
      </trkpt>
      <trkpt lat="49.39156" lon="5.80731">
        <ele>309.20001220703</ele>
        <time>2023-06-23T08:52:12Z</time>
      </trkpt>
      <trkpt lat="49.39155" lon="5.80738">
        <ele>308.20001220703</ele>
        <time>2023-06-23T08:52:14Z</time>
      </trkpt>
      <trkpt lat="49.39154" lon="5.80746">
        <ele>308.20001220703</ele>
        <time>2023-06-23T08:52:16Z</time>
      </trkpt>
      <trkpt lat="49.39153" lon="5.80755">
        <ele>308</ele>
        <time>2023-06-23T08:52:18Z</time>
      </trkpt>
      <trkpt lat="49.39152" lon="5.80762">
        <ele>308</ele>
        <time>2023-06-23T08:52:20Z</time>
      </trkpt>
      <trkpt lat="49.39151" lon="5.80766">
        <ele>308</ele>
        <time>2023-06-23T08:52:22Z</time>
      </trkpt>
      <trkpt lat="49.39151" lon="5.80768">
        <ele>308</ele>
        <time>2023-06-23T08:52:23Z</time>
      </trkpt>
      <trkpt lat="49.39151" lon="5.8077">
        <ele>308</ele>
        <time>2023-06-23T08:52:24Z</time>
      </trkpt>
      <trkpt lat="49.39151" lon="5.80773">
        <ele>308</ele>
        <time>2023-06-23T08:52:26Z</time>
      </trkpt>
      <trkpt lat="49.39151" lon="5.80777">
        <ele>308.20001220703</ele>
        <time>2023-06-23T08:52:28Z</time>
      </trkpt>
      <trkpt lat="49.39151" lon="5.8078">
        <ele>308.20001220703</ele>
        <time>2023-06-23T08:52:29Z</time>
      </trkpt>
      <trkpt lat="49.39151" lon="5.80782">
        <ele>308.39999389648</ele>
        <time>2023-06-23T08:52:30Z</time>
      </trkpt>
      <trkpt lat="49.39151" lon="5.80786">
        <ele>308.39999389648</ele>
        <time>2023-06-23T08:52:32Z</time>
      </trkpt>
      <trkpt lat="49.3915" lon="5.80792">
        <ele>308.39999389648</ele>
        <time>2023-06-23T08:52:34Z</time>
      </trkpt>
      <trkpt lat="49.39149" lon="5.80796">
        <ele>308.39999389648</ele>
        <time>2023-06-23T08:52:35Z</time>
      </trkpt>
      <trkpt lat="49.39149" lon="5.808">
        <ele>308.39999389648</ele>
        <time>2023-06-23T08:52:36Z</time>
      </trkpt>
      <trkpt lat="49.39148" lon="5.80806">
        <ele>308.39999389648</ele>
        <time>2023-06-23T08:52:38Z</time>
      </trkpt>
      <trkpt lat="49.39146" lon="5.80815">
        <ele>308.20001220703</ele>
        <time>2023-06-23T08:52:40Z</time>
      </trkpt>
      <trkpt lat="49.39145" lon="5.80821">
        <ele>308.20001220703</ele>
        <time>2023-06-23T08:52:41Z</time>
      </trkpt>
      <trkpt lat="49.39144" lon="5.80826">
        <ele>308</ele>
        <time>2023-06-23T08:52:42Z</time>
      </trkpt>
      <trkpt lat="49.39143" lon="5.80837">
        <ele>307.79998779297</ele>
        <time>2023-06-23T08:52:44Z</time>
      </trkpt>
      <trkpt lat="49.39141" lon="5.80847">
        <ele>307.60000610352</ele>
        <time>2023-06-23T08:52:46Z</time>
      </trkpt>
      <trkpt lat="49.3914" lon="5.80857">
        <ele>307.39999389648</ele>
        <time>2023-06-23T08:52:48Z</time>
      </trkpt>
      <trkpt lat="49.39139" lon="5.80862">
        <ele>307</ele>
        <time>2023-06-23T08:52:49Z</time>
      </trkpt>
      <trkpt lat="49.39139" lon="5.80867">
        <ele>307</ele>
        <time>2023-06-23T08:52:50Z</time>
      </trkpt>
      <trkpt lat="49.39137" lon="5.80878">
        <ele>306.60000610352</ele>
        <time>2023-06-23T08:52:52Z</time>
      </trkpt>
      <trkpt lat="49.39136" lon="5.80885">
        <ele>306.60000610352</ele>
        <time>2023-06-23T08:52:53Z</time>
      </trkpt>
      <trkpt lat="49.39134" lon="5.80893">
        <ele>306.39999389648</ele>
        <time>2023-06-23T08:52:54Z</time>
      </trkpt>
      <trkpt lat="49.39133" lon="5.80906">
        <ele>305.79998779297</ele>
        <time>2023-06-23T08:52:56Z</time>
      </trkpt>
      <trkpt lat="49.39133" lon="5.80917">
        <ele>304.60000610352</ele>
        <time>2023-06-23T08:52:58Z</time>
      </trkpt>
      <trkpt lat="49.39133" lon="5.80927">
        <ele>303.60000610352</ele>
        <time>2023-06-23T08:53:00Z</time>
      </trkpt>
      <trkpt lat="49.39134" lon="5.80934">
        <ele>303.39999389648</ele>
        <time>2023-06-23T08:53:01Z</time>
      </trkpt>
      <trkpt lat="49.39135" lon="5.80941">
        <ele>303.39999389648</ele>
        <time>2023-06-23T08:53:02Z</time>
      </trkpt>
      <trkpt lat="49.39139" lon="5.80958">
        <ele>303.20001220703</ele>
        <time>2023-06-23T08:53:04Z</time>
      </trkpt>
      <trkpt lat="49.39141" lon="5.80983">
        <ele>303</ele>
        <time>2023-06-23T08:53:06Z</time>
      </trkpt>
      <trkpt lat="49.39142" lon="5.81011">
        <ele>302.39999389648</ele>
        <time>2023-06-23T08:53:08Z</time>
      </trkpt>
      <trkpt lat="49.39144" lon="5.81022">
        <ele>302.20001220703</ele>
        <time>2023-06-23T08:53:09Z</time>
      </trkpt>
      <trkpt lat="49.39146" lon="5.81033">
        <ele>301.39999389648</ele>
        <time>2023-06-23T08:53:10Z</time>
      </trkpt>
      <trkpt lat="49.39149" lon="5.81064">
        <ele>299.39999389648</ele>
        <time>2023-06-23T08:53:12Z</time>
      </trkpt>
      <trkpt lat="49.39152" lon="5.81078">
        <ele>298.20001220703</ele>
        <time>2023-06-23T08:53:13Z</time>
      </trkpt>
      <trkpt lat="49.39153" lon="5.81092">
        <ele>297.39999389648</ele>
        <time>2023-06-23T08:53:14Z</time>
      </trkpt>
      <trkpt lat="49.39155" lon="5.81106">
        <ele>296.60000610352</ele>
        <time>2023-06-23T08:53:15Z</time>
      </trkpt>
      <trkpt lat="49.39157" lon="5.81119">
        <ele>296</ele>
        <time>2023-06-23T08:53:16Z</time>
      </trkpt>
      <trkpt lat="49.39159" lon="5.81131">
        <ele>295.39999389648</ele>
        <time>2023-06-23T08:53:17Z</time>
      </trkpt>
      <trkpt lat="49.39161" lon="5.81143">
        <ele>294.60000610352</ele>
        <time>2023-06-23T08:53:18Z</time>
      </trkpt>
      <trkpt lat="49.39162" lon="5.81156">
        <ele>293.79998779297</ele>
        <time>2023-06-23T08:53:19Z</time>
      </trkpt>
      <trkpt lat="49.39164" lon="5.81169">
        <ele>293</ele>
        <time>2023-06-23T08:53:20Z</time>
      </trkpt>
      <trkpt lat="49.39166" lon="5.81179">
        <ele>292.20001220703</ele>
        <time>2023-06-23T08:53:21Z</time>
      </trkpt>
      <trkpt lat="49.39168" lon="5.81189">
        <ele>291.39999389648</ele>
        <time>2023-06-23T08:53:22Z</time>
      </trkpt>
      <trkpt lat="49.3917" lon="5.81199">
        <ele>291</ele>
        <time>2023-06-23T08:53:23Z</time>
      </trkpt>
      <trkpt lat="49.39172" lon="5.81208">
        <ele>290.60000610352</ele>
        <time>2023-06-23T08:53:24Z</time>
      </trkpt>
      <trkpt lat="49.39173" lon="5.81217">
        <ele>290.20001220703</ele>
        <time>2023-06-23T08:53:25Z</time>
      </trkpt>
      <trkpt lat="49.39175" lon="5.81225">
        <ele>290</ele>
        <time>2023-06-23T08:53:26Z</time>
      </trkpt>
      <trkpt lat="49.39181" lon="5.81239">
        <ele>289.60000610352</ele>
        <time>2023-06-23T08:53:28Z</time>
      </trkpt>
      <trkpt lat="49.39189" lon="5.8125">
        <ele>289.39999389648</ele>
        <time>2023-06-23T08:53:30Z</time>
      </trkpt>
      <trkpt lat="49.39195" lon="5.81265">
        <ele>289.20001220703</ele>
        <time>2023-06-23T08:53:32Z</time>
      </trkpt>
      <trkpt lat="49.39195" lon="5.8128">
        <ele>288.79998779297</ele>
        <time>2023-06-23T08:53:34Z</time>
      </trkpt>
      <trkpt lat="49.39194" lon="5.81286">
        <ele>288.60000610352</ele>
        <time>2023-06-23T08:53:35Z</time>
      </trkpt>
      <trkpt lat="49.39194" lon="5.81291">
        <ele>288.60000610352</ele>
        <time>2023-06-23T08:53:36Z</time>
      </trkpt>
      <trkpt lat="49.39194" lon="5.813">
        <ele>288.60000610352</ele>
        <time>2023-06-23T08:53:38Z</time>
      </trkpt>
      <trkpt lat="49.39194" lon="5.81306">
        <ele>288.60000610352</ele>
        <time>2023-06-23T08:53:40Z</time>
      </trkpt>
      <trkpt lat="49.39195" lon="5.81314">
        <ele>288.60000610352</ele>
        <time>2023-06-23T08:53:42Z</time>
      </trkpt>
      <trkpt lat="49.39195" lon="5.81323">
        <ele>288.60000610352</ele>
        <time>2023-06-23T08:53:44Z</time>
      </trkpt>
      <trkpt lat="49.39194" lon="5.81334">
        <ele>288.79998779297</ele>
        <time>2023-06-23T08:53:46Z</time>
      </trkpt>
      <trkpt lat="49.39193" lon="5.81342">
        <ele>289.20001220703</ele>
        <time>2023-06-23T08:53:48Z</time>
      </trkpt>
      <trkpt lat="49.39193" lon="5.8135">
        <ele>289.60000610352</ele>
        <time>2023-06-23T08:53:50Z</time>
      </trkpt>
      <trkpt lat="49.39194" lon="5.81354">
        <ele>289.60000610352</ele>
        <time>2023-06-23T08:53:51Z</time>
      </trkpt>
      <trkpt lat="49.39194" lon="5.81358">
        <ele>289.79998779297</ele>
        <time>2023-06-23T08:53:52Z</time>
      </trkpt>
      <trkpt lat="49.39194" lon="5.81369">
        <ele>290.39999389648</ele>
        <time>2023-06-23T08:53:54Z</time>
      </trkpt>
      <trkpt lat="49.39194" lon="5.81379">
        <ele>291</ele>
        <time>2023-06-23T08:53:56Z</time>
      </trkpt>
      <trkpt lat="49.39194" lon="5.81384">
        <ele>291.39999389648</ele>
        <time>2023-06-23T08:53:57Z</time>
      </trkpt>
      <trkpt lat="49.39194" lon="5.8139">
        <ele>291.60000610352</ele>
        <time>2023-06-23T08:53:58Z</time>
      </trkpt>
      <trkpt lat="49.39193" lon="5.81399">
        <ele>292.20001220703</ele>
        <time>2023-06-23T08:54:00Z</time>
      </trkpt>
      <trkpt lat="49.39192" lon="5.81407">
        <ele>292.39999389648</ele>
        <time>2023-06-23T08:54:02Z</time>
      </trkpt>
      <trkpt lat="49.39191" lon="5.81412">
        <ele>292.39999389648</ele>
        <time>2023-06-23T08:54:03Z</time>
      </trkpt>
      <trkpt lat="49.39191" lon="5.81416">
        <ele>292.60000610352</ele>
        <time>2023-06-23T08:54:04Z</time>
      </trkpt>
      <trkpt lat="49.39191" lon="5.81421">
        <ele>292.79998779297</ele>
        <time>2023-06-23T08:54:06Z</time>
      </trkpt>
      <trkpt lat="49.3919" lon="5.81429">
        <ele>293.20001220703</ele>
        <time>2023-06-23T08:54:08Z</time>
      </trkpt>
      <trkpt lat="49.3919" lon="5.81436">
        <ele>293.60000610352</ele>
        <time>2023-06-23T08:54:10Z</time>
      </trkpt>
      <trkpt lat="49.3919" lon="5.8144">
        <ele>293.79998779297</ele>
        <time>2023-06-23T08:54:11Z</time>
      </trkpt>
      <trkpt lat="49.3919" lon="5.81443">
        <ele>294</ele>
        <time>2023-06-23T08:54:12Z</time>
      </trkpt>
      <trkpt lat="49.3919" lon="5.81451">
        <ele>294</ele>
        <time>2023-06-23T08:54:14Z</time>
      </trkpt>
      <trkpt lat="49.3919" lon="5.8146">
        <ele>294.20001220703</ele>
        <time>2023-06-23T08:54:16Z</time>
      </trkpt>
      <trkpt lat="49.3919" lon="5.81465">
        <ele>294.20001220703</ele>
        <time>2023-06-23T08:54:17Z</time>
      </trkpt>
      <trkpt lat="49.39189" lon="5.8147">
        <ele>294.20001220703</ele>
        <time>2023-06-23T08:54:18Z</time>
      </trkpt>
      <trkpt lat="49.39189" lon="5.81481">
        <ele>294.20001220703</ele>
        <time>2023-06-23T08:54:20Z</time>
      </trkpt>
      <trkpt lat="49.39189" lon="5.81491">
        <ele>294.39999389648</ele>
        <time>2023-06-23T08:54:22Z</time>
      </trkpt>
      <trkpt lat="49.39189" lon="5.81495">
        <ele>294.39999389648</ele>
        <time>2023-06-23T08:54:23Z</time>
      </trkpt>
      <trkpt lat="49.39188" lon="5.81499">
        <ele>294.39999389648</ele>
        <time>2023-06-23T08:54:24Z</time>
      </trkpt>
      <trkpt lat="49.39188" lon="5.81505">
        <ele>294.39999389648</ele>
        <time>2023-06-23T08:54:26Z</time>
      </trkpt>
      <trkpt lat="49.39187" lon="5.81508">
        <ele>294.39999389648</ele>
        <time>2023-06-23T08:54:27Z</time>
      </trkpt>
      <trkpt lat="49.39186" lon="5.81511">
        <ele>294.39999389648</ele>
        <time>2023-06-23T08:54:28Z</time>
      </trkpt>
      <trkpt lat="49.39185" lon="5.81514">
        <ele>294.60000610352</ele>
        <time>2023-06-23T08:54:29Z</time>
      </trkpt>
      <trkpt lat="49.39184" lon="5.81516">
        <ele>294.79998779297</ele>
        <time>2023-06-23T08:54:30Z</time>
      </trkpt>
      <trkpt lat="49.39181" lon="5.81522">
        <ele>295.20001220703</ele>
        <time>2023-06-23T08:54:32Z</time>
      </trkpt>
      <trkpt lat="49.39178" lon="5.81528">
        <ele>295.79998779297</ele>
        <time>2023-06-23T08:54:34Z</time>
      </trkpt>
      <trkpt lat="49.39175" lon="5.81532">
        <ele>296.39999389648</ele>
        <time>2023-06-23T08:54:36Z</time>
      </trkpt>
      <trkpt lat="49.39173" lon="5.81535">
        <ele>297</ele>
        <time>2023-06-23T08:54:38Z</time>
      </trkpt>
      <trkpt lat="49.39171" lon="5.81538">
        <ele>297.79998779297</ele>
        <time>2023-06-23T08:54:40Z</time>
      </trkpt>
      <trkpt lat="49.3917" lon="5.81539">
        <ele>298.20001220703</ele>
        <time>2023-06-23T08:54:41Z</time>
      </trkpt>
      <trkpt lat="49.3917" lon="5.8154">
        <ele>298.39999389648</ele>
        <time>2023-06-23T08:54:42Z</time>
      </trkpt>
      <trkpt lat="49.39168" lon="5.81545">
        <ele>299.20001220703</ele>
        <time>2023-06-23T08:54:44Z</time>
      </trkpt>
      <trkpt lat="49.39166" lon="5.81549">
        <ele>300</ele>
        <time>2023-06-23T08:54:46Z</time>
      </trkpt>
      <trkpt lat="49.39164" lon="5.81552">
        <ele>300.39999389648</ele>
        <time>2023-06-23T08:54:47Z</time>
      </trkpt>
      <trkpt lat="49.39163" lon="5.81554">
        <ele>300.60000610352</ele>
        <time>2023-06-23T08:54:48Z</time>
      </trkpt>
      <trkpt lat="49.39162" lon="5.81558">
        <ele>301.20001220703</ele>
        <time>2023-06-23T08:54:50Z</time>
      </trkpt>
      <trkpt lat="49.39161" lon="5.8156">
        <ele>301.39999389648</ele>
        <time>2023-06-23T08:54:51Z</time>
      </trkpt>
      <trkpt lat="49.39161" lon="5.81561">
        <ele>301.60000610352</ele>
        <time>2023-06-23T08:54:52Z</time>
      </trkpt>
      <trkpt lat="49.3916" lon="5.81563">
        <ele>302</ele>
        <time>2023-06-23T08:54:53Z</time>
      </trkpt>
      <trkpt lat="49.39159" lon="5.81565">
        <ele>302.39999389648</ele>
        <time>2023-06-23T08:54:54Z</time>
      </trkpt>
      <trkpt lat="49.39157" lon="5.81569">
        <ele>302.60000610352</ele>
        <time>2023-06-23T08:54:55Z</time>
      </trkpt>
      <trkpt lat="49.39156" lon="5.81571">
        <ele>303</ele>
        <time>2023-06-23T08:54:56Z</time>
      </trkpt>
      <trkpt lat="49.39154" lon="5.81575">
        <ele>303.79998779297</ele>
        <time>2023-06-23T08:54:58Z</time>
      </trkpt>
      <trkpt lat="49.39152" lon="5.81579">
        <ele>304.20001220703</ele>
        <time>2023-06-23T08:55:00Z</time>
      </trkpt>
      <trkpt lat="49.39151" lon="5.81582">
        <ele>304.60000610352</ele>
        <time>2023-06-23T08:55:02Z</time>
      </trkpt>
      <trkpt lat="49.39149" lon="5.81585">
        <ele>305</ele>
        <time>2023-06-23T08:55:04Z</time>
      </trkpt>
      <trkpt lat="49.39148" lon="5.81587">
        <ele>305.20001220703</ele>
        <time>2023-06-23T08:55:06Z</time>
      </trkpt>
      <trkpt lat="49.39146" lon="5.8159">
        <ele>305.79998779297</ele>
        <time>2023-06-23T08:55:08Z</time>
      </trkpt>
      <trkpt lat="49.39145" lon="5.81591">
        <ele>306</ele>
        <time>2023-06-23T08:55:09Z</time>
      </trkpt>
      <trkpt lat="49.39144" lon="5.81592">
        <ele>306.20001220703</ele>
        <time>2023-06-23T08:55:10Z</time>
      </trkpt>
      <trkpt lat="49.39144" lon="5.81594">
        <ele>306.39999389648</ele>
        <time>2023-06-23T08:55:11Z</time>
      </trkpt>
      <trkpt lat="49.39142" lon="5.81595">
        <ele>306.79998779297</ele>
        <time>2023-06-23T08:55:12Z</time>
      </trkpt>
      <trkpt lat="49.39142" lon="5.81597">
        <ele>307</ele>
        <time>2023-06-23T08:55:13Z</time>
      </trkpt>
      <trkpt lat="49.39141" lon="5.81598">
        <ele>307</ele>
        <time>2023-06-23T08:55:14Z</time>
      </trkpt>
      <trkpt lat="49.39139" lon="5.81601">
        <ele>307.39999389648</ele>
        <time>2023-06-23T08:55:16Z</time>
      </trkpt>
      <trkpt lat="49.39136" lon="5.81603">
        <ele>307.79998779297</ele>
        <time>2023-06-23T08:55:18Z</time>
      </trkpt>
      <trkpt lat="49.39136" lon="5.81604">
        <ele>308</ele>
        <time>2023-06-23T08:55:19Z</time>
      </trkpt>
      <trkpt lat="49.39134" lon="5.81606">
        <ele>308.20001220703</ele>
        <time>2023-06-23T08:55:20Z</time>
      </trkpt>
      <trkpt lat="49.39131" lon="5.81609">
        <ele>308.60000610352</ele>
        <time>2023-06-23T08:55:22Z</time>
      </trkpt>
      <trkpt lat="49.39128" lon="5.81612">
        <ele>309.20001220703</ele>
        <time>2023-06-23T08:55:24Z</time>
      </trkpt>
      <trkpt lat="49.39125" lon="5.81616">
        <ele>309.60000610352</ele>
        <time>2023-06-23T08:55:26Z</time>
      </trkpt>
      <trkpt lat="49.39122" lon="5.81619">
        <ele>310</ele>
        <time>2023-06-23T08:55:28Z</time>
      </trkpt>
      <trkpt lat="49.3912" lon="5.81621">
        <ele>310.20001220703</ele>
        <time>2023-06-23T08:55:29Z</time>
      </trkpt>
      <trkpt lat="49.39118" lon="5.81623">
        <ele>310.60000610352</ele>
        <time>2023-06-23T08:55:30Z</time>
      </trkpt>
      <trkpt lat="49.39117" lon="5.81624">
        <ele>310.60000610352</ele>
        <time>2023-06-23T08:55:31Z</time>
      </trkpt>
      <trkpt lat="49.39115" lon="5.81627">
        <ele>310.79998779297</ele>
        <time>2023-06-23T08:55:32Z</time>
      </trkpt>
      <trkpt lat="49.39113" lon="5.81629">
        <ele>311.20001220703</ele>
        <time>2023-06-23T08:55:34Z</time>
      </trkpt>
      <trkpt lat="49.39111" lon="5.8163">
        <ele>311.39999389648</ele>
        <time>2023-06-23T08:55:35Z</time>
      </trkpt>
      <trkpt lat="49.3911" lon="5.81631">
        <ele>311.60000610352</ele>
        <time>2023-06-23T08:55:36Z</time>
      </trkpt>
      <trkpt lat="49.3911" lon="5.81632">
        <ele>311.60000610352</ele>
        <time>2023-06-23T08:55:37Z</time>
      </trkpt>
      <trkpt lat="49.39109" lon="5.81633">
        <ele>311.79998779297</ele>
        <time>2023-06-23T08:55:38Z</time>
      </trkpt>
      <trkpt lat="49.39108" lon="5.81635">
        <ele>312.39999389648</ele>
        <time>2023-06-23T08:55:40Z</time>
      </trkpt>
      <trkpt lat="49.39107" lon="5.81636">
        <ele>312.60000610352</ele>
        <time>2023-06-23T08:55:41Z</time>
      </trkpt>
      <trkpt lat="49.39106" lon="5.81637">
        <ele>312.79998779297</ele>
        <time>2023-06-23T08:55:42Z</time>
      </trkpt>
      <trkpt lat="49.39105" lon="5.81639">
        <ele>313</ele>
        <time>2023-06-23T08:55:44Z</time>
      </trkpt>
      <trkpt lat="49.39104" lon="5.8164">
        <ele>313.20001220703</ele>
        <time>2023-06-23T08:55:46Z</time>
      </trkpt>
      <trkpt lat="49.39104" lon="5.81642">
        <ele>313.20001220703</ele>
        <time>2023-06-23T08:55:48Z</time>
      </trkpt>
      <trkpt lat="49.39103" lon="5.81644">
        <ele>313.39999389648</ele>
        <time>2023-06-23T08:55:50Z</time>
      </trkpt>
      <trkpt lat="49.39103" lon="5.81645">
        <ele>313.60000610352</ele>
        <time>2023-06-23T08:55:52Z</time>
      </trkpt>
      <trkpt lat="49.39103" lon="5.81645">
        <ele>313.60000610352</ele>
        <time>2023-06-23T08:55:53Z</time>
      </trkpt>
      <trkpt lat="49.39103" lon="5.81645">
        <ele>313.60000610352</ele>
        <time>2023-06-23T08:55:54Z</time>
      </trkpt>
      <trkpt lat="49.39103" lon="5.81645">
        <ele>313.60000610352</ele>
        <time>2023-06-23T08:55:56Z</time>
      </trkpt>
      <trkpt lat="49.39103" lon="5.81645">
        <ele>313.60000610352</ele>
        <time>2023-06-23T08:55:58Z</time>
      </trkpt>
      <trkpt lat="49.39103" lon="5.81645">
        <ele>313.60000610352</ele>
        <time>2023-06-23T08:56:00Z</time>
      </trkpt>
      <trkpt lat="49.39103" lon="5.81645">
        <ele>313.79998779297</ele>
        <time>2023-06-23T08:56:02Z</time>
      </trkpt>
      <trkpt lat="49.39103" lon="5.81645">
        <ele>313.79998779297</ele>
        <time>2023-06-23T08:56:04Z</time>
      </trkpt>
      <trkpt lat="49.39103" lon="5.81645">
        <ele>313.79998779297</ele>
        <time>2023-06-23T08:56:06Z</time>
      </trkpt>
      <trkpt lat="49.39103" lon="5.81646">
        <ele>313.79998779297</ele>
        <time>2023-06-23T08:56:08Z</time>
      </trkpt>
      <trkpt lat="49.39103" lon="5.81646">
        <ele>313.79998779297</ele>
        <time>2023-06-23T08:56:10Z</time>
      </trkpt>
      <trkpt lat="49.39103" lon="5.81647">
        <ele>313.79998779297</ele>
        <time>2023-06-23T08:56:12Z</time>
      </trkpt>
      <trkpt lat="49.39102" lon="5.81647">
        <ele>313.60000610352</ele>
        <time>2023-06-23T08:56:14Z</time>
      </trkpt>
      <trkpt lat="49.39102" lon="5.81647">
        <ele>313.60000610352</ele>
        <time>2023-06-23T08:56:16Z</time>
      </trkpt>
      <trkpt lat="49.39102" lon="5.81647">
        <ele>313.39999389648</ele>
        <time>2023-06-23T08:56:18Z</time>
      </trkpt>
      <trkpt lat="49.39102" lon="5.81647">
        <ele>313.39999389648</ele>
        <time>2023-06-23T08:56:20Z</time>
      </trkpt>
      <trkpt lat="49.39102" lon="5.81647">
        <ele>313.39999389648</ele>
        <time>2023-06-23T08:56:22Z</time>
      </trkpt>
      <trkpt lat="49.39102" lon="5.81647">
        <ele>313.39999389648</ele>
        <time>2023-06-23T08:56:24Z</time>
      </trkpt>
      <trkpt lat="49.39102" lon="5.81647">
        <ele>313.39999389648</ele>
        <time>2023-06-23T08:56:25Z</time>
      </trkpt>
      <trkpt lat="49.39102" lon="5.81647">
        <ele>313.39999389648</ele>
        <time>2023-06-23T08:56:26Z</time>
      </trkpt>
      <trkpt lat="49.39102" lon="5.81647">
        <ele>313.39999389648</ele>
        <time>2023-06-23T08:56:28Z</time>
      </trkpt>
      <trkpt lat="49.39102" lon="5.81648">
        <ele>313.39999389648</ele>
        <time>2023-06-23T08:56:30Z</time>
      </trkpt>
      <trkpt lat="49.39102" lon="5.81648">
        <ele>313.39999389648</ele>
        <time>2023-06-23T08:56:32Z</time>
      </trkpt>
      <trkpt lat="49.39102" lon="5.81648">
        <ele>313.39999389648</ele>
        <time>2023-06-23T08:56:34Z</time>
      </trkpt>
      <trkpt lat="49.39102" lon="5.81648">
        <ele>313.39999389648</ele>
        <time>2023-06-23T08:56:35Z</time>
      </trkpt>
      <trkpt lat="49.39102" lon="5.81648">
        <ele>313.39999389648</ele>
        <time>2023-06-23T08:56:36Z</time>
      </trkpt>
      <trkpt lat="49.39102" lon="5.81648">
        <ele>313.39999389648</ele>
        <time>2023-06-23T08:56:38Z</time>
      </trkpt>
      <trkpt lat="49.39102" lon="5.81648">
        <ele>313.39999389648</ele>
        <time>2023-06-23T08:56:40Z</time>
      </trkpt>
      <trkpt lat="49.39102" lon="5.81648">
        <ele>313.39999389648</ele>
        <time>2023-06-23T08:56:42Z</time>
      </trkpt>
      <trkpt lat="49.39102" lon="5.81648">
        <ele>313.39999389648</ele>
        <time>2023-06-23T08:56:44Z</time>
      </trkpt>
      <trkpt lat="49.39102" lon="5.81648">
        <ele>313.39999389648</ele>
        <time>2023-06-23T08:56:45Z</time>
      </trkpt>
      <trkpt lat="49.39102" lon="5.81647">
        <ele>313.39999389648</ele>
        <time>2023-06-23T08:56:46Z</time>
      </trkpt>
      <trkpt lat="49.39102" lon="5.81647">
        <ele>313.39999389648</ele>
        <time>2023-06-23T08:56:48Z</time>
      </trkpt>
      <trkpt lat="49.39102" lon="5.81647">
        <ele>313.39999389648</ele>
        <time>2023-06-23T08:56:50Z</time>
      </trkpt>
      <trkpt lat="49.39102" lon="5.81647">
        <ele>313.39999389648</ele>
        <time>2023-06-23T08:56:52Z</time>
      </trkpt>
      <trkpt lat="49.39102" lon="5.81647">
        <ele>313.39999389648</ele>
        <time>2023-06-23T08:56:54Z</time>
      </trkpt>
      <trkpt lat="49.39102" lon="5.81647">
        <ele>313.39999389648</ele>
        <time>2023-06-23T08:56:56Z</time>
      </trkpt>
      <trkpt lat="49.39102" lon="5.81647">
        <ele>313.39999389648</ele>
        <time>2023-06-23T08:56:57Z</time>
      </trkpt>
      <trkpt lat="49.39102" lon="5.81647">
        <ele>313.39999389648</ele>
        <time>2023-06-23T08:56:58Z</time>
      </trkpt>
      <trkpt lat="49.39102" lon="5.81648">
        <ele>313.39999389648</ele>
        <time>2023-06-23T08:57:00Z</time>
      </trkpt>
      <trkpt lat="49.39102" lon="5.81648">
        <ele>313.39999389648</ele>
        <time>2023-06-23T08:57:02Z</time>
      </trkpt>
      <trkpt lat="49.39102" lon="5.81647">
        <ele>313.39999389648</ele>
        <time>2023-06-23T08:57:04Z</time>
      </trkpt>
      <trkpt lat="49.39102" lon="5.81647">
        <ele>313.39999389648</ele>
        <time>2023-06-23T08:57:06Z</time>
      </trkpt>
      <trkpt lat="49.39102" lon="5.81647">
        <ele>313.39999389648</ele>
        <time>2023-06-23T08:57:08Z</time>
      </trkpt>
      <trkpt lat="49.39102" lon="5.81647">
        <ele>313.39999389648</ele>
        <time>2023-06-23T08:57:10Z</time>
      </trkpt>
      <trkpt lat="49.39102" lon="5.81647">
        <ele>313.39999389648</ele>
        <time>2023-06-23T08:57:12Z</time>
      </trkpt>
      <trkpt lat="49.39102" lon="5.81648">
        <ele>313.39999389648</ele>
        <time>2023-06-23T08:57:14Z</time>
      </trkpt>
      <trkpt lat="49.39102" lon="5.81648">
        <ele>313.39999389648</ele>
        <time>2023-06-23T08:57:16Z</time>
      </trkpt>
      <trkpt lat="49.39102" lon="5.81648">
        <ele>313.39999389648</ele>
        <time>2023-06-23T08:57:18Z</time>
      </trkpt>
      <trkpt lat="49.39102" lon="5.81648">
        <ele>313.39999389648</ele>
        <time>2023-06-23T08:57:20Z</time>
      </trkpt>
      <trkpt lat="49.39102" lon="5.81648">
        <ele>313.60000610352</ele>
        <time>2023-06-23T08:57:22Z</time>
      </trkpt>
      <trkpt lat="49.39102" lon="5.81648">
        <ele>313.39999389648</ele>
        <time>2023-06-23T08:57:24Z</time>
      </trkpt>
      <trkpt lat="49.39102" lon="5.81648">
        <ele>313.39999389648</ele>
        <time>2023-06-23T08:57:25Z</time>
      </trkpt>
      <trkpt lat="49.39102" lon="5.81648">
        <ele>313.39999389648</ele>
        <time>2023-06-23T08:57:26Z</time>
      </trkpt>
      <trkpt lat="49.39102" lon="5.81648">
        <ele>313.60000610352</ele>
        <time>2023-06-23T08:57:28Z</time>
      </trkpt>
      <trkpt lat="49.39102" lon="5.81648">
        <ele>313.60000610352</ele>
        <time>2023-06-23T08:57:30Z</time>
      </trkpt>
      <trkpt lat="49.39102" lon="5.81648">
        <ele>313.60000610352</ele>
        <time>2023-06-23T08:57:32Z</time>
      </trkpt>
      <trkpt lat="49.39102" lon="5.81648">
        <ele>313.60000610352</ele>
        <time>2023-06-23T08:57:34Z</time>
      </trkpt>
      <trkpt lat="49.39102" lon="5.81648">
        <ele>313.60000610352</ele>
        <time>2023-06-23T08:57:36Z</time>
      </trkpt>
      <trkpt lat="49.39101" lon="5.81648">
        <ele>313.60000610352</ele>
        <time>2023-06-23T08:57:37Z</time>
      </trkpt>
      <trkpt lat="49.39101" lon="5.81648">
        <ele>313.60000610352</ele>
        <time>2023-06-23T08:57:38Z</time>
      </trkpt>
      <trkpt lat="49.39101" lon="5.81648">
        <ele>313.60000610352</ele>
        <time>2023-06-23T08:57:40Z</time>
      </trkpt>
      <trkpt lat="49.39101" lon="5.81648">
        <ele>313.60000610352</ele>
        <time>2023-06-23T08:57:42Z</time>
      </trkpt>
      <trkpt lat="49.39101" lon="5.81648">
        <ele>313.60000610352</ele>
        <time>2023-06-23T08:57:44Z</time>
      </trkpt>
      <trkpt lat="49.39101" lon="5.81648">
        <ele>313.60000610352</ele>
        <time>2023-06-23T08:57:46Z</time>
      </trkpt>
      <trkpt lat="49.39102" lon="5.81648">
        <ele>313.60000610352</ele>
        <time>2023-06-23T08:57:48Z</time>
      </trkpt>
      <trkpt lat="49.39102" lon="5.81648">
        <ele>313.60000610352</ele>
        <time>2023-06-23T08:57:50Z</time>
      </trkpt>
      <trkpt lat="49.39102" lon="5.81648">
        <ele>313.60000610352</ele>
        <time>2023-06-23T08:57:51Z</time>
      </trkpt>
      <trkpt lat="49.39102" lon="5.81648">
        <ele>313.60000610352</ele>
        <time>2023-06-23T08:57:52Z</time>
      </trkpt>
      <trkpt lat="49.39101" lon="5.81648">
        <ele>313.60000610352</ele>
        <time>2023-06-23T08:57:54Z</time>
      </trkpt>
      <trkpt lat="49.39101" lon="5.81647">
        <ele>313.60000610352</ele>
        <time>2023-06-23T08:57:56Z</time>
      </trkpt>
      <trkpt lat="49.39101" lon="5.81647">
        <ele>313.60000610352</ele>
        <time>2023-06-23T08:57:58Z</time>
      </trkpt>
      <trkpt lat="49.39101" lon="5.81647">
        <ele>313.60000610352</ele>
        <time>2023-06-23T08:58:00Z</time>
      </trkpt>
      <trkpt lat="49.39101" lon="5.81647">
        <ele>313.60000610352</ele>
        <time>2023-06-23T08:58:02Z</time>
      </trkpt>
      <trkpt lat="49.39101" lon="5.81647">
        <ele>313.60000610352</ele>
        <time>2023-06-23T08:58:04Z</time>
      </trkpt>
      <trkpt lat="49.39101" lon="5.81647">
        <ele>313.60000610352</ele>
        <time>2023-06-23T08:58:06Z</time>
      </trkpt>
      <trkpt lat="49.39101" lon="5.81648">
        <ele>313.60000610352</ele>
        <time>2023-06-23T08:58:08Z</time>
      </trkpt>
      <trkpt lat="49.39101" lon="5.81648">
        <ele>313.60000610352</ele>
        <time>2023-06-23T08:58:10Z</time>
      </trkpt>
      <trkpt lat="49.39101" lon="5.81648">
        <ele>313.60000610352</ele>
        <time>2023-06-23T08:58:11Z</time>
      </trkpt>
      <trkpt lat="49.39101" lon="5.81648">
        <ele>313.60000610352</ele>
        <time>2023-06-23T08:58:12Z</time>
      </trkpt>
      <trkpt lat="49.39101" lon="5.81648">
        <ele>313.60000610352</ele>
        <time>2023-06-23T08:58:14Z</time>
      </trkpt>
      <trkpt lat="49.39101" lon="5.81648">
        <ele>313.60000610352</ele>
        <time>2023-06-23T08:58:16Z</time>
      </trkpt>
      <trkpt lat="49.39101" lon="5.81648">
        <ele>313.60000610352</ele>
        <time>2023-06-23T08:58:18Z</time>
      </trkpt>
      <trkpt lat="49.39101" lon="5.81648">
        <ele>313.60000610352</ele>
        <time>2023-06-23T08:58:19Z</time>
      </trkpt>
      <trkpt lat="49.39101" lon="5.81648">
        <ele>313.60000610352</ele>
        <time>2023-06-23T08:58:20Z</time>
      </trkpt>
      <trkpt lat="49.39101" lon="5.81648">
        <ele>313.60000610352</ele>
        <time>2023-06-23T08:58:22Z</time>
      </trkpt>
      <trkpt lat="49.39101" lon="5.81648">
        <ele>313.60000610352</ele>
        <time>2023-06-23T08:58:24Z</time>
      </trkpt>
      <trkpt lat="49.39101" lon="5.81648">
        <ele>313.60000610352</ele>
        <time>2023-06-23T08:58:26Z</time>
      </trkpt>
      <trkpt lat="49.39101" lon="5.81648">
        <ele>313.60000610352</ele>
        <time>2023-06-23T08:58:28Z</time>
      </trkpt>
      <trkpt lat="49.39101" lon="5.81648">
        <ele>313.60000610352</ele>
        <time>2023-06-23T08:58:30Z</time>
      </trkpt>
      <trkpt lat="49.39101" lon="5.81648">
        <ele>313.39999389648</ele>
        <time>2023-06-23T08:58:32Z</time>
      </trkpt>
      <trkpt lat="49.39101" lon="5.81648">
        <ele>313.39999389648</ele>
        <time>2023-06-23T08:58:34Z</time>
      </trkpt>
      <trkpt lat="49.39101" lon="5.81648">
        <ele>313.39999389648</ele>
        <time>2023-06-23T08:58:36Z</time>
      </trkpt>
      <trkpt lat="49.39101" lon="5.81648">
        <ele>313.39999389648</ele>
        <time>2023-06-23T08:58:38Z</time>
      </trkpt>
      <trkpt lat="49.39101" lon="5.81648">
        <ele>313.39999389648</ele>
        <time>2023-06-23T08:58:40Z</time>
      </trkpt>
      <trkpt lat="49.39101" lon="5.81648">
        <ele>313.39999389648</ele>
        <time>2023-06-23T08:58:42Z</time>
      </trkpt>
      <trkpt lat="49.39101" lon="5.81649">
        <ele>313.39999389648</ele>
        <time>2023-06-23T08:58:44Z</time>
      </trkpt>
      <trkpt lat="49.39101" lon="5.81649">
        <ele>313.39999389648</ele>
        <time>2023-06-23T08:58:46Z</time>
      </trkpt>
      <trkpt lat="49.39101" lon="5.81648">
        <ele>313.39999389648</ele>
        <time>2023-06-23T08:58:48Z</time>
      </trkpt>
      <trkpt lat="49.39101" lon="5.81648">
        <ele>313.39999389648</ele>
        <time>2023-06-23T08:58:50Z</time>
      </trkpt>
      <trkpt lat="49.39101" lon="5.81649">
        <ele>313.39999389648</ele>
        <time>2023-06-23T08:58:52Z</time>
      </trkpt>
      <trkpt lat="49.39101" lon="5.81649">
        <ele>313.39999389648</ele>
        <time>2023-06-23T08:58:53Z</time>
      </trkpt>
      <trkpt lat="49.39101" lon="5.81649">
        <ele>313.39999389648</ele>
        <time>2023-06-23T08:58:54Z</time>
      </trkpt>
      <trkpt lat="49.39101" lon="5.81649">
        <ele>313.39999389648</ele>
        <time>2023-06-23T08:58:56Z</time>
      </trkpt>
      <trkpt lat="49.39101" lon="5.81649">
        <ele>313.39999389648</ele>
        <time>2023-06-23T08:58:58Z</time>
      </trkpt>
      <trkpt lat="49.39101" lon="5.81649">
        <ele>313.39999389648</ele>
        <time>2023-06-23T08:59:00Z</time>
      </trkpt>
      <trkpt lat="49.39101" lon="5.81649">
        <ele>313.39999389648</ele>
        <time>2023-06-23T08:59:02Z</time>
      </trkpt>
      <trkpt lat="49.39101" lon="5.81649">
        <ele>313.39999389648</ele>
        <time>2023-06-23T08:59:04Z</time>
      </trkpt>
      <trkpt lat="49.39101" lon="5.81649">
        <ele>313.39999389648</ele>
        <time>2023-06-23T08:59:06Z</time>
      </trkpt>
      <trkpt lat="49.39101" lon="5.81649">
        <ele>313.39999389648</ele>
        <time>2023-06-23T08:59:08Z</time>
      </trkpt>
      <trkpt lat="49.39101" lon="5.81649">
        <ele>313.39999389648</ele>
        <time>2023-06-23T08:59:09Z</time>
      </trkpt>
      <trkpt lat="49.39101" lon="5.81649">
        <ele>313.39999389648</ele>
        <time>2023-06-23T08:59:10Z</time>
      </trkpt>
      <trkpt lat="49.39101" lon="5.81649">
        <ele>313.39999389648</ele>
        <time>2023-06-23T08:59:12Z</time>
      </trkpt>
      <trkpt lat="49.39101" lon="5.81649">
        <ele>313.39999389648</ele>
        <time>2023-06-23T08:59:14Z</time>
      </trkpt>
      <trkpt lat="49.39101" lon="5.81649">
        <ele>313.39999389648</ele>
        <time>2023-06-23T08:59:16Z</time>
      </trkpt>
      <trkpt lat="49.39101" lon="5.81649">
        <ele>313.39999389648</ele>
        <time>2023-06-23T08:59:18Z</time>
      </trkpt>
      <trkpt lat="49.39101" lon="5.81649">
        <ele>313.39999389648</ele>
        <time>2023-06-23T08:59:20Z</time>
      </trkpt>
      <trkpt lat="49.391" lon="5.81649">
        <ele>313.39999389648</ele>
        <time>2023-06-23T08:59:22Z</time>
      </trkpt>
      <trkpt lat="49.391" lon="5.81649">
        <ele>313.39999389648</ele>
        <time>2023-06-23T08:59:24Z</time>
      </trkpt>
      <trkpt lat="49.391" lon="5.81649">
        <ele>313.39999389648</ele>
        <time>2023-06-23T08:59:25Z</time>
      </trkpt>
      <trkpt lat="49.391" lon="5.81649">
        <ele>313.39999389648</ele>
        <time>2023-06-23T08:59:26Z</time>
      </trkpt>
      <trkpt lat="49.391" lon="5.81649">
        <ele>313.39999389648</ele>
        <time>2023-06-23T08:59:28Z</time>
      </trkpt>
      <trkpt lat="49.391" lon="5.81649">
        <ele>313.39999389648</ele>
        <time>2023-06-23T08:59:30Z</time>
      </trkpt>
      <trkpt lat="49.391" lon="5.81649">
        <ele>313.39999389648</ele>
        <time>2023-06-23T08:59:31Z</time>
      </trkpt>
      <trkpt lat="49.391" lon="5.81649">
        <ele>313.39999389648</ele>
        <time>2023-06-23T08:59:32Z</time>
      </trkpt>
      <trkpt lat="49.39099" lon="5.81649">
        <ele>313.39999389648</ele>
        <time>2023-06-23T08:59:34Z</time>
      </trkpt>
      <trkpt lat="49.39099" lon="5.81649">
        <ele>313.39999389648</ele>
        <time>2023-06-23T08:59:36Z</time>
      </trkpt>
      <trkpt lat="49.39099" lon="5.81649">
        <ele>313.39999389648</ele>
        <time>2023-06-23T08:59:38Z</time>
      </trkpt>
      <trkpt lat="49.39099" lon="5.81649">
        <ele>313.39999389648</ele>
        <time>2023-06-23T08:59:40Z</time>
      </trkpt>
      <trkpt lat="49.39099" lon="5.81649">
        <ele>313.39999389648</ele>
        <time>2023-06-23T08:59:42Z</time>
      </trkpt>
      <trkpt lat="49.39099" lon="5.81649">
        <ele>313.39999389648</ele>
        <time>2023-06-23T08:59:43Z</time>
      </trkpt>
      <trkpt lat="49.39099" lon="5.81649">
        <ele>313.39999389648</ele>
        <time>2023-06-23T08:59:44Z</time>
      </trkpt>
      <trkpt lat="49.39099" lon="5.81649">
        <ele>313.39999389648</ele>
        <time>2023-06-23T08:59:46Z</time>
      </trkpt>
      <trkpt lat="49.39099" lon="5.81648">
        <ele>313.39999389648</ele>
        <time>2023-06-23T08:59:48Z</time>
      </trkpt>
      <trkpt lat="49.39099" lon="5.81648">
        <ele>313.39999389648</ele>
        <time>2023-06-23T08:59:50Z</time>
      </trkpt>
      <trkpt lat="49.39099" lon="5.81648">
        <ele>313.39999389648</ele>
        <time>2023-06-23T08:59:52Z</time>
      </trkpt>
      <trkpt lat="49.39099" lon="5.81648">
        <ele>313.39999389648</ele>
        <time>2023-06-23T08:59:53Z</time>
      </trkpt>
      <trkpt lat="49.39098" lon="5.81648">
        <ele>313.39999389648</ele>
        <time>2023-06-23T08:59:54Z</time>
      </trkpt>
      <trkpt lat="49.39098" lon="5.81648">
        <ele>313.39999389648</ele>
        <time>2023-06-23T08:59:56Z</time>
      </trkpt>
      <trkpt lat="49.39098" lon="5.81648">
        <ele>313.39999389648</ele>
        <time>2023-06-23T08:59:58Z</time>
      </trkpt>
      <trkpt lat="49.39098" lon="5.81648">
        <ele>313.39999389648</ele>
        <time>2023-06-23T09:00:00Z</time>
      </trkpt>
      <trkpt lat="49.39098" lon="5.81648">
        <ele>313.39999389648</ele>
        <time>2023-06-23T09:00:02Z</time>
      </trkpt>
      <trkpt lat="49.39099" lon="5.81648">
        <ele>313.39999389648</ele>
        <time>2023-06-23T09:00:04Z</time>
      </trkpt>
      <trkpt lat="49.39099" lon="5.81648">
        <ele>313.39999389648</ele>
        <time>2023-06-23T09:00:06Z</time>
      </trkpt>
      <trkpt lat="49.39099" lon="5.81648">
        <ele>313.39999389648</ele>
        <time>2023-06-23T09:00:08Z</time>
      </trkpt>
      <trkpt lat="49.39099" lon="5.81648">
        <ele>313.39999389648</ele>
        <time>2023-06-23T09:00:10Z</time>
      </trkpt>
      <trkpt lat="49.39099" lon="5.81648">
        <ele>313.39999389648</ele>
        <time>2023-06-23T09:00:12Z</time>
      </trkpt>
      <trkpt lat="49.39099" lon="5.81648">
        <ele>313.39999389648</ele>
        <time>2023-06-23T09:00:14Z</time>
      </trkpt>
      <trkpt lat="49.39099" lon="5.81648">
        <ele>313.20001220703</ele>
        <time>2023-06-23T09:00:16Z</time>
      </trkpt>
      <trkpt lat="49.39099" lon="5.81648">
        <ele>313.20001220703</ele>
        <time>2023-06-23T09:00:18Z</time>
      </trkpt>
      <trkpt lat="49.39099" lon="5.81648">
        <ele>313.20001220703</ele>
        <time>2023-06-23T09:00:20Z</time>
      </trkpt>
      <trkpt lat="49.39099" lon="5.81648">
        <ele>313.20001220703</ele>
        <time>2023-06-23T09:00:22Z</time>
      </trkpt>
      <trkpt lat="49.39099" lon="5.81648">
        <ele>313.20001220703</ele>
        <time>2023-06-23T09:00:24Z</time>
      </trkpt>
      <trkpt lat="49.39099" lon="5.81648">
        <ele>313.20001220703</ele>
        <time>2023-06-23T09:00:26Z</time>
      </trkpt>
      <trkpt lat="49.39099" lon="5.81648">
        <ele>313.20001220703</ele>
        <time>2023-06-23T09:00:27Z</time>
      </trkpt>
      <trkpt lat="49.39099" lon="5.81648">
        <ele>313.20001220703</ele>
        <time>2023-06-23T09:00:28Z</time>
      </trkpt>
      <trkpt lat="49.39099" lon="5.81648">
        <ele>313.20001220703</ele>
        <time>2023-06-23T09:00:30Z</time>
      </trkpt>
      <trkpt lat="49.39099" lon="5.81648">
        <ele>313.39999389648</ele>
        <time>2023-06-23T09:00:32Z</time>
      </trkpt>
      <trkpt lat="49.39099" lon="5.81648">
        <ele>313.39999389648</ele>
        <time>2023-06-23T09:00:34Z</time>
      </trkpt>
      <trkpt lat="49.39099" lon="5.81648">
        <ele>313.39999389648</ele>
        <time>2023-06-23T09:00:36Z</time>
      </trkpt>
      <trkpt lat="49.39099" lon="5.81648">
        <ele>313.39999389648</ele>
        <time>2023-06-23T09:00:38Z</time>
      </trkpt>
      <trkpt lat="49.39099" lon="5.81648">
        <ele>313.39999389648</ele>
        <time>2023-06-23T09:00:40Z</time>
      </trkpt>
      <trkpt lat="49.39099" lon="5.81648">
        <ele>313.39999389648</ele>
        <time>2023-06-23T09:00:42Z</time>
      </trkpt>
      <trkpt lat="49.39099" lon="5.81648">
        <ele>313.39999389648</ele>
        <time>2023-06-23T09:00:43Z</time>
      </trkpt>
      <trkpt lat="49.39099" lon="5.81648">
        <ele>313.39999389648</ele>
        <time>2023-06-23T09:00:44Z</time>
      </trkpt>
      <trkpt lat="49.39099" lon="5.81648">
        <ele>313.39999389648</ele>
        <time>2023-06-23T09:00:46Z</time>
      </trkpt>
      <trkpt lat="49.39099" lon="5.81648">
        <ele>313.39999389648</ele>
        <time>2023-06-23T09:00:48Z</time>
      </trkpt>
      <trkpt lat="49.39099" lon="5.81648">
        <ele>313.39999389648</ele>
        <time>2023-06-23T09:00:50Z</time>
      </trkpt>
      <trkpt lat="49.39099" lon="5.81648">
        <ele>313.39999389648</ele>
        <time>2023-06-23T09:00:52Z</time>
      </trkpt>
      <trkpt lat="49.39099" lon="5.81648">
        <ele>313.39999389648</ele>
        <time>2023-06-23T09:00:54Z</time>
      </trkpt>
      <trkpt lat="49.39099" lon="5.81648">
        <ele>313.39999389648</ele>
        <time>2023-06-23T09:00:56Z</time>
      </trkpt>
      <trkpt lat="49.39099" lon="5.81648">
        <ele>313.39999389648</ele>
        <time>2023-06-23T09:00:58Z</time>
      </trkpt>
      <trkpt lat="49.39099" lon="5.81648">
        <ele>313.20001220703</ele>
        <time>2023-06-23T09:01:00Z</time>
      </trkpt>
      <trkpt lat="49.39099" lon="5.81648">
        <ele>313.20001220703</ele>
        <time>2023-06-23T09:01:02Z</time>
      </trkpt>
      <trkpt lat="49.39098" lon="5.81648">
        <ele>313.20001220703</ele>
        <time>2023-06-23T09:01:04Z</time>
      </trkpt>
      <trkpt lat="49.39098" lon="5.81649">
        <ele>313.20001220703</ele>
        <time>2023-06-23T09:01:06Z</time>
      </trkpt>
      <trkpt lat="49.39098" lon="5.81648">
        <ele>313.20001220703</ele>
        <time>2023-06-23T09:01:08Z</time>
      </trkpt>
      <trkpt lat="49.39098" lon="5.81649">
        <ele>313.20001220703</ele>
        <time>2023-06-23T09:01:10Z</time>
      </trkpt>
      <trkpt lat="49.39098" lon="5.81649">
        <ele>313.20001220703</ele>
        <time>2023-06-23T09:01:12Z</time>
      </trkpt>
      <trkpt lat="49.39098" lon="5.81649">
        <ele>313.20001220703</ele>
        <time>2023-06-23T09:01:14Z</time>
      </trkpt>
      <trkpt lat="49.39098" lon="5.81649">
        <ele>313.20001220703</ele>
        <time>2023-06-23T09:01:16Z</time>
      </trkpt>
      <trkpt lat="49.39099" lon="5.81649">
        <ele>313.20001220703</ele>
        <time>2023-06-23T09:01:18Z</time>
      </trkpt>
      <trkpt lat="49.39099" lon="5.81649">
        <ele>313.20001220703</ele>
        <time>2023-06-23T09:01:20Z</time>
      </trkpt>
      <trkpt lat="49.39099" lon="5.81649">
        <ele>313.20001220703</ele>
        <time>2023-06-23T09:01:22Z</time>
      </trkpt>
      <trkpt lat="49.39099" lon="5.81649">
        <ele>313.20001220703</ele>
        <time>2023-06-23T09:01:24Z</time>
      </trkpt>
      <trkpt lat="49.39099" lon="5.81649">
        <ele>313.20001220703</ele>
        <time>2023-06-23T09:01:26Z</time>
      </trkpt>
      <trkpt lat="49.39099" lon="5.81649">
        <ele>313.20001220703</ele>
        <time>2023-06-23T09:01:28Z</time>
      </trkpt>
      <trkpt lat="49.39099" lon="5.81649">
        <ele>313.20001220703</ele>
        <time>2023-06-23T09:01:30Z</time>
      </trkpt>
      <trkpt lat="49.39099" lon="5.81649">
        <ele>313.20001220703</ele>
        <time>2023-06-23T09:01:32Z</time>
      </trkpt>
      <trkpt lat="49.39099" lon="5.81649">
        <ele>313.20001220703</ele>
        <time>2023-06-23T09:01:34Z</time>
      </trkpt>
      <trkpt lat="49.39099" lon="5.81649">
        <ele>313.20001220703</ele>
        <time>2023-06-23T09:01:36Z</time>
      </trkpt>
      <trkpt lat="49.39099" lon="5.81649">
        <ele>313.20001220703</ele>
        <time>2023-06-23T09:01:38Z</time>
      </trkpt>
      <trkpt lat="49.39099" lon="5.81649">
        <ele>313.20001220703</ele>
        <time>2023-06-23T09:01:40Z</time>
      </trkpt>
      <trkpt lat="49.39099" lon="5.81649">
        <ele>313.20001220703</ele>
        <time>2023-06-23T09:01:42Z</time>
      </trkpt>
      <trkpt lat="49.39099" lon="5.81649">
        <ele>313.20001220703</ele>
        <time>2023-06-23T09:01:44Z</time>
      </trkpt>
      <trkpt lat="49.39099" lon="5.81649">
        <ele>313.20001220703</ele>
        <time>2023-06-23T09:01:46Z</time>
      </trkpt>
      <trkpt lat="49.39099" lon="5.81649">
        <ele>313.20001220703</ele>
        <time>2023-06-23T09:01:48Z</time>
      </trkpt>
      <trkpt lat="49.39099" lon="5.81649">
        <ele>313.20001220703</ele>
        <time>2023-06-23T09:01:50Z</time>
      </trkpt>
      <trkpt lat="49.39099" lon="5.81649">
        <ele>313.20001220703</ele>
        <time>2023-06-23T09:01:52Z</time>
      </trkpt>
      <trkpt lat="49.39099" lon="5.81649">
        <ele>313.20001220703</ele>
        <time>2023-06-23T09:01:54Z</time>
      </trkpt>
      <trkpt lat="49.39099" lon="5.81649">
        <ele>313.20001220703</ele>
        <time>2023-06-23T09:01:56Z</time>
      </trkpt>
      <trkpt lat="49.39099" lon="5.81649">
        <ele>313.20001220703</ele>
        <time>2023-06-23T09:01:57Z</time>
      </trkpt>
      <trkpt lat="49.39099" lon="5.81649">
        <ele>313.20001220703</ele>
        <time>2023-06-23T09:01:58Z</time>
      </trkpt>
      <trkpt lat="49.39099" lon="5.81649">
        <ele>313.39999389648</ele>
        <time>2023-06-23T09:02:00Z</time>
      </trkpt>
      <trkpt lat="49.39099" lon="5.81649">
        <ele>313.39999389648</ele>
        <time>2023-06-23T09:02:02Z</time>
      </trkpt>
      <trkpt lat="49.39098" lon="5.81649">
        <ele>313.39999389648</ele>
        <time>2023-06-23T09:02:04Z</time>
      </trkpt>
      <trkpt lat="49.39098" lon="5.81649">
        <ele>313.39999389648</ele>
        <time>2023-06-23T09:02:05Z</time>
      </trkpt>
      <trkpt lat="49.39098" lon="5.81649">
        <ele>313.39999389648</ele>
        <time>2023-06-23T09:02:06Z</time>
      </trkpt>
      <trkpt lat="49.39098" lon="5.81649">
        <ele>313.39999389648</ele>
        <time>2023-06-23T09:02:08Z</time>
      </trkpt>
      <trkpt lat="49.39098" lon="5.81649">
        <ele>313.39999389648</ele>
        <time>2023-06-23T09:02:10Z</time>
      </trkpt>
      <trkpt lat="49.39098" lon="5.81649">
        <ele>313.39999389648</ele>
        <time>2023-06-23T09:02:12Z</time>
      </trkpt>
      <trkpt lat="49.39098" lon="5.81649">
        <ele>313.39999389648</ele>
        <time>2023-06-23T09:02:13Z</time>
      </trkpt>
      <trkpt lat="49.39098" lon="5.81649">
        <ele>313.39999389648</ele>
        <time>2023-06-23T09:02:14Z</time>
      </trkpt>
      <trkpt lat="49.39098" lon="5.81649">
        <ele>313.39999389648</ele>
        <time>2023-06-23T09:02:16Z</time>
      </trkpt>
      <trkpt lat="49.39098" lon="5.81649">
        <ele>313.39999389648</ele>
        <time>2023-06-23T09:02:18Z</time>
      </trkpt>
      <trkpt lat="49.39098" lon="5.81649">
        <ele>313.39999389648</ele>
        <time>2023-06-23T09:02:20Z</time>
      </trkpt>
      <trkpt lat="49.39098" lon="5.8165">
        <ele>313.39999389648</ele>
        <time>2023-06-23T09:02:22Z</time>
      </trkpt>
      <trkpt lat="49.39098" lon="5.8165">
        <ele>313.39999389648</ele>
        <time>2023-06-23T09:02:23Z</time>
      </trkpt>
      <trkpt lat="49.39098" lon="5.8165">
        <ele>313.60000610352</ele>
        <time>2023-06-23T09:02:24Z</time>
      </trkpt>
      <trkpt lat="49.39097" lon="5.8165">
        <ele>313.60000610352</ele>
        <time>2023-06-23T09:02:26Z</time>
      </trkpt>
      <trkpt lat="49.39097" lon="5.8165">
        <ele>313.60000610352</ele>
        <time>2023-06-23T09:02:28Z</time>
      </trkpt>
      <trkpt lat="49.39097" lon="5.8165">
        <ele>313.60000610352</ele>
        <time>2023-06-23T09:02:30Z</time>
      </trkpt>
      <trkpt lat="49.39097" lon="5.8165">
        <ele>313.60000610352</ele>
        <time>2023-06-23T09:02:32Z</time>
      </trkpt>
      <trkpt lat="49.39097" lon="5.8165">
        <ele>313.60000610352</ele>
        <time>2023-06-23T09:02:34Z</time>
      </trkpt>
      <trkpt lat="49.39097" lon="5.8165">
        <ele>313.60000610352</ele>
        <time>2023-06-23T09:02:36Z</time>
      </trkpt>
      <trkpt lat="49.39097" lon="5.8165">
        <ele>313.60000610352</ele>
        <time>2023-06-23T09:02:38Z</time>
      </trkpt>
      <trkpt lat="49.39097" lon="5.8165">
        <ele>313.60000610352</ele>
        <time>2023-06-23T09:02:40Z</time>
      </trkpt>
      <trkpt lat="49.39097" lon="5.8165">
        <ele>313.60000610352</ele>
        <time>2023-06-23T09:02:42Z</time>
      </trkpt>
      <trkpt lat="49.39097" lon="5.8165">
        <ele>313.39999389648</ele>
        <time>2023-06-23T09:02:44Z</time>
      </trkpt>
      <trkpt lat="49.39097" lon="5.8165">
        <ele>313.39999389648</ele>
        <time>2023-06-23T09:02:46Z</time>
      </trkpt>
      <trkpt lat="49.39097" lon="5.8165">
        <ele>313.39999389648</ele>
        <time>2023-06-23T09:02:48Z</time>
      </trkpt>
      <trkpt lat="49.39097" lon="5.8165">
        <ele>313.39999389648</ele>
        <time>2023-06-23T09:02:50Z</time>
      </trkpt>
      <trkpt lat="49.39097" lon="5.8165">
        <ele>313.39999389648</ele>
        <time>2023-06-23T09:02:52Z</time>
      </trkpt>
      <trkpt lat="49.39097" lon="5.8165">
        <ele>313.39999389648</ele>
        <time>2023-06-23T09:02:54Z</time>
      </trkpt>
      <trkpt lat="49.39097" lon="5.8165">
        <ele>313.39999389648</ele>
        <time>2023-06-23T09:02:56Z</time>
      </trkpt>
      <trkpt lat="49.39097" lon="5.8165">
        <ele>313.39999389648</ele>
        <time>2023-06-23T09:02:57Z</time>
      </trkpt>
      <trkpt lat="49.39097" lon="5.8165">
        <ele>313.39999389648</ele>
        <time>2023-06-23T09:02:58Z</time>
      </trkpt>
      <trkpt lat="49.39096" lon="5.8165">
        <ele>313.39999389648</ele>
        <time>2023-06-23T09:03:00Z</time>
      </trkpt>
      <trkpt lat="49.39096" lon="5.8165">
        <ele>313.39999389648</ele>
        <time>2023-06-23T09:03:02Z</time>
      </trkpt>
      <trkpt lat="49.39096" lon="5.81651">
        <ele>313.39999389648</ele>
        <time>2023-06-23T09:03:04Z</time>
      </trkpt>
      <trkpt lat="49.39097" lon="5.81651">
        <ele>313.39999389648</ele>
        <time>2023-06-23T09:03:06Z</time>
      </trkpt>
      <trkpt lat="49.39097" lon="5.81651">
        <ele>313.39999389648</ele>
        <time>2023-06-23T09:03:08Z</time>
      </trkpt>
      <trkpt lat="49.39097" lon="5.81651">
        <ele>313.39999389648</ele>
        <time>2023-06-23T09:03:10Z</time>
      </trkpt>
      <trkpt lat="49.39097" lon="5.81651">
        <ele>313.39999389648</ele>
        <time>2023-06-23T09:03:12Z</time>
      </trkpt>
      <trkpt lat="49.39096" lon="5.81651">
        <ele>313.39999389648</ele>
        <time>2023-06-23T09:03:14Z</time>
      </trkpt>
      <trkpt lat="49.39097" lon="5.81651">
        <ele>313.39999389648</ele>
        <time>2023-06-23T09:03:15Z</time>
      </trkpt>
      <trkpt lat="49.39097" lon="5.81651">
        <ele>313.39999389648</ele>
        <time>2023-06-23T09:03:16Z</time>
      </trkpt>
      <trkpt lat="49.39097" lon="5.81651">
        <ele>313.39999389648</ele>
        <time>2023-06-23T09:03:18Z</time>
      </trkpt>
      <trkpt lat="49.39097" lon="5.81651">
        <ele>313.39999389648</ele>
        <time>2023-06-23T09:03:20Z</time>
      </trkpt>
      <trkpt lat="49.39097" lon="5.81651">
        <ele>313.39999389648</ele>
        <time>2023-06-23T09:03:22Z</time>
      </trkpt>
      <trkpt lat="49.39097" lon="5.81651">
        <ele>313.39999389648</ele>
        <time>2023-06-23T09:03:24Z</time>
      </trkpt>
      <trkpt lat="49.39097" lon="5.81651">
        <ele>313.39999389648</ele>
        <time>2023-06-23T09:03:26Z</time>
      </trkpt>
      <trkpt lat="49.39097" lon="5.81652">
        <ele>313.39999389648</ele>
        <time>2023-06-23T09:03:27Z</time>
      </trkpt>
      <trkpt lat="49.39096" lon="5.81652">
        <ele>313.39999389648</ele>
        <time>2023-06-23T09:03:28Z</time>
      </trkpt>
      <trkpt lat="49.39097" lon="5.81652">
        <ele>313.39999389648</ele>
        <time>2023-06-23T09:03:30Z</time>
      </trkpt>
      <trkpt lat="49.39097" lon="5.81651">
        <ele>313.39999389648</ele>
        <time>2023-06-23T09:03:32Z</time>
      </trkpt>
      <trkpt lat="49.39097" lon="5.81651">
        <ele>313.60000610352</ele>
        <time>2023-06-23T09:03:34Z</time>
      </trkpt>
      <trkpt lat="49.39097" lon="5.81651">
        <ele>313.79998779297</ele>
        <time>2023-06-23T09:03:36Z</time>
      </trkpt>
      <trkpt lat="49.39097" lon="5.81651">
        <ele>314</ele>
        <time>2023-06-23T09:03:38Z</time>
      </trkpt>
      <trkpt lat="49.39097" lon="5.81651">
        <ele>314</ele>
        <time>2023-06-23T09:03:40Z</time>
      </trkpt>
      <trkpt lat="49.39097" lon="5.81652">
        <ele>314</ele>
        <time>2023-06-23T09:03:42Z</time>
      </trkpt>
      <trkpt lat="49.39097" lon="5.81652">
        <ele>314</ele>
        <time>2023-06-23T09:03:43Z</time>
      </trkpt>
      <trkpt lat="49.39097" lon="5.81652">
        <ele>314</ele>
        <time>2023-06-23T09:03:44Z</time>
      </trkpt>
      <trkpt lat="49.39097" lon="5.81652">
        <ele>314</ele>
        <time>2023-06-23T09:03:46Z</time>
      </trkpt>
      <trkpt lat="49.39097" lon="5.81652">
        <ele>314</ele>
        <time>2023-06-23T09:03:48Z</time>
      </trkpt>
      <trkpt lat="49.39097" lon="5.81651">
        <ele>314</ele>
        <time>2023-06-23T09:03:50Z</time>
      </trkpt>
      <trkpt lat="49.39097" lon="5.81651">
        <ele>314</ele>
        <time>2023-06-23T09:03:52Z</time>
      </trkpt>
      <trkpt lat="49.39097" lon="5.81651">
        <ele>314</ele>
        <time>2023-06-23T09:03:54Z</time>
      </trkpt>
      <trkpt lat="49.39097" lon="5.81651">
        <ele>314</ele>
        <time>2023-06-23T09:03:56Z</time>
      </trkpt>
      <trkpt lat="49.39097" lon="5.81651">
        <ele>314</ele>
        <time>2023-06-23T09:03:58Z</time>
      </trkpt>
      <trkpt lat="49.39097" lon="5.81651">
        <ele>314</ele>
        <time>2023-06-23T09:04:00Z</time>
      </trkpt>
      <trkpt lat="49.39097" lon="5.81651">
        <ele>314</ele>
        <time>2023-06-23T09:04:02Z</time>
      </trkpt>
      <trkpt lat="49.39097" lon="5.81651">
        <ele>314</ele>
        <time>2023-06-23T09:04:04Z</time>
      </trkpt>
      <trkpt lat="49.39097" lon="5.81651">
        <ele>314</ele>
        <time>2023-06-23T09:04:06Z</time>
      </trkpt>
      <trkpt lat="49.39097" lon="5.81652">
        <ele>314</ele>
        <time>2023-06-23T09:04:08Z</time>
      </trkpt>
      <trkpt lat="49.39097" lon="5.81652">
        <ele>314</ele>
        <time>2023-06-23T09:04:10Z</time>
      </trkpt>
      <trkpt lat="49.39097" lon="5.81652">
        <ele>314</ele>
        <time>2023-06-23T09:04:12Z</time>
      </trkpt>
      <trkpt lat="49.39097" lon="5.81652">
        <ele>314</ele>
        <time>2023-06-23T09:04:13Z</time>
      </trkpt>
      <trkpt lat="49.39097" lon="5.81652">
        <ele>314</ele>
        <time>2023-06-23T09:04:14Z</time>
      </trkpt>
      <trkpt lat="49.39097" lon="5.81652">
        <ele>314</ele>
        <time>2023-06-23T09:04:16Z</time>
      </trkpt>
      <trkpt lat="49.39097" lon="5.81652">
        <ele>314</ele>
        <time>2023-06-23T09:04:18Z</time>
      </trkpt>
      <trkpt lat="49.39097" lon="5.81652">
        <ele>314</ele>
        <time>2023-06-23T09:04:20Z</time>
      </trkpt>
      <trkpt lat="49.39097" lon="5.81652">
        <ele>314</ele>
        <time>2023-06-23T09:04:22Z</time>
      </trkpt>
      <trkpt lat="49.39097" lon="5.81652">
        <ele>314</ele>
        <time>2023-06-23T09:04:24Z</time>
      </trkpt>
      <trkpt lat="49.39097" lon="5.81652">
        <ele>314</ele>
        <time>2023-06-23T09:04:26Z</time>
      </trkpt>
      <trkpt lat="49.39097" lon="5.81652">
        <ele>314</ele>
        <time>2023-06-23T09:04:28Z</time>
      </trkpt>
      <trkpt lat="49.39097" lon="5.81652">
        <ele>314</ele>
        <time>2023-06-23T09:04:30Z</time>
      </trkpt>
      <trkpt lat="49.39097" lon="5.81652">
        <ele>314</ele>
        <time>2023-06-23T09:04:32Z</time>
      </trkpt>
      <trkpt lat="49.39097" lon="5.81652">
        <ele>314</ele>
        <time>2023-06-23T09:04:34Z</time>
      </trkpt>
      <trkpt lat="49.39097" lon="5.81652">
        <ele>314</ele>
        <time>2023-06-23T09:04:35Z</time>
      </trkpt>
      <trkpt lat="49.39097" lon="5.81652">
        <ele>314</ele>
        <time>2023-06-23T09:04:36Z</time>
      </trkpt>
      <trkpt lat="49.39097" lon="5.81652">
        <ele>314</ele>
        <time>2023-06-23T09:04:38Z</time>
      </trkpt>
      <trkpt lat="49.39096" lon="5.81652">
        <ele>314</ele>
        <time>2023-06-23T09:04:40Z</time>
      </trkpt>
      <trkpt lat="49.39096" lon="5.81652">
        <ele>314</ele>
        <time>2023-06-23T09:04:42Z</time>
      </trkpt>
      <trkpt lat="49.39096" lon="5.81652">
        <ele>314</ele>
        <time>2023-06-23T09:04:43Z</time>
      </trkpt>
      <trkpt lat="49.39096" lon="5.81652">
        <ele>314</ele>
        <time>2023-06-23T09:04:44Z</time>
      </trkpt>
      <trkpt lat="49.39096" lon="5.81652">
        <ele>314</ele>
        <time>2023-06-23T09:04:46Z</time>
      </trkpt>
      <trkpt lat="49.39097" lon="5.81652">
        <ele>314</ele>
        <time>2023-06-23T09:04:48Z</time>
      </trkpt>
      <trkpt lat="49.39097" lon="5.81652">
        <ele>314</ele>
        <time>2023-06-23T09:04:50Z</time>
      </trkpt>
      <trkpt lat="49.39097" lon="5.81653">
        <ele>314</ele>
        <time>2023-06-23T09:04:52Z</time>
      </trkpt>
      <trkpt lat="49.39097" lon="5.81653">
        <ele>314.20001220703</ele>
        <time>2023-06-23T09:04:54Z</time>
      </trkpt>
      <trkpt lat="49.39097" lon="5.81653">
        <ele>314.20001220703</ele>
        <time>2023-06-23T09:04:56Z</time>
      </trkpt>
      <trkpt lat="49.39097" lon="5.81653">
        <ele>314.20001220703</ele>
        <time>2023-06-23T09:04:58Z</time>
      </trkpt>
      <trkpt lat="49.39097" lon="5.81654">
        <ele>314.20001220703</ele>
        <time>2023-06-23T09:05:00Z</time>
      </trkpt>
      <trkpt lat="49.39097" lon="5.81654">
        <ele>314.20001220703</ele>
        <time>2023-06-23T09:05:02Z</time>
      </trkpt>
      <trkpt lat="49.39097" lon="5.81654">
        <ele>314.20001220703</ele>
        <time>2023-06-23T09:05:04Z</time>
      </trkpt>
      <trkpt lat="49.39097" lon="5.81654">
        <ele>314.20001220703</ele>
        <time>2023-06-23T09:05:06Z</time>
      </trkpt>
      <trkpt lat="49.39097" lon="5.81654">
        <ele>314.20001220703</ele>
        <time>2023-06-23T09:05:08Z</time>
      </trkpt>
      <trkpt lat="49.39097" lon="5.81654">
        <ele>314.20001220703</ele>
        <time>2023-06-23T09:05:10Z</time>
      </trkpt>
      <trkpt lat="49.39097" lon="5.81654">
        <ele>314.20001220703</ele>
        <time>2023-06-23T09:05:12Z</time>
      </trkpt>
      <trkpt lat="49.39097" lon="5.81654">
        <ele>314.20001220703</ele>
        <time>2023-06-23T09:05:14Z</time>
      </trkpt>
      <trkpt lat="49.39097" lon="5.81654">
        <ele>314.20001220703</ele>
        <time>2023-06-23T09:05:16Z</time>
      </trkpt>
      <trkpt lat="49.39097" lon="5.81654">
        <ele>314.20001220703</ele>
        <time>2023-06-23T09:05:18Z</time>
      </trkpt>
      <trkpt lat="49.39097" lon="5.81654">
        <ele>314.20001220703</ele>
        <time>2023-06-23T09:05:20Z</time>
      </trkpt>
      <trkpt lat="49.39097" lon="5.81654">
        <ele>314.20001220703</ele>
        <time>2023-06-23T09:05:22Z</time>
      </trkpt>
      <trkpt lat="49.39097" lon="5.81654">
        <ele>314.20001220703</ele>
        <time>2023-06-23T09:05:24Z</time>
      </trkpt>
      <trkpt lat="49.39097" lon="5.81654">
        <ele>314.20001220703</ele>
        <time>2023-06-23T09:05:26Z</time>
      </trkpt>
      <trkpt lat="49.39097" lon="5.81654">
        <ele>314.20001220703</ele>
        <time>2023-06-23T09:05:28Z</time>
      </trkpt>
      <trkpt lat="49.39097" lon="5.81654">
        <ele>314.20001220703</ele>
        <time>2023-06-23T09:05:30Z</time>
      </trkpt>
      <trkpt lat="49.39097" lon="5.81653">
        <ele>314.20001220703</ele>
        <time>2023-06-23T09:05:32Z</time>
      </trkpt>
      <trkpt lat="49.39097" lon="5.81653">
        <ele>314.20001220703</ele>
        <time>2023-06-23T09:05:34Z</time>
      </trkpt>
      <trkpt lat="49.39097" lon="5.81653">
        <ele>314.20001220703</ele>
        <time>2023-06-23T09:05:35Z</time>
      </trkpt>
      <trkpt lat="49.39097" lon="5.81654">
        <ele>314.20001220703</ele>
        <time>2023-06-23T09:05:36Z</time>
      </trkpt>
      <trkpt lat="49.39097" lon="5.81654">
        <ele>314.20001220703</ele>
        <time>2023-06-23T09:05:38Z</time>
      </trkpt>
      <trkpt lat="49.39097" lon="5.81654">
        <ele>314.20001220703</ele>
        <time>2023-06-23T09:05:40Z</time>
      </trkpt>
      <trkpt lat="49.39096" lon="5.81654">
        <ele>314</ele>
        <time>2023-06-23T09:05:42Z</time>
      </trkpt>
      <trkpt lat="49.39096" lon="5.81654">
        <ele>314</ele>
        <time>2023-06-23T09:05:44Z</time>
      </trkpt>
      <trkpt lat="49.39096" lon="5.81654">
        <ele>314</ele>
        <time>2023-06-23T09:05:46Z</time>
      </trkpt>
      <trkpt lat="49.39096" lon="5.81654">
        <ele>314</ele>
        <time>2023-06-23T09:05:48Z</time>
      </trkpt>
      <trkpt lat="49.39096" lon="5.81654">
        <ele>314</ele>
        <time>2023-06-23T09:05:50Z</time>
      </trkpt>
      <trkpt lat="49.39096" lon="5.81654">
        <ele>314</ele>
        <time>2023-06-23T09:05:52Z</time>
      </trkpt>
      <trkpt lat="49.39096" lon="5.81654">
        <ele>314</ele>
        <time>2023-06-23T09:05:54Z</time>
      </trkpt>
      <trkpt lat="49.39097" lon="5.81654">
        <ele>314</ele>
        <time>2023-06-23T09:05:56Z</time>
      </trkpt>
      <trkpt lat="49.39097" lon="5.81653">
        <ele>314</ele>
        <time>2023-06-23T09:05:58Z</time>
      </trkpt>
      <trkpt lat="49.39097" lon="5.81654">
        <ele>314</ele>
        <time>2023-06-23T09:06:00Z</time>
      </trkpt>
      <trkpt lat="49.39096" lon="5.81654">
        <ele>314</ele>
        <time>2023-06-23T09:06:02Z</time>
      </trkpt>
      <trkpt lat="49.39096" lon="5.81655">
        <ele>314</ele>
        <time>2023-06-23T09:06:04Z</time>
      </trkpt>
      <trkpt lat="49.39096" lon="5.81655">
        <ele>314</ele>
        <time>2023-06-23T09:06:06Z</time>
      </trkpt>
      <trkpt lat="49.39096" lon="5.81655">
        <ele>314</ele>
        <time>2023-06-23T09:06:08Z</time>
      </trkpt>
      <trkpt lat="49.39096" lon="5.81655">
        <ele>314</ele>
        <time>2023-06-23T09:06:09Z</time>
      </trkpt>
      <trkpt lat="49.39096" lon="5.81655">
        <ele>314</ele>
        <time>2023-06-23T09:06:10Z</time>
      </trkpt>
      <trkpt lat="49.39096" lon="5.81655">
        <ele>314</ele>
        <time>2023-06-23T09:06:12Z</time>
      </trkpt>
      <trkpt lat="49.39096" lon="5.81655">
        <ele>314</ele>
        <time>2023-06-23T09:06:14Z</time>
      </trkpt>
      <trkpt lat="49.39096" lon="5.81655">
        <ele>314</ele>
        <time>2023-06-23T09:06:16Z</time>
      </trkpt>
      <trkpt lat="49.39096" lon="5.81655">
        <ele>314</ele>
        <time>2023-06-23T09:06:18Z</time>
      </trkpt>
      <trkpt lat="49.39096" lon="5.81655">
        <ele>314</ele>
        <time>2023-06-23T09:06:20Z</time>
      </trkpt>
      <trkpt lat="49.39096" lon="5.81655">
        <ele>314</ele>
        <time>2023-06-23T09:06:21Z</time>
      </trkpt>
      <trkpt lat="49.39096" lon="5.81655">
        <ele>314</ele>
        <time>2023-06-23T09:06:22Z</time>
      </trkpt>
      <trkpt lat="49.39095" lon="5.81655">
        <ele>314</ele>
        <time>2023-06-23T09:06:24Z</time>
      </trkpt>
      <trkpt lat="49.39095" lon="5.81656">
        <ele>314</ele>
        <time>2023-06-23T09:06:26Z</time>
      </trkpt>
      <trkpt lat="49.39095" lon="5.81656">
        <ele>314</ele>
        <time>2023-06-23T09:06:28Z</time>
      </trkpt>
      <trkpt lat="49.39095" lon="5.81656">
        <ele>314</ele>
        <time>2023-06-23T09:06:30Z</time>
      </trkpt>
      <trkpt lat="49.39095" lon="5.81656">
        <ele>314</ele>
        <time>2023-06-23T09:06:32Z</time>
      </trkpt>
      <trkpt lat="49.39095" lon="5.81657">
        <ele>314</ele>
        <time>2023-06-23T09:06:34Z</time>
      </trkpt>
      <trkpt lat="49.39095" lon="5.81657">
        <ele>314</ele>
        <time>2023-06-23T09:06:35Z</time>
      </trkpt>
      <trkpt lat="49.39095" lon="5.81656">
        <ele>314</ele>
        <time>2023-06-23T09:06:36Z</time>
      </trkpt>
      <trkpt lat="49.39095" lon="5.81656">
        <ele>314</ele>
        <time>2023-06-23T09:06:38Z</time>
      </trkpt>
      <trkpt lat="49.39095" lon="5.81656">
        <ele>314</ele>
        <time>2023-06-23T09:06:40Z</time>
      </trkpt>
      <trkpt lat="49.39095" lon="5.81656">
        <ele>314</ele>
        <time>2023-06-23T09:06:42Z</time>
      </trkpt>
      <trkpt lat="49.39095" lon="5.81656">
        <ele>314</ele>
        <time>2023-06-23T09:06:44Z</time>
      </trkpt>
      <trkpt lat="49.39095" lon="5.81656">
        <ele>314</ele>
        <time>2023-06-23T09:06:45Z</time>
      </trkpt>
      <trkpt lat="49.39095" lon="5.81656">
        <ele>314</ele>
        <time>2023-06-23T09:06:46Z</time>
      </trkpt>
      <trkpt lat="49.39095" lon="5.81656">
        <ele>314</ele>
        <time>2023-06-23T09:06:48Z</time>
      </trkpt>
      <trkpt lat="49.39095" lon="5.81656">
        <ele>314</ele>
        <time>2023-06-23T09:06:50Z</time>
      </trkpt>
      <trkpt lat="49.39095" lon="5.81656">
        <ele>314</ele>
        <time>2023-06-23T09:06:52Z</time>
      </trkpt>
      <trkpt lat="49.39095" lon="5.81656">
        <ele>314</ele>
        <time>2023-06-23T09:06:54Z</time>
      </trkpt>
      <trkpt lat="49.39095" lon="5.81656">
        <ele>314</ele>
        <time>2023-06-23T09:06:56Z</time>
      </trkpt>
      <trkpt lat="49.39095" lon="5.81656">
        <ele>314</ele>
        <time>2023-06-23T09:06:58Z</time>
      </trkpt>
      <trkpt lat="49.39095" lon="5.81656">
        <ele>314</ele>
        <time>2023-06-23T09:07:00Z</time>
      </trkpt>
      <trkpt lat="49.39095" lon="5.81656">
        <ele>314</ele>
        <time>2023-06-23T09:07:01Z</time>
      </trkpt>
      <trkpt lat="49.39095" lon="5.81656">
        <ele>314</ele>
        <time>2023-06-23T09:07:02Z</time>
      </trkpt>
      <trkpt lat="49.39095" lon="5.81656">
        <ele>314</ele>
        <time>2023-06-23T09:07:04Z</time>
      </trkpt>
      <trkpt lat="49.39095" lon="5.81656">
        <ele>314</ele>
        <time>2023-06-23T09:07:06Z</time>
      </trkpt>
      <trkpt lat="49.39095" lon="5.81656">
        <ele>314</ele>
        <time>2023-06-23T09:07:08Z</time>
      </trkpt>
      <trkpt lat="49.39095" lon="5.81656">
        <ele>314</ele>
        <time>2023-06-23T09:07:09Z</time>
      </trkpt>
      <trkpt lat="49.39095" lon="5.81656">
        <ele>314</ele>
        <time>2023-06-23T09:07:10Z</time>
      </trkpt>
      <trkpt lat="49.39095" lon="5.81656">
        <ele>314</ele>
        <time>2023-06-23T09:07:12Z</time>
      </trkpt>
      <trkpt lat="49.39095" lon="5.81656">
        <ele>314</ele>
        <time>2023-06-23T09:07:13Z</time>
      </trkpt>
      <trkpt lat="49.39095" lon="5.81656">
        <ele>314</ele>
        <time>2023-06-23T09:07:14Z</time>
      </trkpt>
      <trkpt lat="49.39095" lon="5.81656">
        <ele>314</ele>
        <time>2023-06-23T09:07:16Z</time>
      </trkpt>
      <trkpt lat="49.39095" lon="5.81656">
        <ele>314</ele>
        <time>2023-06-23T09:07:18Z</time>
      </trkpt>
      <trkpt lat="49.39095" lon="5.81656">
        <ele>314</ele>
        <time>2023-06-23T09:07:20Z</time>
      </trkpt>
      <trkpt lat="49.39095" lon="5.81656">
        <ele>314</ele>
        <time>2023-06-23T09:07:22Z</time>
      </trkpt>
      <trkpt lat="49.39095" lon="5.81656">
        <ele>314</ele>
        <time>2023-06-23T09:07:24Z</time>
      </trkpt>
      <trkpt lat="49.39095" lon="5.81656">
        <ele>314</ele>
        <time>2023-06-23T09:07:25Z</time>
      </trkpt>
      <trkpt lat="49.39094" lon="5.81656">
        <ele>314</ele>
        <time>2023-06-23T09:07:26Z</time>
      </trkpt>
      <trkpt lat="49.39094" lon="5.81656">
        <ele>314</ele>
        <time>2023-06-23T09:07:28Z</time>
      </trkpt>
      <trkpt lat="49.39094" lon="5.81656">
        <ele>314</ele>
        <time>2023-06-23T09:07:30Z</time>
      </trkpt>
      <trkpt lat="49.39094" lon="5.81656">
        <ele>314</ele>
        <time>2023-06-23T09:07:32Z</time>
      </trkpt>
      <trkpt lat="49.39094" lon="5.81656">
        <ele>314.20001220703</ele>
        <time>2023-06-23T09:07:34Z</time>
      </trkpt>
      <trkpt lat="49.39094" lon="5.81656">
        <ele>314.20001220703</ele>
        <time>2023-06-23T09:07:36Z</time>
      </trkpt>
      <trkpt lat="49.39094" lon="5.81656">
        <ele>314.20001220703</ele>
        <time>2023-06-23T09:07:38Z</time>
      </trkpt>
      <trkpt lat="49.39095" lon="5.81656">
        <ele>314.20001220703</ele>
        <time>2023-06-23T09:07:39Z</time>
      </trkpt>
      <trkpt lat="49.39095" lon="5.81656">
        <ele>314.20001220703</ele>
        <time>2023-06-23T09:07:40Z</time>
      </trkpt>
      <trkpt lat="49.39095" lon="5.81656">
        <ele>314</ele>
        <time>2023-06-23T09:07:42Z</time>
      </trkpt>
      <trkpt lat="49.39095" lon="5.81656">
        <ele>314</ele>
        <time>2023-06-23T09:07:44Z</time>
      </trkpt>
      <trkpt lat="49.39095" lon="5.81656">
        <ele>314</ele>
        <time>2023-06-23T09:07:46Z</time>
      </trkpt>
      <trkpt lat="49.39095" lon="5.81656">
        <ele>314</ele>
        <time>2023-06-23T09:07:48Z</time>
      </trkpt>
      <trkpt lat="49.39095" lon="5.81656">
        <ele>314</ele>
        <time>2023-06-23T09:07:50Z</time>
      </trkpt>
      <trkpt lat="49.39095" lon="5.81656">
        <ele>314</ele>
        <time>2023-06-23T09:07:52Z</time>
      </trkpt>
      <trkpt lat="49.39095" lon="5.81656">
        <ele>314</ele>
        <time>2023-06-23T09:07:54Z</time>
      </trkpt>
      <trkpt lat="49.39095" lon="5.81656">
        <ele>314</ele>
        <time>2023-06-23T09:07:56Z</time>
      </trkpt>
      <trkpt lat="49.39095" lon="5.81656">
        <ele>314</ele>
        <time>2023-06-23T09:07:58Z</time>
      </trkpt>
      <trkpt lat="49.39095" lon="5.81656">
        <ele>314</ele>
        <time>2023-06-23T09:08:00Z</time>
      </trkpt>
      <trkpt lat="49.39095" lon="5.81656">
        <ele>314</ele>
        <time>2023-06-23T09:08:02Z</time>
      </trkpt>
      <trkpt lat="49.39095" lon="5.81656">
        <ele>314</ele>
        <time>2023-06-23T09:08:04Z</time>
      </trkpt>
      <trkpt lat="49.39095" lon="5.81656">
        <ele>314</ele>
        <time>2023-06-23T09:08:06Z</time>
      </trkpt>
      <trkpt lat="49.39095" lon="5.81656">
        <ele>314.20001220703</ele>
        <time>2023-06-23T09:08:08Z</time>
      </trkpt>
      <trkpt lat="49.39094" lon="5.81656">
        <ele>314.20001220703</ele>
        <time>2023-06-23T09:08:10Z</time>
      </trkpt>
      <trkpt lat="49.39094" lon="5.81656">
        <ele>314.20001220703</ele>
        <time>2023-06-23T09:08:12Z</time>
      </trkpt>
      <trkpt lat="49.39094" lon="5.81656">
        <ele>314.20001220703</ele>
        <time>2023-06-23T09:08:14Z</time>
      </trkpt>
      <trkpt lat="49.39094" lon="5.81656">
        <ele>314.20001220703</ele>
        <time>2023-06-23T09:08:16Z</time>
      </trkpt>
      <trkpt lat="49.39094" lon="5.81656">
        <ele>314.20001220703</ele>
        <time>2023-06-23T09:08:18Z</time>
      </trkpt>
      <trkpt lat="49.39094" lon="5.81656">
        <ele>314.20001220703</ele>
        <time>2023-06-23T09:08:20Z</time>
      </trkpt>
      <trkpt lat="49.39094" lon="5.81656">
        <ele>314.20001220703</ele>
        <time>2023-06-23T09:08:22Z</time>
      </trkpt>
      <trkpt lat="49.39094" lon="5.81656">
        <ele>314.20001220703</ele>
        <time>2023-06-23T09:08:24Z</time>
      </trkpt>
      <trkpt lat="49.39094" lon="5.81656">
        <ele>314.20001220703</ele>
        <time>2023-06-23T09:08:26Z</time>
      </trkpt>
      <trkpt lat="49.39095" lon="5.81656">
        <ele>314.20001220703</ele>
        <time>2023-06-23T09:08:28Z</time>
      </trkpt>
      <trkpt lat="49.39095" lon="5.81656">
        <ele>314.20001220703</ele>
        <time>2023-06-23T09:08:30Z</time>
      </trkpt>
      <trkpt lat="49.39095" lon="5.81656">
        <ele>314.20001220703</ele>
        <time>2023-06-23T09:08:32Z</time>
      </trkpt>
      <trkpt lat="49.39095" lon="5.81656">
        <ele>314.20001220703</ele>
        <time>2023-06-23T09:08:34Z</time>
      </trkpt>
      <trkpt lat="49.39095" lon="5.81656">
        <ele>314.20001220703</ele>
        <time>2023-06-23T09:08:36Z</time>
      </trkpt>
      <trkpt lat="49.39095" lon="5.81656">
        <ele>314.20001220703</ele>
        <time>2023-06-23T09:08:38Z</time>
      </trkpt>
      <trkpt lat="49.39095" lon="5.81656">
        <ele>314.20001220703</ele>
        <time>2023-06-23T09:08:40Z</time>
      </trkpt>
      <trkpt lat="49.39095" lon="5.81656">
        <ele>314.20001220703</ele>
        <time>2023-06-23T09:08:42Z</time>
      </trkpt>
      <trkpt lat="49.39095" lon="5.81656">
        <ele>314.20001220703</ele>
        <time>2023-06-23T09:08:44Z</time>
      </trkpt>
      <trkpt lat="49.39095" lon="5.81656">
        <ele>314.20001220703</ele>
        <time>2023-06-23T09:08:46Z</time>
      </trkpt>
      <trkpt lat="49.39095" lon="5.81656">
        <ele>314.20001220703</ele>
        <time>2023-06-23T09:08:48Z</time>
      </trkpt>
      <trkpt lat="49.39095" lon="5.81656">
        <ele>314.39999389648</ele>
        <time>2023-06-23T09:08:50Z</time>
      </trkpt>
      <trkpt lat="49.39095" lon="5.81656">
        <ele>314.39999389648</ele>
        <time>2023-06-23T09:08:52Z</time>
      </trkpt>
      <trkpt lat="49.39095" lon="5.81656">
        <ele>314.39999389648</ele>
        <time>2023-06-23T09:08:54Z</time>
      </trkpt>
      <trkpt lat="49.39095" lon="5.81656">
        <ele>314.60000610352</ele>
        <time>2023-06-23T09:08:56Z</time>
      </trkpt>
      <trkpt lat="49.39095" lon="5.81656">
        <ele>314.60000610352</ele>
        <time>2023-06-23T09:08:58Z</time>
      </trkpt>
      <trkpt lat="49.39095" lon="5.81656">
        <ele>314.60000610352</ele>
        <time>2023-06-23T09:09:00Z</time>
      </trkpt>
      <trkpt lat="49.39095" lon="5.81656">
        <ele>314.60000610352</ele>
        <time>2023-06-23T09:09:02Z</time>
      </trkpt>
      <trkpt lat="49.39095" lon="5.81656">
        <ele>314.60000610352</ele>
        <time>2023-06-23T09:09:03Z</time>
      </trkpt>
      <trkpt lat="49.39095" lon="5.81656">
        <ele>314.60000610352</ele>
        <time>2023-06-23T09:09:04Z</time>
      </trkpt>
      <trkpt lat="49.39095" lon="5.81656">
        <ele>314.60000610352</ele>
        <time>2023-06-23T09:09:06Z</time>
      </trkpt>
      <trkpt lat="49.39095" lon="5.81656">
        <ele>314.60000610352</ele>
        <time>2023-06-23T09:09:08Z</time>
      </trkpt>
      <trkpt lat="49.39095" lon="5.81656">
        <ele>314.60000610352</ele>
        <time>2023-06-23T09:09:10Z</time>
      </trkpt>
      <trkpt lat="49.39095" lon="5.81657">
        <ele>314.60000610352</ele>
        <time>2023-06-23T09:09:12Z</time>
      </trkpt>
      <trkpt lat="49.39095" lon="5.81656">
        <ele>314.60000610352</ele>
        <time>2023-06-23T09:09:14Z</time>
      </trkpt>
      <trkpt lat="49.39095" lon="5.81656">
        <ele>314.60000610352</ele>
        <time>2023-06-23T09:09:16Z</time>
      </trkpt>
      <trkpt lat="49.39095" lon="5.81656">
        <ele>314.60000610352</ele>
        <time>2023-06-23T09:09:18Z</time>
      </trkpt>
      <trkpt lat="49.39095" lon="5.81656">
        <ele>314.60000610352</ele>
        <time>2023-06-23T09:09:20Z</time>
      </trkpt>
      <trkpt lat="49.39095" lon="5.81656">
        <ele>314.60000610352</ele>
        <time>2023-06-23T09:09:22Z</time>
      </trkpt>
      <trkpt lat="49.39095" lon="5.81656">
        <ele>314.60000610352</ele>
        <time>2023-06-23T09:09:24Z</time>
      </trkpt>
      <trkpt lat="49.39095" lon="5.81657">
        <ele>314.60000610352</ele>
        <time>2023-06-23T09:09:26Z</time>
      </trkpt>
      <trkpt lat="49.39095" lon="5.81657">
        <ele>314.60000610352</ele>
        <time>2023-06-23T09:09:28Z</time>
      </trkpt>
      <trkpt lat="49.39095" lon="5.81657">
        <ele>314.60000610352</ele>
        <time>2023-06-23T09:09:30Z</time>
      </trkpt>
      <trkpt lat="49.39095" lon="5.81657">
        <ele>314.60000610352</ele>
        <time>2023-06-23T09:09:32Z</time>
      </trkpt>
      <trkpt lat="49.39095" lon="5.81657">
        <ele>314.60000610352</ele>
        <time>2023-06-23T09:09:34Z</time>
      </trkpt>
      <trkpt lat="49.39095" lon="5.81657">
        <ele>314.60000610352</ele>
        <time>2023-06-23T09:09:36Z</time>
      </trkpt>
      <trkpt lat="49.39095" lon="5.81658">
        <ele>314.60000610352</ele>
        <time>2023-06-23T09:09:38Z</time>
      </trkpt>
      <trkpt lat="49.39095" lon="5.81659">
        <ele>314.60000610352</ele>
        <time>2023-06-23T09:09:40Z</time>
      </trkpt>
      <trkpt lat="49.39095" lon="5.8166">
        <ele>314.60000610352</ele>
        <time>2023-06-23T09:09:42Z</time>
      </trkpt>
      <trkpt lat="49.39095" lon="5.81659">
        <ele>314.60000610352</ele>
        <time>2023-06-23T09:09:44Z</time>
      </trkpt>
      <trkpt lat="49.39095" lon="5.81659">
        <ele>314.60000610352</ele>
        <time>2023-06-23T09:09:46Z</time>
      </trkpt>
      <trkpt lat="49.39095" lon="5.81659">
        <ele>314.60000610352</ele>
        <time>2023-06-23T09:09:48Z</time>
      </trkpt>
      <trkpt lat="49.39095" lon="5.81658">
        <ele>314.79998779297</ele>
        <time>2023-06-23T09:09:50Z</time>
      </trkpt>
      <trkpt lat="49.39095" lon="5.81659">
        <ele>314.79998779297</ele>
        <time>2023-06-23T09:09:52Z</time>
      </trkpt>
      <trkpt lat="49.39095" lon="5.81659">
        <ele>314.79998779297</ele>
        <time>2023-06-23T09:09:53Z</time>
      </trkpt>
      <trkpt lat="49.39095" lon="5.81659">
        <ele>314.79998779297</ele>
        <time>2023-06-23T09:09:54Z</time>
      </trkpt>
      <trkpt lat="49.39096" lon="5.81661">
        <ele>314.79998779297</ele>
        <time>2023-06-23T09:09:56Z</time>
      </trkpt>
      <trkpt lat="49.39097" lon="5.81665">
        <ele>314.79998779297</ele>
        <time>2023-06-23T09:09:58Z</time>
      </trkpt>
      <trkpt lat="49.39098" lon="5.8167">
        <ele>314.79998779297</ele>
        <time>2023-06-23T09:10:00Z</time>
      </trkpt>
      <trkpt lat="49.39099" lon="5.81676">
        <ele>314.79998779297</ele>
        <time>2023-06-23T09:10:02Z</time>
      </trkpt>
      <trkpt lat="49.391" lon="5.81679">
        <ele>314.79998779297</ele>
        <time>2023-06-23T09:10:03Z</time>
      </trkpt>
      <trkpt lat="49.391" lon="5.81682">
        <ele>314.79998779297</ele>
        <time>2023-06-23T09:10:04Z</time>
      </trkpt>
      <trkpt lat="49.39102" lon="5.81689">
        <ele>314.79998779297</ele>
        <time>2023-06-23T09:10:06Z</time>
      </trkpt>
      <trkpt lat="49.39103" lon="5.81697">
        <ele>315</ele>
        <time>2023-06-23T09:10:08Z</time>
      </trkpt>
      <trkpt lat="49.39104" lon="5.817">
        <ele>315</ele>
        <time>2023-06-23T09:10:09Z</time>
      </trkpt>
      <trkpt lat="49.39104" lon="5.81704">
        <ele>315</ele>
        <time>2023-06-23T09:10:10Z</time>
      </trkpt>
      <trkpt lat="49.39106" lon="5.81711">
        <ele>315</ele>
        <time>2023-06-23T09:10:12Z</time>
      </trkpt>
      <trkpt lat="49.39107" lon="5.81719">
        <ele>315.20001220703</ele>
        <time>2023-06-23T09:10:14Z</time>
      </trkpt>
      <trkpt lat="49.39108" lon="5.81724">
        <ele>315.20001220703</ele>
        <time>2023-06-23T09:10:15Z</time>
      </trkpt>
      <trkpt lat="49.39109" lon="5.81728">
        <ele>315.39999389648</ele>
        <time>2023-06-23T09:10:16Z</time>
      </trkpt>
      <trkpt lat="49.39111" lon="5.81738">
        <ele>315.39999389648</ele>
        <time>2023-06-23T09:10:18Z</time>
      </trkpt>
      <trkpt lat="49.39112" lon="5.81749">
        <ele>315.60000610352</ele>
        <time>2023-06-23T09:10:20Z</time>
      </trkpt>
      <trkpt lat="49.39113" lon="5.81759">
        <ele>315.60000610352</ele>
        <time>2023-06-23T09:10:22Z</time>
      </trkpt>
      <trkpt lat="49.39113" lon="5.81769">
        <ele>315.60000610352</ele>
        <time>2023-06-23T09:10:24Z</time>
      </trkpt>
      <trkpt lat="49.39114" lon="5.81778">
        <ele>315.60000610352</ele>
        <time>2023-06-23T09:10:26Z</time>
      </trkpt>
      <trkpt lat="49.39115" lon="5.81789">
        <ele>315.60000610352</ele>
        <time>2023-06-23T09:10:28Z</time>
      </trkpt>
      <trkpt lat="49.39116" lon="5.81798">
        <ele>315.60000610352</ele>
        <time>2023-06-23T09:10:30Z</time>
      </trkpt>
      <trkpt lat="49.39118" lon="5.81808">
        <ele>315.60000610352</ele>
        <time>2023-06-23T09:10:32Z</time>
      </trkpt>
      <trkpt lat="49.39119" lon="5.81812">
        <ele>315.79998779297</ele>
        <time>2023-06-23T09:10:33Z</time>
      </trkpt>
      <trkpt lat="49.39119" lon="5.81817">
        <ele>316</ele>
        <time>2023-06-23T09:10:34Z</time>
      </trkpt>
      <trkpt lat="49.3912" lon="5.81827">
        <ele>316.20001220703</ele>
        <time>2023-06-23T09:10:36Z</time>
      </trkpt>
      <trkpt lat="49.39122" lon="5.81836">
        <ele>316.39999389648</ele>
        <time>2023-06-23T09:10:38Z</time>
      </trkpt>
      <trkpt lat="49.39122" lon="5.81841">
        <ele>316.60000610352</ele>
        <time>2023-06-23T09:10:39Z</time>
      </trkpt>
      <trkpt lat="49.39124" lon="5.81846">
        <ele>316.60000610352</ele>
        <time>2023-06-23T09:10:40Z</time>
      </trkpt>
      <trkpt lat="49.39126" lon="5.81857">
        <ele>316.60000610352</ele>
        <time>2023-06-23T09:10:42Z</time>
      </trkpt>
      <trkpt lat="49.3913" lon="5.81868">
        <ele>316.79998779297</ele>
        <time>2023-06-23T09:10:44Z</time>
      </trkpt>
      <trkpt lat="49.39132" lon="5.81875">
        <ele>316.79998779297</ele>
        <time>2023-06-23T09:10:45Z</time>
      </trkpt>
      <trkpt lat="49.39134" lon="5.8188">
        <ele>317</ele>
        <time>2023-06-23T09:10:46Z</time>
      </trkpt>
      <trkpt lat="49.3914" lon="5.8189">
        <ele>317</ele>
        <time>2023-06-23T09:10:48Z</time>
      </trkpt>
      <trkpt lat="49.39146" lon="5.81897">
        <ele>317</ele>
        <time>2023-06-23T09:10:50Z</time>
      </trkpt>
      <trkpt lat="49.39154" lon="5.81906">
        <ele>317</ele>
        <time>2023-06-23T09:10:52Z</time>
      </trkpt>
      <trkpt lat="49.39164" lon="5.81907">
        <ele>316.79998779297</ele>
        <time>2023-06-23T09:10:54Z</time>
      </trkpt>
      <trkpt lat="49.39176" lon="5.81904">
        <ele>316.60000610352</ele>
        <time>2023-06-23T09:10:56Z</time>
      </trkpt>
      <trkpt lat="49.39182" lon="5.81902">
        <ele>316.39999389648</ele>
        <time>2023-06-23T09:10:57Z</time>
      </trkpt>
      <trkpt lat="49.39189" lon="5.819">
        <ele>316.39999389648</ele>
        <time>2023-06-23T09:10:58Z</time>
      </trkpt>
      <trkpt lat="49.39196" lon="5.81899">
        <ele>316</ele>
        <time>2023-06-23T09:10:59Z</time>
      </trkpt>
      <trkpt lat="49.39202" lon="5.819">
        <ele>315.20001220703</ele>
        <time>2023-06-23T09:11:00Z</time>
      </trkpt>
      <trkpt lat="49.39208" lon="5.81902">
        <ele>314.79998779297</ele>
        <time>2023-06-23T09:11:01Z</time>
      </trkpt>
      <trkpt lat="49.39215" lon="5.81905">
        <ele>314.60000610352</ele>
        <time>2023-06-23T09:11:02Z</time>
      </trkpt>
      <trkpt lat="49.3922" lon="5.81911">
        <ele>313.79998779297</ele>
        <time>2023-06-23T09:11:03Z</time>
      </trkpt>
      <trkpt lat="49.39225" lon="5.81919">
        <ele>312.79998779297</ele>
        <time>2023-06-23T09:11:04Z</time>
      </trkpt>
      <trkpt lat="49.3923" lon="5.81936">
        <ele>310.79998779297</ele>
        <time>2023-06-23T09:11:06Z</time>
      </trkpt>
      <trkpt lat="49.39232" lon="5.81945">
        <ele>309.79998779297</ele>
        <time>2023-06-23T09:11:07Z</time>
      </trkpt>
      <trkpt lat="49.39234" lon="5.81953">
        <ele>309.20001220703</ele>
        <time>2023-06-23T09:11:08Z</time>
      </trkpt>
      <trkpt lat="49.39235" lon="5.81961">
        <ele>308.60000610352</ele>
        <time>2023-06-23T09:11:09Z</time>
      </trkpt>
      <trkpt lat="49.39237" lon="5.81968">
        <ele>308</ele>
        <time>2023-06-23T09:11:10Z</time>
      </trkpt>
      <trkpt lat="49.3924" lon="5.8198">
        <ele>307.20001220703</ele>
        <time>2023-06-23T09:11:12Z</time>
      </trkpt>
      <trkpt lat="49.39242" lon="5.81986">
        <ele>307</ele>
        <time>2023-06-23T09:11:13Z</time>
      </trkpt>
      <trkpt lat="49.39245" lon="5.81991">
        <ele>306.79998779297</ele>
        <time>2023-06-23T09:11:14Z</time>
      </trkpt>
      <trkpt lat="49.39249" lon="5.81997">
        <ele>306.60000610352</ele>
        <time>2023-06-23T09:11:15Z</time>
      </trkpt>
      <trkpt lat="49.39253" lon="5.82004">
        <ele>306.60000610352</ele>
        <time>2023-06-23T09:11:16Z</time>
      </trkpt>
      <trkpt lat="49.39262" lon="5.82017">
        <ele>306.39999389648</ele>
        <time>2023-06-23T09:11:18Z</time>
      </trkpt>
      <trkpt lat="49.39271" lon="5.82031">
        <ele>306.20001220703</ele>
        <time>2023-06-23T09:11:20Z</time>
      </trkpt>
      <trkpt lat="49.39275" lon="5.82039">
        <ele>306.20001220703</ele>
        <time>2023-06-23T09:11:21Z</time>
      </trkpt>
      <trkpt lat="49.3928" lon="5.82048">
        <ele>306.20001220703</ele>
        <time>2023-06-23T09:11:22Z</time>
      </trkpt>
      <trkpt lat="49.3929" lon="5.82065">
        <ele>305.79998779297</ele>
        <time>2023-06-23T09:11:24Z</time>
      </trkpt>
      <trkpt lat="49.39298" lon="5.82084">
        <ele>305</ele>
        <time>2023-06-23T09:11:26Z</time>
      </trkpt>
      <trkpt lat="49.39302" lon="5.82094">
        <ele>304.79998779297</ele>
        <time>2023-06-23T09:11:27Z</time>
      </trkpt>
      <trkpt lat="49.39306" lon="5.82104">
        <ele>304.39999389648</ele>
        <time>2023-06-23T09:11:28Z</time>
      </trkpt>
      <trkpt lat="49.39314" lon="5.82122">
        <ele>303</ele>
        <time>2023-06-23T09:11:30Z</time>
      </trkpt>
      <trkpt lat="49.39317" lon="5.82131">
        <ele>302.39999389648</ele>
        <time>2023-06-23T09:11:31Z</time>
      </trkpt>
      <trkpt lat="49.3932" lon="5.8214">
        <ele>301.79998779297</ele>
        <time>2023-06-23T09:11:32Z</time>
      </trkpt>
      <trkpt lat="49.39326" lon="5.82157">
        <ele>300.79998779297</ele>
        <time>2023-06-23T09:11:34Z</time>
      </trkpt>
      <trkpt lat="49.39333" lon="5.82172">
        <ele>300.39999389648</ele>
        <time>2023-06-23T09:11:36Z</time>
      </trkpt>
      <trkpt lat="49.39339" lon="5.82187">
        <ele>299.60000610352</ele>
        <time>2023-06-23T09:11:38Z</time>
      </trkpt>
      <trkpt lat="49.39345" lon="5.822">
        <ele>299.20001220703</ele>
        <time>2023-06-23T09:11:40Z</time>
      </trkpt>
      <trkpt lat="49.39348" lon="5.82207">
        <ele>299</ele>
        <time>2023-06-23T09:11:41Z</time>
      </trkpt>
      <trkpt lat="49.3935" lon="5.82212">
        <ele>298.79998779297</ele>
        <time>2023-06-23T09:11:42Z</time>
      </trkpt>
      <trkpt lat="49.39351" lon="5.82218">
        <ele>298.79998779297</ele>
        <time>2023-06-23T09:11:44Z</time>
      </trkpt>
      <trkpt lat="49.3935" lon="5.82218">
        <ele>298.79998779297</ele>
        <time>2023-06-23T09:11:45Z</time>
      </trkpt>
      <trkpt lat="49.39348" lon="5.82217">
        <ele>298.79998779297</ele>
        <time>2023-06-23T09:11:46Z</time>
      </trkpt>
      <trkpt lat="49.39344" lon="5.82217">
        <ele>298.60000610352</ele>
        <time>2023-06-23T09:11:48Z</time>
      </trkpt>
      <trkpt lat="49.3934" lon="5.82216">
        <ele>298.60000610352</ele>
        <time>2023-06-23T09:11:50Z</time>
      </trkpt>
      <trkpt lat="49.39335" lon="5.82217">
        <ele>298.60000610352</ele>
        <time>2023-06-23T09:11:52Z</time>
      </trkpt>
      <trkpt lat="49.3933" lon="5.82216">
        <ele>298.79998779297</ele>
        <time>2023-06-23T09:11:54Z</time>
      </trkpt>
      <trkpt lat="49.39326" lon="5.82214">
        <ele>299</ele>
        <time>2023-06-23T09:11:56Z</time>
      </trkpt>
      <trkpt lat="49.39321" lon="5.82211">
        <ele>299.79998779297</ele>
        <time>2023-06-23T09:11:58Z</time>
      </trkpt>
      <trkpt lat="49.39318" lon="5.82209">
        <ele>300.20001220703</ele>
        <time>2023-06-23T09:11:59Z</time>
      </trkpt>
      <trkpt lat="49.39315" lon="5.82207">
        <ele>300.60000610352</ele>
        <time>2023-06-23T09:12:00Z</time>
      </trkpt>
      <trkpt lat="49.39313" lon="5.82204">
        <ele>301.20001220703</ele>
        <time>2023-06-23T09:12:01Z</time>
      </trkpt>
      <trkpt lat="49.39311" lon="5.82203">
        <ele>301.79998779297</ele>
        <time>2023-06-23T09:12:02Z</time>
      </trkpt>
      <trkpt lat="49.39307" lon="5.82201">
        <ele>302.39999389648</ele>
        <time>2023-06-23T09:12:04Z</time>
      </trkpt>
      <trkpt lat="49.39305" lon="5.82201">
        <ele>302.79998779297</ele>
        <time>2023-06-23T09:12:05Z</time>
      </trkpt>
      <trkpt lat="49.39302" lon="5.822">
        <ele>303.20001220703</ele>
        <time>2023-06-23T09:12:06Z</time>
      </trkpt>
      <trkpt lat="49.393" lon="5.822">
        <ele>303.39999389648</ele>
        <time>2023-06-23T09:12:07Z</time>
      </trkpt>
      <trkpt lat="49.39297" lon="5.82198">
        <ele>303.79998779297</ele>
        <time>2023-06-23T09:12:08Z</time>
      </trkpt>
      <trkpt lat="49.39292" lon="5.82199">
        <ele>305</ele>
        <time>2023-06-23T09:12:10Z</time>
      </trkpt>
      <trkpt lat="49.39291" lon="5.82199">
        <ele>305.39999389648</ele>
        <time>2023-06-23T09:12:11Z</time>
      </trkpt>
      <trkpt lat="49.39289" lon="5.82199">
        <ele>305.79998779297</ele>
        <time>2023-06-23T09:12:12Z</time>
      </trkpt>
      <trkpt lat="49.39287" lon="5.82199">
        <ele>306.20001220703</ele>
        <time>2023-06-23T09:12:13Z</time>
      </trkpt>
      <trkpt lat="49.39286" lon="5.82199">
        <ele>306.39999389648</ele>
        <time>2023-06-23T09:12:14Z</time>
      </trkpt>
      <trkpt lat="49.39282" lon="5.822">
        <ele>307.20001220703</ele>
        <time>2023-06-23T09:12:16Z</time>
      </trkpt>
      <trkpt lat="49.3928" lon="5.822">
        <ele>307.39999389648</ele>
        <time>2023-06-23T09:12:17Z</time>
      </trkpt>
      <trkpt lat="49.39279" lon="5.822">
        <ele>307.60000610352</ele>
        <time>2023-06-23T09:12:18Z</time>
      </trkpt>
      <trkpt lat="49.39274" lon="5.82198">
        <ele>308.20001220703</ele>
        <time>2023-06-23T09:12:20Z</time>
      </trkpt>
      <trkpt lat="49.39271" lon="5.82198">
        <ele>308.60000610352</ele>
        <time>2023-06-23T09:12:22Z</time>
      </trkpt>
      <trkpt lat="49.39267" lon="5.82197">
        <ele>309</ele>
        <time>2023-06-23T09:12:24Z</time>
      </trkpt>
      <trkpt lat="49.39263" lon="5.82195">
        <ele>309.20001220703</ele>
        <time>2023-06-23T09:12:26Z</time>
      </trkpt>
      <trkpt lat="49.39258" lon="5.82194">
        <ele>309.39999389648</ele>
        <time>2023-06-23T09:12:28Z</time>
      </trkpt>
      <trkpt lat="49.39253" lon="5.82191">
        <ele>309.79998779297</ele>
        <time>2023-06-23T09:12:30Z</time>
      </trkpt>
      <trkpt lat="49.39248" lon="5.82187">
        <ele>310</ele>
        <time>2023-06-23T09:12:32Z</time>
      </trkpt>
      <trkpt lat="49.39243" lon="5.82186">
        <ele>310.20001220703</ele>
        <time>2023-06-23T09:12:34Z</time>
      </trkpt>
      <trkpt lat="49.39241" lon="5.82185">
        <ele>310.20001220703</ele>
        <time>2023-06-23T09:12:35Z</time>
      </trkpt>
      <trkpt lat="49.39239" lon="5.82185">
        <ele>310.39999389648</ele>
        <time>2023-06-23T09:12:36Z</time>
      </trkpt>
      <trkpt lat="49.39237" lon="5.82184">
        <ele>311</ele>
        <time>2023-06-23T09:12:37Z</time>
      </trkpt>
      <trkpt lat="49.39235" lon="5.82184">
        <ele>311.20001220703</ele>
        <time>2023-06-23T09:12:38Z</time>
      </trkpt>
      <trkpt lat="49.39231" lon="5.82186">
        <ele>311.60000610352</ele>
        <time>2023-06-23T09:12:40Z</time>
      </trkpt>
      <trkpt lat="49.39227" lon="5.82186">
        <ele>311.79998779297</ele>
        <time>2023-06-23T09:12:42Z</time>
      </trkpt>
      <trkpt lat="49.39225" lon="5.82186">
        <ele>312</ele>
        <time>2023-06-23T09:12:43Z</time>
      </trkpt>
      <trkpt lat="49.39222" lon="5.82187">
        <ele>312.20001220703</ele>
        <time>2023-06-23T09:12:44Z</time>
      </trkpt>
      <trkpt lat="49.3922" lon="5.82187">
        <ele>312.39999389648</ele>
        <time>2023-06-23T09:12:45Z</time>
      </trkpt>
      <trkpt lat="49.39218" lon="5.82187">
        <ele>312.60000610352</ele>
        <time>2023-06-23T09:12:46Z</time>
      </trkpt>
      <trkpt lat="49.39214" lon="5.82188">
        <ele>312.79998779297</ele>
        <time>2023-06-23T09:12:48Z</time>
      </trkpt>
      <trkpt lat="49.39211" lon="5.82188">
        <ele>313</ele>
        <time>2023-06-23T09:12:49Z</time>
      </trkpt>
      <trkpt lat="49.39208" lon="5.82188">
        <ele>313</ele>
        <time>2023-06-23T09:12:50Z</time>
      </trkpt>
      <trkpt lat="49.39204" lon="5.82189">
        <ele>313.39999389648</ele>
        <time>2023-06-23T09:12:52Z</time>
      </trkpt>
      <trkpt lat="49.39199" lon="5.82188">
        <ele>313.79998779297</ele>
        <time>2023-06-23T09:12:54Z</time>
      </trkpt>
      <trkpt lat="49.39197" lon="5.82188">
        <ele>313.79998779297</ele>
        <time>2023-06-23T09:12:55Z</time>
      </trkpt>
      <trkpt lat="49.39195" lon="5.82189">
        <ele>314</ele>
        <time>2023-06-23T09:12:56Z</time>
      </trkpt>
      <trkpt lat="49.39193" lon="5.82189">
        <ele>314.20001220703</ele>
        <time>2023-06-23T09:12:57Z</time>
      </trkpt>
      <trkpt lat="49.3919" lon="5.82188">
        <ele>314.20001220703</ele>
        <time>2023-06-23T09:12:58Z</time>
      </trkpt>
      <trkpt lat="49.39185" lon="5.82188">
        <ele>314.60000610352</ele>
        <time>2023-06-23T09:13:00Z</time>
      </trkpt>
      <trkpt lat="49.3918" lon="5.82186">
        <ele>315</ele>
        <time>2023-06-23T09:13:02Z</time>
      </trkpt>
      <trkpt lat="49.39175" lon="5.82185">
        <ele>315.20001220703</ele>
        <time>2023-06-23T09:13:04Z</time>
      </trkpt>
      <trkpt lat="49.3917" lon="5.82186">
        <ele>315.60000610352</ele>
        <time>2023-06-23T09:13:06Z</time>
      </trkpt>
      <trkpt lat="49.39166" lon="5.82186">
        <ele>315.79998779297</ele>
        <time>2023-06-23T09:13:08Z</time>
      </trkpt>
      <trkpt lat="49.39162" lon="5.82186">
        <ele>316.39999389648</ele>
        <time>2023-06-23T09:13:10Z</time>
      </trkpt>
      <trkpt lat="49.39159" lon="5.82188">
        <ele>316.79998779297</ele>
        <time>2023-06-23T09:13:12Z</time>
      </trkpt>
      <trkpt lat="49.39156" lon="5.82188">
        <ele>317</ele>
        <time>2023-06-23T09:13:13Z</time>
      </trkpt>
      <trkpt lat="49.39154" lon="5.82188">
        <ele>317</ele>
        <time>2023-06-23T09:13:14Z</time>
      </trkpt>
      <trkpt lat="49.3915" lon="5.82189">
        <ele>317.20001220703</ele>
        <time>2023-06-23T09:13:16Z</time>
      </trkpt>
      <trkpt lat="49.39148" lon="5.82189">
        <ele>317.20001220703</ele>
        <time>2023-06-23T09:13:17Z</time>
      </trkpt>
      <trkpt lat="49.39145" lon="5.82189">
        <ele>317.39999389648</ele>
        <time>2023-06-23T09:13:18Z</time>
      </trkpt>
      <trkpt lat="49.3914" lon="5.82189">
        <ele>317.79998779297</ele>
        <time>2023-06-23T09:13:20Z</time>
      </trkpt>
      <trkpt lat="49.39136" lon="5.8219">
        <ele>318.20001220703</ele>
        <time>2023-06-23T09:13:22Z</time>
      </trkpt>
      <trkpt lat="49.39132" lon="5.82192">
        <ele>318.39999389648</ele>
        <time>2023-06-23T09:13:24Z</time>
      </trkpt>
      <trkpt lat="49.39129" lon="5.82194">
        <ele>318.79998779297</ele>
        <time>2023-06-23T09:13:26Z</time>
      </trkpt>
      <trkpt lat="49.39127" lon="5.82196">
        <ele>319</ele>
        <time>2023-06-23T09:13:27Z</time>
      </trkpt>
      <trkpt lat="49.39126" lon="5.82196">
        <ele>319</ele>
        <time>2023-06-23T09:13:28Z</time>
      </trkpt>
      <trkpt lat="49.39122" lon="5.82199">
        <ele>319.20001220703</ele>
        <time>2023-06-23T09:13:30Z</time>
      </trkpt>
      <trkpt lat="49.39117" lon="5.82202">
        <ele>319.60000610352</ele>
        <time>2023-06-23T09:13:32Z</time>
      </trkpt>
      <trkpt lat="49.39116" lon="5.82204">
        <ele>319.60000610352</ele>
        <time>2023-06-23T09:13:33Z</time>
      </trkpt>
      <trkpt lat="49.39114" lon="5.82206">
        <ele>319.60000610352</ele>
        <time>2023-06-23T09:13:34Z</time>
      </trkpt>
      <trkpt lat="49.3911" lon="5.8221">
        <ele>319.79998779297</ele>
        <time>2023-06-23T09:13:36Z</time>
      </trkpt>
      <trkpt lat="49.39106" lon="5.82214">
        <ele>319.79998779297</ele>
        <time>2023-06-23T09:13:38Z</time>
      </trkpt>
      <trkpt lat="49.39104" lon="5.82216">
        <ele>319.79998779297</ele>
        <time>2023-06-23T09:13:39Z</time>
      </trkpt>
      <trkpt lat="49.39102" lon="5.82219">
        <ele>319.79998779297</ele>
        <time>2023-06-23T09:13:40Z</time>
      </trkpt>
      <trkpt lat="49.39098" lon="5.82223">
        <ele>319.79998779297</ele>
        <time>2023-06-23T09:13:42Z</time>
      </trkpt>
      <trkpt lat="49.39094" lon="5.82227">
        <ele>319.79998779297</ele>
        <time>2023-06-23T09:13:44Z</time>
      </trkpt>
      <trkpt lat="49.3909" lon="5.82232">
        <ele>319.79998779297</ele>
        <time>2023-06-23T09:13:46Z</time>
      </trkpt>
      <trkpt lat="49.39086" lon="5.82238">
        <ele>319.79998779297</ele>
        <time>2023-06-23T09:13:48Z</time>
      </trkpt>
      <trkpt lat="49.39083" lon="5.8224">
        <ele>319.79998779297</ele>
        <time>2023-06-23T09:13:49Z</time>
      </trkpt>
      <trkpt lat="49.39081" lon="5.82243">
        <ele>319.79998779297</ele>
        <time>2023-06-23T09:13:50Z</time>
      </trkpt>
      <trkpt lat="49.39074" lon="5.82249">
        <ele>319.79998779297</ele>
        <time>2023-06-23T09:13:52Z</time>
      </trkpt>
      <trkpt lat="49.39068" lon="5.82255">
        <ele>319.60000610352</ele>
        <time>2023-06-23T09:13:54Z</time>
      </trkpt>
      <trkpt lat="49.39062" lon="5.82263">
        <ele>319.39999389648</ele>
        <time>2023-06-23T09:13:56Z</time>
      </trkpt>
      <trkpt lat="49.39055" lon="5.82269">
        <ele>319.20001220703</ele>
        <time>2023-06-23T09:13:58Z</time>
      </trkpt>
      <trkpt lat="49.39051" lon="5.82276">
        <ele>319.20001220703</ele>
        <time>2023-06-23T09:13:59Z</time>
      </trkpt>
      <trkpt lat="49.39048" lon="5.82281">
        <ele>319.20001220703</ele>
        <time>2023-06-23T09:14:00Z</time>
      </trkpt>
      <trkpt lat="49.39045" lon="5.82289">
        <ele>319</ele>
        <time>2023-06-23T09:14:02Z</time>
      </trkpt>
      <trkpt lat="49.39044" lon="5.82294">
        <ele>319</ele>
        <time>2023-06-23T09:14:03Z</time>
      </trkpt>
      <trkpt lat="49.39043" lon="5.82299">
        <ele>319</ele>
        <time>2023-06-23T09:14:04Z</time>
      </trkpt>
      <trkpt lat="49.39043" lon="5.82309">
        <ele>319</ele>
        <time>2023-06-23T09:14:06Z</time>
      </trkpt>
      <trkpt lat="49.39041" lon="5.82315">
        <ele>318.79998779297</ele>
        <time>2023-06-23T09:14:07Z</time>
      </trkpt>
      <trkpt lat="49.39039" lon="5.82321">
        <ele>318.79998779297</ele>
        <time>2023-06-23T09:14:08Z</time>
      </trkpt>
      <trkpt lat="49.39034" lon="5.82335">
        <ele>318.60000610352</ele>
        <time>2023-06-23T09:14:10Z</time>
      </trkpt>
      <trkpt lat="49.39032" lon="5.82342">
        <ele>318.39999389648</ele>
        <time>2023-06-23T09:14:11Z</time>
      </trkpt>
      <trkpt lat="49.39029" lon="5.82349">
        <ele>317.79998779297</ele>
        <time>2023-06-23T09:14:12Z</time>
      </trkpt>
      <trkpt lat="49.39027" lon="5.82356">
        <ele>317.39999389648</ele>
        <time>2023-06-23T09:14:13Z</time>
      </trkpt>
      <trkpt lat="49.39024" lon="5.82364">
        <ele>316.79998779297</ele>
        <time>2023-06-23T09:14:14Z</time>
      </trkpt>
      <trkpt lat="49.39021" lon="5.82371">
        <ele>316.20001220703</ele>
        <time>2023-06-23T09:14:15Z</time>
      </trkpt>
      <trkpt lat="49.39018" lon="5.8238">
        <ele>316</ele>
        <time>2023-06-23T09:14:16Z</time>
      </trkpt>
      <trkpt lat="49.39013" lon="5.82393">
        <ele>314.79998779297</ele>
        <time>2023-06-23T09:14:18Z</time>
      </trkpt>
      <trkpt lat="49.3901" lon="5.82403">
        <ele>313.79998779297</ele>
        <time>2023-06-23T09:14:20Z</time>
      </trkpt>
      <trkpt lat="49.39008" lon="5.82411">
        <ele>312.79998779297</ele>
        <time>2023-06-23T09:14:22Z</time>
      </trkpt>
      <trkpt lat="49.39006" lon="5.82415">
        <ele>312.20001220703</ele>
        <time>2023-06-23T09:14:23Z</time>
      </trkpt>
      <trkpt lat="49.39004" lon="5.82419">
        <ele>311.60000610352</ele>
        <time>2023-06-23T09:14:24Z</time>
      </trkpt>
      <trkpt lat="49.39001" lon="5.82429">
        <ele>310.20001220703</ele>
        <time>2023-06-23T09:14:25Z</time>
      </trkpt>
      <trkpt lat="49.38999" lon="5.82435">
        <ele>310.20001220703</ele>
        <time>2023-06-23T09:14:26Z</time>
      </trkpt>
      <trkpt lat="49.38995" lon="5.82446">
        <ele>309.79998779297</ele>
        <time>2023-06-23T09:14:28Z</time>
      </trkpt>
      <trkpt lat="49.38991" lon="5.82454">
        <ele>309.20001220703</ele>
        <time>2023-06-23T09:14:30Z</time>
      </trkpt>
      <trkpt lat="49.38988" lon="5.82459">
        <ele>307.39999389648</ele>
        <time>2023-06-23T09:14:32Z</time>
      </trkpt>
      <trkpt lat="49.38984" lon="5.82466">
        <ele>306.20001220703</ele>
        <time>2023-06-23T09:14:34Z</time>
      </trkpt>
      <trkpt lat="49.38981" lon="5.82469">
        <ele>306</ele>
        <time>2023-06-23T09:14:36Z</time>
      </trkpt>
      <trkpt lat="49.3898" lon="5.8247">
        <ele>306</ele>
        <time>2023-06-23T09:14:38Z</time>
      </trkpt>
      <trkpt lat="49.38979" lon="5.82472">
        <ele>305.79998779297</ele>
        <time>2023-06-23T09:14:40Z</time>
      </trkpt>
      <trkpt lat="49.38979" lon="5.82472">
        <ele>305.79998779297</ele>
        <time>2023-06-23T09:14:42Z</time>
      </trkpt>
      <trkpt lat="49.38979" lon="5.82472">
        <ele>306</ele>
        <time>2023-06-23T09:14:44Z</time>
      </trkpt>
      <trkpt lat="49.38979" lon="5.82472">
        <ele>306</ele>
        <time>2023-06-23T09:14:46Z</time>
      </trkpt>
      <trkpt lat="49.38979" lon="5.82473">
        <ele>306.20001220703</ele>
        <time>2023-06-23T09:14:47Z</time>
      </trkpt>
      <trkpt lat="49.38979" lon="5.82473">
        <ele>306.20001220703</ele>
        <time>2023-06-23T09:14:48Z</time>
      </trkpt>
      <trkpt lat="49.38979" lon="5.82473">
        <ele>306.20001220703</ele>
        <time>2023-06-23T09:14:50Z</time>
      </trkpt>
      <trkpt lat="49.38978" lon="5.82473">
        <ele>306.20001220703</ele>
        <time>2023-06-23T09:14:52Z</time>
      </trkpt>
      <trkpt lat="49.38978" lon="5.82473">
        <ele>306.20001220703</ele>
        <time>2023-06-23T09:14:54Z</time>
      </trkpt>
      <trkpt lat="49.38978" lon="5.82473">
        <ele>306.20001220703</ele>
        <time>2023-06-23T09:14:56Z</time>
      </trkpt>
      <trkpt lat="49.38978" lon="5.82473">
        <ele>306.20001220703</ele>
        <time>2023-06-23T09:14:58Z</time>
      </trkpt>
      <trkpt lat="49.38978" lon="5.82473">
        <ele>306.20001220703</ele>
        <time>2023-06-23T09:15:00Z</time>
      </trkpt>
      <trkpt lat="49.38978" lon="5.82473">
        <ele>306.20001220703</ele>
        <time>2023-06-23T09:15:02Z</time>
      </trkpt>
      <trkpt lat="49.38978" lon="5.82473">
        <ele>306.20001220703</ele>
        <time>2023-06-23T09:15:04Z</time>
      </trkpt>
      <trkpt lat="49.38978" lon="5.82473">
        <ele>306.20001220703</ele>
        <time>2023-06-23T09:15:06Z</time>
      </trkpt>
      <trkpt lat="49.38978" lon="5.82473">
        <ele>306.20001220703</ele>
        <time>2023-06-23T09:15:08Z</time>
      </trkpt>
      <trkpt lat="49.38977" lon="5.82473">
        <ele>306.20001220703</ele>
        <time>2023-06-23T09:15:10Z</time>
      </trkpt>
      <trkpt lat="49.38977" lon="5.82474">
        <ele>306.20001220703</ele>
        <time>2023-06-23T09:15:12Z</time>
      </trkpt>
      <trkpt lat="49.38977" lon="5.82474">
        <ele>306.20001220703</ele>
        <time>2023-06-23T09:15:14Z</time>
      </trkpt>
      <trkpt lat="49.38977" lon="5.82474">
        <ele>306.20001220703</ele>
        <time>2023-06-23T09:15:16Z</time>
      </trkpt>
      <trkpt lat="49.38977" lon="5.82474">
        <ele>306.20001220703</ele>
        <time>2023-06-23T09:15:18Z</time>
      </trkpt>
      <trkpt lat="49.38977" lon="5.82474">
        <ele>306.20001220703</ele>
        <time>2023-06-23T09:15:20Z</time>
      </trkpt>
      <trkpt lat="49.38977" lon="5.82474">
        <ele>306.20001220703</ele>
        <time>2023-06-23T09:15:22Z</time>
      </trkpt>
      <trkpt lat="49.38977" lon="5.82474">
        <ele>306.20001220703</ele>
        <time>2023-06-23T09:15:24Z</time>
      </trkpt>
      <trkpt lat="49.38977" lon="5.82474">
        <ele>306.20001220703</ele>
        <time>2023-06-23T09:15:26Z</time>
      </trkpt>
      <trkpt lat="49.38977" lon="5.82474">
        <ele>306.39999389648</ele>
        <time>2023-06-23T09:15:28Z</time>
      </trkpt>
      <trkpt lat="49.38976" lon="5.82475">
        <ele>306.39999389648</ele>
        <time>2023-06-23T09:15:30Z</time>
      </trkpt>
      <trkpt lat="49.38976" lon="5.82475">
        <ele>306.39999389648</ele>
        <time>2023-06-23T09:15:32Z</time>
      </trkpt>
      <trkpt lat="49.38976" lon="5.82475">
        <ele>306.39999389648</ele>
        <time>2023-06-23T09:15:34Z</time>
      </trkpt>
      <trkpt lat="49.38976" lon="5.82475">
        <ele>306.39999389648</ele>
        <time>2023-06-23T09:15:36Z</time>
      </trkpt>
      <trkpt lat="49.38976" lon="5.82475">
        <ele>306.39999389648</ele>
        <time>2023-06-23T09:15:38Z</time>
      </trkpt>
      <trkpt lat="49.38976" lon="5.82475">
        <ele>306.39999389648</ele>
        <time>2023-06-23T09:15:40Z</time>
      </trkpt>
      <trkpt lat="49.38976" lon="5.82475">
        <ele>306.39999389648</ele>
        <time>2023-06-23T09:15:41Z</time>
      </trkpt>
      <trkpt lat="49.38975" lon="5.82475">
        <ele>306.39999389648</ele>
        <time>2023-06-23T09:15:42Z</time>
      </trkpt>
      <trkpt lat="49.38975" lon="5.82475">
        <ele>306.39999389648</ele>
        <time>2023-06-23T09:15:44Z</time>
      </trkpt>
      <trkpt lat="49.38975" lon="5.82474">
        <ele>306.20001220703</ele>
        <time>2023-06-23T09:15:46Z</time>
      </trkpt>
      <trkpt lat="49.38975" lon="5.82474">
        <ele>306.20001220703</ele>
        <time>2023-06-23T09:15:48Z</time>
      </trkpt>
      <trkpt lat="49.38975" lon="5.82475">
        <ele>306.20001220703</ele>
        <time>2023-06-23T09:15:50Z</time>
      </trkpt>
      <trkpt lat="49.38975" lon="5.82475">
        <ele>306.20001220703</ele>
        <time>2023-06-23T09:15:52Z</time>
      </trkpt>
      <trkpt lat="49.38974" lon="5.82475">
        <ele>306.20001220703</ele>
        <time>2023-06-23T09:15:54Z</time>
      </trkpt>
      <trkpt lat="49.38974" lon="5.82475">
        <ele>306.20001220703</ele>
        <time>2023-06-23T09:15:56Z</time>
      </trkpt>
      <trkpt lat="49.38974" lon="5.82475">
        <ele>306.20001220703</ele>
        <time>2023-06-23T09:15:58Z</time>
      </trkpt>
      <trkpt lat="49.38974" lon="5.82476">
        <ele>306.20001220703</ele>
        <time>2023-06-23T09:16:00Z</time>
      </trkpt>
      <trkpt lat="49.38974" lon="5.82476">
        <ele>306.20001220703</ele>
        <time>2023-06-23T09:16:01Z</time>
      </trkpt>
      <trkpt lat="49.38973" lon="5.82477">
        <ele>306.20001220703</ele>
        <time>2023-06-23T09:16:02Z</time>
      </trkpt>
      <trkpt lat="49.38973" lon="5.82477">
        <ele>306.20001220703</ele>
        <time>2023-06-23T09:16:04Z</time>
      </trkpt>
      <trkpt lat="49.38973" lon="5.82477">
        <ele>306.20001220703</ele>
        <time>2023-06-23T09:16:06Z</time>
      </trkpt>
      <trkpt lat="49.38973" lon="5.82477">
        <ele>306.20001220703</ele>
        <time>2023-06-23T09:16:08Z</time>
      </trkpt>
      <trkpt lat="49.38973" lon="5.82477">
        <ele>306</ele>
        <time>2023-06-23T09:16:10Z</time>
      </trkpt>
      <trkpt lat="49.38973" lon="5.82477">
        <ele>306</ele>
        <time>2023-06-23T09:16:11Z</time>
      </trkpt>
      <trkpt lat="49.38973" lon="5.82477">
        <ele>306</ele>
        <time>2023-06-23T09:16:12Z</time>
      </trkpt>
      <trkpt lat="49.38973" lon="5.82477">
        <ele>306</ele>
        <time>2023-06-23T09:16:14Z</time>
      </trkpt>
      <trkpt lat="49.38972" lon="5.82477">
        <ele>306</ele>
        <time>2023-06-23T09:16:16Z</time>
      </trkpt>
      <trkpt lat="49.38972" lon="5.82477">
        <ele>306</ele>
        <time>2023-06-23T09:16:18Z</time>
      </trkpt>
      <trkpt lat="49.38972" lon="5.82477">
        <ele>306</ele>
        <time>2023-06-23T09:16:19Z</time>
      </trkpt>
      <trkpt lat="49.38972" lon="5.82476">
        <ele>306</ele>
        <time>2023-06-23T09:16:20Z</time>
      </trkpt>
      <trkpt lat="49.38972" lon="5.82476">
        <ele>306</ele>
        <time>2023-06-23T09:16:22Z</time>
      </trkpt>
      <trkpt lat="49.38972" lon="5.82476">
        <ele>306</ele>
        <time>2023-06-23T09:16:24Z</time>
      </trkpt>
      <trkpt lat="49.38972" lon="5.82477">
        <ele>306</ele>
        <time>2023-06-23T09:16:26Z</time>
      </trkpt>
      <trkpt lat="49.38971" lon="5.82477">
        <ele>306</ele>
        <time>2023-06-23T09:16:28Z</time>
      </trkpt>
      <trkpt lat="49.38971" lon="5.82478">
        <ele>306</ele>
        <time>2023-06-23T09:16:30Z</time>
      </trkpt>
      <trkpt lat="49.38971" lon="5.82479">
        <ele>306</ele>
        <time>2023-06-23T09:16:31Z</time>
      </trkpt>
      <trkpt lat="49.38971" lon="5.82479">
        <ele>306</ele>
        <time>2023-06-23T09:16:32Z</time>
      </trkpt>
      <trkpt lat="49.3897" lon="5.82479">
        <ele>306</ele>
        <time>2023-06-23T09:16:34Z</time>
      </trkpt>
      <trkpt lat="49.3897" lon="5.82479">
        <ele>306</ele>
        <time>2023-06-23T09:16:36Z</time>
      </trkpt>
      <trkpt lat="49.3897" lon="5.82478">
        <ele>306</ele>
        <time>2023-06-23T09:16:38Z</time>
      </trkpt>
      <trkpt lat="49.3897" lon="5.82478">
        <ele>306</ele>
        <time>2023-06-23T09:16:39Z</time>
      </trkpt>
      <trkpt lat="49.3897" lon="5.82478">
        <ele>306</ele>
        <time>2023-06-23T09:16:40Z</time>
      </trkpt>
      <trkpt lat="49.3897" lon="5.82479">
        <ele>306</ele>
        <time>2023-06-23T09:16:42Z</time>
      </trkpt>
      <trkpt lat="49.3897" lon="5.82479">
        <ele>306</ele>
        <time>2023-06-23T09:16:44Z</time>
      </trkpt>
      <trkpt lat="49.3897" lon="5.82479">
        <ele>306</ele>
        <time>2023-06-23T09:16:46Z</time>
      </trkpt>
      <trkpt lat="49.3897" lon="5.82479">
        <ele>306</ele>
        <time>2023-06-23T09:16:48Z</time>
      </trkpt>
      <trkpt lat="49.38969" lon="5.82479">
        <ele>306</ele>
        <time>2023-06-23T09:16:50Z</time>
      </trkpt>
      <trkpt lat="49.38969" lon="5.82479">
        <ele>306</ele>
        <time>2023-06-23T09:16:52Z</time>
      </trkpt>
      <trkpt lat="49.38969" lon="5.82479">
        <ele>306</ele>
        <time>2023-06-23T09:16:54Z</time>
      </trkpt>
      <trkpt lat="49.38969" lon="5.82479">
        <ele>306</ele>
        <time>2023-06-23T09:16:56Z</time>
      </trkpt>
      <trkpt lat="49.38969" lon="5.82479">
        <ele>306</ele>
        <time>2023-06-23T09:16:58Z</time>
      </trkpt>
      <trkpt lat="49.38969" lon="5.82479">
        <ele>306</ele>
        <time>2023-06-23T09:17:00Z</time>
      </trkpt>
      <trkpt lat="49.38969" lon="5.82479">
        <ele>306</ele>
        <time>2023-06-23T09:17:01Z</time>
      </trkpt>
      <trkpt lat="49.38969" lon="5.82479">
        <ele>306</ele>
        <time>2023-06-23T09:17:02Z</time>
      </trkpt>
      <trkpt lat="49.38969" lon="5.82479">
        <ele>306</ele>
        <time>2023-06-23T09:17:04Z</time>
      </trkpt>
      <trkpt lat="49.38969" lon="5.82479">
        <ele>306</ele>
        <time>2023-06-23T09:17:06Z</time>
      </trkpt>
      <trkpt lat="49.38969" lon="5.82479">
        <ele>306</ele>
        <time>2023-06-23T09:17:08Z</time>
      </trkpt>
      <trkpt lat="49.38969" lon="5.82479">
        <ele>306</ele>
        <time>2023-06-23T09:17:10Z</time>
      </trkpt>
      <trkpt lat="49.38969" lon="5.82479">
        <ele>306</ele>
        <time>2023-06-23T09:17:11Z</time>
      </trkpt>
      <trkpt lat="49.38969" lon="5.82479">
        <ele>306</ele>
        <time>2023-06-23T09:17:12Z</time>
      </trkpt>
      <trkpt lat="49.38969" lon="5.82479">
        <ele>306</ele>
        <time>2023-06-23T09:17:14Z</time>
      </trkpt>
      <trkpt lat="49.38969" lon="5.82479">
        <ele>306</ele>
        <time>2023-06-23T09:17:16Z</time>
      </trkpt>
      <trkpt lat="49.38969" lon="5.82479">
        <ele>306</ele>
        <time>2023-06-23T09:17:18Z</time>
      </trkpt>
      <trkpt lat="49.38968" lon="5.82479">
        <ele>306</ele>
        <time>2023-06-23T09:17:20Z</time>
      </trkpt>
      <trkpt lat="49.38968" lon="5.82479">
        <ele>306</ele>
        <time>2023-06-23T09:17:21Z</time>
      </trkpt>
      <trkpt lat="49.38968" lon="5.82479">
        <ele>306</ele>
        <time>2023-06-23T09:17:22Z</time>
      </trkpt>
      <trkpt lat="49.38968" lon="5.82479">
        <ele>306</ele>
        <time>2023-06-23T09:17:24Z</time>
      </trkpt>
      <trkpt lat="49.38968" lon="5.82479">
        <ele>306.20001220703</ele>
        <time>2023-06-23T09:17:26Z</time>
      </trkpt>
      <trkpt lat="49.38968" lon="5.82479">
        <ele>306.20001220703</ele>
        <time>2023-06-23T09:17:28Z</time>
      </trkpt>
      <trkpt lat="49.38968" lon="5.82478">
        <ele>306.20001220703</ele>
        <time>2023-06-23T09:17:30Z</time>
      </trkpt>
      <trkpt lat="49.38968" lon="5.82478">
        <ele>306.20001220703</ele>
        <time>2023-06-23T09:17:32Z</time>
      </trkpt>
      <trkpt lat="49.38968" lon="5.82478">
        <ele>306.20001220703</ele>
        <time>2023-06-23T09:17:34Z</time>
      </trkpt>
      <trkpt lat="49.38967" lon="5.82478">
        <ele>306.20001220703</ele>
        <time>2023-06-23T09:17:36Z</time>
      </trkpt>
      <trkpt lat="49.38967" lon="5.82478">
        <ele>306.20001220703</ele>
        <time>2023-06-23T09:17:38Z</time>
      </trkpt>
      <trkpt lat="49.38967" lon="5.82478">
        <ele>306.20001220703</ele>
        <time>2023-06-23T09:17:40Z</time>
      </trkpt>
      <trkpt lat="49.38967" lon="5.82478">
        <ele>306.20001220703</ele>
        <time>2023-06-23T09:17:42Z</time>
      </trkpt>
      <trkpt lat="49.38967" lon="5.82478">
        <ele>306</ele>
        <time>2023-06-23T09:17:44Z</time>
      </trkpt>
      <trkpt lat="49.38967" lon="5.82478">
        <ele>306</ele>
        <time>2023-06-23T09:17:46Z</time>
      </trkpt>
      <trkpt lat="49.38967" lon="5.82479">
        <ele>306</ele>
        <time>2023-06-23T09:17:48Z</time>
      </trkpt>
      <trkpt lat="49.38967" lon="5.8248">
        <ele>306</ele>
        <time>2023-06-23T09:17:49Z</time>
      </trkpt>
      <trkpt lat="49.38968" lon="5.82483">
        <ele>305.79998779297</ele>
        <time>2023-06-23T09:17:50Z</time>
      </trkpt>
      <trkpt lat="49.38969" lon="5.82489">
        <ele>306</ele>
        <time>2023-06-23T09:17:52Z</time>
      </trkpt>
      <trkpt lat="49.38971" lon="5.82498">
        <ele>305.79998779297</ele>
        <time>2023-06-23T09:17:54Z</time>
      </trkpt>
      <trkpt lat="49.38971" lon="5.82506">
        <ele>305.79998779297</ele>
        <time>2023-06-23T09:17:56Z</time>
      </trkpt>
      <trkpt lat="49.38971" lon="5.82514">
        <ele>305.39999389648</ele>
        <time>2023-06-23T09:17:58Z</time>
      </trkpt>
      <trkpt lat="49.38972" lon="5.82517">
        <ele>305.39999389648</ele>
        <time>2023-06-23T09:17:59Z</time>
      </trkpt>
      <trkpt lat="49.38973" lon="5.82521">
        <ele>305.20001220703</ele>
        <time>2023-06-23T09:18:00Z</time>
      </trkpt>
      <trkpt lat="49.38975" lon="5.82524">
        <ele>304.60000610352</ele>
        <time>2023-06-23T09:18:01Z</time>
      </trkpt>
      <trkpt lat="49.38976" lon="5.82528">
        <ele>303.79998779297</ele>
        <time>2023-06-23T09:18:02Z</time>
      </trkpt>
      <trkpt lat="49.38977" lon="5.82534">
        <ele>303.20001220703</ele>
        <time>2023-06-23T09:18:03Z</time>
      </trkpt>
      <trkpt lat="49.38978" lon="5.8254">
        <ele>302.79998779297</ele>
        <time>2023-06-23T09:18:04Z</time>
      </trkpt>
      <trkpt lat="49.3898" lon="5.82554">
        <ele>302.39999389648</ele>
        <time>2023-06-23T09:18:06Z</time>
      </trkpt>
      <trkpt lat="49.38982" lon="5.82565">
        <ele>302.20001220703</ele>
        <time>2023-06-23T09:18:08Z</time>
      </trkpt>
      <trkpt lat="49.38983" lon="5.82569">
        <ele>302.20001220703</ele>
        <time>2023-06-23T09:18:09Z</time>
      </trkpt>
      <trkpt lat="49.38984" lon="5.82573">
        <ele>302</ele>
        <time>2023-06-23T09:18:10Z</time>
      </trkpt>
      <trkpt lat="49.38985" lon="5.82578">
        <ele>302</ele>
        <time>2023-06-23T09:18:11Z</time>
      </trkpt>
      <trkpt lat="49.38985" lon="5.82584">
        <ele>302</ele>
        <time>2023-06-23T09:18:12Z</time>
      </trkpt>
      <trkpt lat="49.38986" lon="5.82588">
        <ele>302</ele>
        <time>2023-06-23T09:18:13Z</time>
      </trkpt>
      <trkpt lat="49.38987" lon="5.82593">
        <ele>302</ele>
        <time>2023-06-23T09:18:14Z</time>
      </trkpt>
      <trkpt lat="49.38987" lon="5.82603">
        <ele>302</ele>
        <time>2023-06-23T09:18:16Z</time>
      </trkpt>
      <trkpt lat="49.38987" lon="5.82608">
        <ele>302</ele>
        <time>2023-06-23T09:18:17Z</time>
      </trkpt>
      <trkpt lat="49.38988" lon="5.82612">
        <ele>302</ele>
        <time>2023-06-23T09:18:18Z</time>
      </trkpt>
      <trkpt lat="49.38989" lon="5.82623">
        <ele>302.20001220703</ele>
        <time>2023-06-23T09:18:20Z</time>
      </trkpt>
      <trkpt lat="49.38991" lon="5.82632">
        <ele>302.79998779297</ele>
        <time>2023-06-23T09:18:22Z</time>
      </trkpt>
      <trkpt lat="49.38991" lon="5.82639">
        <ele>303.20001220703</ele>
        <time>2023-06-23T09:18:24Z</time>
      </trkpt>
      <trkpt lat="49.3899" lon="5.82644">
        <ele>303.60000610352</ele>
        <time>2023-06-23T09:18:26Z</time>
      </trkpt>
      <trkpt lat="49.3899" lon="5.82645">
        <ele>303.79998779297</ele>
        <time>2023-06-23T09:18:28Z</time>
      </trkpt>
      <trkpt lat="49.3899" lon="5.82647">
        <ele>304.79998779297</ele>
        <time>2023-06-23T09:18:30Z</time>
      </trkpt>
      <trkpt lat="49.3899" lon="5.82649">
        <ele>305.20001220703</ele>
        <time>2023-06-23T09:18:32Z</time>
      </trkpt>
      <trkpt lat="49.38991" lon="5.82652">
        <ele>305.39999389648</ele>
        <time>2023-06-23T09:18:34Z</time>
      </trkpt>
      <trkpt lat="49.38992" lon="5.82656">
        <ele>305.60000610352</ele>
        <time>2023-06-23T09:18:36Z</time>
      </trkpt>
      <trkpt lat="49.38993" lon="5.82662">
        <ele>305.39999389648</ele>
        <time>2023-06-23T09:18:38Z</time>
      </trkpt>
      <trkpt lat="49.38994" lon="5.8267">
        <ele>305.60000610352</ele>
        <time>2023-06-23T09:18:40Z</time>
      </trkpt>
      <trkpt lat="49.38996" lon="5.82679">
        <ele>305.60000610352</ele>
        <time>2023-06-23T09:18:42Z</time>
      </trkpt>
      <trkpt lat="49.38998" lon="5.82689">
        <ele>305.60000610352</ele>
        <time>2023-06-23T09:18:44Z</time>
      </trkpt>
      <trkpt lat="49.38999" lon="5.82697">
        <ele>305.60000610352</ele>
        <time>2023-06-23T09:18:46Z</time>
      </trkpt>
      <trkpt lat="49.39" lon="5.82706">
        <ele>305.60000610352</ele>
        <time>2023-06-23T09:18:48Z</time>
      </trkpt>
      <trkpt lat="49.39002" lon="5.82716">
        <ele>305.60000610352</ele>
        <time>2023-06-23T09:18:50Z</time>
      </trkpt>
      <trkpt lat="49.39002" lon="5.82721">
        <ele>305.60000610352</ele>
        <time>2023-06-23T09:18:51Z</time>
      </trkpt>
      <trkpt lat="49.39003" lon="5.82725">
        <ele>305.79998779297</ele>
        <time>2023-06-23T09:18:52Z</time>
      </trkpt>
      <trkpt lat="49.39005" lon="5.82731">
        <ele>305.79998779297</ele>
        <time>2023-06-23T09:18:54Z</time>
      </trkpt>
      <trkpt lat="49.39009" lon="5.8274">
        <ele>305.79998779297</ele>
        <time>2023-06-23T09:18:56Z</time>
      </trkpt>
      <trkpt lat="49.39012" lon="5.8275">
        <ele>305.79998779297</ele>
        <time>2023-06-23T09:18:58Z</time>
      </trkpt>
      <trkpt lat="49.39017" lon="5.82762">
        <ele>305.79998779297</ele>
        <time>2023-06-23T09:19:00Z</time>
      </trkpt>
      <trkpt lat="49.39018" lon="5.82769">
        <ele>305.79998779297</ele>
        <time>2023-06-23T09:19:01Z</time>
      </trkpt>
      <trkpt lat="49.3902" lon="5.82776">
        <ele>305.79998779297</ele>
        <time>2023-06-23T09:19:02Z</time>
      </trkpt>
      <trkpt lat="49.39021" lon="5.82793">
        <ele>305.79998779297</ele>
        <time>2023-06-23T09:19:04Z</time>
      </trkpt>
      <trkpt lat="49.39022" lon="5.82803">
        <ele>305.79998779297</ele>
        <time>2023-06-23T09:19:05Z</time>
      </trkpt>
      <trkpt lat="49.39021" lon="5.82813">
        <ele>305.39999389648</ele>
        <time>2023-06-23T09:19:06Z</time>
      </trkpt>
      <trkpt lat="49.39021" lon="5.82824">
        <ele>305</ele>
        <time>2023-06-23T09:19:07Z</time>
      </trkpt>
      <trkpt lat="49.39019" lon="5.82835">
        <ele>304.60000610352</ele>
        <time>2023-06-23T09:19:08Z</time>
      </trkpt>
      <trkpt lat="49.39017" lon="5.82849">
        <ele>304.20001220703</ele>
        <time>2023-06-23T09:19:09Z</time>
      </trkpt>
      <trkpt lat="49.39017" lon="5.82861">
        <ele>303.60000610352</ele>
        <time>2023-06-23T09:19:10Z</time>
      </trkpt>
      <trkpt lat="49.39014" lon="5.82881">
        <ele>302</ele>
        <time>2023-06-23T09:19:12Z</time>
      </trkpt>
      <trkpt lat="49.39013" lon="5.82887">
        <ele>300.79998779297</ele>
        <time>2023-06-23T09:19:13Z</time>
      </trkpt>
      <trkpt lat="49.39011" lon="5.82891">
        <ele>299.79998779297</ele>
        <time>2023-06-23T09:19:14Z</time>
      </trkpt>
      <trkpt lat="49.39009" lon="5.82893">
        <ele>298.60000610352</ele>
        <time>2023-06-23T09:19:15Z</time>
      </trkpt>
      <trkpt lat="49.39006" lon="5.82896">
        <ele>297.60000610352</ele>
        <time>2023-06-23T09:19:16Z</time>
      </trkpt>
      <trkpt lat="49.39002" lon="5.82901">
        <ele>295.79998779297</ele>
        <time>2023-06-23T09:19:18Z</time>
      </trkpt>
      <trkpt lat="49.38997" lon="5.82904">
        <ele>295.20001220703</ele>
        <time>2023-06-23T09:19:20Z</time>
      </trkpt>
      <trkpt lat="49.38992" lon="5.82908">
        <ele>295.20001220703</ele>
        <time>2023-06-23T09:19:22Z</time>
      </trkpt>
      <trkpt lat="49.3899" lon="5.8291">
        <ele>295</ele>
        <time>2023-06-23T09:19:23Z</time>
      </trkpt>
      <trkpt lat="49.38987" lon="5.8291">
        <ele>295</ele>
        <time>2023-06-23T09:19:24Z</time>
      </trkpt>
      <trkpt lat="49.38981" lon="5.82909">
        <ele>295</ele>
        <time>2023-06-23T09:19:26Z</time>
      </trkpt>
      <trkpt lat="49.38976" lon="5.8291">
        <ele>295</ele>
        <time>2023-06-23T09:19:28Z</time>
      </trkpt>
      <trkpt lat="49.38971" lon="5.82909">
        <ele>295.20001220703</ele>
        <time>2023-06-23T09:19:30Z</time>
      </trkpt>
      <trkpt lat="49.38965" lon="5.82908">
        <ele>295.79998779297</ele>
        <time>2023-06-23T09:19:32Z</time>
      </trkpt>
      <trkpt lat="49.3896" lon="5.82907">
        <ele>296.39999389648</ele>
        <time>2023-06-23T09:19:34Z</time>
      </trkpt>
      <trkpt lat="49.38956" lon="5.82905">
        <ele>296.79998779297</ele>
        <time>2023-06-23T09:19:36Z</time>
      </trkpt>
      <trkpt lat="49.38954" lon="5.82904">
        <ele>297</ele>
        <time>2023-06-23T09:19:37Z</time>
      </trkpt>
      <trkpt lat="49.38952" lon="5.82903">
        <ele>297.39999389648</ele>
        <time>2023-06-23T09:19:38Z</time>
      </trkpt>
      <trkpt lat="49.38949" lon="5.82901">
        <ele>298</ele>
        <time>2023-06-23T09:19:40Z</time>
      </trkpt>
      <trkpt lat="49.38944" lon="5.829">
        <ele>298.20001220703</ele>
        <time>2023-06-23T09:19:42Z</time>
      </trkpt>
      <trkpt lat="49.38943" lon="5.829">
        <ele>298.20001220703</ele>
        <time>2023-06-23T09:19:43Z</time>
      </trkpt>
      <trkpt lat="49.38941" lon="5.829">
        <ele>298.60000610352</ele>
        <time>2023-06-23T09:19:44Z</time>
      </trkpt>
      <trkpt lat="49.38939" lon="5.82901">
        <ele>298.79998779297</ele>
        <time>2023-06-23T09:19:45Z</time>
      </trkpt>
      <trkpt lat="49.38938" lon="5.82901">
        <ele>299</ele>
        <time>2023-06-23T09:19:46Z</time>
      </trkpt>
      <trkpt lat="49.38936" lon="5.82902">
        <ele>299.20001220703</ele>
        <time>2023-06-23T09:19:47Z</time>
      </trkpt>
      <trkpt lat="49.38935" lon="5.82903">
        <ele>299.20001220703</ele>
        <time>2023-06-23T09:19:48Z</time>
      </trkpt>
      <trkpt lat="49.38933" lon="5.82904">
        <ele>299.20001220703</ele>
        <time>2023-06-23T09:19:49Z</time>
      </trkpt>
      <trkpt lat="49.38931" lon="5.82904">
        <ele>299.39999389648</ele>
        <time>2023-06-23T09:19:50Z</time>
      </trkpt>
      <trkpt lat="49.38928" lon="5.82905">
        <ele>299.79998779297</ele>
        <time>2023-06-23T09:19:52Z</time>
      </trkpt>
      <trkpt lat="49.38924" lon="5.82907">
        <ele>300.39999389648</ele>
        <time>2023-06-23T09:19:54Z</time>
      </trkpt>
      <trkpt lat="49.38922" lon="5.82908">
        <ele>300.60000610352</ele>
        <time>2023-06-23T09:19:56Z</time>
      </trkpt>
      <trkpt lat="49.38919" lon="5.82909">
        <ele>301.39999389648</ele>
        <time>2023-06-23T09:19:58Z</time>
      </trkpt>
      <trkpt lat="49.38916" lon="5.82908">
        <ele>302.60000610352</ele>
        <time>2023-06-23T09:20:00Z</time>
      </trkpt>
      <trkpt lat="49.38913" lon="5.8291">
        <ele>303.60000610352</ele>
        <time>2023-06-23T09:20:02Z</time>
      </trkpt>
      <trkpt lat="49.3891" lon="5.82912">
        <ele>304.39999389648</ele>
        <time>2023-06-23T09:20:04Z</time>
      </trkpt>
      <trkpt lat="49.38909" lon="5.82913">
        <ele>304.79998779297</ele>
        <time>2023-06-23T09:20:05Z</time>
      </trkpt>
      <trkpt lat="49.38908" lon="5.82914">
        <ele>305.20001220703</ele>
        <time>2023-06-23T09:20:06Z</time>
      </trkpt>
      <trkpt lat="49.38905" lon="5.82915">
        <ele>306</ele>
        <time>2023-06-23T09:20:08Z</time>
      </trkpt>
      <trkpt lat="49.38902" lon="5.82916">
        <ele>306.79998779297</ele>
        <time>2023-06-23T09:20:10Z</time>
      </trkpt>
      <trkpt lat="49.38902" lon="5.82916">
        <ele>307</ele>
        <time>2023-06-23T09:20:11Z</time>
      </trkpt>
      <trkpt lat="49.389" lon="5.82916">
        <ele>307.39999389648</ele>
        <time>2023-06-23T09:20:12Z</time>
      </trkpt>
      <trkpt lat="49.38898" lon="5.82916">
        <ele>307.79998779297</ele>
        <time>2023-06-23T09:20:14Z</time>
      </trkpt>
      <trkpt lat="49.38896" lon="5.82917">
        <ele>308.20001220703</ele>
        <time>2023-06-23T09:20:16Z</time>
      </trkpt>
      <trkpt lat="49.38892" lon="5.82919">
        <ele>308.79998779297</ele>
        <time>2023-06-23T09:20:18Z</time>
      </trkpt>
      <trkpt lat="49.3889" lon="5.82921">
        <ele>309</ele>
        <time>2023-06-23T09:20:20Z</time>
      </trkpt>
      <trkpt lat="49.38889" lon="5.82921">
        <ele>309.20001220703</ele>
        <time>2023-06-23T09:20:21Z</time>
      </trkpt>
      <trkpt lat="49.38888" lon="5.82921">
        <ele>309.39999389648</ele>
        <time>2023-06-23T09:20:22Z</time>
      </trkpt>
      <trkpt lat="49.38886" lon="5.82922">
        <ele>310</ele>
        <time>2023-06-23T09:20:24Z</time>
      </trkpt>
      <trkpt lat="49.38884" lon="5.82922">
        <ele>310.20001220703</ele>
        <time>2023-06-23T09:20:25Z</time>
      </trkpt>
      <trkpt lat="49.38882" lon="5.82922">
        <ele>310.39999389648</ele>
        <time>2023-06-23T09:20:26Z</time>
      </trkpt>
      <trkpt lat="49.38878" lon="5.82924">
        <ele>310.79998779297</ele>
        <time>2023-06-23T09:20:28Z</time>
      </trkpt>
      <trkpt lat="49.38875" lon="5.82927">
        <ele>311.20001220703</ele>
        <time>2023-06-23T09:20:30Z</time>
      </trkpt>
      <trkpt lat="49.38873" lon="5.82927">
        <ele>311.39999389648</ele>
        <time>2023-06-23T09:20:31Z</time>
      </trkpt>
      <trkpt lat="49.38872" lon="5.82928">
        <ele>311.60000610352</ele>
        <time>2023-06-23T09:20:32Z</time>
      </trkpt>
      <trkpt lat="49.3887" lon="5.82929">
        <ele>311.79998779297</ele>
        <time>2023-06-23T09:20:34Z</time>
      </trkpt>
      <trkpt lat="49.38868" lon="5.82931">
        <ele>312.20001220703</ele>
        <time>2023-06-23T09:20:36Z</time>
      </trkpt>
      <trkpt lat="49.38866" lon="5.82933">
        <ele>312.39999389648</ele>
        <time>2023-06-23T09:20:38Z</time>
      </trkpt>
      <trkpt lat="49.38865" lon="5.82933">
        <ele>312.60000610352</ele>
        <time>2023-06-23T09:20:39Z</time>
      </trkpt>
      <trkpt lat="49.38864" lon="5.82934">
        <ele>312.79998779297</ele>
        <time>2023-06-23T09:20:40Z</time>
      </trkpt>
      <trkpt lat="49.38862" lon="5.82936">
        <ele>313</ele>
        <time>2023-06-23T09:20:42Z</time>
      </trkpt>
      <trkpt lat="49.38859" lon="5.82936">
        <ele>313.39999389648</ele>
        <time>2023-06-23T09:20:44Z</time>
      </trkpt>
      <trkpt lat="49.38855" lon="5.82937">
        <ele>313.79998779297</ele>
        <time>2023-06-23T09:20:46Z</time>
      </trkpt>
      <trkpt lat="49.38852" lon="5.82938">
        <ele>314</ele>
        <time>2023-06-23T09:20:48Z</time>
      </trkpt>
      <trkpt lat="49.3885" lon="5.82939">
        <ele>314.20001220703</ele>
        <time>2023-06-23T09:20:49Z</time>
      </trkpt>
      <trkpt lat="49.38849" lon="5.8294">
        <ele>314.20001220703</ele>
        <time>2023-06-23T09:20:50Z</time>
      </trkpt>
      <trkpt lat="49.38845" lon="5.82941">
        <ele>314.60000610352</ele>
        <time>2023-06-23T09:20:52Z</time>
      </trkpt>
      <trkpt lat="49.38844" lon="5.82941">
        <ele>314.79998779297</ele>
        <time>2023-06-23T09:20:53Z</time>
      </trkpt>
      <trkpt lat="49.38842" lon="5.82942">
        <ele>315</ele>
        <time>2023-06-23T09:20:54Z</time>
      </trkpt>
      <trkpt lat="49.38839" lon="5.82943">
        <ele>315.20001220703</ele>
        <time>2023-06-23T09:20:56Z</time>
      </trkpt>
      <trkpt lat="49.38836" lon="5.82944">
        <ele>315.39999389648</ele>
        <time>2023-06-23T09:20:58Z</time>
      </trkpt>
      <trkpt lat="49.38831" lon="5.82945">
        <ele>315.60000610352</ele>
        <time>2023-06-23T09:21:00Z</time>
      </trkpt>
      <trkpt lat="49.38827" lon="5.82947">
        <ele>315.79998779297</ele>
        <time>2023-06-23T09:21:02Z</time>
      </trkpt>
      <trkpt lat="49.38824" lon="5.82949">
        <ele>315.79998779297</ele>
        <time>2023-06-23T09:21:04Z</time>
      </trkpt>
      <trkpt lat="49.38822" lon="5.82951">
        <ele>316</ele>
        <time>2023-06-23T09:21:06Z</time>
      </trkpt>
      <trkpt lat="49.3882" lon="5.82952">
        <ele>316</ele>
        <time>2023-06-23T09:21:07Z</time>
      </trkpt>
      <trkpt lat="49.38818" lon="5.82952">
        <ele>316.20001220703</ele>
        <time>2023-06-23T09:21:08Z</time>
      </trkpt>
      <trkpt lat="49.38813" lon="5.82954">
        <ele>316.39999389648</ele>
        <time>2023-06-23T09:21:10Z</time>
      </trkpt>
      <trkpt lat="49.38808" lon="5.82954">
        <ele>316.60000610352</ele>
        <time>2023-06-23T09:21:12Z</time>
      </trkpt>
      <trkpt lat="49.38803" lon="5.82955">
        <ele>316.79998779297</ele>
        <time>2023-06-23T09:21:14Z</time>
      </trkpt>
      <trkpt lat="49.388" lon="5.82955">
        <ele>317</ele>
        <time>2023-06-23T09:21:15Z</time>
      </trkpt>
      <trkpt lat="49.38798" lon="5.82956">
        <ele>317</ele>
        <time>2023-06-23T09:21:16Z</time>
      </trkpt>
      <trkpt lat="49.38793" lon="5.82958">
        <ele>317.20001220703</ele>
        <time>2023-06-23T09:21:18Z</time>
      </trkpt>
      <trkpt lat="49.38788" lon="5.82959">
        <ele>317.20001220703</ele>
        <time>2023-06-23T09:21:20Z</time>
      </trkpt>
      <trkpt lat="49.38785" lon="5.82961">
        <ele>317.39999389648</ele>
        <time>2023-06-23T09:21:22Z</time>
      </trkpt>
      <trkpt lat="49.38782" lon="5.82962">
        <ele>317.39999389648</ele>
        <time>2023-06-23T09:21:24Z</time>
      </trkpt>
      <trkpt lat="49.38778" lon="5.82963">
        <ele>317.39999389648</ele>
        <time>2023-06-23T09:21:26Z</time>
      </trkpt>
      <trkpt lat="49.38774" lon="5.82965">
        <ele>317.39999389648</ele>
        <time>2023-06-23T09:21:28Z</time>
      </trkpt>
      <trkpt lat="49.38771" lon="5.82967">
        <ele>317.39999389648</ele>
        <time>2023-06-23T09:21:30Z</time>
      </trkpt>
      <trkpt lat="49.38767" lon="5.82969">
        <ele>317.60000610352</ele>
        <time>2023-06-23T09:21:32Z</time>
      </trkpt>
      <trkpt lat="49.38764" lon="5.8297">
        <ele>317.79998779297</ele>
        <time>2023-06-23T09:21:33Z</time>
      </trkpt>
      <trkpt lat="49.38762" lon="5.8297">
        <ele>317.79998779297</ele>
        <time>2023-06-23T09:21:34Z</time>
      </trkpt>
      <trkpt lat="49.3876" lon="5.82971">
        <ele>318</ele>
        <time>2023-06-23T09:21:35Z</time>
      </trkpt>
      <trkpt lat="49.38758" lon="5.82972">
        <ele>318</ele>
        <time>2023-06-23T09:21:36Z</time>
      </trkpt>
      <trkpt lat="49.38752" lon="5.82972">
        <ele>318.20001220703</ele>
        <time>2023-06-23T09:21:38Z</time>
      </trkpt>
      <trkpt lat="49.38749" lon="5.82974">
        <ele>318.20001220703</ele>
        <time>2023-06-23T09:21:40Z</time>
      </trkpt>
      <trkpt lat="49.38747" lon="5.82974">
        <ele>318.39999389648</ele>
        <time>2023-06-23T09:21:42Z</time>
      </trkpt>
      <trkpt lat="49.38745" lon="5.82973">
        <ele>318.39999389648</ele>
        <time>2023-06-23T09:21:44Z</time>
      </trkpt>
      <trkpt lat="49.38744" lon="5.82974">
        <ele>318.60000610352</ele>
        <time>2023-06-23T09:21:46Z</time>
      </trkpt>
      <trkpt lat="49.38743" lon="5.82973">
        <ele>318.79998779297</ele>
        <time>2023-06-23T09:21:48Z</time>
      </trkpt>
      <trkpt lat="49.38742" lon="5.82972">
        <ele>318.79998779297</ele>
        <time>2023-06-23T09:21:50Z</time>
      </trkpt>
      <trkpt lat="49.3874" lon="5.82972">
        <ele>318.79998779297</ele>
        <time>2023-06-23T09:21:52Z</time>
      </trkpt>
      <trkpt lat="49.38739" lon="5.82972">
        <ele>319</ele>
        <time>2023-06-23T09:21:54Z</time>
      </trkpt>
      <trkpt lat="49.38738" lon="5.82973">
        <ele>319</ele>
        <time>2023-06-23T09:21:55Z</time>
      </trkpt>
      <trkpt lat="49.38737" lon="5.82975">
        <ele>319</ele>
        <time>2023-06-23T09:21:56Z</time>
      </trkpt>
      <trkpt lat="49.38736" lon="5.82975">
        <ele>319</ele>
        <time>2023-06-23T09:21:58Z</time>
      </trkpt>
      <trkpt lat="49.38736" lon="5.82975">
        <ele>319.20001220703</ele>
        <time>2023-06-23T09:22:00Z</time>
      </trkpt>
      <trkpt lat="49.38734" lon="5.82975">
        <ele>319.39999389648</ele>
        <time>2023-06-23T09:22:02Z</time>
      </trkpt>
      <trkpt lat="49.38733" lon="5.82976">
        <ele>319.60000610352</ele>
        <time>2023-06-23T09:22:04Z</time>
      </trkpt>
      <trkpt lat="49.38731" lon="5.82977">
        <ele>319.79998779297</ele>
        <time>2023-06-23T09:22:06Z</time>
      </trkpt>
      <trkpt lat="49.3873" lon="5.82977">
        <ele>320</ele>
        <time>2023-06-23T09:22:08Z</time>
      </trkpt>
      <trkpt lat="49.3873" lon="5.82977">
        <ele>320</ele>
        <time>2023-06-23T09:22:09Z</time>
      </trkpt>
      <trkpt lat="49.3873" lon="5.82977">
        <ele>320</ele>
        <time>2023-06-23T09:22:10Z</time>
      </trkpt>
      <trkpt lat="49.3873" lon="5.82977">
        <ele>320.20001220703</ele>
        <time>2023-06-23T09:22:12Z</time>
      </trkpt>
      <trkpt lat="49.38729" lon="5.82977">
        <ele>320.20001220703</ele>
        <time>2023-06-23T09:22:14Z</time>
      </trkpt>
      <trkpt lat="49.38728" lon="5.82978">
        <ele>320.20001220703</ele>
        <time>2023-06-23T09:22:16Z</time>
      </trkpt>
      <trkpt lat="49.38726" lon="5.82979">
        <ele>320.20001220703</ele>
        <time>2023-06-23T09:22:18Z</time>
      </trkpt>
      <trkpt lat="49.38724" lon="5.82981">
        <ele>320.20001220703</ele>
        <time>2023-06-23T09:22:20Z</time>
      </trkpt>
      <trkpt lat="49.38723" lon="5.82983">
        <ele>320.20001220703</ele>
        <time>2023-06-23T09:22:21Z</time>
      </trkpt>
      <trkpt lat="49.38722" lon="5.82984">
        <ele>320.39999389648</ele>
        <time>2023-06-23T09:22:22Z</time>
      </trkpt>
      <trkpt lat="49.3872" lon="5.82987">
        <ele>320.39999389648</ele>
        <time>2023-06-23T09:22:24Z</time>
      </trkpt>
      <trkpt lat="49.38718" lon="5.82989">
        <ele>320.39999389648</ele>
        <time>2023-06-23T09:22:25Z</time>
      </trkpt>
      <trkpt lat="49.38717" lon="5.82991">
        <ele>320.39999389648</ele>
        <time>2023-06-23T09:22:26Z</time>
      </trkpt>
      <trkpt lat="49.38713" lon="5.82997">
        <ele>320.39999389648</ele>
        <time>2023-06-23T09:22:28Z</time>
      </trkpt>
      <trkpt lat="49.38711" lon="5.83005">
        <ele>320.39999389648</ele>
        <time>2023-06-23T09:22:30Z</time>
      </trkpt>
      <trkpt lat="49.38709" lon="5.83008">
        <ele>320.39999389648</ele>
        <time>2023-06-23T09:22:31Z</time>
      </trkpt>
      <trkpt lat="49.38708" lon="5.83012">
        <ele>320.39999389648</ele>
        <time>2023-06-23T09:22:32Z</time>
      </trkpt>
      <trkpt lat="49.38704" lon="5.83018">
        <ele>320.20001220703</ele>
        <time>2023-06-23T09:22:34Z</time>
      </trkpt>
      <trkpt lat="49.387" lon="5.83026">
        <ele>320.20001220703</ele>
        <time>2023-06-23T09:22:36Z</time>
      </trkpt>
      <trkpt lat="49.38696" lon="5.83034">
        <ele>320</ele>
        <time>2023-06-23T09:22:38Z</time>
      </trkpt>
      <trkpt lat="49.38692" lon="5.83043">
        <ele>320</ele>
        <time>2023-06-23T09:22:40Z</time>
      </trkpt>
      <trkpt lat="49.38687" lon="5.83053">
        <ele>319.79998779297</ele>
        <time>2023-06-23T09:22:42Z</time>
      </trkpt>
      <trkpt lat="49.38683" lon="5.83062">
        <ele>319.79998779297</ele>
        <time>2023-06-23T09:22:44Z</time>
      </trkpt>
      <trkpt lat="49.38678" lon="5.83071">
        <ele>319.60000610352</ele>
        <time>2023-06-23T09:22:46Z</time>
      </trkpt>
      <trkpt lat="49.38673" lon="5.83082">
        <ele>319.60000610352</ele>
        <time>2023-06-23T09:22:48Z</time>
      </trkpt>
      <trkpt lat="49.38668" lon="5.83092">
        <ele>319.39999389648</ele>
        <time>2023-06-23T09:22:50Z</time>
      </trkpt>
      <trkpt lat="49.38663" lon="5.83101">
        <ele>319.39999389648</ele>
        <time>2023-06-23T09:22:52Z</time>
      </trkpt>
      <trkpt lat="49.38659" lon="5.8311">
        <ele>319.20001220703</ele>
        <time>2023-06-23T09:22:54Z</time>
      </trkpt>
      <trkpt lat="49.38655" lon="5.8312">
        <ele>319</ele>
        <time>2023-06-23T09:22:56Z</time>
      </trkpt>
      <trkpt lat="49.3865" lon="5.8313">
        <ele>319</ele>
        <time>2023-06-23T09:22:58Z</time>
      </trkpt>
      <trkpt lat="49.38646" lon="5.8314">
        <ele>319</ele>
        <time>2023-06-23T09:23:00Z</time>
      </trkpt>
      <trkpt lat="49.38643" lon="5.83146">
        <ele>319</ele>
        <time>2023-06-23T09:23:01Z</time>
      </trkpt>
      <trkpt lat="49.38641" lon="5.83151">
        <ele>319</ele>
        <time>2023-06-23T09:23:02Z</time>
      </trkpt>
      <trkpt lat="49.38638" lon="5.83159">
        <ele>318.79998779297</ele>
        <time>2023-06-23T09:23:04Z</time>
      </trkpt>
      <trkpt lat="49.38637" lon="5.83162">
        <ele>318.79998779297</ele>
        <time>2023-06-23T09:23:05Z</time>
      </trkpt>
      <trkpt lat="49.38636" lon="5.83165">
        <ele>318.79998779297</ele>
        <time>2023-06-23T09:23:06Z</time>
      </trkpt>
      <trkpt lat="49.38632" lon="5.83172">
        <ele>318.79998779297</ele>
        <time>2023-06-23T09:23:08Z</time>
      </trkpt>
      <trkpt lat="49.38629" lon="5.83181">
        <ele>318.79998779297</ele>
        <time>2023-06-23T09:23:10Z</time>
      </trkpt>
      <trkpt lat="49.38625" lon="5.83191">
        <ele>318.79998779297</ele>
        <time>2023-06-23T09:23:12Z</time>
      </trkpt>
      <trkpt lat="49.38621" lon="5.832">
        <ele>318.60000610352</ele>
        <time>2023-06-23T09:23:14Z</time>
      </trkpt>
      <trkpt lat="49.38617" lon="5.8321">
        <ele>318.39999389648</ele>
        <time>2023-06-23T09:23:16Z</time>
      </trkpt>
      <trkpt lat="49.38615" lon="5.83216">
        <ele>318.39999389648</ele>
        <time>2023-06-23T09:23:17Z</time>
      </trkpt>
      <trkpt lat="49.38613" lon="5.83221">
        <ele>318.39999389648</ele>
        <time>2023-06-23T09:23:18Z</time>
      </trkpt>
      <trkpt lat="49.38608" lon="5.83233">
        <ele>318.20001220703</ele>
        <time>2023-06-23T09:23:20Z</time>
      </trkpt>
      <trkpt lat="49.38603" lon="5.83244">
        <ele>318</ele>
        <time>2023-06-23T09:23:22Z</time>
      </trkpt>
      <trkpt lat="49.38599" lon="5.83255">
        <ele>318</ele>
        <time>2023-06-23T09:23:24Z</time>
      </trkpt>
      <trkpt lat="49.38594" lon="5.83266">
        <ele>317.79998779297</ele>
        <time>2023-06-23T09:23:26Z</time>
      </trkpt>
      <trkpt lat="49.3859" lon="5.83277">
        <ele>317.79998779297</ele>
        <time>2023-06-23T09:23:28Z</time>
      </trkpt>
      <trkpt lat="49.38585" lon="5.83287">
        <ele>317.79998779297</ele>
        <time>2023-06-23T09:23:30Z</time>
      </trkpt>
      <trkpt lat="49.38581" lon="5.83298">
        <ele>317.79998779297</ele>
        <time>2023-06-23T09:23:32Z</time>
      </trkpt>
      <trkpt lat="49.38576" lon="5.83307">
        <ele>317.79998779297</ele>
        <time>2023-06-23T09:23:34Z</time>
      </trkpt>
      <trkpt lat="49.38573" lon="5.83316">
        <ele>318</ele>
        <time>2023-06-23T09:23:36Z</time>
      </trkpt>
      <trkpt lat="49.38571" lon="5.83325">
        <ele>318</ele>
        <time>2023-06-23T09:23:38Z</time>
      </trkpt>
      <trkpt lat="49.38569" lon="5.83334">
        <ele>318.20001220703</ele>
        <time>2023-06-23T09:23:40Z</time>
      </trkpt>
      <trkpt lat="49.38567" lon="5.83342">
        <ele>318.60000610352</ele>
        <time>2023-06-23T09:23:42Z</time>
      </trkpt>
      <trkpt lat="49.38566" lon="5.8335">
        <ele>318.79998779297</ele>
        <time>2023-06-23T09:23:44Z</time>
      </trkpt>
      <trkpt lat="49.38563" lon="5.83356">
        <ele>319</ele>
        <time>2023-06-23T09:23:46Z</time>
      </trkpt>
      <trkpt lat="49.38562" lon="5.83364">
        <ele>319.20001220703</ele>
        <time>2023-06-23T09:23:48Z</time>
      </trkpt>
      <trkpt lat="49.3856" lon="5.83372">
        <ele>319.20001220703</ele>
        <time>2023-06-23T09:23:50Z</time>
      </trkpt>
      <trkpt lat="49.38557" lon="5.83381">
        <ele>319.20001220703</ele>
        <time>2023-06-23T09:23:52Z</time>
      </trkpt>
      <trkpt lat="49.38554" lon="5.83391">
        <ele>319.60000610352</ele>
        <time>2023-06-23T09:23:54Z</time>
      </trkpt>
      <trkpt lat="49.38551" lon="5.83399">
        <ele>319.60000610352</ele>
        <time>2023-06-23T09:23:56Z</time>
      </trkpt>
      <trkpt lat="49.38548" lon="5.83406">
        <ele>319.79998779297</ele>
        <time>2023-06-23T09:23:58Z</time>
      </trkpt>
      <trkpt lat="49.38547" lon="5.83411">
        <ele>319.79998779297</ele>
        <time>2023-06-23T09:23:59Z</time>
      </trkpt>
      <trkpt lat="49.38544" lon="5.83416">
        <ele>319.79998779297</ele>
        <time>2023-06-23T09:24:00Z</time>
      </trkpt>
      <trkpt lat="49.3854" lon="5.83425">
        <ele>320</ele>
        <time>2023-06-23T09:24:02Z</time>
      </trkpt>
      <trkpt lat="49.38537" lon="5.83429">
        <ele>320</ele>
        <time>2023-06-23T09:24:03Z</time>
      </trkpt>
      <trkpt lat="49.38535" lon="5.83433">
        <ele>320</ele>
        <time>2023-06-23T09:24:04Z</time>
      </trkpt>
      <trkpt lat="49.38531" lon="5.8344">
        <ele>320.20001220703</ele>
        <time>2023-06-23T09:24:06Z</time>
      </trkpt>
      <trkpt lat="49.38526" lon="5.83448">
        <ele>320.20001220703</ele>
        <time>2023-06-23T09:24:08Z</time>
      </trkpt>
      <trkpt lat="49.38523" lon="5.83452">
        <ele>320.20001220703</ele>
        <time>2023-06-23T09:24:09Z</time>
      </trkpt>
      <trkpt lat="49.38519" lon="5.83457">
        <ele>320.20001220703</ele>
        <time>2023-06-23T09:24:10Z</time>
      </trkpt>
      <trkpt lat="49.38514" lon="5.83465">
        <ele>320.39999389648</ele>
        <time>2023-06-23T09:24:12Z</time>
      </trkpt>
      <trkpt lat="49.38509" lon="5.83475">
        <ele>320.39999389648</ele>
        <time>2023-06-23T09:24:14Z</time>
      </trkpt>
      <trkpt lat="49.38503" lon="5.83483">
        <ele>320.39999389648</ele>
        <time>2023-06-23T09:24:16Z</time>
      </trkpt>
      <trkpt lat="49.38498" lon="5.83491">
        <ele>320.39999389648</ele>
        <time>2023-06-23T09:24:18Z</time>
      </trkpt>
      <trkpt lat="49.38495" lon="5.83495">
        <ele>320.39999389648</ele>
        <time>2023-06-23T09:24:19Z</time>
      </trkpt>
      <trkpt lat="49.38492" lon="5.83499">
        <ele>320.39999389648</ele>
        <time>2023-06-23T09:24:20Z</time>
      </trkpt>
      <trkpt lat="49.38484" lon="5.83507">
        <ele>320.39999389648</ele>
        <time>2023-06-23T09:24:22Z</time>
      </trkpt>
      <trkpt lat="49.38476" lon="5.83515">
        <ele>320.20001220703</ele>
        <time>2023-06-23T09:24:24Z</time>
      </trkpt>
      <trkpt lat="49.38472" lon="5.8352">
        <ele>320.20001220703</ele>
        <time>2023-06-23T09:24:25Z</time>
      </trkpt>
      <trkpt lat="49.38469" lon="5.83524">
        <ele>320.20001220703</ele>
        <time>2023-06-23T09:24:26Z</time>
      </trkpt>
      <trkpt lat="49.38461" lon="5.83535">
        <ele>320</ele>
        <time>2023-06-23T09:24:28Z</time>
      </trkpt>
      <trkpt lat="49.38457" lon="5.83541">
        <ele>319.79998779297</ele>
        <time>2023-06-23T09:24:29Z</time>
      </trkpt>
      <trkpt lat="49.38454" lon="5.83547">
        <ele>319.79998779297</ele>
        <time>2023-06-23T09:24:30Z</time>
      </trkpt>
      <trkpt lat="49.38451" lon="5.83553">
        <ele>319.60000610352</ele>
        <time>2023-06-23T09:24:31Z</time>
      </trkpt>
      <trkpt lat="49.38448" lon="5.83559">
        <ele>319.39999389648</ele>
        <time>2023-06-23T09:24:32Z</time>
      </trkpt>
      <trkpt lat="49.38442" lon="5.83569">
        <ele>319</ele>
        <time>2023-06-23T09:24:34Z</time>
      </trkpt>
      <trkpt lat="49.38437" lon="5.83576">
        <ele>318.60000610352</ele>
        <time>2023-06-23T09:24:35Z</time>
      </trkpt>
      <trkpt lat="49.38432" lon="5.8358">
        <ele>318.39999389648</ele>
        <time>2023-06-23T09:24:36Z</time>
      </trkpt>
      <trkpt lat="49.38424" lon="5.8359">
        <ele>317.79998779297</ele>
        <time>2023-06-23T09:24:38Z</time>
      </trkpt>
      <trkpt lat="49.38417" lon="5.836">
        <ele>317.79998779297</ele>
        <time>2023-06-23T09:24:40Z</time>
      </trkpt>
      <trkpt lat="49.38412" lon="5.83608">
        <ele>317.79998779297</ele>
        <time>2023-06-23T09:24:42Z</time>
      </trkpt>
      <trkpt lat="49.38408" lon="5.83618">
        <ele>317.79998779297</ele>
        <time>2023-06-23T09:24:44Z</time>
      </trkpt>
      <trkpt lat="49.38405" lon="5.83626">
        <ele>317.79998779297</ele>
        <time>2023-06-23T09:24:46Z</time>
      </trkpt>
      <trkpt lat="49.38404" lon="5.8363">
        <ele>317.79998779297</ele>
        <time>2023-06-23T09:24:47Z</time>
      </trkpt>
      <trkpt lat="49.38402" lon="5.83634">
        <ele>318</ele>
        <time>2023-06-23T09:24:48Z</time>
      </trkpt>
      <trkpt lat="49.384" lon="5.83642">
        <ele>318.60000610352</ele>
        <time>2023-06-23T09:24:50Z</time>
      </trkpt>
      <trkpt lat="49.38397" lon="5.83652">
        <ele>319.20001220703</ele>
        <time>2023-06-23T09:24:52Z</time>
      </trkpt>
      <trkpt lat="49.38396" lon="5.83657">
        <ele>319.39999389648</ele>
        <time>2023-06-23T09:24:53Z</time>
      </trkpt>
      <trkpt lat="49.38395" lon="5.83663">
        <ele>319.39999389648</ele>
        <time>2023-06-23T09:24:54Z</time>
      </trkpt>
      <trkpt lat="49.38394" lon="5.83673">
        <ele>319.60000610352</ele>
        <time>2023-06-23T09:24:56Z</time>
      </trkpt>
      <trkpt lat="49.38393" lon="5.83678">
        <ele>319.79998779297</ele>
        <time>2023-06-23T09:24:57Z</time>
      </trkpt>
      <trkpt lat="49.38392" lon="5.83682">
        <ele>320</ele>
        <time>2023-06-23T09:24:58Z</time>
      </trkpt>
      <trkpt lat="49.38392" lon="5.83685">
        <ele>320</ele>
        <time>2023-06-23T09:24:59Z</time>
      </trkpt>
      <trkpt lat="49.38392" lon="5.8369">
        <ele>320.20001220703</ele>
        <time>2023-06-23T09:25:00Z</time>
      </trkpt>
      <trkpt lat="49.38392" lon="5.83699">
        <ele>320.39999389648</ele>
        <time>2023-06-23T09:25:02Z</time>
      </trkpt>
      <trkpt lat="49.38391" lon="5.8371">
        <ele>320.60000610352</ele>
        <time>2023-06-23T09:25:04Z</time>
      </trkpt>
      <trkpt lat="49.3839" lon="5.83716">
        <ele>321</ele>
        <time>2023-06-23T09:25:05Z</time>
      </trkpt>
      <trkpt lat="49.3839" lon="5.83721">
        <ele>321.20001220703</ele>
        <time>2023-06-23T09:25:06Z</time>
      </trkpt>
      <trkpt lat="49.38389" lon="5.83733">
        <ele>321.20001220703</ele>
        <time>2023-06-23T09:25:08Z</time>
      </trkpt>
      <trkpt lat="49.38389" lon="5.83745">
        <ele>321.39999389648</ele>
        <time>2023-06-23T09:25:10Z</time>
      </trkpt>
      <trkpt lat="49.38389" lon="5.83751">
        <ele>321.39999389648</ele>
        <time>2023-06-23T09:25:11Z</time>
      </trkpt>
      <trkpt lat="49.38389" lon="5.83757">
        <ele>321.39999389648</ele>
        <time>2023-06-23T09:25:12Z</time>
      </trkpt>
      <trkpt lat="49.38388" lon="5.83767">
        <ele>321.39999389648</ele>
        <time>2023-06-23T09:25:14Z</time>
      </trkpt>
      <trkpt lat="49.38389" lon="5.83777">
        <ele>321.60000610352</ele>
        <time>2023-06-23T09:25:16Z</time>
      </trkpt>
      <trkpt lat="49.38389" lon="5.83788">
        <ele>321.60000610352</ele>
        <time>2023-06-23T09:25:18Z</time>
      </trkpt>
      <trkpt lat="49.38389" lon="5.83797">
        <ele>321.60000610352</ele>
        <time>2023-06-23T09:25:20Z</time>
      </trkpt>
      <trkpt lat="49.38389" lon="5.83802">
        <ele>321.60000610352</ele>
        <time>2023-06-23T09:25:21Z</time>
      </trkpt>
      <trkpt lat="49.38389" lon="5.83807">
        <ele>321.60000610352</ele>
        <time>2023-06-23T09:25:22Z</time>
      </trkpt>
      <trkpt lat="49.38389" lon="5.83819">
        <ele>321.60000610352</ele>
        <time>2023-06-23T09:25:24Z</time>
      </trkpt>
      <trkpt lat="49.38388" lon="5.83831">
        <ele>321.60000610352</ele>
        <time>2023-06-23T09:25:26Z</time>
      </trkpt>
      <trkpt lat="49.38388" lon="5.83836">
        <ele>321.60000610352</ele>
        <time>2023-06-23T09:25:27Z</time>
      </trkpt>
      <trkpt lat="49.38388" lon="5.83842">
        <ele>321.60000610352</ele>
        <time>2023-06-23T09:25:28Z</time>
      </trkpt>
      <trkpt lat="49.38387" lon="5.83854">
        <ele>321.60000610352</ele>
        <time>2023-06-23T09:25:30Z</time>
      </trkpt>
      <trkpt lat="49.38385" lon="5.83865">
        <ele>321.39999389648</ele>
        <time>2023-06-23T09:25:32Z</time>
      </trkpt>
      <trkpt lat="49.38384" lon="5.83872">
        <ele>321.39999389648</ele>
        <time>2023-06-23T09:25:33Z</time>
      </trkpt>
      <trkpt lat="49.38381" lon="5.83877">
        <ele>321.39999389648</ele>
        <time>2023-06-23T09:25:34Z</time>
      </trkpt>
      <trkpt lat="49.38375" lon="5.83889">
        <ele>321.39999389648</ele>
        <time>2023-06-23T09:25:36Z</time>
      </trkpt>
      <trkpt lat="49.38371" lon="5.83898">
        <ele>321.39999389648</ele>
        <time>2023-06-23T09:25:38Z</time>
      </trkpt>
      <trkpt lat="49.38367" lon="5.83906">
        <ele>321.39999389648</ele>
        <time>2023-06-23T09:25:40Z</time>
      </trkpt>
      <trkpt lat="49.38362" lon="5.83914">
        <ele>321.39999389648</ele>
        <time>2023-06-23T09:25:42Z</time>
      </trkpt>
      <trkpt lat="49.3836" lon="5.83918">
        <ele>321.39999389648</ele>
        <time>2023-06-23T09:25:43Z</time>
      </trkpt>
      <trkpt lat="49.38358" lon="5.83922">
        <ele>321.39999389648</ele>
        <time>2023-06-23T09:25:44Z</time>
      </trkpt>
      <trkpt lat="49.38353" lon="5.83929">
        <ele>321.60000610352</ele>
        <time>2023-06-23T09:25:46Z</time>
      </trkpt>
      <trkpt lat="49.38348" lon="5.83938">
        <ele>322.20001220703</ele>
        <time>2023-06-23T09:25:48Z</time>
      </trkpt>
      <trkpt lat="49.38344" lon="5.83947">
        <ele>322.60000610352</ele>
        <time>2023-06-23T09:25:50Z</time>
      </trkpt>
      <trkpt lat="49.3834" lon="5.83956">
        <ele>322.79998779297</ele>
        <time>2023-06-23T09:25:52Z</time>
      </trkpt>
      <trkpt lat="49.38338" lon="5.83959">
        <ele>322.79998779297</ele>
        <time>2023-06-23T09:25:53Z</time>
      </trkpt>
      <trkpt lat="49.38336" lon="5.83962">
        <ele>323</ele>
        <time>2023-06-23T09:25:54Z</time>
      </trkpt>
      <trkpt lat="49.38334" lon="5.83965">
        <ele>323.20001220703</ele>
        <time>2023-06-23T09:25:55Z</time>
      </trkpt>
      <trkpt lat="49.38331" lon="5.83971">
        <ele>323.39999389648</ele>
        <time>2023-06-23T09:25:56Z</time>
      </trkpt>
      <trkpt lat="49.38327" lon="5.83978">
        <ele>324</ele>
        <time>2023-06-23T09:25:58Z</time>
      </trkpt>
      <trkpt lat="49.38325" lon="5.83981">
        <ele>324.39999389648</ele>
        <time>2023-06-23T09:25:59Z</time>
      </trkpt>
      <trkpt lat="49.38323" lon="5.83985">
        <ele>324.79998779297</ele>
        <time>2023-06-23T09:26:00Z</time>
      </trkpt>
      <trkpt lat="49.38319" lon="5.83991">
        <ele>325.20001220703</ele>
        <time>2023-06-23T09:26:02Z</time>
      </trkpt>
      <trkpt lat="49.38316" lon="5.83998">
        <ele>325.39999389648</ele>
        <time>2023-06-23T09:26:04Z</time>
      </trkpt>
      <trkpt lat="49.38313" lon="5.84004">
        <ele>325.79998779297</ele>
        <time>2023-06-23T09:26:06Z</time>
      </trkpt>
      <trkpt lat="49.38312" lon="5.8401">
        <ele>326.39999389648</ele>
        <time>2023-06-23T09:26:08Z</time>
      </trkpt>
      <trkpt lat="49.3831" lon="5.84013">
        <ele>326.60000610352</ele>
        <time>2023-06-23T09:26:09Z</time>
      </trkpt>
      <trkpt lat="49.38309" lon="5.84017">
        <ele>326.60000610352</ele>
        <time>2023-06-23T09:26:10Z</time>
      </trkpt>
      <trkpt lat="49.38308" lon="5.84021">
        <ele>326.79998779297</ele>
        <time>2023-06-23T09:26:11Z</time>
      </trkpt>
      <trkpt lat="49.38307" lon="5.84023">
        <ele>327</ele>
        <time>2023-06-23T09:26:12Z</time>
      </trkpt>
      <trkpt lat="49.38306" lon="5.8403">
        <ele>327.39999389648</ele>
        <time>2023-06-23T09:26:14Z</time>
      </trkpt>
      <trkpt lat="49.38304" lon="5.84033">
        <ele>327.60000610352</ele>
        <time>2023-06-23T09:26:16Z</time>
      </trkpt>
      <trkpt lat="49.38303" lon="5.84036">
        <ele>327.60000610352</ele>
        <time>2023-06-23T09:26:17Z</time>
      </trkpt>
      <trkpt lat="49.38302" lon="5.84038">
        <ele>327.60000610352</ele>
        <time>2023-06-23T09:26:18Z</time>
      </trkpt>
      <trkpt lat="49.38301" lon="5.8404">
        <ele>327.60000610352</ele>
        <time>2023-06-23T09:26:19Z</time>
      </trkpt>
      <trkpt lat="49.383" lon="5.84043">
        <ele>327.60000610352</ele>
        <time>2023-06-23T09:26:20Z</time>
      </trkpt>
      <trkpt lat="49.38299" lon="5.84046">
        <ele>327.60000610352</ele>
        <time>2023-06-23T09:26:22Z</time>
      </trkpt>
      <trkpt lat="49.38297" lon="5.84051">
        <ele>327.60000610352</ele>
        <time>2023-06-23T09:26:24Z</time>
      </trkpt>
      <trkpt lat="49.38295" lon="5.84055">
        <ele>327.60000610352</ele>
        <time>2023-06-23T09:26:25Z</time>
      </trkpt>
      <trkpt lat="49.38294" lon="5.84057">
        <ele>327.60000610352</ele>
        <time>2023-06-23T09:26:26Z</time>
      </trkpt>
      <trkpt lat="49.38291" lon="5.84065">
        <ele>327.60000610352</ele>
        <time>2023-06-23T09:26:28Z</time>
      </trkpt>
      <trkpt lat="49.38288" lon="5.84073">
        <ele>327.60000610352</ele>
        <time>2023-06-23T09:26:30Z</time>
      </trkpt>
      <trkpt lat="49.38287" lon="5.84077">
        <ele>327.39999389648</ele>
        <time>2023-06-23T09:26:31Z</time>
      </trkpt>
      <trkpt lat="49.38286" lon="5.8408">
        <ele>327.39999389648</ele>
        <time>2023-06-23T09:26:32Z</time>
      </trkpt>
      <trkpt lat="49.38283" lon="5.84091">
        <ele>327.20001220703</ele>
        <time>2023-06-23T09:26:34Z</time>
      </trkpt>
      <trkpt lat="49.38279" lon="5.84103">
        <ele>327</ele>
        <time>2023-06-23T09:26:36Z</time>
      </trkpt>
      <trkpt lat="49.38275" lon="5.84119">
        <ele>326.60000610352</ele>
        <time>2023-06-23T09:26:38Z</time>
      </trkpt>
      <trkpt lat="49.38273" lon="5.84127">
        <ele>326.39999389648</ele>
        <time>2023-06-23T09:26:39Z</time>
      </trkpt>
      <trkpt lat="49.38271" lon="5.84137">
        <ele>326.39999389648</ele>
        <time>2023-06-23T09:26:40Z</time>
      </trkpt>
      <trkpt lat="49.38267" lon="5.84152">
        <ele>325.60000610352</ele>
        <time>2023-06-23T09:26:42Z</time>
      </trkpt>
      <trkpt lat="49.38265" lon="5.84159">
        <ele>325.39999389648</ele>
        <time>2023-06-23T09:26:43Z</time>
      </trkpt>
      <trkpt lat="49.38263" lon="5.84167">
        <ele>325</ele>
        <time>2023-06-23T09:26:44Z</time>
      </trkpt>
      <trkpt lat="49.38259" lon="5.84182">
        <ele>324.20001220703</ele>
        <time>2023-06-23T09:26:46Z</time>
      </trkpt>
      <trkpt lat="49.38257" lon="5.84188">
        <ele>324</ele>
        <time>2023-06-23T09:26:47Z</time>
      </trkpt>
      <trkpt lat="49.38256" lon="5.84195">
        <ele>323.39999389648</ele>
        <time>2023-06-23T09:26:48Z</time>
      </trkpt>
      <trkpt lat="49.38255" lon="5.84202">
        <ele>323.20001220703</ele>
        <time>2023-06-23T09:26:49Z</time>
      </trkpt>
      <trkpt lat="49.38254" lon="5.84209">
        <ele>322.79998779297</ele>
        <time>2023-06-23T09:26:50Z</time>
      </trkpt>
      <trkpt lat="49.38251" lon="5.84225">
        <ele>322.20001220703</ele>
        <time>2023-06-23T09:26:52Z</time>
      </trkpt>
      <trkpt lat="49.38249" lon="5.84233">
        <ele>322</ele>
        <time>2023-06-23T09:26:53Z</time>
      </trkpt>
      <trkpt lat="49.38247" lon="5.84241">
        <ele>322</ele>
        <time>2023-06-23T09:26:54Z</time>
      </trkpt>
      <trkpt lat="49.38245" lon="5.84256">
        <ele>321.79998779297</ele>
        <time>2023-06-23T09:26:56Z</time>
      </trkpt>
      <trkpt lat="49.38244" lon="5.8427">
        <ele>321.60000610352</ele>
        <time>2023-06-23T09:26:58Z</time>
      </trkpt>
      <trkpt lat="49.38243" lon="5.84278">
        <ele>321.39999389648</ele>
        <time>2023-06-23T09:26:59Z</time>
      </trkpt>
      <trkpt lat="49.38242" lon="5.84285">
        <ele>321.20001220703</ele>
        <time>2023-06-23T09:27:00Z</time>
      </trkpt>
      <trkpt lat="49.38241" lon="5.843">
        <ele>320.79998779297</ele>
        <time>2023-06-23T09:27:02Z</time>
      </trkpt>
      <trkpt lat="49.38237" lon="5.84314">
        <ele>320.60000610352</ele>
        <time>2023-06-23T09:27:04Z</time>
      </trkpt>
      <trkpt lat="49.38235" lon="5.84321">
        <ele>320.39999389648</ele>
        <time>2023-06-23T09:27:05Z</time>
      </trkpt>
      <trkpt lat="49.38234" lon="5.84326">
        <ele>320.39999389648</ele>
        <time>2023-06-23T09:27:06Z</time>
      </trkpt>
      <trkpt lat="49.38231" lon="5.84337">
        <ele>320.39999389648</ele>
        <time>2023-06-23T09:27:08Z</time>
      </trkpt>
      <trkpt lat="49.38227" lon="5.84348">
        <ele>320.39999389648</ele>
        <time>2023-06-23T09:27:10Z</time>
      </trkpt>
      <trkpt lat="49.38223" lon="5.84358">
        <ele>320.39999389648</ele>
        <time>2023-06-23T09:27:12Z</time>
      </trkpt>
      <trkpt lat="49.3822" lon="5.84367">
        <ele>320.79998779297</ele>
        <time>2023-06-23T09:27:14Z</time>
      </trkpt>
      <trkpt lat="49.38217" lon="5.84377">
        <ele>321.39999389648</ele>
        <time>2023-06-23T09:27:16Z</time>
      </trkpt>
      <trkpt lat="49.38214" lon="5.84387">
        <ele>321.79998779297</ele>
        <time>2023-06-23T09:27:18Z</time>
      </trkpt>
      <trkpt lat="49.38207" lon="5.84395">
        <ele>321.79998779297</ele>
        <time>2023-06-23T09:27:20Z</time>
      </trkpt>
      <trkpt lat="49.382" lon="5.84401">
        <ele>321.79998779297</ele>
        <time>2023-06-23T09:27:22Z</time>
      </trkpt>
      <trkpt lat="49.38192" lon="5.84405">
        <ele>321.79998779297</ele>
        <time>2023-06-23T09:27:24Z</time>
      </trkpt>
      <trkpt lat="49.38185" lon="5.84409">
        <ele>321.79998779297</ele>
        <time>2023-06-23T09:27:26Z</time>
      </trkpt>
      <trkpt lat="49.38182" lon="5.84411">
        <ele>321.60000610352</ele>
        <time>2023-06-23T09:27:27Z</time>
      </trkpt>
      <trkpt lat="49.38177" lon="5.84414">
        <ele>321.20001220703</ele>
        <time>2023-06-23T09:27:28Z</time>
      </trkpt>
      <trkpt lat="49.38168" lon="5.84418">
        <ele>320.79998779297</ele>
        <time>2023-06-23T09:27:30Z</time>
      </trkpt>
      <trkpt lat="49.38159" lon="5.84423">
        <ele>320.79998779297</ele>
        <time>2023-06-23T09:27:32Z</time>
      </trkpt>
      <trkpt lat="49.38155" lon="5.84425">
        <ele>320.79998779297</ele>
        <time>2023-06-23T09:27:33Z</time>
      </trkpt>
      <trkpt lat="49.38151" lon="5.84428">
        <ele>320.79998779297</ele>
        <time>2023-06-23T09:27:34Z</time>
      </trkpt>
      <trkpt lat="49.38145" lon="5.84432">
        <ele>320.79998779297</ele>
        <time>2023-06-23T09:27:36Z</time>
      </trkpt>
      <trkpt lat="49.38138" lon="5.84435">
        <ele>320.79998779297</ele>
        <time>2023-06-23T09:27:38Z</time>
      </trkpt>
      <trkpt lat="49.38132" lon="5.84438">
        <ele>320.79998779297</ele>
        <time>2023-06-23T09:27:40Z</time>
      </trkpt>
      <trkpt lat="49.38125" lon="5.84442">
        <ele>320.60000610352</ele>
        <time>2023-06-23T09:27:42Z</time>
      </trkpt>
      <trkpt lat="49.38119" lon="5.84447">
        <ele>320.60000610352</ele>
        <time>2023-06-23T09:27:44Z</time>
      </trkpt>
      <trkpt lat="49.38116" lon="5.84449">
        <ele>320.60000610352</ele>
        <time>2023-06-23T09:27:45Z</time>
      </trkpt>
      <trkpt lat="49.38112" lon="5.84451">
        <ele>320.60000610352</ele>
        <time>2023-06-23T09:27:46Z</time>
      </trkpt>
      <trkpt lat="49.38105" lon="5.84457">
        <ele>320.39999389648</ele>
        <time>2023-06-23T09:27:48Z</time>
      </trkpt>
      <trkpt lat="49.38097" lon="5.84463">
        <ele>320.20001220703</ele>
        <time>2023-06-23T09:27:50Z</time>
      </trkpt>
      <trkpt lat="49.38092" lon="5.84466">
        <ele>320</ele>
        <time>2023-06-23T09:27:51Z</time>
      </trkpt>
      <trkpt lat="49.38086" lon="5.84469">
        <ele>319.79998779297</ele>
        <time>2023-06-23T09:27:52Z</time>
      </trkpt>
      <trkpt lat="49.38071" lon="5.84473">
        <ele>318.79998779297</ele>
        <time>2023-06-23T09:27:54Z</time>
      </trkpt>
      <trkpt lat="49.38053" lon="5.84478">
        <ele>318</ele>
        <time>2023-06-23T09:27:56Z</time>
      </trkpt>
      <trkpt lat="49.38044" lon="5.84481">
        <ele>317.60000610352</ele>
        <time>2023-06-23T09:27:57Z</time>
      </trkpt>
      <trkpt lat="49.38036" lon="5.84486">
        <ele>317</ele>
        <time>2023-06-23T09:27:58Z</time>
      </trkpt>
      <trkpt lat="49.38027" lon="5.84491">
        <ele>316.39999389648</ele>
        <time>2023-06-23T09:27:59Z</time>
      </trkpt>
      <trkpt lat="49.38016" lon="5.84496">
        <ele>315.60000610352</ele>
        <time>2023-06-23T09:28:00Z</time>
      </trkpt>
      <trkpt lat="49.38008" lon="5.84499">
        <ele>314.39999389648</ele>
        <time>2023-06-23T09:28:01Z</time>
      </trkpt>
      <trkpt lat="49.38" lon="5.84502">
        <ele>311.20001220703</ele>
        <time>2023-06-23T09:28:02Z</time>
      </trkpt>
      <trkpt lat="49.37991" lon="5.84504">
        <ele>309.60000610352</ele>
        <time>2023-06-23T09:28:03Z</time>
      </trkpt>
      <trkpt lat="49.37984" lon="5.84507">
        <ele>308.20001220703</ele>
        <time>2023-06-23T09:28:04Z</time>
      </trkpt>
      <trkpt lat="49.37976" lon="5.84509">
        <ele>307</ele>
        <time>2023-06-23T09:28:05Z</time>
      </trkpt>
      <trkpt lat="49.3797" lon="5.84509">
        <ele>306.20001220703</ele>
        <time>2023-06-23T09:28:06Z</time>
      </trkpt>
      <trkpt lat="49.37963" lon="5.84508">
        <ele>305.79998779297</ele>
        <time>2023-06-23T09:28:07Z</time>
      </trkpt>
      <trkpt lat="49.37956" lon="5.84508">
        <ele>305.60000610352</ele>
        <time>2023-06-23T09:28:08Z</time>
      </trkpt>
      <trkpt lat="49.3795" lon="5.84509">
        <ele>305.20001220703</ele>
        <time>2023-06-23T09:28:09Z</time>
      </trkpt>
      <trkpt lat="49.37944" lon="5.8451">
        <ele>305.20001220703</ele>
        <time>2023-06-23T09:28:10Z</time>
      </trkpt>
      <trkpt lat="49.37935" lon="5.84508">
        <ele>305.20001220703</ele>
        <time>2023-06-23T09:28:12Z</time>
      </trkpt>
      <trkpt lat="49.3793" lon="5.84506">
        <ele>305.20001220703</ele>
        <time>2023-06-23T09:28:13Z</time>
      </trkpt>
      <trkpt lat="49.37926" lon="5.84504">
        <ele>305.20001220703</ele>
        <time>2023-06-23T09:28:14Z</time>
      </trkpt>
      <trkpt lat="49.37918" lon="5.84501">
        <ele>305.20001220703</ele>
        <time>2023-06-23T09:28:16Z</time>
      </trkpt>
      <trkpt lat="49.37911" lon="5.84499">
        <ele>305.39999389648</ele>
        <time>2023-06-23T09:28:18Z</time>
      </trkpt>
      <trkpt lat="49.37904" lon="5.84497">
        <ele>305.60000610352</ele>
        <time>2023-06-23T09:28:20Z</time>
      </trkpt>
      <trkpt lat="49.37896" lon="5.84496">
        <ele>306.79998779297</ele>
        <time>2023-06-23T09:28:22Z</time>
      </trkpt>
      <trkpt lat="49.37891" lon="5.84494">
        <ele>308</ele>
        <time>2023-06-23T09:28:24Z</time>
      </trkpt>
      <trkpt lat="49.37888" lon="5.84492">
        <ele>308.60000610352</ele>
        <time>2023-06-23T09:28:25Z</time>
      </trkpt>
      <trkpt lat="49.37884" lon="5.84491">
        <ele>309.20001220703</ele>
        <time>2023-06-23T09:28:26Z</time>
      </trkpt>
      <trkpt lat="49.37878" lon="5.8449">
        <ele>309.60000610352</ele>
        <time>2023-06-23T09:28:28Z</time>
      </trkpt>
      <trkpt lat="49.37871" lon="5.8449">
        <ele>310.20001220703</ele>
        <time>2023-06-23T09:28:30Z</time>
      </trkpt>
      <trkpt lat="49.37868" lon="5.84489">
        <ele>310.39999389648</ele>
        <time>2023-06-23T09:28:31Z</time>
      </trkpt>
      <trkpt lat="49.37866" lon="5.84487">
        <ele>310.60000610352</ele>
        <time>2023-06-23T09:28:32Z</time>
      </trkpt>
      <trkpt lat="49.37861" lon="5.84488">
        <ele>311.20001220703</ele>
        <time>2023-06-23T09:28:34Z</time>
      </trkpt>
      <trkpt lat="49.37858" lon="5.84488">
        <ele>311.39999389648</ele>
        <time>2023-06-23T09:28:35Z</time>
      </trkpt>
      <trkpt lat="49.37856" lon="5.84488">
        <ele>311.79998779297</ele>
        <time>2023-06-23T09:28:36Z</time>
      </trkpt>
      <trkpt lat="49.37853" lon="5.84489">
        <ele>312.20001220703</ele>
        <time>2023-06-23T09:28:37Z</time>
      </trkpt>
      <trkpt lat="49.3785" lon="5.84489">
        <ele>312.39999389648</ele>
        <time>2023-06-23T09:28:38Z</time>
      </trkpt>
      <trkpt lat="49.37848" lon="5.84488">
        <ele>312.60000610352</ele>
        <time>2023-06-23T09:28:39Z</time>
      </trkpt>
      <trkpt lat="49.37846" lon="5.84485">
        <ele>313</ele>
        <time>2023-06-23T09:28:40Z</time>
      </trkpt>
      <trkpt lat="49.37841" lon="5.84482">
        <ele>313.39999389648</ele>
        <time>2023-06-23T09:28:42Z</time>
      </trkpt>
      <trkpt lat="49.37839" lon="5.84483">
        <ele>313.79998779297</ele>
        <time>2023-06-23T09:28:43Z</time>
      </trkpt>
      <trkpt lat="49.37837" lon="5.84483">
        <ele>314</ele>
        <time>2023-06-23T09:28:44Z</time>
      </trkpt>
      <trkpt lat="49.37835" lon="5.8448">
        <ele>314.39999389648</ele>
        <time>2023-06-23T09:28:46Z</time>
      </trkpt>
      <trkpt lat="49.37831" lon="5.84482">
        <ele>314.79998779297</ele>
        <time>2023-06-23T09:28:48Z</time>
      </trkpt>
      <trkpt lat="49.37827" lon="5.84479">
        <ele>315.20001220703</ele>
        <time>2023-06-23T09:28:50Z</time>
      </trkpt>
      <trkpt lat="49.37822" lon="5.84476">
        <ele>315.79998779297</ele>
        <time>2023-06-23T09:28:52Z</time>
      </trkpt>
      <trkpt lat="49.3782" lon="5.84476">
        <ele>316</ele>
        <time>2023-06-23T09:28:53Z</time>
      </trkpt>
      <trkpt lat="49.37819" lon="5.84475">
        <ele>316.20001220703</ele>
        <time>2023-06-23T09:28:54Z</time>
      </trkpt>
      <trkpt lat="49.37815" lon="5.84473">
        <ele>316.79998779297</ele>
        <time>2023-06-23T09:28:56Z</time>
      </trkpt>
      <trkpt lat="49.37813" lon="5.84472">
        <ele>317</ele>
        <time>2023-06-23T09:28:57Z</time>
      </trkpt>
      <trkpt lat="49.37812" lon="5.84471">
        <ele>317.20001220703</ele>
        <time>2023-06-23T09:28:58Z</time>
      </trkpt>
      <trkpt lat="49.37808" lon="5.84469">
        <ele>317.60000610352</ele>
        <time>2023-06-23T09:29:00Z</time>
      </trkpt>
      <trkpt lat="49.37804" lon="5.84466">
        <ele>318.20001220703</ele>
        <time>2023-06-23T09:29:02Z</time>
      </trkpt>
      <trkpt lat="49.37803" lon="5.84465">
        <ele>318.60000610352</ele>
        <time>2023-06-23T09:29:03Z</time>
      </trkpt>
      <trkpt lat="49.378" lon="5.84464">
        <ele>319</ele>
        <time>2023-06-23T09:29:04Z</time>
      </trkpt>
      <trkpt lat="49.37799" lon="5.84464">
        <ele>319.39999389648</ele>
        <time>2023-06-23T09:29:05Z</time>
      </trkpt>
      <trkpt lat="49.37797" lon="5.84463">
        <ele>319.60000610352</ele>
        <time>2023-06-23T09:29:06Z</time>
      </trkpt>
      <trkpt lat="49.37795" lon="5.8446">
        <ele>320.39999389648</ele>
        <time>2023-06-23T09:29:08Z</time>
      </trkpt>
      <trkpt lat="49.37793" lon="5.84458">
        <ele>321</ele>
        <time>2023-06-23T09:29:10Z</time>
      </trkpt>
      <trkpt lat="49.37791" lon="5.84455">
        <ele>321.39999389648</ele>
        <time>2023-06-23T09:29:12Z</time>
      </trkpt>
      <trkpt lat="49.37788" lon="5.84452">
        <ele>322</ele>
        <time>2023-06-23T09:29:14Z</time>
      </trkpt>
      <trkpt lat="49.37786" lon="5.84451">
        <ele>322.20001220703</ele>
        <time>2023-06-23T09:29:15Z</time>
      </trkpt>
      <trkpt lat="49.37784" lon="5.84451">
        <ele>322.39999389648</ele>
        <time>2023-06-23T09:29:16Z</time>
      </trkpt>
      <trkpt lat="49.37783" lon="5.8445">
        <ele>322.60000610352</ele>
        <time>2023-06-23T09:29:17Z</time>
      </trkpt>
      <trkpt lat="49.37782" lon="5.84449">
        <ele>322.79998779297</ele>
        <time>2023-06-23T09:29:18Z</time>
      </trkpt>
      <trkpt lat="49.37779" lon="5.84449">
        <ele>323</ele>
        <time>2023-06-23T09:29:20Z</time>
      </trkpt>
      <trkpt lat="49.37776" lon="5.84446">
        <ele>323.39999389648</ele>
        <time>2023-06-23T09:29:22Z</time>
      </trkpt>
      <trkpt lat="49.37773" lon="5.84445">
        <ele>323.79998779297</ele>
        <time>2023-06-23T09:29:24Z</time>
      </trkpt>
      <trkpt lat="49.37771" lon="5.84442">
        <ele>324.20001220703</ele>
        <time>2023-06-23T09:29:26Z</time>
      </trkpt>
      <trkpt lat="49.37768" lon="5.84441">
        <ele>324.39999389648</ele>
        <time>2023-06-23T09:29:28Z</time>
      </trkpt>
      <trkpt lat="49.37765" lon="5.84438">
        <ele>324.60000610352</ele>
        <time>2023-06-23T09:29:30Z</time>
      </trkpt>
      <trkpt lat="49.37762" lon="5.84436">
        <ele>324.79998779297</ele>
        <time>2023-06-23T09:29:32Z</time>
      </trkpt>
      <trkpt lat="49.37759" lon="5.84436">
        <ele>325</ele>
        <time>2023-06-23T09:29:34Z</time>
      </trkpt>
      <trkpt lat="49.37758" lon="5.84435">
        <ele>325</ele>
        <time>2023-06-23T09:29:35Z</time>
      </trkpt>
      <trkpt lat="49.37757" lon="5.84435">
        <ele>325.20001220703</ele>
        <time>2023-06-23T09:29:36Z</time>
      </trkpt>
      <trkpt lat="49.37755" lon="5.84435">
        <ele>325.39999389648</ele>
        <time>2023-06-23T09:29:37Z</time>
      </trkpt>
      <trkpt lat="49.37753" lon="5.84434">
        <ele>325.60000610352</ele>
        <time>2023-06-23T09:29:38Z</time>
      </trkpt>
      <trkpt lat="49.3775" lon="5.84433">
        <ele>325.60000610352</ele>
        <time>2023-06-23T09:29:40Z</time>
      </trkpt>
      <trkpt lat="49.37749" lon="5.84433">
        <ele>325.79998779297</ele>
        <time>2023-06-23T09:29:41Z</time>
      </trkpt>
      <trkpt lat="49.37747" lon="5.84432">
        <ele>325.79998779297</ele>
        <time>2023-06-23T09:29:42Z</time>
      </trkpt>
      <trkpt lat="49.37743" lon="5.84433">
        <ele>325.79998779297</ele>
        <time>2023-06-23T09:29:44Z</time>
      </trkpt>
      <trkpt lat="49.3774" lon="5.84433">
        <ele>325.79998779297</ele>
        <time>2023-06-23T09:29:46Z</time>
      </trkpt>
      <trkpt lat="49.37738" lon="5.84433">
        <ele>325.79998779297</ele>
        <time>2023-06-23T09:29:47Z</time>
      </trkpt>
      <trkpt lat="49.37736" lon="5.84434">
        <ele>325.79998779297</ele>
        <time>2023-06-23T09:29:48Z</time>
      </trkpt>
      <trkpt lat="49.37732" lon="5.84433">
        <ele>326</ele>
        <time>2023-06-23T09:29:50Z</time>
      </trkpt>
      <trkpt lat="49.37729" lon="5.84433">
        <ele>326</ele>
        <time>2023-06-23T09:29:52Z</time>
      </trkpt>
      <trkpt lat="49.37727" lon="5.84432">
        <ele>326</ele>
        <time>2023-06-23T09:29:54Z</time>
      </trkpt>
      <trkpt lat="49.37724" lon="5.84433">
        <ele>326.20001220703</ele>
        <time>2023-06-23T09:29:56Z</time>
      </trkpt>
      <trkpt lat="49.37719" lon="5.84432">
        <ele>326.20001220703</ele>
        <time>2023-06-23T09:29:58Z</time>
      </trkpt>
      <trkpt lat="49.37717" lon="5.84431">
        <ele>326.20001220703</ele>
        <time>2023-06-23T09:29:59Z</time>
      </trkpt>
      <trkpt lat="49.37716" lon="5.84431">
        <ele>326.39999389648</ele>
        <time>2023-06-23T09:30:00Z</time>
      </trkpt>
      <trkpt lat="49.37712" lon="5.84428">
        <ele>326.39999389648</ele>
        <time>2023-06-23T09:30:02Z</time>
      </trkpt>
      <trkpt lat="49.37708" lon="5.84427">
        <ele>326.60000610352</ele>
        <time>2023-06-23T09:30:04Z</time>
      </trkpt>
      <trkpt lat="49.37706" lon="5.84427">
        <ele>326.79998779297</ele>
        <time>2023-06-23T09:30:05Z</time>
      </trkpt>
      <trkpt lat="49.37704" lon="5.84426">
        <ele>326.79998779297</ele>
        <time>2023-06-23T09:30:06Z</time>
      </trkpt>
      <trkpt lat="49.37699" lon="5.84422">
        <ele>327.20001220703</ele>
        <time>2023-06-23T09:30:08Z</time>
      </trkpt>
      <trkpt lat="49.37694" lon="5.84418">
        <ele>327.20001220703</ele>
        <time>2023-06-23T09:30:10Z</time>
      </trkpt>
      <trkpt lat="49.37692" lon="5.84417">
        <ele>327.39999389648</ele>
        <time>2023-06-23T09:30:11Z</time>
      </trkpt>
      <trkpt lat="49.37691" lon="5.84416">
        <ele>327.39999389648</ele>
        <time>2023-06-23T09:30:12Z</time>
      </trkpt>
      <trkpt lat="49.37688" lon="5.84413">
        <ele>327.39999389648</ele>
        <time>2023-06-23T09:30:14Z</time>
      </trkpt>
      <trkpt lat="49.37686" lon="5.8441">
        <ele>327.60000610352</ele>
        <time>2023-06-23T09:30:16Z</time>
      </trkpt>
      <trkpt lat="49.37684" lon="5.84408">
        <ele>327.60000610352</ele>
        <time>2023-06-23T09:30:17Z</time>
      </trkpt>
      <trkpt lat="49.37682" lon="5.84407">
        <ele>327.60000610352</ele>
        <time>2023-06-23T09:30:18Z</time>
      </trkpt>
      <trkpt lat="49.37678" lon="5.84404">
        <ele>328.20001220703</ele>
        <time>2023-06-23T09:30:20Z</time>
      </trkpt>
      <trkpt lat="49.37674" lon="5.844">
        <ele>329.20001220703</ele>
        <time>2023-06-23T09:30:22Z</time>
      </trkpt>
      <trkpt lat="49.37673" lon="5.84399">
        <ele>329.60000610352</ele>
        <time>2023-06-23T09:30:23Z</time>
      </trkpt>
      <trkpt lat="49.37671" lon="5.84399">
        <ele>330</ele>
        <time>2023-06-23T09:30:24Z</time>
      </trkpt>
      <trkpt lat="49.37668" lon="5.84398">
        <ele>330.79998779297</ele>
        <time>2023-06-23T09:30:26Z</time>
      </trkpt>
      <trkpt lat="49.37665" lon="5.84398">
        <ele>331.39999389648</ele>
        <time>2023-06-23T09:30:28Z</time>
      </trkpt>
      <trkpt lat="49.37661" lon="5.84398">
        <ele>332.20001220703</ele>
        <time>2023-06-23T09:30:30Z</time>
      </trkpt>
      <trkpt lat="49.37659" lon="5.84398">
        <ele>332.39999389648</ele>
        <time>2023-06-23T09:30:31Z</time>
      </trkpt>
      <trkpt lat="49.37658" lon="5.84398">
        <ele>332.60000610352</ele>
        <time>2023-06-23T09:30:32Z</time>
      </trkpt>
      <trkpt lat="49.37654" lon="5.84398">
        <ele>333.20001220703</ele>
        <time>2023-06-23T09:30:34Z</time>
      </trkpt>
      <trkpt lat="49.37652" lon="5.84397">
        <ele>333.60000610352</ele>
        <time>2023-06-23T09:30:35Z</time>
      </trkpt>
      <trkpt lat="49.3765" lon="5.84398">
        <ele>334</ele>
        <time>2023-06-23T09:30:36Z</time>
      </trkpt>
      <trkpt lat="49.37648" lon="5.84399">
        <ele>334.20001220703</ele>
        <time>2023-06-23T09:30:37Z</time>
      </trkpt>
      <trkpt lat="49.37646" lon="5.84399">
        <ele>334.60000610352</ele>
        <time>2023-06-23T09:30:38Z</time>
      </trkpt>
      <trkpt lat="49.37644" lon="5.84399">
        <ele>334.79998779297</ele>
        <time>2023-06-23T09:30:39Z</time>
      </trkpt>
      <trkpt lat="49.37643" lon="5.84401">
        <ele>335</ele>
        <time>2023-06-23T09:30:40Z</time>
      </trkpt>
      <trkpt lat="49.37641" lon="5.84403">
        <ele>335.20001220703</ele>
        <time>2023-06-23T09:30:41Z</time>
      </trkpt>
      <trkpt lat="49.3764" lon="5.84403">
        <ele>335.39999389648</ele>
        <time>2023-06-23T09:30:42Z</time>
      </trkpt>
      <trkpt lat="49.37637" lon="5.84405">
        <ele>335.79998779297</ele>
        <time>2023-06-23T09:30:44Z</time>
      </trkpt>
      <trkpt lat="49.37636" lon="5.84407">
        <ele>336.39999389648</ele>
        <time>2023-06-23T09:30:45Z</time>
      </trkpt>
      <trkpt lat="49.37635" lon="5.84408">
        <ele>336.60000610352</ele>
        <time>2023-06-23T09:30:46Z</time>
      </trkpt>
      <trkpt lat="49.37633" lon="5.8441">
        <ele>337.20001220703</ele>
        <time>2023-06-23T09:30:48Z</time>
      </trkpt>
      <trkpt lat="49.37632" lon="5.84411">
        <ele>337.60000610352</ele>
        <time>2023-06-23T09:30:49Z</time>
      </trkpt>
      <trkpt lat="49.3763" lon="5.84412">
        <ele>338</ele>
        <time>2023-06-23T09:30:50Z</time>
      </trkpt>
      <trkpt lat="49.37628" lon="5.84414">
        <ele>338.60000610352</ele>
        <time>2023-06-23T09:30:52Z</time>
      </trkpt>
      <trkpt lat="49.37627" lon="5.84415">
        <ele>338.79998779297</ele>
        <time>2023-06-23T09:30:53Z</time>
      </trkpt>
      <trkpt lat="49.37626" lon="5.84416">
        <ele>339</ele>
        <time>2023-06-23T09:30:54Z</time>
      </trkpt>
      <trkpt lat="49.37624" lon="5.84417">
        <ele>339.20001220703</ele>
        <time>2023-06-23T09:30:56Z</time>
      </trkpt>
      <trkpt lat="49.37622" lon="5.84418">
        <ele>339.39999389648</ele>
        <time>2023-06-23T09:30:57Z</time>
      </trkpt>
      <trkpt lat="49.3762" lon="5.84419">
        <ele>339.60000610352</ele>
        <time>2023-06-23T09:30:58Z</time>
      </trkpt>
      <trkpt lat="49.37617" lon="5.84421">
        <ele>340</ele>
        <time>2023-06-23T09:31:00Z</time>
      </trkpt>
      <trkpt lat="49.37616" lon="5.84421">
        <ele>340.20001220703</ele>
        <time>2023-06-23T09:31:01Z</time>
      </trkpt>
      <trkpt lat="49.37615" lon="5.84422">
        <ele>340.20001220703</ele>
        <time>2023-06-23T09:31:02Z</time>
      </trkpt>
      <trkpt lat="49.37612" lon="5.84424">
        <ele>340.60000610352</ele>
        <time>2023-06-23T09:31:04Z</time>
      </trkpt>
      <trkpt lat="49.37609" lon="5.84426">
        <ele>340.79998779297</ele>
        <time>2023-06-23T09:31:06Z</time>
      </trkpt>
      <trkpt lat="49.37607" lon="5.84428">
        <ele>341</ele>
        <time>2023-06-23T09:31:07Z</time>
      </trkpt>
      <trkpt lat="49.37606" lon="5.84429">
        <ele>341.20001220703</ele>
        <time>2023-06-23T09:31:08Z</time>
      </trkpt>
      <trkpt lat="49.37603" lon="5.84431">
        <ele>341.39999389648</ele>
        <time>2023-06-23T09:31:10Z</time>
      </trkpt>
      <trkpt lat="49.37602" lon="5.84433">
        <ele>341.39999389648</ele>
        <time>2023-06-23T09:31:11Z</time>
      </trkpt>
      <trkpt lat="49.37601" lon="5.84435">
        <ele>341.60000610352</ele>
        <time>2023-06-23T09:31:12Z</time>
      </trkpt>
      <trkpt lat="49.37598" lon="5.84438">
        <ele>342</ele>
        <time>2023-06-23T09:31:14Z</time>
      </trkpt>
      <trkpt lat="49.37595" lon="5.84441">
        <ele>342.20001220703</ele>
        <time>2023-06-23T09:31:16Z</time>
      </trkpt>
      <trkpt lat="49.37593" lon="5.84444">
        <ele>342.60000610352</ele>
        <time>2023-06-23T09:31:18Z</time>
      </trkpt>
      <trkpt lat="49.37592" lon="5.84446">
        <ele>342.79998779297</ele>
        <time>2023-06-23T09:31:19Z</time>
      </trkpt>
      <trkpt lat="49.37591" lon="5.84447">
        <ele>342.79998779297</ele>
        <time>2023-06-23T09:31:20Z</time>
      </trkpt>
      <trkpt lat="49.37587" lon="5.84451">
        <ele>343</ele>
        <time>2023-06-23T09:31:22Z</time>
      </trkpt>
      <trkpt lat="49.37586" lon="5.84452">
        <ele>343</ele>
        <time>2023-06-23T09:31:23Z</time>
      </trkpt>
      <trkpt lat="49.37585" lon="5.84453">
        <ele>343</ele>
        <time>2023-06-23T09:31:24Z</time>
      </trkpt>
      <trkpt lat="49.37584" lon="5.84454">
        <ele>343.20001220703</ele>
        <time>2023-06-23T09:31:25Z</time>
      </trkpt>
      <trkpt lat="49.37583" lon="5.84455">
        <ele>343.39999389648</ele>
        <time>2023-06-23T09:31:26Z</time>
      </trkpt>
      <trkpt lat="49.3758" lon="5.84457">
        <ele>343.60000610352</ele>
        <time>2023-06-23T09:31:28Z</time>
      </trkpt>
      <trkpt lat="49.37577" lon="5.84459">
        <ele>344</ele>
        <time>2023-06-23T09:31:30Z</time>
      </trkpt>
      <trkpt lat="49.37573" lon="5.84462">
        <ele>344</ele>
        <time>2023-06-23T09:31:32Z</time>
      </trkpt>
      <trkpt lat="49.37571" lon="5.84463">
        <ele>344.20001220703</ele>
        <time>2023-06-23T09:31:33Z</time>
      </trkpt>
      <trkpt lat="49.3757" lon="5.84464">
        <ele>344.20001220703</ele>
        <time>2023-06-23T09:31:34Z</time>
      </trkpt>
      <trkpt lat="49.37567" lon="5.84465">
        <ele>344.60000610352</ele>
        <time>2023-06-23T09:31:36Z</time>
      </trkpt>
      <trkpt lat="49.37564" lon="5.84467">
        <ele>344.79998779297</ele>
        <time>2023-06-23T09:31:38Z</time>
      </trkpt>
      <trkpt lat="49.37562" lon="5.84469">
        <ele>345.20001220703</ele>
        <time>2023-06-23T09:31:40Z</time>
      </trkpt>
      <trkpt lat="49.37559" lon="5.84472">
        <ele>345.39999389648</ele>
        <time>2023-06-23T09:31:42Z</time>
      </trkpt>
      <trkpt lat="49.37556" lon="5.84474">
        <ele>346</ele>
        <time>2023-06-23T09:31:44Z</time>
      </trkpt>
      <trkpt lat="49.37554" lon="5.84475">
        <ele>346.39999389648</ele>
        <time>2023-06-23T09:31:45Z</time>
      </trkpt>
      <trkpt lat="49.37552" lon="5.84476">
        <ele>346.60000610352</ele>
        <time>2023-06-23T09:31:46Z</time>
      </trkpt>
      <trkpt lat="49.37549" lon="5.84478">
        <ele>347</ele>
        <time>2023-06-23T09:31:48Z</time>
      </trkpt>
      <trkpt lat="49.37547" lon="5.8448">
        <ele>347.20001220703</ele>
        <time>2023-06-23T09:31:50Z</time>
      </trkpt>
      <trkpt lat="49.37546" lon="5.84481">
        <ele>347.39999389648</ele>
        <time>2023-06-23T09:31:51Z</time>
      </trkpt>
      <trkpt lat="49.37544" lon="5.84483">
        <ele>347.60000610352</ele>
        <time>2023-06-23T09:31:52Z</time>
      </trkpt>
      <trkpt lat="49.37542" lon="5.84485">
        <ele>347.79998779297</ele>
        <time>2023-06-23T09:31:53Z</time>
      </trkpt>
      <trkpt lat="49.37541" lon="5.84487">
        <ele>348</ele>
        <time>2023-06-23T09:31:54Z</time>
      </trkpt>
      <trkpt lat="49.37538" lon="5.8449">
        <ele>348.39999389648</ele>
        <time>2023-06-23T09:31:56Z</time>
      </trkpt>
      <trkpt lat="49.37535" lon="5.84493">
        <ele>349</ele>
        <time>2023-06-23T09:31:58Z</time>
      </trkpt>
      <trkpt lat="49.37534" lon="5.84495">
        <ele>349</ele>
        <time>2023-06-23T09:31:59Z</time>
      </trkpt>
      <trkpt lat="49.37533" lon="5.84497">
        <ele>349.20001220703</ele>
        <time>2023-06-23T09:32:00Z</time>
      </trkpt>
      <trkpt lat="49.37532" lon="5.845">
        <ele>349.39999389648</ele>
        <time>2023-06-23T09:32:02Z</time>
      </trkpt>
      <trkpt lat="49.37529" lon="5.84503">
        <ele>349.79998779297</ele>
        <time>2023-06-23T09:32:04Z</time>
      </trkpt>
      <trkpt lat="49.37527" lon="5.84507">
        <ele>350</ele>
        <time>2023-06-23T09:32:06Z</time>
      </trkpt>
      <trkpt lat="49.37523" lon="5.84511">
        <ele>350.60000610352</ele>
        <time>2023-06-23T09:32:08Z</time>
      </trkpt>
      <trkpt lat="49.3752" lon="5.84513">
        <ele>351</ele>
        <time>2023-06-23T09:32:10Z</time>
      </trkpt>
      <trkpt lat="49.37517" lon="5.84516">
        <ele>351.20001220703</ele>
        <time>2023-06-23T09:32:12Z</time>
      </trkpt>
      <trkpt lat="49.37516" lon="5.84517">
        <ele>351.39999389648</ele>
        <time>2023-06-23T09:32:13Z</time>
      </trkpt>
      <trkpt lat="49.37514" lon="5.84518">
        <ele>351.60000610352</ele>
        <time>2023-06-23T09:32:14Z</time>
      </trkpt>
      <trkpt lat="49.37511" lon="5.84521">
        <ele>352</ele>
        <time>2023-06-23T09:32:16Z</time>
      </trkpt>
      <trkpt lat="49.37508" lon="5.84523">
        <ele>352.39999389648</ele>
        <time>2023-06-23T09:32:18Z</time>
      </trkpt>
      <trkpt lat="49.37505" lon="5.84525">
        <ele>352.60000610352</ele>
        <time>2023-06-23T09:32:20Z</time>
      </trkpt>
      <trkpt lat="49.37501" lon="5.84529">
        <ele>352.79998779297</ele>
        <time>2023-06-23T09:32:22Z</time>
      </trkpt>
      <trkpt lat="49.37498" lon="5.84533">
        <ele>353.20001220703</ele>
        <time>2023-06-23T09:32:24Z</time>
      </trkpt>
      <trkpt lat="49.37494" lon="5.84537">
        <ele>353.39999389648</ele>
        <time>2023-06-23T09:32:26Z</time>
      </trkpt>
      <trkpt lat="49.37492" lon="5.8454">
        <ele>353.39999389648</ele>
        <time>2023-06-23T09:32:27Z</time>
      </trkpt>
      <trkpt lat="49.3749" lon="5.84541">
        <ele>353.60000610352</ele>
        <time>2023-06-23T09:32:28Z</time>
      </trkpt>
      <trkpt lat="49.37486" lon="5.84546">
        <ele>353.60000610352</ele>
        <time>2023-06-23T09:32:30Z</time>
      </trkpt>
      <trkpt lat="49.37482" lon="5.84551">
        <ele>353.60000610352</ele>
        <time>2023-06-23T09:32:32Z</time>
      </trkpt>
      <trkpt lat="49.3748" lon="5.84553">
        <ele>353.60000610352</ele>
        <time>2023-06-23T09:32:33Z</time>
      </trkpt>
      <trkpt lat="49.37478" lon="5.84555">
        <ele>353.60000610352</ele>
        <time>2023-06-23T09:32:34Z</time>
      </trkpt>
      <trkpt lat="49.37474" lon="5.84559">
        <ele>353.60000610352</ele>
        <time>2023-06-23T09:32:36Z</time>
      </trkpt>
      <trkpt lat="49.3747" lon="5.84563">
        <ele>353.60000610352</ele>
        <time>2023-06-23T09:32:38Z</time>
      </trkpt>
      <trkpt lat="49.37466" lon="5.84566">
        <ele>353.60000610352</ele>
        <time>2023-06-23T09:32:40Z</time>
      </trkpt>
      <trkpt lat="49.37461" lon="5.8457">
        <ele>353.60000610352</ele>
        <time>2023-06-23T09:32:42Z</time>
      </trkpt>
      <trkpt lat="49.37458" lon="5.84573">
        <ele>353.60000610352</ele>
        <time>2023-06-23T09:32:44Z</time>
      </trkpt>
      <trkpt lat="49.37454" lon="5.84575">
        <ele>353.60000610352</ele>
        <time>2023-06-23T09:32:46Z</time>
      </trkpt>
      <trkpt lat="49.37454" lon="5.84577">
        <ele>353.60000610352</ele>
        <time>2023-06-23T09:32:47Z</time>
      </trkpt>
      <trkpt lat="49.37453" lon="5.8458">
        <ele>353.60000610352</ele>
        <time>2023-06-23T09:32:48Z</time>
      </trkpt>
      <trkpt lat="49.37454" lon="5.84587">
        <ele>353.60000610352</ele>
        <time>2023-06-23T09:32:50Z</time>
      </trkpt>
      <trkpt lat="49.37454" lon="5.8459">
        <ele>353.60000610352</ele>
        <time>2023-06-23T09:32:51Z</time>
      </trkpt>
      <trkpt lat="49.37454" lon="5.84592">
        <ele>353.60000610352</ele>
        <time>2023-06-23T09:32:52Z</time>
      </trkpt>
      <trkpt lat="49.37457" lon="5.84598">
        <ele>353.39999389648</ele>
        <time>2023-06-23T09:32:54Z</time>
      </trkpt>
      <trkpt lat="49.3746" lon="5.84605">
        <ele>353.20001220703</ele>
        <time>2023-06-23T09:32:56Z</time>
      </trkpt>
      <trkpt lat="49.37463" lon="5.84615">
        <ele>352.79998779297</ele>
        <time>2023-06-23T09:32:58Z</time>
      </trkpt>
      <trkpt lat="49.37468" lon="5.84626">
        <ele>352.60000610352</ele>
        <time>2023-06-23T09:33:00Z</time>
      </trkpt>
      <trkpt lat="49.3747" lon="5.84632">
        <ele>352.39999389648</ele>
        <time>2023-06-23T09:33:01Z</time>
      </trkpt>
      <trkpt lat="49.37473" lon="5.84639">
        <ele>352.20001220703</ele>
        <time>2023-06-23T09:33:02Z</time>
      </trkpt>
      <trkpt lat="49.37479" lon="5.84654">
        <ele>351.39999389648</ele>
        <time>2023-06-23T09:33:04Z</time>
      </trkpt>
      <trkpt lat="49.37482" lon="5.8466">
        <ele>351.20001220703</ele>
        <time>2023-06-23T09:33:05Z</time>
      </trkpt>
      <trkpt lat="49.37484" lon="5.84665">
        <ele>350.79998779297</ele>
        <time>2023-06-23T09:33:06Z</time>
      </trkpt>
      <trkpt lat="49.37486" lon="5.8467">
        <ele>350.20001220703</ele>
        <time>2023-06-23T09:33:07Z</time>
      </trkpt>
      <trkpt lat="49.37488" lon="5.84676">
        <ele>349.79998779297</ele>
        <time>2023-06-23T09:33:08Z</time>
      </trkpt>
      <trkpt lat="49.3749" lon="5.84682">
        <ele>349.20001220703</ele>
        <time>2023-06-23T09:33:09Z</time>
      </trkpt>
      <trkpt lat="49.37492" lon="5.84688">
        <ele>348.79998779297</ele>
        <time>2023-06-23T09:33:10Z</time>
      </trkpt>
      <trkpt lat="49.37497" lon="5.84702">
        <ele>347.60000610352</ele>
        <time>2023-06-23T09:33:12Z</time>
      </trkpt>
      <trkpt lat="49.37505" lon="5.84718">
        <ele>346.60000610352</ele>
        <time>2023-06-23T09:33:14Z</time>
      </trkpt>
      <trkpt lat="49.37508" lon="5.84725">
        <ele>346.20001220703</ele>
        <time>2023-06-23T09:33:15Z</time>
      </trkpt>
      <trkpt lat="49.37511" lon="5.84732">
        <ele>345.39999389648</ele>
        <time>2023-06-23T09:33:16Z</time>
      </trkpt>
      <trkpt lat="49.37514" lon="5.84739">
        <ele>344.39999389648</ele>
        <time>2023-06-23T09:33:17Z</time>
      </trkpt>
      <trkpt lat="49.37517" lon="5.84746">
        <ele>342.79998779297</ele>
        <time>2023-06-23T09:33:18Z</time>
      </trkpt>
      <trkpt lat="49.3752" lon="5.84752">
        <ele>341.39999389648</ele>
        <time>2023-06-23T09:33:19Z</time>
      </trkpt>
      <trkpt lat="49.37523" lon="5.8476">
        <ele>339.60000610352</ele>
        <time>2023-06-23T09:33:20Z</time>
      </trkpt>
      <trkpt lat="49.37527" lon="5.84768">
        <ele>337.20001220703</ele>
        <time>2023-06-23T09:33:21Z</time>
      </trkpt>
      <trkpt lat="49.37531" lon="5.84777">
        <ele>335.20001220703</ele>
        <time>2023-06-23T09:33:22Z</time>
      </trkpt>
      <trkpt lat="49.37534" lon="5.84785">
        <ele>333.39999389648</ele>
        <time>2023-06-23T09:33:23Z</time>
      </trkpt>
      <trkpt lat="49.37538" lon="5.84795">
        <ele>331.60000610352</ele>
        <time>2023-06-23T09:33:24Z</time>
      </trkpt>
      <trkpt lat="49.37541" lon="5.84803">
        <ele>329.60000610352</ele>
        <time>2023-06-23T09:33:25Z</time>
      </trkpt>
      <trkpt lat="49.37542" lon="5.84809">
        <ele>328</ele>
        <time>2023-06-23T09:33:26Z</time>
      </trkpt>
      <trkpt lat="49.37542" lon="5.84813">
        <ele>326.20001220703</ele>
        <time>2023-06-23T09:33:27Z</time>
      </trkpt>
      <trkpt lat="49.37542" lon="5.84815">
        <ele>324.60000610352</ele>
        <time>2023-06-23T09:33:28Z</time>
      </trkpt>
      <trkpt lat="49.37543" lon="5.84816">
        <ele>322.20001220703</ele>
        <time>2023-06-23T09:33:29Z</time>
      </trkpt>
      <trkpt lat="49.37544" lon="5.84817">
        <ele>317.39999389648</ele>
        <time>2023-06-23T09:33:30Z</time>
      </trkpt>
      <trkpt lat="49.37547" lon="5.84819">
        <ele>315.20001220703</ele>
        <time>2023-06-23T09:33:31Z</time>
      </trkpt>
      <trkpt lat="49.37551" lon="5.84818">
        <ele>313.20001220703</ele>
        <time>2023-06-23T09:33:32Z</time>
      </trkpt>
      <trkpt lat="49.37555" lon="5.84816">
        <ele>311.39999389648</ele>
        <time>2023-06-23T09:33:33Z</time>
      </trkpt>
      <trkpt lat="49.37559" lon="5.84814">
        <ele>310.39999389648</ele>
        <time>2023-06-23T09:33:34Z</time>
      </trkpt>
      <trkpt lat="49.37565" lon="5.84813">
        <ele>309.79998779297</ele>
        <time>2023-06-23T09:33:35Z</time>
      </trkpt>
      <trkpt lat="49.37571" lon="5.84811">
        <ele>309.39999389648</ele>
        <time>2023-06-23T09:33:36Z</time>
      </trkpt>
      <trkpt lat="49.37578" lon="5.84809">
        <ele>308.79998779297</ele>
        <time>2023-06-23T09:33:37Z</time>
      </trkpt>
      <trkpt lat="49.37585" lon="5.84806">
        <ele>307.60000610352</ele>
        <time>2023-06-23T09:33:38Z</time>
      </trkpt>
      <trkpt lat="49.37592" lon="5.84805">
        <ele>305.79998779297</ele>
        <time>2023-06-23T09:33:39Z</time>
      </trkpt>
      <trkpt lat="49.37597" lon="5.84804">
        <ele>304.39999389648</ele>
        <time>2023-06-23T09:33:40Z</time>
      </trkpt>
      <trkpt lat="49.37601" lon="5.84804">
        <ele>302.79998779297</ele>
        <time>2023-06-23T09:33:41Z</time>
      </trkpt>
      <trkpt lat="49.37606" lon="5.84804">
        <ele>301.60000610352</ele>
        <time>2023-06-23T09:33:42Z</time>
      </trkpt>
      <trkpt lat="49.37609" lon="5.84804">
        <ele>300</ele>
        <time>2023-06-23T09:33:43Z</time>
      </trkpt>
      <trkpt lat="49.37613" lon="5.84806">
        <ele>298</ele>
        <time>2023-06-23T09:33:44Z</time>
      </trkpt>
      <trkpt lat="49.37615" lon="5.84805">
        <ele>296.20001220703</ele>
        <time>2023-06-23T09:33:45Z</time>
      </trkpt>
      <trkpt lat="49.37618" lon="5.84805">
        <ele>294.60000610352</ele>
        <time>2023-06-23T09:33:46Z</time>
      </trkpt>
      <trkpt lat="49.37622" lon="5.84804">
        <ele>293.20001220703</ele>
        <time>2023-06-23T09:33:48Z</time>
      </trkpt>
      <trkpt lat="49.37626" lon="5.84804">
        <ele>292.39999389648</ele>
        <time>2023-06-23T09:33:50Z</time>
      </trkpt>
      <trkpt lat="49.37631" lon="5.84807">
        <ele>292.20001220703</ele>
        <time>2023-06-23T09:33:51Z</time>
      </trkpt>
      <trkpt lat="49.37637" lon="5.84811">
        <ele>292</ele>
        <time>2023-06-23T09:33:52Z</time>
      </trkpt>
      <trkpt lat="49.37647" lon="5.8482">
        <ele>291.60000610352</ele>
        <time>2023-06-23T09:33:54Z</time>
      </trkpt>
      <trkpt lat="49.37649" lon="5.84825">
        <ele>291.39999389648</ele>
        <time>2023-06-23T09:33:55Z</time>
      </trkpt>
      <trkpt lat="49.37651" lon="5.84829">
        <ele>291.20001220703</ele>
        <time>2023-06-23T09:33:56Z</time>
      </trkpt>
      <trkpt lat="49.37653" lon="5.84832">
        <ele>290.79998779297</ele>
        <time>2023-06-23T09:33:57Z</time>
      </trkpt>
      <trkpt lat="49.37654" lon="5.84835">
        <ele>290</ele>
        <time>2023-06-23T09:33:58Z</time>
      </trkpt>
      <trkpt lat="49.37655" lon="5.84838">
        <ele>289.20001220703</ele>
        <time>2023-06-23T09:33:59Z</time>
      </trkpt>
      <trkpt lat="49.37657" lon="5.84841">
        <ele>288.60000610352</ele>
        <time>2023-06-23T09:34:00Z</time>
      </trkpt>
      <trkpt lat="49.37658" lon="5.84847">
        <ele>288.20001220703</ele>
        <time>2023-06-23T09:34:02Z</time>
      </trkpt>
      <trkpt lat="49.37661" lon="5.8485">
        <ele>288</ele>
        <time>2023-06-23T09:34:03Z</time>
      </trkpt>
      <trkpt lat="49.37662" lon="5.84854">
        <ele>288</ele>
        <time>2023-06-23T09:34:04Z</time>
      </trkpt>
      <trkpt lat="49.37664" lon="5.8486">
        <ele>288</ele>
        <time>2023-06-23T09:34:06Z</time>
      </trkpt>
      <trkpt lat="49.37666" lon="5.84864">
        <ele>288</ele>
        <time>2023-06-23T09:34:08Z</time>
      </trkpt>
      <trkpt lat="49.37666" lon="5.84866">
        <ele>288</ele>
        <time>2023-06-23T09:34:10Z</time>
      </trkpt>
      <trkpt lat="49.37666" lon="5.8487">
        <ele>288.20001220703</ele>
        <time>2023-06-23T09:34:12Z</time>
      </trkpt>
      <trkpt lat="49.37665" lon="5.84873">
        <ele>288.39999389648</ele>
        <time>2023-06-23T09:34:14Z</time>
      </trkpt>
      <trkpt lat="49.37665" lon="5.84874">
        <ele>288.60000610352</ele>
        <time>2023-06-23T09:34:16Z</time>
      </trkpt>
      <trkpt lat="49.37663" lon="5.84876">
        <ele>288.79998779297</ele>
        <time>2023-06-23T09:34:18Z</time>
      </trkpt>
      <trkpt lat="49.37661" lon="5.84879">
        <ele>289</ele>
        <time>2023-06-23T09:34:20Z</time>
      </trkpt>
      <trkpt lat="49.37659" lon="5.84881">
        <ele>289.20001220703</ele>
        <time>2023-06-23T09:34:22Z</time>
      </trkpt>
      <trkpt lat="49.37657" lon="5.84882">
        <ele>289.20001220703</ele>
        <time>2023-06-23T09:34:23Z</time>
      </trkpt>
      <trkpt lat="49.37656" lon="5.84884">
        <ele>289.20001220703</ele>
        <time>2023-06-23T09:34:24Z</time>
      </trkpt>
      <trkpt lat="49.37655" lon="5.84885">
        <ele>289.39999389648</ele>
        <time>2023-06-23T09:34:25Z</time>
      </trkpt>
      <trkpt lat="49.37655" lon="5.84886">
        <ele>289.60000610352</ele>
        <time>2023-06-23T09:34:26Z</time>
      </trkpt>
      <trkpt lat="49.37655" lon="5.84886">
        <ele>290</ele>
        <time>2023-06-23T09:34:28Z</time>
      </trkpt>
      <trkpt lat="49.37655" lon="5.84888">
        <ele>290.39999389648</ele>
        <time>2023-06-23T09:34:30Z</time>
      </trkpt>
      <trkpt lat="49.37655" lon="5.84888">
        <ele>290.60000610352</ele>
        <time>2023-06-23T09:34:31Z</time>
      </trkpt>
      <trkpt lat="49.37655" lon="5.84888">
        <ele>291</ele>
        <time>2023-06-23T09:34:32Z</time>
      </trkpt>
      <trkpt lat="49.37655" lon="5.84888">
        <ele>291.39999389648</ele>
        <time>2023-06-23T09:34:34Z</time>
      </trkpt>
      <trkpt lat="49.37655" lon="5.84889">
        <ele>291.60000610352</ele>
        <time>2023-06-23T09:34:35Z</time>
      </trkpt>
      <trkpt lat="49.37655" lon="5.84888">
        <ele>291.60000610352</ele>
        <time>2023-06-23T09:34:36Z</time>
      </trkpt>
      <trkpt lat="49.37657" lon="5.84887">
        <ele>291.79998779297</ele>
        <time>2023-06-23T09:34:38Z</time>
      </trkpt>
      <trkpt lat="49.3766" lon="5.84884">
        <ele>291.79998779297</ele>
        <time>2023-06-23T09:34:40Z</time>
      </trkpt>
      <trkpt lat="49.37663" lon="5.8488">
        <ele>291.79998779297</ele>
        <time>2023-06-23T09:34:42Z</time>
      </trkpt>
      <trkpt lat="49.37665" lon="5.84876">
        <ele>291.60000610352</ele>
        <time>2023-06-23T09:34:44Z</time>
      </trkpt>
      <trkpt lat="49.37666" lon="5.84876">
        <ele>291.39999389648</ele>
        <time>2023-06-23T09:34:46Z</time>
      </trkpt>
      <trkpt lat="49.37666" lon="5.84875">
        <ele>290.60000610352</ele>
        <time>2023-06-23T09:34:48Z</time>
      </trkpt>
      <trkpt lat="49.37667" lon="5.84874">
        <ele>289.79998779297</ele>
        <time>2023-06-23T09:34:50Z</time>
      </trkpt>
      <trkpt lat="49.37668" lon="5.84873">
        <ele>289.39999389648</ele>
        <time>2023-06-23T09:34:52Z</time>
      </trkpt>
      <trkpt lat="49.37668" lon="5.84871">
        <ele>289.20001220703</ele>
        <time>2023-06-23T09:34:54Z</time>
      </trkpt>
      <trkpt lat="49.37669" lon="5.8487">
        <ele>289</ele>
        <time>2023-06-23T09:34:56Z</time>
      </trkpt>
      <trkpt lat="49.37669" lon="5.8487">
        <ele>289</ele>
        <time>2023-06-23T09:34:58Z</time>
      </trkpt>
      <trkpt lat="49.37669" lon="5.8487">
        <ele>289</ele>
        <time>2023-06-23T09:35:00Z</time>
      </trkpt>
      <trkpt lat="49.37669" lon="5.8487">
        <ele>289</ele>
        <time>2023-06-23T09:35:02Z</time>
      </trkpt>
      <trkpt lat="49.37669" lon="5.8487">
        <ele>289</ele>
        <time>2023-06-23T09:35:03Z</time>
      </trkpt>
      <trkpt lat="49.37669" lon="5.8487">
        <ele>289</ele>
        <time>2023-06-23T09:35:04Z</time>
      </trkpt>
      <trkpt lat="49.37669" lon="5.8487">
        <ele>289</ele>
        <time>2023-06-23T09:35:06Z</time>
      </trkpt>
      <trkpt lat="49.37669" lon="5.8487">
        <ele>289</ele>
        <time>2023-06-23T09:35:08Z</time>
      </trkpt>
      <trkpt lat="49.37669" lon="5.84871">
        <ele>289</ele>
        <time>2023-06-23T09:35:10Z</time>
      </trkpt>
      <trkpt lat="49.3767" lon="5.84871">
        <ele>289</ele>
        <time>2023-06-23T09:35:11Z</time>
      </trkpt>
      <trkpt lat="49.37671" lon="5.84874">
        <ele>289</ele>
        <time>2023-06-23T09:35:12Z</time>
      </trkpt>
      <trkpt lat="49.37672" lon="5.84877">
        <ele>289</ele>
        <time>2023-06-23T09:35:14Z</time>
      </trkpt>
      <trkpt lat="49.37673" lon="5.84879">
        <ele>289</ele>
        <time>2023-06-23T09:35:16Z</time>
      </trkpt>
      <trkpt lat="49.37674" lon="5.84879">
        <ele>289</ele>
        <time>2023-06-23T09:35:18Z</time>
      </trkpt>
      <trkpt lat="49.37675" lon="5.8488">
        <ele>289</ele>
        <time>2023-06-23T09:35:20Z</time>
      </trkpt>
      <trkpt lat="49.37675" lon="5.84879">
        <ele>289</ele>
        <time>2023-06-23T09:35:22Z</time>
      </trkpt>
      <trkpt lat="49.37676" lon="5.84878">
        <ele>288.60000610352</ele>
        <time>2023-06-23T09:35:24Z</time>
      </trkpt>
      <trkpt lat="49.37677" lon="5.84879">
        <ele>288.60000610352</ele>
        <time>2023-06-23T09:35:26Z</time>
      </trkpt>
      <trkpt lat="49.37677" lon="5.84878">
        <ele>288.79998779297</ele>
        <time>2023-06-23T09:35:28Z</time>
      </trkpt>
      <trkpt lat="49.37678" lon="5.84878">
        <ele>288.60000610352</ele>
        <time>2023-06-23T09:35:30Z</time>
      </trkpt>
      <trkpt lat="49.37678" lon="5.84878">
        <ele>288.60000610352</ele>
        <time>2023-06-23T09:35:32Z</time>
      </trkpt>
      <trkpt lat="49.37679" lon="5.84879">
        <ele>288.60000610352</ele>
        <time>2023-06-23T09:35:34Z</time>
      </trkpt>
      <trkpt lat="49.37679" lon="5.84879">
        <ele>288.60000610352</ele>
        <time>2023-06-23T09:35:36Z</time>
      </trkpt>
      <trkpt lat="49.37679" lon="5.84879">
        <ele>288.60000610352</ele>
        <time>2023-06-23T09:35:38Z</time>
      </trkpt>
      <trkpt lat="49.37679" lon="5.84879">
        <ele>288.60000610352</ele>
        <time>2023-06-23T09:35:40Z</time>
      </trkpt>
      <trkpt lat="49.37679" lon="5.84879">
        <ele>288.60000610352</ele>
        <time>2023-06-23T09:35:42Z</time>
      </trkpt>
      <trkpt lat="49.37679" lon="5.84879">
        <ele>288.79998779297</ele>
        <time>2023-06-23T09:35:44Z</time>
      </trkpt>
      <trkpt lat="49.3768" lon="5.84879">
        <ele>288.79998779297</ele>
        <time>2023-06-23T09:35:46Z</time>
      </trkpt>
      <trkpt lat="49.37681" lon="5.84879">
        <ele>288.79998779297</ele>
        <time>2023-06-23T09:35:48Z</time>
      </trkpt>
      <trkpt lat="49.37681" lon="5.84877">
        <ele>288.79998779297</ele>
        <time>2023-06-23T09:35:50Z</time>
      </trkpt>
      <trkpt lat="49.37682" lon="5.84874">
        <ele>288.79998779297</ele>
        <time>2023-06-23T09:35:52Z</time>
      </trkpt>
      <trkpt lat="49.37684" lon="5.84871">
        <ele>288.79998779297</ele>
        <time>2023-06-23T09:35:54Z</time>
      </trkpt>
      <trkpt lat="49.37686" lon="5.84869">
        <ele>288.79998779297</ele>
        <time>2023-06-23T09:35:56Z</time>
      </trkpt>
      <trkpt lat="49.37688" lon="5.84867">
        <ele>288.79998779297</ele>
        <time>2023-06-23T09:35:58Z</time>
      </trkpt>
      <trkpt lat="49.3769" lon="5.84864">
        <ele>289</ele>
        <time>2023-06-23T09:36:00Z</time>
      </trkpt>
      <trkpt lat="49.37691" lon="5.84863">
        <ele>289</ele>
        <time>2023-06-23T09:36:01Z</time>
      </trkpt>
      <trkpt lat="49.37692" lon="5.84862">
        <ele>289.20001220703</ele>
        <time>2023-06-23T09:36:02Z</time>
      </trkpt>
      <trkpt lat="49.37694" lon="5.8486">
        <ele>289.60000610352</ele>
        <time>2023-06-23T09:36:04Z</time>
      </trkpt>
      <trkpt lat="49.37696" lon="5.84857">
        <ele>290</ele>
        <time>2023-06-23T09:36:06Z</time>
      </trkpt>
      <trkpt lat="49.37697" lon="5.84855">
        <ele>290.39999389648</ele>
        <time>2023-06-23T09:36:07Z</time>
      </trkpt>
      <trkpt lat="49.37698" lon="5.84854">
        <ele>290.60000610352</ele>
        <time>2023-06-23T09:36:08Z</time>
      </trkpt>
      <trkpt lat="49.37701" lon="5.84851">
        <ele>291</ele>
        <time>2023-06-23T09:36:10Z</time>
      </trkpt>
      <trkpt lat="49.37701" lon="5.8485">
        <ele>291.39999389648</ele>
        <time>2023-06-23T09:36:11Z</time>
      </trkpt>
      <trkpt lat="49.37702" lon="5.84849">
        <ele>291.60000610352</ele>
        <time>2023-06-23T09:36:12Z</time>
      </trkpt>
      <trkpt lat="49.37704" lon="5.84847">
        <ele>292.39999389648</ele>
        <time>2023-06-23T09:36:14Z</time>
      </trkpt>
      <trkpt lat="49.37707" lon="5.84845">
        <ele>292.79998779297</ele>
        <time>2023-06-23T09:36:16Z</time>
      </trkpt>
      <trkpt lat="49.3771" lon="5.84844">
        <ele>293.20001220703</ele>
        <time>2023-06-23T09:36:18Z</time>
      </trkpt>
      <trkpt lat="49.37711" lon="5.84844">
        <ele>293.60000610352</ele>
        <time>2023-06-23T09:36:19Z</time>
      </trkpt>
      <trkpt lat="49.37712" lon="5.84845">
        <ele>293.79998779297</ele>
        <time>2023-06-23T09:36:20Z</time>
      </trkpt>
      <trkpt lat="49.37713" lon="5.84845">
        <ele>294</ele>
        <time>2023-06-23T09:36:21Z</time>
      </trkpt>
      <trkpt lat="49.37715" lon="5.84846">
        <ele>294.20001220703</ele>
        <time>2023-06-23T09:36:22Z</time>
      </trkpt>
      <trkpt lat="49.37716" lon="5.84846">
        <ele>294.60000610352</ele>
        <time>2023-06-23T09:36:23Z</time>
      </trkpt>
      <trkpt lat="49.37717" lon="5.84847">
        <ele>294.79998779297</ele>
        <time>2023-06-23T09:36:24Z</time>
      </trkpt>
      <trkpt lat="49.3772" lon="5.84847">
        <ele>295.20001220703</ele>
        <time>2023-06-23T09:36:26Z</time>
      </trkpt>
      <trkpt lat="49.37722" lon="5.84845">
        <ele>295.60000610352</ele>
        <time>2023-06-23T09:36:28Z</time>
      </trkpt>
      <trkpt lat="49.37723" lon="5.84844">
        <ele>295.60000610352</ele>
        <time>2023-06-23T09:36:29Z</time>
      </trkpt>
      <trkpt lat="49.37724" lon="5.84842">
        <ele>295.79998779297</ele>
        <time>2023-06-23T09:36:30Z</time>
      </trkpt>
      <trkpt lat="49.37725" lon="5.8484">
        <ele>296</ele>
        <time>2023-06-23T09:36:32Z</time>
      </trkpt>
      <trkpt lat="49.37727" lon="5.84837">
        <ele>296.39999389648</ele>
        <time>2023-06-23T09:36:34Z</time>
      </trkpt>
      <trkpt lat="49.37728" lon="5.84836">
        <ele>296.60000610352</ele>
        <time>2023-06-23T09:36:35Z</time>
      </trkpt>
      <trkpt lat="49.37729" lon="5.84835">
        <ele>297</ele>
        <time>2023-06-23T09:36:36Z</time>
      </trkpt>
      <trkpt lat="49.37731" lon="5.84832">
        <ele>297.39999389648</ele>
        <time>2023-06-23T09:36:38Z</time>
      </trkpt>
      <trkpt lat="49.37733" lon="5.84832">
        <ele>297.39999389648</ele>
        <time>2023-06-23T09:36:39Z</time>
      </trkpt>
      <trkpt lat="49.37734" lon="5.84831">
        <ele>297.60000610352</ele>
        <time>2023-06-23T09:36:40Z</time>
      </trkpt>
      <trkpt lat="49.37735" lon="5.84831">
        <ele>297.79998779297</ele>
        <time>2023-06-23T09:36:41Z</time>
      </trkpt>
      <trkpt lat="49.37736" lon="5.84831">
        <ele>298</ele>
        <time>2023-06-23T09:36:42Z</time>
      </trkpt>
      <trkpt lat="49.37738" lon="5.84831">
        <ele>298.39999389648</ele>
        <time>2023-06-23T09:36:44Z</time>
      </trkpt>
      <trkpt lat="49.3774" lon="5.84831">
        <ele>298.60000610352</ele>
        <time>2023-06-23T09:36:46Z</time>
      </trkpt>
      <trkpt lat="49.37741" lon="5.84831">
        <ele>298.60000610352</ele>
        <time>2023-06-23T09:36:47Z</time>
      </trkpt>
      <trkpt lat="49.37743" lon="5.84832">
        <ele>298.79998779297</ele>
        <time>2023-06-23T09:36:48Z</time>
      </trkpt>
      <trkpt lat="49.37745" lon="5.84831">
        <ele>299.39999389648</ele>
        <time>2023-06-23T09:36:50Z</time>
      </trkpt>
      <trkpt lat="49.37747" lon="5.84831">
        <ele>299.79998779297</ele>
        <time>2023-06-23T09:36:52Z</time>
      </trkpt>
      <trkpt lat="49.37748" lon="5.84831">
        <ele>300</ele>
        <time>2023-06-23T09:36:53Z</time>
      </trkpt>
      <trkpt lat="49.37749" lon="5.8483">
        <ele>300.20001220703</ele>
        <time>2023-06-23T09:36:54Z</time>
      </trkpt>
      <trkpt lat="49.37751" lon="5.84829">
        <ele>300.60000610352</ele>
        <time>2023-06-23T09:36:56Z</time>
      </trkpt>
      <trkpt lat="49.37753" lon="5.84828">
        <ele>301.20001220703</ele>
        <time>2023-06-23T09:36:58Z</time>
      </trkpt>
      <trkpt lat="49.37755" lon="5.84827">
        <ele>301.79998779297</ele>
        <time>2023-06-23T09:37:00Z</time>
      </trkpt>
      <trkpt lat="49.37757" lon="5.84826">
        <ele>302.20001220703</ele>
        <time>2023-06-23T09:37:02Z</time>
      </trkpt>
      <trkpt lat="49.37758" lon="5.84826">
        <ele>302.39999389648</ele>
        <time>2023-06-23T09:37:03Z</time>
      </trkpt>
      <trkpt lat="49.37759" lon="5.84825">
        <ele>302.39999389648</ele>
        <time>2023-06-23T09:37:04Z</time>
      </trkpt>
      <trkpt lat="49.37761" lon="5.84825">
        <ele>302.79998779297</ele>
        <time>2023-06-23T09:37:06Z</time>
      </trkpt>
      <trkpt lat="49.37762" lon="5.84824">
        <ele>303</ele>
        <time>2023-06-23T09:37:07Z</time>
      </trkpt>
      <trkpt lat="49.37763" lon="5.84822">
        <ele>303.20001220703</ele>
        <time>2023-06-23T09:37:08Z</time>
      </trkpt>
      <trkpt lat="49.37764" lon="5.84821">
        <ele>303.39999389648</ele>
        <time>2023-06-23T09:37:09Z</time>
      </trkpt>
      <trkpt lat="49.37765" lon="5.8482">
        <ele>303.39999389648</ele>
        <time>2023-06-23T09:37:10Z</time>
      </trkpt>
      <trkpt lat="49.37769" lon="5.84818">
        <ele>303.39999389648</ele>
        <time>2023-06-23T09:37:12Z</time>
      </trkpt>
      <trkpt lat="49.37775" lon="5.84814">
        <ele>303.39999389648</ele>
        <time>2023-06-23T09:37:14Z</time>
      </trkpt>
      <trkpt lat="49.37782" lon="5.84808">
        <ele>303.39999389648</ele>
        <time>2023-06-23T09:37:16Z</time>
      </trkpt>
      <trkpt lat="49.3779" lon="5.84802">
        <ele>303.39999389648</ele>
        <time>2023-06-23T09:37:18Z</time>
      </trkpt>
      <trkpt lat="49.37795" lon="5.84799">
        <ele>303.39999389648</ele>
        <time>2023-06-23T09:37:19Z</time>
      </trkpt>
      <trkpt lat="49.378" lon="5.84796">
        <ele>303.20001220703</ele>
        <time>2023-06-23T09:37:20Z</time>
      </trkpt>
      <trkpt lat="49.37804" lon="5.84793">
        <ele>303</ele>
        <time>2023-06-23T09:37:21Z</time>
      </trkpt>
      <trkpt lat="49.37809" lon="5.8479">
        <ele>302.60000610352</ele>
        <time>2023-06-23T09:37:22Z</time>
      </trkpt>
      <trkpt lat="49.37814" lon="5.84788">
        <ele>302.20001220703</ele>
        <time>2023-06-23T09:37:23Z</time>
      </trkpt>
      <trkpt lat="49.37819" lon="5.84785">
        <ele>301.39999389648</ele>
        <time>2023-06-23T09:37:24Z</time>
      </trkpt>
      <trkpt lat="49.37824" lon="5.84783">
        <ele>300.60000610352</ele>
        <time>2023-06-23T09:37:25Z</time>
      </trkpt>
      <trkpt lat="49.37829" lon="5.8478">
        <ele>299.60000610352</ele>
        <time>2023-06-23T09:37:26Z</time>
      </trkpt>
      <trkpt lat="49.37833" lon="5.84777">
        <ele>299</ele>
        <time>2023-06-23T09:37:27Z</time>
      </trkpt>
      <trkpt lat="49.37837" lon="5.84774">
        <ele>298.20001220703</ele>
        <time>2023-06-23T09:37:28Z</time>
      </trkpt>
      <trkpt lat="49.37846" lon="5.84769">
        <ele>297.39999389648</ele>
        <time>2023-06-23T09:37:30Z</time>
      </trkpt>
      <trkpt lat="49.3785" lon="5.84767">
        <ele>297</ele>
        <time>2023-06-23T09:37:31Z</time>
      </trkpt>
      <trkpt lat="49.37854" lon="5.84765">
        <ele>296.79998779297</ele>
        <time>2023-06-23T09:37:32Z</time>
      </trkpt>
      <trkpt lat="49.37861" lon="5.84761">
        <ele>296.39999389648</ele>
        <time>2023-06-23T09:37:34Z</time>
      </trkpt>
      <trkpt lat="49.37869" lon="5.84756">
        <ele>295.79998779297</ele>
        <time>2023-06-23T09:37:36Z</time>
      </trkpt>
      <trkpt lat="49.37877" lon="5.84751">
        <ele>295.60000610352</ele>
        <time>2023-06-23T09:37:38Z</time>
      </trkpt>
      <trkpt lat="49.37881" lon="5.84749">
        <ele>295.39999389648</ele>
        <time>2023-06-23T09:37:39Z</time>
      </trkpt>
      <trkpt lat="49.37885" lon="5.84747">
        <ele>295</ele>
        <time>2023-06-23T09:37:40Z</time>
      </trkpt>
      <trkpt lat="49.37893" lon="5.84745">
        <ele>294.79998779297</ele>
        <time>2023-06-23T09:37:42Z</time>
      </trkpt>
      <trkpt lat="49.37901" lon="5.84739">
        <ele>294</ele>
        <time>2023-06-23T09:37:44Z</time>
      </trkpt>
      <trkpt lat="49.37905" lon="5.84737">
        <ele>293.79998779297</ele>
        <time>2023-06-23T09:37:45Z</time>
      </trkpt>
      <trkpt lat="49.3791" lon="5.84734">
        <ele>293.39999389648</ele>
        <time>2023-06-23T09:37:46Z</time>
      </trkpt>
      <trkpt lat="49.37918" lon="5.8473">
        <ele>292.79998779297</ele>
        <time>2023-06-23T09:37:48Z</time>
      </trkpt>
      <trkpt lat="49.37923" lon="5.84728">
        <ele>292.20001220703</ele>
        <time>2023-06-23T09:37:49Z</time>
      </trkpt>
      <trkpt lat="49.37928" lon="5.84726">
        <ele>292</ele>
        <time>2023-06-23T09:37:50Z</time>
      </trkpt>
      <trkpt lat="49.37937" lon="5.84721">
        <ele>291.39999389648</ele>
        <time>2023-06-23T09:37:52Z</time>
      </trkpt>
      <trkpt lat="49.37943" lon="5.8472">
        <ele>291.20001220703</ele>
        <time>2023-06-23T09:37:53Z</time>
      </trkpt>
      <trkpt lat="49.37948" lon="5.84718">
        <ele>290.79998779297</ele>
        <time>2023-06-23T09:37:54Z</time>
      </trkpt>
      <trkpt lat="49.37954" lon="5.84716">
        <ele>290.39999389648</ele>
        <time>2023-06-23T09:37:55Z</time>
      </trkpt>
      <trkpt lat="49.37959" lon="5.84715">
        <ele>290.20001220703</ele>
        <time>2023-06-23T09:37:56Z</time>
      </trkpt>
      <trkpt lat="49.37969" lon="5.84711">
        <ele>289.60000610352</ele>
        <time>2023-06-23T09:37:58Z</time>
      </trkpt>
      <trkpt lat="49.37973" lon="5.84709">
        <ele>289.39999389648</ele>
        <time>2023-06-23T09:37:59Z</time>
      </trkpt>
      <trkpt lat="49.37977" lon="5.84708">
        <ele>288.79998779297</ele>
        <time>2023-06-23T09:38:00Z</time>
      </trkpt>
      <trkpt lat="49.37987" lon="5.84705">
        <ele>288</ele>
        <time>2023-06-23T09:38:02Z</time>
      </trkpt>
      <trkpt lat="49.37992" lon="5.84704">
        <ele>286.60000610352</ele>
        <time>2023-06-23T09:38:03Z</time>
      </trkpt>
      <trkpt lat="49.37998" lon="5.84702">
        <ele>286.39999389648</ele>
        <time>2023-06-23T09:38:04Z</time>
      </trkpt>
      <trkpt lat="49.38003" lon="5.847">
        <ele>286.20001220703</ele>
        <time>2023-06-23T09:38:05Z</time>
      </trkpt>
      <trkpt lat="49.38007" lon="5.84699">
        <ele>286.20001220703</ele>
        <time>2023-06-23T09:38:06Z</time>
      </trkpt>
      <trkpt lat="49.38016" lon="5.84695">
        <ele>286</ele>
        <time>2023-06-23T09:38:08Z</time>
      </trkpt>
      <trkpt lat="49.3802" lon="5.84693">
        <ele>286</ele>
        <time>2023-06-23T09:38:09Z</time>
      </trkpt>
      <trkpt lat="49.38025" lon="5.84691">
        <ele>285.79998779297</ele>
        <time>2023-06-23T09:38:10Z</time>
      </trkpt>
      <trkpt lat="49.3803" lon="5.8469">
        <ele>285.79998779297</ele>
        <time>2023-06-23T09:38:11Z</time>
      </trkpt>
      <trkpt lat="49.38034" lon="5.84688">
        <ele>285.60000610352</ele>
        <time>2023-06-23T09:38:12Z</time>
      </trkpt>
      <trkpt lat="49.38039" lon="5.84686">
        <ele>285.60000610352</ele>
        <time>2023-06-23T09:38:13Z</time>
      </trkpt>
      <trkpt lat="49.38043" lon="5.84685">
        <ele>285.39999389648</ele>
        <time>2023-06-23T09:38:14Z</time>
      </trkpt>
      <trkpt lat="49.38051" lon="5.84683">
        <ele>285.20001220703</ele>
        <time>2023-06-23T09:38:16Z</time>
      </trkpt>
      <trkpt lat="49.38055" lon="5.84684">
        <ele>284.79998779297</ele>
        <time>2023-06-23T09:38:17Z</time>
      </trkpt>
      <trkpt lat="49.3806" lon="5.84684">
        <ele>284.60000610352</ele>
        <time>2023-06-23T09:38:18Z</time>
      </trkpt>
      <trkpt lat="49.38068" lon="5.84683">
        <ele>283.79998779297</ele>
        <time>2023-06-23T09:38:20Z</time>
      </trkpt>
      <trkpt lat="49.38073" lon="5.84682">
        <ele>283.60000610352</ele>
        <time>2023-06-23T09:38:21Z</time>
      </trkpt>
      <trkpt lat="49.38077" lon="5.84681">
        <ele>283.39999389648</ele>
        <time>2023-06-23T09:38:22Z</time>
      </trkpt>
      <trkpt lat="49.38084" lon="5.84679">
        <ele>283</ele>
        <time>2023-06-23T09:38:24Z</time>
      </trkpt>
      <trkpt lat="49.38091" lon="5.84678">
        <ele>282.79998779297</ele>
        <time>2023-06-23T09:38:26Z</time>
      </trkpt>
      <trkpt lat="49.38095" lon="5.84677">
        <ele>282.79998779297</ele>
        <time>2023-06-23T09:38:27Z</time>
      </trkpt>
      <trkpt lat="49.38099" lon="5.84674">
        <ele>282.79998779297</ele>
        <time>2023-06-23T09:38:28Z</time>
      </trkpt>
      <trkpt lat="49.38108" lon="5.84669">
        <ele>282.60000610352</ele>
        <time>2023-06-23T09:38:30Z</time>
      </trkpt>
      <trkpt lat="49.38112" lon="5.84668">
        <ele>282.39999389648</ele>
        <time>2023-06-23T09:38:31Z</time>
      </trkpt>
      <trkpt lat="49.38117" lon="5.84665">
        <ele>282.39999389648</ele>
        <time>2023-06-23T09:38:32Z</time>
      </trkpt>
      <trkpt lat="49.38121" lon="5.84664">
        <ele>282</ele>
        <time>2023-06-23T09:38:33Z</time>
      </trkpt>
      <trkpt lat="49.38124" lon="5.84662">
        <ele>282</ele>
        <time>2023-06-23T09:38:34Z</time>
      </trkpt>
      <trkpt lat="49.38131" lon="5.8466">
        <ele>281.60000610352</ele>
        <time>2023-06-23T09:38:36Z</time>
      </trkpt>
      <trkpt lat="49.38138" lon="5.84657">
        <ele>281.39999389648</ele>
        <time>2023-06-23T09:38:38Z</time>
      </trkpt>
      <trkpt lat="49.38141" lon="5.84656">
        <ele>281.39999389648</ele>
        <time>2023-06-23T09:38:39Z</time>
      </trkpt>
      <trkpt lat="49.38145" lon="5.84655">
        <ele>281.39999389648</ele>
        <time>2023-06-23T09:38:40Z</time>
      </trkpt>
      <trkpt lat="49.38153" lon="5.84654">
        <ele>281.20001220703</ele>
        <time>2023-06-23T09:38:42Z</time>
      </trkpt>
      <trkpt lat="49.3816" lon="5.84651">
        <ele>281.20001220703</ele>
        <time>2023-06-23T09:38:44Z</time>
      </trkpt>
      <trkpt lat="49.38169" lon="5.84648">
        <ele>281</ele>
        <time>2023-06-23T09:38:46Z</time>
      </trkpt>
      <trkpt lat="49.3818" lon="5.84645">
        <ele>280.79998779297</ele>
        <time>2023-06-23T09:38:48Z</time>
      </trkpt>
      <trkpt lat="49.38185" lon="5.84643">
        <ele>280.60000610352</ele>
        <time>2023-06-23T09:38:49Z</time>
      </trkpt>
      <trkpt lat="49.38189" lon="5.84643">
        <ele>280.60000610352</ele>
        <time>2023-06-23T09:38:50Z</time>
      </trkpt>
      <trkpt lat="49.38195" lon="5.84642">
        <ele>280.60000610352</ele>
        <time>2023-06-23T09:38:51Z</time>
      </trkpt>
      <trkpt lat="49.382" lon="5.84642">
        <ele>280.60000610352</ele>
        <time>2023-06-23T09:38:52Z</time>
      </trkpt>
      <trkpt lat="49.38205" lon="5.84641">
        <ele>280.39999389648</ele>
        <time>2023-06-23T09:38:53Z</time>
      </trkpt>
      <trkpt lat="49.3821" lon="5.8464">
        <ele>280.20001220703</ele>
        <time>2023-06-23T09:38:54Z</time>
      </trkpt>
      <trkpt lat="49.3822" lon="5.84638">
        <ele>279.79998779297</ele>
        <time>2023-06-23T09:38:56Z</time>
      </trkpt>
      <trkpt lat="49.38228" lon="5.84636">
        <ele>279.60000610352</ele>
        <time>2023-06-23T09:38:58Z</time>
      </trkpt>
      <trkpt lat="49.38237" lon="5.84632">
        <ele>279.60000610352</ele>
        <time>2023-06-23T09:39:00Z</time>
      </trkpt>
      <trkpt lat="49.38244" lon="5.84627">
        <ele>279.60000610352</ele>
        <time>2023-06-23T09:39:02Z</time>
      </trkpt>
      <trkpt lat="49.38254" lon="5.84623">
        <ele>279.60000610352</ele>
        <time>2023-06-23T09:39:04Z</time>
      </trkpt>
      <trkpt lat="49.38263" lon="5.84618">
        <ele>279.60000610352</ele>
        <time>2023-06-23T09:39:06Z</time>
      </trkpt>
      <trkpt lat="49.38268" lon="5.84616">
        <ele>279.60000610352</ele>
        <time>2023-06-23T09:39:07Z</time>
      </trkpt>
      <trkpt lat="49.38274" lon="5.84612">
        <ele>279.60000610352</ele>
        <time>2023-06-23T09:39:08Z</time>
      </trkpt>
      <trkpt lat="49.38285" lon="5.84606">
        <ele>279.60000610352</ele>
        <time>2023-06-23T09:39:10Z</time>
      </trkpt>
      <trkpt lat="49.38295" lon="5.84599">
        <ele>279.60000610352</ele>
        <time>2023-06-23T09:39:12Z</time>
      </trkpt>
      <trkpt lat="49.38301" lon="5.84591">
        <ele>279.60000610352</ele>
        <time>2023-06-23T09:39:14Z</time>
      </trkpt>
      <trkpt lat="49.38306" lon="5.84582">
        <ele>279.60000610352</ele>
        <time>2023-06-23T09:39:16Z</time>
      </trkpt>
      <trkpt lat="49.38312" lon="5.84572">
        <ele>279.79998779297</ele>
        <time>2023-06-23T09:39:18Z</time>
      </trkpt>
      <trkpt lat="49.38319" lon="5.84562">
        <ele>279.39999389648</ele>
        <time>2023-06-23T09:39:20Z</time>
      </trkpt>
      <trkpt lat="49.38321" lon="5.84557">
        <ele>279.39999389648</ele>
        <time>2023-06-23T09:39:21Z</time>
      </trkpt>
      <trkpt lat="49.38324" lon="5.84551">
        <ele>279.39999389648</ele>
        <time>2023-06-23T09:39:22Z</time>
      </trkpt>
      <trkpt lat="49.38329" lon="5.84539">
        <ele>279.39999389648</ele>
        <time>2023-06-23T09:39:24Z</time>
      </trkpt>
      <trkpt lat="49.38334" lon="5.84526">
        <ele>279.39999389648</ele>
        <time>2023-06-23T09:39:26Z</time>
      </trkpt>
      <trkpt lat="49.38339" lon="5.84511">
        <ele>279.39999389648</ele>
        <time>2023-06-23T09:39:28Z</time>
      </trkpt>
      <trkpt lat="49.38347" lon="5.84493">
        <ele>279.39999389648</ele>
        <time>2023-06-23T09:39:30Z</time>
      </trkpt>
      <trkpt lat="49.38355" lon="5.84476">
        <ele>279.39999389648</ele>
        <time>2023-06-23T09:39:32Z</time>
      </trkpt>
      <trkpt lat="49.38362" lon="5.84459">
        <ele>279</ele>
        <time>2023-06-23T09:39:34Z</time>
      </trkpt>
      <trkpt lat="49.38368" lon="5.84442">
        <ele>278.60000610352</ele>
        <time>2023-06-23T09:39:36Z</time>
      </trkpt>
      <trkpt lat="49.38373" lon="5.84425">
        <ele>278</ele>
        <time>2023-06-23T09:39:38Z</time>
      </trkpt>
      <trkpt lat="49.38375" lon="5.84417">
        <ele>277.79998779297</ele>
        <time>2023-06-23T09:39:39Z</time>
      </trkpt>
      <trkpt lat="49.38377" lon="5.84409">
        <ele>277.79998779297</ele>
        <time>2023-06-23T09:39:40Z</time>
      </trkpt>
      <trkpt lat="49.38381" lon="5.84396">
        <ele>277.39999389648</ele>
        <time>2023-06-23T09:39:42Z</time>
      </trkpt>
      <trkpt lat="49.38384" lon="5.84383">
        <ele>277.20001220703</ele>
        <time>2023-06-23T09:39:44Z</time>
      </trkpt>
      <trkpt lat="49.38386" lon="5.84372">
        <ele>276.79998779297</ele>
        <time>2023-06-23T09:39:46Z</time>
      </trkpt>
      <trkpt lat="49.38389" lon="5.8436">
        <ele>276.60000610352</ele>
        <time>2023-06-23T09:39:48Z</time>
      </trkpt>
      <trkpt lat="49.3839" lon="5.84354">
        <ele>276.60000610352</ele>
        <time>2023-06-23T09:39:49Z</time>
      </trkpt>
      <trkpt lat="49.38391" lon="5.84348">
        <ele>276.39999389648</ele>
        <time>2023-06-23T09:39:50Z</time>
      </trkpt>
      <trkpt lat="49.38392" lon="5.84336">
        <ele>276.20001220703</ele>
        <time>2023-06-23T09:39:52Z</time>
      </trkpt>
      <trkpt lat="49.38394" lon="5.84324">
        <ele>276.20001220703</ele>
        <time>2023-06-23T09:39:54Z</time>
      </trkpt>
      <trkpt lat="49.38395" lon="5.84318">
        <ele>276.20001220703</ele>
        <time>2023-06-23T09:39:55Z</time>
      </trkpt>
      <trkpt lat="49.38397" lon="5.84312">
        <ele>276.20001220703</ele>
        <time>2023-06-23T09:39:56Z</time>
      </trkpt>
      <trkpt lat="49.38402" lon="5.843">
        <ele>276</ele>
        <time>2023-06-23T09:39:58Z</time>
      </trkpt>
      <trkpt lat="49.38408" lon="5.84287">
        <ele>276</ele>
        <time>2023-06-23T09:40:00Z</time>
      </trkpt>
      <trkpt lat="49.38411" lon="5.84275">
        <ele>275.79998779297</ele>
        <time>2023-06-23T09:40:02Z</time>
      </trkpt>
      <trkpt lat="49.38415" lon="5.84265">
        <ele>275.20001220703</ele>
        <time>2023-06-23T09:40:04Z</time>
      </trkpt>
      <trkpt lat="49.38417" lon="5.8426">
        <ele>275.20001220703</ele>
        <time>2023-06-23T09:40:05Z</time>
      </trkpt>
      <trkpt lat="49.3842" lon="5.84256">
        <ele>275</ele>
        <time>2023-06-23T09:40:06Z</time>
      </trkpt>
      <trkpt lat="49.38426" lon="5.84247">
        <ele>275</ele>
        <time>2023-06-23T09:40:08Z</time>
      </trkpt>
      <trkpt lat="49.38431" lon="5.84239">
        <ele>275</ele>
        <time>2023-06-23T09:40:10Z</time>
      </trkpt>
      <trkpt lat="49.38436" lon="5.84229">
        <ele>274.79998779297</ele>
        <time>2023-06-23T09:40:12Z</time>
      </trkpt>
      <trkpt lat="49.38441" lon="5.84222">
        <ele>274.79998779297</ele>
        <time>2023-06-23T09:40:14Z</time>
      </trkpt>
      <trkpt lat="49.38449" lon="5.84214">
        <ele>274.79998779297</ele>
        <time>2023-06-23T09:40:16Z</time>
      </trkpt>
      <trkpt lat="49.38457" lon="5.84206">
        <ele>274.39999389648</ele>
        <time>2023-06-23T09:40:18Z</time>
      </trkpt>
      <trkpt lat="49.38466" lon="5.84198">
        <ele>274.20001220703</ele>
        <time>2023-06-23T09:40:20Z</time>
      </trkpt>
      <trkpt lat="49.38475" lon="5.84189">
        <ele>274.20001220703</ele>
        <time>2023-06-23T09:40:22Z</time>
      </trkpt>
      <trkpt lat="49.3848" lon="5.84187">
        <ele>274</ele>
        <time>2023-06-23T09:40:23Z</time>
      </trkpt>
      <trkpt lat="49.38485" lon="5.84183">
        <ele>274</ele>
        <time>2023-06-23T09:40:24Z</time>
      </trkpt>
      <trkpt lat="49.38493" lon="5.84178">
        <ele>273.79998779297</ele>
        <time>2023-06-23T09:40:26Z</time>
      </trkpt>
      <trkpt lat="49.38494" lon="5.84176">
        <ele>273.79998779297</ele>
        <time>2023-06-23T09:40:27Z</time>
      </trkpt>
      <trkpt lat="49.38494" lon="5.84175">
        <ele>273.79998779297</ele>
        <time>2023-06-23T09:40:28Z</time>
      </trkpt>
      <trkpt lat="49.38494" lon="5.84172">
        <ele>273.79998779297</ele>
        <time>2023-06-23T09:40:30Z</time>
      </trkpt>
      <trkpt lat="49.38495" lon="5.8417">
        <ele>273.79998779297</ele>
        <time>2023-06-23T09:40:32Z</time>
      </trkpt>
      <trkpt lat="49.38495" lon="5.84166">
        <ele>273.79998779297</ele>
        <time>2023-06-23T09:40:34Z</time>
      </trkpt>
      <trkpt lat="49.38495" lon="5.84165">
        <ele>273.79998779297</ele>
        <time>2023-06-23T09:40:36Z</time>
      </trkpt>
      <trkpt lat="49.38495" lon="5.84165">
        <ele>273.79998779297</ele>
        <time>2023-06-23T09:40:38Z</time>
      </trkpt>
      <trkpt lat="49.38495" lon="5.84164">
        <ele>273.79998779297</ele>
        <time>2023-06-23T09:40:40Z</time>
      </trkpt>
      <trkpt lat="49.38495" lon="5.84163">
        <ele>273.79998779297</ele>
        <time>2023-06-23T09:40:42Z</time>
      </trkpt>
      <trkpt lat="49.38495" lon="5.84163">
        <ele>273.79998779297</ele>
        <time>2023-06-23T09:40:44Z</time>
      </trkpt>
      <trkpt lat="49.38495" lon="5.84163">
        <ele>273.79998779297</ele>
        <time>2023-06-23T09:40:46Z</time>
      </trkpt>
      <trkpt lat="49.38495" lon="5.84163">
        <ele>273.79998779297</ele>
        <time>2023-06-23T09:40:48Z</time>
      </trkpt>
      <trkpt lat="49.38495" lon="5.84163">
        <ele>273.79998779297</ele>
        <time>2023-06-23T09:40:50Z</time>
      </trkpt>
      <trkpt lat="49.38495" lon="5.84163">
        <ele>273.79998779297</ele>
        <time>2023-06-23T09:40:52Z</time>
      </trkpt>
      <trkpt lat="49.38495" lon="5.84163">
        <ele>273.79998779297</ele>
        <time>2023-06-23T09:40:54Z</time>
      </trkpt>
      <trkpt lat="49.38495" lon="5.84163">
        <ele>273.79998779297</ele>
        <time>2023-06-23T09:40:56Z</time>
      </trkpt>
      <trkpt lat="49.38495" lon="5.84163">
        <ele>273.79998779297</ele>
        <time>2023-06-23T09:40:58Z</time>
      </trkpt>
      <trkpt lat="49.38495" lon="5.84163">
        <ele>273.79998779297</ele>
        <time>2023-06-23T09:41:00Z</time>
      </trkpt>
      <trkpt lat="49.38495" lon="5.84162">
        <ele>273.79998779297</ele>
        <time>2023-06-23T09:41:02Z</time>
      </trkpt>
      <trkpt lat="49.38496" lon="5.84162">
        <ele>273.79998779297</ele>
        <time>2023-06-23T09:41:03Z</time>
      </trkpt>
      <trkpt lat="49.38497" lon="5.8416">
        <ele>273.79998779297</ele>
        <time>2023-06-23T09:41:04Z</time>
      </trkpt>
      <trkpt lat="49.385" lon="5.84158">
        <ele>273.79998779297</ele>
        <time>2023-06-23T09:41:06Z</time>
      </trkpt>
      <trkpt lat="49.38503" lon="5.84155">
        <ele>273.79998779297</ele>
        <time>2023-06-23T09:41:08Z</time>
      </trkpt>
      <trkpt lat="49.38506" lon="5.84153">
        <ele>273.79998779297</ele>
        <time>2023-06-23T09:41:10Z</time>
      </trkpt>
      <trkpt lat="49.38509" lon="5.8415">
        <ele>273.79998779297</ele>
        <time>2023-06-23T09:41:12Z</time>
      </trkpt>
      <trkpt lat="49.38512" lon="5.84147">
        <ele>273.60000610352</ele>
        <time>2023-06-23T09:41:14Z</time>
      </trkpt>
      <trkpt lat="49.38515" lon="5.84144">
        <ele>273.60000610352</ele>
        <time>2023-06-23T09:41:16Z</time>
      </trkpt>
      <trkpt lat="49.38517" lon="5.84142">
        <ele>273.39999389648</ele>
        <time>2023-06-23T09:41:17Z</time>
      </trkpt>
      <trkpt lat="49.38518" lon="5.84139">
        <ele>273.39999389648</ele>
        <time>2023-06-23T09:41:18Z</time>
      </trkpt>
      <trkpt lat="49.3852" lon="5.84137">
        <ele>273.20001220703</ele>
        <time>2023-06-23T09:41:19Z</time>
      </trkpt>
      <trkpt lat="49.38522" lon="5.84135">
        <ele>273.20001220703</ele>
        <time>2023-06-23T09:41:20Z</time>
      </trkpt>
      <trkpt lat="49.38525" lon="5.84132">
        <ele>273.20001220703</ele>
        <time>2023-06-23T09:41:22Z</time>
      </trkpt>
      <trkpt lat="49.38526" lon="5.84131">
        <ele>273.20001220703</ele>
        <time>2023-06-23T09:41:23Z</time>
      </trkpt>
      <trkpt lat="49.38528" lon="5.84129">
        <ele>273.20001220703</ele>
        <time>2023-06-23T09:41:24Z</time>
      </trkpt>
      <trkpt lat="49.38529" lon="5.84126">
        <ele>273.20001220703</ele>
        <time>2023-06-23T09:41:26Z</time>
      </trkpt>
      <trkpt lat="49.3853" lon="5.84124">
        <ele>273.20001220703</ele>
        <time>2023-06-23T09:41:28Z</time>
      </trkpt>
      <trkpt lat="49.3853" lon="5.84123">
        <ele>273.20001220703</ele>
        <time>2023-06-23T09:41:29Z</time>
      </trkpt>
      <trkpt lat="49.38531" lon="5.84122">
        <ele>273.20001220703</ele>
        <time>2023-06-23T09:41:30Z</time>
      </trkpt>
      <trkpt lat="49.38531" lon="5.84122">
        <ele>273.20001220703</ele>
        <time>2023-06-23T09:41:32Z</time>
      </trkpt>
      <trkpt lat="49.38531" lon="5.84122">
        <ele>273.20001220703</ele>
        <time>2023-06-23T09:41:34Z</time>
      </trkpt>
      <trkpt lat="49.38531" lon="5.84122">
        <ele>273.20001220703</ele>
        <time>2023-06-23T09:41:36Z</time>
      </trkpt>
      <trkpt lat="49.38531" lon="5.84122">
        <ele>273.20001220703</ele>
        <time>2023-06-23T09:41:38Z</time>
      </trkpt>
      <trkpt lat="49.38531" lon="5.84122">
        <ele>273.20001220703</ele>
        <time>2023-06-23T09:41:40Z</time>
      </trkpt>
      <trkpt lat="49.38531" lon="5.84122">
        <ele>273.39999389648</ele>
        <time>2023-06-23T09:41:42Z</time>
      </trkpt>
      <trkpt lat="49.38531" lon="5.84122">
        <ele>273.39999389648</ele>
        <time>2023-06-23T09:41:44Z</time>
      </trkpt>
      <trkpt lat="49.38531" lon="5.84121">
        <ele>273.39999389648</ele>
        <time>2023-06-23T09:41:46Z</time>
      </trkpt>
      <trkpt lat="49.38531" lon="5.84121">
        <ele>273.39999389648</ele>
        <time>2023-06-23T09:41:48Z</time>
      </trkpt>
      <trkpt lat="49.38531" lon="5.84121">
        <ele>273.39999389648</ele>
        <time>2023-06-23T09:41:49Z</time>
      </trkpt>
      <trkpt lat="49.38532" lon="5.84121">
        <ele>273.39999389648</ele>
        <time>2023-06-23T09:41:50Z</time>
      </trkpt>
      <trkpt lat="49.38533" lon="5.84119">
        <ele>273.39999389648</ele>
        <time>2023-06-23T09:41:52Z</time>
      </trkpt>
      <trkpt lat="49.38535" lon="5.84117">
        <ele>273.39999389648</ele>
        <time>2023-06-23T09:41:54Z</time>
      </trkpt>
      <trkpt lat="49.38539" lon="5.84114">
        <ele>273.39999389648</ele>
        <time>2023-06-23T09:41:56Z</time>
      </trkpt>
      <trkpt lat="49.38542" lon="5.84111">
        <ele>273.39999389648</ele>
        <time>2023-06-23T09:41:58Z</time>
      </trkpt>
      <trkpt lat="49.38548" lon="5.84108">
        <ele>273.20001220703</ele>
        <time>2023-06-23T09:42:00Z</time>
      </trkpt>
      <trkpt lat="49.38551" lon="5.84106">
        <ele>273.20001220703</ele>
        <time>2023-06-23T09:42:01Z</time>
      </trkpt>
      <trkpt lat="49.38554" lon="5.84105">
        <ele>273.20001220703</ele>
        <time>2023-06-23T09:42:02Z</time>
      </trkpt>
      <trkpt lat="49.38561" lon="5.841">
        <ele>273.20001220703</ele>
        <time>2023-06-23T09:42:04Z</time>
      </trkpt>
      <trkpt lat="49.38568" lon="5.84096">
        <ele>273</ele>
        <time>2023-06-23T09:42:06Z</time>
      </trkpt>
      <trkpt lat="49.38574" lon="5.8409">
        <ele>272.79998779297</ele>
        <time>2023-06-23T09:42:08Z</time>
      </trkpt>
      <trkpt lat="49.3858" lon="5.84085">
        <ele>272.60000610352</ele>
        <time>2023-06-23T09:42:10Z</time>
      </trkpt>
      <trkpt lat="49.38585" lon="5.84081">
        <ele>272.20001220703</ele>
        <time>2023-06-23T09:42:12Z</time>
      </trkpt>
      <trkpt lat="49.38588" lon="5.84077">
        <ele>272.20001220703</ele>
        <time>2023-06-23T09:42:13Z</time>
      </trkpt>
      <trkpt lat="49.38591" lon="5.84073">
        <ele>272.39999389648</ele>
        <time>2023-06-23T09:42:14Z</time>
      </trkpt>
      <trkpt lat="49.38597" lon="5.84064">
        <ele>272</ele>
        <time>2023-06-23T09:42:16Z</time>
      </trkpt>
      <trkpt lat="49.38604" lon="5.84054">
        <ele>272.20001220703</ele>
        <time>2023-06-23T09:42:18Z</time>
      </trkpt>
      <trkpt lat="49.38611" lon="5.84044">
        <ele>272.20001220703</ele>
        <time>2023-06-23T09:42:20Z</time>
      </trkpt>
      <trkpt lat="49.38618" lon="5.84032">
        <ele>272.20001220703</ele>
        <time>2023-06-23T09:42:22Z</time>
      </trkpt>
      <trkpt lat="49.38624" lon="5.84021">
        <ele>272</ele>
        <time>2023-06-23T09:42:24Z</time>
      </trkpt>
      <trkpt lat="49.38627" lon="5.84016">
        <ele>271.79998779297</ele>
        <time>2023-06-23T09:42:25Z</time>
      </trkpt>
      <trkpt lat="49.3863" lon="5.84011">
        <ele>271.60000610352</ele>
        <time>2023-06-23T09:42:26Z</time>
      </trkpt>
      <trkpt lat="49.38634" lon="5.84006">
        <ele>271.60000610352</ele>
        <time>2023-06-23T09:42:27Z</time>
      </trkpt>
      <trkpt lat="49.38637" lon="5.84001">
        <ele>271.20001220703</ele>
        <time>2023-06-23T09:42:28Z</time>
      </trkpt>
      <trkpt lat="49.38642" lon="5.83989">
        <ele>271</ele>
        <time>2023-06-23T09:42:30Z</time>
      </trkpt>
      <trkpt lat="49.38647" lon="5.83977">
        <ele>271</ele>
        <time>2023-06-23T09:42:32Z</time>
      </trkpt>
      <trkpt lat="49.38651" lon="5.83965">
        <ele>270.79998779297</ele>
        <time>2023-06-23T09:42:34Z</time>
      </trkpt>
      <trkpt lat="49.38655" lon="5.83954">
        <ele>270.79998779297</ele>
        <time>2023-06-23T09:42:36Z</time>
      </trkpt>
      <trkpt lat="49.38658" lon="5.83943">
        <ele>270.79998779297</ele>
        <time>2023-06-23T09:42:38Z</time>
      </trkpt>
      <trkpt lat="49.38661" lon="5.83932">
        <ele>270.79998779297</ele>
        <time>2023-06-23T09:42:40Z</time>
      </trkpt>
      <trkpt lat="49.38664" lon="5.83921">
        <ele>270.79998779297</ele>
        <time>2023-06-23T09:42:42Z</time>
      </trkpt>
      <trkpt lat="49.38666" lon="5.83915">
        <ele>271</ele>
        <time>2023-06-23T09:42:43Z</time>
      </trkpt>
      <trkpt lat="49.38667" lon="5.83909">
        <ele>271.20001220703</ele>
        <time>2023-06-23T09:42:44Z</time>
      </trkpt>
      <trkpt lat="49.3867" lon="5.83898">
        <ele>271.20001220703</ele>
        <time>2023-06-23T09:42:46Z</time>
      </trkpt>
      <trkpt lat="49.38672" lon="5.83887">
        <ele>271.39999389648</ele>
        <time>2023-06-23T09:42:48Z</time>
      </trkpt>
      <trkpt lat="49.38673" lon="5.83882">
        <ele>271.60000610352</ele>
        <time>2023-06-23T09:42:49Z</time>
      </trkpt>
      <trkpt lat="49.38674" lon="5.83877">
        <ele>271.60000610352</ele>
        <time>2023-06-23T09:42:50Z</time>
      </trkpt>
      <trkpt lat="49.38677" lon="5.83867">
        <ele>271.79998779297</ele>
        <time>2023-06-23T09:42:52Z</time>
      </trkpt>
      <trkpt lat="49.3868" lon="5.83859">
        <ele>271.79998779297</ele>
        <time>2023-06-23T09:42:54Z</time>
      </trkpt>
      <trkpt lat="49.38682" lon="5.83855">
        <ele>272</ele>
        <time>2023-06-23T09:42:55Z</time>
      </trkpt>
      <trkpt lat="49.38683" lon="5.83851">
        <ele>272</ele>
        <time>2023-06-23T09:42:56Z</time>
      </trkpt>
      <trkpt lat="49.38685" lon="5.83847">
        <ele>272</ele>
        <time>2023-06-23T09:42:57Z</time>
      </trkpt>
      <trkpt lat="49.38687" lon="5.83843">
        <ele>272</ele>
        <time>2023-06-23T09:42:58Z</time>
      </trkpt>
      <trkpt lat="49.38691" lon="5.83836">
        <ele>272.20001220703</ele>
        <time>2023-06-23T09:43:00Z</time>
      </trkpt>
      <trkpt lat="49.38694" lon="5.8383">
        <ele>272.20001220703</ele>
        <time>2023-06-23T09:43:02Z</time>
      </trkpt>
      <trkpt lat="49.38696" lon="5.83823">
        <ele>272.60000610352</ele>
        <time>2023-06-23T09:43:04Z</time>
      </trkpt>
      <trkpt lat="49.38698" lon="5.83818">
        <ele>273</ele>
        <time>2023-06-23T09:43:06Z</time>
      </trkpt>
      <trkpt lat="49.38699" lon="5.83814">
        <ele>273.20001220703</ele>
        <time>2023-06-23T09:43:07Z</time>
      </trkpt>
      <trkpt lat="49.38699" lon="5.83809">
        <ele>273.20001220703</ele>
        <time>2023-06-23T09:43:08Z</time>
      </trkpt>
      <trkpt lat="49.38699" lon="5.83805">
        <ele>273.20001220703</ele>
        <time>2023-06-23T09:43:09Z</time>
      </trkpt>
      <trkpt lat="49.38698" lon="5.83803">
        <ele>273.20001220703</ele>
        <time>2023-06-23T09:43:10Z</time>
      </trkpt>
      <trkpt lat="49.38697" lon="5.83799">
        <ele>273.20001220703</ele>
        <time>2023-06-23T09:43:11Z</time>
      </trkpt>
      <trkpt lat="49.38695" lon="5.83796">
        <ele>273.20001220703</ele>
        <time>2023-06-23T09:43:12Z</time>
      </trkpt>
      <trkpt lat="49.38689" lon="5.83789">
        <ele>273.20001220703</ele>
        <time>2023-06-23T09:43:14Z</time>
      </trkpt>
      <trkpt lat="49.38682" lon="5.83781">
        <ele>273.20001220703</ele>
        <time>2023-06-23T09:43:16Z</time>
      </trkpt>
      <trkpt lat="49.38675" lon="5.83774">
        <ele>273.20001220703</ele>
        <time>2023-06-23T09:43:18Z</time>
      </trkpt>
      <trkpt lat="49.38668" lon="5.83768">
        <ele>273</ele>
        <time>2023-06-23T09:43:20Z</time>
      </trkpt>
      <trkpt lat="49.38663" lon="5.8376">
        <ele>272.79998779297</ele>
        <time>2023-06-23T09:43:22Z</time>
      </trkpt>
      <trkpt lat="49.38661" lon="5.83757">
        <ele>273</ele>
        <time>2023-06-23T09:43:23Z</time>
      </trkpt>
      <trkpt lat="49.38661" lon="5.83754">
        <ele>272.79998779297</ele>
        <time>2023-06-23T09:43:24Z</time>
      </trkpt>
      <trkpt lat="49.38661" lon="5.83751">
        <ele>272.79998779297</ele>
        <time>2023-06-23T09:43:25Z</time>
      </trkpt>
      <trkpt lat="49.38661" lon="5.83748">
        <ele>272.79998779297</ele>
        <time>2023-06-23T09:43:26Z</time>
      </trkpt>
      <trkpt lat="49.38661" lon="5.83743">
        <ele>272.79998779297</ele>
        <time>2023-06-23T09:43:27Z</time>
      </trkpt>
      <trkpt lat="49.38662" lon="5.83739">
        <ele>272.79998779297</ele>
        <time>2023-06-23T09:43:28Z</time>
      </trkpt>
      <trkpt lat="49.38664" lon="5.83731">
        <ele>273.20001220703</ele>
        <time>2023-06-23T09:43:30Z</time>
      </trkpt>
      <trkpt lat="49.38668" lon="5.83724">
        <ele>273.60000610352</ele>
        <time>2023-06-23T09:43:32Z</time>
      </trkpt>
      <trkpt lat="49.38671" lon="5.83717">
        <ele>273.79998779297</ele>
        <time>2023-06-23T09:43:34Z</time>
      </trkpt>
      <trkpt lat="49.38674" lon="5.8371">
        <ele>274</ele>
        <time>2023-06-23T09:43:36Z</time>
      </trkpt>
      <trkpt lat="49.38675" lon="5.83707">
        <ele>274</ele>
        <time>2023-06-23T09:43:37Z</time>
      </trkpt>
      <trkpt lat="49.38675" lon="5.83704">
        <ele>274</ele>
        <time>2023-06-23T09:43:38Z</time>
      </trkpt>
      <trkpt lat="49.38679" lon="5.83696">
        <ele>274.20001220703</ele>
        <time>2023-06-23T09:43:40Z</time>
      </trkpt>
      <trkpt lat="49.38682" lon="5.83688">
        <ele>274.20001220703</ele>
        <time>2023-06-23T09:43:42Z</time>
      </trkpt>
      <trkpt lat="49.38683" lon="5.83685">
        <ele>274.39999389648</ele>
        <time>2023-06-23T09:43:43Z</time>
      </trkpt>
      <trkpt lat="49.38684" lon="5.83682">
        <ele>274.60000610352</ele>
        <time>2023-06-23T09:43:44Z</time>
      </trkpt>
      <trkpt lat="49.38687" lon="5.83674">
        <ele>275</ele>
        <time>2023-06-23T09:43:46Z</time>
      </trkpt>
      <trkpt lat="49.38688" lon="5.83671">
        <ele>275</ele>
        <time>2023-06-23T09:43:47Z</time>
      </trkpt>
      <trkpt lat="49.3869" lon="5.83668">
        <ele>275.39999389648</ele>
        <time>2023-06-23T09:43:48Z</time>
      </trkpt>
      <trkpt lat="49.38693" lon="5.83662">
        <ele>276</ele>
        <time>2023-06-23T09:43:50Z</time>
      </trkpt>
      <trkpt lat="49.38694" lon="5.8366">
        <ele>276.39999389648</ele>
        <time>2023-06-23T09:43:51Z</time>
      </trkpt>
      <trkpt lat="49.38695" lon="5.83657">
        <ele>276.60000610352</ele>
        <time>2023-06-23T09:43:52Z</time>
      </trkpt>
      <trkpt lat="49.38698" lon="5.83652">
        <ele>277.20001220703</ele>
        <time>2023-06-23T09:43:54Z</time>
      </trkpt>
      <trkpt lat="49.387" lon="5.8365">
        <ele>277.39999389648</ele>
        <time>2023-06-23T09:43:55Z</time>
      </trkpt>
      <trkpt lat="49.38701" lon="5.83647">
        <ele>277.60000610352</ele>
        <time>2023-06-23T09:43:56Z</time>
      </trkpt>
      <trkpt lat="49.38706" lon="5.83641">
        <ele>278.60000610352</ele>
        <time>2023-06-23T09:43:58Z</time>
      </trkpt>
      <trkpt lat="49.38711" lon="5.83636">
        <ele>279</ele>
        <time>2023-06-23T09:44:00Z</time>
      </trkpt>
      <trkpt lat="49.38714" lon="5.83631">
        <ele>279.39999389648</ele>
        <time>2023-06-23T09:44:02Z</time>
      </trkpt>
      <trkpt lat="49.38715" lon="5.83628">
        <ele>279.60000610352</ele>
        <time>2023-06-23T09:44:03Z</time>
      </trkpt>
      <trkpt lat="49.38717" lon="5.83626">
        <ele>279.79998779297</ele>
        <time>2023-06-23T09:44:04Z</time>
      </trkpt>
      <trkpt lat="49.38719" lon="5.83619">
        <ele>280.39999389648</ele>
        <time>2023-06-23T09:44:06Z</time>
      </trkpt>
      <trkpt lat="49.38719" lon="5.83616">
        <ele>280.79998779297</ele>
        <time>2023-06-23T09:44:07Z</time>
      </trkpt>
      <trkpt lat="49.3872" lon="5.83612">
        <ele>281</ele>
        <time>2023-06-23T09:44:08Z</time>
      </trkpt>
      <trkpt lat="49.3872" lon="5.83609">
        <ele>281</ele>
        <time>2023-06-23T09:44:09Z</time>
      </trkpt>
      <trkpt lat="49.38721" lon="5.83606">
        <ele>281.39999389648</ele>
        <time>2023-06-23T09:44:10Z</time>
      </trkpt>
      <trkpt lat="49.38722" lon="5.83601">
        <ele>282</ele>
        <time>2023-06-23T09:44:12Z</time>
      </trkpt>
      <trkpt lat="49.38722" lon="5.83595">
        <ele>282.60000610352</ele>
        <time>2023-06-23T09:44:14Z</time>
      </trkpt>
      <trkpt lat="49.38722" lon="5.83593">
        <ele>282.79998779297</ele>
        <time>2023-06-23T09:44:15Z</time>
      </trkpt>
      <trkpt lat="49.38722" lon="5.83591">
        <ele>283.20001220703</ele>
        <time>2023-06-23T09:44:16Z</time>
      </trkpt>
      <trkpt lat="49.3872" lon="5.83588">
        <ele>283.79998779297</ele>
        <time>2023-06-23T09:44:18Z</time>
      </trkpt>
      <trkpt lat="49.3872" lon="5.83584">
        <ele>284.60000610352</ele>
        <time>2023-06-23T09:44:20Z</time>
      </trkpt>
      <trkpt lat="49.38719" lon="5.83581">
        <ele>285.20001220703</ele>
        <time>2023-06-23T09:44:22Z</time>
      </trkpt>
      <trkpt lat="49.38719" lon="5.8358">
        <ele>285.39999389648</ele>
        <time>2023-06-23T09:44:23Z</time>
      </trkpt>
      <trkpt lat="49.38718" lon="5.83578">
        <ele>285.79998779297</ele>
        <time>2023-06-23T09:44:24Z</time>
      </trkpt>
      <trkpt lat="49.38717" lon="5.83575">
        <ele>286.20001220703</ele>
        <time>2023-06-23T09:44:26Z</time>
      </trkpt>
      <trkpt lat="49.38716" lon="5.83574">
        <ele>286.39999389648</ele>
        <time>2023-06-23T09:44:28Z</time>
      </trkpt>
      <trkpt lat="49.38716" lon="5.83573">
        <ele>286.60000610352</ele>
        <time>2023-06-23T09:44:30Z</time>
      </trkpt>
      <trkpt lat="49.38715" lon="5.83571">
        <ele>286.60000610352</ele>
        <time>2023-06-23T09:44:32Z</time>
      </trkpt>
      <trkpt lat="49.38714" lon="5.83571">
        <ele>286.60000610352</ele>
        <time>2023-06-23T09:44:34Z</time>
      </trkpt>
      <trkpt lat="49.38714" lon="5.8357">
        <ele>286.79998779297</ele>
        <time>2023-06-23T09:44:36Z</time>
      </trkpt>
      <trkpt lat="49.38714" lon="5.83569">
        <ele>286.79998779297</ele>
        <time>2023-06-23T09:44:38Z</time>
      </trkpt>
      <trkpt lat="49.38714" lon="5.83569">
        <ele>286.79998779297</ele>
        <time>2023-06-23T09:44:40Z</time>
      </trkpt>
      <trkpt lat="49.38714" lon="5.83569">
        <ele>286.79998779297</ele>
        <time>2023-06-23T09:44:42Z</time>
      </trkpt>
      <trkpt lat="49.38714" lon="5.83569">
        <ele>286.79998779297</ele>
        <time>2023-06-23T09:44:44Z</time>
      </trkpt>
      <trkpt lat="49.38714" lon="5.83569">
        <ele>286.79998779297</ele>
        <time>2023-06-23T09:44:46Z</time>
      </trkpt>
      <trkpt lat="49.38714" lon="5.83569">
        <ele>286.79998779297</ele>
        <time>2023-06-23T09:44:48Z</time>
      </trkpt>
      <trkpt lat="49.38714" lon="5.83569">
        <ele>286.79998779297</ele>
        <time>2023-06-23T09:44:50Z</time>
      </trkpt>
      <trkpt lat="49.38714" lon="5.83569">
        <ele>286.79998779297</ele>
        <time>2023-06-23T09:44:52Z</time>
      </trkpt>
      <trkpt lat="49.38714" lon="5.83569">
        <ele>286.79998779297</ele>
        <time>2023-06-23T09:44:54Z</time>
      </trkpt>
      <trkpt lat="49.38714" lon="5.83569">
        <ele>286.79998779297</ele>
        <time>2023-06-23T09:44:56Z</time>
      </trkpt>
      <trkpt lat="49.38714" lon="5.83569">
        <ele>286.79998779297</ele>
        <time>2023-06-23T09:44:58Z</time>
      </trkpt>
      <trkpt lat="49.38714" lon="5.83569">
        <ele>286.79998779297</ele>
        <time>2023-06-23T09:45:00Z</time>
      </trkpt>
      <trkpt lat="49.38714" lon="5.83569">
        <ele>286.79998779297</ele>
        <time>2023-06-23T09:45:02Z</time>
      </trkpt>
      <trkpt lat="49.38714" lon="5.83569">
        <ele>286.79998779297</ele>
        <time>2023-06-23T09:45:04Z</time>
      </trkpt>
      <trkpt lat="49.38714" lon="5.83569">
        <ele>286.79998779297</ele>
        <time>2023-06-23T09:45:06Z</time>
      </trkpt>
      <trkpt lat="49.38714" lon="5.83569">
        <ele>286.79998779297</ele>
        <time>2023-06-23T09:45:08Z</time>
      </trkpt>
      <trkpt lat="49.38714" lon="5.83569">
        <ele>286.79998779297</ele>
        <time>2023-06-23T09:45:10Z</time>
      </trkpt>
      <trkpt lat="49.38714" lon="5.83569">
        <ele>286.79998779297</ele>
        <time>2023-06-23T09:45:11Z</time>
      </trkpt>
      <trkpt lat="49.38714" lon="5.83569">
        <ele>286.79998779297</ele>
        <time>2023-06-23T09:45:12Z</time>
      </trkpt>
      <trkpt lat="49.38714" lon="5.83569">
        <ele>286.79998779297</ele>
        <time>2023-06-23T09:45:14Z</time>
      </trkpt>
      <trkpt lat="49.38714" lon="5.83569">
        <ele>286.79998779297</ele>
        <time>2023-06-23T09:45:16Z</time>
      </trkpt>
      <trkpt lat="49.38714" lon="5.83569">
        <ele>286.79998779297</ele>
        <time>2023-06-23T09:45:18Z</time>
      </trkpt>
      <trkpt lat="49.38714" lon="5.83569">
        <ele>286.79998779297</ele>
        <time>2023-06-23T09:45:20Z</time>
      </trkpt>
      <trkpt lat="49.38714" lon="5.83569">
        <ele>286.79998779297</ele>
        <time>2023-06-23T09:45:21Z</time>
      </trkpt>
      <trkpt lat="49.38714" lon="5.83569">
        <ele>286.79998779297</ele>
        <time>2023-06-23T09:45:22Z</time>
      </trkpt>
      <trkpt lat="49.38714" lon="5.83569">
        <ele>286.79998779297</ele>
        <time>2023-06-23T09:45:24Z</time>
      </trkpt>
      <trkpt lat="49.38714" lon="5.83569">
        <ele>286.79998779297</ele>
        <time>2023-06-23T09:45:26Z</time>
      </trkpt>
      <trkpt lat="49.38714" lon="5.83569">
        <ele>286.79998779297</ele>
        <time>2023-06-23T09:45:28Z</time>
      </trkpt>
      <trkpt lat="49.38714" lon="5.83569">
        <ele>286.60000610352</ele>
        <time>2023-06-23T09:45:30Z</time>
      </trkpt>
      <trkpt lat="49.38714" lon="5.83569">
        <ele>286.60000610352</ele>
        <time>2023-06-23T09:45:32Z</time>
      </trkpt>
      <trkpt lat="49.38714" lon="5.83569">
        <ele>286.60000610352</ele>
        <time>2023-06-23T09:45:34Z</time>
      </trkpt>
      <trkpt lat="49.38714" lon="5.83569">
        <ele>286.60000610352</ele>
        <time>2023-06-23T09:45:36Z</time>
      </trkpt>
      <trkpt lat="49.38714" lon="5.83569">
        <ele>286.60000610352</ele>
        <time>2023-06-23T09:45:38Z</time>
      </trkpt>
      <trkpt lat="49.38714" lon="5.83569">
        <ele>286.60000610352</ele>
        <time>2023-06-23T09:45:40Z</time>
      </trkpt>
      <trkpt lat="49.38714" lon="5.83569">
        <ele>286.39999389648</ele>
        <time>2023-06-23T09:45:42Z</time>
      </trkpt>
      <trkpt lat="49.38714" lon="5.83569">
        <ele>286.39999389648</ele>
        <time>2023-06-23T09:45:44Z</time>
      </trkpt>
      <trkpt lat="49.38714" lon="5.83569">
        <ele>286.39999389648</ele>
        <time>2023-06-23T09:45:46Z</time>
      </trkpt>
      <trkpt lat="49.38714" lon="5.83569">
        <ele>286.39999389648</ele>
        <time>2023-06-23T09:45:48Z</time>
      </trkpt>
      <trkpt lat="49.38714" lon="5.83569">
        <ele>286.39999389648</ele>
        <time>2023-06-23T09:45:50Z</time>
      </trkpt>
      <trkpt lat="49.38714" lon="5.83569">
        <ele>286.39999389648</ele>
        <time>2023-06-23T09:45:52Z</time>
      </trkpt>
      <trkpt lat="49.38714" lon="5.83569">
        <ele>286.39999389648</ele>
        <time>2023-06-23T09:45:54Z</time>
      </trkpt>
      <trkpt lat="49.38714" lon="5.83569">
        <ele>286.60000610352</ele>
        <time>2023-06-23T09:45:56Z</time>
      </trkpt>
      <trkpt lat="49.38713" lon="5.83569">
        <ele>286.60000610352</ele>
        <time>2023-06-23T09:45:58Z</time>
      </trkpt>
      <trkpt lat="49.38713" lon="5.83569">
        <ele>286.60000610352</ele>
        <time>2023-06-23T09:45:59Z</time>
      </trkpt>
      <trkpt lat="49.38713" lon="5.83569">
        <ele>286.60000610352</ele>
        <time>2023-06-23T09:46:00Z</time>
      </trkpt>
      <trkpt lat="49.38713" lon="5.83569">
        <ele>286.60000610352</ele>
        <time>2023-06-23T09:46:02Z</time>
      </trkpt>
      <trkpt lat="49.38713" lon="5.83569">
        <ele>286.60000610352</ele>
        <time>2023-06-23T09:46:04Z</time>
      </trkpt>
      <trkpt lat="49.38713" lon="5.83569">
        <ele>286.60000610352</ele>
        <time>2023-06-23T09:46:05Z</time>
      </trkpt>
      <trkpt lat="49.38713" lon="5.83569">
        <ele>286.60000610352</ele>
        <time>2023-06-23T09:46:06Z</time>
      </trkpt>
      <trkpt lat="49.38713" lon="5.83569">
        <ele>286.60000610352</ele>
        <time>2023-06-23T09:46:08Z</time>
      </trkpt>
      <trkpt lat="49.38713" lon="5.83569">
        <ele>286.79998779297</ele>
        <time>2023-06-23T09:46:10Z</time>
      </trkpt>
      <trkpt lat="49.38713" lon="5.83569">
        <ele>286.79998779297</ele>
        <time>2023-06-23T09:46:12Z</time>
      </trkpt>
      <trkpt lat="49.38713" lon="5.83569">
        <ele>286.79998779297</ele>
        <time>2023-06-23T09:46:14Z</time>
      </trkpt>
      <trkpt lat="49.38713" lon="5.83568">
        <ele>286.79998779297</ele>
        <time>2023-06-23T09:46:16Z</time>
      </trkpt>
      <trkpt lat="49.38713" lon="5.83568">
        <ele>286.79998779297</ele>
        <time>2023-06-23T09:46:18Z</time>
      </trkpt>
      <trkpt lat="49.38713" lon="5.83568">
        <ele>287</ele>
        <time>2023-06-23T09:46:20Z</time>
      </trkpt>
      <trkpt lat="49.38713" lon="5.83568">
        <ele>287</ele>
        <time>2023-06-23T09:46:22Z</time>
      </trkpt>
      <trkpt lat="49.38712" lon="5.83566">
        <ele>287</ele>
        <time>2023-06-23T09:46:24Z</time>
      </trkpt>
      <trkpt lat="49.38711" lon="5.83563">
        <ele>287</ele>
        <time>2023-06-23T09:46:26Z</time>
      </trkpt>
      <trkpt lat="49.38709" lon="5.83561">
        <ele>287</ele>
        <time>2023-06-23T09:46:28Z</time>
      </trkpt>
      <trkpt lat="49.38707" lon="5.83558">
        <ele>287</ele>
        <time>2023-06-23T09:46:30Z</time>
      </trkpt>
      <trkpt lat="49.38706" lon="5.83556">
        <ele>286.79998779297</ele>
        <time>2023-06-23T09:46:32Z</time>
      </trkpt>
      <trkpt lat="49.38704" lon="5.83554">
        <ele>286.79998779297</ele>
        <time>2023-06-23T09:46:34Z</time>
      </trkpt>
      <trkpt lat="49.38702" lon="5.83552">
        <ele>287</ele>
        <time>2023-06-23T09:46:36Z</time>
      </trkpt>
      <trkpt lat="49.38702" lon="5.83551">
        <ele>287</ele>
        <time>2023-06-23T09:46:37Z</time>
      </trkpt>
      <trkpt lat="49.38701" lon="5.8355">
        <ele>287</ele>
        <time>2023-06-23T09:46:38Z</time>
      </trkpt>
      <trkpt lat="49.38699" lon="5.83549">
        <ele>287</ele>
        <time>2023-06-23T09:46:40Z</time>
      </trkpt>
      <trkpt lat="49.38697" lon="5.83547">
        <ele>287</ele>
        <time>2023-06-23T09:46:42Z</time>
      </trkpt>
      <trkpt lat="49.38695" lon="5.83545">
        <ele>287</ele>
        <time>2023-06-23T09:46:44Z</time>
      </trkpt>
      <trkpt lat="49.38694" lon="5.83545">
        <ele>287</ele>
        <time>2023-06-23T09:46:46Z</time>
      </trkpt>
      <trkpt lat="49.38694" lon="5.83545">
        <ele>287</ele>
        <time>2023-06-23T09:46:48Z</time>
      </trkpt>
      <trkpt lat="49.38694" lon="5.83545">
        <ele>287</ele>
        <time>2023-06-23T09:46:50Z</time>
      </trkpt>
      <trkpt lat="49.38694" lon="5.83545">
        <ele>287</ele>
        <time>2023-06-23T09:46:52Z</time>
      </trkpt>
      <trkpt lat="49.38694" lon="5.83545">
        <ele>287</ele>
        <time>2023-06-23T09:46:54Z</time>
      </trkpt>
      <trkpt lat="49.38694" lon="5.83545">
        <ele>286.60000610352</ele>
        <time>2023-06-23T09:46:56Z</time>
      </trkpt>
      <trkpt lat="49.38694" lon="5.83545">
        <ele>286.39999389648</ele>
        <time>2023-06-23T09:46:58Z</time>
      </trkpt>
      <trkpt lat="49.38694" lon="5.83545">
        <ele>286.39999389648</ele>
        <time>2023-06-23T09:47:00Z</time>
      </trkpt>
      <trkpt lat="49.38694" lon="5.83545">
        <ele>286.39999389648</ele>
        <time>2023-06-23T09:47:02Z</time>
      </trkpt>
      <trkpt lat="49.38693" lon="5.83545">
        <ele>286.39999389648</ele>
        <time>2023-06-23T09:47:04Z</time>
      </trkpt>
      <trkpt lat="49.38693" lon="5.83545">
        <ele>286.39999389648</ele>
        <time>2023-06-23T09:47:06Z</time>
      </trkpt>
      <trkpt lat="49.38693" lon="5.83545">
        <ele>286.39999389648</ele>
        <time>2023-06-23T09:47:08Z</time>
      </trkpt>
      <trkpt lat="49.38693" lon="5.83545">
        <ele>286.39999389648</ele>
        <time>2023-06-23T09:47:10Z</time>
      </trkpt>
      <trkpt lat="49.38693" lon="5.83545">
        <ele>286.39999389648</ele>
        <time>2023-06-23T09:47:11Z</time>
      </trkpt>
      <trkpt lat="49.38693" lon="5.83545">
        <ele>286.39999389648</ele>
        <time>2023-06-23T09:47:12Z</time>
      </trkpt>
      <trkpt lat="49.38693" lon="5.83545">
        <ele>286.39999389648</ele>
        <time>2023-06-23T09:47:14Z</time>
      </trkpt>
      <trkpt lat="49.38693" lon="5.83545">
        <ele>286.39999389648</ele>
        <time>2023-06-23T09:47:16Z</time>
      </trkpt>
      <trkpt lat="49.38693" lon="5.83545">
        <ele>286.39999389648</ele>
        <time>2023-06-23T09:47:18Z</time>
      </trkpt>
      <trkpt lat="49.38693" lon="5.83545">
        <ele>286.39999389648</ele>
        <time>2023-06-23T09:47:20Z</time>
      </trkpt>
      <trkpt lat="49.38693" lon="5.83545">
        <ele>286.39999389648</ele>
        <time>2023-06-23T09:47:22Z</time>
      </trkpt>
      <trkpt lat="49.38693" lon="5.83545">
        <ele>286.39999389648</ele>
        <time>2023-06-23T09:47:24Z</time>
      </trkpt>
      <trkpt lat="49.38693" lon="5.83545">
        <ele>286.39999389648</ele>
        <time>2023-06-23T09:47:26Z</time>
      </trkpt>
      <trkpt lat="49.38693" lon="5.83545">
        <ele>286.20001220703</ele>
        <time>2023-06-23T09:47:27Z</time>
      </trkpt>
      <trkpt lat="49.38693" lon="5.83545">
        <ele>286.20001220703</ele>
        <time>2023-06-23T09:47:28Z</time>
      </trkpt>
      <trkpt lat="49.38693" lon="5.83545">
        <ele>286.20001220703</ele>
        <time>2023-06-23T09:47:30Z</time>
      </trkpt>
      <trkpt lat="49.38693" lon="5.83545">
        <ele>286.20001220703</ele>
        <time>2023-06-23T09:47:32Z</time>
      </trkpt>
      <trkpt lat="49.38693" lon="5.83545">
        <ele>286.20001220703</ele>
        <time>2023-06-23T09:47:34Z</time>
      </trkpt>
      <trkpt lat="49.38693" lon="5.83545">
        <ele>286.20001220703</ele>
        <time>2023-06-23T09:47:36Z</time>
      </trkpt>
      <trkpt lat="49.38693" lon="5.83545">
        <ele>286.20001220703</ele>
        <time>2023-06-23T09:47:38Z</time>
      </trkpt>
      <trkpt lat="49.38693" lon="5.83545">
        <ele>286.20001220703</ele>
        <time>2023-06-23T09:47:40Z</time>
      </trkpt>
      <trkpt lat="49.38693" lon="5.83545">
        <ele>286.20001220703</ele>
        <time>2023-06-23T09:47:42Z</time>
      </trkpt>
      <trkpt lat="49.38693" lon="5.83545">
        <ele>286.20001220703</ele>
        <time>2023-06-23T09:47:44Z</time>
      </trkpt>
      <trkpt lat="49.38693" lon="5.83545">
        <ele>286.20001220703</ele>
        <time>2023-06-23T09:47:46Z</time>
      </trkpt>
      <trkpt lat="49.38693" lon="5.83545">
        <ele>286.39999389648</ele>
        <time>2023-06-23T09:47:48Z</time>
      </trkpt>
      <trkpt lat="49.38693" lon="5.83544">
        <ele>286.39999389648</ele>
        <time>2023-06-23T09:47:50Z</time>
      </trkpt>
      <trkpt lat="49.38693" lon="5.83544">
        <ele>286.39999389648</ele>
        <time>2023-06-23T09:47:52Z</time>
      </trkpt>
      <trkpt lat="49.38693" lon="5.83544">
        <ele>286.60000610352</ele>
        <time>2023-06-23T09:47:54Z</time>
      </trkpt>
      <trkpt lat="49.38693" lon="5.83544">
        <ele>286.60000610352</ele>
        <time>2023-06-23T09:47:56Z</time>
      </trkpt>
      <trkpt lat="49.38693" lon="5.83544">
        <ele>286.60000610352</ele>
        <time>2023-06-23T09:47:58Z</time>
      </trkpt>
      <trkpt lat="49.38693" lon="5.83544">
        <ele>286.60000610352</ele>
        <time>2023-06-23T09:48:00Z</time>
      </trkpt>
      <trkpt lat="49.38693" lon="5.83544">
        <ele>286.60000610352</ele>
        <time>2023-06-23T09:48:01Z</time>
      </trkpt>
      <trkpt lat="49.38693" lon="5.83544">
        <ele>286.60000610352</ele>
        <time>2023-06-23T09:48:02Z</time>
      </trkpt>
      <trkpt lat="49.38693" lon="5.83544">
        <ele>286.60000610352</ele>
        <time>2023-06-23T09:48:04Z</time>
      </trkpt>
      <trkpt lat="49.38693" lon="5.83544">
        <ele>286.60000610352</ele>
        <time>2023-06-23T09:48:06Z</time>
      </trkpt>
      <trkpt lat="49.38693" lon="5.83544">
        <ele>286.60000610352</ele>
        <time>2023-06-23T09:48:08Z</time>
      </trkpt>
      <trkpt lat="49.38693" lon="5.83544">
        <ele>286.60000610352</ele>
        <time>2023-06-23T09:48:10Z</time>
      </trkpt>
      <trkpt lat="49.38693" lon="5.83544">
        <ele>286.60000610352</ele>
        <time>2023-06-23T09:48:12Z</time>
      </trkpt>
      <trkpt lat="49.38693" lon="5.83544">
        <ele>286.60000610352</ele>
        <time>2023-06-23T09:48:14Z</time>
      </trkpt>
      <trkpt lat="49.38693" lon="5.83544">
        <ele>286.60000610352</ele>
        <time>2023-06-23T09:48:16Z</time>
      </trkpt>
      <trkpt lat="49.38693" lon="5.83544">
        <ele>286.60000610352</ele>
        <time>2023-06-23T09:48:18Z</time>
      </trkpt>
      <trkpt lat="49.38693" lon="5.83544">
        <ele>286.60000610352</ele>
        <time>2023-06-23T09:48:19Z</time>
      </trkpt>
      <trkpt lat="49.38693" lon="5.83544">
        <ele>286.60000610352</ele>
        <time>2023-06-23T09:48:20Z</time>
      </trkpt>
      <trkpt lat="49.38693" lon="5.83544">
        <ele>286.60000610352</ele>
        <time>2023-06-23T09:48:22Z</time>
      </trkpt>
      <trkpt lat="49.38693" lon="5.83544">
        <ele>286.60000610352</ele>
        <time>2023-06-23T09:48:24Z</time>
      </trkpt>
      <trkpt lat="49.38693" lon="5.83544">
        <ele>286.60000610352</ele>
        <time>2023-06-23T09:48:26Z</time>
      </trkpt>
      <trkpt lat="49.38693" lon="5.83544">
        <ele>286.60000610352</ele>
        <time>2023-06-23T09:48:28Z</time>
      </trkpt>
      <trkpt lat="49.38693" lon="5.83544">
        <ele>286.39999389648</ele>
        <time>2023-06-23T09:48:30Z</time>
      </trkpt>
      <trkpt lat="49.38693" lon="5.83544">
        <ele>286.39999389648</ele>
        <time>2023-06-23T09:48:32Z</time>
      </trkpt>
      <trkpt lat="49.38693" lon="5.83544">
        <ele>286.39999389648</ele>
        <time>2023-06-23T09:48:34Z</time>
      </trkpt>
      <trkpt lat="49.38693" lon="5.83544">
        <ele>286.39999389648</ele>
        <time>2023-06-23T09:48:36Z</time>
      </trkpt>
      <trkpt lat="49.38693" lon="5.83544">
        <ele>286.39999389648</ele>
        <time>2023-06-23T09:48:37Z</time>
      </trkpt>
      <trkpt lat="49.38693" lon="5.83542">
        <ele>286.39999389648</ele>
        <time>2023-06-23T09:48:38Z</time>
      </trkpt>
      <trkpt lat="49.38694" lon="5.83541">
        <ele>286.39999389648</ele>
        <time>2023-06-23T09:48:40Z</time>
      </trkpt>
      <trkpt lat="49.38696" lon="5.83537">
        <ele>286.39999389648</ele>
        <time>2023-06-23T09:48:42Z</time>
      </trkpt>
      <trkpt lat="49.38698" lon="5.83533">
        <ele>286.39999389648</ele>
        <time>2023-06-23T09:48:43Z</time>
      </trkpt>
      <trkpt lat="49.38701" lon="5.83529">
        <ele>286.39999389648</ele>
        <time>2023-06-23T09:48:44Z</time>
      </trkpt>
      <trkpt lat="49.38704" lon="5.83524">
        <ele>286.39999389648</ele>
        <time>2023-06-23T09:48:45Z</time>
      </trkpt>
      <trkpt lat="49.38708" lon="5.83518">
        <ele>286.39999389648</ele>
        <time>2023-06-23T09:48:46Z</time>
      </trkpt>
      <trkpt lat="49.38711" lon="5.83512">
        <ele>286.39999389648</ele>
        <time>2023-06-23T09:48:47Z</time>
      </trkpt>
      <trkpt lat="49.38714" lon="5.83507">
        <ele>286.39999389648</ele>
        <time>2023-06-23T09:48:48Z</time>
      </trkpt>
      <trkpt lat="49.38721" lon="5.83499">
        <ele>286.39999389648</ele>
        <time>2023-06-23T09:48:50Z</time>
      </trkpt>
      <trkpt lat="49.38723" lon="5.83495">
        <ele>286</ele>
        <time>2023-06-23T09:48:51Z</time>
      </trkpt>
      <trkpt lat="49.38725" lon="5.83491">
        <ele>285.39999389648</ele>
        <time>2023-06-23T09:48:52Z</time>
      </trkpt>
      <trkpt lat="49.38726" lon="5.83486">
        <ele>284.39999389648</ele>
        <time>2023-06-23T09:48:53Z</time>
      </trkpt>
      <trkpt lat="49.38728" lon="5.83481">
        <ele>283.60000610352</ele>
        <time>2023-06-23T09:48:54Z</time>
      </trkpt>
      <trkpt lat="49.38729" lon="5.83476">
        <ele>282.39999389648</ele>
        <time>2023-06-23T09:48:55Z</time>
      </trkpt>
      <trkpt lat="49.38731" lon="5.83472">
        <ele>281.39999389648</ele>
        <time>2023-06-23T09:48:56Z</time>
      </trkpt>
      <trkpt lat="49.38732" lon="5.83469">
        <ele>279.39999389648</ele>
        <time>2023-06-23T09:48:57Z</time>
      </trkpt>
      <trkpt lat="49.38732" lon="5.83466">
        <ele>278.79998779297</ele>
        <time>2023-06-23T09:48:58Z</time>
      </trkpt>
      <trkpt lat="49.38732" lon="5.83464">
        <ele>277.79998779297</ele>
        <time>2023-06-23T09:48:59Z</time>
      </trkpt>
      <trkpt lat="49.38732" lon="5.83461">
        <ele>277</ele>
        <time>2023-06-23T09:49:00Z</time>
      </trkpt>
      <trkpt lat="49.38733" lon="5.83459">
        <ele>275.60000610352</ele>
        <time>2023-06-23T09:49:01Z</time>
      </trkpt>
      <trkpt lat="49.38733" lon="5.83457">
        <ele>274.79998779297</ele>
        <time>2023-06-23T09:49:02Z</time>
      </trkpt>
      <trkpt lat="49.38733" lon="5.83455">
        <ele>273.60000610352</ele>
        <time>2023-06-23T09:49:03Z</time>
      </trkpt>
      <trkpt lat="49.38734" lon="5.83453">
        <ele>272.60000610352</ele>
        <time>2023-06-23T09:49:04Z</time>
      </trkpt>
      <trkpt lat="49.38736" lon="5.83451">
        <ele>272</ele>
        <time>2023-06-23T09:49:05Z</time>
      </trkpt>
      <trkpt lat="49.38737" lon="5.83448">
        <ele>271.60000610352</ele>
        <time>2023-06-23T09:49:06Z</time>
      </trkpt>
      <trkpt lat="49.38738" lon="5.83442">
        <ele>271.20001220703</ele>
        <time>2023-06-23T09:49:08Z</time>
      </trkpt>
      <trkpt lat="49.38739" lon="5.83438">
        <ele>271</ele>
        <time>2023-06-23T09:49:09Z</time>
      </trkpt>
      <trkpt lat="49.38741" lon="5.83436">
        <ele>271</ele>
        <time>2023-06-23T09:49:10Z</time>
      </trkpt>
      <trkpt lat="49.38742" lon="5.83434">
        <ele>270.79998779297</ele>
        <time>2023-06-23T09:49:11Z</time>
      </trkpt>
      <trkpt lat="49.38743" lon="5.83433">
        <ele>270.79998779297</ele>
        <time>2023-06-23T09:49:12Z</time>
      </trkpt>
      <trkpt lat="49.38744" lon="5.83432">
        <ele>270.60000610352</ele>
        <time>2023-06-23T09:49:13Z</time>
      </trkpt>
      <trkpt lat="49.38745" lon="5.8343">
        <ele>270.39999389648</ele>
        <time>2023-06-23T09:49:14Z</time>
      </trkpt>
      <trkpt lat="49.38746" lon="5.8343">
        <ele>269.79998779297</ele>
        <time>2023-06-23T09:49:15Z</time>
      </trkpt>
      <trkpt lat="49.38748" lon="5.8343">
        <ele>269.39999389648</ele>
        <time>2023-06-23T09:49:16Z</time>
      </trkpt>
      <trkpt lat="49.38752" lon="5.83427">
        <ele>268.39999389648</ele>
        <time>2023-06-23T09:49:18Z</time>
      </trkpt>
      <trkpt lat="49.38755" lon="5.83425">
        <ele>267.79998779297</ele>
        <time>2023-06-23T09:49:20Z</time>
      </trkpt>
      <trkpt lat="49.38756" lon="5.83423">
        <ele>267.60000610352</ele>
        <time>2023-06-23T09:49:21Z</time>
      </trkpt>
      <trkpt lat="49.38757" lon="5.8342">
        <ele>267.60000610352</ele>
        <time>2023-06-23T09:49:22Z</time>
      </trkpt>
      <trkpt lat="49.3876" lon="5.83415">
        <ele>267.39999389648</ele>
        <time>2023-06-23T09:49:24Z</time>
      </trkpt>
      <trkpt lat="49.38762" lon="5.83413">
        <ele>267.39999389648</ele>
        <time>2023-06-23T09:49:25Z</time>
      </trkpt>
      <trkpt lat="49.38763" lon="5.8341">
        <ele>267.39999389648</ele>
        <time>2023-06-23T09:49:26Z</time>
      </trkpt>
      <trkpt lat="49.38765" lon="5.83408">
        <ele>267.39999389648</ele>
        <time>2023-06-23T09:49:27Z</time>
      </trkpt>
      <trkpt lat="49.38767" lon="5.83407">
        <ele>267.39999389648</ele>
        <time>2023-06-23T09:49:28Z</time>
      </trkpt>
      <trkpt lat="49.38771" lon="5.83404">
        <ele>267.39999389648</ele>
        <time>2023-06-23T09:49:30Z</time>
      </trkpt>
      <trkpt lat="49.38775" lon="5.83403">
        <ele>267.39999389648</ele>
        <time>2023-06-23T09:49:32Z</time>
      </trkpt>
      <trkpt lat="49.38778" lon="5.83402">
        <ele>267.39999389648</ele>
        <time>2023-06-23T09:49:34Z</time>
      </trkpt>
      <trkpt lat="49.38781" lon="5.83402">
        <ele>267.39999389648</ele>
        <time>2023-06-23T09:49:36Z</time>
      </trkpt>
      <trkpt lat="49.38783" lon="5.83403">
        <ele>267.20001220703</ele>
        <time>2023-06-23T09:49:38Z</time>
      </trkpt>
      <trkpt lat="49.38786" lon="5.83403">
        <ele>267.20001220703</ele>
        <time>2023-06-23T09:49:40Z</time>
      </trkpt>
      <trkpt lat="49.38788" lon="5.83404">
        <ele>267.20001220703</ele>
        <time>2023-06-23T09:49:42Z</time>
      </trkpt>
      <trkpt lat="49.38791" lon="5.83406">
        <ele>267.39999389648</ele>
        <time>2023-06-23T09:49:44Z</time>
      </trkpt>
      <trkpt lat="49.38794" lon="5.83409">
        <ele>267.60000610352</ele>
        <time>2023-06-23T09:49:46Z</time>
      </trkpt>
      <trkpt lat="49.38797" lon="5.83411">
        <ele>267.79998779297</ele>
        <time>2023-06-23T09:49:48Z</time>
      </trkpt>
      <trkpt lat="49.388" lon="5.83416">
        <ele>267.79998779297</ele>
        <time>2023-06-23T09:49:50Z</time>
      </trkpt>
      <trkpt lat="49.38802" lon="5.8342">
        <ele>267.79998779297</ele>
        <time>2023-06-23T09:49:51Z</time>
      </trkpt>
      <trkpt lat="49.38803" lon="5.83422">
        <ele>267.79998779297</ele>
        <time>2023-06-23T09:49:52Z</time>
      </trkpt>
      <trkpt lat="49.38806" lon="5.83427">
        <ele>267.79998779297</ele>
        <time>2023-06-23T09:49:54Z</time>
      </trkpt>
      <trkpt lat="49.38806" lon="5.83428">
        <ele>267.79998779297</ele>
        <time>2023-06-23T09:49:55Z</time>
      </trkpt>
      <trkpt lat="49.38807" lon="5.8343">
        <ele>267.79998779297</ele>
        <time>2023-06-23T09:49:56Z</time>
      </trkpt>
      <trkpt lat="49.38807" lon="5.83434">
        <ele>267.79998779297</ele>
        <time>2023-06-23T09:49:58Z</time>
      </trkpt>
      <trkpt lat="49.38806" lon="5.83438">
        <ele>267.79998779297</ele>
        <time>2023-06-23T09:50:00Z</time>
      </trkpt>
      <trkpt lat="49.38805" lon="5.83441">
        <ele>267.79998779297</ele>
        <time>2023-06-23T09:50:02Z</time>
      </trkpt>
      <trkpt lat="49.38806" lon="5.83445">
        <ele>267.60000610352</ele>
        <time>2023-06-23T09:50:04Z</time>
      </trkpt>
      <trkpt lat="49.38806" lon="5.83447">
        <ele>267.60000610352</ele>
        <time>2023-06-23T09:50:06Z</time>
      </trkpt>
      <trkpt lat="49.38806" lon="5.8345">
        <ele>267.60000610352</ele>
        <time>2023-06-23T09:50:08Z</time>
      </trkpt>
      <trkpt lat="49.38807" lon="5.83454">
        <ele>267.60000610352</ele>
        <time>2023-06-23T09:50:10Z</time>
      </trkpt>
      <trkpt lat="49.38809" lon="5.83458">
        <ele>267.60000610352</ele>
        <time>2023-06-23T09:50:12Z</time>
      </trkpt>
      <trkpt lat="49.38809" lon="5.83462">
        <ele>267.39999389648</ele>
        <time>2023-06-23T09:50:13Z</time>
      </trkpt>
      <trkpt lat="49.38809" lon="5.83465">
        <ele>267.39999389648</ele>
        <time>2023-06-23T09:50:14Z</time>
      </trkpt>
      <trkpt lat="49.38809" lon="5.83467">
        <ele>267.39999389648</ele>
        <time>2023-06-23T09:50:15Z</time>
      </trkpt>
      <trkpt lat="49.3881" lon="5.83468">
        <ele>267.39999389648</ele>
        <time>2023-06-23T09:50:16Z</time>
      </trkpt>
      <trkpt lat="49.38811" lon="5.8347">
        <ele>267.39999389648</ele>
        <time>2023-06-23T09:50:18Z</time>
      </trkpt>
      <trkpt lat="49.38813" lon="5.8347">
        <ele>267.39999389648</ele>
        <time>2023-06-23T09:50:20Z</time>
      </trkpt>
      <trkpt lat="49.38816" lon="5.8347">
        <ele>267.39999389648</ele>
        <time>2023-06-23T09:50:22Z</time>
      </trkpt>
      <trkpt lat="49.38817" lon="5.8347">
        <ele>267.60000610352</ele>
        <time>2023-06-23T09:50:24Z</time>
      </trkpt>
      <trkpt lat="49.38819" lon="5.83469">
        <ele>267.60000610352</ele>
        <time>2023-06-23T09:50:26Z</time>
      </trkpt>
      <trkpt lat="49.38822" lon="5.83469">
        <ele>267.79998779297</ele>
        <time>2023-06-23T09:50:28Z</time>
      </trkpt>
      <trkpt lat="49.38825" lon="5.83468">
        <ele>267.79998779297</ele>
        <time>2023-06-23T09:50:30Z</time>
      </trkpt>
      <trkpt lat="49.38827" lon="5.83466">
        <ele>267.79998779297</ele>
        <time>2023-06-23T09:50:32Z</time>
      </trkpt>
      <trkpt lat="49.38829" lon="5.83464">
        <ele>267.79998779297</ele>
        <time>2023-06-23T09:50:34Z</time>
      </trkpt>
      <trkpt lat="49.3883" lon="5.83463">
        <ele>268</ele>
        <time>2023-06-23T09:50:36Z</time>
      </trkpt>
      <trkpt lat="49.38832" lon="5.8346">
        <ele>268</ele>
        <time>2023-06-23T09:50:38Z</time>
      </trkpt>
      <trkpt lat="49.38833" lon="5.83458">
        <ele>268.20001220703</ele>
        <time>2023-06-23T09:50:40Z</time>
      </trkpt>
      <trkpt lat="49.38834" lon="5.83456">
        <ele>268.39999389648</ele>
        <time>2023-06-23T09:50:41Z</time>
      </trkpt>
      <trkpt lat="49.38835" lon="5.83454">
        <ele>268.60000610352</ele>
        <time>2023-06-23T09:50:42Z</time>
      </trkpt>
      <trkpt lat="49.38837" lon="5.8345">
        <ele>269</ele>
        <time>2023-06-23T09:50:44Z</time>
      </trkpt>
      <trkpt lat="49.38838" lon="5.83448">
        <ele>269.39999389648</ele>
        <time>2023-06-23T09:50:45Z</time>
      </trkpt>
      <trkpt lat="49.38839" lon="5.83447">
        <ele>269.79998779297</ele>
        <time>2023-06-23T09:50:46Z</time>
      </trkpt>
      <trkpt lat="49.3884" lon="5.83444">
        <ele>270.39999389648</ele>
        <time>2023-06-23T09:50:48Z</time>
      </trkpt>
      <trkpt lat="49.38841" lon="5.83443">
        <ele>270.60000610352</ele>
        <time>2023-06-23T09:50:49Z</time>
      </trkpt>
      <trkpt lat="49.38841" lon="5.83441">
        <ele>271</ele>
        <time>2023-06-23T09:50:50Z</time>
      </trkpt>
      <trkpt lat="49.38843" lon="5.83439">
        <ele>271.79998779297</ele>
        <time>2023-06-23T09:50:52Z</time>
      </trkpt>
      <trkpt lat="49.38844" lon="5.83437">
        <ele>272.60000610352</ele>
        <time>2023-06-23T09:50:54Z</time>
      </trkpt>
      <trkpt lat="49.38844" lon="5.83436">
        <ele>273</ele>
        <time>2023-06-23T09:50:55Z</time>
      </trkpt>
      <trkpt lat="49.38845" lon="5.83435">
        <ele>273.39999389648</ele>
        <time>2023-06-23T09:50:56Z</time>
      </trkpt>
      <trkpt lat="49.38846" lon="5.83432">
        <ele>274</ele>
        <time>2023-06-23T09:50:58Z</time>
      </trkpt>
      <trkpt lat="49.38847" lon="5.8343">
        <ele>274.39999389648</ele>
        <time>2023-06-23T09:50:59Z</time>
      </trkpt>
      <trkpt lat="49.38848" lon="5.83429">
        <ele>274.79998779297</ele>
        <time>2023-06-23T09:51:00Z</time>
      </trkpt>
      <trkpt lat="49.38849" lon="5.83427">
        <ele>275.39999389648</ele>
        <time>2023-06-23T09:51:02Z</time>
      </trkpt>
      <trkpt lat="49.38849" lon="5.83426">
        <ele>275.79998779297</ele>
        <time>2023-06-23T09:51:03Z</time>
      </trkpt>
      <trkpt lat="49.3885" lon="5.83425">
        <ele>276</ele>
        <time>2023-06-23T09:51:04Z</time>
      </trkpt>
      <trkpt lat="49.38851" lon="5.83424">
        <ele>276.60000610352</ele>
        <time>2023-06-23T09:51:05Z</time>
      </trkpt>
      <trkpt lat="49.38852" lon="5.83423">
        <ele>276.79998779297</ele>
        <time>2023-06-23T09:51:06Z</time>
      </trkpt>
      <trkpt lat="49.38854" lon="5.83423">
        <ele>277.39999389648</ele>
        <time>2023-06-23T09:51:08Z</time>
      </trkpt>
      <trkpt lat="49.38855" lon="5.83422">
        <ele>278</ele>
        <time>2023-06-23T09:51:10Z</time>
      </trkpt>
      <trkpt lat="49.38858" lon="5.8342">
        <ele>278.79998779297</ele>
        <time>2023-06-23T09:51:12Z</time>
      </trkpt>
      <trkpt lat="49.38859" lon="5.8342">
        <ele>279.20001220703</ele>
        <time>2023-06-23T09:51:13Z</time>
      </trkpt>
      <trkpt lat="49.3886" lon="5.8342">
        <ele>279.60000610352</ele>
        <time>2023-06-23T09:51:14Z</time>
      </trkpt>
      <trkpt lat="49.38862" lon="5.8342">
        <ele>280</ele>
        <time>2023-06-23T09:51:16Z</time>
      </trkpt>
      <trkpt lat="49.38863" lon="5.8342">
        <ele>280.39999389648</ele>
        <time>2023-06-23T09:51:17Z</time>
      </trkpt>
      <trkpt lat="49.38864" lon="5.8342">
        <ele>280.60000610352</ele>
        <time>2023-06-23T09:51:18Z</time>
      </trkpt>
      <trkpt lat="49.38866" lon="5.8342">
        <ele>281.20001220703</ele>
        <time>2023-06-23T09:51:20Z</time>
      </trkpt>
      <trkpt lat="49.38867" lon="5.8342">
        <ele>281.60000610352</ele>
        <time>2023-06-23T09:51:21Z</time>
      </trkpt>
      <trkpt lat="49.38868" lon="5.83421">
        <ele>282</ele>
        <time>2023-06-23T09:51:22Z</time>
      </trkpt>
      <trkpt lat="49.3887" lon="5.83421">
        <ele>282.60000610352</ele>
        <time>2023-06-23T09:51:24Z</time>
      </trkpt>
      <trkpt lat="49.3887" lon="5.83421">
        <ele>282.79998779297</ele>
        <time>2023-06-23T09:51:25Z</time>
      </trkpt>
      <trkpt lat="49.38871" lon="5.83422">
        <ele>283.20001220703</ele>
        <time>2023-06-23T09:51:26Z</time>
      </trkpt>
      <trkpt lat="49.38872" lon="5.83423">
        <ele>283.60000610352</ele>
        <time>2023-06-23T09:51:28Z</time>
      </trkpt>
      <trkpt lat="49.38872" lon="5.83423">
        <ele>284</ele>
        <time>2023-06-23T09:51:29Z</time>
      </trkpt>
      <trkpt lat="49.38873" lon="5.83424">
        <ele>284.20001220703</ele>
        <time>2023-06-23T09:51:30Z</time>
      </trkpt>
      <trkpt lat="49.38876" lon="5.83424">
        <ele>284.79998779297</ele>
        <time>2023-06-23T09:51:32Z</time>
      </trkpt>
      <trkpt lat="49.38876" lon="5.83424">
        <ele>285.20001220703</ele>
        <time>2023-06-23T09:51:33Z</time>
      </trkpt>
      <trkpt lat="49.38877" lon="5.83424">
        <ele>285.39999389648</ele>
        <time>2023-06-23T09:51:34Z</time>
      </trkpt>
      <trkpt lat="49.38879" lon="5.83423">
        <ele>285.79998779297</ele>
        <time>2023-06-23T09:51:36Z</time>
      </trkpt>
      <trkpt lat="49.38881" lon="5.83423">
        <ele>286.39999389648</ele>
        <time>2023-06-23T09:51:38Z</time>
      </trkpt>
      <trkpt lat="49.38883" lon="5.83423">
        <ele>287.20001220703</ele>
        <time>2023-06-23T09:51:40Z</time>
      </trkpt>
      <trkpt lat="49.38884" lon="5.83424">
        <ele>287.39999389648</ele>
        <time>2023-06-23T09:51:41Z</time>
      </trkpt>
      <trkpt lat="49.38884" lon="5.83424">
        <ele>287.79998779297</ele>
        <time>2023-06-23T09:51:42Z</time>
      </trkpt>
      <trkpt lat="49.38886" lon="5.83424">
        <ele>288.20001220703</ele>
        <time>2023-06-23T09:51:44Z</time>
      </trkpt>
      <trkpt lat="49.38886" lon="5.83425">
        <ele>288.60000610352</ele>
        <time>2023-06-23T09:51:45Z</time>
      </trkpt>
      <trkpt lat="49.38887" lon="5.83425">
        <ele>288.79998779297</ele>
        <time>2023-06-23T09:51:46Z</time>
      </trkpt>
      <trkpt lat="49.38889" lon="5.83425">
        <ele>289.20001220703</ele>
        <time>2023-06-23T09:51:48Z</time>
      </trkpt>
      <trkpt lat="49.3889" lon="5.83426">
        <ele>289.60000610352</ele>
        <time>2023-06-23T09:51:50Z</time>
      </trkpt>
      <trkpt lat="49.38892" lon="5.83427">
        <ele>290</ele>
        <time>2023-06-23T09:51:52Z</time>
      </trkpt>
      <trkpt lat="49.38895" lon="5.83428">
        <ele>290.39999389648</ele>
        <time>2023-06-23T09:51:54Z</time>
      </trkpt>
      <trkpt lat="49.38896" lon="5.83428">
        <ele>290.60000610352</ele>
        <time>2023-06-23T09:51:55Z</time>
      </trkpt>
      <trkpt lat="49.38897" lon="5.83428">
        <ele>290.79998779297</ele>
        <time>2023-06-23T09:51:56Z</time>
      </trkpt>
      <trkpt lat="49.38899" lon="5.83429">
        <ele>291.20001220703</ele>
        <time>2023-06-23T09:51:58Z</time>
      </trkpt>
      <trkpt lat="49.38901" lon="5.8343">
        <ele>291.60000610352</ele>
        <time>2023-06-23T09:52:00Z</time>
      </trkpt>
      <trkpt lat="49.38902" lon="5.8343">
        <ele>292</ele>
        <time>2023-06-23T09:52:01Z</time>
      </trkpt>
      <trkpt lat="49.38902" lon="5.83431">
        <ele>292.20001220703</ele>
        <time>2023-06-23T09:52:02Z</time>
      </trkpt>
      <trkpt lat="49.38904" lon="5.83431">
        <ele>292.60000610352</ele>
        <time>2023-06-23T09:52:04Z</time>
      </trkpt>
      <trkpt lat="49.38906" lon="5.83432">
        <ele>293</ele>
        <time>2023-06-23T09:52:06Z</time>
      </trkpt>
      <trkpt lat="49.38907" lon="5.83432">
        <ele>293.39999389648</ele>
        <time>2023-06-23T09:52:07Z</time>
      </trkpt>
      <trkpt lat="49.38908" lon="5.83432">
        <ele>293.60000610352</ele>
        <time>2023-06-23T09:52:08Z</time>
      </trkpt>
      <trkpt lat="49.3891" lon="5.83433">
        <ele>294</ele>
        <time>2023-06-23T09:52:10Z</time>
      </trkpt>
      <trkpt lat="49.38911" lon="5.83434">
        <ele>294.20001220703</ele>
        <time>2023-06-23T09:52:12Z</time>
      </trkpt>
      <trkpt lat="49.38913" lon="5.83435">
        <ele>294.39999389648</ele>
        <time>2023-06-23T09:52:14Z</time>
      </trkpt>
      <trkpt lat="49.38915" lon="5.83437">
        <ele>294.60000610352</ele>
        <time>2023-06-23T09:52:16Z</time>
      </trkpt>
      <trkpt lat="49.38917" lon="5.83438">
        <ele>295</ele>
        <time>2023-06-23T09:52:18Z</time>
      </trkpt>
      <trkpt lat="49.38918" lon="5.83438">
        <ele>295.20001220703</ele>
        <time>2023-06-23T09:52:19Z</time>
      </trkpt>
      <trkpt lat="49.38919" lon="5.83439">
        <ele>295.20001220703</ele>
        <time>2023-06-23T09:52:20Z</time>
      </trkpt>
      <trkpt lat="49.38921" lon="5.83439">
        <ele>295.39999389648</ele>
        <time>2023-06-23T09:52:22Z</time>
      </trkpt>
      <trkpt lat="49.38923" lon="5.83439">
        <ele>295.79998779297</ele>
        <time>2023-06-23T09:52:24Z</time>
      </trkpt>
      <trkpt lat="49.38924" lon="5.8344">
        <ele>296</ele>
        <time>2023-06-23T09:52:26Z</time>
      </trkpt>
      <trkpt lat="49.38925" lon="5.8344">
        <ele>296.20001220703</ele>
        <time>2023-06-23T09:52:27Z</time>
      </trkpt>
      <trkpt lat="49.38926" lon="5.83441">
        <ele>296.39999389648</ele>
        <time>2023-06-23T09:52:28Z</time>
      </trkpt>
      <trkpt lat="49.38928" lon="5.83442">
        <ele>296.79998779297</ele>
        <time>2023-06-23T09:52:30Z</time>
      </trkpt>
      <trkpt lat="49.38931" lon="5.83443">
        <ele>297.20001220703</ele>
        <time>2023-06-23T09:52:32Z</time>
      </trkpt>
      <trkpt lat="49.38933" lon="5.83445">
        <ele>297.60000610352</ele>
        <time>2023-06-23T09:52:34Z</time>
      </trkpt>
      <trkpt lat="49.38935" lon="5.83445">
        <ele>298</ele>
        <time>2023-06-23T09:52:36Z</time>
      </trkpt>
      <trkpt lat="49.38936" lon="5.83446">
        <ele>298.20001220703</ele>
        <time>2023-06-23T09:52:38Z</time>
      </trkpt>
      <trkpt lat="49.38937" lon="5.83446">
        <ele>298.39999389648</ele>
        <time>2023-06-23T09:52:39Z</time>
      </trkpt>
      <trkpt lat="49.38938" lon="5.83446">
        <ele>298.39999389648</ele>
        <time>2023-06-23T09:52:40Z</time>
      </trkpt>
      <trkpt lat="49.38941" lon="5.83447">
        <ele>298.79998779297</ele>
        <time>2023-06-23T09:52:42Z</time>
      </trkpt>
      <trkpt lat="49.38943" lon="5.83448">
        <ele>299</ele>
        <time>2023-06-23T09:52:44Z</time>
      </trkpt>
      <trkpt lat="49.38945" lon="5.83449">
        <ele>299.20001220703</ele>
        <time>2023-06-23T09:52:46Z</time>
      </trkpt>
      <trkpt lat="49.38947" lon="5.8345">
        <ele>299.20001220703</ele>
        <time>2023-06-23T09:52:48Z</time>
      </trkpt>
      <trkpt lat="49.3895" lon="5.83451">
        <ele>299.39999389648</ele>
        <time>2023-06-23T09:52:50Z</time>
      </trkpt>
      <trkpt lat="49.38952" lon="5.83452">
        <ele>299.60000610352</ele>
        <time>2023-06-23T09:52:52Z</time>
      </trkpt>
      <trkpt lat="49.38954" lon="5.83453">
        <ele>299.79998779297</ele>
        <time>2023-06-23T09:52:54Z</time>
      </trkpt>
      <trkpt lat="49.38956" lon="5.83453">
        <ele>300.20001220703</ele>
        <time>2023-06-23T09:52:56Z</time>
      </trkpt>
      <trkpt lat="49.38958" lon="5.83453">
        <ele>300.39999389648</ele>
        <time>2023-06-23T09:52:58Z</time>
      </trkpt>
      <trkpt lat="49.38959" lon="5.83453">
        <ele>300.39999389648</ele>
        <time>2023-06-23T09:52:59Z</time>
      </trkpt>
      <trkpt lat="49.3896" lon="5.83454">
        <ele>300.60000610352</ele>
        <time>2023-06-23T09:53:00Z</time>
      </trkpt>
      <trkpt lat="49.38963" lon="5.83455">
        <ele>301.20001220703</ele>
        <time>2023-06-23T09:53:02Z</time>
      </trkpt>
      <trkpt lat="49.38965" lon="5.83456">
        <ele>301.60000610352</ele>
        <time>2023-06-23T09:53:04Z</time>
      </trkpt>
      <trkpt lat="49.38967" lon="5.83457">
        <ele>301.79998779297</ele>
        <time>2023-06-23T09:53:06Z</time>
      </trkpt>
      <trkpt lat="49.38969" lon="5.83458">
        <ele>302.20001220703</ele>
        <time>2023-06-23T09:53:08Z</time>
      </trkpt>
      <trkpt lat="49.38972" lon="5.8346">
        <ele>302.60000610352</ele>
        <time>2023-06-23T09:53:10Z</time>
      </trkpt>
      <trkpt lat="49.38973" lon="5.83461">
        <ele>302.79998779297</ele>
        <time>2023-06-23T09:53:11Z</time>
      </trkpt>
      <trkpt lat="49.38975" lon="5.83462">
        <ele>302.79998779297</ele>
        <time>2023-06-23T09:53:12Z</time>
      </trkpt>
      <trkpt lat="49.38977" lon="5.83463">
        <ele>303</ele>
        <time>2023-06-23T09:53:14Z</time>
      </trkpt>
      <trkpt lat="49.38979" lon="5.83464">
        <ele>303.39999389648</ele>
        <time>2023-06-23T09:53:16Z</time>
      </trkpt>
      <trkpt lat="49.38981" lon="5.83465">
        <ele>303.60000610352</ele>
        <time>2023-06-23T09:53:18Z</time>
      </trkpt>
      <trkpt lat="49.38983" lon="5.83464">
        <ele>304</ele>
        <time>2023-06-23T09:53:20Z</time>
      </trkpt>
      <trkpt lat="49.38984" lon="5.83464">
        <ele>304.20001220703</ele>
        <time>2023-06-23T09:53:21Z</time>
      </trkpt>
      <trkpt lat="49.38985" lon="5.83463">
        <ele>304.39999389648</ele>
        <time>2023-06-23T09:53:22Z</time>
      </trkpt>
      <trkpt lat="49.38987" lon="5.83461">
        <ele>304.79998779297</ele>
        <time>2023-06-23T09:53:24Z</time>
      </trkpt>
      <trkpt lat="49.38988" lon="5.8346">
        <ele>305.39999389648</ele>
        <time>2023-06-23T09:53:26Z</time>
      </trkpt>
      <trkpt lat="49.38989" lon="5.83457">
        <ele>305.79998779297</ele>
        <time>2023-06-23T09:53:28Z</time>
      </trkpt>
      <trkpt lat="49.3899" lon="5.83456">
        <ele>306.20001220703</ele>
        <time>2023-06-23T09:53:29Z</time>
      </trkpt>
      <trkpt lat="49.38991" lon="5.83455">
        <ele>306.20001220703</ele>
        <time>2023-06-23T09:53:30Z</time>
      </trkpt>
      <trkpt lat="49.38992" lon="5.83455">
        <ele>306.39999389648</ele>
        <time>2023-06-23T09:53:31Z</time>
      </trkpt>
      <trkpt lat="49.38992" lon="5.83453">
        <ele>306.39999389648</ele>
        <time>2023-06-23T09:53:32Z</time>
      </trkpt>
      <trkpt lat="49.38992" lon="5.8345">
        <ele>306.39999389648</ele>
        <time>2023-06-23T09:53:34Z</time>
      </trkpt>
      <trkpt lat="49.38992" lon="5.83447">
        <ele>306.39999389648</ele>
        <time>2023-06-23T09:53:36Z</time>
      </trkpt>
      <trkpt lat="49.38992" lon="5.83442">
        <ele>306.39999389648</ele>
        <time>2023-06-23T09:53:38Z</time>
      </trkpt>
      <trkpt lat="49.38993" lon="5.83438">
        <ele>306.39999389648</ele>
        <time>2023-06-23T09:53:39Z</time>
      </trkpt>
      <trkpt lat="49.38993" lon="5.83435">
        <ele>306.39999389648</ele>
        <time>2023-06-23T09:53:40Z</time>
      </trkpt>
      <trkpt lat="49.38994" lon="5.83425">
        <ele>306.39999389648</ele>
        <time>2023-06-23T09:53:42Z</time>
      </trkpt>
      <trkpt lat="49.38995" lon="5.83416">
        <ele>306.20001220703</ele>
        <time>2023-06-23T09:53:43Z</time>
      </trkpt>
      <trkpt lat="49.38997" lon="5.83405">
        <ele>306.20001220703</ele>
        <time>2023-06-23T09:53:44Z</time>
      </trkpt>
      <trkpt lat="49.39006" lon="5.83383">
        <ele>305.20001220703</ele>
        <time>2023-06-23T09:53:46Z</time>
      </trkpt>
      <trkpt lat="49.39012" lon="5.83375">
        <ele>304.60000610352</ele>
        <time>2023-06-23T09:53:47Z</time>
      </trkpt>
      <trkpt lat="49.39018" lon="5.83368">
        <ele>304</ele>
        <time>2023-06-23T09:53:48Z</time>
      </trkpt>
      <trkpt lat="49.39024" lon="5.83362">
        <ele>303</ele>
        <time>2023-06-23T09:53:49Z</time>
      </trkpt>
      <trkpt lat="49.39031" lon="5.83357">
        <ele>302</ele>
        <time>2023-06-23T09:53:50Z</time>
      </trkpt>
      <trkpt lat="49.3904" lon="5.83352">
        <ele>301.20001220703</ele>
        <time>2023-06-23T09:53:51Z</time>
      </trkpt>
      <trkpt lat="49.39048" lon="5.83348">
        <ele>300.20001220703</ele>
        <time>2023-06-23T09:53:52Z</time>
      </trkpt>
      <trkpt lat="49.39057" lon="5.83345">
        <ele>298.60000610352</ele>
        <time>2023-06-23T09:53:53Z</time>
      </trkpt>
      <trkpt lat="49.39066" lon="5.83343">
        <ele>297.39999389648</ele>
        <time>2023-06-23T09:53:54Z</time>
      </trkpt>
      <trkpt lat="49.39075" lon="5.83341">
        <ele>296.20001220703</ele>
        <time>2023-06-23T09:53:55Z</time>
      </trkpt>
      <trkpt lat="49.39084" lon="5.83339">
        <ele>294.20001220703</ele>
        <time>2023-06-23T09:53:56Z</time>
      </trkpt>
      <trkpt lat="49.39099" lon="5.83333">
        <ele>292.79998779297</ele>
        <time>2023-06-23T09:53:58Z</time>
      </trkpt>
      <trkpt lat="49.39107" lon="5.83329">
        <ele>292.20001220703</ele>
        <time>2023-06-23T09:53:59Z</time>
      </trkpt>
      <trkpt lat="49.39114" lon="5.83326">
        <ele>291.79998779297</ele>
        <time>2023-06-23T09:54:00Z</time>
      </trkpt>
      <trkpt lat="49.39122" lon="5.83322">
        <ele>291.39999389648</ele>
        <time>2023-06-23T09:54:01Z</time>
      </trkpt>
      <trkpt lat="49.3913" lon="5.83318">
        <ele>290.60000610352</ele>
        <time>2023-06-23T09:54:02Z</time>
      </trkpt>
      <trkpt lat="49.39138" lon="5.83315">
        <ele>289.39999389648</ele>
        <time>2023-06-23T09:54:03Z</time>
      </trkpt>
      <trkpt lat="49.39147" lon="5.83311">
        <ele>288.39999389648</ele>
        <time>2023-06-23T09:54:04Z</time>
      </trkpt>
      <trkpt lat="49.39154" lon="5.83307">
        <ele>287.60000610352</ele>
        <time>2023-06-23T09:54:05Z</time>
      </trkpt>
      <trkpt lat="49.39161" lon="5.83304">
        <ele>287</ele>
        <time>2023-06-23T09:54:06Z</time>
      </trkpt>
      <trkpt lat="49.39174" lon="5.83298">
        <ele>286</ele>
        <time>2023-06-23T09:54:08Z</time>
      </trkpt>
      <trkpt lat="49.3918" lon="5.83295">
        <ele>285.79998779297</ele>
        <time>2023-06-23T09:54:09Z</time>
      </trkpt>
      <trkpt lat="49.39186" lon="5.83291">
        <ele>285.20001220703</ele>
        <time>2023-06-23T09:54:10Z</time>
      </trkpt>
      <trkpt lat="49.39193" lon="5.83287">
        <ele>284.39999389648</ele>
        <time>2023-06-23T09:54:11Z</time>
      </trkpt>
      <trkpt lat="49.39199" lon="5.83284">
        <ele>284</ele>
        <time>2023-06-23T09:54:12Z</time>
      </trkpt>
      <trkpt lat="49.39211" lon="5.83276">
        <ele>283.60000610352</ele>
        <time>2023-06-23T09:54:14Z</time>
      </trkpt>
      <trkpt lat="49.39216" lon="5.83272">
        <ele>283.39999389648</ele>
        <time>2023-06-23T09:54:15Z</time>
      </trkpt>
      <trkpt lat="49.39221" lon="5.83269">
        <ele>283.39999389648</ele>
        <time>2023-06-23T09:54:16Z</time>
      </trkpt>
      <trkpt lat="49.3923" lon="5.83261">
        <ele>283.39999389648</ele>
        <time>2023-06-23T09:54:18Z</time>
      </trkpt>
      <trkpt lat="49.39237" lon="5.83252">
        <ele>283.39999389648</ele>
        <time>2023-06-23T09:54:20Z</time>
      </trkpt>
      <trkpt lat="49.39244" lon="5.83245">
        <ele>283.39999389648</ele>
        <time>2023-06-23T09:54:22Z</time>
      </trkpt>
      <trkpt lat="49.39251" lon="5.83237">
        <ele>283.60000610352</ele>
        <time>2023-06-23T09:54:24Z</time>
      </trkpt>
      <trkpt lat="49.39254" lon="5.83232">
        <ele>283.60000610352</ele>
        <time>2023-06-23T09:54:25Z</time>
      </trkpt>
      <trkpt lat="49.39258" lon="5.83228">
        <ele>283.79998779297</ele>
        <time>2023-06-23T09:54:26Z</time>
      </trkpt>
      <trkpt lat="49.39264" lon="5.83222">
        <ele>284</ele>
        <time>2023-06-23T09:54:28Z</time>
      </trkpt>
      <trkpt lat="49.39269" lon="5.83215">
        <ele>284.20001220703</ele>
        <time>2023-06-23T09:54:30Z</time>
      </trkpt>
      <trkpt lat="49.39274" lon="5.83209">
        <ele>284.39999389648</ele>
        <time>2023-06-23T09:54:32Z</time>
      </trkpt>
      <trkpt lat="49.39279" lon="5.83204">
        <ele>284.60000610352</ele>
        <time>2023-06-23T09:54:34Z</time>
      </trkpt>
      <trkpt lat="49.39284" lon="5.83197">
        <ele>285</ele>
        <time>2023-06-23T09:54:36Z</time>
      </trkpt>
      <trkpt lat="49.39286" lon="5.83193">
        <ele>285.20001220703</ele>
        <time>2023-06-23T09:54:37Z</time>
      </trkpt>
      <trkpt lat="49.39289" lon="5.83189">
        <ele>285.39999389648</ele>
        <time>2023-06-23T09:54:38Z</time>
      </trkpt>
      <trkpt lat="49.39293" lon="5.83182">
        <ele>286</ele>
        <time>2023-06-23T09:54:40Z</time>
      </trkpt>
      <trkpt lat="49.39296" lon="5.83175">
        <ele>286.39999389648</ele>
        <time>2023-06-23T09:54:42Z</time>
      </trkpt>
      <trkpt lat="49.39299" lon="5.83168">
        <ele>286.79998779297</ele>
        <time>2023-06-23T09:54:44Z</time>
      </trkpt>
      <trkpt lat="49.39302" lon="5.83161">
        <ele>287.20001220703</ele>
        <time>2023-06-23T09:54:46Z</time>
      </trkpt>
      <trkpt lat="49.39306" lon="5.83154">
        <ele>287.60000610352</ele>
        <time>2023-06-23T09:54:48Z</time>
      </trkpt>
      <trkpt lat="49.39307" lon="5.83151">
        <ele>287.79998779297</ele>
        <time>2023-06-23T09:54:49Z</time>
      </trkpt>
      <trkpt lat="49.39308" lon="5.83148">
        <ele>288.20001220703</ele>
        <time>2023-06-23T09:54:50Z</time>
      </trkpt>
      <trkpt lat="49.39309" lon="5.83142">
        <ele>288.60000610352</ele>
        <time>2023-06-23T09:54:52Z</time>
      </trkpt>
      <trkpt lat="49.3931" lon="5.83139">
        <ele>288.60000610352</ele>
        <time>2023-06-23T09:54:53Z</time>
      </trkpt>
      <trkpt lat="49.39312" lon="5.83135">
        <ele>288.79998779297</ele>
        <time>2023-06-23T09:54:54Z</time>
      </trkpt>
      <trkpt lat="49.39313" lon="5.83132">
        <ele>289</ele>
        <time>2023-06-23T09:54:55Z</time>
      </trkpt>
      <trkpt lat="49.39314" lon="5.83128">
        <ele>289</ele>
        <time>2023-06-23T09:54:56Z</time>
      </trkpt>
      <trkpt lat="49.39316" lon="5.83119">
        <ele>289</ele>
        <time>2023-06-23T09:54:58Z</time>
      </trkpt>
      <trkpt lat="49.39319" lon="5.83109">
        <ele>289</ele>
        <time>2023-06-23T09:55:00Z</time>
      </trkpt>
      <trkpt lat="49.3932" lon="5.83104">
        <ele>289.20001220703</ele>
        <time>2023-06-23T09:55:01Z</time>
      </trkpt>
      <trkpt lat="49.39321" lon="5.831">
        <ele>289</ele>
        <time>2023-06-23T09:55:02Z</time>
      </trkpt>
      <trkpt lat="49.39324" lon="5.83092">
        <ele>289</ele>
        <time>2023-06-23T09:55:04Z</time>
      </trkpt>
      <trkpt lat="49.39328" lon="5.83086">
        <ele>289</ele>
        <time>2023-06-23T09:55:06Z</time>
      </trkpt>
      <trkpt lat="49.39331" lon="5.8308">
        <ele>289</ele>
        <time>2023-06-23T09:55:08Z</time>
      </trkpt>
      <trkpt lat="49.39333" lon="5.83074">
        <ele>289</ele>
        <time>2023-06-23T09:55:10Z</time>
      </trkpt>
      <trkpt lat="49.39335" lon="5.83068">
        <ele>289.20001220703</ele>
        <time>2023-06-23T09:55:12Z</time>
      </trkpt>
      <trkpt lat="49.39339" lon="5.83062">
        <ele>289.20001220703</ele>
        <time>2023-06-23T09:55:14Z</time>
      </trkpt>
      <trkpt lat="49.39341" lon="5.83055">
        <ele>289.39999389648</ele>
        <time>2023-06-23T09:55:16Z</time>
      </trkpt>
      <trkpt lat="49.39342" lon="5.83052">
        <ele>290</ele>
        <time>2023-06-23T09:55:17Z</time>
      </trkpt>
      <trkpt lat="49.39344" lon="5.83047">
        <ele>290</ele>
        <time>2023-06-23T09:55:18Z</time>
      </trkpt>
      <trkpt lat="49.39348" lon="5.83037">
        <ele>290</ele>
        <time>2023-06-23T09:55:20Z</time>
      </trkpt>
      <trkpt lat="49.39353" lon="5.8303">
        <ele>290</ele>
        <time>2023-06-23T09:55:22Z</time>
      </trkpt>
      <trkpt lat="49.39358" lon="5.83022">
        <ele>290</ele>
        <time>2023-06-23T09:55:24Z</time>
      </trkpt>
      <trkpt lat="49.39363" lon="5.83015">
        <ele>290</ele>
        <time>2023-06-23T09:55:26Z</time>
      </trkpt>
      <trkpt lat="49.39366" lon="5.83009">
        <ele>289.60000610352</ele>
        <time>2023-06-23T09:55:28Z</time>
      </trkpt>
      <trkpt lat="49.39365" lon="5.83004">
        <ele>289.39999389648</ele>
        <time>2023-06-23T09:55:29Z</time>
      </trkpt>
      <trkpt lat="49.39364" lon="5.83">
        <ele>289.20001220703</ele>
        <time>2023-06-23T09:55:30Z</time>
      </trkpt>
      <trkpt lat="49.39362" lon="5.8299">
        <ele>289</ele>
        <time>2023-06-23T09:55:32Z</time>
      </trkpt>
      <trkpt lat="49.3936" lon="5.82986">
        <ele>289</ele>
        <time>2023-06-23T09:55:33Z</time>
      </trkpt>
      <trkpt lat="49.39357" lon="5.82982">
        <ele>289</ele>
        <time>2023-06-23T09:55:34Z</time>
      </trkpt>
      <trkpt lat="49.3935" lon="5.82974">
        <ele>288.60000610352</ele>
        <time>2023-06-23T09:55:36Z</time>
      </trkpt>
      <trkpt lat="49.39344" lon="5.82963">
        <ele>287.79998779297</ele>
        <time>2023-06-23T09:55:38Z</time>
      </trkpt>
      <trkpt lat="49.39341" lon="5.82958">
        <ele>287.39999389648</ele>
        <time>2023-06-23T09:55:39Z</time>
      </trkpt>
      <trkpt lat="49.39338" lon="5.82952">
        <ele>286.79998779297</ele>
        <time>2023-06-23T09:55:40Z</time>
      </trkpt>
      <trkpt lat="49.39334" lon="5.82945">
        <ele>286.39999389648</ele>
        <time>2023-06-23T09:55:41Z</time>
      </trkpt>
      <trkpt lat="49.39331" lon="5.82938">
        <ele>285.79998779297</ele>
        <time>2023-06-23T09:55:42Z</time>
      </trkpt>
      <trkpt lat="49.39325" lon="5.82931">
        <ele>285.20001220703</ele>
        <time>2023-06-23T09:55:43Z</time>
      </trkpt>
      <trkpt lat="49.39318" lon="5.82924">
        <ele>283.60000610352</ele>
        <time>2023-06-23T09:55:44Z</time>
      </trkpt>
      <trkpt lat="49.39312" lon="5.82915">
        <ele>283.20001220703</ele>
        <time>2023-06-23T09:55:45Z</time>
      </trkpt>
      <trkpt lat="49.39305" lon="5.82905">
        <ele>282.39999389648</ele>
        <time>2023-06-23T09:55:46Z</time>
      </trkpt>
      <trkpt lat="49.39299" lon="5.82897">
        <ele>281.20001220703</ele>
        <time>2023-06-23T09:55:47Z</time>
      </trkpt>
      <trkpt lat="49.39293" lon="5.82889">
        <ele>280</ele>
        <time>2023-06-23T09:55:48Z</time>
      </trkpt>
      <trkpt lat="49.39288" lon="5.82881">
        <ele>279</ele>
        <time>2023-06-23T09:55:49Z</time>
      </trkpt>
      <trkpt lat="49.39285" lon="5.82872">
        <ele>277.60000610352</ele>
        <time>2023-06-23T09:55:50Z</time>
      </trkpt>
      <trkpt lat="49.39283" lon="5.82863">
        <ele>276.39999389648</ele>
        <time>2023-06-23T09:55:51Z</time>
      </trkpt>
      <trkpt lat="49.39281" lon="5.82853">
        <ele>274.60000610352</ele>
        <time>2023-06-23T09:55:52Z</time>
      </trkpt>
      <trkpt lat="49.39278" lon="5.82846">
        <ele>273.39999389648</ele>
        <time>2023-06-23T09:55:53Z</time>
      </trkpt>
      <trkpt lat="49.39275" lon="5.82839">
        <ele>272.20001220703</ele>
        <time>2023-06-23T09:55:54Z</time>
      </trkpt>
      <trkpt lat="49.39272" lon="5.82834">
        <ele>270.79998779297</ele>
        <time>2023-06-23T09:55:55Z</time>
      </trkpt>
      <trkpt lat="49.39271" lon="5.82829">
        <ele>269.20001220703</ele>
        <time>2023-06-23T09:55:56Z</time>
      </trkpt>
      <trkpt lat="49.39272" lon="5.82825">
        <ele>268.60000610352</ele>
        <time>2023-06-23T09:55:57Z</time>
      </trkpt>
      <trkpt lat="49.39273" lon="5.8282">
        <ele>268.20001220703</ele>
        <time>2023-06-23T09:55:58Z</time>
      </trkpt>
      <trkpt lat="49.39275" lon="5.82811">
        <ele>268</ele>
        <time>2023-06-23T09:56:00Z</time>
      </trkpt>
      <trkpt lat="49.39278" lon="5.82803">
        <ele>267.79998779297</ele>
        <time>2023-06-23T09:56:02Z</time>
      </trkpt>
      <trkpt lat="49.39281" lon="5.82795">
        <ele>267.79998779297</ele>
        <time>2023-06-23T09:56:04Z</time>
      </trkpt>
      <trkpt lat="49.39283" lon="5.82788">
        <ele>268</ele>
        <time>2023-06-23T09:56:06Z</time>
      </trkpt>
      <trkpt lat="49.39286" lon="5.82781">
        <ele>268.39999389648</ele>
        <time>2023-06-23T09:56:08Z</time>
      </trkpt>
      <trkpt lat="49.39286" lon="5.82772">
        <ele>268.79998779297</ele>
        <time>2023-06-23T09:56:10Z</time>
      </trkpt>
      <trkpt lat="49.39287" lon="5.82769">
        <ele>269.39999389648</ele>
        <time>2023-06-23T09:56:11Z</time>
      </trkpt>
      <trkpt lat="49.39288" lon="5.82767">
        <ele>269.60000610352</ele>
        <time>2023-06-23T09:56:12Z</time>
      </trkpt>
      <trkpt lat="49.3929" lon="5.82762">
        <ele>270.20001220703</ele>
        <time>2023-06-23T09:56:14Z</time>
      </trkpt>
      <trkpt lat="49.39291" lon="5.82759">
        <ele>270.39999389648</ele>
        <time>2023-06-23T09:56:15Z</time>
      </trkpt>
      <trkpt lat="49.39292" lon="5.82758">
        <ele>270.79998779297</ele>
        <time>2023-06-23T09:56:16Z</time>
      </trkpt>
      <trkpt lat="49.39293" lon="5.82755">
        <ele>271.20001220703</ele>
        <time>2023-06-23T09:56:17Z</time>
      </trkpt>
      <trkpt lat="49.39294" lon="5.82753">
        <ele>271.60000610352</ele>
        <time>2023-06-23T09:56:18Z</time>
      </trkpt>
      <trkpt lat="49.39297" lon="5.8275">
        <ele>272.20001220703</ele>
        <time>2023-06-23T09:56:20Z</time>
      </trkpt>
      <trkpt lat="49.39299" lon="5.82745">
        <ele>272.79998779297</ele>
        <time>2023-06-23T09:56:22Z</time>
      </trkpt>
      <trkpt lat="49.39299" lon="5.82743">
        <ele>273.20001220703</ele>
        <time>2023-06-23T09:56:23Z</time>
      </trkpt>
      <trkpt lat="49.393" lon="5.82741">
        <ele>273.39999389648</ele>
        <time>2023-06-23T09:56:24Z</time>
      </trkpt>
      <trkpt lat="49.39302" lon="5.82738">
        <ele>273.79998779297</ele>
        <time>2023-06-23T09:56:26Z</time>
      </trkpt>
      <trkpt lat="49.39303" lon="5.82736">
        <ele>274</ele>
        <time>2023-06-23T09:56:27Z</time>
      </trkpt>
      <trkpt lat="49.39304" lon="5.82735">
        <ele>274.20001220703</ele>
        <time>2023-06-23T09:56:28Z</time>
      </trkpt>
      <trkpt lat="49.39305" lon="5.82732">
        <ele>274.60000610352</ele>
        <time>2023-06-23T09:56:29Z</time>
      </trkpt>
      <trkpt lat="49.39306" lon="5.82731">
        <ele>274.79998779297</ele>
        <time>2023-06-23T09:56:30Z</time>
      </trkpt>
      <trkpt lat="49.39307" lon="5.8273">
        <ele>275.20001220703</ele>
        <time>2023-06-23T09:56:31Z</time>
      </trkpt>
      <trkpt lat="49.39308" lon="5.82728">
        <ele>275.60000610352</ele>
        <time>2023-06-23T09:56:32Z</time>
      </trkpt>
      <trkpt lat="49.3931" lon="5.82726">
        <ele>276.20001220703</ele>
        <time>2023-06-23T09:56:34Z</time>
      </trkpt>
      <trkpt lat="49.39311" lon="5.82725">
        <ele>276.39999389648</ele>
        <time>2023-06-23T09:56:35Z</time>
      </trkpt>
      <trkpt lat="49.39313" lon="5.82724">
        <ele>276.60000610352</ele>
        <time>2023-06-23T09:56:36Z</time>
      </trkpt>
      <trkpt lat="49.39315" lon="5.82721">
        <ele>277.20001220703</ele>
        <time>2023-06-23T09:56:38Z</time>
      </trkpt>
      <trkpt lat="49.39315" lon="5.82718">
        <ele>277.79998779297</ele>
        <time>2023-06-23T09:56:39Z</time>
      </trkpt>
      <trkpt lat="49.39316" lon="5.82716">
        <ele>278</ele>
        <time>2023-06-23T09:56:40Z</time>
      </trkpt>
      <trkpt lat="49.39317" lon="5.82712">
        <ele>278.39999389648</ele>
        <time>2023-06-23T09:56:42Z</time>
      </trkpt>
      <trkpt lat="49.39318" lon="5.8271">
        <ele>278.60000610352</ele>
        <time>2023-06-23T09:56:43Z</time>
      </trkpt>
      <trkpt lat="49.39318" lon="5.82707">
        <ele>279</ele>
        <time>2023-06-23T09:56:44Z</time>
      </trkpt>
      <trkpt lat="49.39319" lon="5.82706">
        <ele>279.39999389648</ele>
        <time>2023-06-23T09:56:45Z</time>
      </trkpt>
      <trkpt lat="49.3932" lon="5.82705">
        <ele>279.60000610352</ele>
        <time>2023-06-23T09:56:46Z</time>
      </trkpt>
      <trkpt lat="49.39322" lon="5.82703">
        <ele>280.20001220703</ele>
        <time>2023-06-23T09:56:48Z</time>
      </trkpt>
      <trkpt lat="49.39324" lon="5.82701">
        <ele>280.60000610352</ele>
        <time>2023-06-23T09:56:50Z</time>
      </trkpt>
      <trkpt lat="49.39326" lon="5.82699">
        <ele>281</ele>
        <time>2023-06-23T09:56:52Z</time>
      </trkpt>
      <trkpt lat="49.39326" lon="5.82698">
        <ele>281.20001220703</ele>
        <time>2023-06-23T09:56:53Z</time>
      </trkpt>
      <trkpt lat="49.39327" lon="5.82697">
        <ele>281.39999389648</ele>
        <time>2023-06-23T09:56:54Z</time>
      </trkpt>
      <trkpt lat="49.39329" lon="5.82695">
        <ele>281.79998779297</ele>
        <time>2023-06-23T09:56:56Z</time>
      </trkpt>
      <trkpt lat="49.3933" lon="5.82694">
        <ele>281.79998779297</ele>
        <time>2023-06-23T09:56:57Z</time>
      </trkpt>
      <trkpt lat="49.39331" lon="5.82692">
        <ele>282</ele>
        <time>2023-06-23T09:56:58Z</time>
      </trkpt>
      <trkpt lat="49.39332" lon="5.8269">
        <ele>282.39999389648</ele>
        <time>2023-06-23T09:57:00Z</time>
      </trkpt>
      <trkpt lat="49.39334" lon="5.82687">
        <ele>282.60000610352</ele>
        <time>2023-06-23T09:57:02Z</time>
      </trkpt>
      <trkpt lat="49.39337" lon="5.82685">
        <ele>282.79998779297</ele>
        <time>2023-06-23T09:57:04Z</time>
      </trkpt>
      <trkpt lat="49.39338" lon="5.82683">
        <ele>282.79998779297</ele>
        <time>2023-06-23T09:57:05Z</time>
      </trkpt>
      <trkpt lat="49.39339" lon="5.82682">
        <ele>283</ele>
        <time>2023-06-23T09:57:06Z</time>
      </trkpt>
      <trkpt lat="49.39341" lon="5.82679">
        <ele>283.20001220703</ele>
        <time>2023-06-23T09:57:08Z</time>
      </trkpt>
      <trkpt lat="49.39342" lon="5.82678">
        <ele>283.39999389648</ele>
        <time>2023-06-23T09:57:09Z</time>
      </trkpt>
      <trkpt lat="49.39343" lon="5.82676">
        <ele>283.60000610352</ele>
        <time>2023-06-23T09:57:10Z</time>
      </trkpt>
      <trkpt lat="49.39345" lon="5.82673">
        <ele>283.60000610352</ele>
        <time>2023-06-23T09:57:12Z</time>
      </trkpt>
      <trkpt lat="49.39348" lon="5.82671">
        <ele>283.79998779297</ele>
        <time>2023-06-23T09:57:14Z</time>
      </trkpt>
      <trkpt lat="49.39349" lon="5.82671">
        <ele>284</ele>
        <time>2023-06-23T09:57:15Z</time>
      </trkpt>
      <trkpt lat="49.3935" lon="5.8267">
        <ele>284.20001220703</ele>
        <time>2023-06-23T09:57:16Z</time>
      </trkpt>
      <trkpt lat="49.39353" lon="5.82669">
        <ele>284.39999389648</ele>
        <time>2023-06-23T09:57:18Z</time>
      </trkpt>
      <trkpt lat="49.39356" lon="5.82669">
        <ele>284.60000610352</ele>
        <time>2023-06-23T09:57:20Z</time>
      </trkpt>
      <trkpt lat="49.39358" lon="5.8267">
        <ele>284.79998779297</ele>
        <time>2023-06-23T09:57:22Z</time>
      </trkpt>
      <trkpt lat="49.39361" lon="5.82671">
        <ele>285</ele>
        <time>2023-06-23T09:57:24Z</time>
      </trkpt>
      <trkpt lat="49.39363" lon="5.82671">
        <ele>285.39999389648</ele>
        <time>2023-06-23T09:57:26Z</time>
      </trkpt>
      <trkpt lat="49.39364" lon="5.82671">
        <ele>285.60000610352</ele>
        <time>2023-06-23T09:57:27Z</time>
      </trkpt>
      <trkpt lat="49.39365" lon="5.82671">
        <ele>285.60000610352</ele>
        <time>2023-06-23T09:57:28Z</time>
      </trkpt>
      <trkpt lat="49.39368" lon="5.82671">
        <ele>286</ele>
        <time>2023-06-23T09:57:30Z</time>
      </trkpt>
      <trkpt lat="49.3937" lon="5.82672">
        <ele>286.20001220703</ele>
        <time>2023-06-23T09:57:32Z</time>
      </trkpt>
      <trkpt lat="49.39373" lon="5.82672">
        <ele>286.60000610352</ele>
        <time>2023-06-23T09:57:34Z</time>
      </trkpt>
      <trkpt lat="49.39375" lon="5.82672">
        <ele>286.79998779297</ele>
        <time>2023-06-23T09:57:35Z</time>
      </trkpt>
      <trkpt lat="49.39376" lon="5.82672">
        <ele>286.79998779297</ele>
        <time>2023-06-23T09:57:36Z</time>
      </trkpt>
      <trkpt lat="49.39379" lon="5.82674">
        <ele>287.39999389648</ele>
        <time>2023-06-23T09:57:38Z</time>
      </trkpt>
      <trkpt lat="49.39381" lon="5.82674">
        <ele>287.60000610352</ele>
        <time>2023-06-23T09:57:40Z</time>
      </trkpt>
      <trkpt lat="49.39382" lon="5.82675">
        <ele>287.79998779297</ele>
        <time>2023-06-23T09:57:41Z</time>
      </trkpt>
      <trkpt lat="49.39384" lon="5.82675">
        <ele>287.79998779297</ele>
        <time>2023-06-23T09:57:42Z</time>
      </trkpt>
      <trkpt lat="49.39385" lon="5.82675">
        <ele>287.79998779297</ele>
        <time>2023-06-23T09:57:43Z</time>
      </trkpt>
      <trkpt lat="49.39387" lon="5.82675">
        <ele>288</ele>
        <time>2023-06-23T09:57:44Z</time>
      </trkpt>
      <trkpt lat="49.39389" lon="5.82676">
        <ele>288.39999389648</ele>
        <time>2023-06-23T09:57:46Z</time>
      </trkpt>
      <trkpt lat="49.39392" lon="5.82677">
        <ele>289</ele>
        <time>2023-06-23T09:57:48Z</time>
      </trkpt>
      <trkpt lat="49.39394" lon="5.82678">
        <ele>289.60000610352</ele>
        <time>2023-06-23T09:57:50Z</time>
      </trkpt>
      <trkpt lat="49.39396" lon="5.82678">
        <ele>290</ele>
        <time>2023-06-23T09:57:52Z</time>
      </trkpt>
      <trkpt lat="49.39398" lon="5.82678">
        <ele>290.20001220703</ele>
        <time>2023-06-23T09:57:53Z</time>
      </trkpt>
      <trkpt lat="49.39399" lon="5.82678">
        <ele>290.39999389648</ele>
        <time>2023-06-23T09:57:54Z</time>
      </trkpt>
      <trkpt lat="49.39401" lon="5.82678">
        <ele>290.60000610352</ele>
        <time>2023-06-23T09:57:56Z</time>
      </trkpt>
      <trkpt lat="49.39402" lon="5.82678">
        <ele>291</ele>
        <time>2023-06-23T09:57:58Z</time>
      </trkpt>
      <trkpt lat="49.39402" lon="5.82678">
        <ele>291.20001220703</ele>
        <time>2023-06-23T09:57:59Z</time>
      </trkpt>
      <trkpt lat="49.39403" lon="5.82678">
        <ele>291.20001220703</ele>
        <time>2023-06-23T09:58:00Z</time>
      </trkpt>
      <trkpt lat="49.39403" lon="5.82678">
        <ele>291.79998779297</ele>
        <time>2023-06-23T09:58:02Z</time>
      </trkpt>
      <trkpt lat="49.39404" lon="5.82678">
        <ele>291.79998779297</ele>
        <time>2023-06-23T09:58:04Z</time>
      </trkpt>
      <trkpt lat="49.39405" lon="5.82678">
        <ele>291.79998779297</ele>
        <time>2023-06-23T09:58:06Z</time>
      </trkpt>
      <trkpt lat="49.39405" lon="5.82678">
        <ele>291.79998779297</ele>
        <time>2023-06-23T09:58:08Z</time>
      </trkpt>
      <trkpt lat="49.39404" lon="5.82678">
        <ele>291.79998779297</ele>
        <time>2023-06-23T09:58:10Z</time>
      </trkpt>
      <trkpt lat="49.39402" lon="5.82678">
        <ele>291.79998779297</ele>
        <time>2023-06-23T09:58:12Z</time>
      </trkpt>
      <trkpt lat="49.39399" lon="5.82679">
        <ele>291.60000610352</ele>
        <time>2023-06-23T09:58:14Z</time>
      </trkpt>
      <trkpt lat="49.39396" lon="5.82679">
        <ele>291.60000610352</ele>
        <time>2023-06-23T09:58:15Z</time>
      </trkpt>
      <trkpt lat="49.39393" lon="5.82679">
        <ele>291.39999389648</ele>
        <time>2023-06-23T09:58:16Z</time>
      </trkpt>
      <trkpt lat="49.39386" lon="5.82677">
        <ele>291.20001220703</ele>
        <time>2023-06-23T09:58:18Z</time>
      </trkpt>
      <trkpt lat="49.39382" lon="5.82676">
        <ele>291.20001220703</ele>
        <time>2023-06-23T09:58:19Z</time>
      </trkpt>
      <trkpt lat="49.39378" lon="5.82675">
        <ele>291</ele>
        <time>2023-06-23T09:58:20Z</time>
      </trkpt>
      <trkpt lat="49.39371" lon="5.82673">
        <ele>290.39999389648</ele>
        <time>2023-06-23T09:58:22Z</time>
      </trkpt>
      <trkpt lat="49.39368" lon="5.8267">
        <ele>290</ele>
        <time>2023-06-23T09:58:23Z</time>
      </trkpt>
      <trkpt lat="49.39367" lon="5.82666">
        <ele>289.39999389648</ele>
        <time>2023-06-23T09:58:24Z</time>
      </trkpt>
      <trkpt lat="49.39367" lon="5.82662">
        <ele>288.79998779297</ele>
        <time>2023-06-23T09:58:25Z</time>
      </trkpt>
      <trkpt lat="49.39369" lon="5.82657">
        <ele>288.39999389648</ele>
        <time>2023-06-23T09:58:26Z</time>
      </trkpt>
      <trkpt lat="49.39372" lon="5.82652">
        <ele>287.79998779297</ele>
        <time>2023-06-23T09:58:27Z</time>
      </trkpt>
      <trkpt lat="49.39376" lon="5.82647">
        <ele>286.79998779297</ele>
        <time>2023-06-23T09:58:28Z</time>
      </trkpt>
      <trkpt lat="49.3938" lon="5.82642">
        <ele>286.60000610352</ele>
        <time>2023-06-23T09:58:29Z</time>
      </trkpt>
      <trkpt lat="49.39383" lon="5.82639">
        <ele>286.20001220703</ele>
        <time>2023-06-23T09:58:30Z</time>
      </trkpt>
      <trkpt lat="49.39386" lon="5.82636">
        <ele>286</ele>
        <time>2023-06-23T09:58:31Z</time>
      </trkpt>
      <trkpt lat="49.39389" lon="5.82634">
        <ele>285.60000610352</ele>
        <time>2023-06-23T09:58:32Z</time>
      </trkpt>
      <trkpt lat="49.3939" lon="5.82632">
        <ele>284.79998779297</ele>
        <time>2023-06-23T09:58:33Z</time>
      </trkpt>
      <trkpt lat="49.39392" lon="5.82631">
        <ele>284</ele>
        <time>2023-06-23T09:58:34Z</time>
      </trkpt>
      <trkpt lat="49.39392" lon="5.8263">
        <ele>283.20001220703</ele>
        <time>2023-06-23T09:58:35Z</time>
      </trkpt>
      <trkpt lat="49.39393" lon="5.82629">
        <ele>282.60000610352</ele>
        <time>2023-06-23T09:58:36Z</time>
      </trkpt>
      <trkpt lat="49.39392" lon="5.82628">
        <ele>282.20001220703</ele>
        <time>2023-06-23T09:58:37Z</time>
      </trkpt>
      <trkpt lat="49.39392" lon="5.82628">
        <ele>281</ele>
        <time>2023-06-23T09:58:38Z</time>
      </trkpt>
      <trkpt lat="49.39392" lon="5.82626">
        <ele>280.39999389648</ele>
        <time>2023-06-23T09:58:39Z</time>
      </trkpt>
      <trkpt lat="49.39392" lon="5.82625">
        <ele>280.20001220703</ele>
        <time>2023-06-23T09:58:40Z</time>
      </trkpt>
      <trkpt lat="49.39392" lon="5.82625">
        <ele>280</ele>
        <time>2023-06-23T09:58:42Z</time>
      </trkpt>
      <trkpt lat="49.39392" lon="5.82625">
        <ele>279.79998779297</ele>
        <time>2023-06-23T09:58:44Z</time>
      </trkpt>
      <trkpt lat="49.39394" lon="5.82624">
        <ele>279.79998779297</ele>
        <time>2023-06-23T09:58:46Z</time>
      </trkpt>
      <trkpt lat="49.39396" lon="5.82624">
        <ele>279.79998779297</ele>
        <time>2023-06-23T09:58:47Z</time>
      </trkpt>
      <trkpt lat="49.39399" lon="5.82623">
        <ele>279.79998779297</ele>
        <time>2023-06-23T09:58:48Z</time>
      </trkpt>
      <trkpt lat="49.39405" lon="5.82621">
        <ele>279.79998779297</ele>
        <time>2023-06-23T09:58:50Z</time>
      </trkpt>
      <trkpt lat="49.39411" lon="5.82619">
        <ele>279.79998779297</ele>
        <time>2023-06-23T09:58:52Z</time>
      </trkpt>
      <trkpt lat="49.39419" lon="5.82616">
        <ele>279.60000610352</ele>
        <time>2023-06-23T09:58:54Z</time>
      </trkpt>
      <trkpt lat="49.39426" lon="5.82615">
        <ele>278.79998779297</ele>
        <time>2023-06-23T09:58:56Z</time>
      </trkpt>
      <trkpt lat="49.3943" lon="5.82613">
        <ele>278.60000610352</ele>
        <time>2023-06-23T09:58:57Z</time>
      </trkpt>
      <trkpt lat="49.39434" lon="5.82611">
        <ele>278.20001220703</ele>
        <time>2023-06-23T09:58:58Z</time>
      </trkpt>
      <trkpt lat="49.39443" lon="5.82608">
        <ele>277.39999389648</ele>
        <time>2023-06-23T09:59:00Z</time>
      </trkpt>
      <trkpt lat="49.39451" lon="5.82606">
        <ele>276.60000610352</ele>
        <time>2023-06-23T09:59:02Z</time>
      </trkpt>
      <trkpt lat="49.39454" lon="5.82605">
        <ele>276.20001220703</ele>
        <time>2023-06-23T09:59:03Z</time>
      </trkpt>
      <trkpt lat="49.39457" lon="5.82604">
        <ele>276</ele>
        <time>2023-06-23T09:59:04Z</time>
      </trkpt>
      <trkpt lat="49.39465" lon="5.82601">
        <ele>275.60000610352</ele>
        <time>2023-06-23T09:59:06Z</time>
      </trkpt>
      <trkpt lat="49.39474" lon="5.82598">
        <ele>275.39999389648</ele>
        <time>2023-06-23T09:59:08Z</time>
      </trkpt>
      <trkpt lat="49.39479" lon="5.82595">
        <ele>275.20001220703</ele>
        <time>2023-06-23T09:59:09Z</time>
      </trkpt>
      <trkpt lat="49.39483" lon="5.82592">
        <ele>275.20001220703</ele>
        <time>2023-06-23T09:59:10Z</time>
      </trkpt>
      <trkpt lat="49.39487" lon="5.82588">
        <ele>274.79998779297</ele>
        <time>2023-06-23T09:59:11Z</time>
      </trkpt>
      <trkpt lat="49.39491" lon="5.82585">
        <ele>274.60000610352</ele>
        <time>2023-06-23T09:59:12Z</time>
      </trkpt>
      <trkpt lat="49.395" lon="5.82581">
        <ele>273.60000610352</ele>
        <time>2023-06-23T09:59:14Z</time>
      </trkpt>
      <trkpt lat="49.39505" lon="5.82579">
        <ele>273.20001220703</ele>
        <time>2023-06-23T09:59:15Z</time>
      </trkpt>
      <trkpt lat="49.3951" lon="5.82577">
        <ele>272.60000610352</ele>
        <time>2023-06-23T09:59:16Z</time>
      </trkpt>
      <trkpt lat="49.39516" lon="5.82574">
        <ele>272.39999389648</ele>
        <time>2023-06-23T09:59:17Z</time>
      </trkpt>
      <trkpt lat="49.39521" lon="5.82572">
        <ele>272</ele>
        <time>2023-06-23T09:59:18Z</time>
      </trkpt>
      <trkpt lat="49.3953" lon="5.82567">
        <ele>271.39999389648</ele>
        <time>2023-06-23T09:59:20Z</time>
      </trkpt>
      <trkpt lat="49.39535" lon="5.82564">
        <ele>271</ele>
        <time>2023-06-23T09:59:21Z</time>
      </trkpt>
      <trkpt lat="49.39539" lon="5.82561">
        <ele>270.79998779297</ele>
        <time>2023-06-23T09:59:22Z</time>
      </trkpt>
      <trkpt lat="49.39548" lon="5.82554">
        <ele>270.60000610352</ele>
        <time>2023-06-23T09:59:24Z</time>
      </trkpt>
      <trkpt lat="49.39551" lon="5.82548">
        <ele>270.60000610352</ele>
        <time>2023-06-23T09:59:25Z</time>
      </trkpt>
      <trkpt lat="49.39556" lon="5.82541">
        <ele>270.60000610352</ele>
        <time>2023-06-23T09:59:26Z</time>
      </trkpt>
      <trkpt lat="49.39564" lon="5.82535">
        <ele>270.39999389648</ele>
        <time>2023-06-23T09:59:27Z</time>
      </trkpt>
      <trkpt lat="49.39572" lon="5.82529">
        <ele>270.20001220703</ele>
        <time>2023-06-23T09:59:28Z</time>
      </trkpt>
      <trkpt lat="49.39586" lon="5.82517">
        <ele>270</ele>
        <time>2023-06-23T09:59:30Z</time>
      </trkpt>
      <trkpt lat="49.39597" lon="5.82506">
        <ele>269</ele>
        <time>2023-06-23T09:59:32Z</time>
      </trkpt>
      <trkpt lat="49.39609" lon="5.82496">
        <ele>268</ele>
        <time>2023-06-23T09:59:34Z</time>
      </trkpt>
      <trkpt lat="49.39615" lon="5.82492">
        <ele>267.20001220703</ele>
        <time>2023-06-23T09:59:35Z</time>
      </trkpt>
      <trkpt lat="49.39622" lon="5.82488">
        <ele>266.39999389648</ele>
        <time>2023-06-23T09:59:36Z</time>
      </trkpt>
      <trkpt lat="49.39633" lon="5.82479">
        <ele>265.60000610352</ele>
        <time>2023-06-23T09:59:38Z</time>
      </trkpt>
      <trkpt lat="49.39643" lon="5.8247">
        <ele>265.39999389648</ele>
        <time>2023-06-23T09:59:40Z</time>
      </trkpt>
      <trkpt lat="49.39652" lon="5.82461">
        <ele>265.20001220703</ele>
        <time>2023-06-23T09:59:42Z</time>
      </trkpt>
      <trkpt lat="49.39658" lon="5.82455">
        <ele>265.20001220703</ele>
        <time>2023-06-23T09:59:44Z</time>
      </trkpt>
      <trkpt lat="49.3966" lon="5.82452">
        <ele>265.20001220703</ele>
        <time>2023-06-23T09:59:46Z</time>
      </trkpt>
      <trkpt lat="49.39664" lon="5.82448">
        <ele>265.39999389648</ele>
        <time>2023-06-23T09:59:48Z</time>
      </trkpt>
      <trkpt lat="49.39666" lon="5.82444">
        <ele>265.79998779297</ele>
        <time>2023-06-23T09:59:50Z</time>
      </trkpt>
      <trkpt lat="49.39668" lon="5.82442">
        <ele>266.60000610352</ele>
        <time>2023-06-23T09:59:51Z</time>
      </trkpt>
      <trkpt lat="49.3967" lon="5.8244">
        <ele>267.20001220703</ele>
        <time>2023-06-23T09:59:52Z</time>
      </trkpt>
      <trkpt lat="49.39672" lon="5.82439">
        <ele>267.60000610352</ele>
        <time>2023-06-23T09:59:53Z</time>
      </trkpt>
      <trkpt lat="49.39674" lon="5.82437">
        <ele>268.20001220703</ele>
        <time>2023-06-23T09:59:54Z</time>
      </trkpt>
      <trkpt lat="49.39678" lon="5.82434">
        <ele>269</ele>
        <time>2023-06-23T09:59:56Z</time>
      </trkpt>
      <trkpt lat="49.39681" lon="5.82431">
        <ele>269.79998779297</ele>
        <time>2023-06-23T09:59:58Z</time>
      </trkpt>
      <trkpt lat="49.39682" lon="5.8243">
        <ele>270.20001220703</ele>
        <time>2023-06-23T09:59:59Z</time>
      </trkpt>
      <trkpt lat="49.39683" lon="5.82428">
        <ele>270.39999389648</ele>
        <time>2023-06-23T10:00:00Z</time>
      </trkpt>
      <trkpt lat="49.39685" lon="5.82425">
        <ele>271</ele>
        <time>2023-06-23T10:00:02Z</time>
      </trkpt>
      <trkpt lat="49.39687" lon="5.82424">
        <ele>271.20001220703</ele>
        <time>2023-06-23T10:00:03Z</time>
      </trkpt>
      <trkpt lat="49.39688" lon="5.82422">
        <ele>271.60000610352</ele>
        <time>2023-06-23T10:00:04Z</time>
      </trkpt>
      <trkpt lat="49.3969" lon="5.8242">
        <ele>272</ele>
        <time>2023-06-23T10:00:06Z</time>
      </trkpt>
      <trkpt lat="49.39691" lon="5.82418">
        <ele>272.20001220703</ele>
        <time>2023-06-23T10:00:07Z</time>
      </trkpt>
      <trkpt lat="49.39692" lon="5.82417">
        <ele>272.39999389648</ele>
        <time>2023-06-23T10:00:08Z</time>
      </trkpt>
      <trkpt lat="49.39694" lon="5.82415">
        <ele>273</ele>
        <time>2023-06-23T10:00:10Z</time>
      </trkpt>
      <trkpt lat="49.39697" lon="5.82413">
        <ele>273.39999389648</ele>
        <time>2023-06-23T10:00:12Z</time>
      </trkpt>
      <trkpt lat="49.39699" lon="5.82411">
        <ele>274</ele>
        <time>2023-06-23T10:00:14Z</time>
      </trkpt>
      <trkpt lat="49.39701" lon="5.82408">
        <ele>274.20001220703</ele>
        <time>2023-06-23T10:00:16Z</time>
      </trkpt>
      <trkpt lat="49.39702" lon="5.82407">
        <ele>274.79998779297</ele>
        <time>2023-06-23T10:00:17Z</time>
      </trkpt>
      <trkpt lat="49.39702" lon="5.82406">
        <ele>275</ele>
        <time>2023-06-23T10:00:18Z</time>
      </trkpt>
      <trkpt lat="49.39704" lon="5.82403">
        <ele>275.39999389648</ele>
        <time>2023-06-23T10:00:20Z</time>
      </trkpt>
      <trkpt lat="49.39705" lon="5.82401">
        <ele>275.79998779297</ele>
        <time>2023-06-23T10:00:22Z</time>
      </trkpt>
      <trkpt lat="49.39706" lon="5.82399">
        <ele>276.39999389648</ele>
        <time>2023-06-23T10:00:24Z</time>
      </trkpt>
      <trkpt lat="49.39708" lon="5.82396">
        <ele>276.79998779297</ele>
        <time>2023-06-23T10:00:26Z</time>
      </trkpt>
      <trkpt lat="49.39708" lon="5.82396">
        <ele>277</ele>
        <time>2023-06-23T10:00:27Z</time>
      </trkpt>
      <trkpt lat="49.39709" lon="5.82395">
        <ele>277.20001220703</ele>
        <time>2023-06-23T10:00:28Z</time>
      </trkpt>
      <trkpt lat="49.39711" lon="5.82392">
        <ele>277.60000610352</ele>
        <time>2023-06-23T10:00:30Z</time>
      </trkpt>
      <trkpt lat="49.39713" lon="5.8239">
        <ele>277.79998779297</ele>
        <time>2023-06-23T10:00:32Z</time>
      </trkpt>
      <trkpt lat="49.39713" lon="5.82389">
        <ele>278</ele>
        <time>2023-06-23T10:00:33Z</time>
      </trkpt>
      <trkpt lat="49.39714" lon="5.82388">
        <ele>278.39999389648</ele>
        <time>2023-06-23T10:00:34Z</time>
      </trkpt>
      <trkpt lat="49.39716" lon="5.82386">
        <ele>279</ele>
        <time>2023-06-23T10:00:36Z</time>
      </trkpt>
      <trkpt lat="49.39717" lon="5.82384">
        <ele>279.20001220703</ele>
        <time>2023-06-23T10:00:37Z</time>
      </trkpt>
      <trkpt lat="49.39718" lon="5.82383">
        <ele>279.39999389648</ele>
        <time>2023-06-23T10:00:38Z</time>
      </trkpt>
      <trkpt lat="49.39718" lon="5.82382">
        <ele>279.79998779297</ele>
        <time>2023-06-23T10:00:39Z</time>
      </trkpt>
      <trkpt lat="49.39719" lon="5.8238">
        <ele>280</ele>
        <time>2023-06-23T10:00:40Z</time>
      </trkpt>
      <trkpt lat="49.39721" lon="5.82377">
        <ele>280.20001220703</ele>
        <time>2023-06-23T10:00:42Z</time>
      </trkpt>
      <trkpt lat="49.39722" lon="5.82373">
        <ele>280.79998779297</ele>
        <time>2023-06-23T10:00:44Z</time>
      </trkpt>
      <trkpt lat="49.39723" lon="5.82369">
        <ele>281</ele>
        <time>2023-06-23T10:00:46Z</time>
      </trkpt>
      <trkpt lat="49.39724" lon="5.82365">
        <ele>281.39999389648</ele>
        <time>2023-06-23T10:00:48Z</time>
      </trkpt>
      <trkpt lat="49.39724" lon="5.82361">
        <ele>281.60000610352</ele>
        <time>2023-06-23T10:00:50Z</time>
      </trkpt>
      <trkpt lat="49.39724" lon="5.82359">
        <ele>281.60000610352</ele>
        <time>2023-06-23T10:00:51Z</time>
      </trkpt>
      <trkpt lat="49.39725" lon="5.82357">
        <ele>281.79998779297</ele>
        <time>2023-06-23T10:00:52Z</time>
      </trkpt>
      <trkpt lat="49.39725" lon="5.82353">
        <ele>282</ele>
        <time>2023-06-23T10:00:54Z</time>
      </trkpt>
      <trkpt lat="49.39726" lon="5.82348">
        <ele>282.39999389648</ele>
        <time>2023-06-23T10:00:56Z</time>
      </trkpt>
      <trkpt lat="49.39727" lon="5.82346">
        <ele>282.39999389648</ele>
        <time>2023-06-23T10:00:57Z</time>
      </trkpt>
      <trkpt lat="49.39727" lon="5.82344">
        <ele>282.39999389648</ele>
        <time>2023-06-23T10:00:58Z</time>
      </trkpt>
      <trkpt lat="49.39728" lon="5.82338">
        <ele>282.60000610352</ele>
        <time>2023-06-23T10:01:00Z</time>
      </trkpt>
      <trkpt lat="49.39728" lon="5.82333">
        <ele>282.79998779297</ele>
        <time>2023-06-23T10:01:02Z</time>
      </trkpt>
      <trkpt lat="49.39728" lon="5.82328">
        <ele>282.79998779297</ele>
        <time>2023-06-23T10:01:04Z</time>
      </trkpt>
      <trkpt lat="49.39728" lon="5.82322">
        <ele>282.79998779297</ele>
        <time>2023-06-23T10:01:06Z</time>
      </trkpt>
      <trkpt lat="49.39728" lon="5.82315">
        <ele>283</ele>
        <time>2023-06-23T10:01:08Z</time>
      </trkpt>
      <trkpt lat="49.39727" lon="5.82312">
        <ele>283</ele>
        <time>2023-06-23T10:01:09Z</time>
      </trkpt>
      <trkpt lat="49.39727" lon="5.82308">
        <ele>283</ele>
        <time>2023-06-23T10:01:10Z</time>
      </trkpt>
      <trkpt lat="49.39726" lon="5.82301">
        <ele>283</ele>
        <time>2023-06-23T10:01:12Z</time>
      </trkpt>
      <trkpt lat="49.39726" lon="5.82295">
        <ele>283</ele>
        <time>2023-06-23T10:01:14Z</time>
      </trkpt>
      <trkpt lat="49.39726" lon="5.82291">
        <ele>283</ele>
        <time>2023-06-23T10:01:15Z</time>
      </trkpt>
      <trkpt lat="49.39727" lon="5.82287">
        <ele>283</ele>
        <time>2023-06-23T10:01:16Z</time>
      </trkpt>
      <trkpt lat="49.39727" lon="5.82278">
        <ele>283</ele>
        <time>2023-06-23T10:01:18Z</time>
      </trkpt>
      <trkpt lat="49.39727" lon="5.82271">
        <ele>283</ele>
        <time>2023-06-23T10:01:20Z</time>
      </trkpt>
      <trkpt lat="49.39728" lon="5.82268">
        <ele>283</ele>
        <time>2023-06-23T10:01:21Z</time>
      </trkpt>
      <trkpt lat="49.39727" lon="5.82265">
        <ele>283</ele>
        <time>2023-06-23T10:01:22Z</time>
      </trkpt>
      <trkpt lat="49.39726" lon="5.82258">
        <ele>283</ele>
        <time>2023-06-23T10:01:24Z</time>
      </trkpt>
      <trkpt lat="49.39725" lon="5.82251">
        <ele>283.20001220703</ele>
        <time>2023-06-23T10:01:26Z</time>
      </trkpt>
      <trkpt lat="49.39724" lon="5.82249">
        <ele>283.20001220703</ele>
        <time>2023-06-23T10:01:27Z</time>
      </trkpt>
      <trkpt lat="49.39724" lon="5.82247">
        <ele>283.20001220703</ele>
        <time>2023-06-23T10:01:28Z</time>
      </trkpt>
      <trkpt lat="49.39724" lon="5.82243">
        <ele>283.60000610352</ele>
        <time>2023-06-23T10:01:30Z</time>
      </trkpt>
      <trkpt lat="49.39724" lon="5.82239">
        <ele>284</ele>
        <time>2023-06-23T10:01:32Z</time>
      </trkpt>
      <trkpt lat="49.39724" lon="5.82235">
        <ele>284.20001220703</ele>
        <time>2023-06-23T10:01:33Z</time>
      </trkpt>
      <trkpt lat="49.39725" lon="5.82233">
        <ele>284.39999389648</ele>
        <time>2023-06-23T10:01:34Z</time>
      </trkpt>
      <trkpt lat="49.39725" lon="5.82231">
        <ele>284.60000610352</ele>
        <time>2023-06-23T10:01:35Z</time>
      </trkpt>
      <trkpt lat="49.39725" lon="5.82228">
        <ele>284.79998779297</ele>
        <time>2023-06-23T10:01:36Z</time>
      </trkpt>
      <trkpt lat="49.39725" lon="5.82224">
        <ele>284.79998779297</ele>
        <time>2023-06-23T10:01:38Z</time>
      </trkpt>
      <trkpt lat="49.39724" lon="5.82218">
        <ele>284.79998779297</ele>
        <time>2023-06-23T10:01:40Z</time>
      </trkpt>
      <trkpt lat="49.39723" lon="5.82211">
        <ele>284.79998779297</ele>
        <time>2023-06-23T10:01:42Z</time>
      </trkpt>
      <trkpt lat="49.3972" lon="5.82203">
        <ele>284.79998779297</ele>
        <time>2023-06-23T10:01:44Z</time>
      </trkpt>
      <trkpt lat="49.39716" lon="5.82196">
        <ele>284.39999389648</ele>
        <time>2023-06-23T10:01:46Z</time>
      </trkpt>
      <trkpt lat="49.39713" lon="5.82186">
        <ele>284.20001220703</ele>
        <time>2023-06-23T10:01:48Z</time>
      </trkpt>
      <trkpt lat="49.3971" lon="5.82179">
        <ele>284.20001220703</ele>
        <time>2023-06-23T10:01:49Z</time>
      </trkpt>
      <trkpt lat="49.39708" lon="5.82172">
        <ele>284</ele>
        <time>2023-06-23T10:01:50Z</time>
      </trkpt>
      <trkpt lat="49.39704" lon="5.8216">
        <ele>284</ele>
        <time>2023-06-23T10:01:52Z</time>
      </trkpt>
      <trkpt lat="49.39701" lon="5.82149">
        <ele>284</ele>
        <time>2023-06-23T10:01:54Z</time>
      </trkpt>
      <trkpt lat="49.39697" lon="5.8214">
        <ele>284</ele>
        <time>2023-06-23T10:01:56Z</time>
      </trkpt>
      <trkpt lat="49.39692" lon="5.82131">
        <ele>284</ele>
        <time>2023-06-23T10:01:58Z</time>
      </trkpt>
      <trkpt lat="49.39687" lon="5.82121">
        <ele>284</ele>
        <time>2023-06-23T10:02:00Z</time>
      </trkpt>
      <trkpt lat="49.39682" lon="5.8211">
        <ele>284</ele>
        <time>2023-06-23T10:02:02Z</time>
      </trkpt>
      <trkpt lat="49.39678" lon="5.82102">
        <ele>284.20001220703</ele>
        <time>2023-06-23T10:02:04Z</time>
      </trkpt>
      <trkpt lat="49.39674" lon="5.82093">
        <ele>284.20001220703</ele>
        <time>2023-06-23T10:02:06Z</time>
      </trkpt>
      <trkpt lat="49.3967" lon="5.82084">
        <ele>284.20001220703</ele>
        <time>2023-06-23T10:02:08Z</time>
      </trkpt>
      <trkpt lat="49.39666" lon="5.82077">
        <ele>284.39999389648</ele>
        <time>2023-06-23T10:02:10Z</time>
      </trkpt>
      <trkpt lat="49.39663" lon="5.8207">
        <ele>284.39999389648</ele>
        <time>2023-06-23T10:02:12Z</time>
      </trkpt>
      <trkpt lat="49.3966" lon="5.82063">
        <ele>284.39999389648</ele>
        <time>2023-06-23T10:02:14Z</time>
      </trkpt>
      <trkpt lat="49.39657" lon="5.82057">
        <ele>284.39999389648</ele>
        <time>2023-06-23T10:02:16Z</time>
      </trkpt>
      <trkpt lat="49.39653" lon="5.82052">
        <ele>284.39999389648</ele>
        <time>2023-06-23T10:02:18Z</time>
      </trkpt>
      <trkpt lat="49.39651" lon="5.82049">
        <ele>284.39999389648</ele>
        <time>2023-06-23T10:02:19Z</time>
      </trkpt>
      <trkpt lat="49.39649" lon="5.82046">
        <ele>284.39999389648</ele>
        <time>2023-06-23T10:02:20Z</time>
      </trkpt>
      <trkpt lat="49.39646" lon="5.82038">
        <ele>284.39999389648</ele>
        <time>2023-06-23T10:02:22Z</time>
      </trkpt>
      <trkpt lat="49.3964" lon="5.8203">
        <ele>284.39999389648</ele>
        <time>2023-06-23T10:02:24Z</time>
      </trkpt>
      <trkpt lat="49.39638" lon="5.82026">
        <ele>284.20001220703</ele>
        <time>2023-06-23T10:02:25Z</time>
      </trkpt>
      <trkpt lat="49.39634" lon="5.82021">
        <ele>284.20001220703</ele>
        <time>2023-06-23T10:02:26Z</time>
      </trkpt>
      <trkpt lat="49.39627" lon="5.8201">
        <ele>284</ele>
        <time>2023-06-23T10:02:28Z</time>
      </trkpt>
      <trkpt lat="49.39622" lon="5.82">
        <ele>283.79998779297</ele>
        <time>2023-06-23T10:02:30Z</time>
      </trkpt>
      <trkpt lat="49.39617" lon="5.81991">
        <ele>283</ele>
        <time>2023-06-23T10:02:32Z</time>
      </trkpt>
      <trkpt lat="49.39611" lon="5.81981">
        <ele>282.60000610352</ele>
        <time>2023-06-23T10:02:34Z</time>
      </trkpt>
      <trkpt lat="49.39608" lon="5.81976">
        <ele>282.39999389648</ele>
        <time>2023-06-23T10:02:35Z</time>
      </trkpt>
      <trkpt lat="49.39604" lon="5.81971">
        <ele>282.39999389648</ele>
        <time>2023-06-23T10:02:36Z</time>
      </trkpt>
      <trkpt lat="49.39597" lon="5.81963">
        <ele>282.20001220703</ele>
        <time>2023-06-23T10:02:38Z</time>
      </trkpt>
      <trkpt lat="49.39592" lon="5.81957">
        <ele>282</ele>
        <time>2023-06-23T10:02:39Z</time>
      </trkpt>
      <trkpt lat="49.39587" lon="5.81951">
        <ele>282</ele>
        <time>2023-06-23T10:02:40Z</time>
      </trkpt>
      <trkpt lat="49.39579" lon="5.8194">
        <ele>281.79998779297</ele>
        <time>2023-06-23T10:02:42Z</time>
      </trkpt>
      <trkpt lat="49.39569" lon="5.81927">
        <ele>281</ele>
        <time>2023-06-23T10:02:44Z</time>
      </trkpt>
      <trkpt lat="49.39563" lon="5.81919">
        <ele>280.79998779297</ele>
        <time>2023-06-23T10:02:45Z</time>
      </trkpt>
      <trkpt lat="49.39558" lon="5.81911">
        <ele>280.20001220703</ele>
        <time>2023-06-23T10:02:46Z</time>
      </trkpt>
      <trkpt lat="49.39552" lon="5.81904">
        <ele>279.60000610352</ele>
        <time>2023-06-23T10:02:47Z</time>
      </trkpt>
      <trkpt lat="49.39546" lon="5.81895">
        <ele>279.20001220703</ele>
        <time>2023-06-23T10:02:48Z</time>
      </trkpt>
      <trkpt lat="49.39541" lon="5.81886">
        <ele>278.60000610352</ele>
        <time>2023-06-23T10:02:49Z</time>
      </trkpt>
      <trkpt lat="49.39537" lon="5.81878">
        <ele>278</ele>
        <time>2023-06-23T10:02:50Z</time>
      </trkpt>
      <trkpt lat="49.39533" lon="5.81869">
        <ele>277.20001220703</ele>
        <time>2023-06-23T10:02:51Z</time>
      </trkpt>
      <trkpt lat="49.3953" lon="5.81862">
        <ele>276.79998779297</ele>
        <time>2023-06-23T10:02:52Z</time>
      </trkpt>
      <trkpt lat="49.39524" lon="5.81852">
        <ele>276.20001220703</ele>
        <time>2023-06-23T10:02:54Z</time>
      </trkpt>
      <trkpt lat="49.39522" lon="5.81848">
        <ele>276.20001220703</ele>
        <time>2023-06-23T10:02:55Z</time>
      </trkpt>
      <trkpt lat="49.39521" lon="5.81844">
        <ele>276</ele>
        <time>2023-06-23T10:02:56Z</time>
      </trkpt>
      <trkpt lat="49.39518" lon="5.81836">
        <ele>276</ele>
        <time>2023-06-23T10:02:58Z</time>
      </trkpt>
      <trkpt lat="49.39517" lon="5.81828">
        <ele>276</ele>
        <time>2023-06-23T10:03:00Z</time>
      </trkpt>
      <trkpt lat="49.39517" lon="5.81821">
        <ele>276</ele>
        <time>2023-06-23T10:03:02Z</time>
      </trkpt>
      <trkpt lat="49.39518" lon="5.81815">
        <ele>276.39999389648</ele>
        <time>2023-06-23T10:03:04Z</time>
      </trkpt>
      <trkpt lat="49.39519" lon="5.81813">
        <ele>276.60000610352</ele>
        <time>2023-06-23T10:03:05Z</time>
      </trkpt>
      <trkpt lat="49.39519" lon="5.81811">
        <ele>277</ele>
        <time>2023-06-23T10:03:06Z</time>
      </trkpt>
      <trkpt lat="49.3952" lon="5.81807">
        <ele>277.60000610352</ele>
        <time>2023-06-23T10:03:08Z</time>
      </trkpt>
      <trkpt lat="49.3952" lon="5.81805">
        <ele>277.79998779297</ele>
        <time>2023-06-23T10:03:09Z</time>
      </trkpt>
      <trkpt lat="49.3952" lon="5.81803">
        <ele>278.20001220703</ele>
        <time>2023-06-23T10:03:10Z</time>
      </trkpt>
      <trkpt lat="49.39521" lon="5.81801">
        <ele>278.79998779297</ele>
        <time>2023-06-23T10:03:12Z</time>
      </trkpt>
      <trkpt lat="49.39521" lon="5.818">
        <ele>279.20001220703</ele>
        <time>2023-06-23T10:03:13Z</time>
      </trkpt>
      <trkpt lat="49.39521" lon="5.81798">
        <ele>279.60000610352</ele>
        <time>2023-06-23T10:03:14Z</time>
      </trkpt>
      <trkpt lat="49.3952" lon="5.81795">
        <ele>280.20001220703</ele>
        <time>2023-06-23T10:03:16Z</time>
      </trkpt>
      <trkpt lat="49.39519" lon="5.81792">
        <ele>280.60000610352</ele>
        <time>2023-06-23T10:03:18Z</time>
      </trkpt>
      <trkpt lat="49.39518" lon="5.81791">
        <ele>280.79998779297</ele>
        <time>2023-06-23T10:03:20Z</time>
      </trkpt>
      <trkpt lat="49.39517" lon="5.8179">
        <ele>280.79998779297</ele>
        <time>2023-06-23T10:03:22Z</time>
      </trkpt>
      <trkpt lat="49.39517" lon="5.81791">
        <ele>280.79998779297</ele>
        <time>2023-06-23T10:03:23Z</time>
      </trkpt>
      <trkpt lat="49.39517" lon="5.81791">
        <ele>280.79998779297</ele>
        <time>2023-06-23T10:03:24Z</time>
      </trkpt>
      <trkpt lat="49.39517" lon="5.81791">
        <ele>281</ele>
        <time>2023-06-23T10:03:26Z</time>
      </trkpt>
      <trkpt lat="49.39516" lon="5.81791">
        <ele>281</ele>
        <time>2023-06-23T10:03:28Z</time>
      </trkpt>
      <trkpt lat="49.39516" lon="5.81791">
        <ele>281</ele>
        <time>2023-06-23T10:03:30Z</time>
      </trkpt>
      <trkpt lat="49.39517" lon="5.81791">
        <ele>281</ele>
        <time>2023-06-23T10:03:32Z</time>
      </trkpt>
      <trkpt lat="49.39517" lon="5.81791">
        <ele>281</ele>
        <time>2023-06-23T10:03:34Z</time>
      </trkpt>
      <trkpt lat="49.39517" lon="5.81791">
        <ele>281</ele>
        <time>2023-06-23T10:03:36Z</time>
      </trkpt>
      <trkpt lat="49.39516" lon="5.81791">
        <ele>281</ele>
        <time>2023-06-23T10:03:38Z</time>
      </trkpt>
      <trkpt lat="49.39516" lon="5.8179">
        <ele>281</ele>
        <time>2023-06-23T10:03:40Z</time>
      </trkpt>
      <trkpt lat="49.39516" lon="5.8179">
        <ele>281</ele>
        <time>2023-06-23T10:03:41Z</time>
      </trkpt>
      <trkpt lat="49.39516" lon="5.8179">
        <ele>281</ele>
        <time>2023-06-23T10:03:42Z</time>
      </trkpt>
      <trkpt lat="49.39516" lon="5.8179">
        <ele>281</ele>
        <time>2023-06-23T10:03:44Z</time>
      </trkpt>
      <trkpt lat="49.39516" lon="5.8179">
        <ele>281</ele>
        <time>2023-06-23T10:03:46Z</time>
      </trkpt>
      <trkpt lat="49.39516" lon="5.8179">
        <ele>281</ele>
        <time>2023-06-23T10:03:48Z</time>
      </trkpt>
      <trkpt lat="49.39516" lon="5.8179">
        <ele>281</ele>
        <time>2023-06-23T10:03:50Z</time>
      </trkpt>
      <trkpt lat="49.39516" lon="5.8179">
        <ele>281</ele>
        <time>2023-06-23T10:03:52Z</time>
      </trkpt>
      <trkpt lat="49.39516" lon="5.8179">
        <ele>281</ele>
        <time>2023-06-23T10:03:54Z</time>
      </trkpt>
      <trkpt lat="49.39515" lon="5.8179">
        <ele>281</ele>
        <time>2023-06-23T10:03:56Z</time>
      </trkpt>
      <trkpt lat="49.39515" lon="5.8179">
        <ele>281.20001220703</ele>
        <time>2023-06-23T10:03:58Z</time>
      </trkpt>
      <trkpt lat="49.39515" lon="5.81789">
        <ele>281.20001220703</ele>
        <time>2023-06-23T10:04:00Z</time>
      </trkpt>
      <trkpt lat="49.39515" lon="5.81789">
        <ele>281.20001220703</ele>
        <time>2023-06-23T10:04:02Z</time>
      </trkpt>
      <trkpt lat="49.39515" lon="5.81789">
        <ele>281.20001220703</ele>
        <time>2023-06-23T10:04:04Z</time>
      </trkpt>
      <trkpt lat="49.39515" lon="5.8179">
        <ele>281.20001220703</ele>
        <time>2023-06-23T10:04:06Z</time>
      </trkpt>
      <trkpt lat="49.39515" lon="5.81789">
        <ele>281.20001220703</ele>
        <time>2023-06-23T10:04:08Z</time>
      </trkpt>
      <trkpt lat="49.39515" lon="5.8179">
        <ele>281</ele>
        <time>2023-06-23T10:04:10Z</time>
      </trkpt>
      <trkpt lat="49.39515" lon="5.81789">
        <ele>281</ele>
        <time>2023-06-23T10:04:11Z</time>
      </trkpt>
      <trkpt lat="49.39515" lon="5.81789">
        <ele>281</ele>
        <time>2023-06-23T10:04:12Z</time>
      </trkpt>
      <trkpt lat="49.39515" lon="5.81789">
        <ele>281</ele>
        <time>2023-06-23T10:04:14Z</time>
      </trkpt>
      <trkpt lat="49.39514" lon="5.81789">
        <ele>281</ele>
        <time>2023-06-23T10:04:16Z</time>
      </trkpt>
      <trkpt lat="49.39514" lon="5.81789">
        <ele>281</ele>
        <time>2023-06-23T10:04:18Z</time>
      </trkpt>
      <trkpt lat="49.39514" lon="5.81789">
        <ele>281</ele>
        <time>2023-06-23T10:04:20Z</time>
      </trkpt>
      <trkpt lat="49.39514" lon="5.81789">
        <ele>281</ele>
        <time>2023-06-23T10:04:22Z</time>
      </trkpt>
      <trkpt lat="49.39514" lon="5.81789">
        <ele>281.20001220703</ele>
        <time>2023-06-23T10:04:24Z</time>
      </trkpt>
      <trkpt lat="49.39514" lon="5.81789">
        <ele>281.20001220703</ele>
        <time>2023-06-23T10:04:26Z</time>
      </trkpt>
      <trkpt lat="49.39514" lon="5.81789">
        <ele>281.20001220703</ele>
        <time>2023-06-23T10:04:28Z</time>
      </trkpt>
      <trkpt lat="49.39514" lon="5.81789">
        <ele>281</ele>
        <time>2023-06-23T10:04:30Z</time>
      </trkpt>
      <trkpt lat="49.39514" lon="5.81789">
        <ele>281</ele>
        <time>2023-06-23T10:04:32Z</time>
      </trkpt>
      <trkpt lat="49.39514" lon="5.81789">
        <ele>281</ele>
        <time>2023-06-23T10:04:34Z</time>
      </trkpt>
      <trkpt lat="49.39514" lon="5.81788">
        <ele>281</ele>
        <time>2023-06-23T10:04:35Z</time>
      </trkpt>
      <trkpt lat="49.39513" lon="5.81788">
        <ele>281</ele>
        <time>2023-06-23T10:04:36Z</time>
      </trkpt>
      <trkpt lat="49.39509" lon="5.81786">
        <ele>280.79998779297</ele>
        <time>2023-06-23T10:04:38Z</time>
      </trkpt>
      <trkpt lat="49.39507" lon="5.81784">
        <ele>280.79998779297</ele>
        <time>2023-06-23T10:04:39Z</time>
      </trkpt>
      <trkpt lat="49.39505" lon="5.81782">
        <ele>280.79998779297</ele>
        <time>2023-06-23T10:04:40Z</time>
      </trkpt>
      <trkpt lat="49.395" lon="5.81776">
        <ele>280.79998779297</ele>
        <time>2023-06-23T10:04:42Z</time>
      </trkpt>
      <trkpt lat="49.39497" lon="5.81772">
        <ele>280.79998779297</ele>
        <time>2023-06-23T10:04:43Z</time>
      </trkpt>
      <trkpt lat="49.39493" lon="5.81768">
        <ele>280.79998779297</ele>
        <time>2023-06-23T10:04:44Z</time>
      </trkpt>
      <trkpt lat="49.39485" lon="5.81757">
        <ele>280.39999389648</ele>
        <time>2023-06-23T10:04:46Z</time>
      </trkpt>
      <trkpt lat="49.39481" lon="5.81753">
        <ele>280.20001220703</ele>
        <time>2023-06-23T10:04:47Z</time>
      </trkpt>
      <trkpt lat="49.39477" lon="5.8175">
        <ele>280</ele>
        <time>2023-06-23T10:04:48Z</time>
      </trkpt>
      <trkpt lat="49.39474" lon="5.81745">
        <ele>278.60000610352</ele>
        <time>2023-06-23T10:04:50Z</time>
      </trkpt>
      <trkpt lat="49.3947" lon="5.81742">
        <ele>277.60000610352</ele>
        <time>2023-06-23T10:04:52Z</time>
      </trkpt>
      <trkpt lat="49.39467" lon="5.81737">
        <ele>276.79998779297</ele>
        <time>2023-06-23T10:04:54Z</time>
      </trkpt>
      <trkpt lat="49.39463" lon="5.8173">
        <ele>276.60000610352</ele>
        <time>2023-06-23T10:04:56Z</time>
      </trkpt>
      <trkpt lat="49.39461" lon="5.81725">
        <ele>276.39999389648</ele>
        <time>2023-06-23T10:04:57Z</time>
      </trkpt>
      <trkpt lat="49.39459" lon="5.81719">
        <ele>276.39999389648</ele>
        <time>2023-06-23T10:04:58Z</time>
      </trkpt>
      <trkpt lat="49.39456" lon="5.81712">
        <ele>276.39999389648</ele>
        <time>2023-06-23T10:04:59Z</time>
      </trkpt>
      <trkpt lat="49.39454" lon="5.81706">
        <ele>276.20001220703</ele>
        <time>2023-06-23T10:05:00Z</time>
      </trkpt>
      <trkpt lat="49.39453" lon="5.81701">
        <ele>276.20001220703</ele>
        <time>2023-06-23T10:05:01Z</time>
      </trkpt>
      <trkpt lat="49.39451" lon="5.81698">
        <ele>276</ele>
        <time>2023-06-23T10:05:02Z</time>
      </trkpt>
      <trkpt lat="49.3945" lon="5.81699">
        <ele>275.79998779297</ele>
        <time>2023-06-23T10:05:04Z</time>
      </trkpt>
      <trkpt lat="49.3945" lon="5.81701">
        <ele>275.39999389648</ele>
        <time>2023-06-23T10:05:05Z</time>
      </trkpt>
      <trkpt lat="49.39451" lon="5.81703">
        <ele>275</ele>
        <time>2023-06-23T10:05:06Z</time>
      </trkpt>
      <trkpt lat="49.39453" lon="5.81707">
        <ele>274.39999389648</ele>
        <time>2023-06-23T10:05:08Z</time>
      </trkpt>
      <trkpt lat="49.39455" lon="5.8171">
        <ele>274.20001220703</ele>
        <time>2023-06-23T10:05:09Z</time>
      </trkpt>
      <trkpt lat="49.39456" lon="5.81712">
        <ele>274.20001220703</ele>
        <time>2023-06-23T10:05:10Z</time>
      </trkpt>
      <trkpt lat="49.39458" lon="5.81717">
        <ele>274.20001220703</ele>
        <time>2023-06-23T10:05:12Z</time>
      </trkpt>
      <trkpt lat="49.39461" lon="5.81721">
        <ele>274.20001220703</ele>
        <time>2023-06-23T10:05:14Z</time>
      </trkpt>
      <trkpt lat="49.39462" lon="5.81723">
        <ele>274.20001220703</ele>
        <time>2023-06-23T10:05:15Z</time>
      </trkpt>
      <trkpt lat="49.39464" lon="5.81724">
        <ele>274.20001220703</ele>
        <time>2023-06-23T10:05:16Z</time>
      </trkpt>
      <trkpt lat="49.39467" lon="5.81728">
        <ele>274.20001220703</ele>
        <time>2023-06-23T10:05:18Z</time>
      </trkpt>
      <trkpt lat="49.39471" lon="5.8173">
        <ele>274.60000610352</ele>
        <time>2023-06-23T10:05:20Z</time>
      </trkpt>
      <trkpt lat="49.39474" lon="5.81732">
        <ele>274.79998779297</ele>
        <time>2023-06-23T10:05:22Z</time>
      </trkpt>
      <trkpt lat="49.39477" lon="5.81733">
        <ele>275.20001220703</ele>
        <time>2023-06-23T10:05:24Z</time>
      </trkpt>
      <trkpt lat="49.39477" lon="5.81733">
        <ele>275.39999389648</ele>
        <time>2023-06-23T10:05:25Z</time>
      </trkpt>
      <trkpt lat="49.39478" lon="5.81732">
        <ele>275.60000610352</ele>
        <time>2023-06-23T10:05:26Z</time>
      </trkpt>
      <trkpt lat="49.39478" lon="5.81732">
        <ele>275.60000610352</ele>
        <time>2023-06-23T10:05:27Z</time>
      </trkpt>
      <trkpt lat="49.39478" lon="5.81731">
        <ele>275.79998779297</ele>
        <time>2023-06-23T10:05:28Z</time>
      </trkpt>
      <trkpt lat="49.39478" lon="5.81731">
        <ele>276</ele>
        <time>2023-06-23T10:05:30Z</time>
      </trkpt>
      <trkpt lat="49.39478" lon="5.81729">
        <ele>276</ele>
        <time>2023-06-23T10:05:32Z</time>
      </trkpt>
      <trkpt lat="49.39477" lon="5.81727">
        <ele>276.20001220703</ele>
        <time>2023-06-23T10:05:34Z</time>
      </trkpt>
      <trkpt lat="49.39476" lon="5.81726">
        <ele>276.39999389648</ele>
        <time>2023-06-23T10:05:36Z</time>
      </trkpt>
      <trkpt lat="49.39476" lon="5.81725">
        <ele>276.39999389648</ele>
        <time>2023-06-23T10:05:38Z</time>
      </trkpt>
      <trkpt lat="49.39476" lon="5.81724">
        <ele>277</ele>
        <time>2023-06-23T10:05:40Z</time>
      </trkpt>
      <trkpt lat="49.39476" lon="5.81725">
        <ele>277.20001220703</ele>
        <time>2023-06-23T10:05:42Z</time>
      </trkpt>
      <trkpt lat="49.39476" lon="5.81727">
        <ele>277.60000610352</ele>
        <time>2023-06-23T10:05:43Z</time>
      </trkpt>
      <trkpt lat="49.39477" lon="5.81728">
        <ele>277.60000610352</ele>
        <time>2023-06-23T10:05:44Z</time>
      </trkpt>
      <trkpt lat="49.39478" lon="5.81729">
        <ele>277.79998779297</ele>
        <time>2023-06-23T10:05:46Z</time>
      </trkpt>
      <trkpt lat="49.39479" lon="5.81731">
        <ele>277.79998779297</ele>
        <time>2023-06-23T10:05:48Z</time>
      </trkpt>
      <trkpt lat="49.39479" lon="5.81735">
        <ele>277.79998779297</ele>
        <time>2023-06-23T10:05:50Z</time>
      </trkpt>
      <trkpt lat="49.39478" lon="5.81735">
        <ele>277.79998779297</ele>
        <time>2023-06-23T10:05:52Z</time>
      </trkpt>
      <trkpt lat="49.39475" lon="5.81733">
        <ele>277.60000610352</ele>
        <time>2023-06-23T10:05:54Z</time>
      </trkpt>
      <trkpt lat="49.39471" lon="5.81727">
        <ele>277.39999389648</ele>
        <time>2023-06-23T10:05:56Z</time>
      </trkpt>
      <trkpt lat="49.39465" lon="5.81718">
        <ele>277.39999389648</ele>
        <time>2023-06-23T10:05:58Z</time>
      </trkpt>
      <trkpt lat="49.39459" lon="5.81705">
        <ele>277.39999389648</ele>
        <time>2023-06-23T10:06:00Z</time>
      </trkpt>
      <trkpt lat="49.39454" lon="5.8169">
        <ele>277.20001220703</ele>
        <time>2023-06-23T10:06:02Z</time>
      </trkpt>
      <trkpt lat="49.3945" lon="5.81675">
        <ele>276.60000610352</ele>
        <time>2023-06-23T10:06:04Z</time>
      </trkpt>
      <trkpt lat="49.39448" lon="5.81669">
        <ele>276.39999389648</ele>
        <time>2023-06-23T10:06:05Z</time>
      </trkpt>
      <trkpt lat="49.39446" lon="5.81661">
        <ele>276</ele>
        <time>2023-06-23T10:06:06Z</time>
      </trkpt>
      <trkpt lat="49.39444" lon="5.81653">
        <ele>275.60000610352</ele>
        <time>2023-06-23T10:06:07Z</time>
      </trkpt>
      <trkpt lat="49.39442" lon="5.81645">
        <ele>275.20001220703</ele>
        <time>2023-06-23T10:06:08Z</time>
      </trkpt>
      <trkpt lat="49.39438" lon="5.81625">
        <ele>273.60000610352</ele>
        <time>2023-06-23T10:06:10Z</time>
      </trkpt>
      <trkpt lat="49.39433" lon="5.81604">
        <ele>272.79998779297</ele>
        <time>2023-06-23T10:06:12Z</time>
      </trkpt>
      <trkpt lat="49.39431" lon="5.81592">
        <ele>272.39999389648</ele>
        <time>2023-06-23T10:06:13Z</time>
      </trkpt>
      <trkpt lat="49.39428" lon="5.8158">
        <ele>272.20001220703</ele>
        <time>2023-06-23T10:06:14Z</time>
      </trkpt>
      <trkpt lat="49.39426" lon="5.81567">
        <ele>271.79998779297</ele>
        <time>2023-06-23T10:06:15Z</time>
      </trkpt>
      <trkpt lat="49.39424" lon="5.81554">
        <ele>271.20001220703</ele>
        <time>2023-06-23T10:06:16Z</time>
      </trkpt>
      <trkpt lat="49.3942" lon="5.81527">
        <ele>270.20001220703</ele>
        <time>2023-06-23T10:06:18Z</time>
      </trkpt>
      <trkpt lat="49.39417" lon="5.81498">
        <ele>268.60000610352</ele>
        <time>2023-06-23T10:06:20Z</time>
      </trkpt>
      <trkpt lat="49.39416" lon="5.81483">
        <ele>267.60000610352</ele>
        <time>2023-06-23T10:06:21Z</time>
      </trkpt>
      <trkpt lat="49.39415" lon="5.81468">
        <ele>266.79998779297</ele>
        <time>2023-06-23T10:06:22Z</time>
      </trkpt>
      <trkpt lat="49.39414" lon="5.81438">
        <ele>264.79998779297</ele>
        <time>2023-06-23T10:06:24Z</time>
      </trkpt>
      <trkpt lat="49.39413" lon="5.81408">
        <ele>263</ele>
        <time>2023-06-23T10:06:26Z</time>
      </trkpt>
      <trkpt lat="49.39411" lon="5.8138">
        <ele>261.39999389648</ele>
        <time>2023-06-23T10:06:28Z</time>
      </trkpt>
      <trkpt lat="49.39409" lon="5.81369">
        <ele>260.79998779297</ele>
        <time>2023-06-23T10:06:29Z</time>
      </trkpt>
      <trkpt lat="49.39406" lon="5.8136">
        <ele>260</ele>
        <time>2023-06-23T10:06:30Z</time>
      </trkpt>
      <trkpt lat="49.39404" lon="5.81348">
        <ele>258.39999389648</ele>
        <time>2023-06-23T10:06:32Z</time>
      </trkpt>
      <trkpt lat="49.39407" lon="5.8134">
        <ele>258</ele>
        <time>2023-06-23T10:06:34Z</time>
      </trkpt>
      <trkpt lat="49.39409" lon="5.81338">
        <ele>257.79998779297</ele>
        <time>2023-06-23T10:06:35Z</time>
      </trkpt>
      <trkpt lat="49.39411" lon="5.81336">
        <ele>257.79998779297</ele>
        <time>2023-06-23T10:06:36Z</time>
      </trkpt>
      <trkpt lat="49.39413" lon="5.81333">
        <ele>257.79998779297</ele>
        <time>2023-06-23T10:06:38Z</time>
      </trkpt>
      <trkpt lat="49.39414" lon="5.81331">
        <ele>257.79998779297</ele>
        <time>2023-06-23T10:06:39Z</time>
      </trkpt>
      <trkpt lat="49.39415" lon="5.81328">
        <ele>257.79998779297</ele>
        <time>2023-06-23T10:06:40Z</time>
      </trkpt>
      <trkpt lat="49.39415" lon="5.81325">
        <ele>257.79998779297</ele>
        <time>2023-06-23T10:06:41Z</time>
      </trkpt>
      <trkpt lat="49.39415" lon="5.81322">
        <ele>257.79998779297</ele>
        <time>2023-06-23T10:06:42Z</time>
      </trkpt>
      <trkpt lat="49.39415" lon="5.81314">
        <ele>258.20001220703</ele>
        <time>2023-06-23T10:06:44Z</time>
      </trkpt>
      <trkpt lat="49.39415" lon="5.81311">
        <ele>258.39999389648</ele>
        <time>2023-06-23T10:06:45Z</time>
      </trkpt>
      <trkpt lat="49.39414" lon="5.81308">
        <ele>258.39999389648</ele>
        <time>2023-06-23T10:06:46Z</time>
      </trkpt>
      <trkpt lat="49.39413" lon="5.81302">
        <ele>258.39999389648</ele>
        <time>2023-06-23T10:06:48Z</time>
      </trkpt>
      <trkpt lat="49.39411" lon="5.81297">
        <ele>258.39999389648</ele>
        <time>2023-06-23T10:06:50Z</time>
      </trkpt>
      <trkpt lat="49.3941" lon="5.81295">
        <ele>258.39999389648</ele>
        <time>2023-06-23T10:06:51Z</time>
      </trkpt>
      <trkpt lat="49.39409" lon="5.81293">
        <ele>258.39999389648</ele>
        <time>2023-06-23T10:06:52Z</time>
      </trkpt>
      <trkpt lat="49.39407" lon="5.81289">
        <ele>258.39999389648</ele>
        <time>2023-06-23T10:06:54Z</time>
      </trkpt>
      <trkpt lat="49.39405" lon="5.81285">
        <ele>258.39999389648</ele>
        <time>2023-06-23T10:06:56Z</time>
      </trkpt>
      <trkpt lat="49.39405" lon="5.81282">
        <ele>258.39999389648</ele>
        <time>2023-06-23T10:06:57Z</time>
      </trkpt>
      <trkpt lat="49.39404" lon="5.81278">
        <ele>258.20001220703</ele>
        <time>2023-06-23T10:06:58Z</time>
      </trkpt>
      <trkpt lat="49.39404" lon="5.8127">
        <ele>258</ele>
        <time>2023-06-23T10:07:00Z</time>
      </trkpt>
      <trkpt lat="49.39403" lon="5.81261">
        <ele>258</ele>
        <time>2023-06-23T10:07:02Z</time>
      </trkpt>
      <trkpt lat="49.39403" lon="5.81256">
        <ele>258</ele>
        <time>2023-06-23T10:07:03Z</time>
      </trkpt>
      <trkpt lat="49.39403" lon="5.81252">
        <ele>257.79998779297</ele>
        <time>2023-06-23T10:07:04Z</time>
      </trkpt>
      <trkpt lat="49.39403" lon="5.81244">
        <ele>257.60000610352</ele>
        <time>2023-06-23T10:07:06Z</time>
      </trkpt>
      <trkpt lat="49.39403" lon="5.81235">
        <ele>257.60000610352</ele>
        <time>2023-06-23T10:07:08Z</time>
      </trkpt>
      <trkpt lat="49.39402" lon="5.81226">
        <ele>257.60000610352</ele>
        <time>2023-06-23T10:07:10Z</time>
      </trkpt>
      <trkpt lat="49.39401" lon="5.81216">
        <ele>257.60000610352</ele>
        <time>2023-06-23T10:07:12Z</time>
      </trkpt>
      <trkpt lat="49.394" lon="5.81207">
        <ele>257.60000610352</ele>
        <time>2023-06-23T10:07:14Z</time>
      </trkpt>
      <trkpt lat="49.394" lon="5.81198">
        <ele>257.60000610352</ele>
        <time>2023-06-23T10:07:16Z</time>
      </trkpt>
      <trkpt lat="49.39399" lon="5.8119">
        <ele>258</ele>
        <time>2023-06-23T10:07:18Z</time>
      </trkpt>
      <trkpt lat="49.394" lon="5.81182">
        <ele>258.39999389648</ele>
        <time>2023-06-23T10:07:20Z</time>
      </trkpt>
      <trkpt lat="49.394" lon="5.81179">
        <ele>258.60000610352</ele>
        <time>2023-06-23T10:07:21Z</time>
      </trkpt>
      <trkpt lat="49.394" lon="5.81176">
        <ele>258.79998779297</ele>
        <time>2023-06-23T10:07:22Z</time>
      </trkpt>
      <trkpt lat="49.39401" lon="5.81171">
        <ele>259.20001220703</ele>
        <time>2023-06-23T10:07:24Z</time>
      </trkpt>
      <trkpt lat="49.39401" lon="5.81169">
        <ele>259.60000610352</ele>
        <time>2023-06-23T10:07:25Z</time>
      </trkpt>
      <trkpt lat="49.394" lon="5.81166">
        <ele>259.79998779297</ele>
        <time>2023-06-23T10:07:26Z</time>
      </trkpt>
      <trkpt lat="49.394" lon="5.81164">
        <ele>260.20001220703</ele>
        <time>2023-06-23T10:07:27Z</time>
      </trkpt>
      <trkpt lat="49.394" lon="5.81162">
        <ele>260.60000610352</ele>
        <time>2023-06-23T10:07:28Z</time>
      </trkpt>
      <trkpt lat="49.394" lon="5.81158">
        <ele>261.39999389648</ele>
        <time>2023-06-23T10:07:30Z</time>
      </trkpt>
      <trkpt lat="49.394" lon="5.81156">
        <ele>261.79998779297</ele>
        <time>2023-06-23T10:07:31Z</time>
      </trkpt>
      <trkpt lat="49.39401" lon="5.81154">
        <ele>262.20001220703</ele>
        <time>2023-06-23T10:07:32Z</time>
      </trkpt>
      <trkpt lat="49.39402" lon="5.81152">
        <ele>262.79998779297</ele>
        <time>2023-06-23T10:07:33Z</time>
      </trkpt>
      <trkpt lat="49.39402" lon="5.81151">
        <ele>263</ele>
        <time>2023-06-23T10:07:34Z</time>
      </trkpt>
      <trkpt lat="49.39403" lon="5.81147">
        <ele>263.39999389648</ele>
        <time>2023-06-23T10:07:36Z</time>
      </trkpt>
      <trkpt lat="49.39403" lon="5.81143">
        <ele>263.79998779297</ele>
        <time>2023-06-23T10:07:38Z</time>
      </trkpt>
      <trkpt lat="49.39404" lon="5.81141">
        <ele>264</ele>
        <time>2023-06-23T10:07:39Z</time>
      </trkpt>
      <trkpt lat="49.39404" lon="5.8114">
        <ele>264.20001220703</ele>
        <time>2023-06-23T10:07:40Z</time>
      </trkpt>
      <trkpt lat="49.39405" lon="5.81135">
        <ele>264.60000610352</ele>
        <time>2023-06-23T10:07:42Z</time>
      </trkpt>
      <trkpt lat="49.39406" lon="5.81131">
        <ele>265.20001220703</ele>
        <time>2023-06-23T10:07:44Z</time>
      </trkpt>
      <trkpt lat="49.39406" lon="5.81128">
        <ele>265.60000610352</ele>
        <time>2023-06-23T10:07:46Z</time>
      </trkpt>
      <trkpt lat="49.39407" lon="5.81124">
        <ele>266</ele>
        <time>2023-06-23T10:07:48Z</time>
      </trkpt>
      <trkpt lat="49.39408" lon="5.81122">
        <ele>266.39999389648</ele>
        <time>2023-06-23T10:07:49Z</time>
      </trkpt>
      <trkpt lat="49.39408" lon="5.8112">
        <ele>266.60000610352</ele>
        <time>2023-06-23T10:07:50Z</time>
      </trkpt>
      <trkpt lat="49.39409" lon="5.81117">
        <ele>267</ele>
        <time>2023-06-23T10:07:52Z</time>
      </trkpt>
      <trkpt lat="49.3941" lon="5.81115">
        <ele>267.20001220703</ele>
        <time>2023-06-23T10:07:53Z</time>
      </trkpt>
      <trkpt lat="49.39411" lon="5.81113">
        <ele>267.39999389648</ele>
        <time>2023-06-23T10:07:54Z</time>
      </trkpt>
      <trkpt lat="49.39412" lon="5.8111">
        <ele>267.60000610352</ele>
        <time>2023-06-23T10:07:56Z</time>
      </trkpt>
      <trkpt lat="49.39415" lon="5.81107">
        <ele>268.20001220703</ele>
        <time>2023-06-23T10:07:58Z</time>
      </trkpt>
      <trkpt lat="49.39416" lon="5.81106">
        <ele>268.60000610352</ele>
        <time>2023-06-23T10:07:59Z</time>
      </trkpt>
      <trkpt lat="49.39417" lon="5.81105">
        <ele>268.60000610352</ele>
        <time>2023-06-23T10:08:00Z</time>
      </trkpt>
      <trkpt lat="49.39418" lon="5.81102">
        <ele>268.79998779297</ele>
        <time>2023-06-23T10:08:02Z</time>
      </trkpt>
      <trkpt lat="49.3942" lon="5.81099">
        <ele>269.20001220703</ele>
        <time>2023-06-23T10:08:04Z</time>
      </trkpt>
      <trkpt lat="49.39422" lon="5.81096">
        <ele>269.60000610352</ele>
        <time>2023-06-23T10:08:06Z</time>
      </trkpt>
      <trkpt lat="49.39424" lon="5.81093">
        <ele>270</ele>
        <time>2023-06-23T10:08:08Z</time>
      </trkpt>
      <trkpt lat="49.39425" lon="5.8109">
        <ele>270.39999389648</ele>
        <time>2023-06-23T10:08:10Z</time>
      </trkpt>
      <trkpt lat="49.39425" lon="5.81089">
        <ele>270.60000610352</ele>
        <time>2023-06-23T10:08:11Z</time>
      </trkpt>
      <trkpt lat="49.39426" lon="5.81088">
        <ele>270.79998779297</ele>
        <time>2023-06-23T10:08:12Z</time>
      </trkpt>
      <trkpt lat="49.39427" lon="5.81086">
        <ele>271.20001220703</ele>
        <time>2023-06-23T10:08:14Z</time>
      </trkpt>
      <trkpt lat="49.39427" lon="5.81085">
        <ele>271.39999389648</ele>
        <time>2023-06-23T10:08:15Z</time>
      </trkpt>
      <trkpt lat="49.39427" lon="5.81084">
        <ele>271.60000610352</ele>
        <time>2023-06-23T10:08:16Z</time>
      </trkpt>
      <trkpt lat="49.39428" lon="5.81082">
        <ele>271.79998779297</ele>
        <time>2023-06-23T10:08:17Z</time>
      </trkpt>
      <trkpt lat="49.39429" lon="5.81081">
        <ele>272</ele>
        <time>2023-06-23T10:08:18Z</time>
      </trkpt>
      <trkpt lat="49.3943" lon="5.81079">
        <ele>272.39999389648</ele>
        <time>2023-06-23T10:08:20Z</time>
      </trkpt>
      <trkpt lat="49.39432" lon="5.81076">
        <ele>272.60000610352</ele>
        <time>2023-06-23T10:08:22Z</time>
      </trkpt>
      <trkpt lat="49.39432" lon="5.81075">
        <ele>273</ele>
        <time>2023-06-23T10:08:23Z</time>
      </trkpt>
      <trkpt lat="49.39433" lon="5.81073">
        <ele>273.20001220703</ele>
        <time>2023-06-23T10:08:24Z</time>
      </trkpt>
      <trkpt lat="49.39434" lon="5.81072">
        <ele>273.20001220703</ele>
        <time>2023-06-23T10:08:25Z</time>
      </trkpt>
      <trkpt lat="49.39435" lon="5.8107">
        <ele>273.60000610352</ele>
        <time>2023-06-23T10:08:26Z</time>
      </trkpt>
      <trkpt lat="49.39436" lon="5.81067">
        <ele>274.20001220703</ele>
        <time>2023-06-23T10:08:28Z</time>
      </trkpt>
      <trkpt lat="49.39438" lon="5.81065">
        <ele>274.60000610352</ele>
        <time>2023-06-23T10:08:30Z</time>
      </trkpt>
      <trkpt lat="49.39439" lon="5.81062">
        <ele>274.79998779297</ele>
        <time>2023-06-23T10:08:32Z</time>
      </trkpt>
      <trkpt lat="49.3944" lon="5.8106">
        <ele>275.20001220703</ele>
        <time>2023-06-23T10:08:34Z</time>
      </trkpt>
      <trkpt lat="49.39441" lon="5.81057">
        <ele>275.60000610352</ele>
        <time>2023-06-23T10:08:36Z</time>
      </trkpt>
      <trkpt lat="49.39442" lon="5.81055">
        <ele>275.79998779297</ele>
        <time>2023-06-23T10:08:37Z</time>
      </trkpt>
      <trkpt lat="49.39443" lon="5.81054">
        <ele>276</ele>
        <time>2023-06-23T10:08:38Z</time>
      </trkpt>
      <trkpt lat="49.39444" lon="5.81052">
        <ele>276.39999389648</ele>
        <time>2023-06-23T10:08:40Z</time>
      </trkpt>
      <trkpt lat="49.39445" lon="5.81049">
        <ele>277</ele>
        <time>2023-06-23T10:08:42Z</time>
      </trkpt>
      <trkpt lat="49.39446" lon="5.81047">
        <ele>277.20001220703</ele>
        <time>2023-06-23T10:08:44Z</time>
      </trkpt>
      <trkpt lat="49.39448" lon="5.81044">
        <ele>277.60000610352</ele>
        <time>2023-06-23T10:08:46Z</time>
      </trkpt>
      <trkpt lat="49.39449" lon="5.81042">
        <ele>278</ele>
        <time>2023-06-23T10:08:48Z</time>
      </trkpt>
      <trkpt lat="49.39449" lon="5.81039">
        <ele>278.39999389648</ele>
        <time>2023-06-23T10:08:50Z</time>
      </trkpt>
      <trkpt lat="49.3945" lon="5.81038">
        <ele>278.60000610352</ele>
        <time>2023-06-23T10:08:51Z</time>
      </trkpt>
      <trkpt lat="49.39451" lon="5.81037">
        <ele>278.79998779297</ele>
        <time>2023-06-23T10:08:52Z</time>
      </trkpt>
      <trkpt lat="49.39452" lon="5.81034">
        <ele>279.60000610352</ele>
        <time>2023-06-23T10:08:54Z</time>
      </trkpt>
      <trkpt lat="49.39453" lon="5.81032">
        <ele>279.79998779297</ele>
        <time>2023-06-23T10:08:55Z</time>
      </trkpt>
      <trkpt lat="49.39453" lon="5.81031">
        <ele>280</ele>
        <time>2023-06-23T10:08:56Z</time>
      </trkpt>
      <trkpt lat="49.39455" lon="5.81028">
        <ele>280.39999389648</ele>
        <time>2023-06-23T10:08:58Z</time>
      </trkpt>
      <trkpt lat="49.39456" lon="5.81025">
        <ele>280.79998779297</ele>
        <time>2023-06-23T10:09:00Z</time>
      </trkpt>
      <trkpt lat="49.39458" lon="5.81023">
        <ele>281.39999389648</ele>
        <time>2023-06-23T10:09:02Z</time>
      </trkpt>
      <trkpt lat="49.3946" lon="5.81021">
        <ele>281.60000610352</ele>
        <time>2023-06-23T10:09:04Z</time>
      </trkpt>
      <trkpt lat="49.39461" lon="5.81018">
        <ele>282</ele>
        <time>2023-06-23T10:09:06Z</time>
      </trkpt>
      <trkpt lat="49.39463" lon="5.81016">
        <ele>282.20001220703</ele>
        <time>2023-06-23T10:09:08Z</time>
      </trkpt>
      <trkpt lat="49.39464" lon="5.81013">
        <ele>282.39999389648</ele>
        <time>2023-06-23T10:09:10Z</time>
      </trkpt>
      <trkpt lat="49.39466" lon="5.81011">
        <ele>282.60000610352</ele>
        <time>2023-06-23T10:09:12Z</time>
      </trkpt>
      <trkpt lat="49.39467" lon="5.8101">
        <ele>282.79998779297</ele>
        <time>2023-06-23T10:09:13Z</time>
      </trkpt>
      <trkpt lat="49.39468" lon="5.81009">
        <ele>282.79998779297</ele>
        <time>2023-06-23T10:09:14Z</time>
      </trkpt>
      <trkpt lat="49.39469" lon="5.81008">
        <ele>283</ele>
        <time>2023-06-23T10:09:15Z</time>
      </trkpt>
      <trkpt lat="49.39469" lon="5.81007">
        <ele>283.20001220703</ele>
        <time>2023-06-23T10:09:16Z</time>
      </trkpt>
      <trkpt lat="49.39472" lon="5.81005">
        <ele>283.39999389648</ele>
        <time>2023-06-23T10:09:18Z</time>
      </trkpt>
      <trkpt lat="49.39473" lon="5.81003">
        <ele>283.79998779297</ele>
        <time>2023-06-23T10:09:20Z</time>
      </trkpt>
      <trkpt lat="49.39476" lon="5.81002">
        <ele>284</ele>
        <time>2023-06-23T10:09:22Z</time>
      </trkpt>
      <trkpt lat="49.39477" lon="5.81001">
        <ele>284</ele>
        <time>2023-06-23T10:09:23Z</time>
      </trkpt>
      <trkpt lat="49.39478" lon="5.81">
        <ele>284.20001220703</ele>
        <time>2023-06-23T10:09:24Z</time>
      </trkpt>
      <trkpt lat="49.39481" lon="5.80998">
        <ele>284.39999389648</ele>
        <time>2023-06-23T10:09:26Z</time>
      </trkpt>
      <trkpt lat="49.39483" lon="5.80996">
        <ele>284.60000610352</ele>
        <time>2023-06-23T10:09:28Z</time>
      </trkpt>
      <trkpt lat="49.39485" lon="5.80995">
        <ele>285</ele>
        <time>2023-06-23T10:09:30Z</time>
      </trkpt>
      <trkpt lat="49.39488" lon="5.80994">
        <ele>285.20001220703</ele>
        <time>2023-06-23T10:09:32Z</time>
      </trkpt>
      <trkpt lat="49.39491" lon="5.80992">
        <ele>285.20001220703</ele>
        <time>2023-06-23T10:09:34Z</time>
      </trkpt>
      <trkpt lat="49.39493" lon="5.80991">
        <ele>285.39999389648</ele>
        <time>2023-06-23T10:09:35Z</time>
      </trkpt>
      <trkpt lat="49.39494" lon="5.80991">
        <ele>285.60000610352</ele>
        <time>2023-06-23T10:09:36Z</time>
      </trkpt>
      <trkpt lat="49.39496" lon="5.8099">
        <ele>285.79998779297</ele>
        <time>2023-06-23T10:09:38Z</time>
      </trkpt>
      <trkpt lat="49.39497" lon="5.8099">
        <ele>286.20001220703</ele>
        <time>2023-06-23T10:09:39Z</time>
      </trkpt>
      <trkpt lat="49.39499" lon="5.80989">
        <ele>286.39999389648</ele>
        <time>2023-06-23T10:09:40Z</time>
      </trkpt>
      <trkpt lat="49.395" lon="5.80988">
        <ele>286.60000610352</ele>
        <time>2023-06-23T10:09:42Z</time>
      </trkpt>
      <trkpt lat="49.39503" lon="5.80988">
        <ele>287</ele>
        <time>2023-06-23T10:09:44Z</time>
      </trkpt>
      <trkpt lat="49.39505" lon="5.80987">
        <ele>287.39999389648</ele>
        <time>2023-06-23T10:09:46Z</time>
      </trkpt>
      <trkpt lat="49.39507" lon="5.80987">
        <ele>287.79998779297</ele>
        <time>2023-06-23T10:09:48Z</time>
      </trkpt>
      <trkpt lat="49.3951" lon="5.80986">
        <ele>288.20001220703</ele>
        <time>2023-06-23T10:09:50Z</time>
      </trkpt>
      <trkpt lat="49.39511" lon="5.80986">
        <ele>288.39999389648</ele>
        <time>2023-06-23T10:09:51Z</time>
      </trkpt>
      <trkpt lat="49.39512" lon="5.80985">
        <ele>288.79998779297</ele>
        <time>2023-06-23T10:09:52Z</time>
      </trkpt>
      <trkpt lat="49.39514" lon="5.80985">
        <ele>288.79998779297</ele>
        <time>2023-06-23T10:09:53Z</time>
      </trkpt>
      <trkpt lat="49.39516" lon="5.80985">
        <ele>289</ele>
        <time>2023-06-23T10:09:54Z</time>
      </trkpt>
      <trkpt lat="49.39518" lon="5.80985">
        <ele>289.39999389648</ele>
        <time>2023-06-23T10:09:56Z</time>
      </trkpt>
      <trkpt lat="49.3952" lon="5.80985">
        <ele>289.39999389648</ele>
        <time>2023-06-23T10:09:57Z</time>
      </trkpt>
      <trkpt lat="49.39521" lon="5.80985">
        <ele>289.79998779297</ele>
        <time>2023-06-23T10:09:58Z</time>
      </trkpt>
      <trkpt lat="49.39524" lon="5.80984">
        <ele>290.39999389648</ele>
        <time>2023-06-23T10:10:00Z</time>
      </trkpt>
      <trkpt lat="49.39527" lon="5.80984">
        <ele>290.79998779297</ele>
        <time>2023-06-23T10:10:02Z</time>
      </trkpt>
      <trkpt lat="49.39529" lon="5.80984">
        <ele>291.20001220703</ele>
        <time>2023-06-23T10:10:04Z</time>
      </trkpt>
      <trkpt lat="49.39532" lon="5.80982">
        <ele>291.60000610352</ele>
        <time>2023-06-23T10:10:06Z</time>
      </trkpt>
      <trkpt lat="49.39533" lon="5.80982">
        <ele>291.79998779297</ele>
        <time>2023-06-23T10:10:07Z</time>
      </trkpt>
      <trkpt lat="49.39535" lon="5.80982">
        <ele>292</ele>
        <time>2023-06-23T10:10:08Z</time>
      </trkpt>
      <trkpt lat="49.39537" lon="5.80982">
        <ele>292.39999389648</ele>
        <time>2023-06-23T10:10:10Z</time>
      </trkpt>
      <trkpt lat="49.3954" lon="5.80982">
        <ele>292.79998779297</ele>
        <time>2023-06-23T10:10:12Z</time>
      </trkpt>
      <trkpt lat="49.39541" lon="5.80982">
        <ele>293.20001220703</ele>
        <time>2023-06-23T10:10:13Z</time>
      </trkpt>
      <trkpt lat="49.39542" lon="5.80982">
        <ele>293.60000610352</ele>
        <time>2023-06-23T10:10:14Z</time>
      </trkpt>
      <trkpt lat="49.39543" lon="5.80983">
        <ele>293.79998779297</ele>
        <time>2023-06-23T10:10:15Z</time>
      </trkpt>
      <trkpt lat="49.39544" lon="5.80982">
        <ele>293.79998779297</ele>
        <time>2023-06-23T10:10:16Z</time>
      </trkpt>
      <trkpt lat="49.39546" lon="5.80982">
        <ele>294.20001220703</ele>
        <time>2023-06-23T10:10:18Z</time>
      </trkpt>
      <trkpt lat="49.39548" lon="5.80982">
        <ele>294.39999389648</ele>
        <time>2023-06-23T10:10:19Z</time>
      </trkpt>
      <trkpt lat="49.39549" lon="5.80982">
        <ele>294.60000610352</ele>
        <time>2023-06-23T10:10:20Z</time>
      </trkpt>
      <trkpt lat="49.39551" lon="5.80982">
        <ele>295</ele>
        <time>2023-06-23T10:10:22Z</time>
      </trkpt>
      <trkpt lat="49.39554" lon="5.80982">
        <ele>295.39999389648</ele>
        <time>2023-06-23T10:10:24Z</time>
      </trkpt>
      <trkpt lat="49.39556" lon="5.80981">
        <ele>295.39999389648</ele>
        <time>2023-06-23T10:10:25Z</time>
      </trkpt>
      <trkpt lat="49.39557" lon="5.80981">
        <ele>295.60000610352</ele>
        <time>2023-06-23T10:10:26Z</time>
      </trkpt>
      <trkpt lat="49.39558" lon="5.80981">
        <ele>295.79998779297</ele>
        <time>2023-06-23T10:10:27Z</time>
      </trkpt>
      <trkpt lat="49.3956" lon="5.80981">
        <ele>296</ele>
        <time>2023-06-23T10:10:28Z</time>
      </trkpt>
      <trkpt lat="49.39563" lon="5.8098">
        <ele>296.20001220703</ele>
        <time>2023-06-23T10:10:30Z</time>
      </trkpt>
      <trkpt lat="49.39566" lon="5.8098">
        <ele>296.39999389648</ele>
        <time>2023-06-23T10:10:32Z</time>
      </trkpt>
      <trkpt lat="49.39568" lon="5.8098">
        <ele>297</ele>
        <time>2023-06-23T10:10:34Z</time>
      </trkpt>
      <trkpt lat="49.39571" lon="5.80979">
        <ele>297.20001220703</ele>
        <time>2023-06-23T10:10:36Z</time>
      </trkpt>
      <trkpt lat="49.39574" lon="5.80979">
        <ele>297.39999389648</ele>
        <time>2023-06-23T10:10:38Z</time>
      </trkpt>
      <trkpt lat="49.39575" lon="5.80978">
        <ele>297.60000610352</ele>
        <time>2023-06-23T10:10:39Z</time>
      </trkpt>
      <trkpt lat="49.39576" lon="5.80977">
        <ele>297.79998779297</ele>
        <time>2023-06-23T10:10:40Z</time>
      </trkpt>
      <trkpt lat="49.39579" lon="5.80977">
        <ele>298</ele>
        <time>2023-06-23T10:10:42Z</time>
      </trkpt>
      <trkpt lat="49.39582" lon="5.80977">
        <ele>298.20001220703</ele>
        <time>2023-06-23T10:10:44Z</time>
      </trkpt>
      <trkpt lat="49.39585" lon="5.80976">
        <ele>298.39999389648</ele>
        <time>2023-06-23T10:10:46Z</time>
      </trkpt>
      <trkpt lat="49.39588" lon="5.80976">
        <ele>298.60000610352</ele>
        <time>2023-06-23T10:10:48Z</time>
      </trkpt>
      <trkpt lat="49.39591" lon="5.80977">
        <ele>298.79998779297</ele>
        <time>2023-06-23T10:10:50Z</time>
      </trkpt>
      <trkpt lat="49.39592" lon="5.80977">
        <ele>298.79998779297</ele>
        <time>2023-06-23T10:10:51Z</time>
      </trkpt>
      <trkpt lat="49.39593" lon="5.80976">
        <ele>298.79998779297</ele>
        <time>2023-06-23T10:10:52Z</time>
      </trkpt>
      <trkpt lat="49.39596" lon="5.80976">
        <ele>299</ele>
        <time>2023-06-23T10:10:54Z</time>
      </trkpt>
      <trkpt lat="49.39599" lon="5.80974">
        <ele>299.39999389648</ele>
        <time>2023-06-23T10:10:56Z</time>
      </trkpt>
      <trkpt lat="49.39601" lon="5.80973">
        <ele>299.60000610352</ele>
        <time>2023-06-23T10:10:58Z</time>
      </trkpt>
      <trkpt lat="49.39604" lon="5.80972">
        <ele>299.79998779297</ele>
        <time>2023-06-23T10:11:00Z</time>
      </trkpt>
      <trkpt lat="49.39608" lon="5.8097">
        <ele>299.79998779297</ele>
        <time>2023-06-23T10:11:02Z</time>
      </trkpt>
      <trkpt lat="49.39611" lon="5.80968">
        <ele>299.79998779297</ele>
        <time>2023-06-23T10:11:04Z</time>
      </trkpt>
      <trkpt lat="49.39614" lon="5.80966">
        <ele>300.20001220703</ele>
        <time>2023-06-23T10:11:06Z</time>
      </trkpt>
      <trkpt lat="49.39617" lon="5.80964">
        <ele>300.39999389648</ele>
        <time>2023-06-23T10:11:08Z</time>
      </trkpt>
      <trkpt lat="49.3962" lon="5.80963">
        <ele>300.60000610352</ele>
        <time>2023-06-23T10:11:10Z</time>
      </trkpt>
      <trkpt lat="49.39622" lon="5.80962">
        <ele>300.60000610352</ele>
        <time>2023-06-23T10:11:12Z</time>
      </trkpt>
      <trkpt lat="49.39624" lon="5.80962">
        <ele>301</ele>
        <time>2023-06-23T10:11:13Z</time>
      </trkpt>
      <trkpt lat="49.39625" lon="5.80962">
        <ele>301</ele>
        <time>2023-06-23T10:11:14Z</time>
      </trkpt>
      <trkpt lat="49.39627" lon="5.80962">
        <ele>301.20001220703</ele>
        <time>2023-06-23T10:11:15Z</time>
      </trkpt>
      <trkpt lat="49.39628" lon="5.80962">
        <ele>301.20001220703</ele>
        <time>2023-06-23T10:11:16Z</time>
      </trkpt>
      <trkpt lat="49.3963" lon="5.80962">
        <ele>301.39999389648</ele>
        <time>2023-06-23T10:11:18Z</time>
      </trkpt>
      <trkpt lat="49.39633" lon="5.8096">
        <ele>301.60000610352</ele>
        <time>2023-06-23T10:11:20Z</time>
      </trkpt>
      <trkpt lat="49.39635" lon="5.80959">
        <ele>301.60000610352</ele>
        <time>2023-06-23T10:11:22Z</time>
      </trkpt>
      <trkpt lat="49.39638" lon="5.80958">
        <ele>302</ele>
        <time>2023-06-23T10:11:24Z</time>
      </trkpt>
      <trkpt lat="49.39639" lon="5.80957">
        <ele>302.20001220703</ele>
        <time>2023-06-23T10:11:25Z</time>
      </trkpt>
      <trkpt lat="49.3964" lon="5.80956">
        <ele>302.39999389648</ele>
        <time>2023-06-23T10:11:26Z</time>
      </trkpt>
      <trkpt lat="49.3964" lon="5.80953">
        <ele>302.60000610352</ele>
        <time>2023-06-23T10:11:28Z</time>
      </trkpt>
      <trkpt lat="49.39642" lon="5.80949">
        <ele>302.60000610352</ele>
        <time>2023-06-23T10:11:30Z</time>
      </trkpt>
      <trkpt lat="49.39645" lon="5.80944">
        <ele>302.60000610352</ele>
        <time>2023-06-23T10:11:32Z</time>
      </trkpt>
      <trkpt lat="49.39648" lon="5.8094">
        <ele>302.60000610352</ele>
        <time>2023-06-23T10:11:34Z</time>
      </trkpt>
      <trkpt lat="49.3965" lon="5.80935">
        <ele>302.60000610352</ele>
        <time>2023-06-23T10:11:36Z</time>
      </trkpt>
      <trkpt lat="49.39652" lon="5.8093">
        <ele>302.39999389648</ele>
        <time>2023-06-23T10:11:38Z</time>
      </trkpt>
      <trkpt lat="49.39654" lon="5.80925">
        <ele>302.39999389648</ele>
        <time>2023-06-23T10:11:40Z</time>
      </trkpt>
      <trkpt lat="49.39657" lon="5.80917">
        <ele>302.20001220703</ele>
        <time>2023-06-23T10:11:42Z</time>
      </trkpt>
      <trkpt lat="49.3966" lon="5.8091">
        <ele>302</ele>
        <time>2023-06-23T10:11:44Z</time>
      </trkpt>
      <trkpt lat="49.39663" lon="5.80902">
        <ele>301.60000610352</ele>
        <time>2023-06-23T10:11:46Z</time>
      </trkpt>
      <trkpt lat="49.39664" lon="5.80898">
        <ele>301.60000610352</ele>
        <time>2023-06-23T10:11:47Z</time>
      </trkpt>
      <trkpt lat="49.39667" lon="5.80894">
        <ele>301.39999389648</ele>
        <time>2023-06-23T10:11:48Z</time>
      </trkpt>
      <trkpt lat="49.39672" lon="5.80886">
        <ele>301.20001220703</ele>
        <time>2023-06-23T10:11:50Z</time>
      </trkpt>
      <trkpt lat="49.39674" lon="5.80882">
        <ele>300.60000610352</ele>
        <time>2023-06-23T10:11:51Z</time>
      </trkpt>
      <trkpt lat="49.39676" lon="5.80879">
        <ele>300.60000610352</ele>
        <time>2023-06-23T10:11:52Z</time>
      </trkpt>
      <trkpt lat="49.39681" lon="5.8087">
        <ele>300.39999389648</ele>
        <time>2023-06-23T10:11:54Z</time>
      </trkpt>
      <trkpt lat="49.39684" lon="5.80862">
        <ele>300.39999389648</ele>
        <time>2023-06-23T10:11:56Z</time>
      </trkpt>
      <trkpt lat="49.39686" lon="5.80858">
        <ele>300.20001220703</ele>
        <time>2023-06-23T10:11:57Z</time>
      </trkpt>
      <trkpt lat="49.39686" lon="5.80854">
        <ele>300.20001220703</ele>
        <time>2023-06-23T10:11:58Z</time>
      </trkpt>
      <trkpt lat="49.39691" lon="5.80846">
        <ele>300.20001220703</ele>
        <time>2023-06-23T10:12:00Z</time>
      </trkpt>
      <trkpt lat="49.39694" lon="5.80838">
        <ele>300.20001220703</ele>
        <time>2023-06-23T10:12:02Z</time>
      </trkpt>
      <trkpt lat="49.39697" lon="5.8083">
        <ele>300.39999389648</ele>
        <time>2023-06-23T10:12:04Z</time>
      </trkpt>
      <trkpt lat="49.397" lon="5.80821">
        <ele>300.39999389648</ele>
        <time>2023-06-23T10:12:06Z</time>
      </trkpt>
      <trkpt lat="49.39702" lon="5.80814">
        <ele>300.39999389648</ele>
        <time>2023-06-23T10:12:08Z</time>
      </trkpt>
      <trkpt lat="49.39704" lon="5.80807">
        <ele>300.60000610352</ele>
        <time>2023-06-23T10:12:10Z</time>
      </trkpt>
      <trkpt lat="49.39707" lon="5.808">
        <ele>300.60000610352</ele>
        <time>2023-06-23T10:12:12Z</time>
      </trkpt>
      <trkpt lat="49.39709" lon="5.80793">
        <ele>300.60000610352</ele>
        <time>2023-06-23T10:12:14Z</time>
      </trkpt>
      <trkpt lat="49.39711" lon="5.80786">
        <ele>301</ele>
        <time>2023-06-23T10:12:16Z</time>
      </trkpt>
      <trkpt lat="49.39712" lon="5.8078">
        <ele>301.20001220703</ele>
        <time>2023-06-23T10:12:18Z</time>
      </trkpt>
      <trkpt lat="49.39713" lon="5.80774">
        <ele>301.39999389648</ele>
        <time>2023-06-23T10:12:20Z</time>
      </trkpt>
      <trkpt lat="49.39714" lon="5.80769">
        <ele>301.60000610352</ele>
        <time>2023-06-23T10:12:22Z</time>
      </trkpt>
      <trkpt lat="49.39716" lon="5.80759">
        <ele>301.79998779297</ele>
        <time>2023-06-23T10:12:24Z</time>
      </trkpt>
      <trkpt lat="49.39718" lon="5.80753">
        <ele>301.79998779297</ele>
        <time>2023-06-23T10:12:25Z</time>
      </trkpt>
      <trkpt lat="49.3972" lon="5.80749">
        <ele>302</ele>
        <time>2023-06-23T10:12:26Z</time>
      </trkpt>
      <trkpt lat="49.39724" lon="5.8074">
        <ele>302</ele>
        <time>2023-06-23T10:12:28Z</time>
      </trkpt>
      <trkpt lat="49.39727" lon="5.80733">
        <ele>302.20001220703</ele>
        <time>2023-06-23T10:12:30Z</time>
      </trkpt>
      <trkpt lat="49.39728" lon="5.80729">
        <ele>302.20001220703</ele>
        <time>2023-06-23T10:12:31Z</time>
      </trkpt>
      <trkpt lat="49.39729" lon="5.80725">
        <ele>302.20001220703</ele>
        <time>2023-06-23T10:12:32Z</time>
      </trkpt>
      <trkpt lat="49.3973" lon="5.80718">
        <ele>302.20001220703</ele>
        <time>2023-06-23T10:12:34Z</time>
      </trkpt>
      <trkpt lat="49.39731" lon="5.8071">
        <ele>302.60000610352</ele>
        <time>2023-06-23T10:12:36Z</time>
      </trkpt>
      <trkpt lat="49.39733" lon="5.80705">
        <ele>302.60000610352</ele>
        <time>2023-06-23T10:12:37Z</time>
      </trkpt>
      <trkpt lat="49.39735" lon="5.80701">
        <ele>302.79998779297</ele>
        <time>2023-06-23T10:12:38Z</time>
      </trkpt>
      <trkpt lat="49.39737" lon="5.80698">
        <ele>303</ele>
        <time>2023-06-23T10:12:39Z</time>
      </trkpt>
      <trkpt lat="49.39737" lon="5.80694">
        <ele>303</ele>
        <time>2023-06-23T10:12:40Z</time>
      </trkpt>
      <trkpt lat="49.39739" lon="5.80687">
        <ele>303.20001220703</ele>
        <time>2023-06-23T10:12:42Z</time>
      </trkpt>
      <trkpt lat="49.39742" lon="5.80678">
        <ele>303.20001220703</ele>
        <time>2023-06-23T10:12:44Z</time>
      </trkpt>
      <trkpt lat="49.39743" lon="5.80673">
        <ele>303.20001220703</ele>
        <time>2023-06-23T10:12:46Z</time>
      </trkpt>
      <trkpt lat="49.39743" lon="5.80671">
        <ele>303.20001220703</ele>
        <time>2023-06-23T10:12:47Z</time>
      </trkpt>
      <trkpt lat="49.39744" lon="5.80667">
        <ele>303.20001220703</ele>
        <time>2023-06-23T10:12:48Z</time>
      </trkpt>
      <trkpt lat="49.39745" lon="5.80661">
        <ele>303.20001220703</ele>
        <time>2023-06-23T10:12:50Z</time>
      </trkpt>
      <trkpt lat="49.39747" lon="5.80655">
        <ele>303</ele>
        <time>2023-06-23T10:12:52Z</time>
      </trkpt>
      <trkpt lat="49.39747" lon="5.80652">
        <ele>303.20001220703</ele>
        <time>2023-06-23T10:12:53Z</time>
      </trkpt>
      <trkpt lat="49.39747" lon="5.80649">
        <ele>303.20001220703</ele>
        <time>2023-06-23T10:12:54Z</time>
      </trkpt>
      <trkpt lat="49.39748" lon="5.80641">
        <ele>303.20001220703</ele>
        <time>2023-06-23T10:12:56Z</time>
      </trkpt>
      <trkpt lat="49.39749" lon="5.80635">
        <ele>303</ele>
        <time>2023-06-23T10:12:58Z</time>
      </trkpt>
      <trkpt lat="49.39751" lon="5.80631">
        <ele>302.79998779297</ele>
        <time>2023-06-23T10:12:59Z</time>
      </trkpt>
      <trkpt lat="49.39752" lon="5.80627">
        <ele>302.79998779297</ele>
        <time>2023-06-23T10:13:00Z</time>
      </trkpt>
      <trkpt lat="49.39753" lon="5.80616">
        <ele>302.60000610352</ele>
        <time>2023-06-23T10:13:02Z</time>
      </trkpt>
      <trkpt lat="49.39753" lon="5.80612">
        <ele>302.60000610352</ele>
        <time>2023-06-23T10:13:03Z</time>
      </trkpt>
      <trkpt lat="49.39753" lon="5.80608">
        <ele>302.79998779297</ele>
        <time>2023-06-23T10:13:04Z</time>
      </trkpt>
      <trkpt lat="49.39753" lon="5.80599">
        <ele>302.60000610352</ele>
        <time>2023-06-23T10:13:06Z</time>
      </trkpt>
      <trkpt lat="49.39753" lon="5.80589">
        <ele>302.39999389648</ele>
        <time>2023-06-23T10:13:08Z</time>
      </trkpt>
      <trkpt lat="49.39753" lon="5.80584">
        <ele>302.20001220703</ele>
        <time>2023-06-23T10:13:09Z</time>
      </trkpt>
      <trkpt lat="49.39753" lon="5.80579">
        <ele>302</ele>
        <time>2023-06-23T10:13:10Z</time>
      </trkpt>
      <trkpt lat="49.39751" lon="5.80573">
        <ele>302</ele>
        <time>2023-06-23T10:13:11Z</time>
      </trkpt>
      <trkpt lat="49.39749" lon="5.80568">
        <ele>301.79998779297</ele>
        <time>2023-06-23T10:13:12Z</time>
      </trkpt>
      <trkpt lat="49.39746" lon="5.80563">
        <ele>301.79998779297</ele>
        <time>2023-06-23T10:13:13Z</time>
      </trkpt>
      <trkpt lat="49.39744" lon="5.80558">
        <ele>301.39999389648</ele>
        <time>2023-06-23T10:13:14Z</time>
      </trkpt>
      <trkpt lat="49.3974" lon="5.80547">
        <ele>300.60000610352</ele>
        <time>2023-06-23T10:13:16Z</time>
      </trkpt>
      <trkpt lat="49.39736" lon="5.80533">
        <ele>300.60000610352</ele>
        <time>2023-06-23T10:13:18Z</time>
      </trkpt>
      <trkpt lat="49.39734" lon="5.80525">
        <ele>300.20001220703</ele>
        <time>2023-06-23T10:13:19Z</time>
      </trkpt>
      <trkpt lat="49.39733" lon="5.80515">
        <ele>300</ele>
        <time>2023-06-23T10:13:20Z</time>
      </trkpt>
      <trkpt lat="49.39732" lon="5.80506">
        <ele>299.60000610352</ele>
        <time>2023-06-23T10:13:21Z</time>
      </trkpt>
      <trkpt lat="49.39732" lon="5.80497">
        <ele>298.60000610352</ele>
        <time>2023-06-23T10:13:22Z</time>
      </trkpt>
      <trkpt lat="49.39732" lon="5.80488">
        <ele>298.39999389648</ele>
        <time>2023-06-23T10:13:23Z</time>
      </trkpt>
      <trkpt lat="49.39731" lon="5.80479">
        <ele>298</ele>
        <time>2023-06-23T10:13:24Z</time>
      </trkpt>
      <trkpt lat="49.3973" lon="5.80471">
        <ele>297.20001220703</ele>
        <time>2023-06-23T10:13:25Z</time>
      </trkpt>
      <trkpt lat="49.39729" lon="5.80463">
        <ele>296.20001220703</ele>
        <time>2023-06-23T10:13:26Z</time>
      </trkpt>
      <trkpt lat="49.39727" lon="5.80456">
        <ele>295.39999389648</ele>
        <time>2023-06-23T10:13:27Z</time>
      </trkpt>
      <trkpt lat="49.39726" lon="5.80446">
        <ele>294.60000610352</ele>
        <time>2023-06-23T10:13:28Z</time>
      </trkpt>
      <trkpt lat="49.39724" lon="5.80436">
        <ele>294.20001220703</ele>
        <time>2023-06-23T10:13:29Z</time>
      </trkpt>
      <trkpt lat="49.39721" lon="5.80425">
        <ele>293.60000610352</ele>
        <time>2023-06-23T10:13:30Z</time>
      </trkpt>
      <trkpt lat="49.39711" lon="5.80396">
        <ele>293.20001220703</ele>
        <time>2023-06-23T10:13:32Z</time>
      </trkpt>
      <trkpt lat="49.39706" lon="5.80383">
        <ele>292.60000610352</ele>
        <time>2023-06-23T10:13:33Z</time>
      </trkpt>
      <trkpt lat="49.39702" lon="5.80372">
        <ele>292.60000610352</ele>
        <time>2023-06-23T10:13:34Z</time>
      </trkpt>
      <trkpt lat="49.39699" lon="5.80358">
        <ele>292</ele>
        <time>2023-06-23T10:13:35Z</time>
      </trkpt>
      <trkpt lat="49.39698" lon="5.80344">
        <ele>291.60000610352</ele>
        <time>2023-06-23T10:13:36Z</time>
      </trkpt>
      <trkpt lat="49.39697" lon="5.80331">
        <ele>291.20001220703</ele>
        <time>2023-06-23T10:13:37Z</time>
      </trkpt>
      <trkpt lat="49.39696" lon="5.8032">
        <ele>290.79998779297</ele>
        <time>2023-06-23T10:13:38Z</time>
      </trkpt>
      <trkpt lat="49.39696" lon="5.80307">
        <ele>290</ele>
        <time>2023-06-23T10:13:39Z</time>
      </trkpt>
      <trkpt lat="49.39698" lon="5.80294">
        <ele>289.39999389648</ele>
        <time>2023-06-23T10:13:40Z</time>
      </trkpt>
      <trkpt lat="49.397" lon="5.80282">
        <ele>288</ele>
        <time>2023-06-23T10:13:41Z</time>
      </trkpt>
      <trkpt lat="49.39702" lon="5.80269">
        <ele>286.20001220703</ele>
        <time>2023-06-23T10:13:42Z</time>
      </trkpt>
      <trkpt lat="49.39705" lon="5.80255">
        <ele>285</ele>
        <time>2023-06-23T10:13:43Z</time>
      </trkpt>
      <trkpt lat="49.39708" lon="5.80241">
        <ele>283.79998779297</ele>
        <time>2023-06-23T10:13:44Z</time>
      </trkpt>
      <trkpt lat="49.39716" lon="5.80216">
        <ele>281.79998779297</ele>
        <time>2023-06-23T10:13:46Z</time>
      </trkpt>
      <trkpt lat="49.39729" lon="5.80193">
        <ele>279.79998779297</ele>
        <time>2023-06-23T10:13:48Z</time>
      </trkpt>
      <trkpt lat="49.39735" lon="5.80181">
        <ele>277.39999389648</ele>
        <time>2023-06-23T10:13:49Z</time>
      </trkpt>
      <trkpt lat="49.39741" lon="5.8017">
        <ele>276.39999389648</ele>
        <time>2023-06-23T10:13:50Z</time>
      </trkpt>
      <trkpt lat="49.39749" lon="5.80161">
        <ele>274.39999389648</ele>
        <time>2023-06-23T10:13:51Z</time>
      </trkpt>
      <trkpt lat="49.39755" lon="5.80152">
        <ele>272.60000610352</ele>
        <time>2023-06-23T10:13:52Z</time>
      </trkpt>
      <trkpt lat="49.39763" lon="5.80143">
        <ele>270.79998779297</ele>
        <time>2023-06-23T10:13:53Z</time>
      </trkpt>
      <trkpt lat="49.3977" lon="5.80133">
        <ele>269</ele>
        <time>2023-06-23T10:13:54Z</time>
      </trkpt>
      <trkpt lat="49.39777" lon="5.80126">
        <ele>267</ele>
        <time>2023-06-23T10:13:55Z</time>
      </trkpt>
      <trkpt lat="49.39783" lon="5.8012">
        <ele>265.60000610352</ele>
        <time>2023-06-23T10:13:56Z</time>
      </trkpt>
      <trkpt lat="49.39797" lon="5.80103">
        <ele>263.20001220703</ele>
        <time>2023-06-23T10:13:58Z</time>
      </trkpt>
      <trkpt lat="49.39804" lon="5.80095">
        <ele>261.39999389648</ele>
        <time>2023-06-23T10:13:59Z</time>
      </trkpt>
      <trkpt lat="49.3981" lon="5.80088">
        <ele>259.79998779297</ele>
        <time>2023-06-23T10:14:00Z</time>
      </trkpt>
      <trkpt lat="49.39815" lon="5.80081">
        <ele>258.20001220703</ele>
        <time>2023-06-23T10:14:01Z</time>
      </trkpt>
      <trkpt lat="49.3982" lon="5.80075">
        <ele>257.20001220703</ele>
        <time>2023-06-23T10:14:02Z</time>
      </trkpt>
      <trkpt lat="49.39824" lon="5.8007">
        <ele>256.60000610352</ele>
        <time>2023-06-23T10:14:03Z</time>
      </trkpt>
      <trkpt lat="49.39828" lon="5.80066">
        <ele>256.20001220703</ele>
        <time>2023-06-23T10:14:04Z</time>
      </trkpt>
      <trkpt lat="49.39832" lon="5.80063">
        <ele>256.20001220703</ele>
        <time>2023-06-23T10:14:05Z</time>
      </trkpt>
      <trkpt lat="49.39836" lon="5.8006">
        <ele>256</ele>
        <time>2023-06-23T10:14:06Z</time>
      </trkpt>
      <trkpt lat="49.39842" lon="5.80053">
        <ele>256</ele>
        <time>2023-06-23T10:14:08Z</time>
      </trkpt>
      <trkpt lat="49.39849" lon="5.80046">
        <ele>256</ele>
        <time>2023-06-23T10:14:10Z</time>
      </trkpt>
      <trkpt lat="49.39854" lon="5.80041">
        <ele>256</ele>
        <time>2023-06-23T10:14:12Z</time>
      </trkpt>
      <trkpt lat="49.39859" lon="5.80036">
        <ele>256.20001220703</ele>
        <time>2023-06-23T10:14:14Z</time>
      </trkpt>
      <trkpt lat="49.39861" lon="5.80034">
        <ele>256.60000610352</ele>
        <time>2023-06-23T10:14:15Z</time>
      </trkpt>
      <trkpt lat="49.39863" lon="5.80032">
        <ele>257.20001220703</ele>
        <time>2023-06-23T10:14:16Z</time>
      </trkpt>
      <trkpt lat="49.39867" lon="5.80028">
        <ele>257.79998779297</ele>
        <time>2023-06-23T10:14:18Z</time>
      </trkpt>
      <trkpt lat="49.39871" lon="5.80024">
        <ele>258.20001220703</ele>
        <time>2023-06-23T10:14:20Z</time>
      </trkpt>
      <trkpt lat="49.39873" lon="5.80023">
        <ele>258.39999389648</ele>
        <time>2023-06-23T10:14:21Z</time>
      </trkpt>
      <trkpt lat="49.39875" lon="5.80022">
        <ele>258.60000610352</ele>
        <time>2023-06-23T10:14:22Z</time>
      </trkpt>
      <trkpt lat="49.39879" lon="5.80018">
        <ele>259</ele>
        <time>2023-06-23T10:14:24Z</time>
      </trkpt>
      <trkpt lat="49.39882" lon="5.80016">
        <ele>259.20001220703</ele>
        <time>2023-06-23T10:14:25Z</time>
      </trkpt>
      <trkpt lat="49.39884" lon="5.80014">
        <ele>259.39999389648</ele>
        <time>2023-06-23T10:14:26Z</time>
      </trkpt>
      <trkpt lat="49.39886" lon="5.80012">
        <ele>259.39999389648</ele>
        <time>2023-06-23T10:14:27Z</time>
      </trkpt>
      <trkpt lat="49.39888" lon="5.8001">
        <ele>259.60000610352</ele>
        <time>2023-06-23T10:14:28Z</time>
      </trkpt>
      <trkpt lat="49.39892" lon="5.80006">
        <ele>260</ele>
        <time>2023-06-23T10:14:30Z</time>
      </trkpt>
      <trkpt lat="49.39896" lon="5.80003">
        <ele>260.39999389648</ele>
        <time>2023-06-23T10:14:32Z</time>
      </trkpt>
      <trkpt lat="49.39901" lon="5.80001">
        <ele>260.60000610352</ele>
        <time>2023-06-23T10:14:34Z</time>
      </trkpt>
      <trkpt lat="49.39904" lon="5.79999">
        <ele>260.60000610352</ele>
        <time>2023-06-23T10:14:35Z</time>
      </trkpt>
      <trkpt lat="49.39906" lon="5.79998">
        <ele>260.79998779297</ele>
        <time>2023-06-23T10:14:36Z</time>
      </trkpt>
      <trkpt lat="49.39909" lon="5.79995">
        <ele>261</ele>
        <time>2023-06-23T10:14:38Z</time>
      </trkpt>
      <trkpt lat="49.39909" lon="5.79993">
        <ele>261.39999389648</ele>
        <time>2023-06-23T10:14:39Z</time>
      </trkpt>
      <trkpt lat="49.39911" lon="5.79992">
        <ele>261.60000610352</ele>
        <time>2023-06-23T10:14:40Z</time>
      </trkpt>
      <trkpt lat="49.39912" lon="5.79991">
        <ele>261.60000610352</ele>
        <time>2023-06-23T10:14:41Z</time>
      </trkpt>
      <trkpt lat="49.39912" lon="5.7999">
        <ele>261.60000610352</ele>
        <time>2023-06-23T10:14:42Z</time>
      </trkpt>
      <trkpt lat="49.39913" lon="5.79986">
        <ele>262</ele>
        <time>2023-06-23T10:14:44Z</time>
      </trkpt>
      <trkpt lat="49.39913" lon="5.7998">
        <ele>262</ele>
        <time>2023-06-23T10:14:46Z</time>
      </trkpt>
      <trkpt lat="49.39914" lon="5.79972">
        <ele>262</ele>
        <time>2023-06-23T10:14:48Z</time>
      </trkpt>
      <trkpt lat="49.39914" lon="5.79962">
        <ele>262</ele>
        <time>2023-06-23T10:14:50Z</time>
      </trkpt>
      <trkpt lat="49.39914" lon="5.79955">
        <ele>262</ele>
        <time>2023-06-23T10:14:51Z</time>
      </trkpt>
      <trkpt lat="49.39915" lon="5.79947">
        <ele>262</ele>
        <time>2023-06-23T10:14:52Z</time>
      </trkpt>
      <trkpt lat="49.39918" lon="5.7993">
        <ele>261.79998779297</ele>
        <time>2023-06-23T10:14:54Z</time>
      </trkpt>
      <trkpt lat="49.39919" lon="5.7992">
        <ele>261.39999389648</ele>
        <time>2023-06-23T10:14:55Z</time>
      </trkpt>
      <trkpt lat="49.3992" lon="5.7991">
        <ele>260.79998779297</ele>
        <time>2023-06-23T10:14:56Z</time>
      </trkpt>
      <trkpt lat="49.3992" lon="5.79902">
        <ele>260.20001220703</ele>
        <time>2023-06-23T10:14:57Z</time>
      </trkpt>
      <trkpt lat="49.3992" lon="5.79894">
        <ele>259.60000610352</ele>
        <time>2023-06-23T10:14:58Z</time>
      </trkpt>
      <trkpt lat="49.3992" lon="5.79887">
        <ele>258.79998779297</ele>
        <time>2023-06-23T10:14:59Z</time>
      </trkpt>
      <trkpt lat="49.3992" lon="5.7988">
        <ele>257.79998779297</ele>
        <time>2023-06-23T10:15:00Z</time>
      </trkpt>
      <trkpt lat="49.3992" lon="5.79869">
        <ele>256.39999389648</ele>
        <time>2023-06-23T10:15:02Z</time>
      </trkpt>
      <trkpt lat="49.39919" lon="5.79856">
        <ele>256</ele>
        <time>2023-06-23T10:15:04Z</time>
      </trkpt>
      <trkpt lat="49.39919" lon="5.79846">
        <ele>255.80000305176</ele>
        <time>2023-06-23T10:15:06Z</time>
      </trkpt>
      <trkpt lat="49.39918" lon="5.79838">
        <ele>255.80000305176</ele>
        <time>2023-06-23T10:15:08Z</time>
      </trkpt>
      <trkpt lat="49.39917" lon="5.79831">
        <ele>255.80000305176</ele>
        <time>2023-06-23T10:15:10Z</time>
      </trkpt>
      <trkpt lat="49.39915" lon="5.79823">
        <ele>255.60000610352</ele>
        <time>2023-06-23T10:15:12Z</time>
      </trkpt>
      <trkpt lat="49.39913" lon="5.79815">
        <ele>255.60000610352</ele>
        <time>2023-06-23T10:15:14Z</time>
      </trkpt>
      <trkpt lat="49.39913" lon="5.79809">
        <ele>255.60000610352</ele>
        <time>2023-06-23T10:15:15Z</time>
      </trkpt>
      <trkpt lat="49.39911" lon="5.79804">
        <ele>255.60000610352</ele>
        <time>2023-06-23T10:15:16Z</time>
      </trkpt>
      <trkpt lat="49.39911" lon="5.79792">
        <ele>255.39999389648</ele>
        <time>2023-06-23T10:15:18Z</time>
      </trkpt>
      <trkpt lat="49.3991" lon="5.79787">
        <ele>255.39999389648</ele>
        <time>2023-06-23T10:15:19Z</time>
      </trkpt>
      <trkpt lat="49.3991" lon="5.79782">
        <ele>255.19999694824</ele>
        <time>2023-06-23T10:15:20Z</time>
      </trkpt>
      <trkpt lat="49.39909" lon="5.79777">
        <ele>255.19999694824</ele>
        <time>2023-06-23T10:15:21Z</time>
      </trkpt>
      <trkpt lat="49.39908" lon="5.79773">
        <ele>255.19999694824</ele>
        <time>2023-06-23T10:15:22Z</time>
      </trkpt>
      <trkpt lat="49.39907" lon="5.79763">
        <ele>255.19999694824</ele>
        <time>2023-06-23T10:15:24Z</time>
      </trkpt>
      <trkpt lat="49.39906" lon="5.79756">
        <ele>255.19999694824</ele>
        <time>2023-06-23T10:15:26Z</time>
      </trkpt>
      <trkpt lat="49.39904" lon="5.79753">
        <ele>255.19999694824</ele>
        <time>2023-06-23T10:15:27Z</time>
      </trkpt>
      <trkpt lat="49.39903" lon="5.79748">
        <ele>255.19999694824</ele>
        <time>2023-06-23T10:15:28Z</time>
      </trkpt>
      <trkpt lat="49.399" lon="5.79737">
        <ele>255.19999694824</ele>
        <time>2023-06-23T10:15:30Z</time>
      </trkpt>
      <trkpt lat="49.39897" lon="5.79723">
        <ele>255.39999389648</ele>
        <time>2023-06-23T10:15:32Z</time>
      </trkpt>
      <trkpt lat="49.39896" lon="5.79718">
        <ele>255.60000610352</ele>
        <time>2023-06-23T10:15:33Z</time>
      </trkpt>
      <trkpt lat="49.39894" lon="5.79711">
        <ele>255.60000610352</ele>
        <time>2023-06-23T10:15:34Z</time>
      </trkpt>
      <trkpt lat="49.39891" lon="5.79703">
        <ele>255.80000305176</ele>
        <time>2023-06-23T10:15:36Z</time>
      </trkpt>
      <trkpt lat="49.39883" lon="5.79688">
        <ele>257</ele>
        <time>2023-06-23T10:15:38Z</time>
      </trkpt>
      <trkpt lat="49.39877" lon="5.79677">
        <ele>257.79998779297</ele>
        <time>2023-06-23T10:15:40Z</time>
      </trkpt>
      <trkpt lat="49.39872" lon="5.79666">
        <ele>258</ele>
        <time>2023-06-23T10:15:42Z</time>
      </trkpt>
      <trkpt lat="49.39868" lon="5.7966">
        <ele>258.20001220703</ele>
        <time>2023-06-23T10:15:43Z</time>
      </trkpt>
      <trkpt lat="49.39866" lon="5.79656">
        <ele>258.39999389648</ele>
        <time>2023-06-23T10:15:44Z</time>
      </trkpt>
      <trkpt lat="49.39863" lon="5.79648">
        <ele>258.60000610352</ele>
        <time>2023-06-23T10:15:46Z</time>
      </trkpt>
      <trkpt lat="49.39857" lon="5.79642">
        <ele>258.60000610352</ele>
        <time>2023-06-23T10:15:48Z</time>
      </trkpt>
      <trkpt lat="49.39851" lon="5.79636">
        <ele>258.60000610352</ele>
        <time>2023-06-23T10:15:50Z</time>
      </trkpt>
      <trkpt lat="49.39845" lon="5.7963">
        <ele>258.60000610352</ele>
        <time>2023-06-23T10:15:52Z</time>
      </trkpt>
      <trkpt lat="49.39838" lon="5.79622">
        <ele>258.60000610352</ele>
        <time>2023-06-23T10:15:54Z</time>
      </trkpt>
      <trkpt lat="49.39834" lon="5.79617">
        <ele>258.60000610352</ele>
        <time>2023-06-23T10:15:55Z</time>
      </trkpt>
      <trkpt lat="49.3983" lon="5.79612">
        <ele>258.39999389648</ele>
        <time>2023-06-23T10:15:56Z</time>
      </trkpt>
      <trkpt lat="49.39823" lon="5.79603">
        <ele>258.20001220703</ele>
        <time>2023-06-23T10:15:58Z</time>
      </trkpt>
      <trkpt lat="49.39815" lon="5.79594">
        <ele>257.60000610352</ele>
        <time>2023-06-23T10:16:00Z</time>
      </trkpt>
      <trkpt lat="49.39809" lon="5.79588">
        <ele>257.20001220703</ele>
        <time>2023-06-23T10:16:02Z</time>
      </trkpt>
      <trkpt lat="49.39806" lon="5.79585">
        <ele>256.79998779297</ele>
        <time>2023-06-23T10:16:03Z</time>
      </trkpt>
      <trkpt lat="49.39803" lon="5.79581">
        <ele>256.39999389648</ele>
        <time>2023-06-23T10:16:04Z</time>
      </trkpt>
      <trkpt lat="49.398" lon="5.79577">
        <ele>256</ele>
        <time>2023-06-23T10:16:05Z</time>
      </trkpt>
      <trkpt lat="49.39795" lon="5.79573">
        <ele>255.80000305176</ele>
        <time>2023-06-23T10:16:06Z</time>
      </trkpt>
      <trkpt lat="49.3979" lon="5.79566">
        <ele>255.60000610352</ele>
        <time>2023-06-23T10:16:08Z</time>
      </trkpt>
      <trkpt lat="49.39785" lon="5.79559">
        <ele>255.60000610352</ele>
        <time>2023-06-23T10:16:10Z</time>
      </trkpt>
      <trkpt lat="49.39779" lon="5.79553">
        <ele>255.39999389648</ele>
        <time>2023-06-23T10:16:12Z</time>
      </trkpt>
      <trkpt lat="49.39773" lon="5.79546">
        <ele>255.39999389648</ele>
        <time>2023-06-23T10:16:14Z</time>
      </trkpt>
      <trkpt lat="49.39767" lon="5.79537">
        <ele>255.39999389648</ele>
        <time>2023-06-23T10:16:16Z</time>
      </trkpt>
      <trkpt lat="49.39761" lon="5.79529">
        <ele>255.39999389648</ele>
        <time>2023-06-23T10:16:18Z</time>
      </trkpt>
      <trkpt lat="49.39754" lon="5.79522">
        <ele>255.39999389648</ele>
        <time>2023-06-23T10:16:20Z</time>
      </trkpt>
      <trkpt lat="49.39751" lon="5.79518">
        <ele>255.39999389648</ele>
        <time>2023-06-23T10:16:21Z</time>
      </trkpt>
      <trkpt lat="49.39748" lon="5.79514">
        <ele>255.39999389648</ele>
        <time>2023-06-23T10:16:22Z</time>
      </trkpt>
      <trkpt lat="49.39742" lon="5.79503">
        <ele>255.39999389648</ele>
        <time>2023-06-23T10:16:24Z</time>
      </trkpt>
      <trkpt lat="49.39736" lon="5.7949">
        <ele>255.39999389648</ele>
        <time>2023-06-23T10:16:26Z</time>
      </trkpt>
      <trkpt lat="49.39731" lon="5.7948">
        <ele>255.39999389648</ele>
        <time>2023-06-23T10:16:28Z</time>
      </trkpt>
      <trkpt lat="49.39728" lon="5.79471">
        <ele>255.39999389648</ele>
        <time>2023-06-23T10:16:30Z</time>
      </trkpt>
      <trkpt lat="49.39727" lon="5.79466">
        <ele>255.39999389648</ele>
        <time>2023-06-23T10:16:31Z</time>
      </trkpt>
      <trkpt lat="49.39726" lon="5.79462">
        <ele>255.19999694824</ele>
        <time>2023-06-23T10:16:32Z</time>
      </trkpt>
      <trkpt lat="49.39723" lon="5.79453">
        <ele>255.19999694824</ele>
        <time>2023-06-23T10:16:34Z</time>
      </trkpt>
      <trkpt lat="49.39721" lon="5.79442">
        <ele>255.19999694824</ele>
        <time>2023-06-23T10:16:36Z</time>
      </trkpt>
      <trkpt lat="49.3972" lon="5.79436">
        <ele>255</ele>
        <time>2023-06-23T10:16:37Z</time>
      </trkpt>
      <trkpt lat="49.39719" lon="5.7943">
        <ele>255.19999694824</ele>
        <time>2023-06-23T10:16:38Z</time>
      </trkpt>
      <trkpt lat="49.39717" lon="5.79416">
        <ele>255.19999694824</ele>
        <time>2023-06-23T10:16:40Z</time>
      </trkpt>
      <trkpt lat="49.39716" lon="5.79409">
        <ele>255.19999694824</ele>
        <time>2023-06-23T10:16:41Z</time>
      </trkpt>
      <trkpt lat="49.39715" lon="5.79403">
        <ele>255</ele>
        <time>2023-06-23T10:16:42Z</time>
      </trkpt>
      <trkpt lat="49.39713" lon="5.79392">
        <ele>255</ele>
        <time>2023-06-23T10:16:44Z</time>
      </trkpt>
      <trkpt lat="49.3971" lon="5.79378">
        <ele>255</ele>
        <time>2023-06-23T10:16:46Z</time>
      </trkpt>
      <trkpt lat="49.39708" lon="5.79369">
        <ele>255</ele>
        <time>2023-06-23T10:16:47Z</time>
      </trkpt>
      <trkpt lat="49.39706" lon="5.79361">
        <ele>255</ele>
        <time>2023-06-23T10:16:48Z</time>
      </trkpt>
      <trkpt lat="49.39703" lon="5.79348">
        <ele>255.19999694824</ele>
        <time>2023-06-23T10:16:50Z</time>
      </trkpt>
      <trkpt lat="49.39702" lon="5.79335">
        <ele>255.19999694824</ele>
        <time>2023-06-23T10:16:52Z</time>
      </trkpt>
      <trkpt lat="49.39701" lon="5.7933">
        <ele>255.19999694824</ele>
        <time>2023-06-23T10:16:53Z</time>
      </trkpt>
      <trkpt lat="49.39701" lon="5.79325">
        <ele>255.19999694824</ele>
        <time>2023-06-23T10:16:54Z</time>
      </trkpt>
      <trkpt lat="49.39701" lon="5.79316">
        <ele>255.19999694824</ele>
        <time>2023-06-23T10:16:56Z</time>
      </trkpt>
      <trkpt lat="49.39702" lon="5.79307">
        <ele>255.39999389648</ele>
        <time>2023-06-23T10:16:58Z</time>
      </trkpt>
      <trkpt lat="49.39703" lon="5.79303">
        <ele>255.39999389648</ele>
        <time>2023-06-23T10:16:59Z</time>
      </trkpt>
      <trkpt lat="49.39705" lon="5.79299">
        <ele>255.60000610352</ele>
        <time>2023-06-23T10:17:00Z</time>
      </trkpt>
      <trkpt lat="49.39708" lon="5.79291">
        <ele>255.60000610352</ele>
        <time>2023-06-23T10:17:02Z</time>
      </trkpt>
      <trkpt lat="49.39711" lon="5.79282">
        <ele>255.60000610352</ele>
        <time>2023-06-23T10:17:04Z</time>
      </trkpt>
      <trkpt lat="49.39713" lon="5.79277">
        <ele>255.60000610352</ele>
        <time>2023-06-23T10:17:05Z</time>
      </trkpt>
      <trkpt lat="49.39714" lon="5.79272">
        <ele>255.80000305176</ele>
        <time>2023-06-23T10:17:06Z</time>
      </trkpt>
      <trkpt lat="49.39717" lon="5.79264">
        <ele>255.80000305176</ele>
        <time>2023-06-23T10:17:08Z</time>
      </trkpt>
      <trkpt lat="49.3972" lon="5.79257">
        <ele>255.80000305176</ele>
        <time>2023-06-23T10:17:10Z</time>
      </trkpt>
      <trkpt lat="49.39721" lon="5.79254">
        <ele>255.80000305176</ele>
        <time>2023-06-23T10:17:11Z</time>
      </trkpt>
      <trkpt lat="49.39722" lon="5.79251">
        <ele>255.80000305176</ele>
        <time>2023-06-23T10:17:12Z</time>
      </trkpt>
      <trkpt lat="49.39726" lon="5.79244">
        <ele>255.80000305176</ele>
        <time>2023-06-23T10:17:14Z</time>
      </trkpt>
      <trkpt lat="49.3973" lon="5.79236">
        <ele>256</ele>
        <time>2023-06-23T10:17:16Z</time>
      </trkpt>
      <trkpt lat="49.39735" lon="5.79228">
        <ele>256</ele>
        <time>2023-06-23T10:17:18Z</time>
      </trkpt>
      <trkpt lat="49.39739" lon="5.79223">
        <ele>256.20001220703</ele>
        <time>2023-06-23T10:17:20Z</time>
      </trkpt>
      <trkpt lat="49.39743" lon="5.79218">
        <ele>256.39999389648</ele>
        <time>2023-06-23T10:17:22Z</time>
      </trkpt>
      <trkpt lat="49.39746" lon="5.79215">
        <ele>256.60000610352</ele>
        <time>2023-06-23T10:17:24Z</time>
      </trkpt>
      <trkpt lat="49.39746" lon="5.79214">
        <ele>256.60000610352</ele>
        <time>2023-06-23T10:17:25Z</time>
      </trkpt>
      <trkpt lat="49.39748" lon="5.79214">
        <ele>256.79998779297</ele>
        <time>2023-06-23T10:17:26Z</time>
      </trkpt>
      <trkpt lat="49.3975" lon="5.79211">
        <ele>257.79998779297</ele>
        <time>2023-06-23T10:17:28Z</time>
      </trkpt>
      <trkpt lat="49.39751" lon="5.79211">
        <ele>258.20001220703</ele>
        <time>2023-06-23T10:17:29Z</time>
      </trkpt>
      <trkpt lat="49.39752" lon="5.7921">
        <ele>258.60000610352</ele>
        <time>2023-06-23T10:17:30Z</time>
      </trkpt>
      <trkpt lat="49.39754" lon="5.79209">
        <ele>259</ele>
        <time>2023-06-23T10:17:31Z</time>
      </trkpt>
      <trkpt lat="49.39755" lon="5.79209">
        <ele>259.39999389648</ele>
        <time>2023-06-23T10:17:32Z</time>
      </trkpt>
      <trkpt lat="49.39758" lon="5.79208">
        <ele>260.20001220703</ele>
        <time>2023-06-23T10:17:34Z</time>
      </trkpt>
      <trkpt lat="49.3976" lon="5.79206">
        <ele>261</ele>
        <time>2023-06-23T10:17:36Z</time>
      </trkpt>
      <trkpt lat="49.39762" lon="5.79205">
        <ele>261.39999389648</ele>
        <time>2023-06-23T10:17:37Z</time>
      </trkpt>
      <trkpt lat="49.39763" lon="5.79205">
        <ele>261.79998779297</ele>
        <time>2023-06-23T10:17:38Z</time>
      </trkpt>
      <trkpt lat="49.39765" lon="5.79204">
        <ele>262.20001220703</ele>
        <time>2023-06-23T10:17:39Z</time>
      </trkpt>
      <trkpt lat="49.39766" lon="5.79203">
        <ele>262.79998779297</ele>
        <time>2023-06-23T10:17:40Z</time>
      </trkpt>
      <trkpt lat="49.39769" lon="5.79203">
        <ele>263.79998779297</ele>
        <time>2023-06-23T10:17:42Z</time>
      </trkpt>
      <trkpt lat="49.39771" lon="5.79202">
        <ele>264.79998779297</ele>
        <time>2023-06-23T10:17:44Z</time>
      </trkpt>
      <trkpt lat="49.39772" lon="5.79201">
        <ele>265.20001220703</ele>
        <time>2023-06-23T10:17:45Z</time>
      </trkpt>
      <trkpt lat="49.39773" lon="5.79201">
        <ele>265.60000610352</ele>
        <time>2023-06-23T10:17:46Z</time>
      </trkpt>
      <trkpt lat="49.39775" lon="5.79199">
        <ele>266.20001220703</ele>
        <time>2023-06-23T10:17:48Z</time>
      </trkpt>
      <trkpt lat="49.39777" lon="5.79198">
        <ele>266.79998779297</ele>
        <time>2023-06-23T10:17:50Z</time>
      </trkpt>
      <trkpt lat="49.3978" lon="5.79196">
        <ele>267.39999389648</ele>
        <time>2023-06-23T10:17:52Z</time>
      </trkpt>
      <trkpt lat="49.39782" lon="5.79194">
        <ele>268.39999389648</ele>
        <time>2023-06-23T10:17:54Z</time>
      </trkpt>
      <trkpt lat="49.39783" lon="5.79194">
        <ele>268.60000610352</ele>
        <time>2023-06-23T10:17:55Z</time>
      </trkpt>
      <trkpt lat="49.39785" lon="5.79193">
        <ele>268.79998779297</ele>
        <time>2023-06-23T10:17:56Z</time>
      </trkpt>
      <trkpt lat="49.39786" lon="5.79193">
        <ele>269.39999389648</ele>
        <time>2023-06-23T10:17:58Z</time>
      </trkpt>
      <trkpt lat="49.39788" lon="5.79193">
        <ele>269.79998779297</ele>
        <time>2023-06-23T10:18:00Z</time>
      </trkpt>
      <trkpt lat="49.3979" lon="5.79193">
        <ele>270.20001220703</ele>
        <time>2023-06-23T10:18:02Z</time>
      </trkpt>
      <trkpt lat="49.39792" lon="5.79193">
        <ele>270.60000610352</ele>
        <time>2023-06-23T10:18:04Z</time>
      </trkpt>
      <trkpt lat="49.39793" lon="5.79192">
        <ele>270.79998779297</ele>
        <time>2023-06-23T10:18:05Z</time>
      </trkpt>
      <trkpt lat="49.39794" lon="5.79192">
        <ele>271.20001220703</ele>
        <time>2023-06-23T10:18:06Z</time>
      </trkpt>
      <trkpt lat="49.39796" lon="5.79191">
        <ele>271.39999389648</ele>
        <time>2023-06-23T10:18:08Z</time>
      </trkpt>
      <trkpt lat="49.39798" lon="5.79191">
        <ele>272</ele>
        <time>2023-06-23T10:18:10Z</time>
      </trkpt>
      <trkpt lat="49.398" lon="5.79191">
        <ele>272.39999389648</ele>
        <time>2023-06-23T10:18:12Z</time>
      </trkpt>
      <trkpt lat="49.39802" lon="5.7919">
        <ele>272.60000610352</ele>
        <time>2023-06-23T10:18:14Z</time>
      </trkpt>
      <trkpt lat="49.39805" lon="5.79188">
        <ele>273</ele>
        <time>2023-06-23T10:18:16Z</time>
      </trkpt>
      <trkpt lat="49.39806" lon="5.79187">
        <ele>273.60000610352</ele>
        <time>2023-06-23T10:18:18Z</time>
      </trkpt>
      <trkpt lat="49.39808" lon="5.79187">
        <ele>274</ele>
        <time>2023-06-23T10:18:20Z</time>
      </trkpt>
      <trkpt lat="49.39809" lon="5.79187">
        <ele>274.39999389648</ele>
        <time>2023-06-23T10:18:21Z</time>
      </trkpt>
      <trkpt lat="49.3981" lon="5.79187">
        <ele>274.60000610352</ele>
        <time>2023-06-23T10:18:22Z</time>
      </trkpt>
      <trkpt lat="49.39811" lon="5.79187">
        <ele>274.79998779297</ele>
        <time>2023-06-23T10:18:23Z</time>
      </trkpt>
      <trkpt lat="49.39812" lon="5.79187">
        <ele>275</ele>
        <time>2023-06-23T10:18:24Z</time>
      </trkpt>
      <trkpt lat="49.39814" lon="5.79188">
        <ele>275.39999389648</ele>
        <time>2023-06-23T10:18:26Z</time>
      </trkpt>
      <trkpt lat="49.39815" lon="5.79188">
        <ele>275.60000610352</ele>
        <time>2023-06-23T10:18:27Z</time>
      </trkpt>
      <trkpt lat="49.39816" lon="5.79188">
        <ele>276</ele>
        <time>2023-06-23T10:18:28Z</time>
      </trkpt>
      <trkpt lat="49.39818" lon="5.79188">
        <ele>276.20001220703</ele>
        <time>2023-06-23T10:18:30Z</time>
      </trkpt>
      <trkpt lat="49.39821" lon="5.79189">
        <ele>276.39999389648</ele>
        <time>2023-06-23T10:18:32Z</time>
      </trkpt>
      <trkpt lat="49.39823" lon="5.79189">
        <ele>276.60000610352</ele>
        <time>2023-06-23T10:18:34Z</time>
      </trkpt>
      <trkpt lat="49.39824" lon="5.79189">
        <ele>276.79998779297</ele>
        <time>2023-06-23T10:18:35Z</time>
      </trkpt>
      <trkpt lat="49.39825" lon="5.79189">
        <ele>277</ele>
        <time>2023-06-23T10:18:36Z</time>
      </trkpt>
      <trkpt lat="49.39827" lon="5.79188">
        <ele>277.20001220703</ele>
        <time>2023-06-23T10:18:38Z</time>
      </trkpt>
      <trkpt lat="49.3983" lon="5.79188">
        <ele>277.39999389648</ele>
        <time>2023-06-23T10:18:40Z</time>
      </trkpt>
      <trkpt lat="49.39832" lon="5.79188">
        <ele>277.79998779297</ele>
        <time>2023-06-23T10:18:42Z</time>
      </trkpt>
      <trkpt lat="49.39833" lon="5.79188">
        <ele>277.79998779297</ele>
        <time>2023-06-23T10:18:43Z</time>
      </trkpt>
      <trkpt lat="49.39834" lon="5.79189">
        <ele>277.79998779297</ele>
        <time>2023-06-23T10:18:44Z</time>
      </trkpt>
      <trkpt lat="49.39836" lon="5.79189">
        <ele>278</ele>
        <time>2023-06-23T10:18:46Z</time>
      </trkpt>
      <trkpt lat="49.39838" lon="5.79189">
        <ele>278.20001220703</ele>
        <time>2023-06-23T10:18:48Z</time>
      </trkpt>
      <trkpt lat="49.3984" lon="5.79188">
        <ele>278.60000610352</ele>
        <time>2023-06-23T10:18:50Z</time>
      </trkpt>
      <trkpt lat="49.39842" lon="5.79187">
        <ele>278.79998779297</ele>
        <time>2023-06-23T10:18:52Z</time>
      </trkpt>
      <trkpt lat="49.39844" lon="5.79187">
        <ele>279</ele>
        <time>2023-06-23T10:18:54Z</time>
      </trkpt>
      <trkpt lat="49.39847" lon="5.79186">
        <ele>279.39999389648</ele>
        <time>2023-06-23T10:18:56Z</time>
      </trkpt>
      <trkpt lat="49.39849" lon="5.79185">
        <ele>279.79998779297</ele>
        <time>2023-06-23T10:18:58Z</time>
      </trkpt>
      <trkpt lat="49.39851" lon="5.79185">
        <ele>279.79998779297</ele>
        <time>2023-06-23T10:18:59Z</time>
      </trkpt>
      <trkpt lat="49.39852" lon="5.79184">
        <ele>279.79998779297</ele>
        <time>2023-06-23T10:19:00Z</time>
      </trkpt>
      <trkpt lat="49.39854" lon="5.79184">
        <ele>280</ele>
        <time>2023-06-23T10:19:02Z</time>
      </trkpt>
      <trkpt lat="49.39857" lon="5.79184">
        <ele>280</ele>
        <time>2023-06-23T10:19:04Z</time>
      </trkpt>
      <trkpt lat="49.39859" lon="5.79184">
        <ele>280.20001220703</ele>
        <time>2023-06-23T10:19:06Z</time>
      </trkpt>
      <trkpt lat="49.39862" lon="5.79184">
        <ele>280.20001220703</ele>
        <time>2023-06-23T10:19:08Z</time>
      </trkpt>
      <trkpt lat="49.39864" lon="5.79184">
        <ele>280.20001220703</ele>
        <time>2023-06-23T10:19:10Z</time>
      </trkpt>
      <trkpt lat="49.39867" lon="5.79184">
        <ele>280.20001220703</ele>
        <time>2023-06-23T10:19:12Z</time>
      </trkpt>
      <trkpt lat="49.3987" lon="5.79183">
        <ele>280.20001220703</ele>
        <time>2023-06-23T10:19:14Z</time>
      </trkpt>
      <trkpt lat="49.39873" lon="5.79183">
        <ele>280.20001220703</ele>
        <time>2023-06-23T10:19:16Z</time>
      </trkpt>
      <trkpt lat="49.39874" lon="5.79184">
        <ele>280.20001220703</ele>
        <time>2023-06-23T10:19:18Z</time>
      </trkpt>
      <trkpt lat="49.39876" lon="5.79184">
        <ele>280.20001220703</ele>
        <time>2023-06-23T10:19:20Z</time>
      </trkpt>
      <trkpt lat="49.39877" lon="5.79184">
        <ele>280.20001220703</ele>
        <time>2023-06-23T10:19:22Z</time>
      </trkpt>
      <trkpt lat="49.39878" lon="5.79184">
        <ele>280.20001220703</ele>
        <time>2023-06-23T10:19:24Z</time>
      </trkpt>
      <trkpt lat="49.39879" lon="5.79184">
        <ele>280</ele>
        <time>2023-06-23T10:19:26Z</time>
      </trkpt>
      <trkpt lat="49.3988" lon="5.79185">
        <ele>280</ele>
        <time>2023-06-23T10:19:28Z</time>
      </trkpt>
      <trkpt lat="49.39881" lon="5.79185">
        <ele>280</ele>
        <time>2023-06-23T10:19:30Z</time>
      </trkpt>
      <trkpt lat="49.39882" lon="5.79184">
        <ele>280</ele>
        <time>2023-06-23T10:19:32Z</time>
      </trkpt>
      <trkpt lat="49.39882" lon="5.79184">
        <ele>280</ele>
        <time>2023-06-23T10:19:33Z</time>
      </trkpt>
      <trkpt lat="49.39883" lon="5.79184">
        <ele>280</ele>
        <time>2023-06-23T10:19:34Z</time>
      </trkpt>
      <trkpt lat="49.39883" lon="5.79184">
        <ele>280</ele>
        <time>2023-06-23T10:19:36Z</time>
      </trkpt>
      <trkpt lat="49.39883" lon="5.79184">
        <ele>280</ele>
        <time>2023-06-23T10:19:38Z</time>
      </trkpt>
      <trkpt lat="49.39882" lon="5.79185">
        <ele>280</ele>
        <time>2023-06-23T10:19:40Z</time>
      </trkpt>
      <trkpt lat="49.39883" lon="5.79185">
        <ele>280</ele>
        <time>2023-06-23T10:19:42Z</time>
      </trkpt>
      <trkpt lat="49.39885" lon="5.79184">
        <ele>280</ele>
        <time>2023-06-23T10:19:44Z</time>
      </trkpt>
      <trkpt lat="49.39888" lon="5.79185">
        <ele>280</ele>
        <time>2023-06-23T10:19:46Z</time>
      </trkpt>
      <trkpt lat="49.39889" lon="5.79185">
        <ele>280</ele>
        <time>2023-06-23T10:19:47Z</time>
      </trkpt>
      <trkpt lat="49.39891" lon="5.79185">
        <ele>280</ele>
        <time>2023-06-23T10:19:48Z</time>
      </trkpt>
      <trkpt lat="49.39897" lon="5.79185">
        <ele>279.60000610352</ele>
        <time>2023-06-23T10:19:50Z</time>
      </trkpt>
      <trkpt lat="49.39905" lon="5.79183">
        <ele>279.20001220703</ele>
        <time>2023-06-23T10:19:52Z</time>
      </trkpt>
      <trkpt lat="49.39909" lon="5.79181">
        <ele>279</ele>
        <time>2023-06-23T10:19:53Z</time>
      </trkpt>
      <trkpt lat="49.39914" lon="5.7918">
        <ele>278.79998779297</ele>
        <time>2023-06-23T10:19:54Z</time>
      </trkpt>
      <trkpt lat="49.39919" lon="5.7918">
        <ele>278.39999389648</ele>
        <time>2023-06-23T10:19:55Z</time>
      </trkpt>
      <trkpt lat="49.39925" lon="5.7918">
        <ele>277.79998779297</ele>
        <time>2023-06-23T10:19:56Z</time>
      </trkpt>
      <trkpt lat="49.39931" lon="5.7918">
        <ele>277.20001220703</ele>
        <time>2023-06-23T10:19:57Z</time>
      </trkpt>
      <trkpt lat="49.39936" lon="5.7918">
        <ele>276.20001220703</ele>
        <time>2023-06-23T10:19:58Z</time>
      </trkpt>
      <trkpt lat="49.39947" lon="5.79179">
        <ele>274.39999389648</ele>
        <time>2023-06-23T10:20:00Z</time>
      </trkpt>
      <trkpt lat="49.39955" lon="5.79177">
        <ele>273.39999389648</ele>
        <time>2023-06-23T10:20:01Z</time>
      </trkpt>
      <trkpt lat="49.3996" lon="5.79177">
        <ele>272.60000610352</ele>
        <time>2023-06-23T10:20:02Z</time>
      </trkpt>
      <trkpt lat="49.39965" lon="5.79176">
        <ele>272.20001220703</ele>
        <time>2023-06-23T10:20:03Z</time>
      </trkpt>
      <trkpt lat="49.3997" lon="5.79176">
        <ele>272</ele>
        <time>2023-06-23T10:20:04Z</time>
      </trkpt>
      <trkpt lat="49.39977" lon="5.79174">
        <ele>272</ele>
        <time>2023-06-23T10:20:06Z</time>
      </trkpt>
      <trkpt lat="49.39986" lon="5.79174">
        <ele>271.79998779297</ele>
        <time>2023-06-23T10:20:08Z</time>
      </trkpt>
      <trkpt lat="49.39991" lon="5.79174">
        <ele>271.79998779297</ele>
        <time>2023-06-23T10:20:09Z</time>
      </trkpt>
      <trkpt lat="49.39995" lon="5.79173">
        <ele>271.79998779297</ele>
        <time>2023-06-23T10:20:10Z</time>
      </trkpt>
      <trkpt lat="49.40003" lon="5.79172">
        <ele>272.39999389648</ele>
        <time>2023-06-23T10:20:12Z</time>
      </trkpt>
      <trkpt lat="49.4001" lon="5.79171">
        <ele>272.79998779297</ele>
        <time>2023-06-23T10:20:14Z</time>
      </trkpt>
      <trkpt lat="49.40017" lon="5.79169">
        <ele>273</ele>
        <time>2023-06-23T10:20:16Z</time>
      </trkpt>
      <trkpt lat="49.40024" lon="5.79168">
        <ele>273</ele>
        <time>2023-06-23T10:20:18Z</time>
      </trkpt>
      <trkpt lat="49.40031" lon="5.79168">
        <ele>273.39999389648</ele>
        <time>2023-06-23T10:20:20Z</time>
      </trkpt>
      <trkpt lat="49.40037" lon="5.79168">
        <ele>273.39999389648</ele>
        <time>2023-06-23T10:20:22Z</time>
      </trkpt>
      <trkpt lat="49.4004" lon="5.79168">
        <ele>273.39999389648</ele>
        <time>2023-06-23T10:20:23Z</time>
      </trkpt>
      <trkpt lat="49.40042" lon="5.79167">
        <ele>273.39999389648</ele>
        <time>2023-06-23T10:20:24Z</time>
      </trkpt>
      <trkpt lat="49.40048" lon="5.79167">
        <ele>273.60000610352</ele>
        <time>2023-06-23T10:20:26Z</time>
      </trkpt>
      <trkpt lat="49.40052" lon="5.79167">
        <ele>274.20001220703</ele>
        <time>2023-06-23T10:20:28Z</time>
      </trkpt>
      <trkpt lat="49.40055" lon="5.79166">
        <ele>274.39999389648</ele>
        <time>2023-06-23T10:20:29Z</time>
      </trkpt>
      <trkpt lat="49.40057" lon="5.79166">
        <ele>274.60000610352</ele>
        <time>2023-06-23T10:20:30Z</time>
      </trkpt>
      <trkpt lat="49.40062" lon="5.79166">
        <ele>275</ele>
        <time>2023-06-23T10:20:32Z</time>
      </trkpt>
      <trkpt lat="49.40069" lon="5.79166">
        <ele>275.60000610352</ele>
        <time>2023-06-23T10:20:34Z</time>
      </trkpt>
      <trkpt lat="49.40073" lon="5.79166">
        <ele>276</ele>
        <time>2023-06-23T10:20:36Z</time>
      </trkpt>
      <trkpt lat="49.4008" lon="5.79166">
        <ele>276</ele>
        <time>2023-06-23T10:20:38Z</time>
      </trkpt>
      <trkpt lat="49.40085" lon="5.79167">
        <ele>276.20001220703</ele>
        <time>2023-06-23T10:20:40Z</time>
      </trkpt>
      <trkpt lat="49.40092" lon="5.79166">
        <ele>276.20001220703</ele>
        <time>2023-06-23T10:20:41Z</time>
      </trkpt>
      <trkpt lat="49.40096" lon="5.79166">
        <ele>276.20001220703</ele>
        <time>2023-06-23T10:20:42Z</time>
      </trkpt>
      <trkpt lat="49.40104" lon="5.79165">
        <ele>276.20001220703</ele>
        <time>2023-06-23T10:20:44Z</time>
      </trkpt>
      <trkpt lat="49.40109" lon="5.79164">
        <ele>276.20001220703</ele>
        <time>2023-06-23T10:20:46Z</time>
      </trkpt>
      <trkpt lat="49.40112" lon="5.79164">
        <ele>276.20001220703</ele>
        <time>2023-06-23T10:20:47Z</time>
      </trkpt>
      <trkpt lat="49.40115" lon="5.79164">
        <ele>276.20001220703</ele>
        <time>2023-06-23T10:20:48Z</time>
      </trkpt>
      <trkpt lat="49.40122" lon="5.79164">
        <ele>276.39999389648</ele>
        <time>2023-06-23T10:20:50Z</time>
      </trkpt>
      <trkpt lat="49.40127" lon="5.79165">
        <ele>276.39999389648</ele>
        <time>2023-06-23T10:20:52Z</time>
      </trkpt>
      <trkpt lat="49.40131" lon="5.79163">
        <ele>276.39999389648</ele>
        <time>2023-06-23T10:20:54Z</time>
      </trkpt>
      <trkpt lat="49.40136" lon="5.79161">
        <ele>276.39999389648</ele>
        <time>2023-06-23T10:20:56Z</time>
      </trkpt>
      <trkpt lat="49.40139" lon="5.79161">
        <ele>276.39999389648</ele>
        <time>2023-06-23T10:20:57Z</time>
      </trkpt>
      <trkpt lat="49.40142" lon="5.79162">
        <ele>276.39999389648</ele>
        <time>2023-06-23T10:20:58Z</time>
      </trkpt>
      <trkpt lat="49.40146" lon="5.79162">
        <ele>276.39999389648</ele>
        <time>2023-06-23T10:20:59Z</time>
      </trkpt>
      <trkpt lat="49.4015" lon="5.79163">
        <ele>276.39999389648</ele>
        <time>2023-06-23T10:21:00Z</time>
      </trkpt>
      <trkpt lat="49.40157" lon="5.79162">
        <ele>276.20001220703</ele>
        <time>2023-06-23T10:21:02Z</time>
      </trkpt>
      <trkpt lat="49.40164" lon="5.7916">
        <ele>276</ele>
        <time>2023-06-23T10:21:04Z</time>
      </trkpt>
      <trkpt lat="49.40172" lon="5.79158">
        <ele>275.60000610352</ele>
        <time>2023-06-23T10:21:06Z</time>
      </trkpt>
      <trkpt lat="49.40179" lon="5.79156">
        <ele>275.20001220703</ele>
        <time>2023-06-23T10:21:08Z</time>
      </trkpt>
      <trkpt lat="49.40182" lon="5.79155">
        <ele>274.79998779297</ele>
        <time>2023-06-23T10:21:09Z</time>
      </trkpt>
      <trkpt lat="49.40185" lon="5.79154">
        <ele>274.60000610352</ele>
        <time>2023-06-23T10:21:10Z</time>
      </trkpt>
      <trkpt lat="49.4019" lon="5.79153">
        <ele>274.39999389648</ele>
        <time>2023-06-23T10:21:12Z</time>
      </trkpt>
      <trkpt lat="49.40194" lon="5.79151">
        <ele>274.39999389648</ele>
        <time>2023-06-23T10:21:14Z</time>
      </trkpt>
      <trkpt lat="49.40196" lon="5.79149">
        <ele>274.39999389648</ele>
        <time>2023-06-23T10:21:15Z</time>
      </trkpt>
      <trkpt lat="49.40198" lon="5.79148">
        <ele>274.20001220703</ele>
        <time>2023-06-23T10:21:16Z</time>
      </trkpt>
      <trkpt lat="49.40201" lon="5.79144">
        <ele>274.20001220703</ele>
        <time>2023-06-23T10:21:18Z</time>
      </trkpt>
      <trkpt lat="49.40203" lon="5.79141">
        <ele>274</ele>
        <time>2023-06-23T10:21:20Z</time>
      </trkpt>
      <trkpt lat="49.40205" lon="5.79135">
        <ele>274</ele>
        <time>2023-06-23T10:21:22Z</time>
      </trkpt>
      <trkpt lat="49.40207" lon="5.79129">
        <ele>274</ele>
        <time>2023-06-23T10:21:24Z</time>
      </trkpt>
      <trkpt lat="49.40209" lon="5.79126">
        <ele>274</ele>
        <time>2023-06-23T10:21:25Z</time>
      </trkpt>
      <trkpt lat="49.40209" lon="5.79122">
        <ele>274</ele>
        <time>2023-06-23T10:21:26Z</time>
      </trkpt>
      <trkpt lat="49.4021" lon="5.79118">
        <ele>274</ele>
        <time>2023-06-23T10:21:27Z</time>
      </trkpt>
      <trkpt lat="49.40211" lon="5.79113">
        <ele>274</ele>
        <time>2023-06-23T10:21:28Z</time>
      </trkpt>
      <trkpt lat="49.40217" lon="5.79104">
        <ele>273.79998779297</ele>
        <time>2023-06-23T10:21:30Z</time>
      </trkpt>
      <trkpt lat="49.4022" lon="5.79102">
        <ele>273.60000610352</ele>
        <time>2023-06-23T10:21:31Z</time>
      </trkpt>
      <trkpt lat="49.40222" lon="5.79101">
        <ele>273.39999389648</ele>
        <time>2023-06-23T10:21:32Z</time>
      </trkpt>
      <trkpt lat="49.40226" lon="5.79097">
        <ele>273.39999389648</ele>
        <time>2023-06-23T10:21:34Z</time>
      </trkpt>
      <trkpt lat="49.40231" lon="5.79094">
        <ele>273.20001220703</ele>
        <time>2023-06-23T10:21:36Z</time>
      </trkpt>
      <trkpt lat="49.40233" lon="5.79092">
        <ele>273.20001220703</ele>
        <time>2023-06-23T10:21:37Z</time>
      </trkpt>
      <trkpt lat="49.40234" lon="5.7909">
        <ele>273.20001220703</ele>
        <time>2023-06-23T10:21:38Z</time>
      </trkpt>
      <trkpt lat="49.40238" lon="5.79086">
        <ele>273.20001220703</ele>
        <time>2023-06-23T10:21:40Z</time>
      </trkpt>
      <trkpt lat="49.40242" lon="5.79081">
        <ele>273.60000610352</ele>
        <time>2023-06-23T10:21:42Z</time>
      </trkpt>
      <trkpt lat="49.40245" lon="5.79077">
        <ele>274.20001220703</ele>
        <time>2023-06-23T10:21:44Z</time>
      </trkpt>
      <trkpt lat="49.40247" lon="5.79075">
        <ele>274.60000610352</ele>
        <time>2023-06-23T10:21:45Z</time>
      </trkpt>
      <trkpt lat="49.40249" lon="5.79073">
        <ele>274.60000610352</ele>
        <time>2023-06-23T10:21:46Z</time>
      </trkpt>
      <trkpt lat="49.40252" lon="5.79068">
        <ele>275</ele>
        <time>2023-06-23T10:21:48Z</time>
      </trkpt>
      <trkpt lat="49.40255" lon="5.79063">
        <ele>275.60000610352</ele>
        <time>2023-06-23T10:21:50Z</time>
      </trkpt>
      <trkpt lat="49.40256" lon="5.79062">
        <ele>275.60000610352</ele>
        <time>2023-06-23T10:21:51Z</time>
      </trkpt>
      <trkpt lat="49.40258" lon="5.7906">
        <ele>275.79998779297</ele>
        <time>2023-06-23T10:21:52Z</time>
      </trkpt>
      <trkpt lat="49.4026" lon="5.79057">
        <ele>275.79998779297</ele>
        <time>2023-06-23T10:21:53Z</time>
      </trkpt>
      <trkpt lat="49.40262" lon="5.79055">
        <ele>276</ele>
        <time>2023-06-23T10:21:54Z</time>
      </trkpt>
      <trkpt lat="49.40265" lon="5.79052">
        <ele>276.39999389648</ele>
        <time>2023-06-23T10:21:56Z</time>
      </trkpt>
      <trkpt lat="49.40267" lon="5.7905">
        <ele>276.79998779297</ele>
        <time>2023-06-23T10:21:57Z</time>
      </trkpt>
      <trkpt lat="49.40269" lon="5.79048">
        <ele>277</ele>
        <time>2023-06-23T10:21:58Z</time>
      </trkpt>
      <trkpt lat="49.40272" lon="5.79044">
        <ele>278</ele>
        <time>2023-06-23T10:22:00Z</time>
      </trkpt>
      <trkpt lat="49.40275" lon="5.79039">
        <ele>278.39999389648</ele>
        <time>2023-06-23T10:22:02Z</time>
      </trkpt>
      <trkpt lat="49.40277" lon="5.79037">
        <ele>278.60000610352</ele>
        <time>2023-06-23T10:22:03Z</time>
      </trkpt>
      <trkpt lat="49.40278" lon="5.79035">
        <ele>279</ele>
        <time>2023-06-23T10:22:04Z</time>
      </trkpt>
      <trkpt lat="49.40282" lon="5.7903">
        <ele>279.39999389648</ele>
        <time>2023-06-23T10:22:06Z</time>
      </trkpt>
      <trkpt lat="49.40284" lon="5.79027">
        <ele>279.79998779297</ele>
        <time>2023-06-23T10:22:08Z</time>
      </trkpt>
      <trkpt lat="49.40285" lon="5.79025">
        <ele>280.20001220703</ele>
        <time>2023-06-23T10:22:09Z</time>
      </trkpt>
      <trkpt lat="49.40286" lon="5.79023">
        <ele>280.39999389648</ele>
        <time>2023-06-23T10:22:10Z</time>
      </trkpt>
      <trkpt lat="49.40289" lon="5.79019">
        <ele>280.79998779297</ele>
        <time>2023-06-23T10:22:12Z</time>
      </trkpt>
      <trkpt lat="49.4029" lon="5.79016">
        <ele>281.20001220703</ele>
        <time>2023-06-23T10:22:14Z</time>
      </trkpt>
      <trkpt lat="49.40292" lon="5.79013">
        <ele>281.60000610352</ele>
        <time>2023-06-23T10:22:16Z</time>
      </trkpt>
      <trkpt lat="49.40293" lon="5.79011">
        <ele>281.79998779297</ele>
        <time>2023-06-23T10:22:17Z</time>
      </trkpt>
      <trkpt lat="49.40294" lon="5.79009">
        <ele>282</ele>
        <time>2023-06-23T10:22:18Z</time>
      </trkpt>
      <trkpt lat="49.40295" lon="5.79008">
        <ele>282.20001220703</ele>
        <time>2023-06-23T10:22:19Z</time>
      </trkpt>
      <trkpt lat="49.40296" lon="5.79006">
        <ele>282.60000610352</ele>
        <time>2023-06-23T10:22:20Z</time>
      </trkpt>
      <trkpt lat="49.40299" lon="5.79003">
        <ele>282.79998779297</ele>
        <time>2023-06-23T10:22:22Z</time>
      </trkpt>
      <trkpt lat="49.40301" lon="5.78999">
        <ele>283</ele>
        <time>2023-06-23T10:22:24Z</time>
      </trkpt>
      <trkpt lat="49.40302" lon="5.78997">
        <ele>283.20001220703</ele>
        <time>2023-06-23T10:22:25Z</time>
      </trkpt>
      <trkpt lat="49.40303" lon="5.78995">
        <ele>283.39999389648</ele>
        <time>2023-06-23T10:22:26Z</time>
      </trkpt>
      <trkpt lat="49.40304" lon="5.78991">
        <ele>284.20001220703</ele>
        <time>2023-06-23T10:22:28Z</time>
      </trkpt>
      <trkpt lat="49.40306" lon="5.78989">
        <ele>284.39999389648</ele>
        <time>2023-06-23T10:22:29Z</time>
      </trkpt>
      <trkpt lat="49.40306" lon="5.78987">
        <ele>284.60000610352</ele>
        <time>2023-06-23T10:22:30Z</time>
      </trkpt>
      <trkpt lat="49.40308" lon="5.78984">
        <ele>285</ele>
        <time>2023-06-23T10:22:32Z</time>
      </trkpt>
      <trkpt lat="49.4031" lon="5.78982">
        <ele>285.39999389648</ele>
        <time>2023-06-23T10:22:34Z</time>
      </trkpt>
      <trkpt lat="49.40311" lon="5.7898">
        <ele>285.60000610352</ele>
        <time>2023-06-23T10:22:35Z</time>
      </trkpt>
      <trkpt lat="49.40312" lon="5.78979">
        <ele>285.79998779297</ele>
        <time>2023-06-23T10:22:36Z</time>
      </trkpt>
      <trkpt lat="49.40314" lon="5.78977">
        <ele>286</ele>
        <time>2023-06-23T10:22:38Z</time>
      </trkpt>
      <trkpt lat="49.40314" lon="5.78974">
        <ele>286.60000610352</ele>
        <time>2023-06-23T10:22:40Z</time>
      </trkpt>
      <trkpt lat="49.40317" lon="5.78971">
        <ele>287</ele>
        <time>2023-06-23T10:22:42Z</time>
      </trkpt>
      <trkpt lat="49.40319" lon="5.78967">
        <ele>287.39999389648</ele>
        <time>2023-06-23T10:22:44Z</time>
      </trkpt>
      <trkpt lat="49.4032" lon="5.78966">
        <ele>287.60000610352</ele>
        <time>2023-06-23T10:22:45Z</time>
      </trkpt>
      <trkpt lat="49.40321" lon="5.78964">
        <ele>287.79998779297</ele>
        <time>2023-06-23T10:22:46Z</time>
      </trkpt>
      <trkpt lat="49.40323" lon="5.78961">
        <ele>288</ele>
        <time>2023-06-23T10:22:48Z</time>
      </trkpt>
      <trkpt lat="49.40326" lon="5.78958">
        <ele>288.39999389648</ele>
        <time>2023-06-23T10:22:50Z</time>
      </trkpt>
      <trkpt lat="49.40329" lon="5.78954">
        <ele>288.60000610352</ele>
        <time>2023-06-23T10:22:52Z</time>
      </trkpt>
      <trkpt lat="49.40331" lon="5.78952">
        <ele>288.79998779297</ele>
        <time>2023-06-23T10:22:53Z</time>
      </trkpt>
      <trkpt lat="49.40332" lon="5.7895">
        <ele>289</ele>
        <time>2023-06-23T10:22:54Z</time>
      </trkpt>
      <trkpt lat="49.40333" lon="5.78949">
        <ele>289.39999389648</ele>
        <time>2023-06-23T10:22:55Z</time>
      </trkpt>
      <trkpt lat="49.40334" lon="5.78948">
        <ele>289.39999389648</ele>
        <time>2023-06-23T10:22:56Z</time>
      </trkpt>
      <trkpt lat="49.40336" lon="5.78945">
        <ele>289.60000610352</ele>
        <time>2023-06-23T10:22:58Z</time>
      </trkpt>
      <trkpt lat="49.40336" lon="5.78944">
        <ele>289.79998779297</ele>
        <time>2023-06-23T10:22:59Z</time>
      </trkpt>
      <trkpt lat="49.40337" lon="5.78943">
        <ele>290</ele>
        <time>2023-06-23T10:23:00Z</time>
      </trkpt>
      <trkpt lat="49.4034" lon="5.7894">
        <ele>290.20001220703</ele>
        <time>2023-06-23T10:23:02Z</time>
      </trkpt>
      <trkpt lat="49.40342" lon="5.78937">
        <ele>290.60000610352</ele>
        <time>2023-06-23T10:23:04Z</time>
      </trkpt>
      <trkpt lat="49.40344" lon="5.78935">
        <ele>290.79998779297</ele>
        <time>2023-06-23T10:23:06Z</time>
      </trkpt>
      <trkpt lat="49.40346" lon="5.78933">
        <ele>291.20001220703</ele>
        <time>2023-06-23T10:23:08Z</time>
      </trkpt>
      <trkpt lat="49.40348" lon="5.78932">
        <ele>291.39999389648</ele>
        <time>2023-06-23T10:23:09Z</time>
      </trkpt>
      <trkpt lat="49.40349" lon="5.78931">
        <ele>291.60000610352</ele>
        <time>2023-06-23T10:23:10Z</time>
      </trkpt>
      <trkpt lat="49.4035" lon="5.78929">
        <ele>292</ele>
        <time>2023-06-23T10:23:12Z</time>
      </trkpt>
      <trkpt lat="49.40352" lon="5.78926">
        <ele>292.39999389648</ele>
        <time>2023-06-23T10:23:14Z</time>
      </trkpt>
      <trkpt lat="49.40354" lon="5.78925">
        <ele>292.39999389648</ele>
        <time>2023-06-23T10:23:15Z</time>
      </trkpt>
      <trkpt lat="49.40355" lon="5.78923">
        <ele>292.60000610352</ele>
        <time>2023-06-23T10:23:16Z</time>
      </trkpt>
      <trkpt lat="49.40357" lon="5.78921">
        <ele>293.20001220703</ele>
        <time>2023-06-23T10:23:18Z</time>
      </trkpt>
      <trkpt lat="49.4036" lon="5.78919">
        <ele>293.39999389648</ele>
        <time>2023-06-23T10:23:20Z</time>
      </trkpt>
      <trkpt lat="49.40362" lon="5.78916">
        <ele>294</ele>
        <time>2023-06-23T10:23:22Z</time>
      </trkpt>
      <trkpt lat="49.40363" lon="5.78915">
        <ele>294.20001220703</ele>
        <time>2023-06-23T10:23:23Z</time>
      </trkpt>
      <trkpt lat="49.40364" lon="5.78914">
        <ele>294.39999389648</ele>
        <time>2023-06-23T10:23:24Z</time>
      </trkpt>
      <trkpt lat="49.40367" lon="5.78912">
        <ele>294.60000610352</ele>
        <time>2023-06-23T10:23:26Z</time>
      </trkpt>
      <trkpt lat="49.40368" lon="5.7891">
        <ele>295</ele>
        <time>2023-06-23T10:23:28Z</time>
      </trkpt>
      <trkpt lat="49.40371" lon="5.78908">
        <ele>295.20001220703</ele>
        <time>2023-06-23T10:23:30Z</time>
      </trkpt>
      <trkpt lat="49.40373" lon="5.78906">
        <ele>295.60000610352</ele>
        <time>2023-06-23T10:23:32Z</time>
      </trkpt>
      <trkpt lat="49.40376" lon="5.78904">
        <ele>295.79998779297</ele>
        <time>2023-06-23T10:23:34Z</time>
      </trkpt>
      <trkpt lat="49.40378" lon="5.78902">
        <ele>296</ele>
        <time>2023-06-23T10:23:36Z</time>
      </trkpt>
      <trkpt lat="49.4038" lon="5.789">
        <ele>296.39999389648</ele>
        <time>2023-06-23T10:23:38Z</time>
      </trkpt>
      <trkpt lat="49.40383" lon="5.78899">
        <ele>296.79998779297</ele>
        <time>2023-06-23T10:23:40Z</time>
      </trkpt>
      <trkpt lat="49.40385" lon="5.78897">
        <ele>297.20001220703</ele>
        <time>2023-06-23T10:23:42Z</time>
      </trkpt>
      <trkpt lat="49.40388" lon="5.78895">
        <ele>297.39999389648</ele>
        <time>2023-06-23T10:23:44Z</time>
      </trkpt>
      <trkpt lat="49.4039" lon="5.78892">
        <ele>297.79998779297</ele>
        <time>2023-06-23T10:23:46Z</time>
      </trkpt>
      <trkpt lat="49.40393" lon="5.7889">
        <ele>298</ele>
        <time>2023-06-23T10:23:48Z</time>
      </trkpt>
      <trkpt lat="49.40395" lon="5.78889">
        <ele>298.39999389648</ele>
        <time>2023-06-23T10:23:50Z</time>
      </trkpt>
      <trkpt lat="49.40397" lon="5.78886">
        <ele>298.60000610352</ele>
        <time>2023-06-23T10:23:52Z</time>
      </trkpt>
      <trkpt lat="49.404" lon="5.78884">
        <ele>298.79998779297</ele>
        <time>2023-06-23T10:23:54Z</time>
      </trkpt>
      <trkpt lat="49.40403" lon="5.78883">
        <ele>299</ele>
        <time>2023-06-23T10:23:56Z</time>
      </trkpt>
      <trkpt lat="49.40405" lon="5.78881">
        <ele>299</ele>
        <time>2023-06-23T10:23:58Z</time>
      </trkpt>
      <trkpt lat="49.40408" lon="5.78879">
        <ele>299.20001220703</ele>
        <time>2023-06-23T10:24:00Z</time>
      </trkpt>
      <trkpt lat="49.4041" lon="5.78877">
        <ele>299.39999389648</ele>
        <time>2023-06-23T10:24:02Z</time>
      </trkpt>
      <trkpt lat="49.40412" lon="5.78877">
        <ele>299.60000610352</ele>
        <time>2023-06-23T10:24:03Z</time>
      </trkpt>
      <trkpt lat="49.40413" lon="5.78876">
        <ele>299.60000610352</ele>
        <time>2023-06-23T10:24:04Z</time>
      </trkpt>
      <trkpt lat="49.40416" lon="5.78874">
        <ele>299.79998779297</ele>
        <time>2023-06-23T10:24:06Z</time>
      </trkpt>
      <trkpt lat="49.40419" lon="5.78873">
        <ele>300</ele>
        <time>2023-06-23T10:24:08Z</time>
      </trkpt>
      <trkpt lat="49.40422" lon="5.78871">
        <ele>300</ele>
        <time>2023-06-23T10:24:10Z</time>
      </trkpt>
      <trkpt lat="49.40425" lon="5.78868">
        <ele>300.20001220703</ele>
        <time>2023-06-23T10:24:12Z</time>
      </trkpt>
      <trkpt lat="49.40426" lon="5.78866">
        <ele>300.20001220703</ele>
        <time>2023-06-23T10:24:13Z</time>
      </trkpt>
      <trkpt lat="49.40426" lon="5.78864">
        <ele>300.20001220703</ele>
        <time>2023-06-23T10:24:14Z</time>
      </trkpt>
      <trkpt lat="49.40426" lon="5.78863">
        <ele>300.39999389648</ele>
        <time>2023-06-23T10:24:15Z</time>
      </trkpt>
      <trkpt lat="49.40425" lon="5.78862">
        <ele>300.39999389648</ele>
        <time>2023-06-23T10:24:16Z</time>
      </trkpt>
      <trkpt lat="49.40423" lon="5.78862">
        <ele>300.39999389648</ele>
        <time>2023-06-23T10:24:18Z</time>
      </trkpt>
      <trkpt lat="49.40422" lon="5.78862">
        <ele>300.39999389648</ele>
        <time>2023-06-23T10:24:19Z</time>
      </trkpt>
      <trkpt lat="49.40421" lon="5.78861">
        <ele>300.39999389648</ele>
        <time>2023-06-23T10:24:20Z</time>
      </trkpt>
      <trkpt lat="49.40419" lon="5.78861">
        <ele>300.20001220703</ele>
        <time>2023-06-23T10:24:22Z</time>
      </trkpt>
      <trkpt lat="49.40418" lon="5.78861">
        <ele>300</ele>
        <time>2023-06-23T10:24:23Z</time>
      </trkpt>
      <trkpt lat="49.40417" lon="5.7886">
        <ele>300</ele>
        <time>2023-06-23T10:24:24Z</time>
      </trkpt>
      <trkpt lat="49.40413" lon="5.7886">
        <ele>299.60000610352</ele>
        <time>2023-06-23T10:24:26Z</time>
      </trkpt>
      <trkpt lat="49.40409" lon="5.78859">
        <ele>299.39999389648</ele>
        <time>2023-06-23T10:24:28Z</time>
      </trkpt>
      <trkpt lat="49.40404" lon="5.78858">
        <ele>299.20001220703</ele>
        <time>2023-06-23T10:24:30Z</time>
      </trkpt>
      <trkpt lat="49.40399" lon="5.78856">
        <ele>299</ele>
        <time>2023-06-23T10:24:32Z</time>
      </trkpt>
      <trkpt lat="49.40395" lon="5.78854">
        <ele>298.39999389648</ele>
        <time>2023-06-23T10:24:34Z</time>
      </trkpt>
      <trkpt lat="49.40394" lon="5.78852">
        <ele>298.20001220703</ele>
        <time>2023-06-23T10:24:35Z</time>
      </trkpt>
      <trkpt lat="49.40394" lon="5.78849">
        <ele>297.79998779297</ele>
        <time>2023-06-23T10:24:36Z</time>
      </trkpt>
      <trkpt lat="49.40394" lon="5.78846">
        <ele>297.39999389648</ele>
        <time>2023-06-23T10:24:37Z</time>
      </trkpt>
      <trkpt lat="49.40394" lon="5.78841">
        <ele>297</ele>
        <time>2023-06-23T10:24:38Z</time>
      </trkpt>
      <trkpt lat="49.40394" lon="5.7883">
        <ele>296.60000610352</ele>
        <time>2023-06-23T10:24:40Z</time>
      </trkpt>
      <trkpt lat="49.40395" lon="5.78824">
        <ele>296.20001220703</ele>
        <time>2023-06-23T10:24:41Z</time>
      </trkpt>
      <trkpt lat="49.40395" lon="5.78819">
        <ele>296</ele>
        <time>2023-06-23T10:24:42Z</time>
      </trkpt>
      <trkpt lat="49.40397" lon="5.7881">
        <ele>294.79998779297</ele>
        <time>2023-06-23T10:24:44Z</time>
      </trkpt>
      <trkpt lat="49.40398" lon="5.78806">
        <ele>294</ele>
        <time>2023-06-23T10:24:45Z</time>
      </trkpt>
      <trkpt lat="49.40399" lon="5.78803">
        <ele>293</ele>
        <time>2023-06-23T10:24:46Z</time>
      </trkpt>
      <trkpt lat="49.404" lon="5.788">
        <ele>291.60000610352</ele>
        <time>2023-06-23T10:24:48Z</time>
      </trkpt>
      <trkpt lat="49.404" lon="5.78799">
        <ele>291.39999389648</ele>
        <time>2023-06-23T10:24:49Z</time>
      </trkpt>
      <trkpt lat="49.404" lon="5.78797">
        <ele>291.20001220703</ele>
        <time>2023-06-23T10:24:50Z</time>
      </trkpt>
      <trkpt lat="49.40399" lon="5.78794">
        <ele>291</ele>
        <time>2023-06-23T10:24:52Z</time>
      </trkpt>
      <trkpt lat="49.40399" lon="5.7879">
        <ele>291</ele>
        <time>2023-06-23T10:24:54Z</time>
      </trkpt>
      <trkpt lat="49.404" lon="5.78785">
        <ele>291</ele>
        <time>2023-06-23T10:24:56Z</time>
      </trkpt>
      <trkpt lat="49.404" lon="5.7878">
        <ele>291.20001220703</ele>
        <time>2023-06-23T10:24:58Z</time>
      </trkpt>
      <trkpt lat="49.40401" lon="5.78777">
        <ele>291.39999389648</ele>
        <time>2023-06-23T10:25:00Z</time>
      </trkpt>
      <trkpt lat="49.40403" lon="5.78772">
        <ele>291.60000610352</ele>
        <time>2023-06-23T10:25:02Z</time>
      </trkpt>
      <trkpt lat="49.40403" lon="5.78769">
        <ele>292</ele>
        <time>2023-06-23T10:25:04Z</time>
      </trkpt>
      <trkpt lat="49.40405" lon="5.78765">
        <ele>292.79998779297</ele>
        <time>2023-06-23T10:25:06Z</time>
      </trkpt>
      <trkpt lat="49.40406" lon="5.7876">
        <ele>293.60000610352</ele>
        <time>2023-06-23T10:25:08Z</time>
      </trkpt>
      <trkpt lat="49.40406" lon="5.78759">
        <ele>294.20001220703</ele>
        <time>2023-06-23T10:25:09Z</time>
      </trkpt>
      <trkpt lat="49.40407" lon="5.78757">
        <ele>295</ele>
        <time>2023-06-23T10:25:10Z</time>
      </trkpt>
      <trkpt lat="49.40407" lon="5.78756">
        <ele>295.20001220703</ele>
        <time>2023-06-23T10:25:11Z</time>
      </trkpt>
      <trkpt lat="49.40408" lon="5.78754">
        <ele>295.60000610352</ele>
        <time>2023-06-23T10:25:12Z</time>
      </trkpt>
      <trkpt lat="49.4041" lon="5.78751">
        <ele>296.39999389648</ele>
        <time>2023-06-23T10:25:14Z</time>
      </trkpt>
      <trkpt lat="49.40411" lon="5.78748">
        <ele>297.39999389648</ele>
        <time>2023-06-23T10:25:16Z</time>
      </trkpt>
      <trkpt lat="49.40411" lon="5.78747">
        <ele>297.79998779297</ele>
        <time>2023-06-23T10:25:17Z</time>
      </trkpt>
      <trkpt lat="49.40411" lon="5.78745">
        <ele>298</ele>
        <time>2023-06-23T10:25:18Z</time>
      </trkpt>
      <trkpt lat="49.40411" lon="5.78744">
        <ele>298.20001220703</ele>
        <time>2023-06-23T10:25:19Z</time>
      </trkpt>
      <trkpt lat="49.40411" lon="5.78744">
        <ele>298.39999389648</ele>
        <time>2023-06-23T10:25:20Z</time>
      </trkpt>
      <trkpt lat="49.40411" lon="5.78742">
        <ele>299</ele>
        <time>2023-06-23T10:25:22Z</time>
      </trkpt>
      <trkpt lat="49.4041" lon="5.78741">
        <ele>299.20001220703</ele>
        <time>2023-06-23T10:25:24Z</time>
      </trkpt>
      <trkpt lat="49.4041" lon="5.78741">
        <ele>299.39999389648</ele>
        <time>2023-06-23T10:25:26Z</time>
      </trkpt>
      <trkpt lat="49.4041" lon="5.78741">
        <ele>299.39999389648</ele>
        <time>2023-06-23T10:25:28Z</time>
      </trkpt>
      <trkpt lat="49.4041" lon="5.78741">
        <ele>299.60000610352</ele>
        <time>2023-06-23T10:25:30Z</time>
      </trkpt>
      <trkpt lat="49.40411" lon="5.78741">
        <ele>299.60000610352</ele>
        <time>2023-06-23T10:25:32Z</time>
      </trkpt>
      <trkpt lat="49.40411" lon="5.78741">
        <ele>299.60000610352</ele>
        <time>2023-06-23T10:25:34Z</time>
      </trkpt>
      <trkpt lat="49.40411" lon="5.78741">
        <ele>299.60000610352</ele>
        <time>2023-06-23T10:25:36Z</time>
      </trkpt>
      <trkpt lat="49.40411" lon="5.78741">
        <ele>299.60000610352</ele>
        <time>2023-06-23T10:25:38Z</time>
      </trkpt>
      <trkpt lat="49.40411" lon="5.78741">
        <ele>299.60000610352</ele>
        <time>2023-06-23T10:25:40Z</time>
      </trkpt>
      <trkpt lat="49.40411" lon="5.78741">
        <ele>299.60000610352</ele>
        <time>2023-06-23T10:25:42Z</time>
      </trkpt>
      <trkpt lat="49.40411" lon="5.78741">
        <ele>299.60000610352</ele>
        <time>2023-06-23T10:25:44Z</time>
      </trkpt>
      <trkpt lat="49.40411" lon="5.7874">
        <ele>299.60000610352</ele>
        <time>2023-06-23T10:25:46Z</time>
      </trkpt>
      <trkpt lat="49.40411" lon="5.7874">
        <ele>299.60000610352</ele>
        <time>2023-06-23T10:25:48Z</time>
      </trkpt>
      <trkpt lat="49.40411" lon="5.7874">
        <ele>299.60000610352</ele>
        <time>2023-06-23T10:25:50Z</time>
      </trkpt>
      <trkpt lat="49.4041" lon="5.7874">
        <ele>299.60000610352</ele>
        <time>2023-06-23T10:25:52Z</time>
      </trkpt>
      <trkpt lat="49.4041" lon="5.7874">
        <ele>299.39999389648</ele>
        <time>2023-06-23T10:25:54Z</time>
      </trkpt>
      <trkpt lat="49.4041" lon="5.7874">
        <ele>299.39999389648</ele>
        <time>2023-06-23T10:25:56Z</time>
      </trkpt>
      <trkpt lat="49.4041" lon="5.7874">
        <ele>299.39999389648</ele>
        <time>2023-06-23T10:25:58Z</time>
      </trkpt>
      <trkpt lat="49.40411" lon="5.78739">
        <ele>299.39999389648</ele>
        <time>2023-06-23T10:26:00Z</time>
      </trkpt>
      <trkpt lat="49.40411" lon="5.78738">
        <ele>299.39999389648</ele>
        <time>2023-06-23T10:26:02Z</time>
      </trkpt>
      <trkpt lat="49.40411" lon="5.78738">
        <ele>299.39999389648</ele>
        <time>2023-06-23T10:26:03Z</time>
      </trkpt>
      <trkpt lat="49.40411" lon="5.78738">
        <ele>299.39999389648</ele>
        <time>2023-06-23T10:26:04Z</time>
      </trkpt>
      <trkpt lat="49.40411" lon="5.78738">
        <ele>299.39999389648</ele>
        <time>2023-06-23T10:26:06Z</time>
      </trkpt>
      <trkpt lat="49.40411" lon="5.78738">
        <ele>299.39999389648</ele>
        <time>2023-06-23T10:26:08Z</time>
      </trkpt>
      <trkpt lat="49.40411" lon="5.78738">
        <ele>299.39999389648</ele>
        <time>2023-06-23T10:26:10Z</time>
      </trkpt>
      <trkpt lat="49.40411" lon="5.78738">
        <ele>299.39999389648</ele>
        <time>2023-06-23T10:26:12Z</time>
      </trkpt>
      <trkpt lat="49.40411" lon="5.78738">
        <ele>299.39999389648</ele>
        <time>2023-06-23T10:26:13Z</time>
      </trkpt>
      <trkpt lat="49.40411" lon="5.78738">
        <ele>299.39999389648</ele>
        <time>2023-06-23T10:26:14Z</time>
      </trkpt>
      <trkpt lat="49.40411" lon="5.78737">
        <ele>299.39999389648</ele>
        <time>2023-06-23T10:26:16Z</time>
      </trkpt>
      <trkpt lat="49.40411" lon="5.78737">
        <ele>299.39999389648</ele>
        <time>2023-06-23T10:26:18Z</time>
      </trkpt>
      <trkpt lat="49.40411" lon="5.78737">
        <ele>299.39999389648</ele>
        <time>2023-06-23T10:26:20Z</time>
      </trkpt>
      <trkpt lat="49.4041" lon="5.78737">
        <ele>299.39999389648</ele>
        <time>2023-06-23T10:26:22Z</time>
      </trkpt>
      <trkpt lat="49.4041" lon="5.78737">
        <ele>299.39999389648</ele>
        <time>2023-06-23T10:26:24Z</time>
      </trkpt>
      <trkpt lat="49.4041" lon="5.78737">
        <ele>299.39999389648</ele>
        <time>2023-06-23T10:26:25Z</time>
      </trkpt>
      <trkpt lat="49.4041" lon="5.78737">
        <ele>299.39999389648</ele>
        <time>2023-06-23T10:26:26Z</time>
      </trkpt>
      <trkpt lat="49.4041" lon="5.78737">
        <ele>299.39999389648</ele>
        <time>2023-06-23T10:26:28Z</time>
      </trkpt>
      <trkpt lat="49.4041" lon="5.78737">
        <ele>299.39999389648</ele>
        <time>2023-06-23T10:26:30Z</time>
      </trkpt>
      <trkpt lat="49.4041" lon="5.78737">
        <ele>299.39999389648</ele>
        <time>2023-06-23T10:26:32Z</time>
      </trkpt>
      <trkpt lat="49.4041" lon="5.78737">
        <ele>299.39999389648</ele>
        <time>2023-06-23T10:26:33Z</time>
      </trkpt>
      <trkpt lat="49.4041" lon="5.78737">
        <ele>299.39999389648</ele>
        <time>2023-06-23T10:26:34Z</time>
      </trkpt>
      <trkpt lat="49.40411" lon="5.78737">
        <ele>299.20001220703</ele>
        <time>2023-06-23T10:26:36Z</time>
      </trkpt>
      <trkpt lat="49.40411" lon="5.78737">
        <ele>299.20001220703</ele>
        <time>2023-06-23T10:26:38Z</time>
      </trkpt>
      <trkpt lat="49.40411" lon="5.78737">
        <ele>299.20001220703</ele>
        <time>2023-06-23T10:26:40Z</time>
      </trkpt>
      <trkpt lat="49.4041" lon="5.78737">
        <ele>299.20001220703</ele>
        <time>2023-06-23T10:26:42Z</time>
      </trkpt>
      <trkpt lat="49.4041" lon="5.78737">
        <ele>299.20001220703</ele>
        <time>2023-06-23T10:26:44Z</time>
      </trkpt>
      <trkpt lat="49.4041" lon="5.78737">
        <ele>299.20001220703</ele>
        <time>2023-06-23T10:26:46Z</time>
      </trkpt>
      <trkpt lat="49.4041" lon="5.78736">
        <ele>299.20001220703</ele>
        <time>2023-06-23T10:26:48Z</time>
      </trkpt>
      <trkpt lat="49.4041" lon="5.78736">
        <ele>299.20001220703</ele>
        <time>2023-06-23T10:26:50Z</time>
      </trkpt>
      <trkpt lat="49.4041" lon="5.78736">
        <ele>299.20001220703</ele>
        <time>2023-06-23T10:26:52Z</time>
      </trkpt>
      <trkpt lat="49.40411" lon="5.78736">
        <ele>299.20001220703</ele>
        <time>2023-06-23T10:26:54Z</time>
      </trkpt>
      <trkpt lat="49.4041" lon="5.78736">
        <ele>299.20001220703</ele>
        <time>2023-06-23T10:26:56Z</time>
      </trkpt>
      <trkpt lat="49.4041" lon="5.78736">
        <ele>299.20001220703</ele>
        <time>2023-06-23T10:26:58Z</time>
      </trkpt>
      <trkpt lat="49.4041" lon="5.78736">
        <ele>299.20001220703</ele>
        <time>2023-06-23T10:26:59Z</time>
      </trkpt>
      <trkpt lat="49.4041" lon="5.78736">
        <ele>299.20001220703</ele>
        <time>2023-06-23T10:27:00Z</time>
      </trkpt>
      <trkpt lat="49.4041" lon="5.78736">
        <ele>299.20001220703</ele>
        <time>2023-06-23T10:27:02Z</time>
      </trkpt>
      <trkpt lat="49.4041" lon="5.78736">
        <ele>299.20001220703</ele>
        <time>2023-06-23T10:27:04Z</time>
      </trkpt>
      <trkpt lat="49.4041" lon="5.78736">
        <ele>299.20001220703</ele>
        <time>2023-06-23T10:27:06Z</time>
      </trkpt>
      <trkpt lat="49.4041" lon="5.78736">
        <ele>299.20001220703</ele>
        <time>2023-06-23T10:27:08Z</time>
      </trkpt>
      <trkpt lat="49.4041" lon="5.78736">
        <ele>299.20001220703</ele>
        <time>2023-06-23T10:27:10Z</time>
      </trkpt>
      <trkpt lat="49.40411" lon="5.78736">
        <ele>299</ele>
        <time>2023-06-23T10:27:12Z</time>
      </trkpt>
      <trkpt lat="49.40411" lon="5.78736">
        <ele>299</ele>
        <time>2023-06-23T10:27:14Z</time>
      </trkpt>
      <trkpt lat="49.40411" lon="5.78735">
        <ele>299</ele>
        <time>2023-06-23T10:27:16Z</time>
      </trkpt>
      <trkpt lat="49.40411" lon="5.78735">
        <ele>299</ele>
        <time>2023-06-23T10:27:17Z</time>
      </trkpt>
      <trkpt lat="49.40411" lon="5.78735">
        <ele>299</ele>
        <time>2023-06-23T10:27:18Z</time>
      </trkpt>
      <trkpt lat="49.40411" lon="5.78735">
        <ele>299</ele>
        <time>2023-06-23T10:27:20Z</time>
      </trkpt>
      <trkpt lat="49.40411" lon="5.78735">
        <ele>299.20001220703</ele>
        <time>2023-06-23T10:27:22Z</time>
      </trkpt>
      <trkpt lat="49.40411" lon="5.78735">
        <ele>299.20001220703</ele>
        <time>2023-06-23T10:27:24Z</time>
      </trkpt>
      <trkpt lat="49.40411" lon="5.78735">
        <ele>299.20001220703</ele>
        <time>2023-06-23T10:27:26Z</time>
      </trkpt>
      <trkpt lat="49.40411" lon="5.78735">
        <ele>299.39999389648</ele>
        <time>2023-06-23T10:27:27Z</time>
      </trkpt>
      <trkpt lat="49.40411" lon="5.78735">
        <ele>299.39999389648</ele>
        <time>2023-06-23T10:27:28Z</time>
      </trkpt>
      <trkpt lat="49.40411" lon="5.78735">
        <ele>299.39999389648</ele>
        <time>2023-06-23T10:27:30Z</time>
      </trkpt>
      <trkpt lat="49.40411" lon="5.78735">
        <ele>299.39999389648</ele>
        <time>2023-06-23T10:27:32Z</time>
      </trkpt>
      <trkpt lat="49.40411" lon="5.78735">
        <ele>299.20001220703</ele>
        <time>2023-06-23T10:27:34Z</time>
      </trkpt>
      <trkpt lat="49.40411" lon="5.78735">
        <ele>299.39999389648</ele>
        <time>2023-06-23T10:27:36Z</time>
      </trkpt>
      <trkpt lat="49.40411" lon="5.78735">
        <ele>299.60000610352</ele>
        <time>2023-06-23T10:27:38Z</time>
      </trkpt>
      <trkpt lat="49.40411" lon="5.78735">
        <ele>299.60000610352</ele>
        <time>2023-06-23T10:27:40Z</time>
      </trkpt>
      <trkpt lat="49.40411" lon="5.78735">
        <ele>299.60000610352</ele>
        <time>2023-06-23T10:27:42Z</time>
      </trkpt>
      <trkpt lat="49.40411" lon="5.78735">
        <ele>299.60000610352</ele>
        <time>2023-06-23T10:27:44Z</time>
      </trkpt>
      <trkpt lat="49.40411" lon="5.78735">
        <ele>299.60000610352</ele>
        <time>2023-06-23T10:27:46Z</time>
      </trkpt>
      <trkpt lat="49.40411" lon="5.78735">
        <ele>299.39999389648</ele>
        <time>2023-06-23T10:27:48Z</time>
      </trkpt>
      <trkpt lat="49.4041" lon="5.78734">
        <ele>299.39999389648</ele>
        <time>2023-06-23T10:27:49Z</time>
      </trkpt>
      <trkpt lat="49.40409" lon="5.78733">
        <ele>299.39999389648</ele>
        <time>2023-06-23T10:27:50Z</time>
      </trkpt>
      <trkpt lat="49.40408" lon="5.78732">
        <ele>299.39999389648</ele>
        <time>2023-06-23T10:27:51Z</time>
      </trkpt>
      <trkpt lat="49.40407" lon="5.78732">
        <ele>299.39999389648</ele>
        <time>2023-06-23T10:27:52Z</time>
      </trkpt>
      <trkpt lat="49.40404" lon="5.7873">
        <ele>299.39999389648</ele>
        <time>2023-06-23T10:27:54Z</time>
      </trkpt>
      <trkpt lat="49.404" lon="5.78729">
        <ele>299.20001220703</ele>
        <time>2023-06-23T10:27:56Z</time>
      </trkpt>
      <trkpt lat="49.40397" lon="5.78728">
        <ele>299.20001220703</ele>
        <time>2023-06-23T10:27:57Z</time>
      </trkpt>
      <trkpt lat="49.40393" lon="5.78726">
        <ele>299.39999389648</ele>
        <time>2023-06-23T10:27:58Z</time>
      </trkpt>
      <trkpt lat="49.40384" lon="5.78723">
        <ele>298.79998779297</ele>
        <time>2023-06-23T10:28:00Z</time>
      </trkpt>
      <trkpt lat="49.4038" lon="5.78721">
        <ele>298.79998779297</ele>
        <time>2023-06-23T10:28:01Z</time>
      </trkpt>
      <trkpt lat="49.40375" lon="5.7872">
        <ele>298.79998779297</ele>
        <time>2023-06-23T10:28:02Z</time>
      </trkpt>
      <trkpt lat="49.40365" lon="5.78715">
        <ele>298.60000610352</ele>
        <time>2023-06-23T10:28:04Z</time>
      </trkpt>
      <trkpt lat="49.40356" lon="5.7871">
        <ele>297.79998779297</ele>
        <time>2023-06-23T10:28:06Z</time>
      </trkpt>
      <trkpt lat="49.40352" lon="5.78707">
        <ele>297.60000610352</ele>
        <time>2023-06-23T10:28:07Z</time>
      </trkpt>
      <trkpt lat="49.40348" lon="5.78703">
        <ele>297</ele>
        <time>2023-06-23T10:28:08Z</time>
      </trkpt>
      <trkpt lat="49.40345" lon="5.787">
        <ele>296.39999389648</ele>
        <time>2023-06-23T10:28:09Z</time>
      </trkpt>
      <trkpt lat="49.40341" lon="5.78697">
        <ele>296</ele>
        <time>2023-06-23T10:28:10Z</time>
      </trkpt>
      <trkpt lat="49.40334" lon="5.7869">
        <ele>295.20001220703</ele>
        <time>2023-06-23T10:28:12Z</time>
      </trkpt>
      <trkpt lat="49.40327" lon="5.78684">
        <ele>295</ele>
        <time>2023-06-23T10:28:14Z</time>
      </trkpt>
      <trkpt lat="49.40321" lon="5.78682">
        <ele>295</ele>
        <time>2023-06-23T10:28:16Z</time>
      </trkpt>
      <trkpt lat="49.40318" lon="5.7868">
        <ele>295</ele>
        <time>2023-06-23T10:28:17Z</time>
      </trkpt>
      <trkpt lat="49.40315" lon="5.78678">
        <ele>295</ele>
        <time>2023-06-23T10:28:18Z</time>
      </trkpt>
      <trkpt lat="49.40309" lon="5.78674">
        <ele>295</ele>
        <time>2023-06-23T10:28:20Z</time>
      </trkpt>
      <trkpt lat="49.40302" lon="5.7867">
        <ele>295.20001220703</ele>
        <time>2023-06-23T10:28:22Z</time>
      </trkpt>
      <trkpt lat="49.40297" lon="5.78665">
        <ele>295.39999389648</ele>
        <time>2023-06-23T10:28:24Z</time>
      </trkpt>
      <trkpt lat="49.40293" lon="5.7866">
        <ele>295.39999389648</ele>
        <time>2023-06-23T10:28:26Z</time>
      </trkpt>
      <trkpt lat="49.40289" lon="5.78657">
        <ele>295.60000610352</ele>
        <time>2023-06-23T10:28:28Z</time>
      </trkpt>
      <trkpt lat="49.40284" lon="5.78655">
        <ele>295.60000610352</ele>
        <time>2023-06-23T10:28:30Z</time>
      </trkpt>
      <trkpt lat="49.4028" lon="5.78653">
        <ele>295.60000610352</ele>
        <time>2023-06-23T10:28:32Z</time>
      </trkpt>
      <trkpt lat="49.40275" lon="5.78654">
        <ele>295.60000610352</ele>
        <time>2023-06-23T10:28:34Z</time>
      </trkpt>
      <trkpt lat="49.40272" lon="5.78654">
        <ele>295.60000610352</ele>
        <time>2023-06-23T10:28:35Z</time>
      </trkpt>
      <trkpt lat="49.40268" lon="5.78652">
        <ele>295.39999389648</ele>
        <time>2023-06-23T10:28:36Z</time>
      </trkpt>
      <trkpt lat="49.40266" lon="5.78646">
        <ele>295.39999389648</ele>
        <time>2023-06-23T10:28:38Z</time>
      </trkpt>
      <trkpt lat="49.40265" lon="5.78637">
        <ele>295.39999389648</ele>
        <time>2023-06-23T10:28:40Z</time>
      </trkpt>
      <trkpt lat="49.40264" lon="5.78633">
        <ele>295.20001220703</ele>
        <time>2023-06-23T10:28:41Z</time>
      </trkpt>
      <trkpt lat="49.40264" lon="5.7863">
        <ele>295.20001220703</ele>
        <time>2023-06-23T10:28:42Z</time>
      </trkpt>
      <trkpt lat="49.40264" lon="5.78627">
        <ele>295.20001220703</ele>
        <time>2023-06-23T10:28:43Z</time>
      </trkpt>
      <trkpt lat="49.40264" lon="5.78623">
        <ele>295.20001220703</ele>
        <time>2023-06-23T10:28:44Z</time>
      </trkpt>
      <trkpt lat="49.40265" lon="5.78617">
        <ele>295.20001220703</ele>
        <time>2023-06-23T10:28:46Z</time>
      </trkpt>
      <trkpt lat="49.40265" lon="5.78615">
        <ele>295.20001220703</ele>
        <time>2023-06-23T10:28:47Z</time>
      </trkpt>
      <trkpt lat="49.40266" lon="5.78612">
        <ele>295.20001220703</ele>
        <time>2023-06-23T10:28:48Z</time>
      </trkpt>
      <trkpt lat="49.40267" lon="5.78604">
        <ele>295.39999389648</ele>
        <time>2023-06-23T10:28:50Z</time>
      </trkpt>
      <trkpt lat="49.40268" lon="5.78597">
        <ele>295.60000610352</ele>
        <time>2023-06-23T10:28:52Z</time>
      </trkpt>
      <trkpt lat="49.40269" lon="5.78593">
        <ele>295.79998779297</ele>
        <time>2023-06-23T10:28:53Z</time>
      </trkpt>
      <trkpt lat="49.4027" lon="5.7859">
        <ele>295.79998779297</ele>
        <time>2023-06-23T10:28:54Z</time>
      </trkpt>
      <trkpt lat="49.4027" lon="5.78583">
        <ele>295.79998779297</ele>
        <time>2023-06-23T10:28:56Z</time>
      </trkpt>
      <trkpt lat="49.4027" lon="5.78577">
        <ele>296</ele>
        <time>2023-06-23T10:28:58Z</time>
      </trkpt>
      <trkpt lat="49.4027" lon="5.78574">
        <ele>296</ele>
        <time>2023-06-23T10:28:59Z</time>
      </trkpt>
      <trkpt lat="49.4027" lon="5.78571">
        <ele>296</ele>
        <time>2023-06-23T10:29:00Z</time>
      </trkpt>
      <trkpt lat="49.4027" lon="5.78569">
        <ele>296.20001220703</ele>
        <time>2023-06-23T10:29:02Z</time>
      </trkpt>
      <trkpt lat="49.4027" lon="5.78567">
        <ele>296.20001220703</ele>
        <time>2023-06-23T10:29:04Z</time>
      </trkpt>
      <trkpt lat="49.4027" lon="5.78566">
        <ele>296.20001220703</ele>
        <time>2023-06-23T10:29:05Z</time>
      </trkpt>
      <trkpt lat="49.4027" lon="5.78566">
        <ele>296.39999389648</ele>
        <time>2023-06-23T10:29:06Z</time>
      </trkpt>
      <trkpt lat="49.4027" lon="5.78566">
        <ele>297</ele>
        <time>2023-06-23T10:29:08Z</time>
      </trkpt>
      <trkpt lat="49.4027" lon="5.78566">
        <ele>297.20001220703</ele>
        <time>2023-06-23T10:29:10Z</time>
      </trkpt>
      <trkpt lat="49.4027" lon="5.78566">
        <ele>297.39999389648</ele>
        <time>2023-06-23T10:29:11Z</time>
      </trkpt>
      <trkpt lat="49.4027" lon="5.78566">
        <ele>297.39999389648</ele>
        <time>2023-06-23T10:29:12Z</time>
      </trkpt>
      <trkpt lat="49.4027" lon="5.78566">
        <ele>297.39999389648</ele>
        <time>2023-06-23T10:29:14Z</time>
      </trkpt>
      <trkpt lat="49.4027" lon="5.78566">
        <ele>297.39999389648</ele>
        <time>2023-06-23T10:29:15Z</time>
      </trkpt>
      <trkpt lat="49.4027" lon="5.78566">
        <ele>297.60000610352</ele>
        <time>2023-06-23T10:29:16Z</time>
      </trkpt>
      <trkpt lat="49.4027" lon="5.78566">
        <ele>297.60000610352</ele>
        <time>2023-06-23T10:29:18Z</time>
      </trkpt>
      <trkpt lat="49.4027" lon="5.78566">
        <ele>297.60000610352</ele>
        <time>2023-06-23T10:29:20Z</time>
      </trkpt>
      <trkpt lat="49.4027" lon="5.78566">
        <ele>297.60000610352</ele>
        <time>2023-06-23T10:29:22Z</time>
      </trkpt>
      <trkpt lat="49.4027" lon="5.78565">
        <ele>297.60000610352</ele>
        <time>2023-06-23T10:29:24Z</time>
      </trkpt>
      <trkpt lat="49.40271" lon="5.78563">
        <ele>297.60000610352</ele>
        <time>2023-06-23T10:29:26Z</time>
      </trkpt>
      <trkpt lat="49.40271" lon="5.7856">
        <ele>297.60000610352</ele>
        <time>2023-06-23T10:29:28Z</time>
      </trkpt>
      <trkpt lat="49.40271" lon="5.78555">
        <ele>297.60000610352</ele>
        <time>2023-06-23T10:29:30Z</time>
      </trkpt>
      <trkpt lat="49.4027" lon="5.7855">
        <ele>297.60000610352</ele>
        <time>2023-06-23T10:29:32Z</time>
      </trkpt>
      <trkpt lat="49.4027" lon="5.78547">
        <ele>297.60000610352</ele>
        <time>2023-06-23T10:29:33Z</time>
      </trkpt>
      <trkpt lat="49.4027" lon="5.78544">
        <ele>297.60000610352</ele>
        <time>2023-06-23T10:29:34Z</time>
      </trkpt>
      <trkpt lat="49.40269" lon="5.78538">
        <ele>297.60000610352</ele>
        <time>2023-06-23T10:29:36Z</time>
      </trkpt>
      <trkpt lat="49.40268" lon="5.78531">
        <ele>297.60000610352</ele>
        <time>2023-06-23T10:29:38Z</time>
      </trkpt>
      <trkpt lat="49.40269" lon="5.78523">
        <ele>297.60000610352</ele>
        <time>2023-06-23T10:29:40Z</time>
      </trkpt>
      <trkpt lat="49.40268" lon="5.78516">
        <ele>297.79998779297</ele>
        <time>2023-06-23T10:29:42Z</time>
      </trkpt>
      <trkpt lat="49.40269" lon="5.7851">
        <ele>297.79998779297</ele>
        <time>2023-06-23T10:29:44Z</time>
      </trkpt>
      <trkpt lat="49.40269" lon="5.78506">
        <ele>297.79998779297</ele>
        <time>2023-06-23T10:29:45Z</time>
      </trkpt>
      <trkpt lat="49.40269" lon="5.78503">
        <ele>298</ele>
        <time>2023-06-23T10:29:46Z</time>
      </trkpt>
      <trkpt lat="49.40268" lon="5.78497">
        <ele>298.20001220703</ele>
        <time>2023-06-23T10:29:48Z</time>
      </trkpt>
      <trkpt lat="49.40267" lon="5.78494">
        <ele>298.20001220703</ele>
        <time>2023-06-23T10:29:49Z</time>
      </trkpt>
      <trkpt lat="49.40266" lon="5.78491">
        <ele>298.20001220703</ele>
        <time>2023-06-23T10:29:50Z</time>
      </trkpt>
      <trkpt lat="49.40266" lon="5.78488">
        <ele>298.20001220703</ele>
        <time>2023-06-23T10:29:51Z</time>
      </trkpt>
      <trkpt lat="49.40266" lon="5.78483">
        <ele>298.20001220703</ele>
        <time>2023-06-23T10:29:52Z</time>
      </trkpt>
      <trkpt lat="49.40266" lon="5.78476">
        <ele>298.20001220703</ele>
        <time>2023-06-23T10:29:54Z</time>
      </trkpt>
      <trkpt lat="49.40265" lon="5.78469">
        <ele>298.20001220703</ele>
        <time>2023-06-23T10:29:56Z</time>
      </trkpt>
      <trkpt lat="49.40265" lon="5.78465">
        <ele>298.20001220703</ele>
        <time>2023-06-23T10:29:57Z</time>
      </trkpt>
      <trkpt lat="49.40265" lon="5.78461">
        <ele>298.20001220703</ele>
        <time>2023-06-23T10:29:58Z</time>
      </trkpt>
      <trkpt lat="49.40265" lon="5.78452">
        <ele>298.20001220703</ele>
        <time>2023-06-23T10:30:00Z</time>
      </trkpt>
      <trkpt lat="49.40268" lon="5.78442">
        <ele>298</ele>
        <time>2023-06-23T10:30:02Z</time>
      </trkpt>
      <trkpt lat="49.40271" lon="5.78433">
        <ele>298</ele>
        <time>2023-06-23T10:30:04Z</time>
      </trkpt>
      <trkpt lat="49.40277" lon="5.78425">
        <ele>297.79998779297</ele>
        <time>2023-06-23T10:30:06Z</time>
      </trkpt>
      <trkpt lat="49.4028" lon="5.78421">
        <ele>297.60000610352</ele>
        <time>2023-06-23T10:30:07Z</time>
      </trkpt>
      <trkpt lat="49.40283" lon="5.78417">
        <ele>297.39999389648</ele>
        <time>2023-06-23T10:30:08Z</time>
      </trkpt>
      <trkpt lat="49.40286" lon="5.78413">
        <ele>297.20001220703</ele>
        <time>2023-06-23T10:30:09Z</time>
      </trkpt>
      <trkpt lat="49.40289" lon="5.7841">
        <ele>296.39999389648</ele>
        <time>2023-06-23T10:30:10Z</time>
      </trkpt>
      <trkpt lat="49.40293" lon="5.78408">
        <ele>296.20001220703</ele>
        <time>2023-06-23T10:30:11Z</time>
      </trkpt>
      <trkpt lat="49.40295" lon="5.78406">
        <ele>296</ele>
        <time>2023-06-23T10:30:12Z</time>
      </trkpt>
      <trkpt lat="49.40297" lon="5.78405">
        <ele>295.79998779297</ele>
        <time>2023-06-23T10:30:13Z</time>
      </trkpt>
      <trkpt lat="49.403" lon="5.78403">
        <ele>295.60000610352</ele>
        <time>2023-06-23T10:30:14Z</time>
      </trkpt>
      <trkpt lat="49.40305" lon="5.784">
        <ele>295.20001220703</ele>
        <time>2023-06-23T10:30:16Z</time>
      </trkpt>
      <trkpt lat="49.4031" lon="5.78398">
        <ele>295.20001220703</ele>
        <time>2023-06-23T10:30:18Z</time>
      </trkpt>
      <trkpt lat="49.40315" lon="5.78395">
        <ele>295.20001220703</ele>
        <time>2023-06-23T10:30:20Z</time>
      </trkpt>
      <trkpt lat="49.4032" lon="5.78393">
        <ele>295.20001220703</ele>
        <time>2023-06-23T10:30:22Z</time>
      </trkpt>
      <trkpt lat="49.40324" lon="5.78391">
        <ele>295.20001220703</ele>
        <time>2023-06-23T10:30:24Z</time>
      </trkpt>
      <trkpt lat="49.40326" lon="5.78391">
        <ele>295.20001220703</ele>
        <time>2023-06-23T10:30:25Z</time>
      </trkpt>
      <trkpt lat="49.40329" lon="5.7839">
        <ele>295</ele>
        <time>2023-06-23T10:30:26Z</time>
      </trkpt>
      <trkpt lat="49.40337" lon="5.78389">
        <ele>295</ele>
        <time>2023-06-23T10:30:28Z</time>
      </trkpt>
      <trkpt lat="49.40343" lon="5.78388">
        <ele>295.20001220703</ele>
        <time>2023-06-23T10:30:30Z</time>
      </trkpt>
      <trkpt lat="49.40349" lon="5.78387">
        <ele>295.20001220703</ele>
        <time>2023-06-23T10:30:32Z</time>
      </trkpt>
      <trkpt lat="49.40352" lon="5.78387">
        <ele>295.20001220703</ele>
        <time>2023-06-23T10:30:33Z</time>
      </trkpt>
      <trkpt lat="49.40354" lon="5.78387">
        <ele>295.20001220703</ele>
        <time>2023-06-23T10:30:34Z</time>
      </trkpt>
      <trkpt lat="49.40359" lon="5.78385">
        <ele>295.39999389648</ele>
        <time>2023-06-23T10:30:36Z</time>
      </trkpt>
      <trkpt lat="49.40365" lon="5.78384">
        <ele>295.60000610352</ele>
        <time>2023-06-23T10:30:38Z</time>
      </trkpt>
      <trkpt lat="49.40369" lon="5.78382">
        <ele>295.79998779297</ele>
        <time>2023-06-23T10:30:39Z</time>
      </trkpt>
      <trkpt lat="49.40372" lon="5.7838">
        <ele>295.79998779297</ele>
        <time>2023-06-23T10:30:40Z</time>
      </trkpt>
      <trkpt lat="49.40379" lon="5.78377">
        <ele>296.20001220703</ele>
        <time>2023-06-23T10:30:42Z</time>
      </trkpt>
      <trkpt lat="49.40384" lon="5.78374">
        <ele>296.39999389648</ele>
        <time>2023-06-23T10:30:44Z</time>
      </trkpt>
      <trkpt lat="49.40387" lon="5.78372">
        <ele>296.39999389648</ele>
        <time>2023-06-23T10:30:45Z</time>
      </trkpt>
      <trkpt lat="49.4039" lon="5.7837">
        <ele>296.39999389648</ele>
        <time>2023-06-23T10:30:46Z</time>
      </trkpt>
      <trkpt lat="49.40395" lon="5.78366">
        <ele>296.79998779297</ele>
        <time>2023-06-23T10:30:48Z</time>
      </trkpt>
      <trkpt lat="49.40401" lon="5.78361">
        <ele>296.79998779297</ele>
        <time>2023-06-23T10:30:50Z</time>
      </trkpt>
      <trkpt lat="49.40407" lon="5.78356">
        <ele>296.79998779297</ele>
        <time>2023-06-23T10:30:52Z</time>
      </trkpt>
      <trkpt lat="49.40412" lon="5.78351">
        <ele>296.39999389648</ele>
        <time>2023-06-23T10:30:54Z</time>
      </trkpt>
      <trkpt lat="49.40419" lon="5.78346">
        <ele>296.60000610352</ele>
        <time>2023-06-23T10:30:56Z</time>
      </trkpt>
      <trkpt lat="49.40423" lon="5.78342">
        <ele>296.60000610352</ele>
        <time>2023-06-23T10:30:58Z</time>
      </trkpt>
      <trkpt lat="49.40425" lon="5.78338">
        <ele>296.60000610352</ele>
        <time>2023-06-23T10:30:59Z</time>
      </trkpt>
      <trkpt lat="49.40428" lon="5.78336">
        <ele>296.60000610352</ele>
        <time>2023-06-23T10:31:00Z</time>
      </trkpt>
      <trkpt lat="49.40434" lon="5.78327">
        <ele>296.60000610352</ele>
        <time>2023-06-23T10:31:02Z</time>
      </trkpt>
      <trkpt lat="49.4044" lon="5.78316">
        <ele>296.60000610352</ele>
        <time>2023-06-23T10:31:04Z</time>
      </trkpt>
      <trkpt lat="49.40447" lon="5.78305">
        <ele>296.60000610352</ele>
        <time>2023-06-23T10:31:06Z</time>
      </trkpt>
      <trkpt lat="49.40455" lon="5.78297">
        <ele>296.20001220703</ele>
        <time>2023-06-23T10:31:08Z</time>
      </trkpt>
      <trkpt lat="49.40459" lon="5.78293">
        <ele>295.79998779297</ele>
        <time>2023-06-23T10:31:09Z</time>
      </trkpt>
      <trkpt lat="49.40464" lon="5.78291">
        <ele>295.39999389648</ele>
        <time>2023-06-23T10:31:10Z</time>
      </trkpt>
      <trkpt lat="49.40467" lon="5.78288">
        <ele>295.20001220703</ele>
        <time>2023-06-23T10:31:11Z</time>
      </trkpt>
      <trkpt lat="49.40471" lon="5.78286">
        <ele>295</ele>
        <time>2023-06-23T10:31:12Z</time>
      </trkpt>
      <trkpt lat="49.40478" lon="5.78282">
        <ele>294.79998779297</ele>
        <time>2023-06-23T10:31:14Z</time>
      </trkpt>
      <trkpt lat="49.4048" lon="5.78281">
        <ele>294.79998779297</ele>
        <time>2023-06-23T10:31:15Z</time>
      </trkpt>
      <trkpt lat="49.40483" lon="5.7828">
        <ele>294.79998779297</ele>
        <time>2023-06-23T10:31:16Z</time>
      </trkpt>
      <trkpt lat="49.40488" lon="5.78277">
        <ele>294.79998779297</ele>
        <time>2023-06-23T10:31:18Z</time>
      </trkpt>
      <trkpt lat="49.40495" lon="5.78274">
        <ele>294.60000610352</ele>
        <time>2023-06-23T10:31:20Z</time>
      </trkpt>
      <trkpt lat="49.40503" lon="5.7827">
        <ele>294.39999389648</ele>
        <time>2023-06-23T10:31:22Z</time>
      </trkpt>
      <trkpt lat="49.40512" lon="5.78264">
        <ele>294.39999389648</ele>
        <time>2023-06-23T10:31:24Z</time>
      </trkpt>
      <trkpt lat="49.4052" lon="5.78258">
        <ele>294.39999389648</ele>
        <time>2023-06-23T10:31:26Z</time>
      </trkpt>
      <trkpt lat="49.40528" lon="5.78253">
        <ele>294.39999389648</ele>
        <time>2023-06-23T10:31:28Z</time>
      </trkpt>
      <trkpt lat="49.40536" lon="5.78248">
        <ele>294.39999389648</ele>
        <time>2023-06-23T10:31:30Z</time>
      </trkpt>
      <trkpt lat="49.4054" lon="5.78245">
        <ele>294</ele>
        <time>2023-06-23T10:31:31Z</time>
      </trkpt>
      <trkpt lat="49.40541" lon="5.78242">
        <ele>293.79998779297</ele>
        <time>2023-06-23T10:31:32Z</time>
      </trkpt>
      <trkpt lat="49.40547" lon="5.78232">
        <ele>293.39999389648</ele>
        <time>2023-06-23T10:31:34Z</time>
      </trkpt>
      <trkpt lat="49.40549" lon="5.78225">
        <ele>293.39999389648</ele>
        <time>2023-06-23T10:31:35Z</time>
      </trkpt>
      <trkpt lat="49.40551" lon="5.78217">
        <ele>293.20001220703</ele>
        <time>2023-06-23T10:31:36Z</time>
      </trkpt>
      <trkpt lat="49.40558" lon="5.78199">
        <ele>293</ele>
        <time>2023-06-23T10:31:38Z</time>
      </trkpt>
      <trkpt lat="49.40561" lon="5.78192">
        <ele>292.79998779297</ele>
        <time>2023-06-23T10:31:39Z</time>
      </trkpt>
      <trkpt lat="49.40564" lon="5.78187">
        <ele>292.79998779297</ele>
        <time>2023-06-23T10:31:40Z</time>
      </trkpt>
      <trkpt lat="49.40566" lon="5.78183">
        <ele>292.60000610352</ele>
        <time>2023-06-23T10:31:41Z</time>
      </trkpt>
      <trkpt lat="49.40568" lon="5.78178">
        <ele>292.60000610352</ele>
        <time>2023-06-23T10:31:42Z</time>
      </trkpt>
      <trkpt lat="49.40569" lon="5.78175">
        <ele>291.60000610352</ele>
        <time>2023-06-23T10:31:43Z</time>
      </trkpt>
      <trkpt lat="49.40569" lon="5.78173">
        <ele>290</ele>
        <time>2023-06-23T10:31:44Z</time>
      </trkpt>
      <trkpt lat="49.40568" lon="5.78171">
        <ele>288.60000610352</ele>
        <time>2023-06-23T10:31:45Z</time>
      </trkpt>
      <trkpt lat="49.40567" lon="5.7817">
        <ele>287.60000610352</ele>
        <time>2023-06-23T10:31:46Z</time>
      </trkpt>
      <trkpt lat="49.40564" lon="5.78167">
        <ele>286.60000610352</ele>
        <time>2023-06-23T10:31:48Z</time>
      </trkpt>
      <trkpt lat="49.40563" lon="5.78166">
        <ele>286.39999389648</ele>
        <time>2023-06-23T10:31:49Z</time>
      </trkpt>
      <trkpt lat="49.40561" lon="5.78165">
        <ele>286.39999389648</ele>
        <time>2023-06-23T10:31:50Z</time>
      </trkpt>
      <trkpt lat="49.40559" lon="5.78165">
        <ele>286.20001220703</ele>
        <time>2023-06-23T10:31:51Z</time>
      </trkpt>
      <trkpt lat="49.40557" lon="5.78165">
        <ele>286.20001220703</ele>
        <time>2023-06-23T10:31:52Z</time>
      </trkpt>
      <trkpt lat="49.40553" lon="5.78165">
        <ele>286</ele>
        <time>2023-06-23T10:31:54Z</time>
      </trkpt>
      <trkpt lat="49.40551" lon="5.78164">
        <ele>286</ele>
        <time>2023-06-23T10:31:56Z</time>
      </trkpt>
      <trkpt lat="49.40551" lon="5.78164">
        <ele>286</ele>
        <time>2023-06-23T10:31:57Z</time>
      </trkpt>
      <trkpt lat="49.40551" lon="5.78164">
        <ele>285.79998779297</ele>
        <time>2023-06-23T10:31:58Z</time>
      </trkpt>
      <trkpt lat="49.40551" lon="5.78163">
        <ele>285.79998779297</ele>
        <time>2023-06-23T10:32:00Z</time>
      </trkpt>
      <trkpt lat="49.40552" lon="5.78164">
        <ele>285.60000610352</ele>
        <time>2023-06-23T10:32:02Z</time>
      </trkpt>
      <trkpt lat="49.40552" lon="5.78164">
        <ele>285.60000610352</ele>
        <time>2023-06-23T10:32:04Z</time>
      </trkpt>
      <trkpt lat="49.40552" lon="5.78164">
        <ele>285.60000610352</ele>
        <time>2023-06-23T10:32:06Z</time>
      </trkpt>
      <trkpt lat="49.40552" lon="5.78164">
        <ele>285.60000610352</ele>
        <time>2023-06-23T10:32:08Z</time>
      </trkpt>
      <trkpt lat="49.40552" lon="5.78164">
        <ele>285.60000610352</ele>
        <time>2023-06-23T10:32:10Z</time>
      </trkpt>
      <trkpt lat="49.40552" lon="5.78164">
        <ele>285.60000610352</ele>
        <time>2023-06-23T10:32:12Z</time>
      </trkpt>
      <trkpt lat="49.40552" lon="5.78163">
        <ele>285.60000610352</ele>
        <time>2023-06-23T10:32:14Z</time>
      </trkpt>
      <trkpt lat="49.40552" lon="5.78163">
        <ele>285.60000610352</ele>
        <time>2023-06-23T10:32:16Z</time>
      </trkpt>
      <trkpt lat="49.40552" lon="5.78163">
        <ele>285.60000610352</ele>
        <time>2023-06-23T10:32:18Z</time>
      </trkpt>
      <trkpt lat="49.40552" lon="5.78163">
        <ele>285.60000610352</ele>
        <time>2023-06-23T10:32:20Z</time>
      </trkpt>
      <trkpt lat="49.40552" lon="5.78163">
        <ele>285.79998779297</ele>
        <time>2023-06-23T10:32:22Z</time>
      </trkpt>
      <trkpt lat="49.40552" lon="5.78163">
        <ele>285.79998779297</ele>
        <time>2023-06-23T10:32:24Z</time>
      </trkpt>
      <trkpt lat="49.40552" lon="5.78163">
        <ele>285.79998779297</ele>
        <time>2023-06-23T10:32:26Z</time>
      </trkpt>
      <trkpt lat="49.40552" lon="5.78163">
        <ele>285.79998779297</ele>
        <time>2023-06-23T10:32:27Z</time>
      </trkpt>
      <trkpt lat="49.40552" lon="5.78163">
        <ele>285.79998779297</ele>
        <time>2023-06-23T10:32:28Z</time>
      </trkpt>
      <trkpt lat="49.40552" lon="5.78163">
        <ele>285.79998779297</ele>
        <time>2023-06-23T10:32:30Z</time>
      </trkpt>
      <trkpt lat="49.40552" lon="5.78162">
        <ele>285.79998779297</ele>
        <time>2023-06-23T10:32:32Z</time>
      </trkpt>
      <trkpt lat="49.40553" lon="5.78163">
        <ele>285.79998779297</ele>
        <time>2023-06-23T10:32:34Z</time>
      </trkpt>
      <trkpt lat="49.40553" lon="5.78163">
        <ele>285.79998779297</ele>
        <time>2023-06-23T10:32:36Z</time>
      </trkpt>
      <trkpt lat="49.40553" lon="5.78163">
        <ele>285.79998779297</ele>
        <time>2023-06-23T10:32:38Z</time>
      </trkpt>
      <trkpt lat="49.40553" lon="5.78163">
        <ele>285.60000610352</ele>
        <time>2023-06-23T10:32:40Z</time>
      </trkpt>
      <trkpt lat="49.40553" lon="5.78163">
        <ele>285.60000610352</ele>
        <time>2023-06-23T10:32:42Z</time>
      </trkpt>
      <trkpt lat="49.40553" lon="5.78162">
        <ele>285.60000610352</ele>
        <time>2023-06-23T10:32:44Z</time>
      </trkpt>
      <trkpt lat="49.40553" lon="5.78163">
        <ele>285.60000610352</ele>
        <time>2023-06-23T10:32:46Z</time>
      </trkpt>
      <trkpt lat="49.40553" lon="5.78163">
        <ele>285.60000610352</ele>
        <time>2023-06-23T10:32:48Z</time>
      </trkpt>
      <trkpt lat="49.40553" lon="5.78163">
        <ele>285.60000610352</ele>
        <time>2023-06-23T10:32:50Z</time>
      </trkpt>
      <trkpt lat="49.40553" lon="5.78163">
        <ele>285.60000610352</ele>
        <time>2023-06-23T10:32:52Z</time>
      </trkpt>
      <trkpt lat="49.40553" lon="5.78162">
        <ele>285.60000610352</ele>
        <time>2023-06-23T10:32:54Z</time>
      </trkpt>
      <trkpt lat="49.40553" lon="5.78162">
        <ele>285.60000610352</ele>
        <time>2023-06-23T10:32:56Z</time>
      </trkpt>
      <trkpt lat="49.40553" lon="5.78162">
        <ele>285.60000610352</ele>
        <time>2023-06-23T10:32:58Z</time>
      </trkpt>
      <trkpt lat="49.40555" lon="5.78163">
        <ele>285.39999389648</ele>
        <time>2023-06-23T10:33:00Z</time>
      </trkpt>
      <trkpt lat="49.40556" lon="5.78163">
        <ele>285.39999389648</ele>
        <time>2023-06-23T10:33:01Z</time>
      </trkpt>
      <trkpt lat="49.40558" lon="5.78163">
        <ele>285.20001220703</ele>
        <time>2023-06-23T10:33:02Z</time>
      </trkpt>
      <trkpt lat="49.4056" lon="5.78163">
        <ele>285.20001220703</ele>
        <time>2023-06-23T10:33:03Z</time>
      </trkpt>
      <trkpt lat="49.40563" lon="5.78162">
        <ele>285.20001220703</ele>
        <time>2023-06-23T10:33:04Z</time>
      </trkpt>
      <trkpt lat="49.40568" lon="5.78163">
        <ele>285.20001220703</ele>
        <time>2023-06-23T10:33:06Z</time>
      </trkpt>
      <trkpt lat="49.40574" lon="5.78163">
        <ele>285.20001220703</ele>
        <time>2023-06-23T10:33:08Z</time>
      </trkpt>
      <trkpt lat="49.4058" lon="5.78165">
        <ele>285.20001220703</ele>
        <time>2023-06-23T10:33:10Z</time>
      </trkpt>
      <trkpt lat="49.40585" lon="5.78166">
        <ele>285.20001220703</ele>
        <time>2023-06-23T10:33:12Z</time>
      </trkpt>
      <trkpt lat="49.4059" lon="5.78166">
        <ele>285.20001220703</ele>
        <time>2023-06-23T10:33:14Z</time>
      </trkpt>
      <trkpt lat="49.40595" lon="5.78166">
        <ele>285.20001220703</ele>
        <time>2023-06-23T10:33:16Z</time>
      </trkpt>
      <trkpt lat="49.40599" lon="5.78165">
        <ele>285.20001220703</ele>
        <time>2023-06-23T10:33:18Z</time>
      </trkpt>
      <trkpt lat="49.40603" lon="5.78164">
        <ele>285.20001220703</ele>
        <time>2023-06-23T10:33:20Z</time>
      </trkpt>
      <trkpt lat="49.40607" lon="5.78164">
        <ele>285.39999389648</ele>
        <time>2023-06-23T10:33:22Z</time>
      </trkpt>
      <trkpt lat="49.40608" lon="5.78163">
        <ele>285.60000610352</ele>
        <time>2023-06-23T10:33:23Z</time>
      </trkpt>
      <trkpt lat="49.4061" lon="5.78162">
        <ele>285.79998779297</ele>
        <time>2023-06-23T10:33:24Z</time>
      </trkpt>
      <trkpt lat="49.40612" lon="5.78161">
        <ele>286.39999389648</ele>
        <time>2023-06-23T10:33:26Z</time>
      </trkpt>
      <trkpt lat="49.40616" lon="5.78159">
        <ele>287.20001220703</ele>
        <time>2023-06-23T10:33:28Z</time>
      </trkpt>
      <trkpt lat="49.40619" lon="5.78158">
        <ele>288</ele>
        <time>2023-06-23T10:33:29Z</time>
      </trkpt>
      <trkpt lat="49.4062" lon="5.78157">
        <ele>288.39999389648</ele>
        <time>2023-06-23T10:33:30Z</time>
      </trkpt>
      <trkpt lat="49.40624" lon="5.78154">
        <ele>289</ele>
        <time>2023-06-23T10:33:32Z</time>
      </trkpt>
      <trkpt lat="49.40626" lon="5.78153">
        <ele>289.20001220703</ele>
        <time>2023-06-23T10:33:33Z</time>
      </trkpt>
      <trkpt lat="49.40628" lon="5.78152">
        <ele>289.39999389648</ele>
        <time>2023-06-23T10:33:34Z</time>
      </trkpt>
      <trkpt lat="49.4063" lon="5.78151">
        <ele>289.39999389648</ele>
        <time>2023-06-23T10:33:35Z</time>
      </trkpt>
      <trkpt lat="49.40632" lon="5.7815">
        <ele>289.60000610352</ele>
        <time>2023-06-23T10:33:36Z</time>
      </trkpt>
      <trkpt lat="49.40636" lon="5.78149">
        <ele>289.79998779297</ele>
        <time>2023-06-23T10:33:38Z</time>
      </trkpt>
      <trkpt lat="49.4064" lon="5.78147">
        <ele>290.20001220703</ele>
        <time>2023-06-23T10:33:40Z</time>
      </trkpt>
      <trkpt lat="49.40644" lon="5.78144">
        <ele>290.60000610352</ele>
        <time>2023-06-23T10:33:42Z</time>
      </trkpt>
      <trkpt lat="49.40646" lon="5.78143">
        <ele>290.79998779297</ele>
        <time>2023-06-23T10:33:43Z</time>
      </trkpt>
      <trkpt lat="49.40648" lon="5.78141">
        <ele>291</ele>
        <time>2023-06-23T10:33:44Z</time>
      </trkpt>
      <trkpt lat="49.40652" lon="5.78138">
        <ele>291.39999389648</ele>
        <time>2023-06-23T10:33:46Z</time>
      </trkpt>
      <trkpt lat="49.40656" lon="5.78135">
        <ele>291.60000610352</ele>
        <time>2023-06-23T10:33:48Z</time>
      </trkpt>
      <trkpt lat="49.40661" lon="5.78132">
        <ele>292.20001220703</ele>
        <time>2023-06-23T10:33:50Z</time>
      </trkpt>
      <trkpt lat="49.40663" lon="5.7813">
        <ele>292.39999389648</ele>
        <time>2023-06-23T10:33:51Z</time>
      </trkpt>
      <trkpt lat="49.40665" lon="5.78128">
        <ele>292.39999389648</ele>
        <time>2023-06-23T10:33:52Z</time>
      </trkpt>
      <trkpt lat="49.40669" lon="5.78125">
        <ele>292.79998779297</ele>
        <time>2023-06-23T10:33:54Z</time>
      </trkpt>
      <trkpt lat="49.40673" lon="5.78122">
        <ele>293</ele>
        <time>2023-06-23T10:33:56Z</time>
      </trkpt>
      <trkpt lat="49.40677" lon="5.78118">
        <ele>293.39999389648</ele>
        <time>2023-06-23T10:33:58Z</time>
      </trkpt>
      <trkpt lat="49.40679" lon="5.78116">
        <ele>293.60000610352</ele>
        <time>2023-06-23T10:33:59Z</time>
      </trkpt>
      <trkpt lat="49.40681" lon="5.78115">
        <ele>293.60000610352</ele>
        <time>2023-06-23T10:34:00Z</time>
      </trkpt>
      <trkpt lat="49.40684" lon="5.78111">
        <ele>294</ele>
        <time>2023-06-23T10:34:02Z</time>
      </trkpt>
      <trkpt lat="49.40688" lon="5.78107">
        <ele>294.20001220703</ele>
        <time>2023-06-23T10:34:04Z</time>
      </trkpt>
      <trkpt lat="49.40691" lon="5.78104">
        <ele>294.39999389648</ele>
        <time>2023-06-23T10:34:06Z</time>
      </trkpt>
      <trkpt lat="49.40693" lon="5.78101">
        <ele>294.60000610352</ele>
        <time>2023-06-23T10:34:07Z</time>
      </trkpt>
      <trkpt lat="49.40694" lon="5.781">
        <ele>294.60000610352</ele>
        <time>2023-06-23T10:34:08Z</time>
      </trkpt>
      <trkpt lat="49.40697" lon="5.78096">
        <ele>295</ele>
        <time>2023-06-23T10:34:10Z</time>
      </trkpt>
      <trkpt lat="49.40701" lon="5.78093">
        <ele>295</ele>
        <time>2023-06-23T10:34:12Z</time>
      </trkpt>
      <trkpt lat="49.40704" lon="5.78089">
        <ele>295.20001220703</ele>
        <time>2023-06-23T10:34:14Z</time>
      </trkpt>
      <trkpt lat="49.40708" lon="5.78084">
        <ele>295.39999389648</ele>
        <time>2023-06-23T10:34:16Z</time>
      </trkpt>
      <trkpt lat="49.40712" lon="5.7808">
        <ele>295.60000610352</ele>
        <time>2023-06-23T10:34:18Z</time>
      </trkpt>
      <trkpt lat="49.40716" lon="5.78075">
        <ele>295.79998779297</ele>
        <time>2023-06-23T10:34:20Z</time>
      </trkpt>
      <trkpt lat="49.4072" lon="5.7807">
        <ele>296</ele>
        <time>2023-06-23T10:34:22Z</time>
      </trkpt>
      <trkpt lat="49.40724" lon="5.78065">
        <ele>296</ele>
        <time>2023-06-23T10:34:24Z</time>
      </trkpt>
      <trkpt lat="49.40728" lon="5.7806">
        <ele>296.39999389648</ele>
        <time>2023-06-23T10:34:26Z</time>
      </trkpt>
      <trkpt lat="49.40732" lon="5.78055">
        <ele>296.60000610352</ele>
        <time>2023-06-23T10:34:28Z</time>
      </trkpt>
      <trkpt lat="49.40736" lon="5.7805">
        <ele>296.60000610352</ele>
        <time>2023-06-23T10:34:30Z</time>
      </trkpt>
      <trkpt lat="49.40739" lon="5.78045">
        <ele>296.79998779297</ele>
        <time>2023-06-23T10:34:32Z</time>
      </trkpt>
      <trkpt lat="49.40743" lon="5.7804">
        <ele>296.79998779297</ele>
        <time>2023-06-23T10:34:34Z</time>
      </trkpt>
      <trkpt lat="49.40745" lon="5.78038">
        <ele>297</ele>
        <time>2023-06-23T10:34:35Z</time>
      </trkpt>
      <trkpt lat="49.40746" lon="5.78035">
        <ele>297</ele>
        <time>2023-06-23T10:34:36Z</time>
      </trkpt>
      <trkpt lat="49.4075" lon="5.78031">
        <ele>297</ele>
        <time>2023-06-23T10:34:38Z</time>
      </trkpt>
      <trkpt lat="49.40753" lon="5.78026">
        <ele>297.20001220703</ele>
        <time>2023-06-23T10:34:40Z</time>
      </trkpt>
      <trkpt lat="49.40755" lon="5.78024">
        <ele>297.60000610352</ele>
        <time>2023-06-23T10:34:41Z</time>
      </trkpt>
      <trkpt lat="49.40757" lon="5.78022">
        <ele>297.79998779297</ele>
        <time>2023-06-23T10:34:42Z</time>
      </trkpt>
      <trkpt lat="49.40759" lon="5.7802">
        <ele>298</ele>
        <time>2023-06-23T10:34:43Z</time>
      </trkpt>
      <trkpt lat="49.40761" lon="5.78018">
        <ele>298.20001220703</ele>
        <time>2023-06-23T10:34:44Z</time>
      </trkpt>
      <trkpt lat="49.40766" lon="5.78014">
        <ele>298.60000610352</ele>
        <time>2023-06-23T10:34:46Z</time>
      </trkpt>
      <trkpt lat="49.40771" lon="5.78009">
        <ele>298.60000610352</ele>
        <time>2023-06-23T10:34:48Z</time>
      </trkpt>
      <trkpt lat="49.40775" lon="5.78006">
        <ele>299</ele>
        <time>2023-06-23T10:34:50Z</time>
      </trkpt>
      <trkpt lat="49.4078" lon="5.78002">
        <ele>299.20001220703</ele>
        <time>2023-06-23T10:34:52Z</time>
      </trkpt>
      <trkpt lat="49.40782" lon="5.78">
        <ele>299.20001220703</ele>
        <time>2023-06-23T10:34:53Z</time>
      </trkpt>
      <trkpt lat="49.40785" lon="5.77999">
        <ele>299.39999389648</ele>
        <time>2023-06-23T10:34:54Z</time>
      </trkpt>
      <trkpt lat="49.40789" lon="5.77995">
        <ele>299.79998779297</ele>
        <time>2023-06-23T10:34:56Z</time>
      </trkpt>
      <trkpt lat="49.40794" lon="5.77992">
        <ele>300</ele>
        <time>2023-06-23T10:34:58Z</time>
      </trkpt>
      <trkpt lat="49.40799" lon="5.7799">
        <ele>300.39999389648</ele>
        <time>2023-06-23T10:35:00Z</time>
      </trkpt>
      <trkpt lat="49.40801" lon="5.77989">
        <ele>300.79998779297</ele>
        <time>2023-06-23T10:35:01Z</time>
      </trkpt>
      <trkpt lat="49.40804" lon="5.77988">
        <ele>301.20001220703</ele>
        <time>2023-06-23T10:35:02Z</time>
      </trkpt>
      <trkpt lat="49.40808" lon="5.77986">
        <ele>301.60000610352</ele>
        <time>2023-06-23T10:35:04Z</time>
      </trkpt>
      <trkpt lat="49.40812" lon="5.77985">
        <ele>301.79998779297</ele>
        <time>2023-06-23T10:35:06Z</time>
      </trkpt>
      <trkpt lat="49.40816" lon="5.77985">
        <ele>302.20001220703</ele>
        <time>2023-06-23T10:35:08Z</time>
      </trkpt>
      <trkpt lat="49.4082" lon="5.77984">
        <ele>302.60000610352</ele>
        <time>2023-06-23T10:35:10Z</time>
      </trkpt>
      <trkpt lat="49.40822" lon="5.77983">
        <ele>302.79998779297</ele>
        <time>2023-06-23T10:35:11Z</time>
      </trkpt>
      <trkpt lat="49.40825" lon="5.77983">
        <ele>302.79998779297</ele>
        <time>2023-06-23T10:35:12Z</time>
      </trkpt>
      <trkpt lat="49.40827" lon="5.77982">
        <ele>303</ele>
        <time>2023-06-23T10:35:13Z</time>
      </trkpt>
      <trkpt lat="49.40829" lon="5.77982">
        <ele>303</ele>
        <time>2023-06-23T10:35:14Z</time>
      </trkpt>
      <trkpt lat="49.40832" lon="5.77981">
        <ele>303.20001220703</ele>
        <time>2023-06-23T10:35:16Z</time>
      </trkpt>
      <trkpt lat="49.40837" lon="5.77982">
        <ele>303.39999389648</ele>
        <time>2023-06-23T10:35:18Z</time>
      </trkpt>
      <trkpt lat="49.40841" lon="5.77981">
        <ele>304</ele>
        <time>2023-06-23T10:35:20Z</time>
      </trkpt>
      <trkpt lat="49.40845" lon="5.77981">
        <ele>304.79998779297</ele>
        <time>2023-06-23T10:35:22Z</time>
      </trkpt>
      <trkpt lat="49.40847" lon="5.7798">
        <ele>305</ele>
        <time>2023-06-23T10:35:23Z</time>
      </trkpt>
      <trkpt lat="49.40849" lon="5.77979">
        <ele>305.20001220703</ele>
        <time>2023-06-23T10:35:24Z</time>
      </trkpt>
      <trkpt lat="49.40853" lon="5.77978">
        <ele>305.39999389648</ele>
        <time>2023-06-23T10:35:26Z</time>
      </trkpt>
      <trkpt lat="49.40857" lon="5.77978">
        <ele>305.79998779297</ele>
        <time>2023-06-23T10:35:28Z</time>
      </trkpt>
      <trkpt lat="49.40858" lon="5.77977">
        <ele>306</ele>
        <time>2023-06-23T10:35:29Z</time>
      </trkpt>
      <trkpt lat="49.4086" lon="5.77976">
        <ele>306.20001220703</ele>
        <time>2023-06-23T10:35:30Z</time>
      </trkpt>
      <trkpt lat="49.40865" lon="5.77975">
        <ele>306.60000610352</ele>
        <time>2023-06-23T10:35:32Z</time>
      </trkpt>
      <trkpt lat="49.40866" lon="5.77974">
        <ele>306.60000610352</ele>
        <time>2023-06-23T10:35:33Z</time>
      </trkpt>
      <trkpt lat="49.40868" lon="5.77973">
        <ele>306.79998779297</ele>
        <time>2023-06-23T10:35:34Z</time>
      </trkpt>
      <trkpt lat="49.40872" lon="5.77971">
        <ele>307</ele>
        <time>2023-06-23T10:35:36Z</time>
      </trkpt>
      <trkpt lat="49.40873" lon="5.7797">
        <ele>307</ele>
        <time>2023-06-23T10:35:37Z</time>
      </trkpt>
      <trkpt lat="49.40875" lon="5.77969">
        <ele>307</ele>
        <time>2023-06-23T10:35:38Z</time>
      </trkpt>
      <trkpt lat="49.40877" lon="5.77968">
        <ele>307.20001220703</ele>
        <time>2023-06-23T10:35:39Z</time>
      </trkpt>
      <trkpt lat="49.40879" lon="5.77967">
        <ele>307.20001220703</ele>
        <time>2023-06-23T10:35:40Z</time>
      </trkpt>
      <trkpt lat="49.40883" lon="5.77964">
        <ele>307.39999389648</ele>
        <time>2023-06-23T10:35:42Z</time>
      </trkpt>
      <trkpt lat="49.40887" lon="5.77962">
        <ele>307.79998779297</ele>
        <time>2023-06-23T10:35:44Z</time>
      </trkpt>
      <trkpt lat="49.4089" lon="5.7796">
        <ele>307.79998779297</ele>
        <time>2023-06-23T10:35:45Z</time>
      </trkpt>
      <trkpt lat="49.40892" lon="5.77959">
        <ele>308</ele>
        <time>2023-06-23T10:35:46Z</time>
      </trkpt>
      <trkpt lat="49.40895" lon="5.77957">
        <ele>308</ele>
        <time>2023-06-23T10:35:47Z</time>
      </trkpt>
      <trkpt lat="49.40897" lon="5.77956">
        <ele>308.39999389648</ele>
        <time>2023-06-23T10:35:48Z</time>
      </trkpt>
      <trkpt lat="49.40902" lon="5.77952">
        <ele>308.39999389648</ele>
        <time>2023-06-23T10:35:50Z</time>
      </trkpt>
      <trkpt lat="49.40906" lon="5.77948">
        <ele>308.60000610352</ele>
        <time>2023-06-23T10:35:52Z</time>
      </trkpt>
      <trkpt lat="49.40908" lon="5.77945">
        <ele>308.60000610352</ele>
        <time>2023-06-23T10:35:53Z</time>
      </trkpt>
      <trkpt lat="49.4091" lon="5.77941">
        <ele>308.60000610352</ele>
        <time>2023-06-23T10:35:54Z</time>
      </trkpt>
      <trkpt lat="49.40913" lon="5.77933">
        <ele>308.60000610352</ele>
        <time>2023-06-23T10:35:56Z</time>
      </trkpt>
      <trkpt lat="49.40916" lon="5.77924">
        <ele>308.60000610352</ele>
        <time>2023-06-23T10:35:58Z</time>
      </trkpt>
      <trkpt lat="49.40917" lon="5.77919">
        <ele>308.60000610352</ele>
        <time>2023-06-23T10:35:59Z</time>
      </trkpt>
      <trkpt lat="49.40918" lon="5.77914">
        <ele>308.60000610352</ele>
        <time>2023-06-23T10:36:00Z</time>
      </trkpt>
      <trkpt lat="49.40919" lon="5.77904">
        <ele>308.39999389648</ele>
        <time>2023-06-23T10:36:02Z</time>
      </trkpt>
      <trkpt lat="49.4092" lon="5.77895">
        <ele>307.79998779297</ele>
        <time>2023-06-23T10:36:04Z</time>
      </trkpt>
      <trkpt lat="49.40921" lon="5.77884">
        <ele>307.79998779297</ele>
        <time>2023-06-23T10:36:06Z</time>
      </trkpt>
      <trkpt lat="49.40921" lon="5.77879">
        <ele>307.79998779297</ele>
        <time>2023-06-23T10:36:07Z</time>
      </trkpt>
      <trkpt lat="49.40922" lon="5.77874">
        <ele>307.60000610352</ele>
        <time>2023-06-23T10:36:08Z</time>
      </trkpt>
      <trkpt lat="49.40923" lon="5.77864">
        <ele>307.60000610352</ele>
        <time>2023-06-23T10:36:10Z</time>
      </trkpt>
      <trkpt lat="49.40926" lon="5.77854">
        <ele>307.60000610352</ele>
        <time>2023-06-23T10:36:12Z</time>
      </trkpt>
      <trkpt lat="49.40929" lon="5.77845">
        <ele>307.60000610352</ele>
        <time>2023-06-23T10:36:14Z</time>
      </trkpt>
      <trkpt lat="49.40933" lon="5.77838">
        <ele>307.79998779297</ele>
        <time>2023-06-23T10:36:16Z</time>
      </trkpt>
      <trkpt lat="49.40938" lon="5.77831">
        <ele>307.79998779297</ele>
        <time>2023-06-23T10:36:18Z</time>
      </trkpt>
      <trkpt lat="49.40943" lon="5.77825">
        <ele>308</ele>
        <time>2023-06-23T10:36:20Z</time>
      </trkpt>
      <trkpt lat="49.40946" lon="5.77822">
        <ele>308</ele>
        <time>2023-06-23T10:36:21Z</time>
      </trkpt>
      <trkpt lat="49.40948" lon="5.77819">
        <ele>308</ele>
        <time>2023-06-23T10:36:22Z</time>
      </trkpt>
      <trkpt lat="49.40952" lon="5.77814">
        <ele>308.39999389648</ele>
        <time>2023-06-23T10:36:24Z</time>
      </trkpt>
      <trkpt lat="49.40957" lon="5.7781">
        <ele>308.60000610352</ele>
        <time>2023-06-23T10:36:26Z</time>
      </trkpt>
      <trkpt lat="49.40961" lon="5.77805">
        <ele>308.79998779297</ele>
        <time>2023-06-23T10:36:28Z</time>
      </trkpt>
      <trkpt lat="49.40966" lon="5.778">
        <ele>309</ele>
        <time>2023-06-23T10:36:30Z</time>
      </trkpt>
      <trkpt lat="49.40969" lon="5.77798">
        <ele>309.20001220703</ele>
        <time>2023-06-23T10:36:31Z</time>
      </trkpt>
      <trkpt lat="49.40972" lon="5.77796">
        <ele>309.20001220703</ele>
        <time>2023-06-23T10:36:32Z</time>
      </trkpt>
      <trkpt lat="49.40978" lon="5.77793">
        <ele>309.60000610352</ele>
        <time>2023-06-23T10:36:34Z</time>
      </trkpt>
      <trkpt lat="49.40983" lon="5.77789">
        <ele>310</ele>
        <time>2023-06-23T10:36:36Z</time>
      </trkpt>
      <trkpt lat="49.40989" lon="5.77786">
        <ele>310.20001220703</ele>
        <time>2023-06-23T10:36:38Z</time>
      </trkpt>
      <trkpt lat="49.40995" lon="5.77783">
        <ele>310.60000610352</ele>
        <time>2023-06-23T10:36:40Z</time>
      </trkpt>
      <trkpt lat="49.41001" lon="5.7778">
        <ele>311</ele>
        <time>2023-06-23T10:36:42Z</time>
      </trkpt>
      <trkpt lat="49.41007" lon="5.77778">
        <ele>311.20001220703</ele>
        <time>2023-06-23T10:36:44Z</time>
      </trkpt>
      <trkpt lat="49.41012" lon="5.77775">
        <ele>311.60000610352</ele>
        <time>2023-06-23T10:36:46Z</time>
      </trkpt>
      <trkpt lat="49.41019" lon="5.77774">
        <ele>311.79998779297</ele>
        <time>2023-06-23T10:36:48Z</time>
      </trkpt>
      <trkpt lat="49.41022" lon="5.77773">
        <ele>311.60000610352</ele>
        <time>2023-06-23T10:36:49Z</time>
      </trkpt>
      <trkpt lat="49.41025" lon="5.77772">
        <ele>311.60000610352</ele>
        <time>2023-06-23T10:36:50Z</time>
      </trkpt>
      <trkpt lat="49.41032" lon="5.77771">
        <ele>312</ele>
        <time>2023-06-23T10:36:52Z</time>
      </trkpt>
      <trkpt lat="49.41039" lon="5.77771">
        <ele>312.20001220703</ele>
        <time>2023-06-23T10:36:54Z</time>
      </trkpt>
      <trkpt lat="49.41045" lon="5.77772">
        <ele>312.60000610352</ele>
        <time>2023-06-23T10:36:56Z</time>
      </trkpt>
      <trkpt lat="49.41049" lon="5.77772">
        <ele>312.60000610352</ele>
        <time>2023-06-23T10:36:57Z</time>
      </trkpt>
      <trkpt lat="49.41052" lon="5.77773">
        <ele>312.60000610352</ele>
        <time>2023-06-23T10:36:58Z</time>
      </trkpt>
      <trkpt lat="49.41057" lon="5.77773">
        <ele>312.60000610352</ele>
        <time>2023-06-23T10:37:00Z</time>
      </trkpt>
      <trkpt lat="49.41059" lon="5.77772">
        <ele>312.60000610352</ele>
        <time>2023-06-23T10:37:01Z</time>
      </trkpt>
      <trkpt lat="49.41061" lon="5.7777">
        <ele>313</ele>
        <time>2023-06-23T10:37:02Z</time>
      </trkpt>
      <trkpt lat="49.41061" lon="5.77765">
        <ele>313</ele>
        <time>2023-06-23T10:37:04Z</time>
      </trkpt>
      <trkpt lat="49.4106" lon="5.77762">
        <ele>312.79998779297</ele>
        <time>2023-06-23T10:37:05Z</time>
      </trkpt>
      <trkpt lat="49.4106" lon="5.77759">
        <ele>312.79998779297</ele>
        <time>2023-06-23T10:37:06Z</time>
      </trkpt>
      <trkpt lat="49.41058" lon="5.77753">
        <ele>313.20001220703</ele>
        <time>2023-06-23T10:37:08Z</time>
      </trkpt>
      <trkpt lat="49.41056" lon="5.77751">
        <ele>313.20001220703</ele>
        <time>2023-06-23T10:37:09Z</time>
      </trkpt>
      <trkpt lat="49.41055" lon="5.7775">
        <ele>313.39999389648</ele>
        <time>2023-06-23T10:37:10Z</time>
      </trkpt>
      <trkpt lat="49.41053" lon="5.77749">
        <ele>313.60000610352</ele>
        <time>2023-06-23T10:37:11Z</time>
      </trkpt>
      <trkpt lat="49.4105" lon="5.77748">
        <ele>313.60000610352</ele>
        <time>2023-06-23T10:37:12Z</time>
      </trkpt>
      <trkpt lat="49.41049" lon="5.77747">
        <ele>313.79998779297</ele>
        <time>2023-06-23T10:37:14Z</time>
      </trkpt>
      <trkpt lat="49.41048" lon="5.77747">
        <ele>313.79998779297</ele>
        <time>2023-06-23T10:37:15Z</time>
      </trkpt>
      <trkpt lat="49.41048" lon="5.77747">
        <ele>314</ele>
        <time>2023-06-23T10:37:16Z</time>
      </trkpt>
      <trkpt lat="49.41048" lon="5.77747">
        <ele>314.20001220703</ele>
        <time>2023-06-23T10:37:18Z</time>
      </trkpt>
      <trkpt lat="49.41048" lon="5.77747">
        <ele>314.20001220703</ele>
        <time>2023-06-23T10:37:19Z</time>
      </trkpt>
      <trkpt lat="49.41048" lon="5.77747">
        <ele>314.20001220703</ele>
        <time>2023-06-23T10:37:20Z</time>
      </trkpt>
      <trkpt lat="49.41047" lon="5.77747">
        <ele>314.39999389648</ele>
        <time>2023-06-23T10:37:22Z</time>
      </trkpt>
      <trkpt lat="49.41047" lon="5.77747">
        <ele>314.39999389648</ele>
        <time>2023-06-23T10:37:23Z</time>
      </trkpt>
      <trkpt lat="49.41047" lon="5.77747">
        <ele>314.39999389648</ele>
        <time>2023-06-23T10:37:24Z</time>
      </trkpt>
      <trkpt lat="49.41048" lon="5.77747">
        <ele>314.39999389648</ele>
        <time>2023-06-23T10:37:26Z</time>
      </trkpt>
      <trkpt lat="49.41048" lon="5.77747">
        <ele>314.39999389648</ele>
        <time>2023-06-23T10:37:28Z</time>
      </trkpt>
      <trkpt lat="49.41048" lon="5.77746">
        <ele>314.39999389648</ele>
        <time>2023-06-23T10:37:30Z</time>
      </trkpt>
      <trkpt lat="49.41048" lon="5.77746">
        <ele>314.39999389648</ele>
        <time>2023-06-23T10:37:32Z</time>
      </trkpt>
      <trkpt lat="49.41048" lon="5.77746">
        <ele>314.39999389648</ele>
        <time>2023-06-23T10:37:34Z</time>
      </trkpt>
      <trkpt lat="49.41048" lon="5.77746">
        <ele>314.39999389648</ele>
        <time>2023-06-23T10:37:36Z</time>
      </trkpt>
      <trkpt lat="49.41048" lon="5.77746">
        <ele>314.39999389648</ele>
        <time>2023-06-23T10:37:38Z</time>
      </trkpt>
      <trkpt lat="49.41048" lon="5.77746">
        <ele>314.39999389648</ele>
        <time>2023-06-23T10:37:40Z</time>
      </trkpt>
      <trkpt lat="49.41047" lon="5.77746">
        <ele>314.39999389648</ele>
        <time>2023-06-23T10:37:42Z</time>
      </trkpt>
      <trkpt lat="49.41048" lon="5.77746">
        <ele>314.39999389648</ele>
        <time>2023-06-23T10:37:44Z</time>
      </trkpt>
      <trkpt lat="49.41047" lon="5.77746">
        <ele>314.39999389648</ele>
        <time>2023-06-23T10:37:46Z</time>
      </trkpt>
      <trkpt lat="49.41048" lon="5.77746">
        <ele>314.39999389648</ele>
        <time>2023-06-23T10:37:48Z</time>
      </trkpt>
      <trkpt lat="49.41047" lon="5.77746">
        <ele>314.39999389648</ele>
        <time>2023-06-23T10:37:50Z</time>
      </trkpt>
      <trkpt lat="49.41048" lon="5.77746">
        <ele>314.39999389648</ele>
        <time>2023-06-23T10:37:52Z</time>
      </trkpt>
      <trkpt lat="49.41048" lon="5.77746">
        <ele>314.39999389648</ele>
        <time>2023-06-23T10:37:54Z</time>
      </trkpt>
      <trkpt lat="49.41048" lon="5.77746">
        <ele>314.39999389648</ele>
        <time>2023-06-23T10:37:56Z</time>
      </trkpt>
      <trkpt lat="49.41048" lon="5.77746">
        <ele>314.39999389648</ele>
        <time>2023-06-23T10:37:58Z</time>
      </trkpt>
      <trkpt lat="49.41048" lon="5.77746">
        <ele>314.39999389648</ele>
        <time>2023-06-23T10:38:00Z</time>
      </trkpt>
      <trkpt lat="49.41048" lon="5.77746">
        <ele>314.39999389648</ele>
        <time>2023-06-23T10:38:02Z</time>
      </trkpt>
      <trkpt lat="49.41048" lon="5.77746">
        <ele>314.39999389648</ele>
        <time>2023-06-23T10:38:04Z</time>
      </trkpt>
      <trkpt lat="49.41048" lon="5.77746">
        <ele>314.39999389648</ele>
        <time>2023-06-23T10:38:06Z</time>
      </trkpt>
      <trkpt lat="49.41048" lon="5.77746">
        <ele>314.39999389648</ele>
        <time>2023-06-23T10:38:08Z</time>
      </trkpt>
      <trkpt lat="49.41048" lon="5.77746">
        <ele>314.39999389648</ele>
        <time>2023-06-23T10:38:10Z</time>
      </trkpt>
      <trkpt lat="49.41048" lon="5.77746">
        <ele>314.39999389648</ele>
        <time>2023-06-23T10:38:12Z</time>
      </trkpt>
      <trkpt lat="49.41048" lon="5.77746">
        <ele>314.39999389648</ele>
        <time>2023-06-23T10:38:14Z</time>
      </trkpt>
      <trkpt lat="49.41048" lon="5.77746">
        <ele>314.39999389648</ele>
        <time>2023-06-23T10:38:16Z</time>
      </trkpt>
      <trkpt lat="49.41048" lon="5.77746">
        <ele>314.39999389648</ele>
        <time>2023-06-23T10:38:18Z</time>
      </trkpt>
      <trkpt lat="49.41048" lon="5.77746">
        <ele>314.39999389648</ele>
        <time>2023-06-23T10:38:20Z</time>
      </trkpt>
      <trkpt lat="49.41048" lon="5.77746">
        <ele>314.39999389648</ele>
        <time>2023-06-23T10:38:22Z</time>
      </trkpt>
      <trkpt lat="49.41048" lon="5.77746">
        <ele>314.39999389648</ele>
        <time>2023-06-23T10:38:23Z</time>
      </trkpt>
      <trkpt lat="49.41048" lon="5.77746">
        <ele>314.39999389648</ele>
        <time>2023-06-23T10:38:24Z</time>
      </trkpt>
      <trkpt lat="49.41048" lon="5.77746">
        <ele>314.39999389648</ele>
        <time>2023-06-23T10:38:26Z</time>
      </trkpt>
      <trkpt lat="49.41048" lon="5.77746">
        <ele>314.39999389648</ele>
        <time>2023-06-23T10:38:28Z</time>
      </trkpt>
      <trkpt lat="49.41048" lon="5.77746">
        <ele>314.39999389648</ele>
        <time>2023-06-23T10:38:30Z</time>
      </trkpt>
      <trkpt lat="49.41048" lon="5.77746">
        <ele>314.20001220703</ele>
        <time>2023-06-23T10:38:32Z</time>
      </trkpt>
      <trkpt lat="49.41048" lon="5.77746">
        <ele>314.20001220703</ele>
        <time>2023-06-23T10:38:34Z</time>
      </trkpt>
      <trkpt lat="49.41048" lon="5.77746">
        <ele>314.20001220703</ele>
        <time>2023-06-23T10:38:36Z</time>
      </trkpt>
      <trkpt lat="49.41048" lon="5.77746">
        <ele>314.20001220703</ele>
        <time>2023-06-23T10:38:38Z</time>
      </trkpt>
      <trkpt lat="49.41048" lon="5.77746">
        <ele>314.20001220703</ele>
        <time>2023-06-23T10:38:40Z</time>
      </trkpt>
      <trkpt lat="49.41048" lon="5.77746">
        <ele>314.20001220703</ele>
        <time>2023-06-23T10:38:42Z</time>
      </trkpt>
      <trkpt lat="49.41048" lon="5.77746">
        <ele>314.20001220703</ele>
        <time>2023-06-23T10:38:44Z</time>
      </trkpt>
      <trkpt lat="49.41048" lon="5.77746">
        <ele>314.20001220703</ele>
        <time>2023-06-23T10:38:46Z</time>
      </trkpt>
      <trkpt lat="49.41048" lon="5.77746">
        <ele>314.20001220703</ele>
        <time>2023-06-23T10:38:47Z</time>
      </trkpt>
      <trkpt lat="49.41048" lon="5.77746">
        <ele>314.20001220703</ele>
        <time>2023-06-23T10:38:48Z</time>
      </trkpt>
      <trkpt lat="49.41048" lon="5.77746">
        <ele>314.20001220703</ele>
        <time>2023-06-23T10:38:50Z</time>
      </trkpt>
      <trkpt lat="49.41048" lon="5.77746">
        <ele>314.20001220703</ele>
        <time>2023-06-23T10:38:52Z</time>
      </trkpt>
      <trkpt lat="49.41048" lon="5.77746">
        <ele>314.20001220703</ele>
        <time>2023-06-23T10:38:54Z</time>
      </trkpt>
      <trkpt lat="49.41048" lon="5.77746">
        <ele>314.20001220703</ele>
        <time>2023-06-23T10:38:56Z</time>
      </trkpt>
      <trkpt lat="49.41047" lon="5.77746">
        <ele>314.20001220703</ele>
        <time>2023-06-23T10:38:58Z</time>
      </trkpt>
      <trkpt lat="49.41048" lon="5.77746">
        <ele>314.20001220703</ele>
        <time>2023-06-23T10:39:00Z</time>
      </trkpt>
      <trkpt lat="49.41047" lon="5.77746">
        <ele>314.20001220703</ele>
        <time>2023-06-23T10:39:02Z</time>
      </trkpt>
      <trkpt lat="49.41047" lon="5.77746">
        <ele>314.20001220703</ele>
        <time>2023-06-23T10:39:04Z</time>
      </trkpt>
      <trkpt lat="49.41047" lon="5.77746">
        <ele>314.20001220703</ele>
        <time>2023-06-23T10:39:06Z</time>
      </trkpt>
      <trkpt lat="49.41047" lon="5.77746">
        <ele>314.20001220703</ele>
        <time>2023-06-23T10:39:08Z</time>
      </trkpt>
      <trkpt lat="49.41047" lon="5.77746">
        <ele>314.20001220703</ele>
        <time>2023-06-23T10:39:10Z</time>
      </trkpt>
      <trkpt lat="49.41047" lon="5.77746">
        <ele>314.20001220703</ele>
        <time>2023-06-23T10:39:12Z</time>
      </trkpt>
      <trkpt lat="49.41047" lon="5.77746">
        <ele>314.20001220703</ele>
        <time>2023-06-23T10:39:14Z</time>
      </trkpt>
      <trkpt lat="49.41047" lon="5.77746">
        <ele>314.20001220703</ele>
        <time>2023-06-23T10:39:16Z</time>
      </trkpt>
      <trkpt lat="49.41047" lon="5.77746">
        <ele>314.20001220703</ele>
        <time>2023-06-23T10:39:18Z</time>
      </trkpt>
      <trkpt lat="49.41047" lon="5.77746">
        <ele>314.20001220703</ele>
        <time>2023-06-23T10:39:20Z</time>
      </trkpt>
      <trkpt lat="49.41047" lon="5.77746">
        <ele>314.20001220703</ele>
        <time>2023-06-23T10:39:22Z</time>
      </trkpt>
      <trkpt lat="49.41047" lon="5.77746">
        <ele>314.39999389648</ele>
        <time>2023-06-23T10:39:24Z</time>
      </trkpt>
      <trkpt lat="49.41047" lon="5.77746">
        <ele>314.39999389648</ele>
        <time>2023-06-23T10:39:26Z</time>
      </trkpt>
      <trkpt lat="49.41047" lon="5.77746">
        <ele>314.39999389648</ele>
        <time>2023-06-23T10:39:27Z</time>
      </trkpt>
      <trkpt lat="49.41047" lon="5.77746">
        <ele>314.39999389648</ele>
        <time>2023-06-23T10:39:28Z</time>
      </trkpt>
      <trkpt lat="49.41047" lon="5.77746">
        <ele>314.39999389648</ele>
        <time>2023-06-23T10:39:30Z</time>
      </trkpt>
      <trkpt lat="49.41047" lon="5.77746">
        <ele>314.39999389648</ele>
        <time>2023-06-23T10:39:32Z</time>
      </trkpt>
      <trkpt lat="49.41047" lon="5.77746">
        <ele>314.39999389648</ele>
        <time>2023-06-23T10:39:34Z</time>
      </trkpt>
      <trkpt lat="49.41047" lon="5.77746">
        <ele>314.39999389648</ele>
        <time>2023-06-23T10:39:36Z</time>
      </trkpt>
      <trkpt lat="49.41047" lon="5.77746">
        <ele>314.39999389648</ele>
        <time>2023-06-23T10:39:38Z</time>
      </trkpt>
      <trkpt lat="49.41047" lon="5.77746">
        <ele>314.39999389648</ele>
        <time>2023-06-23T10:39:40Z</time>
      </trkpt>
      <trkpt lat="49.41047" lon="5.77746">
        <ele>314.39999389648</ele>
        <time>2023-06-23T10:39:42Z</time>
      </trkpt>
      <trkpt lat="49.41047" lon="5.77746">
        <ele>314.39999389648</ele>
        <time>2023-06-23T10:39:44Z</time>
      </trkpt>
      <trkpt lat="49.41047" lon="5.77746">
        <ele>314.39999389648</ele>
        <time>2023-06-23T10:39:46Z</time>
      </trkpt>
      <trkpt lat="49.41047" lon="5.77746">
        <ele>314.39999389648</ele>
        <time>2023-06-23T10:39:48Z</time>
      </trkpt>
      <trkpt lat="49.41047" lon="5.77746">
        <ele>314.39999389648</ele>
        <time>2023-06-23T10:39:50Z</time>
      </trkpt>
      <trkpt lat="49.41047" lon="5.77746">
        <ele>314.39999389648</ele>
        <time>2023-06-23T10:39:52Z</time>
      </trkpt>
      <trkpt lat="49.41048" lon="5.77746">
        <ele>314.39999389648</ele>
        <time>2023-06-23T10:39:54Z</time>
      </trkpt>
      <trkpt lat="49.41048" lon="5.77746">
        <ele>314.39999389648</ele>
        <time>2023-06-23T10:39:56Z</time>
      </trkpt>
      <trkpt lat="49.4105" lon="5.77747">
        <ele>314.39999389648</ele>
        <time>2023-06-23T10:39:58Z</time>
      </trkpt>
      <trkpt lat="49.41051" lon="5.77747">
        <ele>314.39999389648</ele>
        <time>2023-06-23T10:39:59Z</time>
      </trkpt>
      <trkpt lat="49.41052" lon="5.77748">
        <ele>314.39999389648</ele>
        <time>2023-06-23T10:40:00Z</time>
      </trkpt>
      <trkpt lat="49.41053" lon="5.77748">
        <ele>314.39999389648</ele>
        <time>2023-06-23T10:40:01Z</time>
      </trkpt>
      <trkpt lat="49.41054" lon="5.77748">
        <ele>314.39999389648</ele>
        <time>2023-06-23T10:40:02Z</time>
      </trkpt>
      <trkpt lat="49.41055" lon="5.77746">
        <ele>314.60000610352</ele>
        <time>2023-06-23T10:40:04Z</time>
      </trkpt>
      <trkpt lat="49.41057" lon="5.77742">
        <ele>314.60000610352</ele>
        <time>2023-06-23T10:40:06Z</time>
      </trkpt>
      <trkpt lat="49.41058" lon="5.77736">
        <ele>314.79998779297</ele>
        <time>2023-06-23T10:40:08Z</time>
      </trkpt>
      <trkpt lat="49.41058" lon="5.77729">
        <ele>314.79998779297</ele>
        <time>2023-06-23T10:40:10Z</time>
      </trkpt>
      <trkpt lat="49.41057" lon="5.77725">
        <ele>314.79998779297</ele>
        <time>2023-06-23T10:40:11Z</time>
      </trkpt>
      <trkpt lat="49.41057" lon="5.77722">
        <ele>314.79998779297</ele>
        <time>2023-06-23T10:40:12Z</time>
      </trkpt>
      <trkpt lat="49.41055" lon="5.77716">
        <ele>315</ele>
        <time>2023-06-23T10:40:14Z</time>
      </trkpt>
      <trkpt lat="49.41054" lon="5.7771">
        <ele>315</ele>
        <time>2023-06-23T10:40:16Z</time>
      </trkpt>
      <trkpt lat="49.41052" lon="5.77704">
        <ele>315</ele>
        <time>2023-06-23T10:40:18Z</time>
      </trkpt>
      <trkpt lat="49.41052" lon="5.77701">
        <ele>315.20001220703</ele>
        <time>2023-06-23T10:40:19Z</time>
      </trkpt>
      <trkpt lat="49.41052" lon="5.77698">
        <ele>315.39999389648</ele>
        <time>2023-06-23T10:40:20Z</time>
      </trkpt>
      <trkpt lat="49.41052" lon="5.77694">
        <ele>315.79998779297</ele>
        <time>2023-06-23T10:40:22Z</time>
      </trkpt>
      <trkpt lat="49.41052" lon="5.77693">
        <ele>316.20001220703</ele>
        <time>2023-06-23T10:40:24Z</time>
      </trkpt>
      <trkpt lat="49.41052" lon="5.77693">
        <ele>316.39999389648</ele>
        <time>2023-06-23T10:40:26Z</time>
      </trkpt>
      <trkpt lat="49.41052" lon="5.77693">
        <ele>316.60000610352</ele>
        <time>2023-06-23T10:40:28Z</time>
      </trkpt>
      <trkpt lat="49.41052" lon="5.77693">
        <ele>316.60000610352</ele>
        <time>2023-06-23T10:40:30Z</time>
      </trkpt>
      <trkpt lat="49.41052" lon="5.77693">
        <ele>316.79998779297</ele>
        <time>2023-06-23T10:40:32Z</time>
      </trkpt>
      <trkpt lat="49.41052" lon="5.77693">
        <ele>317</ele>
        <time>2023-06-23T10:40:34Z</time>
      </trkpt>
      <trkpt lat="49.41052" lon="5.77693">
        <ele>317.20001220703</ele>
        <time>2023-06-23T10:40:36Z</time>
      </trkpt>
      <trkpt lat="49.41052" lon="5.77693">
        <ele>317.20001220703</ele>
        <time>2023-06-23T10:40:37Z</time>
      </trkpt>
      <trkpt lat="49.41052" lon="5.77693">
        <ele>317.39999389648</ele>
        <time>2023-06-23T10:40:38Z</time>
      </trkpt>
      <trkpt lat="49.41052" lon="5.77693">
        <ele>317.39999389648</ele>
        <time>2023-06-23T10:40:39Z</time>
      </trkpt>
      <trkpt lat="49.41052" lon="5.77693">
        <ele>317.39999389648</ele>
        <time>2023-06-23T10:40:40Z</time>
      </trkpt>
      <trkpt lat="49.41052" lon="5.77693">
        <ele>317.60000610352</ele>
        <time>2023-06-23T10:40:42Z</time>
      </trkpt>
      <trkpt lat="49.41052" lon="5.77693">
        <ele>317.60000610352</ele>
        <time>2023-06-23T10:40:44Z</time>
      </trkpt>
      <trkpt lat="49.41052" lon="5.77693">
        <ele>317.60000610352</ele>
        <time>2023-06-23T10:40:46Z</time>
      </trkpt>
      <trkpt lat="49.41052" lon="5.77693">
        <ele>317.60000610352</ele>
        <time>2023-06-23T10:40:47Z</time>
      </trkpt>
      <trkpt lat="49.41052" lon="5.77693">
        <ele>317.60000610352</ele>
        <time>2023-06-23T10:40:48Z</time>
      </trkpt>
      <trkpt lat="49.41052" lon="5.77693">
        <ele>317.60000610352</ele>
        <time>2023-06-23T10:40:50Z</time>
      </trkpt>
      <trkpt lat="49.41052" lon="5.77693">
        <ele>317.60000610352</ele>
        <time>2023-06-23T10:40:52Z</time>
      </trkpt>
      <trkpt lat="49.41052" lon="5.77693">
        <ele>317.39999389648</ele>
        <time>2023-06-23T10:40:54Z</time>
      </trkpt>
      <trkpt lat="49.41052" lon="5.77693">
        <ele>317.39999389648</ele>
        <time>2023-06-23T10:40:56Z</time>
      </trkpt>
      <trkpt lat="49.41052" lon="5.77693">
        <ele>317.39999389648</ele>
        <time>2023-06-23T10:40:58Z</time>
      </trkpt>
      <trkpt lat="49.41052" lon="5.77693">
        <ele>317.39999389648</ele>
        <time>2023-06-23T10:41:00Z</time>
      </trkpt>
      <trkpt lat="49.41052" lon="5.77693">
        <ele>317.39999389648</ele>
        <time>2023-06-23T10:41:02Z</time>
      </trkpt>
      <trkpt lat="49.41052" lon="5.77693">
        <ele>317.20001220703</ele>
        <time>2023-06-23T10:41:04Z</time>
      </trkpt>
      <trkpt lat="49.41052" lon="5.77693">
        <ele>317.20001220703</ele>
        <time>2023-06-23T10:41:06Z</time>
      </trkpt>
      <trkpt lat="49.41052" lon="5.77693">
        <ele>317.20001220703</ele>
        <time>2023-06-23T10:41:08Z</time>
      </trkpt>
      <trkpt lat="49.41052" lon="5.77693">
        <ele>317.20001220703</ele>
        <time>2023-06-23T10:41:10Z</time>
      </trkpt>
      <trkpt lat="49.41052" lon="5.77693">
        <ele>317.20001220703</ele>
        <time>2023-06-23T10:41:12Z</time>
      </trkpt>
      <trkpt lat="49.41052" lon="5.77693">
        <ele>317.20001220703</ele>
        <time>2023-06-23T10:41:14Z</time>
      </trkpt>
      <trkpt lat="49.41052" lon="5.77693">
        <ele>317.20001220703</ele>
        <time>2023-06-23T10:41:16Z</time>
      </trkpt>
      <trkpt lat="49.41052" lon="5.77693">
        <ele>317.20001220703</ele>
        <time>2023-06-23T10:41:18Z</time>
      </trkpt>
      <trkpt lat="49.41052" lon="5.77693">
        <ele>317.20001220703</ele>
        <time>2023-06-23T10:41:20Z</time>
      </trkpt>
      <trkpt lat="49.41052" lon="5.77693">
        <ele>317.20001220703</ele>
        <time>2023-06-23T10:41:22Z</time>
      </trkpt>
      <trkpt lat="49.41052" lon="5.77693">
        <ele>317.39999389648</ele>
        <time>2023-06-23T10:41:24Z</time>
      </trkpt>
      <trkpt lat="49.41052" lon="5.77693">
        <ele>317.39999389648</ele>
        <time>2023-06-23T10:41:26Z</time>
      </trkpt>
      <trkpt lat="49.41052" lon="5.77693">
        <ele>317.20001220703</ele>
        <time>2023-06-23T10:41:28Z</time>
      </trkpt>
      <trkpt lat="49.41052" lon="5.77693">
        <ele>317.20001220703</ele>
        <time>2023-06-23T10:41:29Z</time>
      </trkpt>
      <trkpt lat="49.41052" lon="5.77693">
        <ele>317.20001220703</ele>
        <time>2023-06-23T10:41:30Z</time>
      </trkpt>
      <trkpt lat="49.41052" lon="5.77693">
        <ele>317.20001220703</ele>
        <time>2023-06-23T10:41:32Z</time>
      </trkpt>
      <trkpt lat="49.41052" lon="5.77693">
        <ele>317.20001220703</ele>
        <time>2023-06-23T10:41:33Z</time>
      </trkpt>
      <trkpt lat="49.41052" lon="5.77693">
        <ele>317.20001220703</ele>
        <time>2023-06-23T10:41:34Z</time>
      </trkpt>
      <trkpt lat="49.41052" lon="5.77693">
        <ele>317.20001220703</ele>
        <time>2023-06-23T10:41:36Z</time>
      </trkpt>
      <trkpt lat="49.41052" lon="5.77693">
        <ele>317.39999389648</ele>
        <time>2023-06-23T10:41:38Z</time>
      </trkpt>
      <trkpt lat="49.41052" lon="5.77693">
        <ele>317.20001220703</ele>
        <time>2023-06-23T10:41:40Z</time>
      </trkpt>
      <trkpt lat="49.41052" lon="5.77693">
        <ele>317.20001220703</ele>
        <time>2023-06-23T10:41:43Z</time>
      </trkpt>
      <trkpt lat="49.41052" lon="5.77693">
        <ele>317.20001220703</ele>
        <time>2023-06-23T10:41:45Z</time>
      </trkpt>
      <trkpt lat="49.41052" lon="5.77693">
        <ele>317</ele>
        <time>2023-06-23T10:41:47Z</time>
      </trkpt>
      <trkpt lat="49.41052" lon="5.77693">
        <ele>317</ele>
        <time>2023-06-23T10:41:49Z</time>
      </trkpt>
      <trkpt lat="49.41052" lon="5.77693">
        <ele>317</ele>
        <time>2023-06-23T10:41:50Z</time>
      </trkpt>
      <trkpt lat="49.41052" lon="5.77693">
        <ele>317</ele>
        <time>2023-06-23T10:41:51Z</time>
      </trkpt>
      <trkpt lat="49.41052" lon="5.77693">
        <ele>317</ele>
        <time>2023-06-23T10:41:53Z</time>
      </trkpt>
      <trkpt lat="49.41052" lon="5.77693">
        <ele>317.20001220703</ele>
        <time>2023-06-23T10:41:55Z</time>
      </trkpt>
      <trkpt lat="49.41052" lon="5.77693">
        <ele>317.20001220703</ele>
        <time>2023-06-23T10:41:57Z</time>
      </trkpt>
      <trkpt lat="49.41052" lon="5.77693">
        <ele>317.20001220703</ele>
        <time>2023-06-23T10:41:59Z</time>
      </trkpt>
      <trkpt lat="49.41052" lon="5.77692">
        <ele>317.20001220703</ele>
        <time>2023-06-23T10:42:01Z</time>
      </trkpt>
      <trkpt lat="49.41052" lon="5.77692">
        <ele>317.20001220703</ele>
        <time>2023-06-23T10:42:03Z</time>
      </trkpt>
      <trkpt lat="49.41052" lon="5.77692">
        <ele>317.20001220703</ele>
        <time>2023-06-23T10:42:05Z</time>
      </trkpt>
      <trkpt lat="49.41052" lon="5.77692">
        <ele>317.20001220703</ele>
        <time>2023-06-23T10:42:06Z</time>
      </trkpt>
      <trkpt lat="49.41052" lon="5.77692">
        <ele>317.20001220703</ele>
        <time>2023-06-23T10:42:07Z</time>
      </trkpt>
      <trkpt lat="49.41052" lon="5.77692">
        <ele>317.20001220703</ele>
        <time>2023-06-23T10:42:09Z</time>
      </trkpt>
      <trkpt lat="49.41052" lon="5.77692">
        <ele>317.20001220703</ele>
        <time>2023-06-23T10:42:11Z</time>
      </trkpt>
      <trkpt lat="49.41052" lon="5.77692">
        <ele>317.20001220703</ele>
        <time>2023-06-23T10:42:13Z</time>
      </trkpt>
      <trkpt lat="49.41052" lon="5.77692">
        <ele>317.20001220703</ele>
        <time>2023-06-23T10:42:15Z</time>
      </trkpt>
      <trkpt lat="49.41052" lon="5.77692">
        <ele>317.39999389648</ele>
        <time>2023-06-23T10:42:17Z</time>
      </trkpt>
      <trkpt lat="49.41052" lon="5.77692">
        <ele>317.39999389648</ele>
        <time>2023-06-23T10:42:19Z</time>
      </trkpt>
      <trkpt lat="49.41052" lon="5.77692">
        <ele>317.39999389648</ele>
        <time>2023-06-23T10:42:21Z</time>
      </trkpt>
      <trkpt lat="49.41052" lon="5.77692">
        <ele>317.39999389648</ele>
        <time>2023-06-23T10:42:23Z</time>
      </trkpt>
      <trkpt lat="49.41052" lon="5.77692">
        <ele>317.39999389648</ele>
        <time>2023-06-23T10:42:25Z</time>
      </trkpt>
      <trkpt lat="49.41052" lon="5.77692">
        <ele>317.39999389648</ele>
        <time>2023-06-23T10:42:27Z</time>
      </trkpt>
      <trkpt lat="49.41052" lon="5.77692">
        <ele>317.39999389648</ele>
        <time>2023-06-23T10:42:29Z</time>
      </trkpt>
      <trkpt lat="49.41052" lon="5.77692">
        <ele>317.39999389648</ele>
        <time>2023-06-23T10:42:30Z</time>
      </trkpt>
      <trkpt lat="49.41052" lon="5.77692">
        <ele>317.39999389648</ele>
        <time>2023-06-23T10:42:31Z</time>
      </trkpt>
      <trkpt lat="49.41051" lon="5.77692">
        <ele>317.39999389648</ele>
        <time>2023-06-23T10:42:33Z</time>
      </trkpt>
      <trkpt lat="49.41051" lon="5.77689">
        <ele>317.39999389648</ele>
        <time>2023-06-23T10:42:35Z</time>
      </trkpt>
      <trkpt lat="49.4105" lon="5.77685">
        <ele>317.39999389648</ele>
        <time>2023-06-23T10:42:36Z</time>
      </trkpt>
      <trkpt lat="49.41049" lon="5.77682">
        <ele>317.39999389648</ele>
        <time>2023-06-23T10:42:37Z</time>
      </trkpt>
      <trkpt lat="49.41048" lon="5.77674">
        <ele>317.39999389648</ele>
        <time>2023-06-23T10:42:39Z</time>
      </trkpt>
      <trkpt lat="49.41047" lon="5.77666">
        <ele>317.60000610352</ele>
        <time>2023-06-23T10:42:41Z</time>
      </trkpt>
      <trkpt lat="49.41046" lon="5.77659">
        <ele>317.60000610352</ele>
        <time>2023-06-23T10:42:43Z</time>
      </trkpt>
      <trkpt lat="49.41045" lon="5.77655">
        <ele>317.60000610352</ele>
        <time>2023-06-23T10:42:44Z</time>
      </trkpt>
      <trkpt lat="49.41045" lon="5.77651">
        <ele>317.60000610352</ele>
        <time>2023-06-23T10:42:45Z</time>
      </trkpt>
      <trkpt lat="49.41044" lon="5.77642">
        <ele>317.60000610352</ele>
        <time>2023-06-23T10:42:47Z</time>
      </trkpt>
      <trkpt lat="49.41043" lon="5.77634">
        <ele>318</ele>
        <time>2023-06-23T10:42:49Z</time>
      </trkpt>
      <trkpt lat="49.41042" lon="5.77626">
        <ele>318.39999389648</ele>
        <time>2023-06-23T10:42:51Z</time>
      </trkpt>
      <trkpt lat="49.41041" lon="5.77622">
        <ele>318.60000610352</ele>
        <time>2023-06-23T10:42:52Z</time>
      </trkpt>
      <trkpt lat="49.41041" lon="5.77618">
        <ele>318.60000610352</ele>
        <time>2023-06-23T10:42:53Z</time>
      </trkpt>
      <trkpt lat="49.4104" lon="5.7761">
        <ele>319.20001220703</ele>
        <time>2023-06-23T10:42:55Z</time>
      </trkpt>
      <trkpt lat="49.41039" lon="5.77603">
        <ele>319.60000610352</ele>
        <time>2023-06-23T10:42:57Z</time>
      </trkpt>
      <trkpt lat="49.41038" lon="5.77595">
        <ele>320</ele>
        <time>2023-06-23T10:42:59Z</time>
      </trkpt>
      <trkpt lat="49.41037" lon="5.77588">
        <ele>320.39999389648</ele>
        <time>2023-06-23T10:43:01Z</time>
      </trkpt>
      <trkpt lat="49.41036" lon="5.7758">
        <ele>320.60000610352</ele>
        <time>2023-06-23T10:43:03Z</time>
      </trkpt>
      <trkpt lat="49.41036" lon="5.77576">
        <ele>320.79998779297</ele>
        <time>2023-06-23T10:43:04Z</time>
      </trkpt>
      <trkpt lat="49.41036" lon="5.77571">
        <ele>321</ele>
        <time>2023-06-23T10:43:05Z</time>
      </trkpt>
      <trkpt lat="49.41035" lon="5.77563">
        <ele>321.20001220703</ele>
        <time>2023-06-23T10:43:07Z</time>
      </trkpt>
      <trkpt lat="49.41034" lon="5.77555">
        <ele>321.20001220703</ele>
        <time>2023-06-23T10:43:09Z</time>
      </trkpt>
      <trkpt lat="49.41033" lon="5.77547">
        <ele>321.60000610352</ele>
        <time>2023-06-23T10:43:11Z</time>
      </trkpt>
      <trkpt lat="49.41032" lon="5.77539">
        <ele>321.79998779297</ele>
        <time>2023-06-23T10:43:13Z</time>
      </trkpt>
      <trkpt lat="49.41032" lon="5.77532">
        <ele>322</ele>
        <time>2023-06-23T10:43:15Z</time>
      </trkpt>
      <trkpt lat="49.4103" lon="5.77523">
        <ele>322.39999389648</ele>
        <time>2023-06-23T10:43:17Z</time>
      </trkpt>
      <trkpt lat="49.41029" lon="5.77515">
        <ele>322.39999389648</ele>
        <time>2023-06-23T10:43:19Z</time>
      </trkpt>
      <trkpt lat="49.41028" lon="5.77506">
        <ele>322.60000610352</ele>
        <time>2023-06-23T10:43:21Z</time>
      </trkpt>
      <trkpt lat="49.41027" lon="5.77497">
        <ele>322.79998779297</ele>
        <time>2023-06-23T10:43:23Z</time>
      </trkpt>
      <trkpt lat="49.41027" lon="5.77488">
        <ele>323</ele>
        <time>2023-06-23T10:43:25Z</time>
      </trkpt>
      <trkpt lat="49.41025" lon="5.77481">
        <ele>323</ele>
        <time>2023-06-23T10:43:27Z</time>
      </trkpt>
      <trkpt lat="49.41025" lon="5.77478">
        <ele>323</ele>
        <time>2023-06-23T10:43:28Z</time>
      </trkpt>
      <trkpt lat="49.41025" lon="5.77474">
        <ele>323</ele>
        <time>2023-06-23T10:43:29Z</time>
      </trkpt>
      <trkpt lat="49.41028" lon="5.77468">
        <ele>323</ele>
        <time>2023-06-23T10:43:31Z</time>
      </trkpt>
      <trkpt lat="49.4103" lon="5.77466">
        <ele>323.20001220703</ele>
        <time>2023-06-23T10:43:33Z</time>
      </trkpt>
      <trkpt lat="49.4103" lon="5.77464">
        <ele>323.20001220703</ele>
        <time>2023-06-23T10:43:34Z</time>
      </trkpt>
      <trkpt lat="49.4103" lon="5.77464">
        <ele>323.20001220703</ele>
        <time>2023-06-23T10:43:35Z</time>
      </trkpt>
      <trkpt lat="49.4103" lon="5.77464">
        <ele>323.39999389648</ele>
        <time>2023-06-23T10:43:37Z</time>
      </trkpt>
      <trkpt lat="49.41031" lon="5.77464">
        <ele>323.39999389648</ele>
        <time>2023-06-23T10:43:39Z</time>
      </trkpt>
      <trkpt lat="49.41031" lon="5.77464">
        <ele>323.39999389648</ele>
        <time>2023-06-23T10:43:41Z</time>
      </trkpt>
      <trkpt lat="49.41031" lon="5.77464">
        <ele>323.39999389648</ele>
        <time>2023-06-23T10:43:43Z</time>
      </trkpt>
      <trkpt lat="49.41031" lon="5.77464">
        <ele>323.39999389648</ele>
        <time>2023-06-23T10:43:44Z</time>
      </trkpt>
      <trkpt lat="49.41031" lon="5.77464">
        <ele>323.60000610352</ele>
        <time>2023-06-23T10:43:45Z</time>
      </trkpt>
      <trkpt lat="49.41031" lon="5.77464">
        <ele>323.60000610352</ele>
        <time>2023-06-23T10:43:47Z</time>
      </trkpt>
      <trkpt lat="49.41031" lon="5.77464">
        <ele>323.60000610352</ele>
        <time>2023-06-23T10:43:49Z</time>
      </trkpt>
      <trkpt lat="49.41031" lon="5.77464">
        <ele>323.60000610352</ele>
        <time>2023-06-23T10:43:51Z</time>
      </trkpt>
      <trkpt lat="49.41031" lon="5.77464">
        <ele>323.60000610352</ele>
        <time>2023-06-23T10:43:53Z</time>
      </trkpt>
      <trkpt lat="49.41031" lon="5.77464">
        <ele>323.60000610352</ele>
        <time>2023-06-23T10:43:55Z</time>
      </trkpt>
      <trkpt lat="49.41031" lon="5.77464">
        <ele>323.60000610352</ele>
        <time>2023-06-23T10:43:57Z</time>
      </trkpt>
      <trkpt lat="49.41031" lon="5.77464">
        <ele>323.39999389648</ele>
        <time>2023-06-23T10:43:59Z</time>
      </trkpt>
      <trkpt lat="49.41031" lon="5.77464">
        <ele>323.39999389648</ele>
        <time>2023-06-23T10:44:01Z</time>
      </trkpt>
      <trkpt lat="49.41031" lon="5.77464">
        <ele>323.39999389648</ele>
        <time>2023-06-23T10:44:03Z</time>
      </trkpt>
      <trkpt lat="49.41031" lon="5.77464">
        <ele>323.39999389648</ele>
        <time>2023-06-23T10:44:05Z</time>
      </trkpt>
      <trkpt lat="49.41031" lon="5.77464">
        <ele>323.39999389648</ele>
        <time>2023-06-23T10:44:07Z</time>
      </trkpt>
      <trkpt lat="49.41031" lon="5.77464">
        <ele>323.39999389648</ele>
        <time>2023-06-23T10:44:09Z</time>
      </trkpt>
      <trkpt lat="49.41031" lon="5.77464">
        <ele>323.20001220703</ele>
        <time>2023-06-23T10:44:11Z</time>
      </trkpt>
      <trkpt lat="49.41031" lon="5.77464">
        <ele>323.20001220703</ele>
        <time>2023-06-23T10:44:12Z</time>
      </trkpt>
      <trkpt lat="49.41031" lon="5.77464">
        <ele>323.20001220703</ele>
        <time>2023-06-23T10:44:13Z</time>
      </trkpt>
      <trkpt lat="49.4103" lon="5.77464">
        <ele>323.20001220703</ele>
        <time>2023-06-23T10:44:15Z</time>
      </trkpt>
      <trkpt lat="49.4103" lon="5.77464">
        <ele>323.20001220703</ele>
        <time>2023-06-23T10:44:17Z</time>
      </trkpt>
      <trkpt lat="49.4103" lon="5.77464">
        <ele>323.20001220703</ele>
        <time>2023-06-23T10:44:19Z</time>
      </trkpt>
      <trkpt lat="49.4103" lon="5.77464">
        <ele>323.20001220703</ele>
        <time>2023-06-23T10:44:21Z</time>
      </trkpt>
      <trkpt lat="49.4103" lon="5.77464">
        <ele>323.20001220703</ele>
        <time>2023-06-23T10:44:23Z</time>
      </trkpt>
      <trkpt lat="49.4103" lon="5.77464">
        <ele>323.20001220703</ele>
        <time>2023-06-23T10:44:25Z</time>
      </trkpt>
      <trkpt lat="49.4103" lon="5.77464">
        <ele>323</ele>
        <time>2023-06-23T10:44:27Z</time>
      </trkpt>
      <trkpt lat="49.4103" lon="5.77464">
        <ele>323</ele>
        <time>2023-06-23T10:44:29Z</time>
      </trkpt>
      <trkpt lat="49.4103" lon="5.77464">
        <ele>323</ele>
        <time>2023-06-23T10:44:31Z</time>
      </trkpt>
      <trkpt lat="49.4103" lon="5.77464">
        <ele>323</ele>
        <time>2023-06-23T10:44:32Z</time>
      </trkpt>
      <trkpt lat="49.4103" lon="5.77464">
        <ele>323</ele>
        <time>2023-06-23T10:44:33Z</time>
      </trkpt>
      <trkpt lat="49.4103" lon="5.77464">
        <ele>323</ele>
        <time>2023-06-23T10:44:35Z</time>
      </trkpt>
      <trkpt lat="49.4103" lon="5.77464">
        <ele>323</ele>
        <time>2023-06-23T10:44:37Z</time>
      </trkpt>
      <trkpt lat="49.4103" lon="5.77464">
        <ele>323</ele>
        <time>2023-06-23T10:44:39Z</time>
      </trkpt>
      <trkpt lat="49.41032" lon="5.77464">
        <ele>323</ele>
        <time>2023-06-23T10:44:40Z</time>
      </trkpt>
      <trkpt lat="49.41033" lon="5.77464">
        <ele>323</ele>
        <time>2023-06-23T10:44:41Z</time>
      </trkpt>
      <trkpt lat="49.41039" lon="5.77462">
        <ele>323</ele>
        <time>2023-06-23T10:44:43Z</time>
      </trkpt>
      <trkpt lat="49.41045" lon="5.7746">
        <ele>323</ele>
        <time>2023-06-23T10:44:45Z</time>
      </trkpt>
      <trkpt lat="49.41048" lon="5.77458">
        <ele>323</ele>
        <time>2023-06-23T10:44:46Z</time>
      </trkpt>
      <trkpt lat="49.41052" lon="5.77457">
        <ele>323</ele>
        <time>2023-06-23T10:44:47Z</time>
      </trkpt>
      <trkpt lat="49.41059" lon="5.77453">
        <ele>323</ele>
        <time>2023-06-23T10:44:49Z</time>
      </trkpt>
      <trkpt lat="49.41067" lon="5.77451">
        <ele>322.79998779297</ele>
        <time>2023-06-23T10:44:51Z</time>
      </trkpt>
      <trkpt lat="49.41075" lon="5.77447">
        <ele>322.60000610352</ele>
        <time>2023-06-23T10:44:53Z</time>
      </trkpt>
      <trkpt lat="49.41078" lon="5.77445">
        <ele>322.60000610352</ele>
        <time>2023-06-23T10:44:54Z</time>
      </trkpt>
      <trkpt lat="49.41082" lon="5.77443">
        <ele>322.60000610352</ele>
        <time>2023-06-23T10:44:55Z</time>
      </trkpt>
      <trkpt lat="49.4109" lon="5.77439">
        <ele>322.60000610352</ele>
        <time>2023-06-23T10:44:57Z</time>
      </trkpt>
      <trkpt lat="49.41098" lon="5.77434">
        <ele>322.60000610352</ele>
        <time>2023-06-23T10:44:59Z</time>
      </trkpt>
      <trkpt lat="49.41106" lon="5.7743">
        <ele>322.60000610352</ele>
        <time>2023-06-23T10:45:01Z</time>
      </trkpt>
      <trkpt lat="49.41111" lon="5.77428">
        <ele>322.60000610352</ele>
        <time>2023-06-23T10:45:02Z</time>
      </trkpt>
      <trkpt lat="49.41115" lon="5.77426">
        <ele>322.60000610352</ele>
        <time>2023-06-23T10:45:03Z</time>
      </trkpt>
      <trkpt lat="49.41119" lon="5.77426">
        <ele>322.60000610352</ele>
        <time>2023-06-23T10:45:04Z</time>
      </trkpt>
      <trkpt lat="49.41123" lon="5.77426">
        <ele>322.60000610352</ele>
        <time>2023-06-23T10:45:05Z</time>
      </trkpt>
      <trkpt lat="49.4113" lon="5.77429">
        <ele>322.39999389648</ele>
        <time>2023-06-23T10:45:07Z</time>
      </trkpt>
      <trkpt lat="49.41138" lon="5.7743">
        <ele>322.39999389648</ele>
        <time>2023-06-23T10:45:09Z</time>
      </trkpt>
      <trkpt lat="49.41145" lon="5.7743">
        <ele>322.60000610352</ele>
        <time>2023-06-23T10:45:11Z</time>
      </trkpt>
      <trkpt lat="49.41149" lon="5.77429">
        <ele>322.60000610352</ele>
        <time>2023-06-23T10:45:12Z</time>
      </trkpt>
      <trkpt lat="49.41152" lon="5.77427">
        <ele>322.60000610352</ele>
        <time>2023-06-23T10:45:13Z</time>
      </trkpt>
      <trkpt lat="49.41158" lon="5.77424">
        <ele>322.60000610352</ele>
        <time>2023-06-23T10:45:15Z</time>
      </trkpt>
      <trkpt lat="49.41164" lon="5.7742">
        <ele>322.60000610352</ele>
        <time>2023-06-23T10:45:17Z</time>
      </trkpt>
      <trkpt lat="49.4117" lon="5.77417">
        <ele>323</ele>
        <time>2023-06-23T10:45:19Z</time>
      </trkpt>
      <trkpt lat="49.41176" lon="5.77413">
        <ele>323.20001220703</ele>
        <time>2023-06-23T10:45:21Z</time>
      </trkpt>
      <trkpt lat="49.41179" lon="5.77412">
        <ele>323.39999389648</ele>
        <time>2023-06-23T10:45:22Z</time>
      </trkpt>
      <trkpt lat="49.41183" lon="5.7741">
        <ele>323.39999389648</ele>
        <time>2023-06-23T10:45:23Z</time>
      </trkpt>
      <trkpt lat="49.41189" lon="5.77406">
        <ele>323.60000610352</ele>
        <time>2023-06-23T10:45:25Z</time>
      </trkpt>
      <trkpt lat="49.41195" lon="5.77402">
        <ele>323.60000610352</ele>
        <time>2023-06-23T10:45:27Z</time>
      </trkpt>
      <trkpt lat="49.41201" lon="5.77399">
        <ele>323.60000610352</ele>
        <time>2023-06-23T10:45:29Z</time>
      </trkpt>
      <trkpt lat="49.41207" lon="5.77395">
        <ele>323.79998779297</ele>
        <time>2023-06-23T10:45:31Z</time>
      </trkpt>
      <trkpt lat="49.41214" lon="5.77391">
        <ele>323.79998779297</ele>
        <time>2023-06-23T10:45:33Z</time>
      </trkpt>
      <trkpt lat="49.4122" lon="5.77388">
        <ele>323.79998779297</ele>
        <time>2023-06-23T10:45:35Z</time>
      </trkpt>
      <trkpt lat="49.41226" lon="5.77385">
        <ele>324</ele>
        <time>2023-06-23T10:45:37Z</time>
      </trkpt>
      <trkpt lat="49.41231" lon="5.7738">
        <ele>324.20001220703</ele>
        <time>2023-06-23T10:45:39Z</time>
      </trkpt>
      <trkpt lat="49.41234" lon="5.77378">
        <ele>324.39999389648</ele>
        <time>2023-06-23T10:45:40Z</time>
      </trkpt>
      <trkpt lat="49.41237" lon="5.77376">
        <ele>324.39999389648</ele>
        <time>2023-06-23T10:45:41Z</time>
      </trkpt>
      <trkpt lat="49.41244" lon="5.77372">
        <ele>324.39999389648</ele>
        <time>2023-06-23T10:45:43Z</time>
      </trkpt>
      <trkpt lat="49.4125" lon="5.77369">
        <ele>324.60000610352</ele>
        <time>2023-06-23T10:45:45Z</time>
      </trkpt>
      <trkpt lat="49.41256" lon="5.77365">
        <ele>325</ele>
        <time>2023-06-23T10:45:47Z</time>
      </trkpt>
      <trkpt lat="49.41262" lon="5.77362">
        <ele>325</ele>
        <time>2023-06-23T10:45:49Z</time>
      </trkpt>
      <trkpt lat="49.41268" lon="5.77359">
        <ele>325.20001220703</ele>
        <time>2023-06-23T10:45:51Z</time>
      </trkpt>
      <trkpt lat="49.41274" lon="5.77356">
        <ele>325.39999389648</ele>
        <time>2023-06-23T10:45:53Z</time>
      </trkpt>
      <trkpt lat="49.41281" lon="5.77352">
        <ele>325.39999389648</ele>
        <time>2023-06-23T10:45:55Z</time>
      </trkpt>
      <trkpt lat="49.41287" lon="5.77349">
        <ele>325.79998779297</ele>
        <time>2023-06-23T10:45:57Z</time>
      </trkpt>
      <trkpt lat="49.41293" lon="5.77346">
        <ele>326</ele>
        <time>2023-06-23T10:45:59Z</time>
      </trkpt>
      <trkpt lat="49.41299" lon="5.77342">
        <ele>326.20001220703</ele>
        <time>2023-06-23T10:46:01Z</time>
      </trkpt>
      <trkpt lat="49.41305" lon="5.77339">
        <ele>326.20001220703</ele>
        <time>2023-06-23T10:46:03Z</time>
      </trkpt>
      <trkpt lat="49.41311" lon="5.77336">
        <ele>326.39999389648</ele>
        <time>2023-06-23T10:46:05Z</time>
      </trkpt>
      <trkpt lat="49.41315" lon="5.77331">
        <ele>326.39999389648</ele>
        <time>2023-06-23T10:46:07Z</time>
      </trkpt>
      <trkpt lat="49.41316" lon="5.77327">
        <ele>326.39999389648</ele>
        <time>2023-06-23T10:46:08Z</time>
      </trkpt>
      <trkpt lat="49.41316" lon="5.77322">
        <ele>326.60000610352</ele>
        <time>2023-06-23T10:46:09Z</time>
      </trkpt>
      <trkpt lat="49.41311" lon="5.77315">
        <ele>326.60000610352</ele>
        <time>2023-06-23T10:46:11Z</time>
      </trkpt>
      <trkpt lat="49.41306" lon="5.77307">
        <ele>326.60000610352</ele>
        <time>2023-06-23T10:46:13Z</time>
      </trkpt>
      <trkpt lat="49.41301" lon="5.77299">
        <ele>326.60000610352</ele>
        <time>2023-06-23T10:46:15Z</time>
      </trkpt>
      <trkpt lat="49.41296" lon="5.77291">
        <ele>326.60000610352</ele>
        <time>2023-06-23T10:46:17Z</time>
      </trkpt>
      <trkpt lat="49.41292" lon="5.77282">
        <ele>326.60000610352</ele>
        <time>2023-06-23T10:46:19Z</time>
      </trkpt>
      <trkpt lat="49.41289" lon="5.77277">
        <ele>326.39999389648</ele>
        <time>2023-06-23T10:46:20Z</time>
      </trkpt>
      <trkpt lat="49.41287" lon="5.77272">
        <ele>326.20001220703</ele>
        <time>2023-06-23T10:46:21Z</time>
      </trkpt>
      <trkpt lat="49.41283" lon="5.77261">
        <ele>326</ele>
        <time>2023-06-23T10:46:23Z</time>
      </trkpt>
      <trkpt lat="49.41279" lon="5.7725">
        <ele>325.79998779297</ele>
        <time>2023-06-23T10:46:25Z</time>
      </trkpt>
      <trkpt lat="49.41276" lon="5.77239">
        <ele>325.79998779297</ele>
        <time>2023-06-23T10:46:27Z</time>
      </trkpt>
      <trkpt lat="49.41273" lon="5.77226">
        <ele>325.79998779297</ele>
        <time>2023-06-23T10:46:29Z</time>
      </trkpt>
      <trkpt lat="49.4127" lon="5.77214">
        <ele>325.60000610352</ele>
        <time>2023-06-23T10:46:31Z</time>
      </trkpt>
      <trkpt lat="49.41266" lon="5.77202">
        <ele>325.39999389648</ele>
        <time>2023-06-23T10:46:33Z</time>
      </trkpt>
      <trkpt lat="49.41263" lon="5.7719">
        <ele>325.39999389648</ele>
        <time>2023-06-23T10:46:35Z</time>
      </trkpt>
      <trkpt lat="49.4126" lon="5.77178">
        <ele>325.39999389648</ele>
        <time>2023-06-23T10:46:37Z</time>
      </trkpt>
      <trkpt lat="49.41257" lon="5.77166">
        <ele>325.20001220703</ele>
        <time>2023-06-23T10:46:39Z</time>
      </trkpt>
      <trkpt lat="49.41253" lon="5.77155">
        <ele>325</ele>
        <time>2023-06-23T10:46:41Z</time>
      </trkpt>
      <trkpt lat="49.4125" lon="5.77144">
        <ele>324.79998779297</ele>
        <time>2023-06-23T10:46:43Z</time>
      </trkpt>
      <trkpt lat="49.41247" lon="5.77132">
        <ele>324.79998779297</ele>
        <time>2023-06-23T10:46:45Z</time>
      </trkpt>
      <trkpt lat="49.41244" lon="5.77121">
        <ele>324.79998779297</ele>
        <time>2023-06-23T10:46:47Z</time>
      </trkpt>
      <trkpt lat="49.41242" lon="5.77109">
        <ele>324.60000610352</ele>
        <time>2023-06-23T10:46:49Z</time>
      </trkpt>
      <trkpt lat="49.41239" lon="5.77097">
        <ele>324.60000610352</ele>
        <time>2023-06-23T10:46:51Z</time>
      </trkpt>
      <trkpt lat="49.41236" lon="5.77086">
        <ele>324.39999389648</ele>
        <time>2023-06-23T10:46:53Z</time>
      </trkpt>
      <trkpt lat="49.41234" lon="5.77075">
        <ele>324.39999389648</ele>
        <time>2023-06-23T10:46:55Z</time>
      </trkpt>
      <trkpt lat="49.41231" lon="5.77064">
        <ele>324.20001220703</ele>
        <time>2023-06-23T10:46:57Z</time>
      </trkpt>
      <trkpt lat="49.4123" lon="5.77053">
        <ele>324</ele>
        <time>2023-06-23T10:46:59Z</time>
      </trkpt>
      <trkpt lat="49.41231" lon="5.77049">
        <ele>324</ele>
        <time>2023-06-23T10:47:00Z</time>
      </trkpt>
      <trkpt lat="49.41234" lon="5.77047">
        <ele>324</ele>
        <time>2023-06-23T10:47:01Z</time>
      </trkpt>
      <trkpt lat="49.41241" lon="5.77043">
        <ele>324</ele>
        <time>2023-06-23T10:47:03Z</time>
      </trkpt>
      <trkpt lat="49.41244" lon="5.7704">
        <ele>324</ele>
        <time>2023-06-23T10:47:04Z</time>
      </trkpt>
      <trkpt lat="49.41248" lon="5.77037">
        <ele>323.79998779297</ele>
        <time>2023-06-23T10:47:05Z</time>
      </trkpt>
      <trkpt lat="49.41254" lon="5.77032">
        <ele>323.79998779297</ele>
        <time>2023-06-23T10:47:07Z</time>
      </trkpt>
      <trkpt lat="49.41261" lon="5.77026">
        <ele>323.79998779297</ele>
        <time>2023-06-23T10:47:09Z</time>
      </trkpt>
      <trkpt lat="49.41268" lon="5.7702">
        <ele>323.79998779297</ele>
        <time>2023-06-23T10:47:11Z</time>
      </trkpt>
      <trkpt lat="49.41275" lon="5.77014">
        <ele>323.79998779297</ele>
        <time>2023-06-23T10:47:13Z</time>
      </trkpt>
      <trkpt lat="49.41279" lon="5.77011">
        <ele>323.79998779297</ele>
        <time>2023-06-23T10:47:14Z</time>
      </trkpt>
      <trkpt lat="49.41282" lon="5.77008">
        <ele>323.79998779297</ele>
        <time>2023-06-23T10:47:15Z</time>
      </trkpt>
      <trkpt lat="49.41289" lon="5.77002">
        <ele>323.79998779297</ele>
        <time>2023-06-23T10:47:17Z</time>
      </trkpt>
      <trkpt lat="49.41296" lon="5.76996">
        <ele>324</ele>
        <time>2023-06-23T10:47:19Z</time>
      </trkpt>
      <trkpt lat="49.41303" lon="5.7699">
        <ele>324</ele>
        <time>2023-06-23T10:47:21Z</time>
      </trkpt>
      <trkpt lat="49.4131" lon="5.76984">
        <ele>324</ele>
        <time>2023-06-23T10:47:23Z</time>
      </trkpt>
      <trkpt lat="49.41314" lon="5.76981">
        <ele>324.20001220703</ele>
        <time>2023-06-23T10:47:24Z</time>
      </trkpt>
      <trkpt lat="49.41317" lon="5.76978">
        <ele>324.20001220703</ele>
        <time>2023-06-23T10:47:25Z</time>
      </trkpt>
      <trkpt lat="49.41325" lon="5.76972">
        <ele>324.20001220703</ele>
        <time>2023-06-23T10:47:27Z</time>
      </trkpt>
      <trkpt lat="49.41332" lon="5.76965">
        <ele>324.20001220703</ele>
        <time>2023-06-23T10:47:29Z</time>
      </trkpt>
      <trkpt lat="49.4134" lon="5.76959">
        <ele>324.20001220703</ele>
        <time>2023-06-23T10:47:31Z</time>
      </trkpt>
      <trkpt lat="49.41347" lon="5.76952">
        <ele>324.20001220703</ele>
        <time>2023-06-23T10:47:33Z</time>
      </trkpt>
      <trkpt lat="49.41355" lon="5.76945">
        <ele>324</ele>
        <time>2023-06-23T10:47:35Z</time>
      </trkpt>
      <trkpt lat="49.41359" lon="5.76942">
        <ele>324</ele>
        <time>2023-06-23T10:47:36Z</time>
      </trkpt>
      <trkpt lat="49.41363" lon="5.76939">
        <ele>324</ele>
        <time>2023-06-23T10:47:37Z</time>
      </trkpt>
      <trkpt lat="49.4137" lon="5.76932">
        <ele>324</ele>
        <time>2023-06-23T10:47:39Z</time>
      </trkpt>
      <trkpt lat="49.41378" lon="5.76925">
        <ele>324</ele>
        <time>2023-06-23T10:47:41Z</time>
      </trkpt>
      <trkpt lat="49.41386" lon="5.76918">
        <ele>324</ele>
        <time>2023-06-23T10:47:43Z</time>
      </trkpt>
      <trkpt lat="49.41394" lon="5.76911">
        <ele>324</ele>
        <time>2023-06-23T10:47:45Z</time>
      </trkpt>
      <trkpt lat="49.41402" lon="5.76904">
        <ele>324</ele>
        <time>2023-06-23T10:47:47Z</time>
      </trkpt>
      <trkpt lat="49.4141" lon="5.76897">
        <ele>324</ele>
        <time>2023-06-23T10:47:49Z</time>
      </trkpt>
      <trkpt lat="49.41417" lon="5.76891">
        <ele>324</ele>
        <time>2023-06-23T10:47:51Z</time>
      </trkpt>
      <trkpt lat="49.41425" lon="5.76884">
        <ele>324</ele>
        <time>2023-06-23T10:47:53Z</time>
      </trkpt>
      <trkpt lat="49.41432" lon="5.76878">
        <ele>324.20001220703</ele>
        <time>2023-06-23T10:47:55Z</time>
      </trkpt>
      <trkpt lat="49.41438" lon="5.76872">
        <ele>324.20001220703</ele>
        <time>2023-06-23T10:47:57Z</time>
      </trkpt>
      <trkpt lat="49.41445" lon="5.76867">
        <ele>324.39999389648</ele>
        <time>2023-06-23T10:47:59Z</time>
      </trkpt>
      <trkpt lat="49.4145" lon="5.76862">
        <ele>324.39999389648</ele>
        <time>2023-06-23T10:48:01Z</time>
      </trkpt>
      <trkpt lat="49.41456" lon="5.76857">
        <ele>324.60000610352</ele>
        <time>2023-06-23T10:48:03Z</time>
      </trkpt>
      <trkpt lat="49.41461" lon="5.76852">
        <ele>324.60000610352</ele>
        <time>2023-06-23T10:48:05Z</time>
      </trkpt>
      <trkpt lat="49.41466" lon="5.76847">
        <ele>324.79998779297</ele>
        <time>2023-06-23T10:48:07Z</time>
      </trkpt>
      <trkpt lat="49.41469" lon="5.76844">
        <ele>325.20001220703</ele>
        <time>2023-06-23T10:48:08Z</time>
      </trkpt>
      <trkpt lat="49.41472" lon="5.76842">
        <ele>325.39999389648</ele>
        <time>2023-06-23T10:48:09Z</time>
      </trkpt>
      <trkpt lat="49.41477" lon="5.76837">
        <ele>326</ele>
        <time>2023-06-23T10:48:11Z</time>
      </trkpt>
      <trkpt lat="49.4148" lon="5.76835">
        <ele>326.20001220703</ele>
        <time>2023-06-23T10:48:12Z</time>
      </trkpt>
      <trkpt lat="49.41483" lon="5.76832">
        <ele>326.20001220703</ele>
        <time>2023-06-23T10:48:13Z</time>
      </trkpt>
      <trkpt lat="49.41489" lon="5.76827">
        <ele>326.39999389648</ele>
        <time>2023-06-23T10:48:15Z</time>
      </trkpt>
      <trkpt lat="49.41495" lon="5.76822">
        <ele>326.60000610352</ele>
        <time>2023-06-23T10:48:17Z</time>
      </trkpt>
      <trkpt lat="49.41501" lon="5.76817">
        <ele>326.79998779297</ele>
        <time>2023-06-23T10:48:19Z</time>
      </trkpt>
      <trkpt lat="49.41507" lon="5.76812">
        <ele>327</ele>
        <time>2023-06-23T10:48:21Z</time>
      </trkpt>
      <trkpt lat="49.4151" lon="5.76809">
        <ele>327.20001220703</ele>
        <time>2023-06-23T10:48:22Z</time>
      </trkpt>
      <trkpt lat="49.41513" lon="5.76807">
        <ele>327.39999389648</ele>
        <time>2023-06-23T10:48:23Z</time>
      </trkpt>
      <trkpt lat="49.41515" lon="5.76804">
        <ele>327.39999389648</ele>
        <time>2023-06-23T10:48:24Z</time>
      </trkpt>
      <trkpt lat="49.41518" lon="5.76802">
        <ele>327.39999389648</ele>
        <time>2023-06-23T10:48:25Z</time>
      </trkpt>
      <trkpt lat="49.41524" lon="5.76797">
        <ele>327.60000610352</ele>
        <time>2023-06-23T10:48:27Z</time>
      </trkpt>
      <trkpt lat="49.4153" lon="5.76792">
        <ele>327.79998779297</ele>
        <time>2023-06-23T10:48:29Z</time>
      </trkpt>
      <trkpt lat="49.41535" lon="5.76786">
        <ele>328</ele>
        <time>2023-06-23T10:48:31Z</time>
      </trkpt>
      <trkpt lat="49.41539" lon="5.76781">
        <ele>328</ele>
        <time>2023-06-23T10:48:33Z</time>
      </trkpt>
      <trkpt lat="49.41543" lon="5.76776">
        <ele>328</ele>
        <time>2023-06-23T10:48:35Z</time>
      </trkpt>
      <trkpt lat="49.41547" lon="5.76769">
        <ele>328</ele>
        <time>2023-06-23T10:48:37Z</time>
      </trkpt>
      <trkpt lat="49.41551" lon="5.76763">
        <ele>328</ele>
        <time>2023-06-23T10:48:39Z</time>
      </trkpt>
      <trkpt lat="49.41554" lon="5.76763">
        <ele>328.20001220703</ele>
        <time>2023-06-23T10:48:40Z</time>
      </trkpt>
      <trkpt lat="49.41556" lon="5.76765">
        <ele>328.20001220703</ele>
        <time>2023-06-23T10:48:41Z</time>
      </trkpt>
      <trkpt lat="49.41559" lon="5.76767">
        <ele>328.20001220703</ele>
        <time>2023-06-23T10:48:42Z</time>
      </trkpt>
      <trkpt lat="49.41562" lon="5.76769">
        <ele>328.20001220703</ele>
        <time>2023-06-23T10:48:43Z</time>
      </trkpt>
      <trkpt lat="49.41569" lon="5.76773">
        <ele>328.20001220703</ele>
        <time>2023-06-23T10:48:45Z</time>
      </trkpt>
      <trkpt lat="49.41572" lon="5.76776">
        <ele>328.20001220703</ele>
        <time>2023-06-23T10:48:46Z</time>
      </trkpt>
      <trkpt lat="49.41575" lon="5.76778">
        <ele>328.20001220703</ele>
        <time>2023-06-23T10:48:47Z</time>
      </trkpt>
      <trkpt lat="49.41581" lon="5.76783">
        <ele>328.39999389648</ele>
        <time>2023-06-23T10:48:49Z</time>
      </trkpt>
      <trkpt lat="49.41587" lon="5.76787">
        <ele>328.60000610352</ele>
        <time>2023-06-23T10:48:51Z</time>
      </trkpt>
      <trkpt lat="49.41594" lon="5.76791">
        <ele>328.60000610352</ele>
        <time>2023-06-23T10:48:53Z</time>
      </trkpt>
      <trkpt lat="49.41601" lon="5.76794">
        <ele>328.60000610352</ele>
        <time>2023-06-23T10:48:55Z</time>
      </trkpt>
      <trkpt lat="49.41608" lon="5.76799">
        <ele>328.60000610352</ele>
        <time>2023-06-23T10:48:57Z</time>
      </trkpt>
      <trkpt lat="49.41616" lon="5.76803">
        <ele>328.79998779297</ele>
        <time>2023-06-23T10:48:59Z</time>
      </trkpt>
      <trkpt lat="49.4162" lon="5.76804">
        <ele>328.79998779297</ele>
        <time>2023-06-23T10:49:00Z</time>
      </trkpt>
      <trkpt lat="49.41624" lon="5.76803">
        <ele>328.79998779297</ele>
        <time>2023-06-23T10:49:01Z</time>
      </trkpt>
      <trkpt lat="49.41632" lon="5.768">
        <ele>328.79998779297</ele>
        <time>2023-06-23T10:49:03Z</time>
      </trkpt>
      <trkpt lat="49.41636" lon="5.76798">
        <ele>328.79998779297</ele>
        <time>2023-06-23T10:49:04Z</time>
      </trkpt>
      <trkpt lat="49.4164" lon="5.76796">
        <ele>328.60000610352</ele>
        <time>2023-06-23T10:49:05Z</time>
      </trkpt>
      <trkpt lat="49.41648" lon="5.76792">
        <ele>328.60000610352</ele>
        <time>2023-06-23T10:49:07Z</time>
      </trkpt>
      <trkpt lat="49.41655" lon="5.76788">
        <ele>328.79998779297</ele>
        <time>2023-06-23T10:49:09Z</time>
      </trkpt>
      <trkpt lat="49.41663" lon="5.76783">
        <ele>328.79998779297</ele>
        <time>2023-06-23T10:49:11Z</time>
      </trkpt>
      <trkpt lat="49.4167" lon="5.76779">
        <ele>329</ele>
        <time>2023-06-23T10:49:13Z</time>
      </trkpt>
      <trkpt lat="49.41674" lon="5.76777">
        <ele>329</ele>
        <time>2023-06-23T10:49:14Z</time>
      </trkpt>
      <trkpt lat="49.41677" lon="5.76775">
        <ele>329</ele>
        <time>2023-06-23T10:49:15Z</time>
      </trkpt>
      <trkpt lat="49.41685" lon="5.7677">
        <ele>329</ele>
        <time>2023-06-23T10:49:17Z</time>
      </trkpt>
      <trkpt lat="49.41693" lon="5.76766">
        <ele>329</ele>
        <time>2023-06-23T10:49:19Z</time>
      </trkpt>
      <trkpt lat="49.41702" lon="5.76761">
        <ele>329</ele>
        <time>2023-06-23T10:49:21Z</time>
      </trkpt>
      <trkpt lat="49.41707" lon="5.76758">
        <ele>329</ele>
        <time>2023-06-23T10:49:22Z</time>
      </trkpt>
      <trkpt lat="49.41711" lon="5.76755">
        <ele>329</ele>
        <time>2023-06-23T10:49:23Z</time>
      </trkpt>
      <trkpt lat="49.41721" lon="5.7675">
        <ele>328.79998779297</ele>
        <time>2023-06-23T10:49:25Z</time>
      </trkpt>
      <trkpt lat="49.4173" lon="5.76745">
        <ele>328.39999389648</ele>
        <time>2023-06-23T10:49:27Z</time>
      </trkpt>
      <trkpt lat="49.4174" lon="5.76739">
        <ele>328</ele>
        <time>2023-06-23T10:49:29Z</time>
      </trkpt>
      <trkpt lat="49.41749" lon="5.76734">
        <ele>327.79998779297</ele>
        <time>2023-06-23T10:49:31Z</time>
      </trkpt>
      <trkpt lat="49.41758" lon="5.76729">
        <ele>327.79998779297</ele>
        <time>2023-06-23T10:49:33Z</time>
      </trkpt>
      <trkpt lat="49.41767" lon="5.76724">
        <ele>327.60000610352</ele>
        <time>2023-06-23T10:49:35Z</time>
      </trkpt>
      <trkpt lat="49.41775" lon="5.76719">
        <ele>327.60000610352</ele>
        <time>2023-06-23T10:49:37Z</time>
      </trkpt>
      <trkpt lat="49.41783" lon="5.76715">
        <ele>327.60000610352</ele>
        <time>2023-06-23T10:49:39Z</time>
      </trkpt>
      <trkpt lat="49.41791" lon="5.7671">
        <ele>327.60000610352</ele>
        <time>2023-06-23T10:49:41Z</time>
      </trkpt>
      <trkpt lat="49.41799" lon="5.76706">
        <ele>327.79998779297</ele>
        <time>2023-06-23T10:49:43Z</time>
      </trkpt>
      <trkpt lat="49.41807" lon="5.76702">
        <ele>328</ele>
        <time>2023-06-23T10:49:45Z</time>
      </trkpt>
      <trkpt lat="49.41814" lon="5.76698">
        <ele>328.60000610352</ele>
        <time>2023-06-23T10:49:47Z</time>
      </trkpt>
      <trkpt lat="49.41821" lon="5.76693">
        <ele>329</ele>
        <time>2023-06-23T10:49:49Z</time>
      </trkpt>
      <trkpt lat="49.41827" lon="5.76689">
        <ele>329.39999389648</ele>
        <time>2023-06-23T10:49:51Z</time>
      </trkpt>
      <trkpt lat="49.41829" lon="5.76685">
        <ele>329.39999389648</ele>
        <time>2023-06-23T10:49:52Z</time>
      </trkpt>
      <trkpt lat="49.41831" lon="5.7668">
        <ele>329.60000610352</ele>
        <time>2023-06-23T10:49:53Z</time>
      </trkpt>
      <trkpt lat="49.41831" lon="5.76675">
        <ele>329.60000610352</ele>
        <time>2023-06-23T10:49:54Z</time>
      </trkpt>
      <trkpt lat="49.41831" lon="5.7667">
        <ele>329.79998779297</ele>
        <time>2023-06-23T10:49:55Z</time>
      </trkpt>
      <trkpt lat="49.41828" lon="5.76659">
        <ele>329.79998779297</ele>
        <time>2023-06-23T10:49:57Z</time>
      </trkpt>
      <trkpt lat="49.41827" lon="5.76654">
        <ele>330</ele>
        <time>2023-06-23T10:49:58Z</time>
      </trkpt>
      <trkpt lat="49.41827" lon="5.76649">
        <ele>330</ele>
        <time>2023-06-23T10:49:59Z</time>
      </trkpt>
      <trkpt lat="49.41825" lon="5.76638">
        <ele>330</ele>
        <time>2023-06-23T10:50:01Z</time>
      </trkpt>
      <trkpt lat="49.41823" lon="5.76626">
        <ele>330.20001220703</ele>
        <time>2023-06-23T10:50:03Z</time>
      </trkpt>
      <trkpt lat="49.41822" lon="5.76621">
        <ele>330.20001220703</ele>
        <time>2023-06-23T10:50:04Z</time>
      </trkpt>
      <trkpt lat="49.41821" lon="5.76615">
        <ele>330.20001220703</ele>
        <time>2023-06-23T10:50:05Z</time>
      </trkpt>
      <trkpt lat="49.41818" lon="5.76602">
        <ele>330.20001220703</ele>
        <time>2023-06-23T10:50:07Z</time>
      </trkpt>
      <trkpt lat="49.41815" lon="5.76588">
        <ele>330</ele>
        <time>2023-06-23T10:50:09Z</time>
      </trkpt>
      <trkpt lat="49.41812" lon="5.76574">
        <ele>329.79998779297</ele>
        <time>2023-06-23T10:50:11Z</time>
      </trkpt>
      <trkpt lat="49.4181" lon="5.7656">
        <ele>329.60000610352</ele>
        <time>2023-06-23T10:50:13Z</time>
      </trkpt>
      <trkpt lat="49.41807" lon="5.76547">
        <ele>329.20001220703</ele>
        <time>2023-06-23T10:50:15Z</time>
      </trkpt>
      <trkpt lat="49.41805" lon="5.76534">
        <ele>328.79998779297</ele>
        <time>2023-06-23T10:50:17Z</time>
      </trkpt>
      <trkpt lat="49.41804" lon="5.7653">
        <ele>328.60000610352</ele>
        <time>2023-06-23T10:50:18Z</time>
      </trkpt>
      <trkpt lat="49.41804" lon="5.76528">
        <ele>328.60000610352</ele>
        <time>2023-06-23T10:50:19Z</time>
      </trkpt>
      <trkpt lat="49.41804" lon="5.76527">
        <ele>328.60000610352</ele>
        <time>2023-06-23T10:50:21Z</time>
      </trkpt>
      <trkpt lat="49.41804" lon="5.76527">
        <ele>328.39999389648</ele>
        <time>2023-06-23T10:50:22Z</time>
      </trkpt>
      <trkpt lat="49.41804" lon="5.76527">
        <ele>328.39999389648</ele>
        <time>2023-06-23T10:50:23Z</time>
      </trkpt>
      <trkpt lat="49.41804" lon="5.76527">
        <ele>328.39999389648</ele>
        <time>2023-06-23T10:50:25Z</time>
      </trkpt>
      <trkpt lat="49.41804" lon="5.76527">
        <ele>328.39999389648</ele>
        <time>2023-06-23T10:50:27Z</time>
      </trkpt>
      <trkpt lat="49.41804" lon="5.76527">
        <ele>328.60000610352</ele>
        <time>2023-06-23T10:50:29Z</time>
      </trkpt>
      <trkpt lat="49.41804" lon="5.76527">
        <ele>328.60000610352</ele>
        <time>2023-06-23T10:50:31Z</time>
      </trkpt>
      <trkpt lat="49.41804" lon="5.76527">
        <ele>328.60000610352</ele>
        <time>2023-06-23T10:50:33Z</time>
      </trkpt>
      <trkpt lat="49.41804" lon="5.76527">
        <ele>328.60000610352</ele>
        <time>2023-06-23T10:50:35Z</time>
      </trkpt>
      <trkpt lat="49.41804" lon="5.76527">
        <ele>328.79998779297</ele>
        <time>2023-06-23T10:50:37Z</time>
      </trkpt>
      <trkpt lat="49.41804" lon="5.76527">
        <ele>328.79998779297</ele>
        <time>2023-06-23T10:50:39Z</time>
      </trkpt>
      <trkpt lat="49.41804" lon="5.76527">
        <ele>328.79998779297</ele>
        <time>2023-06-23T10:50:41Z</time>
      </trkpt>
      <trkpt lat="49.41804" lon="5.76527">
        <ele>328.79998779297</ele>
        <time>2023-06-23T10:50:43Z</time>
      </trkpt>
      <trkpt lat="49.41804" lon="5.76527">
        <ele>328.79998779297</ele>
        <time>2023-06-23T10:50:45Z</time>
      </trkpt>
      <trkpt lat="49.41804" lon="5.76527">
        <ele>328.79998779297</ele>
        <time>2023-06-23T10:50:47Z</time>
      </trkpt>
      <trkpt lat="49.41804" lon="5.76527">
        <ele>328.79998779297</ele>
        <time>2023-06-23T10:50:49Z</time>
      </trkpt>
      <trkpt lat="49.41804" lon="5.76527">
        <ele>328.79998779297</ele>
        <time>2023-06-23T10:50:51Z</time>
      </trkpt>
      <trkpt lat="49.41804" lon="5.76527">
        <ele>328.79998779297</ele>
        <time>2023-06-23T10:50:53Z</time>
      </trkpt>
      <trkpt lat="49.41804" lon="5.76527">
        <ele>328.79998779297</ele>
        <time>2023-06-23T10:50:55Z</time>
      </trkpt>
      <trkpt lat="49.41804" lon="5.76527">
        <ele>328.79998779297</ele>
        <time>2023-06-23T10:50:57Z</time>
      </trkpt>
      <trkpt lat="49.41804" lon="5.76527">
        <ele>328.79998779297</ele>
        <time>2023-06-23T10:50:59Z</time>
      </trkpt>
      <trkpt lat="49.41804" lon="5.76527">
        <ele>328.79998779297</ele>
        <time>2023-06-23T10:51:01Z</time>
      </trkpt>
      <trkpt lat="49.41804" lon="5.76527">
        <ele>328.79998779297</ele>
        <time>2023-06-23T10:51:03Z</time>
      </trkpt>
      <trkpt lat="49.41804" lon="5.76527">
        <ele>328.79998779297</ele>
        <time>2023-06-23T10:51:05Z</time>
      </trkpt>
      <trkpt lat="49.41804" lon="5.76527">
        <ele>328.60000610352</ele>
        <time>2023-06-23T10:51:07Z</time>
      </trkpt>
      <trkpt lat="49.41804" lon="5.76527">
        <ele>328.60000610352</ele>
        <time>2023-06-23T10:51:09Z</time>
      </trkpt>
      <trkpt lat="49.41803" lon="5.76526">
        <ele>328.60000610352</ele>
        <time>2023-06-23T10:51:11Z</time>
      </trkpt>
      <trkpt lat="49.41802" lon="5.76523">
        <ele>328.60000610352</ele>
        <time>2023-06-23T10:51:12Z</time>
      </trkpt>
      <trkpt lat="49.41801" lon="5.76521">
        <ele>328.60000610352</ele>
        <time>2023-06-23T10:51:13Z</time>
      </trkpt>
      <trkpt lat="49.41798" lon="5.76512">
        <ele>328.60000610352</ele>
        <time>2023-06-23T10:51:15Z</time>
      </trkpt>
      <trkpt lat="49.41797" lon="5.76506">
        <ele>328.60000610352</ele>
        <time>2023-06-23T10:51:16Z</time>
      </trkpt>
      <trkpt lat="49.41795" lon="5.76499">
        <ele>328.60000610352</ele>
        <time>2023-06-23T10:51:17Z</time>
      </trkpt>
      <trkpt lat="49.41793" lon="5.76486">
        <ele>328.39999389648</ele>
        <time>2023-06-23T10:51:19Z</time>
      </trkpt>
      <trkpt lat="49.41791" lon="5.76473">
        <ele>328.39999389648</ele>
        <time>2023-06-23T10:51:21Z</time>
      </trkpt>
      <trkpt lat="49.41789" lon="5.76466">
        <ele>328.20001220703</ele>
        <time>2023-06-23T10:51:22Z</time>
      </trkpt>
      <trkpt lat="49.41788" lon="5.76459">
        <ele>327.79998779297</ele>
        <time>2023-06-23T10:51:23Z</time>
      </trkpt>
      <trkpt lat="49.41786" lon="5.76445">
        <ele>327.20001220703</ele>
        <time>2023-06-23T10:51:25Z</time>
      </trkpt>
      <trkpt lat="49.41784" lon="5.76438">
        <ele>327</ele>
        <time>2023-06-23T10:51:26Z</time>
      </trkpt>
      <trkpt lat="49.41783" lon="5.76431">
        <ele>326.79998779297</ele>
        <time>2023-06-23T10:51:27Z</time>
      </trkpt>
      <trkpt lat="49.41781" lon="5.76416">
        <ele>326.79998779297</ele>
        <time>2023-06-23T10:51:29Z</time>
      </trkpt>
      <trkpt lat="49.41778" lon="5.76402">
        <ele>326.60000610352</ele>
        <time>2023-06-23T10:51:31Z</time>
      </trkpt>
      <trkpt lat="49.41776" lon="5.76389">
        <ele>326.60000610352</ele>
        <time>2023-06-23T10:51:33Z</time>
      </trkpt>
      <trkpt lat="49.41773" lon="5.76376">
        <ele>326.60000610352</ele>
        <time>2023-06-23T10:51:35Z</time>
      </trkpt>
      <trkpt lat="49.41771" lon="5.76364">
        <ele>326.60000610352</ele>
        <time>2023-06-23T10:51:37Z</time>
      </trkpt>
      <trkpt lat="49.41769" lon="5.76353">
        <ele>326.20001220703</ele>
        <time>2023-06-23T10:51:39Z</time>
      </trkpt>
      <trkpt lat="49.41769" lon="5.76343">
        <ele>326.20001220703</ele>
        <time>2023-06-23T10:51:41Z</time>
      </trkpt>
      <trkpt lat="49.41774" lon="5.76338">
        <ele>326.20001220703</ele>
        <time>2023-06-23T10:51:43Z</time>
      </trkpt>
      <trkpt lat="49.41778" lon="5.76337">
        <ele>326.20001220703</ele>
        <time>2023-06-23T10:51:44Z</time>
      </trkpt>
      <trkpt lat="49.41783" lon="5.76335">
        <ele>326</ele>
        <time>2023-06-23T10:51:45Z</time>
      </trkpt>
      <trkpt lat="49.41792" lon="5.76331">
        <ele>326</ele>
        <time>2023-06-23T10:51:47Z</time>
      </trkpt>
      <trkpt lat="49.41802" lon="5.76327">
        <ele>326.20001220703</ele>
        <time>2023-06-23T10:51:49Z</time>
      </trkpt>
      <trkpt lat="49.41806" lon="5.76325">
        <ele>326.20001220703</ele>
        <time>2023-06-23T10:51:50Z</time>
      </trkpt>
      <trkpt lat="49.41811" lon="5.76322">
        <ele>326.20001220703</ele>
        <time>2023-06-23T10:51:51Z</time>
      </trkpt>
      <trkpt lat="49.4182" lon="5.76318">
        <ele>326.20001220703</ele>
        <time>2023-06-23T10:51:53Z</time>
      </trkpt>
      <trkpt lat="49.41829" lon="5.76314">
        <ele>326.20001220703</ele>
        <time>2023-06-23T10:51:55Z</time>
      </trkpt>
      <trkpt lat="49.41837" lon="5.7631">
        <ele>326.39999389648</ele>
        <time>2023-06-23T10:51:57Z</time>
      </trkpt>
      <trkpt lat="49.41846" lon="5.76307">
        <ele>326.39999389648</ele>
        <time>2023-06-23T10:51:59Z</time>
      </trkpt>
      <trkpt lat="49.41853" lon="5.76303">
        <ele>326.60000610352</ele>
        <time>2023-06-23T10:52:01Z</time>
      </trkpt>
      <trkpt lat="49.41861" lon="5.76299">
        <ele>327</ele>
        <time>2023-06-23T10:52:03Z</time>
      </trkpt>
      <trkpt lat="49.41869" lon="5.76296">
        <ele>327.39999389648</ele>
        <time>2023-06-23T10:52:05Z</time>
      </trkpt>
      <trkpt lat="49.41878" lon="5.76292">
        <ele>327.39999389648</ele>
        <time>2023-06-23T10:52:07Z</time>
      </trkpt>
      <trkpt lat="49.41886" lon="5.76289">
        <ele>327.39999389648</ele>
        <time>2023-06-23T10:52:09Z</time>
      </trkpt>
      <trkpt lat="49.41894" lon="5.76285">
        <ele>327.39999389648</ele>
        <time>2023-06-23T10:52:11Z</time>
      </trkpt>
      <trkpt lat="49.41902" lon="5.76282">
        <ele>327.39999389648</ele>
        <time>2023-06-23T10:52:13Z</time>
      </trkpt>
      <trkpt lat="49.4191" lon="5.76278">
        <ele>327.39999389648</ele>
        <time>2023-06-23T10:52:15Z</time>
      </trkpt>
      <trkpt lat="49.41914" lon="5.76276">
        <ele>327.39999389648</ele>
        <time>2023-06-23T10:52:16Z</time>
      </trkpt>
      <trkpt lat="49.41919" lon="5.76274">
        <ele>327.39999389648</ele>
        <time>2023-06-23T10:52:17Z</time>
      </trkpt>
      <trkpt lat="49.41929" lon="5.7627">
        <ele>327.39999389648</ele>
        <time>2023-06-23T10:52:19Z</time>
      </trkpt>
      <trkpt lat="49.41939" lon="5.76265">
        <ele>327.20001220703</ele>
        <time>2023-06-23T10:52:21Z</time>
      </trkpt>
      <trkpt lat="49.41949" lon="5.76261">
        <ele>327.20001220703</ele>
        <time>2023-06-23T10:52:23Z</time>
      </trkpt>
      <trkpt lat="49.4196" lon="5.76256">
        <ele>327.20001220703</ele>
        <time>2023-06-23T10:52:25Z</time>
      </trkpt>
      <trkpt lat="49.41972" lon="5.76251">
        <ele>327.20001220703</ele>
        <time>2023-06-23T10:52:27Z</time>
      </trkpt>
      <trkpt lat="49.41983" lon="5.76248">
        <ele>327</ele>
        <time>2023-06-23T10:52:29Z</time>
      </trkpt>
      <trkpt lat="49.41993" lon="5.76244">
        <ele>327</ele>
        <time>2023-06-23T10:52:31Z</time>
      </trkpt>
      <trkpt lat="49.42002" lon="5.76241">
        <ele>326.60000610352</ele>
        <time>2023-06-23T10:52:33Z</time>
      </trkpt>
      <trkpt lat="49.42012" lon="5.76239">
        <ele>326.39999389648</ele>
        <time>2023-06-23T10:52:35Z</time>
      </trkpt>
      <trkpt lat="49.42023" lon="5.76236">
        <ele>326.20001220703</ele>
        <time>2023-06-23T10:52:37Z</time>
      </trkpt>
      <trkpt lat="49.42033" lon="5.76234">
        <ele>326</ele>
        <time>2023-06-23T10:52:39Z</time>
      </trkpt>
      <trkpt lat="49.42044" lon="5.76232">
        <ele>325.39999389648</ele>
        <time>2023-06-23T10:52:41Z</time>
      </trkpt>
      <trkpt lat="49.42054" lon="5.76231">
        <ele>325.20001220703</ele>
        <time>2023-06-23T10:52:43Z</time>
      </trkpt>
      <trkpt lat="49.42065" lon="5.7623">
        <ele>325</ele>
        <time>2023-06-23T10:52:45Z</time>
      </trkpt>
      <trkpt lat="49.42076" lon="5.76229">
        <ele>325</ele>
        <time>2023-06-23T10:52:47Z</time>
      </trkpt>
      <trkpt lat="49.42086" lon="5.76229">
        <ele>325</ele>
        <time>2023-06-23T10:52:49Z</time>
      </trkpt>
      <trkpt lat="49.42091" lon="5.76228">
        <ele>325</ele>
        <time>2023-06-23T10:52:50Z</time>
      </trkpt>
      <trkpt lat="49.42096" lon="5.76228">
        <ele>325</ele>
        <time>2023-06-23T10:52:51Z</time>
      </trkpt>
      <trkpt lat="49.42105" lon="5.76228">
        <ele>325</ele>
        <time>2023-06-23T10:52:53Z</time>
      </trkpt>
      <trkpt lat="49.42114" lon="5.76229">
        <ele>325</ele>
        <time>2023-06-23T10:52:55Z</time>
      </trkpt>
      <trkpt lat="49.42124" lon="5.76231">
        <ele>325</ele>
        <time>2023-06-23T10:52:57Z</time>
      </trkpt>
      <trkpt lat="49.42134" lon="5.76232">
        <ele>325</ele>
        <time>2023-06-23T10:52:59Z</time>
      </trkpt>
      <trkpt lat="49.42144" lon="5.76235">
        <ele>324.79998779297</ele>
        <time>2023-06-23T10:53:01Z</time>
      </trkpt>
      <trkpt lat="49.42154" lon="5.76237">
        <ele>324.60000610352</ele>
        <time>2023-06-23T10:53:03Z</time>
      </trkpt>
      <trkpt lat="49.42163" lon="5.7624">
        <ele>324.39999389648</ele>
        <time>2023-06-23T10:53:05Z</time>
      </trkpt>
      <trkpt lat="49.42168" lon="5.76241">
        <ele>324.39999389648</ele>
        <time>2023-06-23T10:53:06Z</time>
      </trkpt>
      <trkpt lat="49.42172" lon="5.76242">
        <ele>324.20001220703</ele>
        <time>2023-06-23T10:53:07Z</time>
      </trkpt>
      <trkpt lat="49.42181" lon="5.76245">
        <ele>324</ele>
        <time>2023-06-23T10:53:09Z</time>
      </trkpt>
      <trkpt lat="49.4219" lon="5.76247">
        <ele>324</ele>
        <time>2023-06-23T10:53:11Z</time>
      </trkpt>
      <trkpt lat="49.42194" lon="5.76249">
        <ele>323.79998779297</ele>
        <time>2023-06-23T10:53:12Z</time>
      </trkpt>
      <trkpt lat="49.42198" lon="5.7625">
        <ele>323.79998779297</ele>
        <time>2023-06-23T10:53:13Z</time>
      </trkpt>
      <trkpt lat="49.42206" lon="5.76253">
        <ele>323.39999389648</ele>
        <time>2023-06-23T10:53:15Z</time>
      </trkpt>
      <trkpt lat="49.42213" lon="5.76255">
        <ele>323.39999389648</ele>
        <time>2023-06-23T10:53:17Z</time>
      </trkpt>
      <trkpt lat="49.4222" lon="5.76258">
        <ele>323.20001220703</ele>
        <time>2023-06-23T10:53:19Z</time>
      </trkpt>
      <trkpt lat="49.42223" lon="5.76258">
        <ele>323.20001220703</ele>
        <time>2023-06-23T10:53:20Z</time>
      </trkpt>
      <trkpt lat="49.42226" lon="5.76256">
        <ele>323.20001220703</ele>
        <time>2023-06-23T10:53:21Z</time>
      </trkpt>
      <trkpt lat="49.42228" lon="5.76248">
        <ele>323.20001220703</ele>
        <time>2023-06-23T10:53:23Z</time>
      </trkpt>
      <trkpt lat="49.42232" lon="5.76239">
        <ele>323.39999389648</ele>
        <time>2023-06-23T10:53:25Z</time>
      </trkpt>
      <trkpt lat="49.42236" lon="5.76229">
        <ele>323.20001220703</ele>
        <time>2023-06-23T10:53:27Z</time>
      </trkpt>
      <trkpt lat="49.42239" lon="5.76219">
        <ele>323.20001220703</ele>
        <time>2023-06-23T10:53:29Z</time>
      </trkpt>
      <trkpt lat="49.42243" lon="5.7621">
        <ele>323.20001220703</ele>
        <time>2023-06-23T10:53:31Z</time>
      </trkpt>
      <trkpt lat="49.42244" lon="5.76205">
        <ele>323.20001220703</ele>
        <time>2023-06-23T10:53:32Z</time>
      </trkpt>
      <trkpt lat="49.42245" lon="5.76199">
        <ele>323</ele>
        <time>2023-06-23T10:53:33Z</time>
      </trkpt>
      <trkpt lat="49.42247" lon="5.76188">
        <ele>323</ele>
        <time>2023-06-23T10:53:35Z</time>
      </trkpt>
      <trkpt lat="49.42248" lon="5.76182">
        <ele>322.79998779297</ele>
        <time>2023-06-23T10:53:36Z</time>
      </trkpt>
      <trkpt lat="49.42249" lon="5.76176">
        <ele>322.60000610352</ele>
        <time>2023-06-23T10:53:37Z</time>
      </trkpt>
      <trkpt lat="49.42251" lon="5.76166">
        <ele>322.39999389648</ele>
        <time>2023-06-23T10:53:39Z</time>
      </trkpt>
      <trkpt lat="49.42253" lon="5.76157">
        <ele>322.20001220703</ele>
        <time>2023-06-23T10:53:41Z</time>
      </trkpt>
      <trkpt lat="49.42254" lon="5.76148">
        <ele>322</ele>
        <time>2023-06-23T10:53:43Z</time>
      </trkpt>
      <trkpt lat="49.42256" lon="5.7614">
        <ele>321.79998779297</ele>
        <time>2023-06-23T10:53:45Z</time>
      </trkpt>
      <trkpt lat="49.42258" lon="5.76136">
        <ele>321.79998779297</ele>
        <time>2023-06-23T10:53:46Z</time>
      </trkpt>
      <trkpt lat="49.4226" lon="5.76131">
        <ele>321.79998779297</ele>
        <time>2023-06-23T10:53:47Z</time>
      </trkpt>
      <trkpt lat="49.42264" lon="5.76121">
        <ele>321.60000610352</ele>
        <time>2023-06-23T10:53:49Z</time>
      </trkpt>
      <trkpt lat="49.42268" lon="5.76111">
        <ele>321.39999389648</ele>
        <time>2023-06-23T10:53:51Z</time>
      </trkpt>
      <trkpt lat="49.42269" lon="5.76105">
        <ele>321.39999389648</ele>
        <time>2023-06-23T10:53:52Z</time>
      </trkpt>
      <trkpt lat="49.42271" lon="5.76098">
        <ele>321.20001220703</ele>
        <time>2023-06-23T10:53:53Z</time>
      </trkpt>
      <trkpt lat="49.42272" lon="5.76085">
        <ele>321.20001220703</ele>
        <time>2023-06-23T10:53:55Z</time>
      </trkpt>
      <trkpt lat="49.42274" lon="5.76073">
        <ele>321</ele>
        <time>2023-06-23T10:53:57Z</time>
      </trkpt>
      <trkpt lat="49.42275" lon="5.76067">
        <ele>320.79998779297</ele>
        <time>2023-06-23T10:53:58Z</time>
      </trkpt>
      <trkpt lat="49.42276" lon="5.76062">
        <ele>320.60000610352</ele>
        <time>2023-06-23T10:53:59Z</time>
      </trkpt>
      <trkpt lat="49.42278" lon="5.7605">
        <ele>320.39999389648</ele>
        <time>2023-06-23T10:54:01Z</time>
      </trkpt>
      <trkpt lat="49.4228" lon="5.76037">
        <ele>320.20001220703</ele>
        <time>2023-06-23T10:54:03Z</time>
      </trkpt>
      <trkpt lat="49.42284" lon="5.76026">
        <ele>320.20001220703</ele>
        <time>2023-06-23T10:54:05Z</time>
      </trkpt>
      <trkpt lat="49.42286" lon="5.7602">
        <ele>320.20001220703</ele>
        <time>2023-06-23T10:54:06Z</time>
      </trkpt>
      <trkpt lat="49.42288" lon="5.76013">
        <ele>320</ele>
        <time>2023-06-23T10:54:07Z</time>
      </trkpt>
      <trkpt lat="49.42293" lon="5.76002">
        <ele>320</ele>
        <time>2023-06-23T10:54:09Z</time>
      </trkpt>
      <trkpt lat="49.42299" lon="5.75992">
        <ele>319.79998779297</ele>
        <time>2023-06-23T10:54:11Z</time>
      </trkpt>
      <trkpt lat="49.42306" lon="5.75981">
        <ele>319.79998779297</ele>
        <time>2023-06-23T10:54:13Z</time>
      </trkpt>
      <trkpt lat="49.42308" lon="5.75977">
        <ele>319.60000610352</ele>
        <time>2023-06-23T10:54:14Z</time>
      </trkpt>
      <trkpt lat="49.4231" lon="5.75975">
        <ele>319.20001220703</ele>
        <time>2023-06-23T10:54:15Z</time>
      </trkpt>
      <trkpt lat="49.42312" lon="5.75972">
        <ele>318.60000610352</ele>
        <time>2023-06-23T10:54:17Z</time>
      </trkpt>
      <trkpt lat="49.42313" lon="5.75971">
        <ele>318.39999389648</ele>
        <time>2023-06-23T10:54:18Z</time>
      </trkpt>
      <trkpt lat="49.42313" lon="5.75971">
        <ele>318.20001220703</ele>
        <time>2023-06-23T10:54:19Z</time>
      </trkpt>
      <trkpt lat="49.42313" lon="5.7597">
        <ele>318.20001220703</ele>
        <time>2023-06-23T10:54:20Z</time>
      </trkpt>
      <trkpt lat="49.42313" lon="5.7597">
        <ele>318</ele>
        <time>2023-06-23T10:54:21Z</time>
      </trkpt>
      <trkpt lat="49.42313" lon="5.7597">
        <ele>318</ele>
        <time>2023-06-23T10:54:23Z</time>
      </trkpt>
      <trkpt lat="49.42313" lon="5.7597">
        <ele>317.79998779297</ele>
        <time>2023-06-23T10:54:25Z</time>
      </trkpt>
      <trkpt lat="49.42314" lon="5.7597">
        <ele>317.79998779297</ele>
        <time>2023-06-23T10:54:27Z</time>
      </trkpt>
      <trkpt lat="49.42314" lon="5.75969">
        <ele>317.79998779297</ele>
        <time>2023-06-23T10:54:29Z</time>
      </trkpt>
      <trkpt lat="49.42314" lon="5.75969">
        <ele>317.79998779297</ele>
        <time>2023-06-23T10:54:30Z</time>
      </trkpt>
      <trkpt lat="49.42314" lon="5.75968">
        <ele>317.79998779297</ele>
        <time>2023-06-23T10:54:31Z</time>
      </trkpt>
      <trkpt lat="49.42314" lon="5.75967">
        <ele>317.79998779297</ele>
        <time>2023-06-23T10:54:33Z</time>
      </trkpt>
      <trkpt lat="49.42314" lon="5.75967">
        <ele>317.79998779297</ele>
        <time>2023-06-23T10:54:35Z</time>
      </trkpt>
      <trkpt lat="49.42314" lon="5.75966">
        <ele>317.79998779297</ele>
        <time>2023-06-23T10:54:37Z</time>
      </trkpt>
      <trkpt lat="49.42314" lon="5.75966">
        <ele>317.79998779297</ele>
        <time>2023-06-23T10:54:39Z</time>
      </trkpt>
      <trkpt lat="49.42314" lon="5.75965">
        <ele>318</ele>
        <time>2023-06-23T10:54:41Z</time>
      </trkpt>
      <trkpt lat="49.42314" lon="5.75965">
        <ele>318</ele>
        <time>2023-06-23T10:54:43Z</time>
      </trkpt>
      <trkpt lat="49.42314" lon="5.75965">
        <ele>317.79998779297</ele>
        <time>2023-06-23T10:54:45Z</time>
      </trkpt>
      <trkpt lat="49.42314" lon="5.75965">
        <ele>317.79998779297</ele>
        <time>2023-06-23T10:54:47Z</time>
      </trkpt>
      <trkpt lat="49.42314" lon="5.75964">
        <ele>317.79998779297</ele>
        <time>2023-06-23T10:54:48Z</time>
      </trkpt>
      <trkpt lat="49.42314" lon="5.75964">
        <ele>317.60000610352</ele>
        <time>2023-06-23T10:54:49Z</time>
      </trkpt>
      <trkpt lat="49.42314" lon="5.75963">
        <ele>317.60000610352</ele>
        <time>2023-06-23T10:54:51Z</time>
      </trkpt>
      <trkpt lat="49.42314" lon="5.75962">
        <ele>317.60000610352</ele>
        <time>2023-06-23T10:54:53Z</time>
      </trkpt>
      <trkpt lat="49.42314" lon="5.75962">
        <ele>317.60000610352</ele>
        <time>2023-06-23T10:54:55Z</time>
      </trkpt>
      <trkpt lat="49.42314" lon="5.75962">
        <ele>317.60000610352</ele>
        <time>2023-06-23T10:54:57Z</time>
      </trkpt>
      <trkpt lat="49.42314" lon="5.75961">
        <ele>317.60000610352</ele>
        <time>2023-06-23T10:54:59Z</time>
      </trkpt>
      <trkpt lat="49.42314" lon="5.7596">
        <ele>317.60000610352</ele>
        <time>2023-06-23T10:55:01Z</time>
      </trkpt>
      <trkpt lat="49.42314" lon="5.7596">
        <ele>317.39999389648</ele>
        <time>2023-06-23T10:55:03Z</time>
      </trkpt>
      <trkpt lat="49.42314" lon="5.7596">
        <ele>317.39999389648</ele>
        <time>2023-06-23T10:55:04Z</time>
      </trkpt>
      <trkpt lat="49.42314" lon="5.7596">
        <ele>317.39999389648</ele>
        <time>2023-06-23T10:55:05Z</time>
      </trkpt>
      <trkpt lat="49.42314" lon="5.7596">
        <ele>317.39999389648</ele>
        <time>2023-06-23T10:55:07Z</time>
      </trkpt>
      <trkpt lat="49.42314" lon="5.7596">
        <ele>317.20001220703</ele>
        <time>2023-06-23T10:55:09Z</time>
      </trkpt>
      <trkpt lat="49.42314" lon="5.75959">
        <ele>317.20001220703</ele>
        <time>2023-06-23T10:55:11Z</time>
      </trkpt>
      <trkpt lat="49.42313" lon="5.75962">
        <ele>317.20001220703</ele>
        <time>2023-06-23T10:55:13Z</time>
      </trkpt>
      <trkpt lat="49.42311" lon="5.75965">
        <ele>317.20001220703</ele>
        <time>2023-06-23T10:55:15Z</time>
      </trkpt>
      <trkpt lat="49.42311" lon="5.75966">
        <ele>317.20001220703</ele>
        <time>2023-06-23T10:55:16Z</time>
      </trkpt>
      <trkpt lat="49.4231" lon="5.75968">
        <ele>317.20001220703</ele>
        <time>2023-06-23T10:55:17Z</time>
      </trkpt>
      <trkpt lat="49.42308" lon="5.75972">
        <ele>317.20001220703</ele>
        <time>2023-06-23T10:55:19Z</time>
      </trkpt>
      <trkpt lat="49.42306" lon="5.75977">
        <ele>317.20001220703</ele>
        <time>2023-06-23T10:55:21Z</time>
      </trkpt>
      <trkpt lat="49.42306" lon="5.75981">
        <ele>317.20001220703</ele>
        <time>2023-06-23T10:55:22Z</time>
      </trkpt>
      <trkpt lat="49.42305" lon="5.75984">
        <ele>317.20001220703</ele>
        <time>2023-06-23T10:55:23Z</time>
      </trkpt>
      <trkpt lat="49.42302" lon="5.75992">
        <ele>317.39999389648</ele>
        <time>2023-06-23T10:55:25Z</time>
      </trkpt>
      <trkpt lat="49.423" lon="5.75998">
        <ele>317.60000610352</ele>
        <time>2023-06-23T10:55:27Z</time>
      </trkpt>
      <trkpt lat="49.42299" lon="5.76002">
        <ele>317.60000610352</ele>
        <time>2023-06-23T10:55:28Z</time>
      </trkpt>
      <trkpt lat="49.42298" lon="5.76005">
        <ele>317.79998779297</ele>
        <time>2023-06-23T10:55:29Z</time>
      </trkpt>
      <trkpt lat="49.42297" lon="5.76012">
        <ele>318</ele>
        <time>2023-06-23T10:55:31Z</time>
      </trkpt>
      <trkpt lat="49.42296" lon="5.76019">
        <ele>318.20001220703</ele>
        <time>2023-06-23T10:55:33Z</time>
      </trkpt>
      <trkpt lat="49.42295" lon="5.76027">
        <ele>318.39999389648</ele>
        <time>2023-06-23T10:55:35Z</time>
      </trkpt>
      <trkpt lat="49.42296" lon="5.76032">
        <ele>318.79998779297</ele>
        <time>2023-06-23T10:55:37Z</time>
      </trkpt>
      <trkpt lat="49.42298" lon="5.76034">
        <ele>319</ele>
        <time>2023-06-23T10:55:38Z</time>
      </trkpt>
      <trkpt lat="49.42299" lon="5.76036">
        <ele>319</ele>
        <time>2023-06-23T10:55:39Z</time>
      </trkpt>
      <trkpt lat="49.42302" lon="5.76045">
        <ele>319.20001220703</ele>
        <time>2023-06-23T10:55:41Z</time>
      </trkpt>
      <trkpt lat="49.42305" lon="5.76049">
        <ele>319.20001220703</ele>
        <time>2023-06-23T10:55:42Z</time>
      </trkpt>
      <trkpt lat="49.42307" lon="5.76054">
        <ele>319.20001220703</ele>
        <time>2023-06-23T10:55:43Z</time>
      </trkpt>
      <trkpt lat="49.42311" lon="5.76064">
        <ele>319.20001220703</ele>
        <time>2023-06-23T10:55:45Z</time>
      </trkpt>
      <trkpt lat="49.42314" lon="5.76075">
        <ele>319</ele>
        <time>2023-06-23T10:55:47Z</time>
      </trkpt>
      <trkpt lat="49.42318" lon="5.76087">
        <ele>318.79998779297</ele>
        <time>2023-06-23T10:55:49Z</time>
      </trkpt>
      <trkpt lat="49.42322" lon="5.76099">
        <ele>318.39999389648</ele>
        <time>2023-06-23T10:55:51Z</time>
      </trkpt>
      <trkpt lat="49.42325" lon="5.76112">
        <ele>318</ele>
        <time>2023-06-23T10:55:53Z</time>
      </trkpt>
      <trkpt lat="49.42327" lon="5.76118">
        <ele>317.79998779297</ele>
        <time>2023-06-23T10:55:54Z</time>
      </trkpt>
      <trkpt lat="49.4233" lon="5.76124">
        <ele>317.79998779297</ele>
        <time>2023-06-23T10:55:55Z</time>
      </trkpt>
      <trkpt lat="49.42335" lon="5.76135">
        <ele>317.79998779297</ele>
        <time>2023-06-23T10:55:57Z</time>
      </trkpt>
      <trkpt lat="49.42343" lon="5.76145">
        <ele>317.60000610352</ele>
        <time>2023-06-23T10:55:59Z</time>
      </trkpt>
      <trkpt lat="49.42346" lon="5.7615">
        <ele>317.60000610352</ele>
        <time>2023-06-23T10:56:00Z</time>
      </trkpt>
      <trkpt lat="49.42348" lon="5.76155">
        <ele>317.39999389648</ele>
        <time>2023-06-23T10:56:01Z</time>
      </trkpt>
      <trkpt lat="49.4235" lon="5.7616">
        <ele>316.79998779297</ele>
        <time>2023-06-23T10:56:03Z</time>
      </trkpt>
      <trkpt lat="49.42351" lon="5.76163">
        <ele>316.60000610352</ele>
        <time>2023-06-23T10:56:04Z</time>
      </trkpt>
      <trkpt lat="49.42351" lon="5.76164">
        <ele>316.20001220703</ele>
        <time>2023-06-23T10:56:05Z</time>
      </trkpt>
      <trkpt lat="49.42353" lon="5.76167">
        <ele>315.60000610352</ele>
        <time>2023-06-23T10:56:06Z</time>
      </trkpt>
      <trkpt lat="49.42355" lon="5.76172">
        <ele>315.39999389648</ele>
        <time>2023-06-23T10:56:08Z</time>
      </trkpt>
      <trkpt lat="49.42357" lon="5.76177">
        <ele>315.20001220703</ele>
        <time>2023-06-23T10:56:10Z</time>
      </trkpt>
      <trkpt lat="49.42357" lon="5.7618">
        <ele>315.20001220703</ele>
        <time>2023-06-23T10:56:11Z</time>
      </trkpt>
      <trkpt lat="49.42359" lon="5.76183">
        <ele>315.20001220703</ele>
        <time>2023-06-23T10:56:12Z</time>
      </trkpt>
      <trkpt lat="49.4236" lon="5.76186">
        <ele>315</ele>
        <time>2023-06-23T10:56:14Z</time>
      </trkpt>
      <trkpt lat="49.42361" lon="5.76189">
        <ele>314.79998779297</ele>
        <time>2023-06-23T10:56:16Z</time>
      </trkpt>
      <trkpt lat="49.42361" lon="5.76191">
        <ele>314.79998779297</ele>
        <time>2023-06-23T10:56:18Z</time>
      </trkpt>
      <trkpt lat="49.42362" lon="5.76191">
        <ele>314.60000610352</ele>
        <time>2023-06-23T10:56:20Z</time>
      </trkpt>
      <trkpt lat="49.42362" lon="5.76191">
        <ele>314.60000610352</ele>
        <time>2023-06-23T10:56:22Z</time>
      </trkpt>
      <trkpt lat="49.42362" lon="5.76191">
        <ele>314.60000610352</ele>
        <time>2023-06-23T10:56:24Z</time>
      </trkpt>
      <trkpt lat="49.42362" lon="5.76192">
        <ele>314.39999389648</ele>
        <time>2023-06-23T10:56:25Z</time>
      </trkpt>
      <trkpt lat="49.42362" lon="5.76192">
        <ele>314.39999389648</ele>
        <time>2023-06-23T10:56:26Z</time>
      </trkpt>
      <trkpt lat="49.42362" lon="5.76192">
        <ele>314.39999389648</ele>
        <time>2023-06-23T10:56:28Z</time>
      </trkpt>
      <trkpt lat="49.42365" lon="5.76196">
        <ele>314.20001220703</ele>
        <time>2023-06-23T10:56:30Z</time>
      </trkpt>
      <trkpt lat="49.42366" lon="5.76199">
        <ele>314.20001220703</ele>
        <time>2023-06-23T10:56:31Z</time>
      </trkpt>
      <trkpt lat="49.42371" lon="5.76209">
        <ele>314</ele>
        <time>2023-06-23T10:56:33Z</time>
      </trkpt>
      <trkpt lat="49.42374" lon="5.76214">
        <ele>314</ele>
        <time>2023-06-23T10:56:34Z</time>
      </trkpt>
      <trkpt lat="49.42377" lon="5.7622">
        <ele>314</ele>
        <time>2023-06-23T10:56:35Z</time>
      </trkpt>
      <trkpt lat="49.42383" lon="5.76232">
        <ele>313.79998779297</ele>
        <time>2023-06-23T10:56:37Z</time>
      </trkpt>
      <trkpt lat="49.42385" lon="5.76235">
        <ele>313.39999389648</ele>
        <time>2023-06-23T10:56:38Z</time>
      </trkpt>
      <trkpt lat="49.42386" lon="5.76236">
        <ele>313</ele>
        <time>2023-06-23T10:56:39Z</time>
      </trkpt>
      <trkpt lat="49.42387" lon="5.76238">
        <ele>312.39999389648</ele>
        <time>2023-06-23T10:56:40Z</time>
      </trkpt>
      <trkpt lat="49.42388" lon="5.76238">
        <ele>311.79998779297</ele>
        <time>2023-06-23T10:56:41Z</time>
      </trkpt>
      <trkpt lat="49.42388" lon="5.76238">
        <ele>311</ele>
        <time>2023-06-23T10:56:42Z</time>
      </trkpt>
      <trkpt lat="49.4239" lon="5.7624">
        <ele>310.60000610352</ele>
        <time>2023-06-23T10:56:43Z</time>
      </trkpt>
      <trkpt lat="49.42392" lon="5.76241">
        <ele>309.39999389648</ele>
        <time>2023-06-23T10:56:45Z</time>
      </trkpt>
      <trkpt lat="49.42393" lon="5.76242">
        <ele>309</ele>
        <time>2023-06-23T10:56:47Z</time>
      </trkpt>
      <trkpt lat="49.42394" lon="5.76243">
        <ele>308.79998779297</ele>
        <time>2023-06-23T10:56:49Z</time>
      </trkpt>
      <trkpt lat="49.42394" lon="5.76243">
        <ele>308.39999389648</ele>
        <time>2023-06-23T10:56:51Z</time>
      </trkpt>
      <trkpt lat="49.42394" lon="5.76243">
        <ele>308.39999389648</ele>
        <time>2023-06-23T10:56:52Z</time>
      </trkpt>
      <trkpt lat="49.42394" lon="5.76243">
        <ele>308.20001220703</ele>
        <time>2023-06-23T10:56:53Z</time>
      </trkpt>
      <trkpt lat="49.42394" lon="5.76243">
        <ele>308</ele>
        <time>2023-06-23T10:56:55Z</time>
      </trkpt>
      <trkpt lat="49.42394" lon="5.76243">
        <ele>308</ele>
        <time>2023-06-23T10:56:57Z</time>
      </trkpt>
      <trkpt lat="49.42394" lon="5.76243">
        <ele>308</ele>
        <time>2023-06-23T10:56:59Z</time>
      </trkpt>
      <trkpt lat="49.42394" lon="5.76243">
        <ele>308</ele>
        <time>2023-06-23T10:57:00Z</time>
      </trkpt>
      <trkpt lat="49.42394" lon="5.76243">
        <ele>308</ele>
        <time>2023-06-23T10:57:01Z</time>
      </trkpt>
      <trkpt lat="49.42394" lon="5.76244">
        <ele>308</ele>
        <time>2023-06-23T10:57:03Z</time>
      </trkpt>
      <trkpt lat="49.42394" lon="5.76244">
        <ele>308.20001220703</ele>
        <time>2023-06-23T10:57:05Z</time>
      </trkpt>
      <trkpt lat="49.42395" lon="5.76243">
        <ele>308.39999389648</ele>
        <time>2023-06-23T10:57:07Z</time>
      </trkpt>
      <trkpt lat="49.42395" lon="5.76243">
        <ele>308.39999389648</ele>
        <time>2023-06-23T10:57:08Z</time>
      </trkpt>
      <trkpt lat="49.42395" lon="5.76243">
        <ele>308.39999389648</ele>
        <time>2023-06-23T10:57:09Z</time>
      </trkpt>
      <trkpt lat="49.42396" lon="5.76245">
        <ele>308.39999389648</ele>
        <time>2023-06-23T10:57:11Z</time>
      </trkpt>
      <trkpt lat="49.42397" lon="5.76246">
        <ele>308.39999389648</ele>
        <time>2023-06-23T10:57:13Z</time>
      </trkpt>
      <trkpt lat="49.42398" lon="5.76248">
        <ele>308.39999389648</ele>
        <time>2023-06-23T10:57:15Z</time>
      </trkpt>
      <trkpt lat="49.42399" lon="5.7625">
        <ele>308.39999389648</ele>
        <time>2023-06-23T10:57:17Z</time>
      </trkpt>
      <trkpt lat="49.424" lon="5.76251">
        <ele>308.39999389648</ele>
        <time>2023-06-23T10:57:18Z</time>
      </trkpt>
      <trkpt lat="49.424" lon="5.76252">
        <ele>308.39999389648</ele>
        <time>2023-06-23T10:57:19Z</time>
      </trkpt>
      <trkpt lat="49.42401" lon="5.76253">
        <ele>308.20001220703</ele>
        <time>2023-06-23T10:57:21Z</time>
      </trkpt>
      <trkpt lat="49.42401" lon="5.76254">
        <ele>308.20001220703</ele>
        <time>2023-06-23T10:57:23Z</time>
      </trkpt>
      <trkpt lat="49.42401" lon="5.76254">
        <ele>308</ele>
        <time>2023-06-23T10:57:25Z</time>
      </trkpt>
      <trkpt lat="49.42401" lon="5.76254">
        <ele>308</ele>
        <time>2023-06-23T10:57:27Z</time>
      </trkpt>
      <trkpt lat="49.42401" lon="5.76255">
        <ele>308</ele>
        <time>2023-06-23T10:57:28Z</time>
      </trkpt>
      <trkpt lat="49.42401" lon="5.76256">
        <ele>308</ele>
        <time>2023-06-23T10:57:29Z</time>
      </trkpt>
      <trkpt lat="49.42401" lon="5.76258">
        <ele>308</ele>
        <time>2023-06-23T10:57:31Z</time>
      </trkpt>
      <trkpt lat="49.42401" lon="5.7626">
        <ele>307.79998779297</ele>
        <time>2023-06-23T10:57:33Z</time>
      </trkpt>
      <trkpt lat="49.42402" lon="5.76262">
        <ele>307.79998779297</ele>
        <time>2023-06-23T10:57:35Z</time>
      </trkpt>
      <trkpt lat="49.42403" lon="5.76263">
        <ele>307.79998779297</ele>
        <time>2023-06-23T10:57:37Z</time>
      </trkpt>
      <trkpt lat="49.42404" lon="5.76265">
        <ele>307.79998779297</ele>
        <time>2023-06-23T10:57:38Z</time>
      </trkpt>
      <trkpt lat="49.42405" lon="5.76267">
        <ele>307.79998779297</ele>
        <time>2023-06-23T10:57:39Z</time>
      </trkpt>
      <trkpt lat="49.42406" lon="5.76271">
        <ele>307.79998779297</ele>
        <time>2023-06-23T10:57:41Z</time>
      </trkpt>
      <trkpt lat="49.42409" lon="5.76273">
        <ele>307.79998779297</ele>
        <time>2023-06-23T10:57:43Z</time>
      </trkpt>
      <trkpt lat="49.42411" lon="5.76273">
        <ele>307.79998779297</ele>
        <time>2023-06-23T10:57:44Z</time>
      </trkpt>
      <trkpt lat="49.42413" lon="5.76273">
        <ele>307.79998779297</ele>
        <time>2023-06-23T10:57:45Z</time>
      </trkpt>
      <trkpt lat="49.42415" lon="5.76272">
        <ele>307.60000610352</ele>
        <time>2023-06-23T10:57:46Z</time>
      </trkpt>
      <trkpt lat="49.42417" lon="5.76272">
        <ele>307.39999389648</ele>
        <time>2023-06-23T10:57:47Z</time>
      </trkpt>
      <trkpt lat="49.42419" lon="5.76271">
        <ele>307.20001220703</ele>
        <time>2023-06-23T10:57:48Z</time>
      </trkpt>
      <trkpt lat="49.4242" lon="5.7627">
        <ele>307</ele>
        <time>2023-06-23T10:57:49Z</time>
      </trkpt>
      <trkpt lat="49.42424" lon="5.76269">
        <ele>306.39999389648</ele>
        <time>2023-06-23T10:57:51Z</time>
      </trkpt>
      <trkpt lat="49.42425" lon="5.76268">
        <ele>306</ele>
        <time>2023-06-23T10:57:52Z</time>
      </trkpt>
      <trkpt lat="49.42427" lon="5.76267">
        <ele>305</ele>
        <time>2023-06-23T10:57:53Z</time>
      </trkpt>
      <trkpt lat="49.42429" lon="5.76266">
        <ele>304.60000610352</ele>
        <time>2023-06-23T10:57:54Z</time>
      </trkpt>
      <trkpt lat="49.42431" lon="5.76266">
        <ele>304.20001220703</ele>
        <time>2023-06-23T10:57:55Z</time>
      </trkpt>
      <trkpt lat="49.42432" lon="5.76265">
        <ele>303.79998779297</ele>
        <time>2023-06-23T10:57:56Z</time>
      </trkpt>
      <trkpt lat="49.42434" lon="5.76264">
        <ele>303.60000610352</ele>
        <time>2023-06-23T10:57:57Z</time>
      </trkpt>
      <trkpt lat="49.42435" lon="5.76263">
        <ele>303.39999389648</ele>
        <time>2023-06-23T10:57:58Z</time>
      </trkpt>
      <trkpt lat="49.42436" lon="5.76262">
        <ele>303.39999389648</ele>
        <time>2023-06-23T10:57:59Z</time>
      </trkpt>
      <trkpt lat="49.42438" lon="5.76261">
        <ele>303</ele>
        <time>2023-06-23T10:58:00Z</time>
      </trkpt>
      <trkpt lat="49.4244" lon="5.76261">
        <ele>302.79998779297</ele>
        <time>2023-06-23T10:58:01Z</time>
      </trkpt>
      <trkpt lat="49.42443" lon="5.76259">
        <ele>302.39999389648</ele>
        <time>2023-06-23T10:58:02Z</time>
      </trkpt>
      <trkpt lat="49.42446" lon="5.76256">
        <ele>302</ele>
        <time>2023-06-23T10:58:03Z</time>
      </trkpt>
      <trkpt lat="49.42453" lon="5.7625">
        <ele>301.39999389648</ele>
        <time>2023-06-23T10:58:05Z</time>
      </trkpt>
      <trkpt lat="49.4246" lon="5.76243">
        <ele>301.20001220703</ele>
        <time>2023-06-23T10:58:07Z</time>
      </trkpt>
      <trkpt lat="49.42467" lon="5.76235">
        <ele>300.60000610352</ele>
        <time>2023-06-23T10:58:09Z</time>
      </trkpt>
      <trkpt lat="49.42469" lon="5.76231">
        <ele>300.20001220703</ele>
        <time>2023-06-23T10:58:10Z</time>
      </trkpt>
      <trkpt lat="49.42471" lon="5.76226">
        <ele>299.60000610352</ele>
        <time>2023-06-23T10:58:11Z</time>
      </trkpt>
      <trkpt lat="49.42473" lon="5.76222">
        <ele>299</ele>
        <time>2023-06-23T10:58:12Z</time>
      </trkpt>
      <trkpt lat="49.42473" lon="5.76218">
        <ele>298.39999389648</ele>
        <time>2023-06-23T10:58:13Z</time>
      </trkpt>
      <trkpt lat="49.42473" lon="5.76213">
        <ele>297.39999389648</ele>
        <time>2023-06-23T10:58:14Z</time>
      </trkpt>
      <trkpt lat="49.42474" lon="5.76208">
        <ele>296.79998779297</ele>
        <time>2023-06-23T10:58:15Z</time>
      </trkpt>
      <trkpt lat="49.42474" lon="5.76203">
        <ele>295.60000610352</ele>
        <time>2023-06-23T10:58:16Z</time>
      </trkpt>
      <trkpt lat="49.42474" lon="5.76198">
        <ele>294.79998779297</ele>
        <time>2023-06-23T10:58:17Z</time>
      </trkpt>
      <trkpt lat="49.42475" lon="5.76193">
        <ele>294.39999389648</ele>
        <time>2023-06-23T10:58:18Z</time>
      </trkpt>
      <trkpt lat="49.42475" lon="5.76187">
        <ele>294</ele>
        <time>2023-06-23T10:58:19Z</time>
      </trkpt>
      <trkpt lat="49.42476" lon="5.76182">
        <ele>293.20001220703</ele>
        <time>2023-06-23T10:58:20Z</time>
      </trkpt>
      <trkpt lat="49.42478" lon="5.76177">
        <ele>292.79998779297</ele>
        <time>2023-06-23T10:58:21Z</time>
      </trkpt>
      <trkpt lat="49.4248" lon="5.76173">
        <ele>292.20001220703</ele>
        <time>2023-06-23T10:58:22Z</time>
      </trkpt>
      <trkpt lat="49.42483" lon="5.76171">
        <ele>291.39999389648</ele>
        <time>2023-06-23T10:58:23Z</time>
      </trkpt>
      <trkpt lat="49.42487" lon="5.76167">
        <ele>289.79998779297</ele>
        <time>2023-06-23T10:58:25Z</time>
      </trkpt>
      <trkpt lat="49.4249" lon="5.76166">
        <ele>288.20001220703</ele>
        <time>2023-06-23T10:58:27Z</time>
      </trkpt>
      <trkpt lat="49.42493" lon="5.76166">
        <ele>287.20001220703</ele>
        <time>2023-06-23T10:58:28Z</time>
      </trkpt>
      <trkpt lat="49.42496" lon="5.76164">
        <ele>286.39999389648</ele>
        <time>2023-06-23T10:58:29Z</time>
      </trkpt>
      <trkpt lat="49.42499" lon="5.76164">
        <ele>285.39999389648</ele>
        <time>2023-06-23T10:58:30Z</time>
      </trkpt>
      <trkpt lat="49.42502" lon="5.76164">
        <ele>284.79998779297</ele>
        <time>2023-06-23T10:58:31Z</time>
      </trkpt>
      <trkpt lat="49.42508" lon="5.76164">
        <ele>283.79998779297</ele>
        <time>2023-06-23T10:58:33Z</time>
      </trkpt>
      <trkpt lat="49.42514" lon="5.76164">
        <ele>283</ele>
        <time>2023-06-23T10:58:35Z</time>
      </trkpt>
      <trkpt lat="49.42522" lon="5.76165">
        <ele>282</ele>
        <time>2023-06-23T10:58:37Z</time>
      </trkpt>
      <trkpt lat="49.42529" lon="5.76169">
        <ele>280.39999389648</ele>
        <time>2023-06-23T10:58:39Z</time>
      </trkpt>
      <trkpt lat="49.42533" lon="5.76172">
        <ele>279.60000610352</ele>
        <time>2023-06-23T10:58:40Z</time>
      </trkpt>
      <trkpt lat="49.42538" lon="5.76176">
        <ele>278.79998779297</ele>
        <time>2023-06-23T10:58:41Z</time>
      </trkpt>
      <trkpt lat="49.42546" lon="5.7618">
        <ele>277</ele>
        <time>2023-06-23T10:58:43Z</time>
      </trkpt>
      <trkpt lat="49.42554" lon="5.76185">
        <ele>275</ele>
        <time>2023-06-23T10:58:45Z</time>
      </trkpt>
      <trkpt lat="49.42563" lon="5.7619">
        <ele>272.60000610352</ele>
        <time>2023-06-23T10:58:47Z</time>
      </trkpt>
      <trkpt lat="49.42571" lon="5.76195">
        <ele>270.39999389648</ele>
        <time>2023-06-23T10:58:49Z</time>
      </trkpt>
      <trkpt lat="49.42575" lon="5.76197">
        <ele>269.20001220703</ele>
        <time>2023-06-23T10:58:50Z</time>
      </trkpt>
      <trkpt lat="49.4258" lon="5.76198">
        <ele>268.39999389648</ele>
        <time>2023-06-23T10:58:51Z</time>
      </trkpt>
      <trkpt lat="49.42584" lon="5.76199">
        <ele>267.79998779297</ele>
        <time>2023-06-23T10:58:52Z</time>
      </trkpt>
      <trkpt lat="49.42589" lon="5.762">
        <ele>267.20001220703</ele>
        <time>2023-06-23T10:58:53Z</time>
      </trkpt>
      <trkpt lat="49.42593" lon="5.762">
        <ele>266.20001220703</ele>
        <time>2023-06-23T10:58:54Z</time>
      </trkpt>
      <trkpt lat="49.42597" lon="5.76201">
        <ele>265.60000610352</ele>
        <time>2023-06-23T10:58:55Z</time>
      </trkpt>
      <trkpt lat="49.42602" lon="5.762">
        <ele>265</ele>
        <time>2023-06-23T10:58:56Z</time>
      </trkpt>
      <trkpt lat="49.42607" lon="5.76199">
        <ele>264.20001220703</ele>
        <time>2023-06-23T10:58:57Z</time>
      </trkpt>
      <trkpt lat="49.42612" lon="5.76197">
        <ele>263.60000610352</ele>
        <time>2023-06-23T10:58:58Z</time>
      </trkpt>
      <trkpt lat="49.42615" lon="5.76194">
        <ele>262.79998779297</ele>
        <time>2023-06-23T10:58:59Z</time>
      </trkpt>
      <trkpt lat="49.42619" lon="5.7619">
        <ele>262</ele>
        <time>2023-06-23T10:59:00Z</time>
      </trkpt>
      <trkpt lat="49.42621" lon="5.76187">
        <ele>261.60000610352</ele>
        <time>2023-06-23T10:59:01Z</time>
      </trkpt>
      <trkpt lat="49.42623" lon="5.76182">
        <ele>260.79998779297</ele>
        <time>2023-06-23T10:59:02Z</time>
      </trkpt>
      <trkpt lat="49.42623" lon="5.76179">
        <ele>260.20001220703</ele>
        <time>2023-06-23T10:59:03Z</time>
      </trkpt>
      <trkpt lat="49.42625" lon="5.76176">
        <ele>259.60000610352</ele>
        <time>2023-06-23T10:59:04Z</time>
      </trkpt>
      <trkpt lat="49.42626" lon="5.76174">
        <ele>259</ele>
        <time>2023-06-23T10:59:05Z</time>
      </trkpt>
      <trkpt lat="49.42627" lon="5.76173">
        <ele>258.39999389648</ele>
        <time>2023-06-23T10:59:06Z</time>
      </trkpt>
      <trkpt lat="49.42627" lon="5.76171">
        <ele>257.60000610352</ele>
        <time>2023-06-23T10:59:07Z</time>
      </trkpt>
      <trkpt lat="49.42628" lon="5.7617">
        <ele>257</ele>
        <time>2023-06-23T10:59:08Z</time>
      </trkpt>
      <trkpt lat="49.42628" lon="5.76169">
        <ele>256.20001220703</ele>
        <time>2023-06-23T10:59:09Z</time>
      </trkpt>
      <trkpt lat="49.42628" lon="5.76168">
        <ele>255.60000610352</ele>
        <time>2023-06-23T10:59:10Z</time>
      </trkpt>
      <trkpt lat="49.4263" lon="5.76167">
        <ele>255.19999694824</ele>
        <time>2023-06-23T10:59:11Z</time>
      </trkpt>
      <trkpt lat="49.42633" lon="5.76165">
        <ele>254.80000305176</ele>
        <time>2023-06-23T10:59:13Z</time>
      </trkpt>
      <trkpt lat="49.42633" lon="5.76165">
        <ele>254.60000610352</ele>
        <time>2023-06-23T10:59:14Z</time>
      </trkpt>
      <trkpt lat="49.42634" lon="5.76165">
        <ele>254.39999389648</ele>
        <time>2023-06-23T10:59:15Z</time>
      </trkpt>
      <trkpt lat="49.42636" lon="5.76164">
        <ele>254.19999694824</ele>
        <time>2023-06-23T10:59:17Z</time>
      </trkpt>
      <trkpt lat="49.42637" lon="5.76164">
        <ele>254</ele>
        <time>2023-06-23T10:59:19Z</time>
      </trkpt>
      <trkpt lat="49.42636" lon="5.76161">
        <ele>254</ele>
        <time>2023-06-23T10:59:21Z</time>
      </trkpt>
      <trkpt lat="49.42635" lon="5.76156">
        <ele>254</ele>
        <time>2023-06-23T10:59:23Z</time>
      </trkpt>
      <trkpt lat="49.42633" lon="5.76149">
        <ele>254</ele>
        <time>2023-06-23T10:59:25Z</time>
      </trkpt>
      <trkpt lat="49.4263" lon="5.76142">
        <ele>253.80000305176</ele>
        <time>2023-06-23T10:59:27Z</time>
      </trkpt>
      <trkpt lat="49.42628" lon="5.76138">
        <ele>253.80000305176</ele>
        <time>2023-06-23T10:59:28Z</time>
      </trkpt>
      <trkpt lat="49.42626" lon="5.76134">
        <ele>253.60000610352</ele>
        <time>2023-06-23T10:59:29Z</time>
      </trkpt>
      <trkpt lat="49.42623" lon="5.76129">
        <ele>253.39999389648</ele>
        <time>2023-06-23T10:59:30Z</time>
      </trkpt>
      <trkpt lat="49.42621" lon="5.76125">
        <ele>253.19999694824</ele>
        <time>2023-06-23T10:59:31Z</time>
      </trkpt>
      <trkpt lat="49.42618" lon="5.76115">
        <ele>251.80000305176</ele>
        <time>2023-06-23T10:59:33Z</time>
      </trkpt>
      <trkpt lat="49.42615" lon="5.76107">
        <ele>251.19999694824</ele>
        <time>2023-06-23T10:59:35Z</time>
      </trkpt>
      <trkpt lat="49.42614" lon="5.76102">
        <ele>250.80000305176</ele>
        <time>2023-06-23T10:59:36Z</time>
      </trkpt>
      <trkpt lat="49.42613" lon="5.76097">
        <ele>250.39999389648</ele>
        <time>2023-06-23T10:59:37Z</time>
      </trkpt>
      <trkpt lat="49.4261" lon="5.76084">
        <ele>250</ele>
        <time>2023-06-23T10:59:39Z</time>
      </trkpt>
      <trkpt lat="49.42609" lon="5.76078">
        <ele>249.60000610352</ele>
        <time>2023-06-23T10:59:40Z</time>
      </trkpt>
      <trkpt lat="49.42609" lon="5.76073">
        <ele>249.60000610352</ele>
        <time>2023-06-23T10:59:41Z</time>
      </trkpt>
      <trkpt lat="49.42608" lon="5.76063">
        <ele>249.39999389648</ele>
        <time>2023-06-23T10:59:43Z</time>
      </trkpt>
      <trkpt lat="49.4261" lon="5.76055">
        <ele>249.39999389648</ele>
        <time>2023-06-23T10:59:45Z</time>
      </trkpt>
      <trkpt lat="49.42611" lon="5.76051">
        <ele>249.39999389648</ele>
        <time>2023-06-23T10:59:47Z</time>
      </trkpt>
      <trkpt lat="49.42612" lon="5.7605">
        <ele>249.39999389648</ele>
        <time>2023-06-23T10:59:48Z</time>
      </trkpt>
      <trkpt lat="49.42612" lon="5.76048">
        <ele>249.39999389648</ele>
        <time>2023-06-23T10:59:49Z</time>
      </trkpt>
      <trkpt lat="49.42613" lon="5.76044">
        <ele>249.39999389648</ele>
        <time>2023-06-23T10:59:51Z</time>
      </trkpt>
      <trkpt lat="49.42613" lon="5.7604">
        <ele>249.60000610352</ele>
        <time>2023-06-23T10:59:53Z</time>
      </trkpt>
      <trkpt lat="49.42614" lon="5.76038">
        <ele>249.80000305176</ele>
        <time>2023-06-23T10:59:54Z</time>
      </trkpt>
      <trkpt lat="49.42614" lon="5.76036">
        <ele>250.19999694824</ele>
        <time>2023-06-23T10:59:55Z</time>
      </trkpt>
      <trkpt lat="49.42614" lon="5.76031">
        <ele>251</ele>
        <time>2023-06-23T10:59:57Z</time>
      </trkpt>
      <trkpt lat="49.42616" lon="5.76026">
        <ele>252</ele>
        <time>2023-06-23T10:59:59Z</time>
      </trkpt>
      <trkpt lat="49.42617" lon="5.76023">
        <ele>252.39999389648</ele>
        <time>2023-06-23T11:00:00Z</time>
      </trkpt>
      <trkpt lat="49.42619" lon="5.76021">
        <ele>252.60000610352</ele>
        <time>2023-06-23T11:00:01Z</time>
      </trkpt>
      <trkpt lat="49.4262" lon="5.76019">
        <ele>252.80000305176</ele>
        <time>2023-06-23T11:00:02Z</time>
      </trkpt>
      <trkpt lat="49.42621" lon="5.76018">
        <ele>253.19999694824</ele>
        <time>2023-06-23T11:00:03Z</time>
      </trkpt>
      <trkpt lat="49.42623" lon="5.76017">
        <ele>253.39999389648</ele>
        <time>2023-06-23T11:00:04Z</time>
      </trkpt>
      <trkpt lat="49.42624" lon="5.76015">
        <ele>253.39999389648</ele>
        <time>2023-06-23T11:00:05Z</time>
      </trkpt>
      <trkpt lat="49.42625" lon="5.76014">
        <ele>253.39999389648</ele>
        <time>2023-06-23T11:00:06Z</time>
      </trkpt>
      <trkpt lat="49.42626" lon="5.76013">
        <ele>253.80000305176</ele>
        <time>2023-06-23T11:00:07Z</time>
      </trkpt>
      <trkpt lat="49.42629" lon="5.76013">
        <ele>254.60000610352</ele>
        <time>2023-06-23T11:00:08Z</time>
      </trkpt>
      <trkpt lat="49.4263" lon="5.76012">
        <ele>254.80000305176</ele>
        <time>2023-06-23T11:00:09Z</time>
      </trkpt>
      <trkpt lat="49.42634" lon="5.7601">
        <ele>255.60000610352</ele>
        <time>2023-06-23T11:00:11Z</time>
      </trkpt>
      <trkpt lat="49.42637" lon="5.76009">
        <ele>256.60000610352</ele>
        <time>2023-06-23T11:00:13Z</time>
      </trkpt>
      <trkpt lat="49.42638" lon="5.76008">
        <ele>257</ele>
        <time>2023-06-23T11:00:14Z</time>
      </trkpt>
      <trkpt lat="49.42638" lon="5.76007">
        <ele>257.39999389648</ele>
        <time>2023-06-23T11:00:15Z</time>
      </trkpt>
      <trkpt lat="49.4264" lon="5.76007">
        <ele>258.20001220703</ele>
        <time>2023-06-23T11:00:17Z</time>
      </trkpt>
      <trkpt lat="49.42642" lon="5.76007">
        <ele>259</ele>
        <time>2023-06-23T11:00:19Z</time>
      </trkpt>
      <trkpt lat="49.42642" lon="5.76006">
        <ele>259.20001220703</ele>
        <time>2023-06-23T11:00:20Z</time>
      </trkpt>
      <trkpt lat="49.42643" lon="5.76006">
        <ele>259.60000610352</ele>
        <time>2023-06-23T11:00:21Z</time>
      </trkpt>
      <trkpt lat="49.42644" lon="5.76006">
        <ele>260</ele>
        <time>2023-06-23T11:00:22Z</time>
      </trkpt>
      <trkpt lat="49.42644" lon="5.76007">
        <ele>260.39999389648</ele>
        <time>2023-06-23T11:00:23Z</time>
      </trkpt>
      <trkpt lat="49.42646" lon="5.76007">
        <ele>261.20001220703</ele>
        <time>2023-06-23T11:00:25Z</time>
      </trkpt>
      <trkpt lat="49.42647" lon="5.76007">
        <ele>261.39999389648</ele>
        <time>2023-06-23T11:00:26Z</time>
      </trkpt>
      <trkpt lat="49.42648" lon="5.76007">
        <ele>261.79998779297</ele>
        <time>2023-06-23T11:00:27Z</time>
      </trkpt>
      <trkpt lat="49.42649" lon="5.76008">
        <ele>262.39999389648</ele>
        <time>2023-06-23T11:00:29Z</time>
      </trkpt>
      <trkpt lat="49.4265" lon="5.76009">
        <ele>262.60000610352</ele>
        <time>2023-06-23T11:00:30Z</time>
      </trkpt>
      <trkpt lat="49.42651" lon="5.76009">
        <ele>263</ele>
        <time>2023-06-23T11:00:31Z</time>
      </trkpt>
      <trkpt lat="49.42653" lon="5.76009">
        <ele>263.60000610352</ele>
        <time>2023-06-23T11:00:33Z</time>
      </trkpt>
      <trkpt lat="49.42654" lon="5.7601">
        <ele>263.79998779297</ele>
        <time>2023-06-23T11:00:34Z</time>
      </trkpt>
      <trkpt lat="49.42655" lon="5.7601">
        <ele>264.39999389648</ele>
        <time>2023-06-23T11:00:35Z</time>
      </trkpt>
      <trkpt lat="49.42657" lon="5.7601">
        <ele>264.79998779297</ele>
        <time>2023-06-23T11:00:37Z</time>
      </trkpt>
      <trkpt lat="49.42659" lon="5.76011">
        <ele>265.39999389648</ele>
        <time>2023-06-23T11:00:39Z</time>
      </trkpt>
      <trkpt lat="49.4266" lon="5.76011">
        <ele>265.79998779297</ele>
        <time>2023-06-23T11:00:41Z</time>
      </trkpt>
      <trkpt lat="49.42662" lon="5.76011">
        <ele>266.39999389648</ele>
        <time>2023-06-23T11:00:43Z</time>
      </trkpt>
      <trkpt lat="49.42664" lon="5.76012">
        <ele>267</ele>
        <time>2023-06-23T11:00:45Z</time>
      </trkpt>
      <trkpt lat="49.42666" lon="5.76012">
        <ele>267.39999389648</ele>
        <time>2023-06-23T11:00:47Z</time>
      </trkpt>
      <trkpt lat="49.42667" lon="5.76013">
        <ele>268</ele>
        <time>2023-06-23T11:00:49Z</time>
      </trkpt>
      <trkpt lat="49.42669" lon="5.76013">
        <ele>268.60000610352</ele>
        <time>2023-06-23T11:00:51Z</time>
      </trkpt>
      <trkpt lat="49.4267" lon="5.76013">
        <ele>269.20001220703</ele>
        <time>2023-06-23T11:00:53Z</time>
      </trkpt>
      <trkpt lat="49.42672" lon="5.76014">
        <ele>269.60000610352</ele>
        <time>2023-06-23T11:00:55Z</time>
      </trkpt>
      <trkpt lat="49.42673" lon="5.76014">
        <ele>270.20001220703</ele>
        <time>2023-06-23T11:00:57Z</time>
      </trkpt>
      <trkpt lat="49.42675" lon="5.76014">
        <ele>270.60000610352</ele>
        <time>2023-06-23T11:00:59Z</time>
      </trkpt>
      <trkpt lat="49.42679" lon="5.76014">
        <ele>271.20001220703</ele>
        <time>2023-06-23T11:01:01Z</time>
      </trkpt>
      <trkpt lat="49.42682" lon="5.76014">
        <ele>272</ele>
        <time>2023-06-23T11:01:03Z</time>
      </trkpt>
      <trkpt lat="49.42683" lon="5.76014">
        <ele>272.20001220703</ele>
        <time>2023-06-23T11:01:04Z</time>
      </trkpt>
      <trkpt lat="49.42684" lon="5.76014">
        <ele>272.60000610352</ele>
        <time>2023-06-23T11:01:05Z</time>
      </trkpt>
      <trkpt lat="49.42687" lon="5.76014">
        <ele>273</ele>
        <time>2023-06-23T11:01:07Z</time>
      </trkpt>
      <trkpt lat="49.42689" lon="5.76015">
        <ele>273.79998779297</ele>
        <time>2023-06-23T11:01:09Z</time>
      </trkpt>
      <trkpt lat="49.42691" lon="5.76015">
        <ele>274.39999389648</ele>
        <time>2023-06-23T11:01:11Z</time>
      </trkpt>
      <trkpt lat="49.42694" lon="5.76016">
        <ele>274.79998779297</ele>
        <time>2023-06-23T11:01:13Z</time>
      </trkpt>
      <trkpt lat="49.42696" lon="5.76017">
        <ele>275.39999389648</ele>
        <time>2023-06-23T11:01:15Z</time>
      </trkpt>
      <trkpt lat="49.42699" lon="5.76017">
        <ele>275.79998779297</ele>
        <time>2023-06-23T11:01:17Z</time>
      </trkpt>
      <trkpt lat="49.427" lon="5.76017">
        <ele>276</ele>
        <time>2023-06-23T11:01:18Z</time>
      </trkpt>
      <trkpt lat="49.42701" lon="5.76017">
        <ele>276.39999389648</ele>
        <time>2023-06-23T11:01:19Z</time>
      </trkpt>
      <trkpt lat="49.42702" lon="5.76017">
        <ele>276.79998779297</ele>
        <time>2023-06-23T11:01:21Z</time>
      </trkpt>
      <trkpt lat="49.42704" lon="5.76017">
        <ele>277</ele>
        <time>2023-06-23T11:01:22Z</time>
      </trkpt>
      <trkpt lat="49.42704" lon="5.76016">
        <ele>277.20001220703</ele>
        <time>2023-06-23T11:01:23Z</time>
      </trkpt>
      <trkpt lat="49.42706" lon="5.76015">
        <ele>277.60000610352</ele>
        <time>2023-06-23T11:01:25Z</time>
      </trkpt>
      <trkpt lat="49.42708" lon="5.76014">
        <ele>278</ele>
        <time>2023-06-23T11:01:27Z</time>
      </trkpt>
      <trkpt lat="49.42709" lon="5.76013">
        <ele>278.20001220703</ele>
        <time>2023-06-23T11:01:28Z</time>
      </trkpt>
      <trkpt lat="49.4271" lon="5.76012">
        <ele>278.60000610352</ele>
        <time>2023-06-23T11:01:29Z</time>
      </trkpt>
      <trkpt lat="49.42711" lon="5.7601">
        <ele>279</ele>
        <time>2023-06-23T11:01:31Z</time>
      </trkpt>
      <trkpt lat="49.42712" lon="5.76008">
        <ele>279.20001220703</ele>
        <time>2023-06-23T11:01:32Z</time>
      </trkpt>
      <trkpt lat="49.42713" lon="5.76007">
        <ele>279.39999389648</ele>
        <time>2023-06-23T11:01:33Z</time>
      </trkpt>
      <trkpt lat="49.42714" lon="5.76006">
        <ele>279.79998779297</ele>
        <time>2023-06-23T11:01:35Z</time>
      </trkpt>
      <trkpt lat="49.42715" lon="5.76003">
        <ele>280.20001220703</ele>
        <time>2023-06-23T11:01:37Z</time>
      </trkpt>
      <trkpt lat="49.42717" lon="5.76002">
        <ele>280.60000610352</ele>
        <time>2023-06-23T11:01:39Z</time>
      </trkpt>
      <trkpt lat="49.42718" lon="5.76">
        <ele>281.20001220703</ele>
        <time>2023-06-23T11:01:41Z</time>
      </trkpt>
      <trkpt lat="49.42718" lon="5.76">
        <ele>281.39999389648</ele>
        <time>2023-06-23T11:01:42Z</time>
      </trkpt>
      <trkpt lat="49.42721" lon="5.75999">
        <ele>281.60000610352</ele>
        <time>2023-06-23T11:01:43Z</time>
      </trkpt>
      <trkpt lat="49.42722" lon="5.75997">
        <ele>282</ele>
        <time>2023-06-23T11:01:45Z</time>
      </trkpt>
      <trkpt lat="49.42723" lon="5.75995">
        <ele>282.39999389648</ele>
        <time>2023-06-23T11:01:47Z</time>
      </trkpt>
      <trkpt lat="49.42724" lon="5.75992">
        <ele>282.79998779297</ele>
        <time>2023-06-23T11:01:49Z</time>
      </trkpt>
      <trkpt lat="49.42725" lon="5.7599">
        <ele>283.20001220703</ele>
        <time>2023-06-23T11:01:51Z</time>
      </trkpt>
      <trkpt lat="49.42726" lon="5.75989">
        <ele>283.39999389648</ele>
        <time>2023-06-23T11:01:52Z</time>
      </trkpt>
      <trkpt lat="49.42727" lon="5.75988">
        <ele>283.79998779297</ele>
        <time>2023-06-23T11:01:53Z</time>
      </trkpt>
      <trkpt lat="49.42728" lon="5.75986">
        <ele>284.20001220703</ele>
        <time>2023-06-23T11:01:54Z</time>
      </trkpt>
      <trkpt lat="49.42729" lon="5.75985">
        <ele>284.39999389648</ele>
        <time>2023-06-23T11:01:55Z</time>
      </trkpt>
      <trkpt lat="49.4273" lon="5.75984">
        <ele>284.60000610352</ele>
        <time>2023-06-23T11:01:56Z</time>
      </trkpt>
      <trkpt lat="49.42732" lon="5.75983">
        <ele>285</ele>
        <time>2023-06-23T11:01:57Z</time>
      </trkpt>
      <trkpt lat="49.42734" lon="5.75981">
        <ele>285.39999389648</ele>
        <time>2023-06-23T11:01:59Z</time>
      </trkpt>
      <trkpt lat="49.42736" lon="5.7598">
        <ele>285.60000610352</ele>
        <time>2023-06-23T11:02:00Z</time>
      </trkpt>
      <trkpt lat="49.42737" lon="5.75979">
        <ele>285.60000610352</ele>
        <time>2023-06-23T11:02:01Z</time>
      </trkpt>
      <trkpt lat="49.4274" lon="5.75977">
        <ele>286</ele>
        <time>2023-06-23T11:02:03Z</time>
      </trkpt>
      <trkpt lat="49.42743" lon="5.75976">
        <ele>286.20001220703</ele>
        <time>2023-06-23T11:02:05Z</time>
      </trkpt>
      <trkpt lat="49.42749" lon="5.75973">
        <ele>286.60000610352</ele>
        <time>2023-06-23T11:02:08Z</time>
      </trkpt>
      <trkpt lat="49.42753" lon="5.7597">
        <ele>286.79998779297</ele>
        <time>2023-06-23T11:02:10Z</time>
      </trkpt>
      <trkpt lat="49.42757" lon="5.75967">
        <ele>287.20001220703</ele>
        <time>2023-06-23T11:02:12Z</time>
      </trkpt>
      <trkpt lat="49.42761" lon="5.75965">
        <ele>287.60000610352</ele>
        <time>2023-06-23T11:02:14Z</time>
      </trkpt>
      <trkpt lat="49.42763" lon="5.75964">
        <ele>287.79998779297</ele>
        <time>2023-06-23T11:02:15Z</time>
      </trkpt>
      <trkpt lat="49.42764" lon="5.75963">
        <ele>288</ele>
        <time>2023-06-23T11:02:16Z</time>
      </trkpt>
      <trkpt lat="49.42768" lon="5.75961">
        <ele>288.39999389648</ele>
        <time>2023-06-23T11:02:18Z</time>
      </trkpt>
      <trkpt lat="49.42772" lon="5.7596">
        <ele>288.60000610352</ele>
        <time>2023-06-23T11:02:20Z</time>
      </trkpt>
      <trkpt lat="49.42777" lon="5.75958">
        <ele>288.79998779297</ele>
        <time>2023-06-23T11:02:22Z</time>
      </trkpt>
      <trkpt lat="49.42782" lon="5.75958">
        <ele>289</ele>
        <time>2023-06-23T11:02:24Z</time>
      </trkpt>
      <trkpt lat="49.42787" lon="5.75957">
        <ele>289</ele>
        <time>2023-06-23T11:02:26Z</time>
      </trkpt>
      <trkpt lat="49.42791" lon="5.75958">
        <ele>289.39999389648</ele>
        <time>2023-06-23T11:02:28Z</time>
      </trkpt>
      <trkpt lat="49.42795" lon="5.75957">
        <ele>289.79998779297</ele>
        <time>2023-06-23T11:02:30Z</time>
      </trkpt>
      <trkpt lat="49.42797" lon="5.75956">
        <ele>290</ele>
        <time>2023-06-23T11:02:31Z</time>
      </trkpt>
      <trkpt lat="49.428" lon="5.75956">
        <ele>290.20001220703</ele>
        <time>2023-06-23T11:02:32Z</time>
      </trkpt>
      <trkpt lat="49.42802" lon="5.75956">
        <ele>290.39999389648</ele>
        <time>2023-06-23T11:02:33Z</time>
      </trkpt>
      <trkpt lat="49.42804" lon="5.75955">
        <ele>290.60000610352</ele>
        <time>2023-06-23T11:02:34Z</time>
      </trkpt>
      <trkpt lat="49.42808" lon="5.75955">
        <ele>290.79998779297</ele>
        <time>2023-06-23T11:02:36Z</time>
      </trkpt>
      <trkpt lat="49.42812" lon="5.75954">
        <ele>291</ele>
        <time>2023-06-23T11:02:38Z</time>
      </trkpt>
      <trkpt lat="49.42816" lon="5.75954">
        <ele>291</ele>
        <time>2023-06-23T11:02:40Z</time>
      </trkpt>
      <trkpt lat="49.4282" lon="5.75953">
        <ele>291</ele>
        <time>2023-06-23T11:02:42Z</time>
      </trkpt>
      <trkpt lat="49.42822" lon="5.75953">
        <ele>291</ele>
        <time>2023-06-23T11:02:43Z</time>
      </trkpt>
      <trkpt lat="49.42824" lon="5.75953">
        <ele>291</ele>
        <time>2023-06-23T11:02:44Z</time>
      </trkpt>
      <trkpt lat="49.42828" lon="5.75953">
        <ele>291.20001220703</ele>
        <time>2023-06-23T11:02:46Z</time>
      </trkpt>
      <trkpt lat="49.42832" lon="5.75954">
        <ele>291.39999389648</ele>
        <time>2023-06-23T11:02:48Z</time>
      </trkpt>
      <trkpt lat="49.42833" lon="5.75954">
        <ele>291.60000610352</ele>
        <time>2023-06-23T11:02:49Z</time>
      </trkpt>
      <trkpt lat="49.42835" lon="5.75954">
        <ele>291.60000610352</ele>
        <time>2023-06-23T11:02:50Z</time>
      </trkpt>
      <trkpt lat="49.42838" lon="5.75955">
        <ele>292</ele>
        <time>2023-06-23T11:02:52Z</time>
      </trkpt>
      <trkpt lat="49.42841" lon="5.75955">
        <ele>292.39999389648</ele>
        <time>2023-06-23T11:02:54Z</time>
      </trkpt>
      <trkpt lat="49.42844" lon="5.75955">
        <ele>293</ele>
        <time>2023-06-23T11:02:56Z</time>
      </trkpt>
      <trkpt lat="49.42846" lon="5.75954">
        <ele>293.20001220703</ele>
        <time>2023-06-23T11:02:57Z</time>
      </trkpt>
      <trkpt lat="49.42848" lon="5.75954">
        <ele>293.39999389648</ele>
        <time>2023-06-23T11:02:58Z</time>
      </trkpt>
      <trkpt lat="49.42851" lon="5.75954">
        <ele>293.79998779297</ele>
        <time>2023-06-23T11:03:00Z</time>
      </trkpt>
      <trkpt lat="49.42854" lon="5.75955">
        <ele>294</ele>
        <time>2023-06-23T11:03:02Z</time>
      </trkpt>
      <trkpt lat="49.42856" lon="5.75955">
        <ele>294.20001220703</ele>
        <time>2023-06-23T11:03:03Z</time>
      </trkpt>
      <trkpt lat="49.42857" lon="5.75955">
        <ele>294.39999389648</ele>
        <time>2023-06-23T11:03:04Z</time>
      </trkpt>
      <trkpt lat="49.42861" lon="5.75955">
        <ele>294.60000610352</ele>
        <time>2023-06-23T11:03:06Z</time>
      </trkpt>
      <trkpt lat="49.42864" lon="5.75955">
        <ele>294.79998779297</ele>
        <time>2023-06-23T11:03:08Z</time>
      </trkpt>
      <trkpt lat="49.42868" lon="5.75954">
        <ele>295.20001220703</ele>
        <time>2023-06-23T11:03:10Z</time>
      </trkpt>
      <trkpt lat="49.42871" lon="5.75955">
        <ele>295.60000610352</ele>
        <time>2023-06-23T11:03:12Z</time>
      </trkpt>
      <trkpt lat="49.42874" lon="5.75955">
        <ele>296</ele>
        <time>2023-06-23T11:03:14Z</time>
      </trkpt>
      <trkpt lat="49.42877" lon="5.75955">
        <ele>296.20001220703</ele>
        <time>2023-06-23T11:03:16Z</time>
      </trkpt>
      <trkpt lat="49.42879" lon="5.75956">
        <ele>296.79998779297</ele>
        <time>2023-06-23T11:03:17Z</time>
      </trkpt>
      <trkpt lat="49.42881" lon="5.75956">
        <ele>297</ele>
        <time>2023-06-23T11:03:18Z</time>
      </trkpt>
      <trkpt lat="49.42885" lon="5.75956">
        <ele>297.20001220703</ele>
        <time>2023-06-23T11:03:20Z</time>
      </trkpt>
      <trkpt lat="49.42888" lon="5.75956">
        <ele>297.60000610352</ele>
        <time>2023-06-23T11:03:22Z</time>
      </trkpt>
      <trkpt lat="49.4289" lon="5.75956">
        <ele>297.79998779297</ele>
        <time>2023-06-23T11:03:23Z</time>
      </trkpt>
      <trkpt lat="49.42892" lon="5.75956">
        <ele>298</ele>
        <time>2023-06-23T11:03:24Z</time>
      </trkpt>
      <trkpt lat="49.42895" lon="5.75955">
        <ele>298.60000610352</ele>
        <time>2023-06-23T11:03:26Z</time>
      </trkpt>
      <trkpt lat="49.42899" lon="5.75956">
        <ele>299</ele>
        <time>2023-06-23T11:03:28Z</time>
      </trkpt>
      <trkpt lat="49.42902" lon="5.75955">
        <ele>299.20001220703</ele>
        <time>2023-06-23T11:03:30Z</time>
      </trkpt>
      <trkpt lat="49.42906" lon="5.75956">
        <ele>299.20001220703</ele>
        <time>2023-06-23T11:03:32Z</time>
      </trkpt>
      <trkpt lat="49.42909" lon="5.75955">
        <ele>299.39999389648</ele>
        <time>2023-06-23T11:03:34Z</time>
      </trkpt>
      <trkpt lat="49.42912" lon="5.75954">
        <ele>299.60000610352</ele>
        <time>2023-06-23T11:03:36Z</time>
      </trkpt>
      <trkpt lat="49.42915" lon="5.75953">
        <ele>299.79998779297</ele>
        <time>2023-06-23T11:03:38Z</time>
      </trkpt>
      <trkpt lat="49.42919" lon="5.75953">
        <ele>300</ele>
        <time>2023-06-23T11:03:40Z</time>
      </trkpt>
      <trkpt lat="49.42922" lon="5.75952">
        <ele>300.39999389648</ele>
        <time>2023-06-23T11:03:42Z</time>
      </trkpt>
      <trkpt lat="49.42925" lon="5.75951">
        <ele>300.79998779297</ele>
        <time>2023-06-23T11:03:44Z</time>
      </trkpt>
      <trkpt lat="49.42927" lon="5.75951">
        <ele>301.20001220703</ele>
        <time>2023-06-23T11:03:45Z</time>
      </trkpt>
      <trkpt lat="49.42928" lon="5.75952">
        <ele>301.39999389648</ele>
        <time>2023-06-23T11:03:46Z</time>
      </trkpt>
      <trkpt lat="49.42932" lon="5.75952">
        <ele>301.79998779297</ele>
        <time>2023-06-23T11:03:48Z</time>
      </trkpt>
      <trkpt lat="49.42935" lon="5.75952">
        <ele>302</ele>
        <time>2023-06-23T11:03:50Z</time>
      </trkpt>
      <trkpt lat="49.42938" lon="5.75952">
        <ele>302.39999389648</ele>
        <time>2023-06-23T11:03:52Z</time>
      </trkpt>
      <trkpt lat="49.4294" lon="5.75952">
        <ele>302.60000610352</ele>
        <time>2023-06-23T11:03:53Z</time>
      </trkpt>
      <trkpt lat="49.42942" lon="5.75952">
        <ele>302.79998779297</ele>
        <time>2023-06-23T11:03:54Z</time>
      </trkpt>
      <trkpt lat="49.42945" lon="5.75952">
        <ele>303.20001220703</ele>
        <time>2023-06-23T11:03:56Z</time>
      </trkpt>
      <trkpt lat="49.42946" lon="5.75953">
        <ele>303.39999389648</ele>
        <time>2023-06-23T11:03:57Z</time>
      </trkpt>
      <trkpt lat="49.42948" lon="5.75954">
        <ele>303.60000610352</ele>
        <time>2023-06-23T11:03:58Z</time>
      </trkpt>
      <trkpt lat="49.4295" lon="5.75955">
        <ele>304</ele>
        <time>2023-06-23T11:04:00Z</time>
      </trkpt>
      <trkpt lat="49.42952" lon="5.75956">
        <ele>304.39999389648</ele>
        <time>2023-06-23T11:04:02Z</time>
      </trkpt>
      <trkpt lat="49.42954" lon="5.75956">
        <ele>304.60000610352</ele>
        <time>2023-06-23T11:04:03Z</time>
      </trkpt>
      <trkpt lat="49.42955" lon="5.75957">
        <ele>304.79998779297</ele>
        <time>2023-06-23T11:04:04Z</time>
      </trkpt>
      <trkpt lat="49.42958" lon="5.75959">
        <ele>305.20001220703</ele>
        <time>2023-06-23T11:04:06Z</time>
      </trkpt>
      <trkpt lat="49.42959" lon="5.7596">
        <ele>305.39999389648</ele>
        <time>2023-06-23T11:04:07Z</time>
      </trkpt>
      <trkpt lat="49.42961" lon="5.75961">
        <ele>305.60000610352</ele>
        <time>2023-06-23T11:04:08Z</time>
      </trkpt>
      <trkpt lat="49.42962" lon="5.75962">
        <ele>305.79998779297</ele>
        <time>2023-06-23T11:04:09Z</time>
      </trkpt>
      <trkpt lat="49.42964" lon="5.75964">
        <ele>306</ele>
        <time>2023-06-23T11:04:11Z</time>
      </trkpt>
      <trkpt lat="49.42966" lon="5.75965">
        <ele>306.60000610352</ele>
        <time>2023-06-23T11:04:13Z</time>
      </trkpt>
      <trkpt lat="49.42968" lon="5.75967">
        <ele>306.79998779297</ele>
        <time>2023-06-23T11:04:14Z</time>
      </trkpt>
      <trkpt lat="49.4297" lon="5.75969">
        <ele>306.79998779297</ele>
        <time>2023-06-23T11:04:15Z</time>
      </trkpt>
      <trkpt lat="49.42972" lon="5.75971">
        <ele>307.20001220703</ele>
        <time>2023-06-23T11:04:17Z</time>
      </trkpt>
      <trkpt lat="49.42976" lon="5.75977">
        <ele>307.60000610352</ele>
        <time>2023-06-23T11:04:20Z</time>
      </trkpt>
      <trkpt lat="49.42978" lon="5.75979">
        <ele>307.79998779297</ele>
        <time>2023-06-23T11:04:21Z</time>
      </trkpt>
      <trkpt lat="49.42979" lon="5.75981">
        <ele>307.79998779297</ele>
        <time>2023-06-23T11:04:22Z</time>
      </trkpt>
      <trkpt lat="49.42983" lon="5.75985">
        <ele>308.39999389648</ele>
        <time>2023-06-23T11:04:24Z</time>
      </trkpt>
      <trkpt lat="49.42986" lon="5.75989">
        <ele>308.79998779297</ele>
        <time>2023-06-23T11:04:26Z</time>
      </trkpt>
      <trkpt lat="49.42989" lon="5.75993">
        <ele>309.20001220703</ele>
        <time>2023-06-23T11:04:28Z</time>
      </trkpt>
      <trkpt lat="49.42991" lon="5.75996">
        <ele>309.60000610352</ele>
        <time>2023-06-23T11:04:30Z</time>
      </trkpt>
      <trkpt lat="49.42992" lon="5.75998">
        <ele>309.79998779297</ele>
        <time>2023-06-23T11:04:31Z</time>
      </trkpt>
      <trkpt lat="49.42993" lon="5.76">
        <ele>310</ele>
        <time>2023-06-23T11:04:32Z</time>
      </trkpt>
      <trkpt lat="49.42995" lon="5.76003">
        <ele>310.20001220703</ele>
        <time>2023-06-23T11:04:34Z</time>
      </trkpt>
      <trkpt lat="49.42998" lon="5.76007">
        <ele>310.60000610352</ele>
        <time>2023-06-23T11:04:36Z</time>
      </trkpt>
      <trkpt lat="49.43001" lon="5.76011">
        <ele>310.79998779297</ele>
        <time>2023-06-23T11:04:38Z</time>
      </trkpt>
      <trkpt lat="49.43005" lon="5.76014">
        <ele>311</ele>
        <time>2023-06-23T11:04:40Z</time>
      </trkpt>
      <trkpt lat="49.43006" lon="5.76015">
        <ele>311.20001220703</ele>
        <time>2023-06-23T11:04:41Z</time>
      </trkpt>
      <trkpt lat="49.43008" lon="5.76016">
        <ele>311.39999389648</ele>
        <time>2023-06-23T11:04:42Z</time>
      </trkpt>
      <trkpt lat="49.43012" lon="5.76018">
        <ele>311.60000610352</ele>
        <time>2023-06-23T11:04:44Z</time>
      </trkpt>
      <trkpt lat="49.43015" lon="5.7602">
        <ele>311.79998779297</ele>
        <time>2023-06-23T11:04:46Z</time>
      </trkpt>
      <trkpt lat="49.43017" lon="5.7602">
        <ele>312</ele>
        <time>2023-06-23T11:04:47Z</time>
      </trkpt>
      <trkpt lat="49.43018" lon="5.76021">
        <ele>312</ele>
        <time>2023-06-23T11:04:48Z</time>
      </trkpt>
      <trkpt lat="49.4302" lon="5.76021">
        <ele>312.20001220703</ele>
        <time>2023-06-23T11:04:49Z</time>
      </trkpt>
      <trkpt lat="49.43022" lon="5.76021">
        <ele>312.39999389648</ele>
        <time>2023-06-23T11:04:50Z</time>
      </trkpt>
      <trkpt lat="49.43025" lon="5.7602">
        <ele>312.60000610352</ele>
        <time>2023-06-23T11:04:52Z</time>
      </trkpt>
      <trkpt lat="49.43029" lon="5.76019">
        <ele>313</ele>
        <time>2023-06-23T11:04:54Z</time>
      </trkpt>
      <trkpt lat="49.4303" lon="5.76019">
        <ele>313.20001220703</ele>
        <time>2023-06-23T11:04:55Z</time>
      </trkpt>
      <trkpt lat="49.43032" lon="5.76019">
        <ele>313.39999389648</ele>
        <time>2023-06-23T11:04:56Z</time>
      </trkpt>
      <trkpt lat="49.43035" lon="5.76018">
        <ele>314</ele>
        <time>2023-06-23T11:04:58Z</time>
      </trkpt>
      <trkpt lat="49.43038" lon="5.76017">
        <ele>314.39999389648</ele>
        <time>2023-06-23T11:05:00Z</time>
      </trkpt>
      <trkpt lat="49.43042" lon="5.76016">
        <ele>314.60000610352</ele>
        <time>2023-06-23T11:05:02Z</time>
      </trkpt>
      <trkpt lat="49.43045" lon="5.76016">
        <ele>315</ele>
        <time>2023-06-23T11:05:04Z</time>
      </trkpt>
      <trkpt lat="49.43047" lon="5.76016">
        <ele>315.39999389648</ele>
        <time>2023-06-23T11:05:05Z</time>
      </trkpt>
      <trkpt lat="49.43048" lon="5.76016">
        <ele>315.39999389648</ele>
        <time>2023-06-23T11:05:06Z</time>
      </trkpt>
      <trkpt lat="49.43052" lon="5.76015">
        <ele>315.79998779297</ele>
        <time>2023-06-23T11:05:08Z</time>
      </trkpt>
      <trkpt lat="49.43054" lon="5.76015">
        <ele>315.79998779297</ele>
        <time>2023-06-23T11:05:09Z</time>
      </trkpt>
      <trkpt lat="49.43056" lon="5.76014">
        <ele>316</ele>
        <time>2023-06-23T11:05:10Z</time>
      </trkpt>
      <trkpt lat="49.43059" lon="5.76013">
        <ele>316.39999389648</ele>
        <time>2023-06-23T11:05:12Z</time>
      </trkpt>
      <trkpt lat="49.43064" lon="5.76012">
        <ele>316.60000610352</ele>
        <time>2023-06-23T11:05:14Z</time>
      </trkpt>
      <trkpt lat="49.43066" lon="5.76011">
        <ele>316.79998779297</ele>
        <time>2023-06-23T11:05:15Z</time>
      </trkpt>
      <trkpt lat="49.43068" lon="5.76011">
        <ele>317</ele>
        <time>2023-06-23T11:05:16Z</time>
      </trkpt>
      <trkpt lat="49.43072" lon="5.7601">
        <ele>317.20001220703</ele>
        <time>2023-06-23T11:05:18Z</time>
      </trkpt>
      <trkpt lat="49.43077" lon="5.76008">
        <ele>317.39999389648</ele>
        <time>2023-06-23T11:05:20Z</time>
      </trkpt>
      <trkpt lat="49.43081" lon="5.76006">
        <ele>317.39999389648</ele>
        <time>2023-06-23T11:05:22Z</time>
      </trkpt>
      <trkpt lat="49.43083" lon="5.76005">
        <ele>317.39999389648</ele>
        <time>2023-06-23T11:05:23Z</time>
      </trkpt>
      <trkpt lat="49.43085" lon="5.76004">
        <ele>317.60000610352</ele>
        <time>2023-06-23T11:05:24Z</time>
      </trkpt>
      <trkpt lat="49.43089" lon="5.76002">
        <ele>318</ele>
        <time>2023-06-23T11:05:26Z</time>
      </trkpt>
      <trkpt lat="49.43094" lon="5.76">
        <ele>318.20001220703</ele>
        <time>2023-06-23T11:05:28Z</time>
      </trkpt>
      <trkpt lat="49.43098" lon="5.75998">
        <ele>318.39999389648</ele>
        <time>2023-06-23T11:05:30Z</time>
      </trkpt>
      <trkpt lat="49.431" lon="5.75997">
        <ele>318.39999389648</ele>
        <time>2023-06-23T11:05:31Z</time>
      </trkpt>
      <trkpt lat="49.43103" lon="5.75996">
        <ele>318.79998779297</ele>
        <time>2023-06-23T11:05:32Z</time>
      </trkpt>
      <trkpt lat="49.43106" lon="5.75994">
        <ele>319.20001220703</ele>
        <time>2023-06-23T11:05:34Z</time>
      </trkpt>
      <trkpt lat="49.4311" lon="5.75993">
        <ele>319.60000610352</ele>
        <time>2023-06-23T11:05:36Z</time>
      </trkpt>
      <trkpt lat="49.43114" lon="5.75993">
        <ele>319.79998779297</ele>
        <time>2023-06-23T11:05:38Z</time>
      </trkpt>
      <trkpt lat="49.43118" lon="5.75994">
        <ele>320</ele>
        <time>2023-06-23T11:05:40Z</time>
      </trkpt>
      <trkpt lat="49.43123" lon="5.75995">
        <ele>320.20001220703</ele>
        <time>2023-06-23T11:05:42Z</time>
      </trkpt>
      <trkpt lat="49.43128" lon="5.75996">
        <ele>320.60000610352</ele>
        <time>2023-06-23T11:05:44Z</time>
      </trkpt>
      <trkpt lat="49.43131" lon="5.75997">
        <ele>320.60000610352</ele>
        <time>2023-06-23T11:05:45Z</time>
      </trkpt>
      <trkpt lat="49.43134" lon="5.75997">
        <ele>320.79998779297</ele>
        <time>2023-06-23T11:05:46Z</time>
      </trkpt>
      <trkpt lat="49.43136" lon="5.75998">
        <ele>321</ele>
        <time>2023-06-23T11:05:47Z</time>
      </trkpt>
      <trkpt lat="49.43142" lon="5.75998">
        <ele>321.20001220703</ele>
        <time>2023-06-23T11:05:49Z</time>
      </trkpt>
      <trkpt lat="49.43148" lon="5.75999">
        <ele>321.39999389648</ele>
        <time>2023-06-23T11:05:51Z</time>
      </trkpt>
      <trkpt lat="49.43153" lon="5.76">
        <ele>321.60000610352</ele>
        <time>2023-06-23T11:05:53Z</time>
      </trkpt>
      <trkpt lat="49.43159" lon="5.76002">
        <ele>321.60000610352</ele>
        <time>2023-06-23T11:05:55Z</time>
      </trkpt>
      <trkpt lat="49.43164" lon="5.76004">
        <ele>321.60000610352</ele>
        <time>2023-06-23T11:05:57Z</time>
      </trkpt>
      <trkpt lat="49.43167" lon="5.76005">
        <ele>321.60000610352</ele>
        <time>2023-06-23T11:05:58Z</time>
      </trkpt>
      <trkpt lat="49.43169" lon="5.76006">
        <ele>321.60000610352</ele>
        <time>2023-06-23T11:05:59Z</time>
      </trkpt>
      <trkpt lat="49.43174" lon="5.76008">
        <ele>321.79998779297</ele>
        <time>2023-06-23T11:06:01Z</time>
      </trkpt>
      <trkpt lat="49.43176" lon="5.76009">
        <ele>321.79998779297</ele>
        <time>2023-06-23T11:06:02Z</time>
      </trkpt>
      <trkpt lat="49.43178" lon="5.7601">
        <ele>321.79998779297</ele>
        <time>2023-06-23T11:06:03Z</time>
      </trkpt>
      <trkpt lat="49.43183" lon="5.76011">
        <ele>321.79998779297</ele>
        <time>2023-06-23T11:06:05Z</time>
      </trkpt>
      <trkpt lat="49.43188" lon="5.76011">
        <ele>321.79998779297</ele>
        <time>2023-06-23T11:06:07Z</time>
      </trkpt>
      <trkpt lat="49.43192" lon="5.76009">
        <ele>322</ele>
        <time>2023-06-23T11:06:09Z</time>
      </trkpt>
      <trkpt lat="49.43197" lon="5.76006">
        <ele>322</ele>
        <time>2023-06-23T11:06:11Z</time>
      </trkpt>
      <trkpt lat="49.43201" lon="5.76004">
        <ele>322</ele>
        <time>2023-06-23T11:06:13Z</time>
      </trkpt>
      <trkpt lat="49.43204" lon="5.76001">
        <ele>322</ele>
        <time>2023-06-23T11:06:15Z</time>
      </trkpt>
      <trkpt lat="49.43207" lon="5.76001">
        <ele>322</ele>
        <time>2023-06-23T11:06:16Z</time>
      </trkpt>
      <trkpt lat="49.43209" lon="5.76002">
        <ele>322</ele>
        <time>2023-06-23T11:06:17Z</time>
      </trkpt>
      <trkpt lat="49.43213" lon="5.76006">
        <ele>322</ele>
        <time>2023-06-23T11:06:19Z</time>
      </trkpt>
      <trkpt lat="49.43217" lon="5.76009">
        <ele>322</ele>
        <time>2023-06-23T11:06:21Z</time>
      </trkpt>
      <trkpt lat="49.4322" lon="5.76011">
        <ele>322</ele>
        <time>2023-06-23T11:06:22Z</time>
      </trkpt>
      <trkpt lat="49.43222" lon="5.76013">
        <ele>322</ele>
        <time>2023-06-23T11:06:23Z</time>
      </trkpt>
      <trkpt lat="49.43227" lon="5.76017">
        <ele>322</ele>
        <time>2023-06-23T11:06:25Z</time>
      </trkpt>
      <trkpt lat="49.43231" lon="5.7602">
        <ele>322.20001220703</ele>
        <time>2023-06-23T11:06:27Z</time>
      </trkpt>
      <trkpt lat="49.43235" lon="5.76022">
        <ele>322.39999389648</ele>
        <time>2023-06-23T11:06:29Z</time>
      </trkpt>
      <trkpt lat="49.43237" lon="5.76025">
        <ele>322.60000610352</ele>
        <time>2023-06-23T11:06:30Z</time>
      </trkpt>
      <trkpt lat="49.43239" lon="5.76027">
        <ele>322.79998779297</ele>
        <time>2023-06-23T11:06:31Z</time>
      </trkpt>
      <trkpt lat="49.43244" lon="5.76031">
        <ele>323.20001220703</ele>
        <time>2023-06-23T11:06:33Z</time>
      </trkpt>
      <trkpt lat="49.43249" lon="5.76035">
        <ele>323.60000610352</ele>
        <time>2023-06-23T11:06:35Z</time>
      </trkpt>
      <trkpt lat="49.43253" lon="5.76039">
        <ele>323.79998779297</ele>
        <time>2023-06-23T11:06:37Z</time>
      </trkpt>
      <trkpt lat="49.43257" lon="5.76043">
        <ele>323.79998779297</ele>
        <time>2023-06-23T11:06:39Z</time>
      </trkpt>
      <trkpt lat="49.43262" lon="5.76047">
        <ele>323.79998779297</ele>
        <time>2023-06-23T11:06:41Z</time>
      </trkpt>
      <trkpt lat="49.43264" lon="5.76049">
        <ele>324</ele>
        <time>2023-06-23T11:06:42Z</time>
      </trkpt>
      <trkpt lat="49.43267" lon="5.7605">
        <ele>324</ele>
        <time>2023-06-23T11:06:43Z</time>
      </trkpt>
      <trkpt lat="49.43273" lon="5.76054">
        <ele>324</ele>
        <time>2023-06-23T11:06:45Z</time>
      </trkpt>
      <trkpt lat="49.43278" lon="5.76058">
        <ele>324</ele>
        <time>2023-06-23T11:06:47Z</time>
      </trkpt>
      <trkpt lat="49.43283" lon="5.76062">
        <ele>324</ele>
        <time>2023-06-23T11:06:49Z</time>
      </trkpt>
      <trkpt lat="49.43288" lon="5.76067">
        <ele>324.20001220703</ele>
        <time>2023-06-23T11:06:51Z</time>
      </trkpt>
      <trkpt lat="49.43293" lon="5.76071">
        <ele>324.20001220703</ele>
        <time>2023-06-23T11:06:53Z</time>
      </trkpt>
      <trkpt lat="49.43299" lon="5.76075">
        <ele>324.20001220703</ele>
        <time>2023-06-23T11:06:55Z</time>
      </trkpt>
      <trkpt lat="49.43304" lon="5.7608">
        <ele>324.39999389648</ele>
        <time>2023-06-23T11:06:57Z</time>
      </trkpt>
      <trkpt lat="49.43307" lon="5.76082">
        <ele>324.39999389648</ele>
        <time>2023-06-23T11:06:58Z</time>
      </trkpt>
      <trkpt lat="49.43309" lon="5.76084">
        <ele>324.39999389648</ele>
        <time>2023-06-23T11:06:59Z</time>
      </trkpt>
      <trkpt lat="49.43315" lon="5.76087">
        <ele>324.60000610352</ele>
        <time>2023-06-23T11:07:01Z</time>
      </trkpt>
      <trkpt lat="49.43321" lon="5.76089">
        <ele>324.79998779297</ele>
        <time>2023-06-23T11:07:03Z</time>
      </trkpt>
      <trkpt lat="49.43327" lon="5.76092">
        <ele>325</ele>
        <time>2023-06-23T11:07:05Z</time>
      </trkpt>
      <trkpt lat="49.4333" lon="5.76094">
        <ele>325</ele>
        <time>2023-06-23T11:07:06Z</time>
      </trkpt>
      <trkpt lat="49.43333" lon="5.76095">
        <ele>325</ele>
        <time>2023-06-23T11:07:07Z</time>
      </trkpt>
      <trkpt lat="49.43338" lon="5.76099">
        <ele>325.20001220703</ele>
        <time>2023-06-23T11:07:09Z</time>
      </trkpt>
      <trkpt lat="49.43343" lon="5.76102">
        <ele>325.39999389648</ele>
        <time>2023-06-23T11:07:11Z</time>
      </trkpt>
      <trkpt lat="49.43349" lon="5.76105">
        <ele>325.60000610352</ele>
        <time>2023-06-23T11:07:13Z</time>
      </trkpt>
      <trkpt lat="49.43355" lon="5.76108">
        <ele>325.79998779297</ele>
        <time>2023-06-23T11:07:15Z</time>
      </trkpt>
      <trkpt lat="49.43361" lon="5.76111">
        <ele>325.79998779297</ele>
        <time>2023-06-23T11:07:17Z</time>
      </trkpt>
      <trkpt lat="49.43367" lon="5.76114">
        <ele>326</ele>
        <time>2023-06-23T11:07:19Z</time>
      </trkpt>
      <trkpt lat="49.43373" lon="5.76117">
        <ele>326</ele>
        <time>2023-06-23T11:07:21Z</time>
      </trkpt>
      <trkpt lat="49.43379" lon="5.76118">
        <ele>326</ele>
        <time>2023-06-23T11:07:23Z</time>
      </trkpt>
      <trkpt lat="49.43386" lon="5.7612">
        <ele>326</ele>
        <time>2023-06-23T11:07:25Z</time>
      </trkpt>
      <trkpt lat="49.4339" lon="5.76121">
        <ele>326</ele>
        <time>2023-06-23T11:07:26Z</time>
      </trkpt>
      <trkpt lat="49.43394" lon="5.76121">
        <ele>326</ele>
        <time>2023-06-23T11:07:27Z</time>
      </trkpt>
      <trkpt lat="49.43404" lon="5.7612">
        <ele>326</ele>
        <time>2023-06-23T11:07:29Z</time>
      </trkpt>
      <trkpt lat="49.43414" lon="5.76117">
        <ele>326</ele>
        <time>2023-06-23T11:07:31Z</time>
      </trkpt>
      <trkpt lat="49.43419" lon="5.76115">
        <ele>326</ele>
        <time>2023-06-23T11:07:32Z</time>
      </trkpt>
      <trkpt lat="49.43424" lon="5.76112">
        <ele>325.79998779297</ele>
        <time>2023-06-23T11:07:33Z</time>
      </trkpt>
      <trkpt lat="49.43433" lon="5.76103">
        <ele>325</ele>
        <time>2023-06-23T11:07:35Z</time>
      </trkpt>
      <trkpt lat="49.43437" lon="5.76098">
        <ele>324.79998779297</ele>
        <time>2023-06-23T11:07:36Z</time>
      </trkpt>
      <trkpt lat="49.4344" lon="5.76094">
        <ele>324.60000610352</ele>
        <time>2023-06-23T11:07:37Z</time>
      </trkpt>
      <trkpt lat="49.43442" lon="5.76086">
        <ele>324.20001220703</ele>
        <time>2023-06-23T11:07:39Z</time>
      </trkpt>
      <trkpt lat="49.43442" lon="5.76082">
        <ele>324</ele>
        <time>2023-06-23T11:07:40Z</time>
      </trkpt>
      <trkpt lat="49.43441" lon="5.76078">
        <ele>323.79998779297</ele>
        <time>2023-06-23T11:07:41Z</time>
      </trkpt>
      <trkpt lat="49.4344" lon="5.76068">
        <ele>323.79998779297</ele>
        <time>2023-06-23T11:07:43Z</time>
      </trkpt>
      <trkpt lat="49.4344" lon="5.76062">
        <ele>323.60000610352</ele>
        <time>2023-06-23T11:07:44Z</time>
      </trkpt>
      <trkpt lat="49.4344" lon="5.76056">
        <ele>323.60000610352</ele>
        <time>2023-06-23T11:07:45Z</time>
      </trkpt>
      <trkpt lat="49.43444" lon="5.76047">
        <ele>323.39999389648</ele>
        <time>2023-06-23T11:07:47Z</time>
      </trkpt>
      <trkpt lat="49.43447" lon="5.76045">
        <ele>323.20001220703</ele>
        <time>2023-06-23T11:07:48Z</time>
      </trkpt>
      <trkpt lat="49.43451" lon="5.76044">
        <ele>323.20001220703</ele>
        <time>2023-06-23T11:07:49Z</time>
      </trkpt>
      <trkpt lat="49.43454" lon="5.76043">
        <ele>323.20001220703</ele>
        <time>2023-06-23T11:07:50Z</time>
      </trkpt>
      <trkpt lat="49.43458" lon="5.76043">
        <ele>323.20001220703</ele>
        <time>2023-06-23T11:07:51Z</time>
      </trkpt>
      <trkpt lat="49.43465" lon="5.76041">
        <ele>323.20001220703</ele>
        <time>2023-06-23T11:07:53Z</time>
      </trkpt>
      <trkpt lat="49.43471" lon="5.76041">
        <ele>323.39999389648</ele>
        <time>2023-06-23T11:07:55Z</time>
      </trkpt>
      <trkpt lat="49.43479" lon="5.7604">
        <ele>323.39999389648</ele>
        <time>2023-06-23T11:07:57Z</time>
      </trkpt>
      <trkpt lat="49.43486" lon="5.76039">
        <ele>323.39999389648</ele>
        <time>2023-06-23T11:07:59Z</time>
      </trkpt>
      <trkpt lat="49.43493" lon="5.76038">
        <ele>323.60000610352</ele>
        <time>2023-06-23T11:08:01Z</time>
      </trkpt>
      <trkpt lat="49.435" lon="5.76037">
        <ele>323.60000610352</ele>
        <time>2023-06-23T11:08:03Z</time>
      </trkpt>
      <trkpt lat="49.43506" lon="5.76037">
        <ele>323.60000610352</ele>
        <time>2023-06-23T11:08:05Z</time>
      </trkpt>
      <trkpt lat="49.43513" lon="5.76037">
        <ele>323.60000610352</ele>
        <time>2023-06-23T11:08:07Z</time>
      </trkpt>
      <trkpt lat="49.43517" lon="5.76036">
        <ele>323.60000610352</ele>
        <time>2023-06-23T11:08:08Z</time>
      </trkpt>
      <trkpt lat="49.4352" lon="5.76036">
        <ele>323.60000610352</ele>
        <time>2023-06-23T11:08:09Z</time>
      </trkpt>
      <trkpt lat="49.43527" lon="5.76034">
        <ele>323.60000610352</ele>
        <time>2023-06-23T11:08:11Z</time>
      </trkpt>
      <trkpt lat="49.43535" lon="5.76032">
        <ele>323.60000610352</ele>
        <time>2023-06-23T11:08:13Z</time>
      </trkpt>
      <trkpt lat="49.43538" lon="5.76031">
        <ele>323.39999389648</ele>
        <time>2023-06-23T11:08:14Z</time>
      </trkpt>
      <trkpt lat="49.43543" lon="5.76031">
        <ele>323.39999389648</ele>
        <time>2023-06-23T11:08:15Z</time>
      </trkpt>
      <trkpt lat="49.43551" lon="5.76028">
        <ele>323.20001220703</ele>
        <time>2023-06-23T11:08:17Z</time>
      </trkpt>
      <trkpt lat="49.43556" lon="5.76026">
        <ele>323.20001220703</ele>
        <time>2023-06-23T11:08:18Z</time>
      </trkpt>
      <trkpt lat="49.4356" lon="5.76024">
        <ele>323</ele>
        <time>2023-06-23T11:08:19Z</time>
      </trkpt>
      <trkpt lat="49.43564" lon="5.7602">
        <ele>323</ele>
        <time>2023-06-23T11:08:20Z</time>
      </trkpt>
      <trkpt lat="49.43567" lon="5.76016">
        <ele>323</ele>
        <time>2023-06-23T11:08:21Z</time>
      </trkpt>
      <trkpt lat="49.43575" lon="5.76005">
        <ele>322.79998779297</ele>
        <time>2023-06-23T11:08:23Z</time>
      </trkpt>
      <trkpt lat="49.43578" lon="5.75998">
        <ele>322.60000610352</ele>
        <time>2023-06-23T11:08:24Z</time>
      </trkpt>
      <trkpt lat="49.43581" lon="5.7599">
        <ele>322.39999389648</ele>
        <time>2023-06-23T11:08:25Z</time>
      </trkpt>
      <trkpt lat="49.43587" lon="5.75971">
        <ele>322</ele>
        <time>2023-06-23T11:08:27Z</time>
      </trkpt>
      <trkpt lat="49.43589" lon="5.7596">
        <ele>321.79998779297</ele>
        <time>2023-06-23T11:08:28Z</time>
      </trkpt>
      <trkpt lat="49.43591" lon="5.7595">
        <ele>321.60000610352</ele>
        <time>2023-06-23T11:08:29Z</time>
      </trkpt>
      <trkpt lat="49.43593" lon="5.75938">
        <ele>321.39999389648</ele>
        <time>2023-06-23T11:08:30Z</time>
      </trkpt>
      <trkpt lat="49.43596" lon="5.75926">
        <ele>321</ele>
        <time>2023-06-23T11:08:31Z</time>
      </trkpt>
      <trkpt lat="49.43601" lon="5.75901">
        <ele>319.79998779297</ele>
        <time>2023-06-23T11:08:33Z</time>
      </trkpt>
      <trkpt lat="49.43605" lon="5.75878">
        <ele>318.20001220703</ele>
        <time>2023-06-23T11:08:35Z</time>
      </trkpt>
      <trkpt lat="49.43614" lon="5.75858">
        <ele>316.60000610352</ele>
        <time>2023-06-23T11:08:37Z</time>
      </trkpt>
      <trkpt lat="49.43627" lon="5.75847">
        <ele>315.39999389648</ele>
        <time>2023-06-23T11:08:39Z</time>
      </trkpt>
      <trkpt lat="49.43633" lon="5.75842">
        <ele>314.79998779297</ele>
        <time>2023-06-23T11:08:40Z</time>
      </trkpt>
      <trkpt lat="49.43638" lon="5.75837">
        <ele>314</ele>
        <time>2023-06-23T11:08:41Z</time>
      </trkpt>
      <trkpt lat="49.43643" lon="5.75832">
        <ele>313</ele>
        <time>2023-06-23T11:08:42Z</time>
      </trkpt>
      <trkpt lat="49.43647" lon="5.75826">
        <ele>312.79998779297</ele>
        <time>2023-06-23T11:08:43Z</time>
      </trkpt>
      <trkpt lat="49.43651" lon="5.75821">
        <ele>312.79998779297</ele>
        <time>2023-06-23T11:08:44Z</time>
      </trkpt>
      <trkpt lat="49.43654" lon="5.75815">
        <ele>312.60000610352</ele>
        <time>2023-06-23T11:08:45Z</time>
      </trkpt>
      <trkpt lat="49.43661" lon="5.75804">
        <ele>312.60000610352</ele>
        <time>2023-06-23T11:08:47Z</time>
      </trkpt>
      <trkpt lat="49.43666" lon="5.75794">
        <ele>312.60000610352</ele>
        <time>2023-06-23T11:08:49Z</time>
      </trkpt>
      <trkpt lat="49.43671" lon="5.75782">
        <ele>312.79998779297</ele>
        <time>2023-06-23T11:08:51Z</time>
      </trkpt>
      <trkpt lat="49.43673" lon="5.75777">
        <ele>312.79998779297</ele>
        <time>2023-06-23T11:08:52Z</time>
      </trkpt>
      <trkpt lat="49.43674" lon="5.75771">
        <ele>313</ele>
        <time>2023-06-23T11:08:53Z</time>
      </trkpt>
      <trkpt lat="49.43676" lon="5.75765">
        <ele>313.39999389648</ele>
        <time>2023-06-23T11:08:54Z</time>
      </trkpt>
      <trkpt lat="49.43679" lon="5.7576">
        <ele>313.60000610352</ele>
        <time>2023-06-23T11:08:55Z</time>
      </trkpt>
      <trkpt lat="49.43685" lon="5.7575">
        <ele>314</ele>
        <time>2023-06-23T11:08:57Z</time>
      </trkpt>
      <trkpt lat="49.43689" lon="5.75746">
        <ele>314</ele>
        <time>2023-06-23T11:08:58Z</time>
      </trkpt>
      <trkpt lat="49.43692" lon="5.75742">
        <ele>314</ele>
        <time>2023-06-23T11:08:59Z</time>
      </trkpt>
      <trkpt lat="49.43699" lon="5.75735">
        <ele>314.39999389648</ele>
        <time>2023-06-23T11:09:01Z</time>
      </trkpt>
      <trkpt lat="49.43705" lon="5.7573">
        <ele>314.60000610352</ele>
        <time>2023-06-23T11:09:03Z</time>
      </trkpt>
      <trkpt lat="49.43708" lon="5.75728">
        <ele>314.60000610352</ele>
        <time>2023-06-23T11:09:04Z</time>
      </trkpt>
      <trkpt lat="49.43712" lon="5.75726">
        <ele>314.79998779297</ele>
        <time>2023-06-23T11:09:05Z</time>
      </trkpt>
      <trkpt lat="49.43718" lon="5.75723">
        <ele>314.79998779297</ele>
        <time>2023-06-23T11:09:07Z</time>
      </trkpt>
      <trkpt lat="49.43727" lon="5.75722">
        <ele>315</ele>
        <time>2023-06-23T11:09:09Z</time>
      </trkpt>
      <trkpt lat="49.43734" lon="5.75721">
        <ele>315.20001220703</ele>
        <time>2023-06-23T11:09:11Z</time>
      </trkpt>
      <trkpt lat="49.43742" lon="5.75719">
        <ele>315.39999389648</ele>
        <time>2023-06-23T11:09:13Z</time>
      </trkpt>
      <trkpt lat="49.4375" lon="5.75718">
        <ele>315.60000610352</ele>
        <time>2023-06-23T11:09:15Z</time>
      </trkpt>
      <trkpt lat="49.43757" lon="5.75717">
        <ele>315.79998779297</ele>
        <time>2023-06-23T11:09:17Z</time>
      </trkpt>
      <trkpt lat="49.43764" lon="5.75716">
        <ele>315.79998779297</ele>
        <time>2023-06-23T11:09:19Z</time>
      </trkpt>
      <trkpt lat="49.43771" lon="5.75715">
        <ele>315.79998779297</ele>
        <time>2023-06-23T11:09:21Z</time>
      </trkpt>
      <trkpt lat="49.43778" lon="5.75714">
        <ele>316.20001220703</ele>
        <time>2023-06-23T11:09:23Z</time>
      </trkpt>
      <trkpt lat="49.43784" lon="5.75713">
        <ele>316.39999389648</ele>
        <time>2023-06-23T11:09:25Z</time>
      </trkpt>
      <trkpt lat="49.43791" lon="5.75711">
        <ele>316.79998779297</ele>
        <time>2023-06-23T11:09:27Z</time>
      </trkpt>
      <trkpt lat="49.43797" lon="5.7571">
        <ele>316.60000610352</ele>
        <time>2023-06-23T11:09:29Z</time>
      </trkpt>
      <trkpt lat="49.43803" lon="5.75708">
        <ele>316.79998779297</ele>
        <time>2023-06-23T11:09:31Z</time>
      </trkpt>
      <trkpt lat="49.4381" lon="5.75706">
        <ele>317</ele>
        <time>2023-06-23T11:09:33Z</time>
      </trkpt>
      <trkpt lat="49.43816" lon="5.75704">
        <ele>317.39999389648</ele>
        <time>2023-06-23T11:09:35Z</time>
      </trkpt>
      <trkpt lat="49.43822" lon="5.75702">
        <ele>317.60000610352</ele>
        <time>2023-06-23T11:09:37Z</time>
      </trkpt>
      <trkpt lat="49.43829" lon="5.75699">
        <ele>317.60000610352</ele>
        <time>2023-06-23T11:09:39Z</time>
      </trkpt>
      <trkpt lat="49.43832" lon="5.75698">
        <ele>317.60000610352</ele>
        <time>2023-06-23T11:09:40Z</time>
      </trkpt>
      <trkpt lat="49.43835" lon="5.75696">
        <ele>317.60000610352</ele>
        <time>2023-06-23T11:09:41Z</time>
      </trkpt>
      <trkpt lat="49.43843" lon="5.75692">
        <ele>317.60000610352</ele>
        <time>2023-06-23T11:09:43Z</time>
      </trkpt>
      <trkpt lat="49.4385" lon="5.75689">
        <ele>317.39999389648</ele>
        <time>2023-06-23T11:09:45Z</time>
      </trkpt>
      <trkpt lat="49.43858" lon="5.75686">
        <ele>317.20001220703</ele>
        <time>2023-06-23T11:09:47Z</time>
      </trkpt>
      <trkpt lat="49.43861" lon="5.75684">
        <ele>317</ele>
        <time>2023-06-23T11:09:48Z</time>
      </trkpt>
      <trkpt lat="49.43865" lon="5.75682">
        <ele>317</ele>
        <time>2023-06-23T11:09:49Z</time>
      </trkpt>
      <trkpt lat="49.43873" lon="5.75677">
        <ele>316.60000610352</ele>
        <time>2023-06-23T11:09:51Z</time>
      </trkpt>
      <trkpt lat="49.4388" lon="5.75673">
        <ele>316.60000610352</ele>
        <time>2023-06-23T11:09:53Z</time>
      </trkpt>
      <trkpt lat="49.43887" lon="5.7567">
        <ele>316.39999389648</ele>
        <time>2023-06-23T11:09:55Z</time>
      </trkpt>
      <trkpt lat="49.43894" lon="5.75666">
        <ele>316</ele>
        <time>2023-06-23T11:09:57Z</time>
      </trkpt>
      <trkpt lat="49.43899" lon="5.7566">
        <ele>315.79998779297</ele>
        <time>2023-06-23T11:09:59Z</time>
      </trkpt>
      <trkpt lat="49.43904" lon="5.75652">
        <ele>315.79998779297</ele>
        <time>2023-06-23T11:10:01Z</time>
      </trkpt>
      <trkpt lat="49.4391" lon="5.75644">
        <ele>315.79998779297</ele>
        <time>2023-06-23T11:10:03Z</time>
      </trkpt>
      <trkpt lat="49.43915" lon="5.75639">
        <ele>315.79998779297</ele>
        <time>2023-06-23T11:10:05Z</time>
      </trkpt>
      <trkpt lat="49.43922" lon="5.75635">
        <ele>315.79998779297</ele>
        <time>2023-06-23T11:10:07Z</time>
      </trkpt>
      <trkpt lat="49.43925" lon="5.75634">
        <ele>315.79998779297</ele>
        <time>2023-06-23T11:10:08Z</time>
      </trkpt>
      <trkpt lat="49.43929" lon="5.75633">
        <ele>315.79998779297</ele>
        <time>2023-06-23T11:10:09Z</time>
      </trkpt>
      <trkpt lat="49.43936" lon="5.75629">
        <ele>315.79998779297</ele>
        <time>2023-06-23T11:10:11Z</time>
      </trkpt>
      <trkpt lat="49.43943" lon="5.75626">
        <ele>316</ele>
        <time>2023-06-23T11:10:13Z</time>
      </trkpt>
      <trkpt lat="49.43951" lon="5.75624">
        <ele>316</ele>
        <time>2023-06-23T11:10:15Z</time>
      </trkpt>
      <trkpt lat="49.43954" lon="5.75622">
        <ele>316</ele>
        <time>2023-06-23T11:10:16Z</time>
      </trkpt>
      <trkpt lat="49.43957" lon="5.75621">
        <ele>316.20001220703</ele>
        <time>2023-06-23T11:10:17Z</time>
      </trkpt>
      <trkpt lat="49.43964" lon="5.75618">
        <ele>316.20001220703</ele>
        <time>2023-06-23T11:10:19Z</time>
      </trkpt>
      <trkpt lat="49.43969" lon="5.75616">
        <ele>316.20001220703</ele>
        <time>2023-06-23T11:10:21Z</time>
      </trkpt>
      <trkpt lat="49.43975" lon="5.75613">
        <ele>316.39999389648</ele>
        <time>2023-06-23T11:10:23Z</time>
      </trkpt>
      <trkpt lat="49.43981" lon="5.75611">
        <ele>316.39999389648</ele>
        <time>2023-06-23T11:10:25Z</time>
      </trkpt>
      <trkpt lat="49.43987" lon="5.75609">
        <ele>316.79998779297</ele>
        <time>2023-06-23T11:10:27Z</time>
      </trkpt>
      <trkpt lat="49.43993" lon="5.75608">
        <ele>317.60000610352</ele>
        <time>2023-06-23T11:10:29Z</time>
      </trkpt>
      <trkpt lat="49.43996" lon="5.75608">
        <ele>318</ele>
        <time>2023-06-23T11:10:30Z</time>
      </trkpt>
      <trkpt lat="49.43999" lon="5.75607">
        <ele>318.20001220703</ele>
        <time>2023-06-23T11:10:31Z</time>
      </trkpt>
      <trkpt lat="49.44005" lon="5.75605">
        <ele>318.39999389648</ele>
        <time>2023-06-23T11:10:33Z</time>
      </trkpt>
      <trkpt lat="49.44007" lon="5.75604">
        <ele>318.60000610352</ele>
        <time>2023-06-23T11:10:34Z</time>
      </trkpt>
      <trkpt lat="49.4401" lon="5.75602">
        <ele>318.60000610352</ele>
        <time>2023-06-23T11:10:35Z</time>
      </trkpt>
      <trkpt lat="49.44015" lon="5.75598">
        <ele>318.79998779297</ele>
        <time>2023-06-23T11:10:37Z</time>
      </trkpt>
      <trkpt lat="49.44018" lon="5.75596">
        <ele>319</ele>
        <time>2023-06-23T11:10:38Z</time>
      </trkpt>
      <trkpt lat="49.44021" lon="5.75595">
        <ele>319.20001220703</ele>
        <time>2023-06-23T11:10:39Z</time>
      </trkpt>
      <trkpt lat="49.44025" lon="5.75592">
        <ele>319.39999389648</ele>
        <time>2023-06-23T11:10:41Z</time>
      </trkpt>
      <trkpt lat="49.44027" lon="5.7559">
        <ele>319.60000610352</ele>
        <time>2023-06-23T11:10:42Z</time>
      </trkpt>
      <trkpt lat="49.44029" lon="5.75588">
        <ele>319.60000610352</ele>
        <time>2023-06-23T11:10:43Z</time>
      </trkpt>
      <trkpt lat="49.44033" lon="5.75587">
        <ele>320</ele>
        <time>2023-06-23T11:10:45Z</time>
      </trkpt>
      <trkpt lat="49.44038" lon="5.75585">
        <ele>320</ele>
        <time>2023-06-23T11:10:47Z</time>
      </trkpt>
      <trkpt lat="49.44041" lon="5.75584">
        <ele>320.20001220703</ele>
        <time>2023-06-23T11:10:48Z</time>
      </trkpt>
      <trkpt lat="49.44043" lon="5.75584">
        <ele>320.39999389648</ele>
        <time>2023-06-23T11:10:49Z</time>
      </trkpt>
      <trkpt lat="49.44049" lon="5.75582">
        <ele>320.79998779297</ele>
        <time>2023-06-23T11:10:51Z</time>
      </trkpt>
      <trkpt lat="49.44051" lon="5.75582">
        <ele>321.20001220703</ele>
        <time>2023-06-23T11:10:52Z</time>
      </trkpt>
      <trkpt lat="49.44054" lon="5.75581">
        <ele>321.39999389648</ele>
        <time>2023-06-23T11:10:53Z</time>
      </trkpt>
      <trkpt lat="49.4406" lon="5.75579">
        <ele>321.60000610352</ele>
        <time>2023-06-23T11:10:55Z</time>
      </trkpt>
      <trkpt lat="49.44066" lon="5.75577">
        <ele>321.60000610352</ele>
        <time>2023-06-23T11:10:57Z</time>
      </trkpt>
      <trkpt lat="49.44069" lon="5.75575">
        <ele>321.60000610352</ele>
        <time>2023-06-23T11:10:58Z</time>
      </trkpt>
      <trkpt lat="49.44072" lon="5.75573">
        <ele>321.60000610352</ele>
        <time>2023-06-23T11:10:59Z</time>
      </trkpt>
      <trkpt lat="49.44078" lon="5.7557">
        <ele>322</ele>
        <time>2023-06-23T11:11:01Z</time>
      </trkpt>
      <trkpt lat="49.44084" lon="5.75567">
        <ele>322</ele>
        <time>2023-06-23T11:11:03Z</time>
      </trkpt>
      <trkpt lat="49.44087" lon="5.75566">
        <ele>322.20001220703</ele>
        <time>2023-06-23T11:11:04Z</time>
      </trkpt>
      <trkpt lat="49.4409" lon="5.75564">
        <ele>322.20001220703</ele>
        <time>2023-06-23T11:11:05Z</time>
      </trkpt>
      <trkpt lat="49.44096" lon="5.75561">
        <ele>322.20001220703</ele>
        <time>2023-06-23T11:11:07Z</time>
      </trkpt>
      <trkpt lat="49.44103" lon="5.75557">
        <ele>322.39999389648</ele>
        <time>2023-06-23T11:11:09Z</time>
      </trkpt>
      <trkpt lat="49.44109" lon="5.75554">
        <ele>322.39999389648</ele>
        <time>2023-06-23T11:11:11Z</time>
      </trkpt>
      <trkpt lat="49.44116" lon="5.7555">
        <ele>322.39999389648</ele>
        <time>2023-06-23T11:11:13Z</time>
      </trkpt>
      <trkpt lat="49.44123" lon="5.75546">
        <ele>322.60000610352</ele>
        <time>2023-06-23T11:11:15Z</time>
      </trkpt>
      <trkpt lat="49.44126" lon="5.75544">
        <ele>322.60000610352</ele>
        <time>2023-06-23T11:11:16Z</time>
      </trkpt>
      <trkpt lat="49.4413" lon="5.75542">
        <ele>322.79998779297</ele>
        <time>2023-06-23T11:11:17Z</time>
      </trkpt>
      <trkpt lat="49.44137" lon="5.75539">
        <ele>322.79998779297</ele>
        <time>2023-06-23T11:11:19Z</time>
      </trkpt>
      <trkpt lat="49.44144" lon="5.75535">
        <ele>323</ele>
        <time>2023-06-23T11:11:21Z</time>
      </trkpt>
      <trkpt lat="49.44151" lon="5.75531">
        <ele>323.20001220703</ele>
        <time>2023-06-23T11:11:23Z</time>
      </trkpt>
      <trkpt lat="49.44154" lon="5.75529">
        <ele>323.20001220703</ele>
        <time>2023-06-23T11:11:24Z</time>
      </trkpt>
      <trkpt lat="49.44158" lon="5.75527">
        <ele>323.20001220703</ele>
        <time>2023-06-23T11:11:25Z</time>
      </trkpt>
      <trkpt lat="49.44161" lon="5.75525">
        <ele>323.39999389648</ele>
        <time>2023-06-23T11:11:26Z</time>
      </trkpt>
      <trkpt lat="49.44165" lon="5.75523">
        <ele>323.39999389648</ele>
        <time>2023-06-23T11:11:27Z</time>
      </trkpt>
      <trkpt lat="49.44171" lon="5.75519">
        <ele>323.60000610352</ele>
        <time>2023-06-23T11:11:29Z</time>
      </trkpt>
      <trkpt lat="49.44178" lon="5.75515">
        <ele>324</ele>
        <time>2023-06-23T11:11:31Z</time>
      </trkpt>
      <trkpt lat="49.44185" lon="5.75511">
        <ele>324</ele>
        <time>2023-06-23T11:11:33Z</time>
      </trkpt>
      <trkpt lat="49.44191" lon="5.75506">
        <ele>324.20001220703</ele>
        <time>2023-06-23T11:11:35Z</time>
      </trkpt>
      <trkpt lat="49.44198" lon="5.755">
        <ele>324.20001220703</ele>
        <time>2023-06-23T11:11:37Z</time>
      </trkpt>
      <trkpt lat="49.44204" lon="5.75493">
        <ele>324.60000610352</ele>
        <time>2023-06-23T11:11:39Z</time>
      </trkpt>
      <trkpt lat="49.44209" lon="5.75486">
        <ele>324.79998779297</ele>
        <time>2023-06-23T11:11:41Z</time>
      </trkpt>
      <trkpt lat="49.44215" lon="5.75478">
        <ele>325</ele>
        <time>2023-06-23T11:11:43Z</time>
      </trkpt>
      <trkpt lat="49.4422" lon="5.7547">
        <ele>325.20001220703</ele>
        <time>2023-06-23T11:11:45Z</time>
      </trkpt>
      <trkpt lat="49.44225" lon="5.75463">
        <ele>325.39999389648</ele>
        <time>2023-06-23T11:11:47Z</time>
      </trkpt>
      <trkpt lat="49.44231" lon="5.75455">
        <ele>325.39999389648</ele>
        <time>2023-06-23T11:11:49Z</time>
      </trkpt>
      <trkpt lat="49.44237" lon="5.75448">
        <ele>325.39999389648</ele>
        <time>2023-06-23T11:11:51Z</time>
      </trkpt>
      <trkpt lat="49.44242" lon="5.7544">
        <ele>325.39999389648</ele>
        <time>2023-06-23T11:11:53Z</time>
      </trkpt>
      <trkpt lat="49.44248" lon="5.75432">
        <ele>325.60000610352</ele>
        <time>2023-06-23T11:11:55Z</time>
      </trkpt>
      <trkpt lat="49.44254" lon="5.75425">
        <ele>325.60000610352</ele>
        <time>2023-06-23T11:11:57Z</time>
      </trkpt>
      <trkpt lat="49.4426" lon="5.75418">
        <ele>325.39999389648</ele>
        <time>2023-06-23T11:11:59Z</time>
      </trkpt>
      <trkpt lat="49.44266" lon="5.75411">
        <ele>325.60000610352</ele>
        <time>2023-06-23T11:12:01Z</time>
      </trkpt>
      <trkpt lat="49.44272" lon="5.75405">
        <ele>325.60000610352</ele>
        <time>2023-06-23T11:12:03Z</time>
      </trkpt>
      <trkpt lat="49.44276" lon="5.75403">
        <ele>325.60000610352</ele>
        <time>2023-06-23T11:12:04Z</time>
      </trkpt>
      <trkpt lat="49.44279" lon="5.754">
        <ele>325.60000610352</ele>
        <time>2023-06-23T11:12:05Z</time>
      </trkpt>
      <trkpt lat="49.44286" lon="5.75395">
        <ele>325.60000610352</ele>
        <time>2023-06-23T11:12:07Z</time>
      </trkpt>
      <trkpt lat="49.44293" lon="5.7539">
        <ele>325.39999389648</ele>
        <time>2023-06-23T11:12:09Z</time>
      </trkpt>
      <trkpt lat="49.44301" lon="5.75386">
        <ele>325.39999389648</ele>
        <time>2023-06-23T11:12:11Z</time>
      </trkpt>
      <trkpt lat="49.44305" lon="5.75383">
        <ele>325.20001220703</ele>
        <time>2023-06-23T11:12:12Z</time>
      </trkpt>
      <trkpt lat="49.44308" lon="5.75381">
        <ele>325.20001220703</ele>
        <time>2023-06-23T11:12:13Z</time>
      </trkpt>
      <trkpt lat="49.44316" lon="5.75375">
        <ele>325.20001220703</ele>
        <time>2023-06-23T11:12:15Z</time>
      </trkpt>
      <trkpt lat="49.44323" lon="5.75369">
        <ele>325.20001220703</ele>
        <time>2023-06-23T11:12:17Z</time>
      </trkpt>
      <trkpt lat="49.44327" lon="5.75367">
        <ele>325</ele>
        <time>2023-06-23T11:12:18Z</time>
      </trkpt>
      <trkpt lat="49.44331" lon="5.75364">
        <ele>325</ele>
        <time>2023-06-23T11:12:19Z</time>
      </trkpt>
      <trkpt lat="49.44339" lon="5.75359">
        <ele>325</ele>
        <time>2023-06-23T11:12:21Z</time>
      </trkpt>
      <trkpt lat="49.44348" lon="5.75352">
        <ele>324.79998779297</ele>
        <time>2023-06-23T11:12:23Z</time>
      </trkpt>
      <trkpt lat="49.44356" lon="5.75345">
        <ele>324.60000610352</ele>
        <time>2023-06-23T11:12:25Z</time>
      </trkpt>
      <trkpt lat="49.4436" lon="5.75341">
        <ele>324.60000610352</ele>
        <time>2023-06-23T11:12:26Z</time>
      </trkpt>
      <trkpt lat="49.44365" lon="5.75337">
        <ele>324.39999389648</ele>
        <time>2023-06-23T11:12:27Z</time>
      </trkpt>
      <trkpt lat="49.44369" lon="5.75333">
        <ele>324.20001220703</ele>
        <time>2023-06-23T11:12:28Z</time>
      </trkpt>
      <trkpt lat="49.44373" lon="5.75329">
        <ele>324.20001220703</ele>
        <time>2023-06-23T11:12:29Z</time>
      </trkpt>
      <trkpt lat="49.44382" lon="5.7532">
        <ele>324</ele>
        <time>2023-06-23T11:12:31Z</time>
      </trkpt>
      <trkpt lat="49.4439" lon="5.7531">
        <ele>324</ele>
        <time>2023-06-23T11:12:33Z</time>
      </trkpt>
      <trkpt lat="49.44399" lon="5.753">
        <ele>324</ele>
        <time>2023-06-23T11:12:35Z</time>
      </trkpt>
      <trkpt lat="49.44407" lon="5.75289">
        <ele>324</ele>
        <time>2023-06-23T11:12:37Z</time>
      </trkpt>
      <trkpt lat="49.44414" lon="5.75277">
        <ele>324</ele>
        <time>2023-06-23T11:12:39Z</time>
      </trkpt>
      <trkpt lat="49.44423" lon="5.75266">
        <ele>324</ele>
        <time>2023-06-23T11:12:41Z</time>
      </trkpt>
      <trkpt lat="49.44427" lon="5.7526">
        <ele>324</ele>
        <time>2023-06-23T11:12:42Z</time>
      </trkpt>
      <trkpt lat="49.44431" lon="5.75255">
        <ele>324</ele>
        <time>2023-06-23T11:12:43Z</time>
      </trkpt>
      <trkpt lat="49.4444" lon="5.75244">
        <ele>323.60000610352</ele>
        <time>2023-06-23T11:12:45Z</time>
      </trkpt>
      <trkpt lat="49.44448" lon="5.75232">
        <ele>324</ele>
        <time>2023-06-23T11:12:47Z</time>
      </trkpt>
      <trkpt lat="49.44456" lon="5.75221">
        <ele>323.79998779297</ele>
        <time>2023-06-23T11:12:49Z</time>
      </trkpt>
      <trkpt lat="49.44463" lon="5.75209">
        <ele>323.79998779297</ele>
        <time>2023-06-23T11:12:51Z</time>
      </trkpt>
      <trkpt lat="49.44471" lon="5.75198">
        <ele>323.79998779297</ele>
        <time>2023-06-23T11:12:53Z</time>
      </trkpt>
      <trkpt lat="49.44478" lon="5.75187">
        <ele>323.79998779297</ele>
        <time>2023-06-23T11:12:55Z</time>
      </trkpt>
      <trkpt lat="49.44486" lon="5.75175">
        <ele>323.79998779297</ele>
        <time>2023-06-23T11:12:57Z</time>
      </trkpt>
      <trkpt lat="49.44493" lon="5.75164">
        <ele>323.79998779297</ele>
        <time>2023-06-23T11:12:59Z</time>
      </trkpt>
      <trkpt lat="49.445" lon="5.75153">
        <ele>323.79998779297</ele>
        <time>2023-06-23T11:13:01Z</time>
      </trkpt>
      <trkpt lat="49.44507" lon="5.75141">
        <ele>324</ele>
        <time>2023-06-23T11:13:03Z</time>
      </trkpt>
      <trkpt lat="49.44514" lon="5.7513">
        <ele>324</ele>
        <time>2023-06-23T11:13:05Z</time>
      </trkpt>
      <trkpt lat="49.44521" lon="5.7512">
        <ele>324</ele>
        <time>2023-06-23T11:13:07Z</time>
      </trkpt>
      <trkpt lat="49.44528" lon="5.75109">
        <ele>324</ele>
        <time>2023-06-23T11:13:09Z</time>
      </trkpt>
      <trkpt lat="49.44534" lon="5.75099">
        <ele>324</ele>
        <time>2023-06-23T11:13:11Z</time>
      </trkpt>
      <trkpt lat="49.44541" lon="5.75089">
        <ele>323.79998779297</ele>
        <time>2023-06-23T11:13:13Z</time>
      </trkpt>
      <trkpt lat="49.44549" lon="5.75079">
        <ele>323.79998779297</ele>
        <time>2023-06-23T11:13:15Z</time>
      </trkpt>
      <trkpt lat="49.44553" lon="5.75074">
        <ele>323.79998779297</ele>
        <time>2023-06-23T11:13:16Z</time>
      </trkpt>
      <trkpt lat="49.44557" lon="5.75069">
        <ele>323.79998779297</ele>
        <time>2023-06-23T11:13:17Z</time>
      </trkpt>
      <trkpt lat="49.44565" lon="5.75059">
        <ele>323.60000610352</ele>
        <time>2023-06-23T11:13:19Z</time>
      </trkpt>
      <trkpt lat="49.44574" lon="5.75049">
        <ele>323.60000610352</ele>
        <time>2023-06-23T11:13:21Z</time>
      </trkpt>
      <trkpt lat="49.44582" lon="5.75039">
        <ele>323.39999389648</ele>
        <time>2023-06-23T11:13:23Z</time>
      </trkpt>
      <trkpt lat="49.44591" lon="5.75029">
        <ele>323</ele>
        <time>2023-06-23T11:13:25Z</time>
      </trkpt>
      <trkpt lat="49.44595" lon="5.75024">
        <ele>323</ele>
        <time>2023-06-23T11:13:26Z</time>
      </trkpt>
      <trkpt lat="49.44599" lon="5.75019">
        <ele>322.79998779297</ele>
        <time>2023-06-23T11:13:27Z</time>
      </trkpt>
      <trkpt lat="49.44607" lon="5.7501">
        <ele>322.39999389648</ele>
        <time>2023-06-23T11:13:29Z</time>
      </trkpt>
      <trkpt lat="49.44614" lon="5.75001">
        <ele>322.20001220703</ele>
        <time>2023-06-23T11:13:31Z</time>
      </trkpt>
      <trkpt lat="49.44623" lon="5.74992">
        <ele>322</ele>
        <time>2023-06-23T11:13:33Z</time>
      </trkpt>
      <trkpt lat="49.44631" lon="5.74983">
        <ele>321.60000610352</ele>
        <time>2023-06-23T11:13:35Z</time>
      </trkpt>
      <trkpt lat="49.44639" lon="5.74972">
        <ele>321.39999389648</ele>
        <time>2023-06-23T11:13:37Z</time>
      </trkpt>
      <trkpt lat="49.44647" lon="5.74962">
        <ele>321</ele>
        <time>2023-06-23T11:13:39Z</time>
      </trkpt>
      <trkpt lat="49.44651" lon="5.74956">
        <ele>321</ele>
        <time>2023-06-23T11:13:40Z</time>
      </trkpt>
      <trkpt lat="49.44655" lon="5.7495">
        <ele>321</ele>
        <time>2023-06-23T11:13:41Z</time>
      </trkpt>
      <trkpt lat="49.44662" lon="5.74938">
        <ele>320.79998779297</ele>
        <time>2023-06-23T11:13:43Z</time>
      </trkpt>
      <trkpt lat="49.44665" lon="5.74932">
        <ele>320.60000610352</ele>
        <time>2023-06-23T11:13:44Z</time>
      </trkpt>
      <trkpt lat="49.44668" lon="5.74925">
        <ele>320.20001220703</ele>
        <time>2023-06-23T11:13:45Z</time>
      </trkpt>
      <trkpt lat="49.44671" lon="5.74919">
        <ele>320</ele>
        <time>2023-06-23T11:13:46Z</time>
      </trkpt>
      <trkpt lat="49.44674" lon="5.74912">
        <ele>320</ele>
        <time>2023-06-23T11:13:47Z</time>
      </trkpt>
      <trkpt lat="49.44677" lon="5.74906">
        <ele>319.79998779297</ele>
        <time>2023-06-23T11:13:48Z</time>
      </trkpt>
      <trkpt lat="49.4468" lon="5.74899">
        <ele>319.79998779297</ele>
        <time>2023-06-23T11:13:49Z</time>
      </trkpt>
      <trkpt lat="49.44686" lon="5.74885">
        <ele>319.60000610352</ele>
        <time>2023-06-23T11:13:51Z</time>
      </trkpt>
      <trkpt lat="49.44693" lon="5.74871">
        <ele>319.60000610352</ele>
        <time>2023-06-23T11:13:53Z</time>
      </trkpt>
      <trkpt lat="49.44696" lon="5.74864">
        <ele>319.39999389648</ele>
        <time>2023-06-23T11:13:54Z</time>
      </trkpt>
      <trkpt lat="49.44699" lon="5.74857">
        <ele>319.20001220703</ele>
        <time>2023-06-23T11:13:55Z</time>
      </trkpt>
      <trkpt lat="49.44705" lon="5.74843">
        <ele>318.79998779297</ele>
        <time>2023-06-23T11:13:57Z</time>
      </trkpt>
      <trkpt lat="49.44711" lon="5.74828">
        <ele>318.39999389648</ele>
        <time>2023-06-23T11:13:59Z</time>
      </trkpt>
      <trkpt lat="49.44715" lon="5.74821">
        <ele>318.39999389648</ele>
        <time>2023-06-23T11:14:00Z</time>
      </trkpt>
      <trkpt lat="49.44718" lon="5.74813">
        <ele>318.20001220703</ele>
        <time>2023-06-23T11:14:01Z</time>
      </trkpt>
      <trkpt lat="49.44726" lon="5.74798">
        <ele>317.60000610352</ele>
        <time>2023-06-23T11:14:03Z</time>
      </trkpt>
      <trkpt lat="49.44733" lon="5.74783">
        <ele>317.20001220703</ele>
        <time>2023-06-23T11:14:05Z</time>
      </trkpt>
      <trkpt lat="49.44737" lon="5.74775">
        <ele>317.20001220703</ele>
        <time>2023-06-23T11:14:06Z</time>
      </trkpt>
      <trkpt lat="49.4474" lon="5.74767">
        <ele>317</ele>
        <time>2023-06-23T11:14:07Z</time>
      </trkpt>
      <trkpt lat="49.44747" lon="5.74751">
        <ele>316.79998779297</ele>
        <time>2023-06-23T11:14:09Z</time>
      </trkpt>
      <trkpt lat="49.44754" lon="5.74736">
        <ele>316.20001220703</ele>
        <time>2023-06-23T11:14:11Z</time>
      </trkpt>
      <trkpt lat="49.44762" lon="5.74721">
        <ele>315.60000610352</ele>
        <time>2023-06-23T11:14:13Z</time>
      </trkpt>
      <trkpt lat="49.44767" lon="5.74714">
        <ele>315.39999389648</ele>
        <time>2023-06-23T11:14:14Z</time>
      </trkpt>
      <trkpt lat="49.44772" lon="5.74708">
        <ele>315.39999389648</ele>
        <time>2023-06-23T11:14:15Z</time>
      </trkpt>
      <trkpt lat="49.44781" lon="5.74695">
        <ele>315.20001220703</ele>
        <time>2023-06-23T11:14:17Z</time>
      </trkpt>
      <trkpt lat="49.44791" lon="5.74682">
        <ele>315.20001220703</ele>
        <time>2023-06-23T11:14:19Z</time>
      </trkpt>
      <trkpt lat="49.44801" lon="5.7467">
        <ele>315</ele>
        <time>2023-06-23T11:14:21Z</time>
      </trkpt>
      <trkpt lat="49.4481" lon="5.74658">
        <ele>315</ele>
        <time>2023-06-23T11:14:23Z</time>
      </trkpt>
      <trkpt lat="49.4482" lon="5.74647">
        <ele>314.60000610352</ele>
        <time>2023-06-23T11:14:25Z</time>
      </trkpt>
      <trkpt lat="49.44828" lon="5.74636">
        <ele>314.20001220703</ele>
        <time>2023-06-23T11:14:27Z</time>
      </trkpt>
      <trkpt lat="49.44832" lon="5.74631">
        <ele>314</ele>
        <time>2023-06-23T11:14:28Z</time>
      </trkpt>
      <trkpt lat="49.44836" lon="5.74626">
        <ele>314</ele>
        <time>2023-06-23T11:14:29Z</time>
      </trkpt>
      <trkpt lat="49.44843" lon="5.74616">
        <ele>313.79998779297</ele>
        <time>2023-06-23T11:14:31Z</time>
      </trkpt>
      <trkpt lat="49.4485" lon="5.74607">
        <ele>313.60000610352</ele>
        <time>2023-06-23T11:14:33Z</time>
      </trkpt>
      <trkpt lat="49.44857" lon="5.74597">
        <ele>313.39999389648</ele>
        <time>2023-06-23T11:14:35Z</time>
      </trkpt>
      <trkpt lat="49.44865" lon="5.74588">
        <ele>313.39999389648</ele>
        <time>2023-06-23T11:14:37Z</time>
      </trkpt>
      <trkpt lat="49.44868" lon="5.74583">
        <ele>313.39999389648</ele>
        <time>2023-06-23T11:14:38Z</time>
      </trkpt>
      <trkpt lat="49.44871" lon="5.74578">
        <ele>313.39999389648</ele>
        <time>2023-06-23T11:14:39Z</time>
      </trkpt>
      <trkpt lat="49.44877" lon="5.74568">
        <ele>313.39999389648</ele>
        <time>2023-06-23T11:14:41Z</time>
      </trkpt>
      <trkpt lat="49.44885" lon="5.74561">
        <ele>313.60000610352</ele>
        <time>2023-06-23T11:14:43Z</time>
      </trkpt>
      <trkpt lat="49.44892" lon="5.74553">
        <ele>313.60000610352</ele>
        <time>2023-06-23T11:14:45Z</time>
      </trkpt>
      <trkpt lat="49.44899" lon="5.74543">
        <ele>313.60000610352</ele>
        <time>2023-06-23T11:14:47Z</time>
      </trkpt>
      <trkpt lat="49.44905" lon="5.74534">
        <ele>313.60000610352</ele>
        <time>2023-06-23T11:14:49Z</time>
      </trkpt>
      <trkpt lat="49.44912" lon="5.74526">
        <ele>313.60000610352</ele>
        <time>2023-06-23T11:14:51Z</time>
      </trkpt>
      <trkpt lat="49.44919" lon="5.74519">
        <ele>313.79998779297</ele>
        <time>2023-06-23T11:14:53Z</time>
      </trkpt>
      <trkpt lat="49.44927" lon="5.74513">
        <ele>313.79998779297</ele>
        <time>2023-06-23T11:14:55Z</time>
      </trkpt>
      <trkpt lat="49.44934" lon="5.74507">
        <ele>314</ele>
        <time>2023-06-23T11:14:57Z</time>
      </trkpt>
      <trkpt lat="49.44942" lon="5.74501">
        <ele>314.20001220703</ele>
        <time>2023-06-23T11:14:59Z</time>
      </trkpt>
      <trkpt lat="49.44949" lon="5.74496">
        <ele>314.60000610352</ele>
        <time>2023-06-23T11:15:01Z</time>
      </trkpt>
      <trkpt lat="49.44956" lon="5.74491">
        <ele>314.79998779297</ele>
        <time>2023-06-23T11:15:03Z</time>
      </trkpt>
      <trkpt lat="49.4496" lon="5.74488">
        <ele>314.79998779297</ele>
        <time>2023-06-23T11:15:04Z</time>
      </trkpt>
      <trkpt lat="49.44963" lon="5.74486">
        <ele>314.79998779297</ele>
        <time>2023-06-23T11:15:05Z</time>
      </trkpt>
      <trkpt lat="49.4497" lon="5.74481">
        <ele>315.39999389648</ele>
        <time>2023-06-23T11:15:07Z</time>
      </trkpt>
      <trkpt lat="49.44977" lon="5.74476">
        <ele>316</ele>
        <time>2023-06-23T11:15:09Z</time>
      </trkpt>
      <trkpt lat="49.44984" lon="5.74471">
        <ele>316.39999389648</ele>
        <time>2023-06-23T11:15:11Z</time>
      </trkpt>
      <trkpt lat="49.4499" lon="5.74466">
        <ele>316.39999389648</ele>
        <time>2023-06-23T11:15:13Z</time>
      </trkpt>
      <trkpt lat="49.44993" lon="5.74463">
        <ele>316.60000610352</ele>
        <time>2023-06-23T11:15:14Z</time>
      </trkpt>
      <trkpt lat="49.44997" lon="5.74461">
        <ele>316.60000610352</ele>
        <time>2023-06-23T11:15:15Z</time>
      </trkpt>
      <trkpt lat="49.45003" lon="5.74456">
        <ele>316.60000610352</ele>
        <time>2023-06-23T11:15:17Z</time>
      </trkpt>
      <trkpt lat="49.45009" lon="5.74451">
        <ele>316.79998779297</ele>
        <time>2023-06-23T11:15:19Z</time>
      </trkpt>
      <trkpt lat="49.45015" lon="5.74446">
        <ele>316.79998779297</ele>
        <time>2023-06-23T11:15:21Z</time>
      </trkpt>
      <trkpt lat="49.45022" lon="5.74441">
        <ele>317</ele>
        <time>2023-06-23T11:15:23Z</time>
      </trkpt>
      <trkpt lat="49.45027" lon="5.74437">
        <ele>317.20001220703</ele>
        <time>2023-06-23T11:15:25Z</time>
      </trkpt>
      <trkpt lat="49.4503" lon="5.74434">
        <ele>317.39999389648</ele>
        <time>2023-06-23T11:15:26Z</time>
      </trkpt>
      <trkpt lat="49.45033" lon="5.74432">
        <ele>317.60000610352</ele>
        <time>2023-06-23T11:15:27Z</time>
      </trkpt>
      <trkpt lat="49.45038" lon="5.74427">
        <ele>318</ele>
        <time>2023-06-23T11:15:29Z</time>
      </trkpt>
      <trkpt lat="49.45043" lon="5.74423">
        <ele>318.20001220703</ele>
        <time>2023-06-23T11:15:31Z</time>
      </trkpt>
      <trkpt lat="49.45048" lon="5.74418">
        <ele>318.39999389648</ele>
        <time>2023-06-23T11:15:33Z</time>
      </trkpt>
      <trkpt lat="49.4505" lon="5.74416">
        <ele>318.39999389648</ele>
        <time>2023-06-23T11:15:34Z</time>
      </trkpt>
      <trkpt lat="49.45052" lon="5.74414">
        <ele>318.79998779297</ele>
        <time>2023-06-23T11:15:35Z</time>
      </trkpt>
      <trkpt lat="49.45057" lon="5.7441">
        <ele>319.39999389648</ele>
        <time>2023-06-23T11:15:37Z</time>
      </trkpt>
      <trkpt lat="49.4506" lon="5.74408">
        <ele>319.79998779297</ele>
        <time>2023-06-23T11:15:38Z</time>
      </trkpt>
      <trkpt lat="49.45062" lon="5.74407">
        <ele>320</ele>
        <time>2023-06-23T11:15:39Z</time>
      </trkpt>
      <trkpt lat="49.45064" lon="5.74405">
        <ele>320.20001220703</ele>
        <time>2023-06-23T11:15:40Z</time>
      </trkpt>
      <trkpt lat="49.45067" lon="5.74404">
        <ele>320.60000610352</ele>
        <time>2023-06-23T11:15:41Z</time>
      </trkpt>
      <trkpt lat="49.45072" lon="5.74402">
        <ele>320.79998779297</ele>
        <time>2023-06-23T11:15:43Z</time>
      </trkpt>
      <trkpt lat="49.45077" lon="5.744">
        <ele>321.39999389648</ele>
        <time>2023-06-23T11:15:45Z</time>
      </trkpt>
      <trkpt lat="49.45082" lon="5.744">
        <ele>321.60000610352</ele>
        <time>2023-06-23T11:15:47Z</time>
      </trkpt>
      <trkpt lat="49.45086" lon="5.74401">
        <ele>321.60000610352</ele>
        <time>2023-06-23T11:15:49Z</time>
      </trkpt>
      <trkpt lat="49.45091" lon="5.74402">
        <ele>321.79998779297</ele>
        <time>2023-06-23T11:15:51Z</time>
      </trkpt>
      <trkpt lat="49.45096" lon="5.74405">
        <ele>322.20001220703</ele>
        <time>2023-06-23T11:15:53Z</time>
      </trkpt>
      <trkpt lat="49.45101" lon="5.74408">
        <ele>322.60000610352</ele>
        <time>2023-06-23T11:15:55Z</time>
      </trkpt>
      <trkpt lat="49.45105" lon="5.74412">
        <ele>323</ele>
        <time>2023-06-23T11:15:57Z</time>
      </trkpt>
      <trkpt lat="49.45109" lon="5.74416">
        <ele>323.20001220703</ele>
        <time>2023-06-23T11:15:59Z</time>
      </trkpt>
      <trkpt lat="49.45113" lon="5.7442">
        <ele>323.60000610352</ele>
        <time>2023-06-23T11:16:01Z</time>
      </trkpt>
      <trkpt lat="49.45117" lon="5.74424">
        <ele>323.79998779297</ele>
        <time>2023-06-23T11:16:03Z</time>
      </trkpt>
      <trkpt lat="49.45119" lon="5.74427">
        <ele>324.39999389648</ele>
        <time>2023-06-23T11:16:04Z</time>
      </trkpt>
      <trkpt lat="49.45121" lon="5.74429">
        <ele>324.60000610352</ele>
        <time>2023-06-23T11:16:05Z</time>
      </trkpt>
      <trkpt lat="49.45126" lon="5.74432">
        <ele>324.79998779297</ele>
        <time>2023-06-23T11:16:07Z</time>
      </trkpt>
      <trkpt lat="49.4513" lon="5.74436">
        <ele>325</ele>
        <time>2023-06-23T11:16:09Z</time>
      </trkpt>
      <trkpt lat="49.45134" lon="5.7444">
        <ele>325.20001220703</ele>
        <time>2023-06-23T11:16:11Z</time>
      </trkpt>
      <trkpt lat="49.45138" lon="5.74444">
        <ele>325.39999389648</ele>
        <time>2023-06-23T11:16:13Z</time>
      </trkpt>
      <trkpt lat="49.45143" lon="5.74448">
        <ele>325.60000610352</ele>
        <time>2023-06-23T11:16:15Z</time>
      </trkpt>
      <trkpt lat="49.45148" lon="5.74452">
        <ele>326</ele>
        <time>2023-06-23T11:16:17Z</time>
      </trkpt>
      <trkpt lat="49.45152" lon="5.74455">
        <ele>326.20001220703</ele>
        <time>2023-06-23T11:16:19Z</time>
      </trkpt>
      <trkpt lat="49.45154" lon="5.74457">
        <ele>326.20001220703</ele>
        <time>2023-06-23T11:16:20Z</time>
      </trkpt>
      <trkpt lat="49.45156" lon="5.74458">
        <ele>326.39999389648</ele>
        <time>2023-06-23T11:16:21Z</time>
      </trkpt>
      <trkpt lat="49.45159" lon="5.7446">
        <ele>326.39999389648</ele>
        <time>2023-06-23T11:16:22Z</time>
      </trkpt>
      <trkpt lat="49.45161" lon="5.74462">
        <ele>326.60000610352</ele>
        <time>2023-06-23T11:16:23Z</time>
      </trkpt>
      <trkpt lat="49.45165" lon="5.74466">
        <ele>326.79998779297</ele>
        <time>2023-06-23T11:16:25Z</time>
      </trkpt>
      <trkpt lat="49.45169" lon="5.74469">
        <ele>327</ele>
        <time>2023-06-23T11:16:27Z</time>
      </trkpt>
      <trkpt lat="49.45174" lon="5.74473">
        <ele>327</ele>
        <time>2023-06-23T11:16:29Z</time>
      </trkpt>
      <trkpt lat="49.45178" lon="5.74476">
        <ele>327.60000610352</ele>
        <time>2023-06-23T11:16:31Z</time>
      </trkpt>
      <trkpt lat="49.45183" lon="5.7448">
        <ele>328</ele>
        <time>2023-06-23T11:16:33Z</time>
      </trkpt>
      <trkpt lat="49.45188" lon="5.74483">
        <ele>328.20001220703</ele>
        <time>2023-06-23T11:16:35Z</time>
      </trkpt>
      <trkpt lat="49.45193" lon="5.74487">
        <ele>328.60000610352</ele>
        <time>2023-06-23T11:16:37Z</time>
      </trkpt>
      <trkpt lat="49.45195" lon="5.74488">
        <ele>328.79998779297</ele>
        <time>2023-06-23T11:16:38Z</time>
      </trkpt>
      <trkpt lat="49.45198" lon="5.74489">
        <ele>328.79998779297</ele>
        <time>2023-06-23T11:16:39Z</time>
      </trkpt>
      <trkpt lat="49.45203" lon="5.74493">
        <ele>329</ele>
        <time>2023-06-23T11:16:41Z</time>
      </trkpt>
      <trkpt lat="49.45208" lon="5.74495">
        <ele>329.20001220703</ele>
        <time>2023-06-23T11:16:43Z</time>
      </trkpt>
      <trkpt lat="49.45214" lon="5.74498">
        <ele>329.20001220703</ele>
        <time>2023-06-23T11:16:45Z</time>
      </trkpt>
      <trkpt lat="49.45216" lon="5.74499">
        <ele>329.39999389648</ele>
        <time>2023-06-23T11:16:46Z</time>
      </trkpt>
      <trkpt lat="49.45219" lon="5.745">
        <ele>329.39999389648</ele>
        <time>2023-06-23T11:16:47Z</time>
      </trkpt>
      <trkpt lat="49.45224" lon="5.74502">
        <ele>329.39999389648</ele>
        <time>2023-06-23T11:16:49Z</time>
      </trkpt>
      <trkpt lat="49.4523" lon="5.74504">
        <ele>329.60000610352</ele>
        <time>2023-06-23T11:16:51Z</time>
      </trkpt>
      <trkpt lat="49.45232" lon="5.74505">
        <ele>329.79998779297</ele>
        <time>2023-06-23T11:16:52Z</time>
      </trkpt>
      <trkpt lat="49.45234" lon="5.74506">
        <ele>329.79998779297</ele>
        <time>2023-06-23T11:16:53Z</time>
      </trkpt>
      <trkpt lat="49.45237" lon="5.74507">
        <ele>329.79998779297</ele>
        <time>2023-06-23T11:16:54Z</time>
      </trkpt>
      <trkpt lat="49.4524" lon="5.74508">
        <ele>330</ele>
        <time>2023-06-23T11:16:55Z</time>
      </trkpt>
      <trkpt lat="49.45245" lon="5.74509">
        <ele>330.20001220703</ele>
        <time>2023-06-23T11:16:57Z</time>
      </trkpt>
      <trkpt lat="49.4525" lon="5.74511">
        <ele>330.60000610352</ele>
        <time>2023-06-23T11:16:59Z</time>
      </trkpt>
      <trkpt lat="49.45256" lon="5.74513">
        <ele>330.60000610352</ele>
        <time>2023-06-23T11:17:01Z</time>
      </trkpt>
      <trkpt lat="49.45259" lon="5.74514">
        <ele>330.79998779297</ele>
        <time>2023-06-23T11:17:02Z</time>
      </trkpt>
      <trkpt lat="49.45261" lon="5.74515">
        <ele>330.79998779297</ele>
        <time>2023-06-23T11:17:03Z</time>
      </trkpt>
      <trkpt lat="49.45267" lon="5.74517">
        <ele>331</ele>
        <time>2023-06-23T11:17:05Z</time>
      </trkpt>
      <trkpt lat="49.45273" lon="5.74519">
        <ele>331.20001220703</ele>
        <time>2023-06-23T11:17:07Z</time>
      </trkpt>
      <trkpt lat="49.45278" lon="5.74521">
        <ele>331.60000610352</ele>
        <time>2023-06-23T11:17:09Z</time>
      </trkpt>
      <trkpt lat="49.45284" lon="5.74522">
        <ele>331.79998779297</ele>
        <time>2023-06-23T11:17:11Z</time>
      </trkpt>
      <trkpt lat="49.45286" lon="5.74523">
        <ele>331.79998779297</ele>
        <time>2023-06-23T11:17:12Z</time>
      </trkpt>
      <trkpt lat="49.45289" lon="5.74523">
        <ele>331.79998779297</ele>
        <time>2023-06-23T11:17:13Z</time>
      </trkpt>
      <trkpt lat="49.45295" lon="5.74522">
        <ele>331.79998779297</ele>
        <time>2023-06-23T11:17:15Z</time>
      </trkpt>
      <trkpt lat="49.45301" lon="5.74521">
        <ele>331.79998779297</ele>
        <time>2023-06-23T11:17:17Z</time>
      </trkpt>
      <trkpt lat="49.45304" lon="5.74519">
        <ele>332</ele>
        <time>2023-06-23T11:17:18Z</time>
      </trkpt>
      <trkpt lat="49.45306" lon="5.74518">
        <ele>332</ele>
        <time>2023-06-23T11:17:19Z</time>
      </trkpt>
      <trkpt lat="49.45311" lon="5.74514">
        <ele>332</ele>
        <time>2023-06-23T11:17:21Z</time>
      </trkpt>
      <trkpt lat="49.45316" lon="5.7451">
        <ele>331.79998779297</ele>
        <time>2023-06-23T11:17:23Z</time>
      </trkpt>
      <trkpt lat="49.45321" lon="5.74506">
        <ele>331.79998779297</ele>
        <time>2023-06-23T11:17:25Z</time>
      </trkpt>
      <trkpt lat="49.45326" lon="5.74501">
        <ele>331.79998779297</ele>
        <time>2023-06-23T11:17:27Z</time>
      </trkpt>
      <trkpt lat="49.4533" lon="5.74496">
        <ele>331.79998779297</ele>
        <time>2023-06-23T11:17:29Z</time>
      </trkpt>
      <trkpt lat="49.45335" lon="5.74491">
        <ele>331.79998779297</ele>
        <time>2023-06-23T11:17:31Z</time>
      </trkpt>
      <trkpt lat="49.4534" lon="5.74486">
        <ele>332.39999389648</ele>
        <time>2023-06-23T11:17:33Z</time>
      </trkpt>
      <trkpt lat="49.45345" lon="5.74481">
        <ele>332.60000610352</ele>
        <time>2023-06-23T11:17:35Z</time>
      </trkpt>
      <trkpt lat="49.45348" lon="5.74478">
        <ele>332.79998779297</ele>
        <time>2023-06-23T11:17:36Z</time>
      </trkpt>
      <trkpt lat="49.4535" lon="5.74475">
        <ele>333</ele>
        <time>2023-06-23T11:17:37Z</time>
      </trkpt>
      <trkpt lat="49.45355" lon="5.7447">
        <ele>333.20001220703</ele>
        <time>2023-06-23T11:17:39Z</time>
      </trkpt>
      <trkpt lat="49.45361" lon="5.74465">
        <ele>333.39999389648</ele>
        <time>2023-06-23T11:17:41Z</time>
      </trkpt>
      <trkpt lat="49.45366" lon="5.74459">
        <ele>333.39999389648</ele>
        <time>2023-06-23T11:17:43Z</time>
      </trkpt>
      <trkpt lat="49.45372" lon="5.74453">
        <ele>333.60000610352</ele>
        <time>2023-06-23T11:17:45Z</time>
      </trkpt>
      <trkpt lat="49.45377" lon="5.74447">
        <ele>333.60000610352</ele>
        <time>2023-06-23T11:17:47Z</time>
      </trkpt>
      <trkpt lat="49.45383" lon="5.74441">
        <ele>333.79998779297</ele>
        <time>2023-06-23T11:17:49Z</time>
      </trkpt>
      <trkpt lat="49.45389" lon="5.74435">
        <ele>334</ele>
        <time>2023-06-23T11:17:51Z</time>
      </trkpt>
      <trkpt lat="49.45395" lon="5.74429">
        <ele>334</ele>
        <time>2023-06-23T11:17:53Z</time>
      </trkpt>
      <trkpt lat="49.45401" lon="5.74422">
        <ele>334.20001220703</ele>
        <time>2023-06-23T11:17:55Z</time>
      </trkpt>
      <trkpt lat="49.45403" lon="5.74418">
        <ele>334.20001220703</ele>
        <time>2023-06-23T11:17:56Z</time>
      </trkpt>
      <trkpt lat="49.45406" lon="5.74415">
        <ele>334.39999389648</ele>
        <time>2023-06-23T11:17:57Z</time>
      </trkpt>
      <trkpt lat="49.45412" lon="5.74408">
        <ele>334.39999389648</ele>
        <time>2023-06-23T11:17:59Z</time>
      </trkpt>
      <trkpt lat="49.45417" lon="5.744">
        <ele>334.39999389648</ele>
        <time>2023-06-23T11:18:01Z</time>
      </trkpt>
      <trkpt lat="49.45419" lon="5.74396">
        <ele>334.39999389648</ele>
        <time>2023-06-23T11:18:02Z</time>
      </trkpt>
      <trkpt lat="49.45421" lon="5.74391">
        <ele>334.39999389648</ele>
        <time>2023-06-23T11:18:03Z</time>
      </trkpt>
      <trkpt lat="49.45424" lon="5.7438">
        <ele>334.60000610352</ele>
        <time>2023-06-23T11:18:05Z</time>
      </trkpt>
      <trkpt lat="49.45426" lon="5.7437">
        <ele>334.60000610352</ele>
        <time>2023-06-23T11:18:07Z</time>
      </trkpt>
      <trkpt lat="49.45428" lon="5.74359">
        <ele>334.79998779297</ele>
        <time>2023-06-23T11:18:09Z</time>
      </trkpt>
      <trkpt lat="49.4543" lon="5.74347">
        <ele>334.79998779297</ele>
        <time>2023-06-23T11:18:11Z</time>
      </trkpt>
      <trkpt lat="49.45432" lon="5.74336">
        <ele>334.79998779297</ele>
        <time>2023-06-23T11:18:13Z</time>
      </trkpt>
      <trkpt lat="49.45433" lon="5.74324">
        <ele>335</ele>
        <time>2023-06-23T11:18:15Z</time>
      </trkpt>
      <trkpt lat="49.45434" lon="5.74319">
        <ele>335</ele>
        <time>2023-06-23T11:18:16Z</time>
      </trkpt>
      <trkpt lat="49.45434" lon="5.74313">
        <ele>335</ele>
        <time>2023-06-23T11:18:17Z</time>
      </trkpt>
      <trkpt lat="49.45435" lon="5.74302">
        <ele>335.20001220703</ele>
        <time>2023-06-23T11:18:19Z</time>
      </trkpt>
      <trkpt lat="49.45435" lon="5.74291">
        <ele>335.20001220703</ele>
        <time>2023-06-23T11:18:21Z</time>
      </trkpt>
      <trkpt lat="49.45435" lon="5.74279">
        <ele>335.39999389648</ele>
        <time>2023-06-23T11:18:23Z</time>
      </trkpt>
      <trkpt lat="49.45435" lon="5.74267">
        <ele>335.60000610352</ele>
        <time>2023-06-23T11:18:25Z</time>
      </trkpt>
      <trkpt lat="49.45433" lon="5.74255">
        <ele>335.79998779297</ele>
        <time>2023-06-23T11:18:27Z</time>
      </trkpt>
      <trkpt lat="49.45431" lon="5.74243">
        <ele>335.79998779297</ele>
        <time>2023-06-23T11:18:29Z</time>
      </trkpt>
      <trkpt lat="49.4543" lon="5.74238">
        <ele>335.79998779297</ele>
        <time>2023-06-23T11:18:30Z</time>
      </trkpt>
      <trkpt lat="49.45429" lon="5.74232">
        <ele>336</ele>
        <time>2023-06-23T11:18:31Z</time>
      </trkpt>
      <trkpt lat="49.45426" lon="5.74221">
        <ele>336.20001220703</ele>
        <time>2023-06-23T11:18:33Z</time>
      </trkpt>
      <trkpt lat="49.45423" lon="5.7421">
        <ele>336.20001220703</ele>
        <time>2023-06-23T11:18:35Z</time>
      </trkpt>
      <trkpt lat="49.4542" lon="5.74198">
        <ele>336.39999389648</ele>
        <time>2023-06-23T11:18:37Z</time>
      </trkpt>
      <trkpt lat="49.45418" lon="5.74193">
        <ele>336.79998779297</ele>
        <time>2023-06-23T11:18:38Z</time>
      </trkpt>
      <trkpt lat="49.45417" lon="5.74188">
        <ele>337</ele>
        <time>2023-06-23T11:18:39Z</time>
      </trkpt>
      <trkpt lat="49.45414" lon="5.74177">
        <ele>337.39999389648</ele>
        <time>2023-06-23T11:18:41Z</time>
      </trkpt>
      <trkpt lat="49.45411" lon="5.74167">
        <ele>337.60000610352</ele>
        <time>2023-06-23T11:18:43Z</time>
      </trkpt>
      <trkpt lat="49.45409" lon="5.74157">
        <ele>337.79998779297</ele>
        <time>2023-06-23T11:18:45Z</time>
      </trkpt>
      <trkpt lat="49.45408" lon="5.74151">
        <ele>338</ele>
        <time>2023-06-23T11:18:46Z</time>
      </trkpt>
      <trkpt lat="49.45406" lon="5.74146">
        <ele>338.20001220703</ele>
        <time>2023-06-23T11:18:47Z</time>
      </trkpt>
      <trkpt lat="49.45403" lon="5.74136">
        <ele>338.79998779297</ele>
        <time>2023-06-23T11:18:49Z</time>
      </trkpt>
      <trkpt lat="49.454" lon="5.74125">
        <ele>339</ele>
        <time>2023-06-23T11:18:51Z</time>
      </trkpt>
      <trkpt lat="49.45398" lon="5.7412">
        <ele>339</ele>
        <time>2023-06-23T11:18:52Z</time>
      </trkpt>
      <trkpt lat="49.45397" lon="5.74114">
        <ele>339</ele>
        <time>2023-06-23T11:18:53Z</time>
      </trkpt>
      <trkpt lat="49.45394" lon="5.74103">
        <ele>339</ele>
        <time>2023-06-23T11:18:55Z</time>
      </trkpt>
      <trkpt lat="49.45391" lon="5.74092">
        <ele>339</ele>
        <time>2023-06-23T11:18:57Z</time>
      </trkpt>
      <trkpt lat="49.45389" lon="5.74087">
        <ele>339</ele>
        <time>2023-06-23T11:18:58Z</time>
      </trkpt>
      <trkpt lat="49.45387" lon="5.74082">
        <ele>339</ele>
        <time>2023-06-23T11:18:59Z</time>
      </trkpt>
      <trkpt lat="49.45384" lon="5.74077">
        <ele>339</ele>
        <time>2023-06-23T11:19:00Z</time>
      </trkpt>
      <trkpt lat="49.45382" lon="5.74072">
        <ele>339</ele>
        <time>2023-06-23T11:19:01Z</time>
      </trkpt>
      <trkpt lat="49.45376" lon="5.74063">
        <ele>339</ele>
        <time>2023-06-23T11:19:03Z</time>
      </trkpt>
      <trkpt lat="49.45371" lon="5.74054">
        <ele>338.79998779297</ele>
        <time>2023-06-23T11:19:05Z</time>
      </trkpt>
      <trkpt lat="49.45365" lon="5.74045">
        <ele>338.79998779297</ele>
        <time>2023-06-23T11:19:07Z</time>
      </trkpt>
      <trkpt lat="49.45359" lon="5.74036">
        <ele>338.79998779297</ele>
        <time>2023-06-23T11:19:09Z</time>
      </trkpt>
      <trkpt lat="49.45354" lon="5.74027">
        <ele>338.79998779297</ele>
        <time>2023-06-23T11:19:11Z</time>
      </trkpt>
      <trkpt lat="49.45348" lon="5.74017">
        <ele>338.79998779297</ele>
        <time>2023-06-23T11:19:13Z</time>
      </trkpt>
      <trkpt lat="49.45342" lon="5.74007">
        <ele>338.79998779297</ele>
        <time>2023-06-23T11:19:15Z</time>
      </trkpt>
      <trkpt lat="49.45339" lon="5.74002">
        <ele>338.60000610352</ele>
        <time>2023-06-23T11:19:16Z</time>
      </trkpt>
      <trkpt lat="49.45335" lon="5.73997">
        <ele>338.60000610352</ele>
        <time>2023-06-23T11:19:17Z</time>
      </trkpt>
      <trkpt lat="49.45332" lon="5.73991">
        <ele>338.60000610352</ele>
        <time>2023-06-23T11:19:18Z</time>
      </trkpt>
      <trkpt lat="49.45328" lon="5.73986">
        <ele>338.60000610352</ele>
        <time>2023-06-23T11:19:19Z</time>
      </trkpt>
      <trkpt lat="49.45323" lon="5.73975">
        <ele>338.20001220703</ele>
        <time>2023-06-23T11:19:21Z</time>
      </trkpt>
      <trkpt lat="49.4532" lon="5.7397">
        <ele>338.20001220703</ele>
        <time>2023-06-23T11:19:22Z</time>
      </trkpt>
      <trkpt lat="49.45317" lon="5.73965">
        <ele>338.20001220703</ele>
        <time>2023-06-23T11:19:23Z</time>
      </trkpt>
      <trkpt lat="49.45311" lon="5.73956">
        <ele>338</ele>
        <time>2023-06-23T11:19:25Z</time>
      </trkpt>
      <trkpt lat="49.45304" lon="5.73946">
        <ele>338</ele>
        <time>2023-06-23T11:19:27Z</time>
      </trkpt>
      <trkpt lat="49.45296" lon="5.73937">
        <ele>337.79998779297</ele>
        <time>2023-06-23T11:19:29Z</time>
      </trkpt>
      <trkpt lat="49.45288" lon="5.73928">
        <ele>337.60000610352</ele>
        <time>2023-06-23T11:19:31Z</time>
      </trkpt>
      <trkpt lat="49.45279" lon="5.73918">
        <ele>337.39999389648</ele>
        <time>2023-06-23T11:19:33Z</time>
      </trkpt>
      <trkpt lat="49.45275" lon="5.73913">
        <ele>337</ele>
        <time>2023-06-23T11:19:34Z</time>
      </trkpt>
      <trkpt lat="49.45271" lon="5.73908">
        <ele>336.79998779297</ele>
        <time>2023-06-23T11:19:35Z</time>
      </trkpt>
      <trkpt lat="49.45263" lon="5.73899">
        <ele>336.60000610352</ele>
        <time>2023-06-23T11:19:37Z</time>
      </trkpt>
      <trkpt lat="49.45259" lon="5.73894">
        <ele>336.60000610352</ele>
        <time>2023-06-23T11:19:38Z</time>
      </trkpt>
      <trkpt lat="49.45255" lon="5.73889">
        <ele>336.60000610352</ele>
        <time>2023-06-23T11:19:39Z</time>
      </trkpt>
      <trkpt lat="49.45248" lon="5.73879">
        <ele>336.39999389648</ele>
        <time>2023-06-23T11:19:41Z</time>
      </trkpt>
      <trkpt lat="49.45244" lon="5.73875">
        <ele>336.39999389648</ele>
        <time>2023-06-23T11:19:42Z</time>
      </trkpt>
      <trkpt lat="49.4524" lon="5.73871">
        <ele>336.39999389648</ele>
        <time>2023-06-23T11:19:43Z</time>
      </trkpt>
      <trkpt lat="49.45231" lon="5.73863">
        <ele>336.39999389648</ele>
        <time>2023-06-23T11:19:45Z</time>
      </trkpt>
      <trkpt lat="49.45223" lon="5.73856">
        <ele>336.20001220703</ele>
        <time>2023-06-23T11:19:47Z</time>
      </trkpt>
      <trkpt lat="49.45215" lon="5.73847">
        <ele>336.39999389648</ele>
        <time>2023-06-23T11:19:49Z</time>
      </trkpt>
      <trkpt lat="49.45211" lon="5.73843">
        <ele>336.20001220703</ele>
        <time>2023-06-23T11:19:50Z</time>
      </trkpt>
      <trkpt lat="49.45207" lon="5.73839">
        <ele>336.20001220703</ele>
        <time>2023-06-23T11:19:51Z</time>
      </trkpt>
      <trkpt lat="49.45199" lon="5.73831">
        <ele>336.20001220703</ele>
        <time>2023-06-23T11:19:53Z</time>
      </trkpt>
      <trkpt lat="49.45192" lon="5.73823">
        <ele>336.20001220703</ele>
        <time>2023-06-23T11:19:55Z</time>
      </trkpt>
      <trkpt lat="49.45184" lon="5.73815">
        <ele>336.20001220703</ele>
        <time>2023-06-23T11:19:57Z</time>
      </trkpt>
      <trkpt lat="49.45176" lon="5.73806">
        <ele>336.20001220703</ele>
        <time>2023-06-23T11:19:59Z</time>
      </trkpt>
      <trkpt lat="49.45169" lon="5.73797">
        <ele>336.20001220703</ele>
        <time>2023-06-23T11:20:01Z</time>
      </trkpt>
      <trkpt lat="49.45163" lon="5.73786">
        <ele>336.20001220703</ele>
        <time>2023-06-23T11:20:03Z</time>
      </trkpt>
      <trkpt lat="49.4516" lon="5.73781">
        <ele>336</ele>
        <time>2023-06-23T11:20:04Z</time>
      </trkpt>
      <trkpt lat="49.45158" lon="5.73775">
        <ele>336</ele>
        <time>2023-06-23T11:20:05Z</time>
      </trkpt>
      <trkpt lat="49.45155" lon="5.7377">
        <ele>336</ele>
        <time>2023-06-23T11:20:06Z</time>
      </trkpt>
      <trkpt lat="49.45153" lon="5.73764">
        <ele>335.79998779297</ele>
        <time>2023-06-23T11:20:07Z</time>
      </trkpt>
      <trkpt lat="49.45149" lon="5.73752">
        <ele>335.39999389648</ele>
        <time>2023-06-23T11:20:09Z</time>
      </trkpt>
      <trkpt lat="49.45146" lon="5.73746">
        <ele>335</ele>
        <time>2023-06-23T11:20:10Z</time>
      </trkpt>
      <trkpt lat="49.45144" lon="5.7374">
        <ele>334.60000610352</ele>
        <time>2023-06-23T11:20:11Z</time>
      </trkpt>
      <trkpt lat="49.45142" lon="5.73734">
        <ele>334.39999389648</ele>
        <time>2023-06-23T11:20:12Z</time>
      </trkpt>
      <trkpt lat="49.45139" lon="5.73728">
        <ele>334.39999389648</ele>
        <time>2023-06-23T11:20:13Z</time>
      </trkpt>
      <trkpt lat="49.45134" lon="5.73717">
        <ele>334.20001220703</ele>
        <time>2023-06-23T11:20:15Z</time>
      </trkpt>
      <trkpt lat="49.45131" lon="5.73711">
        <ele>334.20001220703</ele>
        <time>2023-06-23T11:20:16Z</time>
      </trkpt>
      <trkpt lat="49.45129" lon="5.73704">
        <ele>334.20001220703</ele>
        <time>2023-06-23T11:20:17Z</time>
      </trkpt>
      <trkpt lat="49.45127" lon="5.73698">
        <ele>334.20001220703</ele>
        <time>2023-06-23T11:20:18Z</time>
      </trkpt>
      <trkpt lat="49.45125" lon="5.73692">
        <ele>334.20001220703</ele>
        <time>2023-06-23T11:20:19Z</time>
      </trkpt>
      <trkpt lat="49.45122" lon="5.73686">
        <ele>334.39999389648</ele>
        <time>2023-06-23T11:20:20Z</time>
      </trkpt>
      <trkpt lat="49.4512" lon="5.7368">
        <ele>334.39999389648</ele>
        <time>2023-06-23T11:20:21Z</time>
      </trkpt>
      <trkpt lat="49.45116" lon="5.73667">
        <ele>334.60000610352</ele>
        <time>2023-06-23T11:20:23Z</time>
      </trkpt>
      <trkpt lat="49.45113" lon="5.73661">
        <ele>334.60000610352</ele>
        <time>2023-06-23T11:20:24Z</time>
      </trkpt>
      <trkpt lat="49.45111" lon="5.73655">
        <ele>334.60000610352</ele>
        <time>2023-06-23T11:20:25Z</time>
      </trkpt>
      <trkpt lat="49.45106" lon="5.73643">
        <ele>334.79998779297</ele>
        <time>2023-06-23T11:20:27Z</time>
      </trkpt>
      <trkpt lat="49.45102" lon="5.73631">
        <ele>334.79998779297</ele>
        <time>2023-06-23T11:20:29Z</time>
      </trkpt>
      <trkpt lat="49.45098" lon="5.73618">
        <ele>334.79998779297</ele>
        <time>2023-06-23T11:20:31Z</time>
      </trkpt>
      <trkpt lat="49.45096" lon="5.73612">
        <ele>334.79998779297</ele>
        <time>2023-06-23T11:20:32Z</time>
      </trkpt>
      <trkpt lat="49.45094" lon="5.73606">
        <ele>334.79998779297</ele>
        <time>2023-06-23T11:20:33Z</time>
      </trkpt>
      <trkpt lat="49.4509" lon="5.73594">
        <ele>334.79998779297</ele>
        <time>2023-06-23T11:20:35Z</time>
      </trkpt>
      <trkpt lat="49.45085" lon="5.73581">
        <ele>334.79998779297</ele>
        <time>2023-06-23T11:20:37Z</time>
      </trkpt>
      <trkpt lat="49.45083" lon="5.73574">
        <ele>334.79998779297</ele>
        <time>2023-06-23T11:20:38Z</time>
      </trkpt>
      <trkpt lat="49.45081" lon="5.73567">
        <ele>334.60000610352</ele>
        <time>2023-06-23T11:20:39Z</time>
      </trkpt>
      <trkpt lat="49.45077" lon="5.73552">
        <ele>334.60000610352</ele>
        <time>2023-06-23T11:20:41Z</time>
      </trkpt>
      <trkpt lat="49.45072" lon="5.73537">
        <ele>334.39999389648</ele>
        <time>2023-06-23T11:20:43Z</time>
      </trkpt>
      <trkpt lat="49.45068" lon="5.73522">
        <ele>334.20001220703</ele>
        <time>2023-06-23T11:20:45Z</time>
      </trkpt>
      <trkpt lat="49.45065" lon="5.73516">
        <ele>334</ele>
        <time>2023-06-23T11:20:46Z</time>
      </trkpt>
      <trkpt lat="49.45063" lon="5.73509">
        <ele>333.79998779297</ele>
        <time>2023-06-23T11:20:47Z</time>
      </trkpt>
      <trkpt lat="49.45059" lon="5.73497">
        <ele>333.60000610352</ele>
        <time>2023-06-23T11:20:49Z</time>
      </trkpt>
      <trkpt lat="49.45055" lon="5.73484">
        <ele>333.60000610352</ele>
        <time>2023-06-23T11:20:51Z</time>
      </trkpt>
      <trkpt lat="49.45051" lon="5.73473">
        <ele>333.39999389648</ele>
        <time>2023-06-23T11:20:53Z</time>
      </trkpt>
      <trkpt lat="49.45046" lon="5.73461">
        <ele>333.39999389648</ele>
        <time>2023-06-23T11:20:55Z</time>
      </trkpt>
      <trkpt lat="49.45045" lon="5.73454">
        <ele>333.39999389648</ele>
        <time>2023-06-23T11:20:56Z</time>
      </trkpt>
      <trkpt lat="49.45044" lon="5.73448">
        <ele>333.39999389648</ele>
        <time>2023-06-23T11:20:57Z</time>
      </trkpt>
      <trkpt lat="49.45045" lon="5.73441">
        <ele>333.39999389648</ele>
        <time>2023-06-23T11:20:58Z</time>
      </trkpt>
      <trkpt lat="49.45047" lon="5.73436">
        <ele>333.20001220703</ele>
        <time>2023-06-23T11:20:59Z</time>
      </trkpt>
      <trkpt lat="49.45048" lon="5.73431">
        <ele>333.20001220703</ele>
        <time>2023-06-23T11:21:00Z</time>
      </trkpt>
      <trkpt lat="49.4505" lon="5.73426">
        <ele>333.20001220703</ele>
        <time>2023-06-23T11:21:01Z</time>
      </trkpt>
      <trkpt lat="49.45053" lon="5.73417">
        <ele>333.39999389648</ele>
        <time>2023-06-23T11:21:03Z</time>
      </trkpt>
      <trkpt lat="49.45057" lon="5.73408">
        <ele>333.39999389648</ele>
        <time>2023-06-23T11:21:05Z</time>
      </trkpt>
      <trkpt lat="49.4506" lon="5.73399">
        <ele>333.39999389648</ele>
        <time>2023-06-23T11:21:07Z</time>
      </trkpt>
      <trkpt lat="49.45064" lon="5.7339">
        <ele>333.60000610352</ele>
        <time>2023-06-23T11:21:09Z</time>
      </trkpt>
      <trkpt lat="49.45068" lon="5.73382">
        <ele>334</ele>
        <time>2023-06-23T11:21:11Z</time>
      </trkpt>
      <trkpt lat="49.45072" lon="5.73374">
        <ele>334.39999389648</ele>
        <time>2023-06-23T11:21:13Z</time>
      </trkpt>
      <trkpt lat="49.45076" lon="5.73366">
        <ele>335</ele>
        <time>2023-06-23T11:21:15Z</time>
      </trkpt>
      <trkpt lat="49.4508" lon="5.73358">
        <ele>335.60000610352</ele>
        <time>2023-06-23T11:21:17Z</time>
      </trkpt>
      <trkpt lat="49.45082" lon="5.73355">
        <ele>336.39999389648</ele>
        <time>2023-06-23T11:21:18Z</time>
      </trkpt>
      <trkpt lat="49.45083" lon="5.73351">
        <ele>336.79998779297</ele>
        <time>2023-06-23T11:21:19Z</time>
      </trkpt>
      <trkpt lat="49.45085" lon="5.73348">
        <ele>337</ele>
        <time>2023-06-23T11:21:20Z</time>
      </trkpt>
      <trkpt lat="49.45087" lon="5.73344">
        <ele>337.39999389648</ele>
        <time>2023-06-23T11:21:21Z</time>
      </trkpt>
      <trkpt lat="49.4509" lon="5.73337">
        <ele>337.60000610352</ele>
        <time>2023-06-23T11:21:23Z</time>
      </trkpt>
      <trkpt lat="49.45093" lon="5.73329">
        <ele>338</ele>
        <time>2023-06-23T11:21:25Z</time>
      </trkpt>
      <trkpt lat="49.45095" lon="5.73322">
        <ele>338.39999389648</ele>
        <time>2023-06-23T11:21:27Z</time>
      </trkpt>
      <trkpt lat="49.45096" lon="5.73319">
        <ele>338.60000610352</ele>
        <time>2023-06-23T11:21:28Z</time>
      </trkpt>
      <trkpt lat="49.45098" lon="5.73316">
        <ele>338.79998779297</ele>
        <time>2023-06-23T11:21:29Z</time>
      </trkpt>
      <trkpt lat="49.45101" lon="5.73309">
        <ele>339.20001220703</ele>
        <time>2023-06-23T11:21:31Z</time>
      </trkpt>
      <trkpt lat="49.45104" lon="5.73299">
        <ele>339.39999389648</ele>
        <time>2023-06-23T11:21:33Z</time>
      </trkpt>
      <trkpt lat="49.45105" lon="5.73294">
        <ele>339.39999389648</ele>
        <time>2023-06-23T11:21:34Z</time>
      </trkpt>
      <trkpt lat="49.45107" lon="5.73287">
        <ele>339.60000610352</ele>
        <time>2023-06-23T11:21:35Z</time>
      </trkpt>
      <trkpt lat="49.45111" lon="5.73273">
        <ele>339.60000610352</ele>
        <time>2023-06-23T11:21:37Z</time>
      </trkpt>
      <trkpt lat="49.45116" lon="5.73257">
        <ele>339.60000610352</ele>
        <time>2023-06-23T11:21:39Z</time>
      </trkpt>
      <trkpt lat="49.4512" lon="5.73238">
        <ele>339.60000610352</ele>
        <time>2023-06-23T11:21:41Z</time>
      </trkpt>
      <trkpt lat="49.45125" lon="5.73218">
        <ele>338.60000610352</ele>
        <time>2023-06-23T11:21:43Z</time>
      </trkpt>
      <trkpt lat="49.45127" lon="5.73207">
        <ele>338.39999389648</ele>
        <time>2023-06-23T11:21:44Z</time>
      </trkpt>
      <trkpt lat="49.4513" lon="5.73196">
        <ele>338</ele>
        <time>2023-06-23T11:21:45Z</time>
      </trkpt>
      <trkpt lat="49.45132" lon="5.73185">
        <ele>337.20001220703</ele>
        <time>2023-06-23T11:21:46Z</time>
      </trkpt>
      <trkpt lat="49.45134" lon="5.73174">
        <ele>336.39999389648</ele>
        <time>2023-06-23T11:21:47Z</time>
      </trkpt>
      <trkpt lat="49.45136" lon="5.73162">
        <ele>336</ele>
        <time>2023-06-23T11:21:48Z</time>
      </trkpt>
      <trkpt lat="49.45138" lon="5.73151">
        <ele>335.79998779297</ele>
        <time>2023-06-23T11:21:49Z</time>
      </trkpt>
      <trkpt lat="49.45144" lon="5.73126">
        <ele>334.20001220703</ele>
        <time>2023-06-23T11:21:51Z</time>
      </trkpt>
      <trkpt lat="49.45153" lon="5.73104">
        <ele>332.60000610352</ele>
        <time>2023-06-23T11:21:53Z</time>
      </trkpt>
      <trkpt lat="49.45159" lon="5.73096">
        <ele>331.60000610352</ele>
        <time>2023-06-23T11:21:54Z</time>
      </trkpt>
      <trkpt lat="49.45166" lon="5.73091">
        <ele>330.79998779297</ele>
        <time>2023-06-23T11:21:55Z</time>
      </trkpt>
      <trkpt lat="49.45175" lon="5.73087">
        <ele>330.39999389648</ele>
        <time>2023-06-23T11:21:56Z</time>
      </trkpt>
      <trkpt lat="49.45184" lon="5.73085">
        <ele>329.20001220703</ele>
        <time>2023-06-23T11:21:57Z</time>
      </trkpt>
      <trkpt lat="49.45202" lon="5.73084">
        <ele>327.60000610352</ele>
        <time>2023-06-23T11:21:59Z</time>
      </trkpt>
      <trkpt lat="49.4522" lon="5.73083">
        <ele>326.39999389648</ele>
        <time>2023-06-23T11:22:01Z</time>
      </trkpt>
      <trkpt lat="49.45238" lon="5.73084">
        <ele>325</ele>
        <time>2023-06-23T11:22:03Z</time>
      </trkpt>
      <trkpt lat="49.45256" lon="5.73084">
        <ele>323.39999389648</ele>
        <time>2023-06-23T11:22:05Z</time>
      </trkpt>
      <trkpt lat="49.45273" lon="5.73081">
        <ele>321.39999389648</ele>
        <time>2023-06-23T11:22:07Z</time>
      </trkpt>
      <trkpt lat="49.45281" lon="5.7308">
        <ele>320.20001220703</ele>
        <time>2023-06-23T11:22:08Z</time>
      </trkpt>
      <trkpt lat="49.45289" lon="5.73078">
        <ele>319.20001220703</ele>
        <time>2023-06-23T11:22:09Z</time>
      </trkpt>
      <trkpt lat="49.45297" lon="5.73075">
        <ele>318</ele>
        <time>2023-06-23T11:22:10Z</time>
      </trkpt>
      <trkpt lat="49.45304" lon="5.73071">
        <ele>317.39999389648</ele>
        <time>2023-06-23T11:22:11Z</time>
      </trkpt>
      <trkpt lat="49.45311" lon="5.73068">
        <ele>317</ele>
        <time>2023-06-23T11:22:12Z</time>
      </trkpt>
      <trkpt lat="49.45318" lon="5.73064">
        <ele>316.79998779297</ele>
        <time>2023-06-23T11:22:13Z</time>
      </trkpt>
      <trkpt lat="49.45329" lon="5.73055">
        <ele>316.60000610352</ele>
        <time>2023-06-23T11:22:15Z</time>
      </trkpt>
      <trkpt lat="49.4534" lon="5.73046">
        <ele>316.60000610352</ele>
        <time>2023-06-23T11:22:17Z</time>
      </trkpt>
      <trkpt lat="49.45351" lon="5.73037">
        <ele>316.60000610352</ele>
        <time>2023-06-23T11:22:19Z</time>
      </trkpt>
      <trkpt lat="49.4536" lon="5.73027">
        <ele>316.60000610352</ele>
        <time>2023-06-23T11:22:21Z</time>
      </trkpt>
      <trkpt lat="49.45368" lon="5.73019">
        <ele>316.79998779297</ele>
        <time>2023-06-23T11:22:23Z</time>
      </trkpt>
      <trkpt lat="49.45376" lon="5.73011">
        <ele>317.39999389648</ele>
        <time>2023-06-23T11:22:25Z</time>
      </trkpt>
      <trkpt lat="49.45382" lon="5.73003">
        <ele>317.79998779297</ele>
        <time>2023-06-23T11:22:27Z</time>
      </trkpt>
      <trkpt lat="49.45386" lon="5.72999">
        <ele>318.20001220703</ele>
        <time>2023-06-23T11:22:28Z</time>
      </trkpt>
      <trkpt lat="49.45389" lon="5.72995">
        <ele>318.39999389648</ele>
        <time>2023-06-23T11:22:29Z</time>
      </trkpt>
      <trkpt lat="49.45392" lon="5.72991">
        <ele>318.60000610352</ele>
        <time>2023-06-23T11:22:30Z</time>
      </trkpt>
      <trkpt lat="49.45395" lon="5.72987">
        <ele>318.79998779297</ele>
        <time>2023-06-23T11:22:31Z</time>
      </trkpt>
      <trkpt lat="49.45401" lon="5.72979">
        <ele>319.39999389648</ele>
        <time>2023-06-23T11:22:33Z</time>
      </trkpt>
      <trkpt lat="49.45407" lon="5.72971">
        <ele>319.60000610352</ele>
        <time>2023-06-23T11:22:35Z</time>
      </trkpt>
      <trkpt lat="49.45413" lon="5.72963">
        <ele>320.20001220703</ele>
        <time>2023-06-23T11:22:37Z</time>
      </trkpt>
      <trkpt lat="49.45416" lon="5.72959">
        <ele>320.39999389648</ele>
        <time>2023-06-23T11:22:38Z</time>
      </trkpt>
      <trkpt lat="49.45419" lon="5.72955">
        <ele>320.79998779297</ele>
        <time>2023-06-23T11:22:39Z</time>
      </trkpt>
      <trkpt lat="49.45425" lon="5.72947">
        <ele>321</ele>
        <time>2023-06-23T11:22:41Z</time>
      </trkpt>
      <trkpt lat="49.4543" lon="5.72939">
        <ele>321.20001220703</ele>
        <time>2023-06-23T11:22:43Z</time>
      </trkpt>
      <trkpt lat="49.45436" lon="5.72931">
        <ele>321.20001220703</ele>
        <time>2023-06-23T11:22:45Z</time>
      </trkpt>
      <trkpt lat="49.45441" lon="5.72923">
        <ele>321.39999389648</ele>
        <time>2023-06-23T11:22:47Z</time>
      </trkpt>
      <trkpt lat="49.45447" lon="5.72916">
        <ele>321.39999389648</ele>
        <time>2023-06-23T11:22:49Z</time>
      </trkpt>
      <trkpt lat="49.45452" lon="5.72908">
        <ele>321.60000610352</ele>
        <time>2023-06-23T11:22:51Z</time>
      </trkpt>
      <trkpt lat="49.45457" lon="5.729">
        <ele>321.60000610352</ele>
        <time>2023-06-23T11:22:53Z</time>
      </trkpt>
      <trkpt lat="49.45463" lon="5.72892">
        <ele>321.60000610352</ele>
        <time>2023-06-23T11:22:55Z</time>
      </trkpt>
      <trkpt lat="49.45465" lon="5.72888">
        <ele>321.60000610352</ele>
        <time>2023-06-23T11:22:56Z</time>
      </trkpt>
      <trkpt lat="49.45468" lon="5.72883">
        <ele>321.60000610352</ele>
        <time>2023-06-23T11:22:57Z</time>
      </trkpt>
      <trkpt lat="49.45474" lon="5.72875">
        <ele>321.60000610352</ele>
        <time>2023-06-23T11:22:59Z</time>
      </trkpt>
      <trkpt lat="49.45479" lon="5.72866">
        <ele>321.60000610352</ele>
        <time>2023-06-23T11:23:01Z</time>
      </trkpt>
      <trkpt lat="49.45485" lon="5.72857">
        <ele>321.60000610352</ele>
        <time>2023-06-23T11:23:03Z</time>
      </trkpt>
      <trkpt lat="49.4549" lon="5.72847">
        <ele>321.39999389648</ele>
        <time>2023-06-23T11:23:05Z</time>
      </trkpt>
      <trkpt lat="49.45496" lon="5.72838">
        <ele>321.20001220703</ele>
        <time>2023-06-23T11:23:07Z</time>
      </trkpt>
      <trkpt lat="49.45502" lon="5.7283">
        <ele>321.20001220703</ele>
        <time>2023-06-23T11:23:09Z</time>
      </trkpt>
      <trkpt lat="49.45508" lon="5.72821">
        <ele>321.20001220703</ele>
        <time>2023-06-23T11:23:11Z</time>
      </trkpt>
      <trkpt lat="49.4551" lon="5.72817">
        <ele>321.20001220703</ele>
        <time>2023-06-23T11:23:12Z</time>
      </trkpt>
      <trkpt lat="49.45513" lon="5.72813">
        <ele>321.20001220703</ele>
        <time>2023-06-23T11:23:13Z</time>
      </trkpt>
      <trkpt lat="49.45519" lon="5.72805">
        <ele>321.20001220703</ele>
        <time>2023-06-23T11:23:15Z</time>
      </trkpt>
      <trkpt lat="49.45525" lon="5.72798">
        <ele>321.39999389648</ele>
        <time>2023-06-23T11:23:17Z</time>
      </trkpt>
      <trkpt lat="49.45528" lon="5.72795">
        <ele>321.39999389648</ele>
        <time>2023-06-23T11:23:18Z</time>
      </trkpt>
      <trkpt lat="49.45531" lon="5.72791">
        <ele>321.60000610352</ele>
        <time>2023-06-23T11:23:19Z</time>
      </trkpt>
      <trkpt lat="49.45537" lon="5.72785">
        <ele>321.60000610352</ele>
        <time>2023-06-23T11:23:21Z</time>
      </trkpt>
      <trkpt lat="49.45543" lon="5.72778">
        <ele>321.79998779297</ele>
        <time>2023-06-23T11:23:23Z</time>
      </trkpt>
      <trkpt lat="49.4555" lon="5.72771">
        <ele>322</ele>
        <time>2023-06-23T11:23:25Z</time>
      </trkpt>
      <trkpt lat="49.45553" lon="5.72767">
        <ele>322</ele>
        <time>2023-06-23T11:23:26Z</time>
      </trkpt>
      <trkpt lat="49.45556" lon="5.72764">
        <ele>322.20001220703</ele>
        <time>2023-06-23T11:23:27Z</time>
      </trkpt>
      <trkpt lat="49.45563" lon="5.72757">
        <ele>322.20001220703</ele>
        <time>2023-06-23T11:23:29Z</time>
      </trkpt>
      <trkpt lat="49.4557" lon="5.7275">
        <ele>322.20001220703</ele>
        <time>2023-06-23T11:23:31Z</time>
      </trkpt>
      <trkpt lat="49.45577" lon="5.72743">
        <ele>322.20001220703</ele>
        <time>2023-06-23T11:23:33Z</time>
      </trkpt>
      <trkpt lat="49.45583" lon="5.72735">
        <ele>322.20001220703</ele>
        <time>2023-06-23T11:23:35Z</time>
      </trkpt>
      <trkpt lat="49.45587" lon="5.72732">
        <ele>322.20001220703</ele>
        <time>2023-06-23T11:23:36Z</time>
      </trkpt>
      <trkpt lat="49.4559" lon="5.72729">
        <ele>322.39999389648</ele>
        <time>2023-06-23T11:23:37Z</time>
      </trkpt>
      <trkpt lat="49.45597" lon="5.72723">
        <ele>322.39999389648</ele>
        <time>2023-06-23T11:23:39Z</time>
      </trkpt>
      <trkpt lat="49.45604" lon="5.72716">
        <ele>322.39999389648</ele>
        <time>2023-06-23T11:23:41Z</time>
      </trkpt>
      <trkpt lat="49.45611" lon="5.72709">
        <ele>322.60000610352</ele>
        <time>2023-06-23T11:23:43Z</time>
      </trkpt>
      <trkpt lat="49.45618" lon="5.72701">
        <ele>322.79998779297</ele>
        <time>2023-06-23T11:23:45Z</time>
      </trkpt>
      <trkpt lat="49.45626" lon="5.72694">
        <ele>322.79998779297</ele>
        <time>2023-06-23T11:23:47Z</time>
      </trkpt>
      <trkpt lat="49.45633" lon="5.72686">
        <ele>322.79998779297</ele>
        <time>2023-06-23T11:23:49Z</time>
      </trkpt>
      <trkpt lat="49.45637" lon="5.72682">
        <ele>322.79998779297</ele>
        <time>2023-06-23T11:23:50Z</time>
      </trkpt>
      <trkpt lat="49.4564" lon="5.72678">
        <ele>322.79998779297</ele>
        <time>2023-06-23T11:23:51Z</time>
      </trkpt>
      <trkpt lat="49.45648" lon="5.72671">
        <ele>322.79998779297</ele>
        <time>2023-06-23T11:23:53Z</time>
      </trkpt>
      <trkpt lat="49.45655" lon="5.72663">
        <ele>322.79998779297</ele>
        <time>2023-06-23T11:23:55Z</time>
      </trkpt>
      <trkpt lat="49.45662" lon="5.72656">
        <ele>322.79998779297</ele>
        <time>2023-06-23T11:23:57Z</time>
      </trkpt>
      <trkpt lat="49.45669" lon="5.72648">
        <ele>323</ele>
        <time>2023-06-23T11:23:59Z</time>
      </trkpt>
      <trkpt lat="49.45676" lon="5.72641">
        <ele>323</ele>
        <time>2023-06-23T11:24:01Z</time>
      </trkpt>
      <trkpt lat="49.45683" lon="5.72633">
        <ele>322.79998779297</ele>
        <time>2023-06-23T11:24:03Z</time>
      </trkpt>
      <trkpt lat="49.4569" lon="5.72625">
        <ele>323</ele>
        <time>2023-06-23T11:24:05Z</time>
      </trkpt>
      <trkpt lat="49.45698" lon="5.72617">
        <ele>323</ele>
        <time>2023-06-23T11:24:07Z</time>
      </trkpt>
      <trkpt lat="49.45705" lon="5.72609">
        <ele>323</ele>
        <time>2023-06-23T11:24:09Z</time>
      </trkpt>
      <trkpt lat="49.45712" lon="5.72601">
        <ele>323</ele>
        <time>2023-06-23T11:24:11Z</time>
      </trkpt>
      <trkpt lat="49.45715" lon="5.72596">
        <ele>323</ele>
        <time>2023-06-23T11:24:12Z</time>
      </trkpt>
      <trkpt lat="49.45718" lon="5.72592">
        <ele>323</ele>
        <time>2023-06-23T11:24:13Z</time>
      </trkpt>
      <trkpt lat="49.45724" lon="5.72582">
        <ele>323</ele>
        <time>2023-06-23T11:24:15Z</time>
      </trkpt>
      <trkpt lat="49.45727" lon="5.72577">
        <ele>323</ele>
        <time>2023-06-23T11:24:16Z</time>
      </trkpt>
      <trkpt lat="49.45731" lon="5.72573">
        <ele>323</ele>
        <time>2023-06-23T11:24:17Z</time>
      </trkpt>
      <trkpt lat="49.45738" lon="5.72564">
        <ele>322.79998779297</ele>
        <time>2023-06-23T11:24:19Z</time>
      </trkpt>
      <trkpt lat="49.45746" lon="5.72555">
        <ele>322.79998779297</ele>
        <time>2023-06-23T11:24:21Z</time>
      </trkpt>
      <trkpt lat="49.45753" lon="5.72547">
        <ele>322.60000610352</ele>
        <time>2023-06-23T11:24:23Z</time>
      </trkpt>
      <trkpt lat="49.45762" lon="5.7254">
        <ele>322.39999389648</ele>
        <time>2023-06-23T11:24:25Z</time>
      </trkpt>
      <trkpt lat="49.45771" lon="5.72534">
        <ele>321.79998779297</ele>
        <time>2023-06-23T11:24:27Z</time>
      </trkpt>
      <trkpt lat="49.4578" lon="5.72528">
        <ele>321.60000610352</ele>
        <time>2023-06-23T11:24:29Z</time>
      </trkpt>
      <trkpt lat="49.45789" lon="5.72522">
        <ele>321.20001220703</ele>
        <time>2023-06-23T11:24:31Z</time>
      </trkpt>
      <trkpt lat="49.45798" lon="5.72516">
        <ele>321</ele>
        <time>2023-06-23T11:24:33Z</time>
      </trkpt>
      <trkpt lat="49.45806" lon="5.7251">
        <ele>321</ele>
        <time>2023-06-23T11:24:35Z</time>
      </trkpt>
      <trkpt lat="49.45815" lon="5.72504">
        <ele>321.20001220703</ele>
        <time>2023-06-23T11:24:37Z</time>
      </trkpt>
      <trkpt lat="49.45823" lon="5.72497">
        <ele>321.20001220703</ele>
        <time>2023-06-23T11:24:39Z</time>
      </trkpt>
      <trkpt lat="49.45832" lon="5.7249">
        <ele>321.39999389648</ele>
        <time>2023-06-23T11:24:41Z</time>
      </trkpt>
      <trkpt lat="49.45836" lon="5.72487">
        <ele>321.39999389648</ele>
        <time>2023-06-23T11:24:42Z</time>
      </trkpt>
      <trkpt lat="49.4584" lon="5.72484">
        <ele>321.39999389648</ele>
        <time>2023-06-23T11:24:43Z</time>
      </trkpt>
      <trkpt lat="49.45848" lon="5.72477">
        <ele>321.60000610352</ele>
        <time>2023-06-23T11:24:45Z</time>
      </trkpt>
      <trkpt lat="49.45856" lon="5.72471">
        <ele>321.60000610352</ele>
        <time>2023-06-23T11:24:47Z</time>
      </trkpt>
      <trkpt lat="49.45863" lon="5.72465">
        <ele>321.79998779297</ele>
        <time>2023-06-23T11:24:49Z</time>
      </trkpt>
      <trkpt lat="49.4587" lon="5.72459">
        <ele>321.79998779297</ele>
        <time>2023-06-23T11:24:51Z</time>
      </trkpt>
      <trkpt lat="49.45878" lon="5.72453">
        <ele>321.79998779297</ele>
        <time>2023-06-23T11:24:53Z</time>
      </trkpt>
      <trkpt lat="49.45887" lon="5.72446">
        <ele>321.79998779297</ele>
        <time>2023-06-23T11:24:55Z</time>
      </trkpt>
      <trkpt lat="49.45892" lon="5.72443">
        <ele>321.79998779297</ele>
        <time>2023-06-23T11:24:56Z</time>
      </trkpt>
      <trkpt lat="49.45896" lon="5.72439">
        <ele>321.79998779297</ele>
        <time>2023-06-23T11:24:57Z</time>
      </trkpt>
      <trkpt lat="49.45906" lon="5.72433">
        <ele>321.79998779297</ele>
        <time>2023-06-23T11:24:59Z</time>
      </trkpt>
      <trkpt lat="49.45916" lon="5.72426">
        <ele>321.60000610352</ele>
        <time>2023-06-23T11:25:01Z</time>
      </trkpt>
      <trkpt lat="49.45926" lon="5.72419">
        <ele>321.39999389648</ele>
        <time>2023-06-23T11:25:03Z</time>
      </trkpt>
      <trkpt lat="49.45932" lon="5.72415">
        <ele>321.20001220703</ele>
        <time>2023-06-23T11:25:04Z</time>
      </trkpt>
      <trkpt lat="49.45938" lon="5.72411">
        <ele>321.20001220703</ele>
        <time>2023-06-23T11:25:05Z</time>
      </trkpt>
      <trkpt lat="49.45952" lon="5.72404">
        <ele>320.60000610352</ele>
        <time>2023-06-23T11:25:07Z</time>
      </trkpt>
      <trkpt lat="49.45959" lon="5.724">
        <ele>320.60000610352</ele>
        <time>2023-06-23T11:25:08Z</time>
      </trkpt>
      <trkpt lat="49.45966" lon="5.72395">
        <ele>320.39999389648</ele>
        <time>2023-06-23T11:25:09Z</time>
      </trkpt>
      <trkpt lat="49.45982" lon="5.72386">
        <ele>319.79998779297</ele>
        <time>2023-06-23T11:25:11Z</time>
      </trkpt>
      <trkpt lat="49.45998" lon="5.72379">
        <ele>318.20001220703</ele>
        <time>2023-06-23T11:25:13Z</time>
      </trkpt>
      <trkpt lat="49.46014" lon="5.72373">
        <ele>316.60000610352</ele>
        <time>2023-06-23T11:25:15Z</time>
      </trkpt>
      <trkpt lat="49.46029" lon="5.72368">
        <ele>314.79998779297</ele>
        <time>2023-06-23T11:25:17Z</time>
      </trkpt>
      <trkpt lat="49.46045" lon="5.72362">
        <ele>313.20001220703</ele>
        <time>2023-06-23T11:25:19Z</time>
      </trkpt>
      <trkpt lat="49.4606" lon="5.72357">
        <ele>312.20001220703</ele>
        <time>2023-06-23T11:25:21Z</time>
      </trkpt>
      <trkpt lat="49.46074" lon="5.72352">
        <ele>311</ele>
        <time>2023-06-23T11:25:23Z</time>
      </trkpt>
      <trkpt lat="49.46087" lon="5.72345">
        <ele>310.79998779297</ele>
        <time>2023-06-23T11:25:25Z</time>
      </trkpt>
      <trkpt lat="49.46099" lon="5.72339">
        <ele>310.60000610352</ele>
        <time>2023-06-23T11:25:27Z</time>
      </trkpt>
      <trkpt lat="49.4611" lon="5.72333">
        <ele>310.60000610352</ele>
        <time>2023-06-23T11:25:29Z</time>
      </trkpt>
      <trkpt lat="49.46119" lon="5.72327">
        <ele>310.60000610352</ele>
        <time>2023-06-23T11:25:31Z</time>
      </trkpt>
      <trkpt lat="49.46127" lon="5.72323">
        <ele>310.79998779297</ele>
        <time>2023-06-23T11:25:33Z</time>
      </trkpt>
      <trkpt lat="49.46131" lon="5.72321">
        <ele>311</ele>
        <time>2023-06-23T11:25:34Z</time>
      </trkpt>
      <trkpt lat="49.46136" lon="5.7232">
        <ele>311.39999389648</ele>
        <time>2023-06-23T11:25:35Z</time>
      </trkpt>
      <trkpt lat="49.46144" lon="5.72319">
        <ele>312.39999389648</ele>
        <time>2023-06-23T11:25:37Z</time>
      </trkpt>
      <trkpt lat="49.46152" lon="5.72317">
        <ele>313</ele>
        <time>2023-06-23T11:25:39Z</time>
      </trkpt>
      <trkpt lat="49.46159" lon="5.72318">
        <ele>313.79998779297</ele>
        <time>2023-06-23T11:25:41Z</time>
      </trkpt>
      <trkpt lat="49.46163" lon="5.72317">
        <ele>314.60000610352</ele>
        <time>2023-06-23T11:25:42Z</time>
      </trkpt>
      <trkpt lat="49.46167" lon="5.72317">
        <ele>315.20001220703</ele>
        <time>2023-06-23T11:25:43Z</time>
      </trkpt>
      <trkpt lat="49.46174" lon="5.72313">
        <ele>316.20001220703</ele>
        <time>2023-06-23T11:25:45Z</time>
      </trkpt>
      <trkpt lat="49.4618" lon="5.72308">
        <ele>317.20001220703</ele>
        <time>2023-06-23T11:25:47Z</time>
      </trkpt>
      <trkpt lat="49.46187" lon="5.72303">
        <ele>318.39999389648</ele>
        <time>2023-06-23T11:25:49Z</time>
      </trkpt>
      <trkpt lat="49.46193" lon="5.72298">
        <ele>319</ele>
        <time>2023-06-23T11:25:51Z</time>
      </trkpt>
      <trkpt lat="49.462" lon="5.72294">
        <ele>319.39999389648</ele>
        <time>2023-06-23T11:25:53Z</time>
      </trkpt>
      <trkpt lat="49.46206" lon="5.72289">
        <ele>319.60000610352</ele>
        <time>2023-06-23T11:25:55Z</time>
      </trkpt>
      <trkpt lat="49.46212" lon="5.72285">
        <ele>319.79998779297</ele>
        <time>2023-06-23T11:25:57Z</time>
      </trkpt>
      <trkpt lat="49.46219" lon="5.72281">
        <ele>320</ele>
        <time>2023-06-23T11:25:59Z</time>
      </trkpt>
      <trkpt lat="49.46226" lon="5.72278">
        <ele>320.39999389648</ele>
        <time>2023-06-23T11:26:01Z</time>
      </trkpt>
      <trkpt lat="49.46229" lon="5.72276">
        <ele>320.60000610352</ele>
        <time>2023-06-23T11:26:02Z</time>
      </trkpt>
      <trkpt lat="49.46232" lon="5.72274">
        <ele>320.79998779297</ele>
        <time>2023-06-23T11:26:03Z</time>
      </trkpt>
      <trkpt lat="49.46239" lon="5.72271">
        <ele>321.39999389648</ele>
        <time>2023-06-23T11:26:05Z</time>
      </trkpt>
      <trkpt lat="49.46245" lon="5.72267">
        <ele>321.60000610352</ele>
        <time>2023-06-23T11:26:07Z</time>
      </trkpt>
      <trkpt lat="49.46252" lon="5.72264">
        <ele>321.79998779297</ele>
        <time>2023-06-23T11:26:09Z</time>
      </trkpt>
      <trkpt lat="49.46259" lon="5.7226">
        <ele>321.79998779297</ele>
        <time>2023-06-23T11:26:11Z</time>
      </trkpt>
      <trkpt lat="49.46262" lon="5.72259">
        <ele>321.79998779297</ele>
        <time>2023-06-23T11:26:12Z</time>
      </trkpt>
      <trkpt lat="49.46266" lon="5.72257">
        <ele>321.79998779297</ele>
        <time>2023-06-23T11:26:13Z</time>
      </trkpt>
      <trkpt lat="49.46273" lon="5.72253">
        <ele>321.79998779297</ele>
        <time>2023-06-23T11:26:15Z</time>
      </trkpt>
      <trkpt lat="49.46281" lon="5.72249">
        <ele>322</ele>
        <time>2023-06-23T11:26:17Z</time>
      </trkpt>
      <trkpt lat="49.4629" lon="5.72244">
        <ele>322</ele>
        <time>2023-06-23T11:26:19Z</time>
      </trkpt>
      <trkpt lat="49.46294" lon="5.72242">
        <ele>322</ele>
        <time>2023-06-23T11:26:20Z</time>
      </trkpt>
      <trkpt lat="49.46298" lon="5.72239">
        <ele>321.79998779297</ele>
        <time>2023-06-23T11:26:21Z</time>
      </trkpt>
      <trkpt lat="49.46307" lon="5.72235">
        <ele>321.79998779297</ele>
        <time>2023-06-23T11:26:23Z</time>
      </trkpt>
      <trkpt lat="49.46316" lon="5.7223">
        <ele>321.79998779297</ele>
        <time>2023-06-23T11:26:25Z</time>
      </trkpt>
      <trkpt lat="49.46324" lon="5.72226">
        <ele>321.60000610352</ele>
        <time>2023-06-23T11:26:27Z</time>
      </trkpt>
      <trkpt lat="49.46333" lon="5.72221">
        <ele>321.60000610352</ele>
        <time>2023-06-23T11:26:29Z</time>
      </trkpt>
      <trkpt lat="49.46341" lon="5.72217">
        <ele>321.60000610352</ele>
        <time>2023-06-23T11:26:31Z</time>
      </trkpt>
      <trkpt lat="49.46349" lon="5.72214">
        <ele>321.60000610352</ele>
        <time>2023-06-23T11:26:33Z</time>
      </trkpt>
      <trkpt lat="49.46356" lon="5.72212">
        <ele>321.79998779297</ele>
        <time>2023-06-23T11:26:35Z</time>
      </trkpt>
      <trkpt lat="49.46359" lon="5.72213">
        <ele>322</ele>
        <time>2023-06-23T11:26:36Z</time>
      </trkpt>
      <trkpt lat="49.46362" lon="5.72214">
        <ele>322.20001220703</ele>
        <time>2023-06-23T11:26:37Z</time>
      </trkpt>
      <trkpt lat="49.46368" lon="5.72216">
        <ele>322.39999389648</ele>
        <time>2023-06-23T11:26:39Z</time>
      </trkpt>
      <trkpt lat="49.46374" lon="5.72217">
        <ele>322.60000610352</ele>
        <time>2023-06-23T11:26:41Z</time>
      </trkpt>
      <trkpt lat="49.46378" lon="5.72218">
        <ele>322.79998779297</ele>
        <time>2023-06-23T11:26:42Z</time>
      </trkpt>
      <trkpt lat="49.46381" lon="5.72218">
        <ele>323</ele>
        <time>2023-06-23T11:26:43Z</time>
      </trkpt>
      <trkpt lat="49.46385" lon="5.72219">
        <ele>323</ele>
        <time>2023-06-23T11:26:44Z</time>
      </trkpt>
      <trkpt lat="49.46389" lon="5.72219">
        <ele>323</ele>
        <time>2023-06-23T11:26:45Z</time>
      </trkpt>
      <trkpt lat="49.46397" lon="5.72218">
        <ele>323</ele>
        <time>2023-06-23T11:26:47Z</time>
      </trkpt>
      <trkpt lat="49.46404" lon="5.72217">
        <ele>323.20001220703</ele>
        <time>2023-06-23T11:26:49Z</time>
      </trkpt>
      <trkpt lat="49.46412" lon="5.72215">
        <ele>323.20001220703</ele>
        <time>2023-06-23T11:26:51Z</time>
      </trkpt>
      <trkpt lat="49.46419" lon="5.72214">
        <ele>323.39999389648</ele>
        <time>2023-06-23T11:26:53Z</time>
      </trkpt>
      <trkpt lat="49.46427" lon="5.72213">
        <ele>323.39999389648</ele>
        <time>2023-06-23T11:26:55Z</time>
      </trkpt>
      <trkpt lat="49.46435" lon="5.72211">
        <ele>323.60000610352</ele>
        <time>2023-06-23T11:26:57Z</time>
      </trkpt>
      <trkpt lat="49.46442" lon="5.7221">
        <ele>323.60000610352</ele>
        <time>2023-06-23T11:26:59Z</time>
      </trkpt>
      <trkpt lat="49.46449" lon="5.72208">
        <ele>323.60000610352</ele>
        <time>2023-06-23T11:27:01Z</time>
      </trkpt>
      <trkpt lat="49.46456" lon="5.72207">
        <ele>323.79998779297</ele>
        <time>2023-06-23T11:27:03Z</time>
      </trkpt>
      <trkpt lat="49.46463" lon="5.72206">
        <ele>323.79998779297</ele>
        <time>2023-06-23T11:27:05Z</time>
      </trkpt>
      <trkpt lat="49.46471" lon="5.72205">
        <ele>323.79998779297</ele>
        <time>2023-06-23T11:27:07Z</time>
      </trkpt>
      <trkpt lat="49.46478" lon="5.72204">
        <ele>323.79998779297</ele>
        <time>2023-06-23T11:27:09Z</time>
      </trkpt>
      <trkpt lat="49.46486" lon="5.72203">
        <ele>324</ele>
        <time>2023-06-23T11:27:11Z</time>
      </trkpt>
      <trkpt lat="49.46495" lon="5.72201">
        <ele>324</ele>
        <time>2023-06-23T11:27:13Z</time>
      </trkpt>
      <trkpt lat="49.46504" lon="5.722">
        <ele>324</ele>
        <time>2023-06-23T11:27:15Z</time>
      </trkpt>
      <trkpt lat="49.46508" lon="5.72199">
        <ele>324</ele>
        <time>2023-06-23T11:27:16Z</time>
      </trkpt>
      <trkpt lat="49.46512" lon="5.72198">
        <ele>324</ele>
        <time>2023-06-23T11:27:17Z</time>
      </trkpt>
      <trkpt lat="49.46521" lon="5.72196">
        <ele>323.79998779297</ele>
        <time>2023-06-23T11:27:19Z</time>
      </trkpt>
      <trkpt lat="49.46528" lon="5.72195">
        <ele>323.60000610352</ele>
        <time>2023-06-23T11:27:21Z</time>
      </trkpt>
      <trkpt lat="49.46536" lon="5.72194">
        <ele>323.60000610352</ele>
        <time>2023-06-23T11:27:23Z</time>
      </trkpt>
      <trkpt lat="49.46544" lon="5.72193">
        <ele>323.60000610352</ele>
        <time>2023-06-23T11:27:25Z</time>
      </trkpt>
      <trkpt lat="49.46553" lon="5.72192">
        <ele>323.60000610352</ele>
        <time>2023-06-23T11:27:27Z</time>
      </trkpt>
      <trkpt lat="49.46562" lon="5.72192">
        <ele>323.39999389648</ele>
        <time>2023-06-23T11:27:29Z</time>
      </trkpt>
      <trkpt lat="49.46571" lon="5.72191">
        <ele>323.39999389648</ele>
        <time>2023-06-23T11:27:31Z</time>
      </trkpt>
      <trkpt lat="49.4658" lon="5.7219">
        <ele>323.39999389648</ele>
        <time>2023-06-23T11:27:33Z</time>
      </trkpt>
      <trkpt lat="49.4659" lon="5.72189">
        <ele>323.20001220703</ele>
        <time>2023-06-23T11:27:35Z</time>
      </trkpt>
      <trkpt lat="49.466" lon="5.72187">
        <ele>323</ele>
        <time>2023-06-23T11:27:37Z</time>
      </trkpt>
      <trkpt lat="49.4661" lon="5.72184">
        <ele>323</ele>
        <time>2023-06-23T11:27:39Z</time>
      </trkpt>
      <trkpt lat="49.46615" lon="5.72182">
        <ele>322.79998779297</ele>
        <time>2023-06-23T11:27:40Z</time>
      </trkpt>
      <trkpt lat="49.4662" lon="5.72179">
        <ele>322.79998779297</ele>
        <time>2023-06-23T11:27:41Z</time>
      </trkpt>
      <trkpt lat="49.46625" lon="5.72167">
        <ele>322.39999389648</ele>
        <time>2023-06-23T11:27:43Z</time>
      </trkpt>
      <trkpt lat="49.46625" lon="5.72159">
        <ele>322.20001220703</ele>
        <time>2023-06-23T11:27:44Z</time>
      </trkpt>
      <trkpt lat="49.46625" lon="5.72152">
        <ele>321.79998779297</ele>
        <time>2023-06-23T11:27:45Z</time>
      </trkpt>
      <trkpt lat="49.46623" lon="5.72137">
        <ele>321.39999389648</ele>
        <time>2023-06-23T11:27:47Z</time>
      </trkpt>
      <trkpt lat="49.46621" lon="5.72121">
        <ele>320.60000610352</ele>
        <time>2023-06-23T11:27:49Z</time>
      </trkpt>
      <trkpt lat="49.4662" lon="5.72106">
        <ele>320.60000610352</ele>
        <time>2023-06-23T11:27:51Z</time>
      </trkpt>
      <trkpt lat="49.46619" lon="5.7209">
        <ele>320.39999389648</ele>
        <time>2023-06-23T11:27:53Z</time>
      </trkpt>
      <trkpt lat="49.46617" lon="5.72074">
        <ele>320.39999389648</ele>
        <time>2023-06-23T11:27:55Z</time>
      </trkpt>
      <trkpt lat="49.46617" lon="5.72066">
        <ele>320</ele>
        <time>2023-06-23T11:27:56Z</time>
      </trkpt>
      <trkpt lat="49.46617" lon="5.72058">
        <ele>320</ele>
        <time>2023-06-23T11:27:57Z</time>
      </trkpt>
      <trkpt lat="49.46616" lon="5.72042">
        <ele>319.79998779297</ele>
        <time>2023-06-23T11:27:59Z</time>
      </trkpt>
      <trkpt lat="49.46614" lon="5.72026">
        <ele>319.60000610352</ele>
        <time>2023-06-23T11:28:01Z</time>
      </trkpt>
      <trkpt lat="49.46613" lon="5.72011">
        <ele>319.39999389648</ele>
        <time>2023-06-23T11:28:03Z</time>
      </trkpt>
      <trkpt lat="49.46612" lon="5.72003">
        <ele>319.39999389648</ele>
        <time>2023-06-23T11:28:04Z</time>
      </trkpt>
      <trkpt lat="49.46612" lon="5.71995">
        <ele>319.39999389648</ele>
        <time>2023-06-23T11:28:05Z</time>
      </trkpt>
      <trkpt lat="49.46611" lon="5.71979">
        <ele>319.20001220703</ele>
        <time>2023-06-23T11:28:07Z</time>
      </trkpt>
      <trkpt lat="49.46609" lon="5.71964">
        <ele>319.20001220703</ele>
        <time>2023-06-23T11:28:09Z</time>
      </trkpt>
      <trkpt lat="49.46608" lon="5.71949">
        <ele>319</ele>
        <time>2023-06-23T11:28:11Z</time>
      </trkpt>
      <trkpt lat="49.46607" lon="5.71932">
        <ele>319</ele>
        <time>2023-06-23T11:28:13Z</time>
      </trkpt>
      <trkpt lat="49.46606" lon="5.71915">
        <ele>318.79998779297</ele>
        <time>2023-06-23T11:28:15Z</time>
      </trkpt>
      <trkpt lat="49.46605" lon="5.71899">
        <ele>318.60000610352</ele>
        <time>2023-06-23T11:28:17Z</time>
      </trkpt>
      <trkpt lat="49.46604" lon="5.71891">
        <ele>318.60000610352</ele>
        <time>2023-06-23T11:28:18Z</time>
      </trkpt>
      <trkpt lat="49.46604" lon="5.71883">
        <ele>318.60000610352</ele>
        <time>2023-06-23T11:28:19Z</time>
      </trkpt>
      <trkpt lat="49.46603" lon="5.71866">
        <ele>318.60000610352</ele>
        <time>2023-06-23T11:28:21Z</time>
      </trkpt>
      <trkpt lat="49.46602" lon="5.71849">
        <ele>318.20001220703</ele>
        <time>2023-06-23T11:28:23Z</time>
      </trkpt>
      <trkpt lat="49.46601" lon="5.7184">
        <ele>318.20001220703</ele>
        <time>2023-06-23T11:28:24Z</time>
      </trkpt>
      <trkpt lat="49.46601" lon="5.71832">
        <ele>318.20001220703</ele>
        <time>2023-06-23T11:28:25Z</time>
      </trkpt>
      <trkpt lat="49.466" lon="5.71823">
        <ele>318</ele>
        <time>2023-06-23T11:28:26Z</time>
      </trkpt>
      <trkpt lat="49.466" lon="5.71814">
        <ele>318</ele>
        <time>2023-06-23T11:28:27Z</time>
      </trkpt>
      <trkpt lat="49.46599" lon="5.71796">
        <ele>317.79998779297</ele>
        <time>2023-06-23T11:28:29Z</time>
      </trkpt>
      <trkpt lat="49.46598" lon="5.71778">
        <ele>317.60000610352</ele>
        <time>2023-06-23T11:28:31Z</time>
      </trkpt>
      <trkpt lat="49.46597" lon="5.7176">
        <ele>317.39999389648</ele>
        <time>2023-06-23T11:28:33Z</time>
      </trkpt>
      <trkpt lat="49.46596" lon="5.71751">
        <ele>317.39999389648</ele>
        <time>2023-06-23T11:28:34Z</time>
      </trkpt>
      <trkpt lat="49.46596" lon="5.71741">
        <ele>317.39999389648</ele>
        <time>2023-06-23T11:28:35Z</time>
      </trkpt>
      <trkpt lat="49.46594" lon="5.71722">
        <ele>317.39999389648</ele>
        <time>2023-06-23T11:28:37Z</time>
      </trkpt>
      <trkpt lat="49.46592" lon="5.71704">
        <ele>317.20001220703</ele>
        <time>2023-06-23T11:28:39Z</time>
      </trkpt>
      <trkpt lat="49.46591" lon="5.71694">
        <ele>317.20001220703</ele>
        <time>2023-06-23T11:28:40Z</time>
      </trkpt>
      <trkpt lat="49.46591" lon="5.71685">
        <ele>317.20001220703</ele>
        <time>2023-06-23T11:28:41Z</time>
      </trkpt>
      <trkpt lat="49.46591" lon="5.71666">
        <ele>317</ele>
        <time>2023-06-23T11:28:43Z</time>
      </trkpt>
      <trkpt lat="49.46594" lon="5.71648">
        <ele>316.79998779297</ele>
        <time>2023-06-23T11:28:45Z</time>
      </trkpt>
      <trkpt lat="49.46596" lon="5.7164">
        <ele>316.39999389648</ele>
        <time>2023-06-23T11:28:46Z</time>
      </trkpt>
      <trkpt lat="49.46598" lon="5.71632">
        <ele>316</ele>
        <time>2023-06-23T11:28:47Z</time>
      </trkpt>
      <trkpt lat="49.46603" lon="5.71617">
        <ele>315.60000610352</ele>
        <time>2023-06-23T11:28:49Z</time>
      </trkpt>
      <trkpt lat="49.46608" lon="5.71602">
        <ele>315.20001220703</ele>
        <time>2023-06-23T11:28:51Z</time>
      </trkpt>
      <trkpt lat="49.46612" lon="5.71588">
        <ele>315</ele>
        <time>2023-06-23T11:28:53Z</time>
      </trkpt>
      <trkpt lat="49.46615" lon="5.71576">
        <ele>314.79998779297</ele>
        <time>2023-06-23T11:28:55Z</time>
      </trkpt>
      <trkpt lat="49.46617" lon="5.71571">
        <ele>314.60000610352</ele>
        <time>2023-06-23T11:28:56Z</time>
      </trkpt>
      <trkpt lat="49.46618" lon="5.71566">
        <ele>314.60000610352</ele>
        <time>2023-06-23T11:28:57Z</time>
      </trkpt>
      <trkpt lat="49.46622" lon="5.71556">
        <ele>314.39999389648</ele>
        <time>2023-06-23T11:28:59Z</time>
      </trkpt>
      <trkpt lat="49.46625" lon="5.71545">
        <ele>314.39999389648</ele>
        <time>2023-06-23T11:29:01Z</time>
      </trkpt>
      <trkpt lat="49.46628" lon="5.71534">
        <ele>314.39999389648</ele>
        <time>2023-06-23T11:29:03Z</time>
      </trkpt>
      <trkpt lat="49.46632" lon="5.71523">
        <ele>314.39999389648</ele>
        <time>2023-06-23T11:29:05Z</time>
      </trkpt>
      <trkpt lat="49.46636" lon="5.71512">
        <ele>314.60000610352</ele>
        <time>2023-06-23T11:29:07Z</time>
      </trkpt>
      <trkpt lat="49.4664" lon="5.71501">
        <ele>314.79998779297</ele>
        <time>2023-06-23T11:29:09Z</time>
      </trkpt>
      <trkpt lat="49.46643" lon="5.71489">
        <ele>314.79998779297</ele>
        <time>2023-06-23T11:29:11Z</time>
      </trkpt>
      <trkpt lat="49.46647" lon="5.71477">
        <ele>315</ele>
        <time>2023-06-23T11:29:13Z</time>
      </trkpt>
      <trkpt lat="49.4665" lon="5.71464">
        <ele>315</ele>
        <time>2023-06-23T11:29:15Z</time>
      </trkpt>
      <trkpt lat="49.46653" lon="5.71452">
        <ele>315</ele>
        <time>2023-06-23T11:29:17Z</time>
      </trkpt>
      <trkpt lat="49.46657" lon="5.71439">
        <ele>315</ele>
        <time>2023-06-23T11:29:19Z</time>
      </trkpt>
      <trkpt lat="49.46659" lon="5.71432">
        <ele>315</ele>
        <time>2023-06-23T11:29:20Z</time>
      </trkpt>
      <trkpt lat="49.46661" lon="5.71426">
        <ele>315</ele>
        <time>2023-06-23T11:29:21Z</time>
      </trkpt>
      <trkpt lat="49.46666" lon="5.71412">
        <ele>315</ele>
        <time>2023-06-23T11:29:23Z</time>
      </trkpt>
      <trkpt lat="49.4667" lon="5.71398">
        <ele>314.79998779297</ele>
        <time>2023-06-23T11:29:25Z</time>
      </trkpt>
      <trkpt lat="49.46674" lon="5.71384">
        <ele>314.79998779297</ele>
        <time>2023-06-23T11:29:27Z</time>
      </trkpt>
      <trkpt lat="49.46675" lon="5.71376">
        <ele>314.60000610352</ele>
        <time>2023-06-23T11:29:28Z</time>
      </trkpt>
      <trkpt lat="49.46677" lon="5.71369">
        <ele>314.39999389648</ele>
        <time>2023-06-23T11:29:29Z</time>
      </trkpt>
      <trkpt lat="49.46681" lon="5.71355">
        <ele>314.20001220703</ele>
        <time>2023-06-23T11:29:31Z</time>
      </trkpt>
      <trkpt lat="49.46685" lon="5.7134">
        <ele>313.79998779297</ele>
        <time>2023-06-23T11:29:33Z</time>
      </trkpt>
      <trkpt lat="49.46689" lon="5.71325">
        <ele>313.79998779297</ele>
        <time>2023-06-23T11:29:35Z</time>
      </trkpt>
      <trkpt lat="49.4669" lon="5.71317">
        <ele>313.60000610352</ele>
        <time>2023-06-23T11:29:36Z</time>
      </trkpt>
      <trkpt lat="49.46692" lon="5.71309">
        <ele>313.60000610352</ele>
        <time>2023-06-23T11:29:37Z</time>
      </trkpt>
      <trkpt lat="49.46695" lon="5.71294">
        <ele>313.39999389648</ele>
        <time>2023-06-23T11:29:39Z</time>
      </trkpt>
      <trkpt lat="49.46698" lon="5.7128">
        <ele>313</ele>
        <time>2023-06-23T11:29:41Z</time>
      </trkpt>
      <trkpt lat="49.467" lon="5.71265">
        <ele>313</ele>
        <time>2023-06-23T11:29:43Z</time>
      </trkpt>
      <trkpt lat="49.46702" lon="5.71258">
        <ele>313</ele>
        <time>2023-06-23T11:29:44Z</time>
      </trkpt>
      <trkpt lat="49.46703" lon="5.7125">
        <ele>313</ele>
        <time>2023-06-23T11:29:45Z</time>
      </trkpt>
      <trkpt lat="49.46704" lon="5.71242">
        <ele>313</ele>
        <time>2023-06-23T11:29:46Z</time>
      </trkpt>
      <trkpt lat="49.46704" lon="5.71235">
        <ele>312.79998779297</ele>
        <time>2023-06-23T11:29:47Z</time>
      </trkpt>
      <trkpt lat="49.46706" lon="5.7122">
        <ele>312.79998779297</ele>
        <time>2023-06-23T11:29:49Z</time>
      </trkpt>
      <trkpt lat="49.46707" lon="5.71212">
        <ele>312.79998779297</ele>
        <time>2023-06-23T11:29:50Z</time>
      </trkpt>
      <trkpt lat="49.46708" lon="5.71205">
        <ele>312.79998779297</ele>
        <time>2023-06-23T11:29:51Z</time>
      </trkpt>
      <trkpt lat="49.4671" lon="5.71189">
        <ele>312.60000610352</ele>
        <time>2023-06-23T11:29:53Z</time>
      </trkpt>
      <trkpt lat="49.46712" lon="5.71174">
        <ele>312.20001220703</ele>
        <time>2023-06-23T11:29:55Z</time>
      </trkpt>
      <trkpt lat="49.46714" lon="5.71159">
        <ele>312</ele>
        <time>2023-06-23T11:29:57Z</time>
      </trkpt>
      <trkpt lat="49.46715" lon="5.71151">
        <ele>311.79998779297</ele>
        <time>2023-06-23T11:29:58Z</time>
      </trkpt>
      <trkpt lat="49.46716" lon="5.71143">
        <ele>311.79998779297</ele>
        <time>2023-06-23T11:29:59Z</time>
      </trkpt>
      <trkpt lat="49.46719" lon="5.71126">
        <ele>311.60000610352</ele>
        <time>2023-06-23T11:30:01Z</time>
      </trkpt>
      <trkpt lat="49.46721" lon="5.71109">
        <ele>311</ele>
        <time>2023-06-23T11:30:03Z</time>
      </trkpt>
      <trkpt lat="49.46723" lon="5.711">
        <ele>310.79998779297</ele>
        <time>2023-06-23T11:30:04Z</time>
      </trkpt>
      <trkpt lat="49.46724" lon="5.71092">
        <ele>310.79998779297</ele>
        <time>2023-06-23T11:30:05Z</time>
      </trkpt>
      <trkpt lat="49.46727" lon="5.71074">
        <ele>310.60000610352</ele>
        <time>2023-06-23T11:30:07Z</time>
      </trkpt>
      <trkpt lat="49.46729" lon="5.71055">
        <ele>309.60000610352</ele>
        <time>2023-06-23T11:30:09Z</time>
      </trkpt>
      <trkpt lat="49.46732" lon="5.71034">
        <ele>309.20001220703</ele>
        <time>2023-06-23T11:30:11Z</time>
      </trkpt>
      <trkpt lat="49.46734" lon="5.71023">
        <ele>309</ele>
        <time>2023-06-23T11:30:12Z</time>
      </trkpt>
      <trkpt lat="49.46736" lon="5.71012">
        <ele>308.79998779297</ele>
        <time>2023-06-23T11:30:13Z</time>
      </trkpt>
      <trkpt lat="49.46739" lon="5.71001">
        <ele>308.39999389648</ele>
        <time>2023-06-23T11:30:14Z</time>
      </trkpt>
      <trkpt lat="49.46742" lon="5.70991">
        <ele>308.20001220703</ele>
        <time>2023-06-23T11:30:15Z</time>
      </trkpt>
      <trkpt lat="49.46746" lon="5.7098">
        <ele>308</ele>
        <time>2023-06-23T11:30:16Z</time>
      </trkpt>
      <trkpt lat="49.4675" lon="5.70971">
        <ele>307.79998779297</ele>
        <time>2023-06-23T11:30:17Z</time>
      </trkpt>
      <trkpt lat="49.46754" lon="5.70961">
        <ele>307.20001220703</ele>
        <time>2023-06-23T11:30:18Z</time>
      </trkpt>
      <trkpt lat="49.46759" lon="5.70952">
        <ele>306.20001220703</ele>
        <time>2023-06-23T11:30:19Z</time>
      </trkpt>
      <trkpt lat="49.46763" lon="5.70943">
        <ele>305.60000610352</ele>
        <time>2023-06-23T11:30:20Z</time>
      </trkpt>
      <trkpt lat="49.46768" lon="5.70934">
        <ele>304.60000610352</ele>
        <time>2023-06-23T11:30:21Z</time>
      </trkpt>
      <trkpt lat="49.46774" lon="5.70926">
        <ele>304</ele>
        <time>2023-06-23T11:30:22Z</time>
      </trkpt>
      <trkpt lat="49.4678" lon="5.70917">
        <ele>303.60000610352</ele>
        <time>2023-06-23T11:30:23Z</time>
      </trkpt>
      <trkpt lat="49.46793" lon="5.70899">
        <ele>303</ele>
        <time>2023-06-23T11:30:25Z</time>
      </trkpt>
      <trkpt lat="49.46805" lon="5.70881">
        <ele>302.39999389648</ele>
        <time>2023-06-23T11:30:27Z</time>
      </trkpt>
      <trkpt lat="49.46811" lon="5.70873">
        <ele>301.60000610352</ele>
        <time>2023-06-23T11:30:28Z</time>
      </trkpt>
      <trkpt lat="49.46816" lon="5.70865">
        <ele>300.79998779297</ele>
        <time>2023-06-23T11:30:29Z</time>
      </trkpt>
      <trkpt lat="49.46822" lon="5.70856">
        <ele>299.79998779297</ele>
        <time>2023-06-23T11:30:30Z</time>
      </trkpt>
      <trkpt lat="49.46827" lon="5.70848">
        <ele>299.20001220703</ele>
        <time>2023-06-23T11:30:31Z</time>
      </trkpt>
      <trkpt lat="49.46833" lon="5.70841">
        <ele>298.39999389648</ele>
        <time>2023-06-23T11:30:32Z</time>
      </trkpt>
      <trkpt lat="49.46838" lon="5.70833">
        <ele>297</ele>
        <time>2023-06-23T11:30:33Z</time>
      </trkpt>
      <trkpt lat="49.46848" lon="5.70819">
        <ele>295.20001220703</ele>
        <time>2023-06-23T11:30:35Z</time>
      </trkpt>
      <trkpt lat="49.46859" lon="5.70803">
        <ele>294.60000610352</ele>
        <time>2023-06-23T11:30:37Z</time>
      </trkpt>
      <trkpt lat="49.46868" lon="5.70788">
        <ele>294.20001220703</ele>
        <time>2023-06-23T11:30:39Z</time>
      </trkpt>
      <trkpt lat="49.46878" lon="5.70773">
        <ele>294</ele>
        <time>2023-06-23T11:30:41Z</time>
      </trkpt>
      <trkpt lat="49.46887" lon="5.70757">
        <ele>293.39999389648</ele>
        <time>2023-06-23T11:30:43Z</time>
      </trkpt>
      <trkpt lat="49.4689" lon="5.70748">
        <ele>293</ele>
        <time>2023-06-23T11:30:44Z</time>
      </trkpt>
      <trkpt lat="49.46893" lon="5.7074">
        <ele>292.79998779297</ele>
        <time>2023-06-23T11:30:45Z</time>
      </trkpt>
      <trkpt lat="49.46899" lon="5.70722">
        <ele>292.39999389648</ele>
        <time>2023-06-23T11:30:47Z</time>
      </trkpt>
      <trkpt lat="49.46901" lon="5.70714">
        <ele>292.39999389648</ele>
        <time>2023-06-23T11:30:48Z</time>
      </trkpt>
      <trkpt lat="49.46902" lon="5.70705">
        <ele>292.20001220703</ele>
        <time>2023-06-23T11:30:49Z</time>
      </trkpt>
      <trkpt lat="49.46906" lon="5.70687">
        <ele>292</ele>
        <time>2023-06-23T11:30:51Z</time>
      </trkpt>
      <trkpt lat="49.46907" lon="5.70678">
        <ele>291.79998779297</ele>
        <time>2023-06-23T11:30:52Z</time>
      </trkpt>
      <trkpt lat="49.46909" lon="5.7067">
        <ele>291.60000610352</ele>
        <time>2023-06-23T11:30:53Z</time>
      </trkpt>
      <trkpt lat="49.46912" lon="5.70652">
        <ele>291.39999389648</ele>
        <time>2023-06-23T11:30:55Z</time>
      </trkpt>
      <trkpt lat="49.46913" lon="5.70643">
        <ele>291.20001220703</ele>
        <time>2023-06-23T11:30:56Z</time>
      </trkpt>
      <trkpt lat="49.46915" lon="5.70634">
        <ele>291</ele>
        <time>2023-06-23T11:30:57Z</time>
      </trkpt>
      <trkpt lat="49.46918" lon="5.70616">
        <ele>290.79998779297</ele>
        <time>2023-06-23T11:30:59Z</time>
      </trkpt>
      <trkpt lat="49.4692" lon="5.70598">
        <ele>290.60000610352</ele>
        <time>2023-06-23T11:31:01Z</time>
      </trkpt>
      <trkpt lat="49.46923" lon="5.70579">
        <ele>290.60000610352</ele>
        <time>2023-06-23T11:31:03Z</time>
      </trkpt>
      <trkpt lat="49.46924" lon="5.7057">
        <ele>290.60000610352</ele>
        <time>2023-06-23T11:31:04Z</time>
      </trkpt>
      <trkpt lat="49.46925" lon="5.70561">
        <ele>290.60000610352</ele>
        <time>2023-06-23T11:31:05Z</time>
      </trkpt>
      <trkpt lat="49.46927" lon="5.70542">
        <ele>290.39999389648</ele>
        <time>2023-06-23T11:31:07Z</time>
      </trkpt>
      <trkpt lat="49.46929" lon="5.70524">
        <ele>290.20001220703</ele>
        <time>2023-06-23T11:31:09Z</time>
      </trkpt>
      <trkpt lat="49.46933" lon="5.70505">
        <ele>290.20001220703</ele>
        <time>2023-06-23T11:31:11Z</time>
      </trkpt>
      <trkpt lat="49.46936" lon="5.70496">
        <ele>290</ele>
        <time>2023-06-23T11:31:12Z</time>
      </trkpt>
      <trkpt lat="49.46939" lon="5.70488">
        <ele>290</ele>
        <time>2023-06-23T11:31:13Z</time>
      </trkpt>
      <trkpt lat="49.46942" lon="5.70479">
        <ele>289.60000610352</ele>
        <time>2023-06-23T11:31:14Z</time>
      </trkpt>
      <trkpt lat="49.46945" lon="5.7047">
        <ele>289.39999389648</ele>
        <time>2023-06-23T11:31:15Z</time>
      </trkpt>
      <trkpt lat="49.46952" lon="5.70454">
        <ele>289</ele>
        <time>2023-06-23T11:31:17Z</time>
      </trkpt>
      <trkpt lat="49.46958" lon="5.70437">
        <ele>288.79998779297</ele>
        <time>2023-06-23T11:31:19Z</time>
      </trkpt>
      <trkpt lat="49.46962" lon="5.70428">
        <ele>288.20001220703</ele>
        <time>2023-06-23T11:31:20Z</time>
      </trkpt>
      <trkpt lat="49.46965" lon="5.7042">
        <ele>288</ele>
        <time>2023-06-23T11:31:21Z</time>
      </trkpt>
      <trkpt lat="49.46972" lon="5.70404">
        <ele>287.60000610352</ele>
        <time>2023-06-23T11:31:23Z</time>
      </trkpt>
      <trkpt lat="49.46979" lon="5.70389">
        <ele>287.39999389648</ele>
        <time>2023-06-23T11:31:25Z</time>
      </trkpt>
      <trkpt lat="49.46983" lon="5.70381">
        <ele>287.39999389648</ele>
        <time>2023-06-23T11:31:26Z</time>
      </trkpt>
      <trkpt lat="49.46986" lon="5.70374">
        <ele>287.20001220703</ele>
        <time>2023-06-23T11:31:27Z</time>
      </trkpt>
      <trkpt lat="49.46994" lon="5.7036">
        <ele>287</ele>
        <time>2023-06-23T11:31:29Z</time>
      </trkpt>
      <trkpt lat="49.47001" lon="5.70347">
        <ele>286.79998779297</ele>
        <time>2023-06-23T11:31:31Z</time>
      </trkpt>
      <trkpt lat="49.47008" lon="5.70334">
        <ele>286.79998779297</ele>
        <time>2023-06-23T11:31:33Z</time>
      </trkpt>
      <trkpt lat="49.47011" lon="5.70327">
        <ele>286.79998779297</ele>
        <time>2023-06-23T11:31:34Z</time>
      </trkpt>
      <trkpt lat="49.47015" lon="5.7032">
        <ele>286.79998779297</ele>
        <time>2023-06-23T11:31:35Z</time>
      </trkpt>
      <trkpt lat="49.4702" lon="5.70306">
        <ele>286.79998779297</ele>
        <time>2023-06-23T11:31:37Z</time>
      </trkpt>
      <trkpt lat="49.47025" lon="5.70291">
        <ele>286.79998779297</ele>
        <time>2023-06-23T11:31:39Z</time>
      </trkpt>
      <trkpt lat="49.47027" lon="5.70283">
        <ele>286.79998779297</ele>
        <time>2023-06-23T11:31:40Z</time>
      </trkpt>
      <trkpt lat="49.47028" lon="5.70276">
        <ele>286.79998779297</ele>
        <time>2023-06-23T11:31:41Z</time>
      </trkpt>
      <trkpt lat="49.47031" lon="5.7026">
        <ele>287.20001220703</ele>
        <time>2023-06-23T11:31:43Z</time>
      </trkpt>
      <trkpt lat="49.47034" lon="5.70244">
        <ele>287.20001220703</ele>
        <time>2023-06-23T11:31:45Z</time>
      </trkpt>
      <trkpt lat="49.47037" lon="5.70227">
        <ele>287.20001220703</ele>
        <time>2023-06-23T11:31:47Z</time>
      </trkpt>
      <trkpt lat="49.47039" lon="5.7021">
        <ele>287.20001220703</ele>
        <time>2023-06-23T11:31:49Z</time>
      </trkpt>
      <trkpt lat="49.47042" lon="5.70193">
        <ele>287</ele>
        <time>2023-06-23T11:31:51Z</time>
      </trkpt>
      <trkpt lat="49.47045" lon="5.70176">
        <ele>286.60000610352</ele>
        <time>2023-06-23T11:31:53Z</time>
      </trkpt>
      <trkpt lat="49.47048" lon="5.70159">
        <ele>286.20001220703</ele>
        <time>2023-06-23T11:31:55Z</time>
      </trkpt>
      <trkpt lat="49.4705" lon="5.7015">
        <ele>286</ele>
        <time>2023-06-23T11:31:56Z</time>
      </trkpt>
      <trkpt lat="49.47052" lon="5.70141">
        <ele>285.60000610352</ele>
        <time>2023-06-23T11:31:57Z</time>
      </trkpt>
      <trkpt lat="49.47056" lon="5.70122">
        <ele>285</ele>
        <time>2023-06-23T11:31:59Z</time>
      </trkpt>
      <trkpt lat="49.47059" lon="5.70102">
        <ele>283.60000610352</ele>
        <time>2023-06-23T11:32:01Z</time>
      </trkpt>
      <trkpt lat="49.47059" lon="5.70091">
        <ele>282.39999389648</ele>
        <time>2023-06-23T11:32:02Z</time>
      </trkpt>
      <trkpt lat="49.47056" lon="5.7008">
        <ele>282.20001220703</ele>
        <time>2023-06-23T11:32:03Z</time>
      </trkpt>
      <trkpt lat="49.47052" lon="5.70071">
        <ele>281.79998779297</ele>
        <time>2023-06-23T11:32:04Z</time>
      </trkpt>
      <trkpt lat="49.47048" lon="5.70062">
        <ele>281.60000610352</ele>
        <time>2023-06-23T11:32:05Z</time>
      </trkpt>
      <trkpt lat="49.47045" lon="5.70054">
        <ele>281.39999389648</ele>
        <time>2023-06-23T11:32:06Z</time>
      </trkpt>
      <trkpt lat="49.47042" lon="5.70045">
        <ele>281</ele>
        <time>2023-06-23T11:32:07Z</time>
      </trkpt>
      <trkpt lat="49.47039" lon="5.70036">
        <ele>280.79998779297</ele>
        <time>2023-06-23T11:32:08Z</time>
      </trkpt>
      <trkpt lat="49.47037" lon="5.70027">
        <ele>280</ele>
        <time>2023-06-23T11:32:09Z</time>
      </trkpt>
      <trkpt lat="49.47033" lon="5.70008">
        <ele>278.60000610352</ele>
        <time>2023-06-23T11:32:11Z</time>
      </trkpt>
      <trkpt lat="49.47028" lon="5.69989">
        <ele>278.20001220703</ele>
        <time>2023-06-23T11:32:13Z</time>
      </trkpt>
      <trkpt lat="49.47025" lon="5.6998">
        <ele>278.20001220703</ele>
        <time>2023-06-23T11:32:14Z</time>
      </trkpt>
      <trkpt lat="49.47021" lon="5.69973">
        <ele>278.20001220703</ele>
        <time>2023-06-23T11:32:15Z</time>
      </trkpt>
      <trkpt lat="49.47011" lon="5.69964">
        <ele>278.20001220703</ele>
        <time>2023-06-23T11:32:17Z</time>
      </trkpt>
      <trkpt lat="49.47" lon="5.69962">
        <ele>278.20001220703</ele>
        <time>2023-06-23T11:32:19Z</time>
      </trkpt>
      <trkpt lat="49.46995" lon="5.6996">
        <ele>278.20001220703</ele>
        <time>2023-06-23T11:32:20Z</time>
      </trkpt>
      <trkpt lat="49.4699" lon="5.69958">
        <ele>278.20001220703</ele>
        <time>2023-06-23T11:32:21Z</time>
      </trkpt>
      <trkpt lat="49.46981" lon="5.69954">
        <ele>278.20001220703</ele>
        <time>2023-06-23T11:32:23Z</time>
      </trkpt>
      <trkpt lat="49.46972" lon="5.69951">
        <ele>278.60000610352</ele>
        <time>2023-06-23T11:32:25Z</time>
      </trkpt>
      <trkpt lat="49.46963" lon="5.69948">
        <ele>278.79998779297</ele>
        <time>2023-06-23T11:32:27Z</time>
      </trkpt>
      <trkpt lat="49.46955" lon="5.69944">
        <ele>279.60000610352</ele>
        <time>2023-06-23T11:32:29Z</time>
      </trkpt>
      <trkpt lat="49.46947" lon="5.69941">
        <ele>280.60000610352</ele>
        <time>2023-06-23T11:32:31Z</time>
      </trkpt>
      <trkpt lat="49.46943" lon="5.69939">
        <ele>280.79998779297</ele>
        <time>2023-06-23T11:32:32Z</time>
      </trkpt>
      <trkpt lat="49.46938" lon="5.69937">
        <ele>280.79998779297</ele>
        <time>2023-06-23T11:32:33Z</time>
      </trkpt>
      <trkpt lat="49.4693" lon="5.69933">
        <ele>281.39999389648</ele>
        <time>2023-06-23T11:32:35Z</time>
      </trkpt>
      <trkpt lat="49.46926" lon="5.69931">
        <ele>281.79998779297</ele>
        <time>2023-06-23T11:32:36Z</time>
      </trkpt>
      <trkpt lat="49.46922" lon="5.69929">
        <ele>282</ele>
        <time>2023-06-23T11:32:37Z</time>
      </trkpt>
      <trkpt lat="49.46914" lon="5.69925">
        <ele>282.39999389648</ele>
        <time>2023-06-23T11:32:39Z</time>
      </trkpt>
      <trkpt lat="49.46906" lon="5.69922">
        <ele>282.79998779297</ele>
        <time>2023-06-23T11:32:41Z</time>
      </trkpt>
      <trkpt lat="49.46902" lon="5.69921">
        <ele>283</ele>
        <time>2023-06-23T11:32:42Z</time>
      </trkpt>
      <trkpt lat="49.46898" lon="5.69919">
        <ele>283.20001220703</ele>
        <time>2023-06-23T11:32:43Z</time>
      </trkpt>
      <trkpt lat="49.4689" lon="5.69917">
        <ele>283.79998779297</ele>
        <time>2023-06-23T11:32:45Z</time>
      </trkpt>
      <trkpt lat="49.46886" lon="5.69916">
        <ele>284</ele>
        <time>2023-06-23T11:32:46Z</time>
      </trkpt>
      <trkpt lat="49.46882" lon="5.69915">
        <ele>284.39999389648</ele>
        <time>2023-06-23T11:32:47Z</time>
      </trkpt>
      <trkpt lat="49.46874" lon="5.69914">
        <ele>285</ele>
        <time>2023-06-23T11:32:49Z</time>
      </trkpt>
      <trkpt lat="49.4687" lon="5.69915">
        <ele>285.20001220703</ele>
        <time>2023-06-23T11:32:50Z</time>
      </trkpt>
      <trkpt lat="49.46866" lon="5.69916">
        <ele>285.39999389648</ele>
        <time>2023-06-23T11:32:51Z</time>
      </trkpt>
      <trkpt lat="49.46863" lon="5.69917">
        <ele>285.60000610352</ele>
        <time>2023-06-23T11:32:52Z</time>
      </trkpt>
      <trkpt lat="49.4686" lon="5.6992">
        <ele>286</ele>
        <time>2023-06-23T11:32:53Z</time>
      </trkpt>
      <trkpt lat="49.46854" lon="5.69926">
        <ele>286.39999389648</ele>
        <time>2023-06-23T11:32:55Z</time>
      </trkpt>
      <trkpt lat="49.46849" lon="5.69932">
        <ele>286.60000610352</ele>
        <time>2023-06-23T11:32:57Z</time>
      </trkpt>
      <trkpt lat="49.46843" lon="5.69938">
        <ele>286.60000610352</ele>
        <time>2023-06-23T11:32:59Z</time>
      </trkpt>
      <trkpt lat="49.46838" lon="5.69944">
        <ele>287.20001220703</ele>
        <time>2023-06-23T11:33:01Z</time>
      </trkpt>
      <trkpt lat="49.46833" lon="5.6995">
        <ele>287.39999389648</ele>
        <time>2023-06-23T11:33:03Z</time>
      </trkpt>
      <trkpt lat="49.46828" lon="5.69956">
        <ele>287.60000610352</ele>
        <time>2023-06-23T11:33:05Z</time>
      </trkpt>
      <trkpt lat="49.46825" lon="5.69958">
        <ele>287.79998779297</ele>
        <time>2023-06-23T11:33:06Z</time>
      </trkpt>
      <trkpt lat="49.46822" lon="5.69961">
        <ele>288</ele>
        <time>2023-06-23T11:33:07Z</time>
      </trkpt>
      <trkpt lat="49.46817" lon="5.69967">
        <ele>288.39999389648</ele>
        <time>2023-06-23T11:33:09Z</time>
      </trkpt>
      <trkpt lat="49.46815" lon="5.6997">
        <ele>288.60000610352</ele>
        <time>2023-06-23T11:33:10Z</time>
      </trkpt>
      <trkpt lat="49.46812" lon="5.69973">
        <ele>288.60000610352</ele>
        <time>2023-06-23T11:33:11Z</time>
      </trkpt>
      <trkpt lat="49.46807" lon="5.69979">
        <ele>289</ele>
        <time>2023-06-23T11:33:13Z</time>
      </trkpt>
      <trkpt lat="49.46802" lon="5.69986">
        <ele>289.20001220703</ele>
        <time>2023-06-23T11:33:15Z</time>
      </trkpt>
      <trkpt lat="49.46797" lon="5.69991">
        <ele>289.39999389648</ele>
        <time>2023-06-23T11:33:17Z</time>
      </trkpt>
      <trkpt lat="49.46795" lon="5.69994">
        <ele>289.39999389648</ele>
        <time>2023-06-23T11:33:18Z</time>
      </trkpt>
    </trkseg>
  </trk>
</gpx>